<?xml version='1.0' encoding='UTF-8'?><gpx version="1.1" creator="JPX - https://github.com/jenetics/jpx" xmlns="http://www.topografix.com/GPX/1/1"><trk><trkseg><trkpt lat="45.050415693878676" lon="9.13068368987019"><ele>74.0</ele><time>2026-04-06T12:04:53Z</time></trkpt><trkpt lat="45.05034134187204" lon="9.130680677193448"><ele>74.0</ele><time>2026-04-06T12:05:36Z</time></trkpt><trkpt lat="45.05026314161755" lon="9.130711717803305"><ele>74.0</ele><time>2026-04-06T12:05:59Z</time></trkpt><trkpt lat="45.050206431411056" lon="9.130654488323104"><ele>74.0</ele><time>2026-04-06T12:06:03Z</time></trkpt><trkpt lat="45.050212270491556" lon="9.130556211686626"><ele>74.0</ele><time>2026-04-06T12:06:05Z</time></trkpt><trkpt lat="45.05024487777901" lon="9.130461089253995"><ele>74.0</ele><time>2026-04-06T12:06:06Z</time></trkpt><trkpt lat="45.05026901163405" lon="9.130368833923399"><ele>74.0</ele><time>2026-04-06T12:06:07Z</time></trkpt><trkpt lat="45.05028842370729" lon="9.130212854198207"><ele>74.0</ele><time>2026-04-06T12:06:09Z</time></trkpt><trkpt lat="45.05031348174633" lon="9.130058172777014"><ele>74.0</ele><time>2026-04-06T12:06:11Z</time></trkpt><trkpt lat="45.05033293928714" lon="9.129907781082455"><ele>74.0</ele><time>2026-04-06T12:06:13Z</time></trkpt><trkpt lat="45.05035566187692" lon="9.129801958932513"><ele>74.0</ele><time>2026-04-06T12:06:15Z</time></trkpt><trkpt lat="45.05037664321623" lon="9.129709137086532"><ele>74.0</ele><time>2026-04-06T12:06:18Z</time></trkpt><trkpt lat="45.05024596540103" lon="9.129612301239419"><ele>74.0</ele><time>2026-04-06T12:06:21Z</time></trkpt><trkpt lat="45.050153538351594" lon="9.12959083432901"><ele>74.0</ele><time>2026-04-06T12:06:22Z</time></trkpt><trkpt lat="45.05005744869518" lon="9.129561848315307"><ele>74.0</ele><time>2026-04-06T12:06:23Z</time></trkpt><trkpt lat="45.049971168480454" lon="9.12951618352432"><ele>74.0</ele><time>2026-04-06T12:06:24Z</time></trkpt><trkpt lat="45.04986829172646" lon="9.129486728380487"><ele>74.0</ele><time>2026-04-06T12:06:25Z</time></trkpt><trkpt lat="45.04975876737664" lon="9.129455876199692"><ele>74.0</ele><time>2026-04-06T12:06:26Z</time></trkpt><trkpt lat="45.04964325864942" lon="9.129423200599492"><ele>74.0</ele><time>2026-04-06T12:06:27Z</time></trkpt><trkpt lat="45.049525486820784" lon="9.129389406410185"><ele>74.0</ele><time>2026-04-06T12:06:28Z</time></trkpt><trkpt lat="45.049407684799775" lon="9.129355307000075"><ele>74.0</ele><time>2026-04-06T12:06:29Z</time></trkpt><trkpt lat="45.04928667688287" lon="9.129317347695652"><ele>74.0</ele><time>2026-04-06T12:06:30Z</time></trkpt><trkpt lat="45.04916484128577" lon="9.129280116125287"><ele>74.0</ele><time>2026-04-06T12:06:31Z</time></trkpt><trkpt lat="45.04904218965804" lon="9.129242634746799"><ele>74.0</ele><time>2026-04-06T12:06:32Z</time></trkpt><trkpt lat="45.048921731784176" lon="9.129251829696583"><ele>74.0</ele><time>2026-04-06T12:06:33Z</time></trkpt><trkpt lat="45.04880983146714" lon="9.129216921029393"><ele>74.0</ele><time>2026-04-06T12:06:34Z</time></trkpt><trkpt lat="45.04869700223789" lon="9.129186262944607"><ele>74.0</ele><time>2026-04-06T12:06:35Z</time></trkpt><trkpt lat="45.0485862215932" lon="9.129153750610778"><ele>74.0</ele><time>2026-04-06T12:06:36Z</time></trkpt><trkpt lat="45.04847521073892" lon="9.129120208062892"><ele>74.0</ele><time>2026-04-06T12:06:37Z</time></trkpt><trkpt lat="45.04837144971452" lon="9.129052776164446"><ele>74.60000000000001</ele><time>2026-04-06T12:06:38Z</time></trkpt><trkpt lat="45.04826184997115" lon="9.12901977429746"><ele>75.2</ele><time>2026-04-06T12:06:39Z</time></trkpt><trkpt lat="45.04815097814172" lon="9.128985361127524"><ele>75.80000000000001</ele><time>2026-04-06T12:06:40Z</time></trkpt><trkpt lat="45.048046922760925" lon="9.128951980533566"><ele>76.4</ele><time>2026-04-06T12:06:41Z</time></trkpt><trkpt lat="45.047938447592244" lon="9.128917306829482"><ele>77.0</ele><time>2026-04-06T12:06:42Z</time></trkpt><trkpt lat="45.047829572765906" lon="9.128888367595156"><ele>77.0</ele><time>2026-04-06T12:06:43Z</time></trkpt><trkpt lat="45.04773841887011" lon="9.12886712482567"><ele>77.0</ele><time>2026-04-06T12:06:44Z</time></trkpt><trkpt lat="45.047653230270335" lon="9.128849775421003"><ele>77.0</ele><time>2026-04-06T12:06:45Z</time></trkpt><trkpt lat="45.04757386095897" lon="9.128835717881776"><ele>77.0</ele><time>2026-04-06T12:06:46Z</time></trkpt><trkpt lat="45.04750124502519" lon="9.1288303909787"><ele>77.0</ele><time>2026-04-06T12:06:47Z</time></trkpt><trkpt lat="45.047394431089145" lon="9.128808316015512"><ele>77.0</ele><time>2026-04-06T12:06:49Z</time></trkpt><trkpt lat="45.04734546336288" lon="9.129017840211935"><ele>77.25</ele><time>2026-04-06T12:06:51Z</time></trkpt><trkpt lat="45.04734074530146" lon="9.129153836399908"><ele>77.5</ele><time>2026-04-06T12:06:52Z</time></trkpt><trkpt lat="45.04732701274134" lon="9.129311383374615"><ele>77.75</ele><time>2026-04-06T12:06:53Z</time></trkpt><trkpt lat="45.04730685905082" lon="9.129518863373569"><ele>78.0</ele><time>2026-04-06T12:06:54Z</time></trkpt><trkpt lat="45.047289519883684" lon="9.129719304512804"><ele>77.0</ele><time>2026-04-06T12:06:55Z</time></trkpt><trkpt lat="45.04727339803773" lon="9.129937069372165"><ele>76.0</ele><time>2026-04-06T12:06:56Z</time></trkpt><trkpt lat="45.04725522460747" lon="9.13017825811584"><ele>75.0</ele><time>2026-04-06T12:06:57Z</time></trkpt><trkpt lat="45.047221102757476" lon="9.130424482699592"><ele>75.0</ele><time>2026-04-06T12:06:58Z</time></trkpt><trkpt lat="45.04720161762841" lon="9.130670828777047"><ele>75.0</ele><time>2026-04-06T12:06:59Z</time></trkpt><trkpt lat="45.04718131628981" lon="9.13092749371567"><ele>75.0</ele><time>2026-04-06T12:07:00Z</time></trkpt><trkpt lat="45.04716022314131" lon="9.131194173557137"><ele>74.33333333333333</ele><time>2026-04-06T12:07:01Z</time></trkpt><trkpt lat="45.04713997408825" lon="9.131445878840456"><ele>73.66666666666666</ele><time>2026-04-06T12:07:02Z</time></trkpt><trkpt lat="45.047121701730426" lon="9.131668103313018"><ele>73.0</ele><time>2026-04-06T12:07:03Z</time></trkpt><trkpt lat="45.04710413791921" lon="9.13188037764599"><ele>73.0</ele><time>2026-04-06T12:07:04Z</time></trkpt><trkpt lat="45.04708628923395" lon="9.132097827822125"><ele>73.0</ele><time>2026-04-06T12:07:05Z</time></trkpt><trkpt lat="45.04706844570712" lon="9.132315047502274"><ele>73.0</ele><time>2026-04-06T12:07:06Z</time></trkpt><trkpt lat="45.04705230615077" lon="9.132511524488955"><ele>73.0</ele><time>2026-04-06T12:07:07Z</time></trkpt><trkpt lat="45.04705452528227" lon="9.132693219102768"><ele>73.0</ele><time>2026-04-06T12:07:08Z</time></trkpt><trkpt lat="45.04704043367995" lon="9.132864295377118"><ele>73.0</ele><time>2026-04-06T12:07:09Z</time></trkpt><trkpt lat="45.04702846414518" lon="9.133010369473515"><ele>73.0</ele><time>2026-04-06T12:07:10Z</time></trkpt><trkpt lat="45.04702005461969" lon="9.133123935784193"><ele>73.0</ele><time>2026-04-06T12:07:11Z</time></trkpt><trkpt lat="45.046998792312046" lon="9.1332413745655"><ele>73.0</ele><time>2026-04-06T12:07:13Z</time></trkpt><trkpt lat="45.046866415076025" lon="9.133285194027112"><ele>72.75</ele><time>2026-04-06T12:07:16Z</time></trkpt><trkpt lat="45.04678323564549" lon="9.13326457044653"><ele>72.5</ele><time>2026-04-06T12:07:17Z</time></trkpt><trkpt lat="45.04666328978577" lon="9.133230122827941"><ele>72.25</ele><time>2026-04-06T12:07:18Z</time></trkpt><trkpt lat="45.04651593868844" lon="9.13319289419919"><ele>72.0</ele><time>2026-04-06T12:07:19Z</time></trkpt><trkpt lat="45.04635306442061" lon="9.133149551081301"><ele>73.0</ele><time>2026-04-06T12:07:20Z</time></trkpt><trkpt lat="45.0461937516058" lon="9.133105846602215"><ele>74.0</ele><time>2026-04-06T12:07:21Z</time></trkpt><trkpt lat="45.046015571754005" lon="9.133060985908664"><ele>75.0</ele><time>2026-04-06T12:07:22Z</time></trkpt><trkpt lat="45.045823715693494" lon="9.133014929089732"><ele>75.33333333333333</ele><time>2026-04-06T12:07:23Z</time></trkpt><trkpt lat="45.045612717806264" lon="9.132965304079516"><ele>75.66666666666666</ele><time>2026-04-06T12:07:24Z</time></trkpt><trkpt lat="45.04541765238391" lon="9.132924855572123"><ele>76.0</ele><time>2026-04-06T12:07:25Z</time></trkpt><trkpt lat="45.04521294526556" lon="9.132884671584433"><ele>76.0</ele><time>2026-04-06T12:07:26Z</time></trkpt><trkpt lat="45.04499720809517" lon="9.132841065945197"><ele>76.0</ele><time>2026-04-06T12:07:27Z</time></trkpt><trkpt lat="45.04478848092175" lon="9.132801874200952"><ele>76.0</ele><time>2026-04-06T12:07:28Z</time></trkpt><trkpt lat="45.044580945692864" lon="9.132761885717668"><ele>75.66666666666666</ele><time>2026-04-06T12:07:29Z</time></trkpt><trkpt lat="45.044376260678746" lon="9.132723631266703"><ele>75.33333333333333</ele><time>2026-04-06T12:07:30Z</time></trkpt><trkpt lat="45.04417227669049" lon="9.132687924217821"><ele>75.0</ele><time>2026-04-06T12:07:31Z</time></trkpt><trkpt lat="45.043966471421264" lon="9.132655700235876"><ele>75.0</ele><time>2026-04-06T12:07:32Z</time></trkpt><trkpt lat="45.04375619453224" lon="9.132623165938908"><ele>75.0</ele><time>2026-04-06T12:07:33Z</time></trkpt><trkpt lat="45.04354412487333" lon="9.13258348813089"><ele>75.0</ele><time>2026-04-06T12:07:34Z</time></trkpt><trkpt lat="45.04333045623594" lon="9.132537935462095"><ele>74.66666666666667</ele><time>2026-04-06T12:07:35Z</time></trkpt><trkpt lat="45.043115838282134" lon="9.132493085822263"><ele>74.33333333333334</ele><time>2026-04-06T12:07:36Z</time></trkpt><trkpt lat="45.04290187178425" lon="9.132446965160073"><ele>74.0</ele><time>2026-04-06T12:07:37Z</time></trkpt><trkpt lat="45.042683818973835" lon="9.132402653118133"><ele>74.0</ele><time>2026-04-06T12:07:38Z</time></trkpt><trkpt lat="45.042465450997064" lon="9.13235611846136"><ele>74.0</ele><time>2026-04-06T12:07:39Z</time></trkpt><trkpt lat="45.04224560388528" lon="9.132311075756041"><ele>74.0</ele><time>2026-04-06T12:07:40Z</time></trkpt><trkpt lat="45.04202748303221" lon="9.132268202560564"><ele>74.0</ele><time>2026-04-06T12:07:41Z</time></trkpt><trkpt lat="45.04181487112654" lon="9.132230083117463"><ele>74.0</ele><time>2026-04-06T12:07:42Z</time></trkpt><trkpt lat="45.04160112478931" lon="9.13219470976714"><ele>74.0</ele><time>2026-04-06T12:07:43Z</time></trkpt><trkpt lat="45.04138816460784" lon="9.132166498046942"><ele>74.0</ele><time>2026-04-06T12:07:44Z</time></trkpt><trkpt lat="45.04117607569125" lon="9.132149603156092"><ele>74.0</ele><time>2026-04-06T12:07:45Z</time></trkpt><trkpt lat="45.04097174510974" lon="9.132132680496237"><ele>74.0</ele><time>2026-04-06T12:07:46Z</time></trkpt><trkpt lat="45.04077718766587" lon="9.132122332840629"><ele>74.33333333333334</ele><time>2026-04-06T12:07:47Z</time></trkpt><trkpt lat="45.040580952177265" lon="9.132118021148036"><ele>74.66666666666667</ele><time>2026-04-06T12:07:48Z</time></trkpt><trkpt lat="45.04037415326885" lon="9.132113182363673"><ele>75.0</ele><time>2026-04-06T12:07:49Z</time></trkpt><trkpt lat="45.04016579274658" lon="9.132104478816471"><ele>75.66666666666667</ele><time>2026-04-06T12:07:50Z</time></trkpt><trkpt lat="45.03995785895844" lon="9.132078716620077"><ele>76.33333333333334</ele><time>2026-04-06T12:07:51Z</time></trkpt><trkpt lat="45.039743331492325" lon="9.132040554848878"><ele>77.0</ele><time>2026-04-06T12:07:52Z</time></trkpt><trkpt lat="45.039525777667315" lon="9.131991792248325"><ele>77.0</ele><time>2026-04-06T12:07:53Z</time></trkpt><trkpt lat="45.03931038605625" lon="9.1319361591461"><ele>77.0</ele><time>2026-04-06T12:07:54Z</time></trkpt><trkpt lat="45.0390974183548" lon="9.131886975813318"><ele>77.0</ele><time>2026-04-06T12:07:55Z</time></trkpt><trkpt lat="45.03887743829333" lon="9.131841897497889"><ele>78.0</ele><time>2026-04-06T12:07:56Z</time></trkpt><trkpt lat="45.03865614312543" lon="9.131795511033507"><ele>79.0</ele><time>2026-04-06T12:07:57Z</time></trkpt><trkpt lat="45.03840721461404" lon="9.131754722728564"><ele>79.0</ele><time>2026-04-06T12:07:58Z</time></trkpt><trkpt lat="45.03816516100672" lon="9.13171215663028"><ele>79.0</ele><time>2026-04-06T12:07:59Z</time></trkpt><trkpt lat="45.03793961739768" lon="9.131645797683206"><ele>79.0</ele><time>2026-04-06T12:08:00Z</time></trkpt><trkpt lat="45.03771440906532" lon="9.131597538742534"><ele>79.0</ele><time>2026-04-06T12:08:01Z</time></trkpt><trkpt lat="45.03748923924682" lon="9.131549690212488"><ele>78.0</ele><time>2026-04-06T12:08:02Z</time></trkpt><trkpt lat="45.037265667422304" lon="9.131501938208533"><ele>77.0</ele><time>2026-04-06T12:08:03Z</time></trkpt><trkpt lat="45.037044383870075" lon="9.131455891643194"><ele>77.0</ele><time>2026-04-06T12:08:04Z</time></trkpt><trkpt lat="45.03682434304871" lon="9.131408770640613"><ele>77.0</ele><time>2026-04-06T12:08:05Z</time></trkpt><trkpt lat="45.03660255185921" lon="9.131361947230305"><ele>77.0</ele><time>2026-04-06T12:08:06Z</time></trkpt><trkpt lat="45.03638006426447" lon="9.131314733820533"><ele>77.0</ele><time>2026-04-06T12:08:07Z</time></trkpt><trkpt lat="45.03615584753914" lon="9.131290484412373"><ele>77.0</ele><time>2026-04-06T12:08:08Z</time></trkpt><trkpt lat="45.03593617942665" lon="9.131238273511995"><ele>77.0</ele><time>2026-04-06T12:08:09Z</time></trkpt><trkpt lat="45.0357172764027" lon="9.131184319067202"><ele>77.0</ele><time>2026-04-06T12:08:10Z</time></trkpt><trkpt lat="45.03549952916176" lon="9.131131306685887"><ele>77.0</ele><time>2026-04-06T12:08:11Z</time></trkpt><trkpt lat="45.03527961792887" lon="9.13107955723879"><ele>77.0</ele><time>2026-04-06T12:08:12Z</time></trkpt><trkpt lat="45.03505912482961" lon="9.131024593706487"><ele>77.33333333333334</ele><time>2026-04-06T12:08:13Z</time></trkpt><trkpt lat="45.03484650649179" lon="9.130960855261298"><ele>77.66666666666667</ele><time>2026-04-06T12:08:14Z</time></trkpt><trkpt lat="45.034643320668486" lon="9.130899881845371"><ele>78.0</ele><time>2026-04-06T12:08:15Z</time></trkpt><trkpt lat="45.03444037678398" lon="9.130852409026941"><ele>78.0</ele><time>2026-04-06T12:08:16Z</time></trkpt><trkpt lat="45.03424172570746" lon="9.130809203545033"><ele>78.0</ele><time>2026-04-06T12:08:17Z</time></trkpt><trkpt lat="45.03404801695324" lon="9.130739106851053"><ele>78.0</ele><time>2026-04-06T12:08:18Z</time></trkpt><trkpt lat="45.0338675105163" lon="9.130685799243347"><ele>78.66666666666667</ele><time>2026-04-06T12:08:19Z</time></trkpt><trkpt lat="45.03368890393746" lon="9.130631895391906"><ele>79.33333333333334</ele><time>2026-04-06T12:08:20Z</time></trkpt><trkpt lat="45.033512672378556" lon="9.130582015508413"><ele>80.0</ele><time>2026-04-06T12:08:21Z</time></trkpt><trkpt lat="45.03334196993024" lon="9.130528100259408"><ele>80.0</ele><time>2026-04-06T12:08:22Z</time></trkpt><trkpt lat="45.033175197375286" lon="9.130476223589362"><ele>80.0</ele><time>2026-04-06T12:08:23Z</time></trkpt><trkpt lat="45.03301294690587" lon="9.13041679119768"><ele>80.0</ele><time>2026-04-06T12:08:24Z</time></trkpt><trkpt lat="45.03285800155253" lon="9.13033989708579"><ele>80.0</ele><time>2026-04-06T12:08:25Z</time></trkpt><trkpt lat="45.032700923247326" lon="9.130242831246125"><ele>80.0</ele><time>2026-04-06T12:08:26Z</time></trkpt><trkpt lat="45.03253827078237" lon="9.13012236506088"><ele>80.0</ele><time>2026-04-06T12:08:27Z</time></trkpt><trkpt lat="45.03237915528242" lon="9.12996911022655"><ele>79.66666666666667</ele><time>2026-04-06T12:08:27.999Z</time></trkpt><trkpt lat="45.03222351126099" lon="9.129796770891616"><ele>79.33333333333333</ele><time>2026-04-06T12:08:28.999Z</time></trkpt><trkpt lat="45.03208119341001" lon="9.12960634219744"><ele>79.0</ele><time>2026-04-06T12:08:29.999Z</time></trkpt><trkpt lat="45.031949353090724" lon="9.129391911058924"><ele>79.0</ele><time>2026-04-06T12:08:30.999Z</time></trkpt><trkpt lat="45.031827209325975" lon="9.12915745403906"><ele>79.0</ele><time>2026-04-06T12:08:31.999Z</time></trkpt><trkpt lat="45.031719171928664" lon="9.128898458993481"><ele>79.0</ele><time>2026-04-06T12:08:32.999Z</time></trkpt><trkpt lat="45.03163067608206" lon="9.128622378776264"><ele>79.0</ele><time>2026-04-06T12:08:33.999Z</time></trkpt><trkpt lat="45.03156530671035" lon="9.128325245494615"><ele>79.0</ele><time>2026-04-06T12:08:34.999Z</time></trkpt><trkpt lat="45.03150963171103" lon="9.128018166080665"><ele>79.0</ele><time>2026-04-06T12:08:35.999Z</time></trkpt><trkpt lat="45.03145212187491" lon="9.127683117658048"><ele>78.5</ele><time>2026-04-06T12:08:36.999Z</time></trkpt><trkpt lat="45.031374681980815" lon="9.127299831827948"><ele>78.0</ele><time>2026-04-06T12:08:37.999Z</time></trkpt><trkpt lat="45.03128793455043" lon="9.126918679521308"><ele>77.0</ele><time>2026-04-06T12:08:38.999Z</time></trkpt><trkpt lat="45.03120095564048" lon="9.126556002039818"><ele>76.0</ele><time>2026-04-06T12:08:39.999Z</time></trkpt><trkpt lat="45.031111208618796" lon="9.126196854534614"><ele>76.0</ele><time>2026-04-06T12:08:40.999Z</time></trkpt><trkpt lat="45.03103234487287" lon="9.125857834718474"><ele>76.0</ele><time>2026-04-06T12:08:41.999Z</time></trkpt><trkpt lat="45.03095445080783" lon="9.125520206323412"><ele>76.5</ele><time>2026-04-06T12:08:42.999Z</time></trkpt><trkpt lat="45.030879480012395" lon="9.125185064349047"><ele>77.0</ele><time>2026-04-06T12:08:43.999Z</time></trkpt><trkpt lat="45.03080400976278" lon="9.124851879963275"><ele>78.0</ele><time>2026-04-06T12:08:44.999Z</time></trkpt><trkpt lat="45.030727559076546" lon="9.124521728260419"><ele>79.0</ele><time>2026-04-06T12:08:45.999Z</time></trkpt><trkpt lat="45.03065092882684" lon="9.124194475851379"><ele>79.0</ele><time>2026-04-06T12:08:46.999Z</time></trkpt><trkpt lat="45.030571816668996" lon="9.123872167942976"><ele>79.0</ele><time>2026-04-06T12:08:47.999Z</time></trkpt><trkpt lat="45.03049880392584" lon="9.123556283385984"><ele>79.0</ele><time>2026-04-06T12:08:48.999Z</time></trkpt><trkpt lat="45.03043489594302" lon="9.123261012280013"><ele>79.0</ele><time>2026-04-06T12:08:49.999Z</time></trkpt><trkpt lat="45.03037750587381" lon="9.122991478706803"><ele>79.0</ele><time>2026-04-06T12:08:50.999Z</time></trkpt><trkpt lat="45.03032964510838" lon="9.122743168782591"><ele>79.0</ele><time>2026-04-06T12:08:52Z</time></trkpt><trkpt lat="45.030288178384396" lon="9.122502446358412"><ele>79.0</ele><time>2026-04-06T12:08:53Z</time></trkpt><trkpt lat="45.03024895375776" lon="9.122236480940007"><ele>79.0</ele><time>2026-04-06T12:08:54Z</time></trkpt><trkpt lat="45.030203382587324" lon="9.12194900219958"><ele>79.33333333333333</ele><time>2026-04-06T12:08:55Z</time></trkpt><trkpt lat="45.03016005751191" lon="9.121641445397202"><ele>79.66666666666667</ele><time>2026-04-06T12:08:56Z</time></trkpt><trkpt lat="45.03011793967278" lon="9.121325832256813"><ele>80.0</ele><time>2026-04-06T12:08:57Z</time></trkpt><trkpt lat="45.03008111342003" lon="9.121000240481669"><ele>80.0</ele><time>2026-04-06T12:08:58Z</time></trkpt><trkpt lat="45.030045038629694" lon="9.120666138209437"><ele>80.0</ele><time>2026-04-06T12:08:59Z</time></trkpt><trkpt lat="45.03001278095256" lon="9.120326340784773"><ele>80.0</ele><time>2026-04-06T12:09:00Z</time></trkpt><trkpt lat="45.02998202392944" lon="9.119975785142389"><ele>80.0</ele><time>2026-04-06T12:09:01Z</time></trkpt><trkpt lat="45.02995497115731" lon="9.119620064629478"><ele>80.0</ele><time>2026-04-06T12:09:02Z</time></trkpt><trkpt lat="45.029929199010475" lon="9.11925706586762"><ele>80.0</ele><time>2026-04-06T12:09:03Z</time></trkpt><trkpt lat="45.029910525189415" lon="9.118891650933254"><ele>79.5</ele><time>2026-04-06T12:09:04Z</time></trkpt><trkpt lat="45.02989092575327" lon="9.118524879853172"><ele>79.0</ele><time>2026-04-06T12:09:05Z</time></trkpt><trkpt lat="45.02987182796943" lon="9.118156459602579"><ele>80.0</ele><time>2026-04-06T12:09:06Z</time></trkpt><trkpt lat="45.02985325124041" lon="9.117784446885194"><ele>81.0</ele><time>2026-04-06T12:09:07Z</time></trkpt><trkpt lat="45.02983455939237" lon="9.117415001928128"><ele>80.0</ele><time>2026-04-06T12:09:08Z</time></trkpt><trkpt lat="45.029816791580195" lon="9.117044933374052"><ele>79.0</ele><time>2026-04-06T12:09:09Z</time></trkpt><trkpt lat="45.02980045508784" lon="9.116678056003366"><ele>79.0</ele><time>2026-04-06T12:09:10Z</time></trkpt><trkpt lat="45.02978833433102" lon="9.11630993380655"><ele>79.0</ele><time>2026-04-06T12:09:11Z</time></trkpt><trkpt lat="45.029773511500004" lon="9.115955298375058"><ele>79.0</ele><time>2026-04-06T12:09:12Z</time></trkpt><trkpt lat="45.02975005913837" lon="9.11562431735514"><ele>79.0</ele><time>2026-04-06T12:09:13Z</time></trkpt><trkpt lat="45.029712529848915" lon="9.11529975156078"><ele>79.0</ele><time>2026-04-06T12:09:14Z</time></trkpt><trkpt lat="45.02966099614896" lon="9.114973705140384"><ele>79.0</ele><time>2026-04-06T12:09:15Z</time></trkpt><trkpt lat="45.02959214742051" lon="9.114643538259308"><ele>79.0</ele><time>2026-04-06T12:09:16Z</time></trkpt><trkpt lat="45.02950874974117" lon="9.114313064420799"><ele>79.0</ele><time>2026-04-06T12:09:17Z</time></trkpt><trkpt lat="45.02941459380224" lon="9.113979222792784"><ele>79.0</ele><time>2026-04-06T12:09:18Z</time></trkpt><trkpt lat="45.029315705722276" lon="9.113637363178885"><ele>79.0</ele><time>2026-04-06T12:09:19Z</time></trkpt><trkpt lat="45.02920812077053" lon="9.113298089408298"><ele>79.0</ele><time>2026-04-06T12:09:20Z</time></trkpt><trkpt lat="45.029087511943544" lon="9.112965777133207"><ele>79.0</ele><time>2026-04-06T12:09:21Z</time></trkpt><trkpt lat="45.028947695838674" lon="9.112645701313715"><ele>78.5</ele><time>2026-04-06T12:09:22Z</time></trkpt><trkpt lat="45.02879027935496" lon="9.112339992718844"><ele>78.0</ele><time>2026-04-06T12:09:23Z</time></trkpt><trkpt lat="45.02862381840139" lon="9.11205010688036"><ele>78.0</ele><time>2026-04-06T12:09:24Z</time></trkpt><trkpt lat="45.028439767775104" lon="9.111775797275712"><ele>78.0</ele><time>2026-04-06T12:09:25Z</time></trkpt><trkpt lat="45.02824586435103" lon="9.111511683167755"><ele>78.0</ele><time>2026-04-06T12:09:26Z</time></trkpt><trkpt lat="45.028043906770094" lon="9.111260217454332"><ele>78.0</ele><time>2026-04-06T12:09:27Z</time></trkpt><trkpt lat="45.027833670022105" lon="9.111018726446584"><ele>78.0</ele><time>2026-04-06T12:09:28Z</time></trkpt><trkpt lat="45.02761557106136" lon="9.110788690600746"><ele>78.0</ele><time>2026-04-06T12:09:29Z</time></trkpt><trkpt lat="45.0273908004078" lon="9.110575293159657"><ele>76.5</ele><time>2026-04-06T12:09:30Z</time></trkpt><trkpt lat="45.02715550671466" lon="9.110387320621253"><ele>75.0</ele><time>2026-04-06T12:09:31Z</time></trkpt><trkpt lat="45.02691201914263" lon="9.110218900546283"><ele>75.0</ele><time>2026-04-06T12:09:32Z</time></trkpt><trkpt lat="45.026662091086166" lon="9.110076575521775"><ele>75.0</ele><time>2026-04-06T12:09:33Z</time></trkpt><trkpt lat="45.02640591179762" lon="9.109949767765302"><ele>75.5</ele><time>2026-04-06T12:09:34Z</time></trkpt><trkpt lat="45.026148806091655" lon="9.10983904545152"><ele>76.0</ele><time>2026-04-06T12:09:35Z</time></trkpt><trkpt lat="45.0258876564473" lon="9.109746593814407"><ele>74.5</ele><time>2026-04-06T12:09:36Z</time></trkpt><trkpt lat="45.0256252256205" lon="9.109670606415092"><ele>73.0</ele><time>2026-04-06T12:09:37Z</time></trkpt><trkpt lat="45.0253585974093" lon="9.109609922322441"><ele>73.0</ele><time>2026-04-06T12:09:38Z</time></trkpt><trkpt lat="45.025093017039765" lon="9.109571741818973"><ele>73.0</ele><time>2026-04-06T12:09:39Z</time></trkpt><trkpt lat="45.02482626460859" lon="9.109541853234859"><ele>73.5</ele><time>2026-04-06T12:09:40Z</time></trkpt><trkpt lat="45.02455944215968" lon="9.109515991154074"><ele>74.0</ele><time>2026-04-06T12:09:41Z</time></trkpt><trkpt lat="45.02429277842041" lon="9.109486062182654"><ele>74.5</ele><time>2026-04-06T12:09:42Z</time></trkpt><trkpt lat="45.024029174536125" lon="9.109428585556785"><ele>75.0</ele><time>2026-04-06T12:09:43Z</time></trkpt><trkpt lat="45.02376298776264" lon="9.109390901873711"><ele>75.0</ele><time>2026-04-06T12:09:44Z</time></trkpt><trkpt lat="45.023496986672065" lon="9.109353244529188"><ele>75.0</ele><time>2026-04-06T12:09:45Z</time></trkpt><trkpt lat="45.02323111565286" lon="9.109338116670411"><ele>77.0</ele><time>2026-04-06T12:09:46Z</time></trkpt><trkpt lat="45.022967964914635" lon="9.1092950217819"><ele>79.0</ele><time>2026-04-06T12:09:47Z</time></trkpt><trkpt lat="45.022705215451424" lon="9.109252389513491"><ele>80.0</ele><time>2026-04-06T12:09:48Z</time></trkpt><trkpt lat="45.02244256178022" lon="9.109210810423114"><ele>81.0</ele><time>2026-04-06T12:09:49Z</time></trkpt><trkpt lat="45.02218112382618" lon="9.109171804786598"><ele>81.0</ele><time>2026-04-06T12:09:50Z</time></trkpt><trkpt lat="45.021921804891896" lon="9.109134621637287"><ele>81.0</ele><time>2026-04-06T12:09:51Z</time></trkpt><trkpt lat="45.02166491461132" lon="9.109097643773286"><ele>80.5</ele><time>2026-04-06T12:09:52Z</time></trkpt><trkpt lat="45.021409138074965" lon="9.109062800970312"><ele>80.0</ele><time>2026-04-06T12:09:53Z</time></trkpt><trkpt lat="45.021151405258905" lon="9.109021693381239"><ele>80.0</ele><time>2026-04-06T12:09:54Z</time></trkpt><trkpt lat="45.020896136251125" lon="9.108991731145997"><ele>80.0</ele><time>2026-04-06T12:09:55Z</time></trkpt><trkpt lat="45.0206403653724" lon="9.10895441677323"><ele>80.5</ele><time>2026-04-06T12:09:56Z</time></trkpt><trkpt lat="45.020384734301764" lon="9.108919329857285"><ele>81.0</ele><time>2026-04-06T12:09:57Z</time></trkpt><trkpt lat="45.02012151352658" lon="9.10888668332551"><ele>81.0</ele><time>2026-04-06T12:09:58Z</time></trkpt><trkpt lat="45.01985887491322" lon="9.108854296375657"><ele>81.0</ele><time>2026-04-06T12:09:59Z</time></trkpt><trkpt lat="45.019595192427964" lon="9.10881558248506"><ele>81.0</ele><time>2026-04-06T12:10:00Z</time></trkpt><trkpt lat="45.0193307676989" lon="9.108758724460108"><ele>81.0</ele><time>2026-04-06T12:10:01Z</time></trkpt><trkpt lat="45.019063016868664" lon="9.108740027277841"><ele>81.5</ele><time>2026-04-06T12:10:02Z</time></trkpt><trkpt lat="45.01878871806541" lon="9.108700684691476"><ele>82.0</ele><time>2026-04-06T12:10:03Z</time></trkpt><trkpt lat="45.01851779599182" lon="9.108661108892004"><ele>82.0</ele><time>2026-04-06T12:10:04Z</time></trkpt><trkpt lat="45.01824243489373" lon="9.10861811868168"><ele>82.0</ele><time>2026-04-06T12:10:05Z</time></trkpt><trkpt lat="45.017970119603305" lon="9.108580947785443"><ele>82.0</ele><time>2026-04-06T12:10:06Z</time></trkpt><trkpt lat="45.017696641980955" lon="9.108538856340836"><ele>82.0</ele><time>2026-04-06T12:10:07Z</time></trkpt><trkpt lat="45.01742214577782" lon="9.108498677878885"><ele>82.0</ele><time>2026-04-06T12:10:08Z</time></trkpt><trkpt lat="45.017148584834985" lon="9.10846198417015"><ele>82.0</ele><time>2026-04-06T12:10:09Z</time></trkpt><trkpt lat="45.01687447217184" lon="9.108425972034787"><ele>81.5</ele><time>2026-04-06T12:10:10Z</time></trkpt><trkpt lat="45.01660044716769" lon="9.10838843548042"><ele>81.0</ele><time>2026-04-06T12:10:11Z</time></trkpt><trkpt lat="45.01632590889823" lon="9.108350196790274"><ele>81.0</ele><time>2026-04-06T12:10:12Z</time></trkpt><trkpt lat="45.01605279253793" lon="9.108310210862191"><ele>81.0</ele><time>2026-04-06T12:10:13Z</time></trkpt><trkpt lat="45.01577763536232" lon="9.108267523594813"><ele>82.0</ele><time>2026-04-06T12:10:14Z</time></trkpt><trkpt lat="45.01550332420023" lon="9.108226569557363"><ele>83.0</ele><time>2026-04-06T12:10:15Z</time></trkpt><trkpt lat="45.01522883431093" lon="9.108186492117552"><ele>83.5</ele><time>2026-04-06T12:10:16Z</time></trkpt><trkpt lat="45.01495230399297" lon="9.108145444284046"><ele>84.0</ele><time>2026-04-06T12:10:17Z</time></trkpt><trkpt lat="45.014676006139716" lon="9.108105724259483"><ele>84.0</ele><time>2026-04-06T12:10:18Z</time></trkpt><trkpt lat="45.01440351103741" lon="9.108064851002748"><ele>84.0</ele><time>2026-04-06T12:10:19Z</time></trkpt><trkpt lat="45.01412842949189" lon="9.108025927060039"><ele>84.5</ele><time>2026-04-06T12:10:20Z</time></trkpt><trkpt lat="45.01385643972906" lon="9.10798935139955"><ele>85.0</ele><time>2026-04-06T12:10:21Z</time></trkpt><trkpt lat="45.01358711635244" lon="9.107951342903863"><ele>85.0</ele><time>2026-04-06T12:10:22Z</time></trkpt><trkpt lat="45.01333665567519" lon="9.107916239060613"><ele>85.0</ele><time>2026-04-06T12:10:23Z</time></trkpt><trkpt lat="45.01309873546131" lon="9.107886915884906"><ele>85.0</ele><time>2026-04-06T12:10:24Z</time></trkpt><trkpt lat="45.012869600294394" lon="9.107849393322725"><ele>85.0</ele><time>2026-04-06T12:10:25Z</time></trkpt><trkpt lat="45.01264399320586" lon="9.107811568459775"><ele>85.5</ele><time>2026-04-06T12:10:26Z</time></trkpt><trkpt lat="45.012423539183466" lon="9.107753409183678"><ele>86.0</ele><time>2026-04-06T12:10:27Z</time></trkpt><trkpt lat="45.01220223478457" lon="9.107651448620942"><ele>86.0</ele><time>2026-04-06T12:10:28Z</time></trkpt><trkpt lat="45.01198481854359" lon="9.107525129225435"><ele>86.0</ele><time>2026-04-06T12:10:29Z</time></trkpt><trkpt lat="45.01177003548235" lon="9.10737283936917"><ele>85.5</ele><time>2026-04-06T12:10:30Z</time></trkpt><trkpt lat="45.01155870925401" lon="9.107198430371009"><ele>85.0</ele><time>2026-04-06T12:10:31Z</time></trkpt><trkpt lat="45.01135914556048" lon="9.107004656641005"><ele>85.0</ele><time>2026-04-06T12:10:32Z</time></trkpt><trkpt lat="45.01116616913429" lon="9.106807210510551"><ele>85.0</ele><time>2026-04-06T12:10:33Z</time></trkpt><trkpt lat="45.010986215019486" lon="9.106571762832425"><ele>85.0</ele><time>2026-04-06T12:10:33.999Z</time></trkpt><trkpt lat="45.01086071752457" lon="9.106250679535151"><ele>85.0</ele><time>2026-04-06T12:10:34.999Z</time></trkpt><trkpt lat="45.01072952659283" lon="9.105955042978733"><ele>85.5</ele><time>2026-04-06T12:10:35.999Z</time></trkpt><trkpt lat="45.01062331495403" lon="9.10564146496816"><ele>86.0</ele><time>2026-04-06T12:10:36.999Z</time></trkpt><trkpt lat="45.010535230455794" lon="9.105313094532855"><ele>86.0</ele><time>2026-04-06T12:10:37.999Z</time></trkpt><trkpt lat="45.010471223600895" lon="9.104989789326966"><ele>86.0</ele><time>2026-04-06T12:10:38.999Z</time></trkpt><trkpt lat="45.01040978849052" lon="9.104632485682838"><ele>87.0</ele><time>2026-04-06T12:10:39.999Z</time></trkpt><trkpt lat="45.01035452481159" lon="9.104289478410308"><ele>88.0</ele><time>2026-04-06T12:10:40.999Z</time></trkpt><trkpt lat="45.0102956578961" lon="9.103939931037484"><ele>88.0</ele><time>2026-04-06T12:10:41.999Z</time></trkpt><trkpt lat="45.0102235143261" lon="9.103605710824207"><ele>88.0</ele><time>2026-04-06T12:10:42.999Z</time></trkpt><trkpt lat="45.010156461510455" lon="9.103268742615573"><ele>87.5</ele><time>2026-04-06T12:10:43.999Z</time></trkpt><trkpt lat="45.01009240847681" lon="9.102929754246196"><ele>87.0</ele><time>2026-04-06T12:10:44.999Z</time></trkpt><trkpt lat="45.010032291745276" lon="9.102591562214391"><ele>85.0</ele><time>2026-04-06T12:10:45.999Z</time></trkpt><trkpt lat="45.00997520941504" lon="9.102251704661649"><ele>83.0</ele><time>2026-04-06T12:10:46.999Z</time></trkpt><trkpt lat="45.00991812348745" lon="9.101905253988226"><ele>84.0</ele><time>2026-04-06T12:10:47.999Z</time></trkpt><trkpt lat="45.0098647015628" lon="9.101560953118156"><ele>85.0</ele><time>2026-04-06T12:10:48.999Z</time></trkpt><trkpt lat="45.00981181458564" lon="9.101213748096553"><ele>85.0</ele><time>2026-04-06T12:10:49.999Z</time></trkpt><trkpt lat="45.00975565718923" lon="9.100865325585724"><ele>85.0</ele><time>2026-04-06T12:10:50.999Z</time></trkpt><trkpt lat="45.00969729252687" lon="9.10051502922009"><ele>85.0</ele><time>2026-04-06T12:10:51.999Z</time></trkpt><trkpt lat="45.00963873676637" lon="9.100160876006354"><ele>85.0</ele><time>2026-04-06T12:10:52.999Z</time></trkpt><trkpt lat="45.009578906426" lon="9.099804270043157"><ele>85.0</ele><time>2026-04-06T12:10:53.999Z</time></trkpt><trkpt lat="45.009518084079936" lon="9.099442940715388"><ele>85.0</ele><time>2026-04-06T12:10:54.999Z</time></trkpt><trkpt lat="45.00945961641835" lon="9.099079023080623"><ele>85.0</ele><time>2026-04-06T12:10:55.999Z</time></trkpt><trkpt lat="45.00939921961421" lon="9.09871166698629"><ele>85.0</ele><time>2026-04-06T12:10:56.999Z</time></trkpt><trkpt lat="45.009339155068375" lon="9.098345602711715"><ele>84.0</ele><time>2026-04-06T12:10:58Z</time></trkpt><trkpt lat="45.0092790564474" lon="9.097978952954394"><ele>83.0</ele><time>2026-04-06T12:10:59Z</time></trkpt><trkpt lat="45.00921742285387" lon="9.097608661413267"><ele>83.0</ele><time>2026-04-06T12:11:00Z</time></trkpt><trkpt lat="45.00915494489463" lon="9.097240435838557"><ele>83.0</ele><time>2026-04-06T12:11:01Z</time></trkpt><trkpt lat="45.00909324619104" lon="9.096861175949812"><ele>83.0</ele><time>2026-04-06T12:11:02Z</time></trkpt><trkpt lat="45.00902273507356" lon="9.096463412336966"><ele>83.0</ele><time>2026-04-06T12:11:03Z</time></trkpt><trkpt lat="45.00895034815564" lon="9.096045250179806"><ele>82.5</ele><time>2026-04-06T12:11:04Z</time></trkpt><trkpt lat="45.00887341073917" lon="9.095610850064398"><ele>82.0</ele><time>2026-04-06T12:11:05Z</time></trkpt><trkpt lat="45.0088053376581" lon="9.095170395032449"><ele>82.0</ele><time>2026-04-06T12:11:06Z</time></trkpt><trkpt lat="45.008743804118794" lon="9.094728895037493"><ele>82.0</ele><time>2026-04-06T12:11:07Z</time></trkpt><trkpt lat="45.00868158265046" lon="9.094286934592308"><ele>82.5</ele><time>2026-04-06T12:11:08Z</time></trkpt><trkpt lat="45.00861708273568" lon="9.093854521270067"><ele>83.0</ele><time>2026-04-06T12:11:09Z</time></trkpt><trkpt lat="45.008552689047214" lon="9.093417154879806"><ele>82.0</ele><time>2026-04-06T12:11:10Z</time></trkpt><trkpt lat="45.008492149933254" lon="9.09297187337286"><ele>81.0</ele><time>2026-04-06T12:11:11Z</time></trkpt><trkpt lat="45.00841628062464" lon="9.092596303136268"><ele>81.0</ele><time>2026-04-06T12:11:12Z</time></trkpt><trkpt lat="45.008350341609486" lon="9.092190700280096"><ele>81.0</ele><time>2026-04-06T12:11:13Z</time></trkpt><trkpt lat="45.00828694512681" lon="9.091787060029846"><ele>80.5</ele><time>2026-04-06T12:11:14Z</time></trkpt><trkpt lat="45.00822698346635" lon="9.0913853530558"><ele>80.0</ele><time>2026-04-06T12:11:15Z</time></trkpt><trkpt lat="45.00816430695359" lon="9.09099005674272"><ele>79.5</ele><time>2026-04-06T12:11:16Z</time></trkpt><trkpt lat="45.00809741961444" lon="9.09059060930048"><ele>79.0</ele><time>2026-04-06T12:11:17Z</time></trkpt><trkpt lat="45.00802688927007" lon="9.09019376695594"><ele>79.0</ele><time>2026-04-06T12:11:18Z</time></trkpt><trkpt lat="45.00796222690574" lon="9.089805400364314"><ele>79.0</ele><time>2026-04-06T12:11:19Z</time></trkpt><trkpt lat="45.00789915506666" lon="9.089419096982017"><ele>79.5</ele><time>2026-04-06T12:11:20Z</time></trkpt><trkpt lat="45.00783762985389" lon="9.089028140767729"><ele>80.0</ele><time>2026-04-06T12:11:21Z</time></trkpt><trkpt lat="45.00778280697459" lon="9.088632908197647"><ele>80.5</ele><time>2026-04-06T12:11:22Z</time></trkpt><trkpt lat="45.00772310024263" lon="9.088234911858336"><ele>81.0</ele><time>2026-04-06T12:11:23Z</time></trkpt><trkpt lat="45.00766047750047" lon="9.087841237923385"><ele>81.0</ele><time>2026-04-06T12:11:24Z</time></trkpt><trkpt lat="45.007592187207045" lon="9.087437075819354"><ele>81.0</ele><time>2026-04-06T12:11:25Z</time></trkpt><trkpt lat="45.007523513347934" lon="9.087032949419582"><ele>80.5</ele><time>2026-04-06T12:11:26Z</time></trkpt><trkpt lat="45.00745281041592" lon="9.086626092664106"><ele>80.0</ele><time>2026-04-06T12:11:27Z</time></trkpt><trkpt lat="45.00738290377127" lon="9.086218559065893"><ele>80.0</ele><time>2026-04-06T12:11:28Z</time></trkpt><trkpt lat="45.00731784607628" lon="9.085816782597082"><ele>80.0</ele><time>2026-04-06T12:11:29Z</time></trkpt><trkpt lat="45.00725161121968" lon="9.085414701464593"><ele>80.0</ele><time>2026-04-06T12:11:30Z</time></trkpt><trkpt lat="45.00718214154465" lon="9.085019956957847"><ele>80.0</ele><time>2026-04-06T12:11:31Z</time></trkpt><trkpt lat="45.00711788242538" lon="9.08463346057778"><ele>80.0</ele><time>2026-04-06T12:11:32Z</time></trkpt><trkpt lat="45.00705485252893" lon="9.084250096158197"><ele>80.0</ele><time>2026-04-06T12:11:33Z</time></trkpt><trkpt lat="45.006998717744" lon="9.083891757419297"><ele>80.5</ele><time>2026-04-06T12:11:34Z</time></trkpt><trkpt lat="45.006940761376" lon="9.083533231042653"><ele>81.0</ele><time>2026-04-06T12:11:35Z</time></trkpt><trkpt lat="45.00688350038004" lon="9.083180205763945"><ele>81.5</ele><time>2026-04-06T12:11:36Z</time></trkpt><trkpt lat="45.00682530278632" lon="9.0828347421286"><ele>82.0</ele><time>2026-04-06T12:11:37Z</time></trkpt><trkpt lat="45.00676614508323" lon="9.082488438305075"><ele>82.0</ele><time>2026-04-06T12:11:38Z</time></trkpt><trkpt lat="45.006735784458215" lon="9.082129949803598"><ele>82.0</ele><time>2026-04-06T12:11:39Z</time></trkpt><trkpt lat="45.006662444324974" lon="9.081778315523561"><ele>81.5</ele><time>2026-04-06T12:11:40Z</time></trkpt><trkpt lat="45.00661056415655" lon="9.081407422591443"><ele>81.0</ele><time>2026-04-06T12:11:41Z</time></trkpt><trkpt lat="45.00655523650172" lon="9.081029129781157"><ele>81.5</ele><time>2026-04-06T12:11:42Z</time></trkpt><trkpt lat="45.00649542709285" lon="9.080647567663124"><ele>82.0</ele><time>2026-04-06T12:11:43Z</time></trkpt><trkpt lat="45.00643211735997" lon="9.080260626118188"><ele>82.5</ele><time>2026-04-06T12:11:44Z</time></trkpt><trkpt lat="45.00636795458858" lon="9.079871380907418"><ele>83.0</ele><time>2026-04-06T12:11:45Z</time></trkpt><trkpt lat="45.00629962171827" lon="9.07947907961673"><ele>82.0</ele><time>2026-04-06T12:11:46Z</time></trkpt><trkpt lat="45.00623484495406" lon="9.079081512715778"><ele>81.0</ele><time>2026-04-06T12:11:47Z</time></trkpt><trkpt lat="45.006166579610664" lon="9.078683013529881"><ele>81.0</ele><time>2026-04-06T12:11:48Z</time></trkpt><trkpt lat="45.006101308791045" lon="9.078287524840244"><ele>81.0</ele><time>2026-04-06T12:11:49Z</time></trkpt><trkpt lat="45.00603824481188" lon="9.077892839821864"><ele>81.5</ele><time>2026-04-06T12:11:50Z</time></trkpt><trkpt lat="45.00597155917335" lon="9.077501728748048"><ele>82.0</ele><time>2026-04-06T12:11:51Z</time></trkpt><trkpt lat="45.00591136409412" lon="9.077112988515339"><ele>82.0</ele><time>2026-04-06T12:11:52Z</time></trkpt><trkpt lat="45.0058477220403" lon="9.07672279460327"><ele>82.0</ele><time>2026-04-06T12:11:53Z</time></trkpt><trkpt lat="45.005782795390935" lon="9.076340421491729"><ele>82.0</ele><time>2026-04-06T12:11:54Z</time></trkpt><trkpt lat="45.005716667776355" lon="9.075960457941536"><ele>82.0</ele><time>2026-04-06T12:11:55Z</time></trkpt><trkpt lat="45.005646192486296" lon="9.075584304189176"><ele>82.0</ele><time>2026-04-06T12:11:56Z</time></trkpt><trkpt lat="45.00556736575211" lon="9.075214639051582"><ele>82.0</ele><time>2026-04-06T12:11:57Z</time></trkpt><trkpt lat="45.00548515210426" lon="9.074846967740084"><ele>82.0</ele><time>2026-04-06T12:11:58Z</time></trkpt><trkpt lat="45.00539652234456" lon="9.074484796928143"><ele>82.0</ele><time>2026-04-06T12:11:59Z</time></trkpt><trkpt lat="45.005302034646846" lon="9.074130020356002"><ele>82.0</ele><time>2026-04-06T12:12:00Z</time></trkpt><trkpt lat="45.00520136540984" lon="9.073777783216919"><ele>82.0</ele><time>2026-04-06T12:12:01Z</time></trkpt><trkpt lat="45.005095720075175" lon="9.073431233075498"><ele>82.0</ele><time>2026-04-06T12:12:02Z</time></trkpt><trkpt lat="45.004984651372965" lon="9.07308546186177"><ele>82.0</ele><time>2026-04-06T12:12:03Z</time></trkpt><trkpt lat="45.00487267311066" lon="9.072740394818698"><ele>81.5</ele><time>2026-04-06T12:12:04Z</time></trkpt><trkpt lat="45.004767310224324" lon="9.072396875067838"><ele>81.0</ele><time>2026-04-06T12:12:05Z</time></trkpt><trkpt lat="45.004658064450076" lon="9.072051331086113"><ele>81.0</ele><time>2026-04-06T12:12:06Z</time></trkpt><trkpt lat="45.004556782066686" lon="9.07170621514427"><ele>81.0</ele><time>2026-04-06T12:12:07Z</time></trkpt><trkpt lat="45.004448016663275" lon="9.071352444988804"><ele>81.0</ele><time>2026-04-06T12:12:08Z</time></trkpt><trkpt lat="45.00433368887987" lon="9.070994546581762"><ele>81.0</ele><time>2026-04-06T12:12:09Z</time></trkpt><trkpt lat="45.00421220243868" lon="9.070577706594898"><ele>81.5</ele><time>2026-04-06T12:12:10Z</time></trkpt><trkpt lat="45.00409274962894" lon="9.070167069191232"><ele>82.0</ele><time>2026-04-06T12:12:11Z</time></trkpt><trkpt lat="45.00398563376319" lon="9.069794809760019"><ele>82.0</ele><time>2026-04-06T12:12:12Z</time></trkpt><trkpt lat="45.00389107055723" lon="9.069447924485383"><ele>82.0</ele><time>2026-04-06T12:12:13Z</time></trkpt><trkpt lat="45.00381266070227" lon="9.069131067542793"><ele>81.33333333333333</ele><time>2026-04-06T12:12:14Z</time></trkpt><trkpt lat="45.003733270678424" lon="9.068895677965351"><ele>80.66666666666667</ele><time>2026-04-06T12:12:15Z</time></trkpt><trkpt lat="45.00366479259528" lon="9.06865687618946"><ele>80.0</ele><time>2026-04-06T12:12:16Z</time></trkpt><trkpt lat="45.00360519457734" lon="9.068440562443357"><ele>80.25</ele><time>2026-04-06T12:12:17Z</time></trkpt><trkpt lat="45.003559978050006" lon="9.068238187943438"><ele>80.5</ele><time>2026-04-06T12:12:18Z</time></trkpt><trkpt lat="45.003538205020114" lon="9.068058571373971"><ele>80.75</ele><time>2026-04-06T12:12:19Z</time></trkpt><trkpt lat="45.00354278868284" lon="9.067918813195098"><ele>81.0</ele><time>2026-04-06T12:12:20Z</time></trkpt><trkpt lat="45.00362125549016" lon="9.06778191088321"><ele>81.0</ele><time>2026-04-06T12:12:21Z</time></trkpt><trkpt lat="45.003709727894424" lon="9.067655983976827"><ele>81.0</ele><time>2026-04-06T12:12:22Z</time></trkpt><trkpt lat="45.00382282188953" lon="9.067556048680276"><ele>81.0</ele><time>2026-04-06T12:12:23Z</time></trkpt><trkpt lat="45.00395405470377" lon="9.06750582343662"><ele>81.0</ele><time>2026-04-06T12:12:24Z</time></trkpt><trkpt lat="45.00431135780008" lon="9.067744723506271"><ele>81.33333333333333</ele><time>2026-04-06T12:12:27Z</time></trkpt><trkpt lat="45.004364800930354" lon="9.067964932025998"><ele>81.66666666666666</ele><time>2026-04-06T12:12:28Z</time></trkpt><trkpt lat="45.00439814165204" lon="9.068189050358479"><ele>82.0</ele><time>2026-04-06T12:12:29Z</time></trkpt><trkpt lat="45.00443142619569" lon="9.068398374431295"><ele>82.0</ele><time>2026-04-06T12:12:30Z</time></trkpt><trkpt lat="45.00447487722122" lon="9.068574287976169"><ele>82.0</ele><time>2026-04-06T12:12:31Z</time></trkpt><trkpt lat="45.004496113009644" lon="9.068733594888917"><ele>82.0</ele><time>2026-04-06T12:12:32Z</time></trkpt><trkpt lat="45.00449698100257" lon="9.068876661349258"><ele>82.0</ele><time>2026-04-06T12:12:33Z</time></trkpt><trkpt lat="45.0044959233231" lon="9.06900503081524"><ele>82.0</ele><time>2026-04-06T12:12:34Z</time></trkpt><trkpt lat="45.004476532343695" lon="9.069110514523594"><ele>82.0</ele><time>2026-04-06T12:12:35Z</time></trkpt><trkpt lat="45.004451847100135" lon="9.069207739241879"><ele>82.0</ele><time>2026-04-06T12:12:36Z</time></trkpt><trkpt lat="45.004399070287064" lon="9.069302628960983"><ele>82.0</ele><time>2026-04-06T12:12:37Z</time></trkpt><trkpt lat="45.00433545226073" lon="9.069383688120295"><ele>82.0</ele><time>2026-04-06T12:12:38Z</time></trkpt><trkpt lat="45.004268668558865" lon="9.069452221435627"><ele>82.0</ele><time>2026-04-06T12:12:39Z</time></trkpt><trkpt lat="45.004196254361354" lon="9.069506732483015"><ele>82.0</ele><time>2026-04-06T12:12:39.999Z</time></trkpt><trkpt lat="45.004120698324805" lon="9.069522995878252"><ele>82.0</ele><time>2026-04-06T12:12:40.999Z</time></trkpt><trkpt lat="45.00404015284736" lon="9.069545594179349"><ele>82.0</ele><time>2026-04-06T12:12:41.999Z</time></trkpt><trkpt lat="45.00396119942353" lon="9.069565293472197"><ele>82.0</ele><time>2026-04-06T12:12:42.999Z</time></trkpt><trkpt lat="45.00386420038633" lon="9.06956014257069"><ele>82.0</ele><time>2026-04-06T12:12:43.999Z</time></trkpt><trkpt lat="45.00375327055393" lon="9.069532062784372"><ele>82.0</ele><time>2026-04-06T12:12:44.999Z</time></trkpt><trkpt lat="45.00362068248299" lon="9.069512449073377"><ele>82.0</ele><time>2026-04-06T12:12:45.999Z</time></trkpt><trkpt lat="45.00346139355002" lon="9.069490139259464"><ele>82.0</ele><time>2026-04-06T12:12:46.999Z</time></trkpt><trkpt lat="45.003300710344554" lon="9.069466895476085"><ele>82.0</ele><time>2026-04-06T12:12:47.999Z</time></trkpt><trkpt lat="45.00312032012426" lon="9.069438062611436"><ele>82.0</ele><time>2026-04-06T12:12:48.999Z</time></trkpt><trkpt lat="45.00291064459483" lon="9.06941257422144"><ele>82.0</ele><time>2026-04-06T12:12:50Z</time></trkpt><trkpt lat="45.002743380086535" lon="9.069379114866516"><ele>82.0</ele><time>2026-04-06T12:12:51Z</time></trkpt><trkpt lat="45.002604963197314" lon="9.069355387012022"><ele>82.0</ele><time>2026-04-06T12:12:52Z</time></trkpt><trkpt lat="45.002506070332416" lon="9.069332449804223"><ele>82.0</ele><time>2026-04-06T12:12:53Z</time></trkpt><trkpt lat="45.00242420238499" lon="9.06927930061448"><ele>82.0</ele><time>2026-04-06T12:12:54Z</time></trkpt><trkpt lat="45.00234292216101" lon="9.069163424908686"><ele>82.0</ele><time>2026-04-06T12:12:55Z</time></trkpt><trkpt lat="45.002257657303744" lon="9.069057811328312"><ele>82.0</ele><time>2026-04-06T12:12:56Z</time></trkpt><trkpt lat="45.00216523446931" lon="9.069027113699827"><ele>82.5</ele><time>2026-04-06T12:12:57Z</time></trkpt><trkpt lat="45.00205593882345" lon="9.069058405410711"><ele>83.0</ele><time>2026-04-06T12:12:58Z</time></trkpt><trkpt lat="45.00195997516694" lon="9.069158250031442"><ele>83.5</ele><time>2026-04-06T12:12:59Z</time></trkpt><trkpt lat="45.001908698934436" lon="9.069291906967905"><ele>84.0</ele><time>2026-04-06T12:13:00Z</time></trkpt><trkpt lat="45.00174810512501" lon="9.069229741078356"><ele>83.66666666666667</ele><time>2026-04-06T12:13:01Z</time></trkpt><trkpt lat="45.00160453254454" lon="9.069206649883407"><ele>83.33333333333334</ele><time>2026-04-06T12:13:02Z</time></trkpt><trkpt lat="45.00144231722771" lon="9.069183482284547"><ele>83.0</ele><time>2026-04-06T12:13:03Z</time></trkpt><trkpt lat="45.001272282319526" lon="9.0691693691943"><ele>83.0</ele><time>2026-04-06T12:13:04Z</time></trkpt><trkpt lat="45.001095692773134" lon="9.069137420632774"><ele>83.0</ele><time>2026-04-06T12:13:05Z</time></trkpt><trkpt lat="45.000894208276335" lon="9.069106839691033"><ele>83.0</ele><time>2026-04-06T12:13:06Z</time></trkpt><trkpt lat="45.000670875959706" lon="9.069075595390862"><ele>82.0</ele><time>2026-04-06T12:13:07Z</time></trkpt><trkpt lat="45.00043779709772" lon="9.0690400238761"><ele>81.0</ele><time>2026-04-06T12:13:08Z</time></trkpt><trkpt lat="45.00020722792844" lon="9.069007390250022"><ele>81.0</ele><time>2026-04-06T12:13:09Z</time></trkpt><trkpt lat="44.99995514781427" lon="9.068971674500212"><ele>81.0</ele><time>2026-04-06T12:13:10Z</time></trkpt><trkpt lat="44.99970473666129" lon="9.068934760784865"><ele>81.0</ele><time>2026-04-06T12:13:11Z</time></trkpt><trkpt lat="44.999470728648134" lon="9.068899332870725"><ele>81.0</ele><time>2026-04-06T12:13:12Z</time></trkpt><trkpt lat="44.99925394483252" lon="9.068867275835581"><ele>82.0</ele><time>2026-04-06T12:13:13Z</time></trkpt><trkpt lat="44.99905013342912" lon="9.068837190443192"><ele>83.0</ele><time>2026-04-06T12:13:14Z</time></trkpt><trkpt lat="44.99885621604637" lon="9.068809004006024"><ele>84.0</ele><time>2026-04-06T12:13:15Z</time></trkpt><trkpt lat="44.99867279296259" lon="9.068783057796189"><ele>84.0</ele><time>2026-04-06T12:13:16Z</time></trkpt><trkpt lat="44.998496244455595" lon="9.068758581552144"><ele>84.0</ele><time>2026-04-06T12:13:17Z</time></trkpt><trkpt lat="44.998319939515994" lon="9.068733274525192"><ele>84.0</ele><time>2026-04-06T12:13:18Z</time></trkpt><trkpt lat="44.99815548625752" lon="9.068704536944564"><ele>85.33333333333333</ele><time>2026-04-06T12:13:19Z</time></trkpt><trkpt lat="44.99798848239147" lon="9.068672882705437"><ele>86.66666666666666</ele><time>2026-04-06T12:13:20Z</time></trkpt><trkpt lat="44.997827803039264" lon="9.068634599458079"><ele>88.0</ele><time>2026-04-06T12:13:21Z</time></trkpt><trkpt lat="44.99768511810761" lon="9.068595052584945"><ele>88.0</ele><time>2026-04-06T12:13:22Z</time></trkpt><trkpt lat="44.99755860208735" lon="9.068563638571804"><ele>88.0</ele><time>2026-04-06T12:13:23Z</time></trkpt><trkpt lat="44.997450356903585" lon="9.068529063543805"><ele>88.0</ele><time>2026-04-06T12:13:24Z</time></trkpt><trkpt lat="44.99734963826409" lon="9.068447343020376"><ele>88.0</ele><time>2026-04-06T12:13:25Z</time></trkpt><trkpt lat="44.99725954837619" lon="9.068343218223031"><ele>88.2</ele><time>2026-04-06T12:13:26Z</time></trkpt><trkpt lat="44.997164890389115" lon="9.068280189432722"><ele>88.4</ele><time>2026-04-06T12:13:27Z</time></trkpt><trkpt lat="44.997070390069936" lon="9.068306263582796"><ele>88.60000000000001</ele><time>2026-04-06T12:13:28Z</time></trkpt><trkpt lat="44.99697832738455" lon="9.068369291400009"><ele>88.80000000000001</ele><time>2026-04-06T12:13:29Z</time></trkpt><trkpt lat="44.996879821804924" lon="9.068429134548543"><ele>89.0</ele><time>2026-04-06T12:13:30Z</time></trkpt><trkpt lat="44.996756879127304" lon="9.068411629501698"><ele>89.0</ele><time>2026-04-06T12:13:31Z</time></trkpt><trkpt lat="44.99662883341809" lon="9.068356851049383"><ele>89.0</ele><time>2026-04-06T12:13:32Z</time></trkpt><trkpt lat="44.99649655595047" lon="9.068245752575839"><ele>89.0</ele><time>2026-04-06T12:13:33Z</time></trkpt><trkpt lat="44.99634507319225" lon="9.068172442119991"><ele>89.0</ele><time>2026-04-06T12:13:34Z</time></trkpt><trkpt lat="44.99621218246731" lon="9.06810980570441"><ele>89.0</ele><time>2026-04-06T12:13:35Z</time></trkpt><trkpt lat="44.99608011311994" lon="9.068070608578488"><ele>89.0</ele><time>2026-04-06T12:13:36Z</time></trkpt><trkpt lat="44.99595821420416" lon="9.06799010093308"><ele>89.0</ele><time>2026-04-06T12:13:37Z</time></trkpt><trkpt lat="44.99583477484177" lon="9.067931471957936"><ele>89.0</ele><time>2026-04-06T12:13:38Z</time></trkpt><trkpt lat="44.99570775928617" lon="9.067870535567538"><ele>89.66666666666667</ele><time>2026-04-06T12:13:39Z</time></trkpt><trkpt lat="44.995561948725936" lon="9.06780108711347"><ele>90.33333333333333</ele><time>2026-04-06T12:13:40Z</time></trkpt><trkpt lat="44.99540008449134" lon="9.067724151321562"><ele>91.0</ele><time>2026-04-06T12:13:41Z</time></trkpt><trkpt lat="44.99521657173916" lon="9.067672537064878"><ele>91.0</ele><time>2026-04-06T12:13:42Z</time></trkpt><trkpt lat="44.995050139580414" lon="9.067581620207237"><ele>91.0</ele><time>2026-04-06T12:13:43Z</time></trkpt><trkpt lat="44.99489725642701" lon="9.067500338718983"><ele>91.0</ele><time>2026-04-06T12:13:44Z</time></trkpt><trkpt lat="44.99474527037968" lon="9.067425217205574"><ele>91.5</ele><time>2026-04-06T12:13:45Z</time></trkpt><trkpt lat="44.99459700845996" lon="9.067360182572315"><ele>92.0</ele><time>2026-04-06T12:13:46Z</time></trkpt><trkpt lat="44.99445757129996" lon="9.067296743635714"><ele>92.5</ele><time>2026-04-06T12:13:47Z</time></trkpt><trkpt lat="44.994327364915236" lon="9.067230512237561"><ele>93.0</ele><time>2026-04-06T12:13:48Z</time></trkpt><trkpt lat="44.99419361406453" lon="9.067164964753301"><ele>93.5</ele><time>2026-04-06T12:13:49Z</time></trkpt><trkpt lat="44.99406226336668" lon="9.067104111639328"><ele>94.0</ele><time>2026-04-06T12:13:50Z</time></trkpt><trkpt lat="44.993939792149064" lon="9.067047534086184"><ele>94.5</ele><time>2026-04-06T12:13:51Z</time></trkpt><trkpt lat="44.99382649867185" lon="9.066987261692947"><ele>95.0</ele><time>2026-04-06T12:13:52Z</time></trkpt><trkpt lat="44.993736265455084" lon="9.06692594896794"><ele>95.0</ele><time>2026-04-06T12:13:53Z</time></trkpt><trkpt lat="44.99365957756978" lon="9.066868026702046"><ele>95.0</ele><time>2026-04-06T12:13:54Z</time></trkpt><trkpt lat="44.99360099976843" lon="9.066806232992164"><ele>95.0</ele><time>2026-04-06T12:13:55Z</time></trkpt><trkpt lat="44.99355126809214" lon="9.066726577619377"><ele>95.0</ele><time>2026-04-06T12:13:56Z</time></trkpt><trkpt lat="44.99349136273919" lon="9.066660599617212"><ele>95.0</ele><time>2026-04-06T12:13:57Z</time></trkpt><trkpt lat="44.99341207680533" lon="9.066642200191081"><ele>95.0</ele><time>2026-04-06T12:13:58Z</time></trkpt><trkpt lat="44.99332069716193" lon="9.066670185303636"><ele>95.0</ele><time>2026-04-06T12:13:59Z</time></trkpt><trkpt lat="44.993231145250334" lon="9.06671494958367"><ele>95.0</ele><time>2026-04-06T12:14:00Z</time></trkpt><trkpt lat="44.99314293992925" lon="9.066662191435755"><ele>95.0</ele><time>2026-04-06T12:14:01Z</time></trkpt><trkpt lat="44.99303458428174" lon="9.066614141820263"><ele>95.0</ele><time>2026-04-06T12:14:02Z</time></trkpt><trkpt lat="44.99291664181917" lon="9.066564158678899"><ele>95.0</ele><time>2026-04-06T12:14:03Z</time></trkpt><trkpt lat="44.99279662002197" lon="9.066513384950648"><ele>95.0</ele><time>2026-04-06T12:14:04Z</time></trkpt><trkpt lat="44.992668327419665" lon="9.06645911239342"><ele>95.0</ele><time>2026-04-06T12:14:05Z</time></trkpt><trkpt lat="44.992534441502464" lon="9.06640286860201"><ele>95.0</ele><time>2026-04-06T12:14:06Z</time></trkpt><trkpt lat="44.99240208124381" lon="9.066347918467702"><ele>95.0</ele><time>2026-04-06T12:14:07Z</time></trkpt><trkpt lat="44.992263252695246" lon="9.066290281039878"><ele>95.0</ele><time>2026-04-06T12:14:08Z</time></trkpt><trkpt lat="44.99212288684058" lon="9.066232005419478"><ele>95.0</ele><time>2026-04-06T12:14:09Z</time></trkpt><trkpt lat="44.9919744640589" lon="9.06617038467241"><ele>95.0</ele><time>2026-04-06T12:14:10Z</time></trkpt><trkpt lat="44.991826093927486" lon="9.066108786910794"><ele>95.0</ele><time>2026-04-06T12:14:11Z</time></trkpt><trkpt lat="44.991675776432" lon="9.066046182398871"><ele>95.0</ele><time>2026-04-06T12:14:12Z</time></trkpt><trkpt lat="44.99151870460778" lon="9.065980806436336"><ele>95.0</ele><time>2026-04-06T12:14:13Z</time></trkpt><trkpt lat="44.99133362398756" lon="9.06590348023478"><ele>96.5</ele><time>2026-04-06T12:14:14Z</time></trkpt><trkpt lat="44.991109313696136" lon="9.065810241215546"><ele>98.0</ele><time>2026-04-06T12:14:15Z</time></trkpt><trkpt lat="44.99086240994545" lon="9.065707874069656"><ele>98.0</ele><time>2026-04-06T12:14:16Z</time></trkpt><trkpt lat="44.9906096075026" lon="9.065603061276565"><ele>98.0</ele><time>2026-04-06T12:14:17Z</time></trkpt><trkpt lat="44.99033589622778" lon="9.065489421780345"><ele>98.0</ele><time>2026-04-06T12:14:18Z</time></trkpt><trkpt lat="44.99003541676493" lon="9.065363439707058"><ele>98.0</ele><time>2026-04-06T12:14:19Z</time></trkpt><trkpt lat="44.98971877521124" lon="9.065229634413953"><ele>98.5</ele><time>2026-04-06T12:14:20Z</time></trkpt><trkpt lat="44.989405402461166" lon="9.065097303039737"><ele>99.0</ele><time>2026-04-06T12:14:21Z</time></trkpt><trkpt lat="44.989096747894585" lon="9.06496865003781"><ele>98.0</ele><time>2026-04-06T12:14:22Z</time></trkpt><trkpt lat="44.98877261960603" lon="9.064833053446732"><ele>97.0</ele><time>2026-04-06T12:14:23Z</time></trkpt><trkpt lat="44.98844679282483" lon="9.06469540364864"><ele>98.0</ele><time>2026-04-06T12:14:24Z</time></trkpt><trkpt lat="44.98812631665018" lon="9.064581349696413"><ele>99.0</ele><time>2026-04-06T12:14:25Z</time></trkpt><trkpt lat="44.98782041935147" lon="9.064451577887473"><ele>99.0</ele><time>2026-04-06T12:14:26Z</time></trkpt><trkpt lat="44.98752494535051" lon="9.064309726805151"><ele>99.0</ele><time>2026-04-06T12:14:27Z</time></trkpt><trkpt lat="44.987229145353744" lon="9.064209466960628"><ele>100.0</ele><time>2026-04-06T12:14:28Z</time></trkpt><trkpt lat="44.98693140491318" lon="9.064141923267389"><ele>101.0</ele><time>2026-04-06T12:14:29Z</time></trkpt><trkpt lat="44.986642324948235" lon="9.064073535919972"><ele>101.0</ele><time>2026-04-06T12:14:30Z</time></trkpt><trkpt lat="44.98635610501192" lon="9.064022661064117"><ele>101.0</ele><time>2026-04-06T12:14:31Z</time></trkpt><trkpt lat="44.986076009516665" lon="9.06395042288408"><ele>102.0</ele><time>2026-04-06T12:14:32Z</time></trkpt><trkpt lat="44.985796656377126" lon="9.063929155357007"><ele>103.0</ele><time>2026-04-06T12:14:33Z</time></trkpt><trkpt lat="44.98553371755069" lon="9.06389612961929"><ele>103.0</ele><time>2026-04-06T12:14:34Z</time></trkpt><trkpt lat="44.98528316041189" lon="9.06387422267175"><ele>103.0</ele><time>2026-04-06T12:14:35Z</time></trkpt><trkpt lat="44.985039908780124" lon="9.063858453569141"><ele>103.5</ele><time>2026-04-06T12:14:36Z</time></trkpt><trkpt lat="44.98480464047907" lon="9.063838800765227"><ele>104.0</ele><time>2026-04-06T12:14:37Z</time></trkpt><trkpt lat="44.984575218528725" lon="9.063815255153065"><ele>104.0</ele><time>2026-04-06T12:14:38Z</time></trkpt><trkpt lat="44.98435324593484" lon="9.063786103796307"><ele>104.0</ele><time>2026-04-06T12:14:39Z</time></trkpt><trkpt lat="44.984128009088906" lon="9.063750423970705"><ele>104.0</ele><time>2026-04-06T12:14:40Z</time></trkpt><trkpt lat="44.98390691454908" lon="9.063681784474216"><ele>104.0</ele><time>2026-04-06T12:14:41Z</time></trkpt><trkpt lat="44.98367872178082" lon="9.063628311607625"><ele>104.0</ele><time>2026-04-06T12:14:42Z</time></trkpt><trkpt lat="44.983443916758524" lon="9.063569837357734"><ele>104.0</ele><time>2026-04-06T12:14:43Z</time></trkpt><trkpt lat="44.98320367837431" lon="9.063508754473876"><ele>104.5</ele><time>2026-04-06T12:14:44Z</time></trkpt><trkpt lat="44.98295926981299" lon="9.063469220348873"><ele>105.0</ele><time>2026-04-06T12:14:45Z</time></trkpt><trkpt lat="44.98272019189595" lon="9.063398901282685"><ele>106.5</ele><time>2026-04-06T12:14:45.999Z</time></trkpt><trkpt lat="44.98248691075703" lon="9.06334098874291"><ele>108.0</ele><time>2026-04-06T12:14:46.999Z</time></trkpt><trkpt lat="44.98226436722237" lon="9.063295675083284"><ele>108.0</ele><time>2026-04-06T12:14:47.999Z</time></trkpt><trkpt lat="44.982053291285304" lon="9.063237663721067"><ele>108.0</ele><time>2026-04-06T12:14:48.999Z</time></trkpt><trkpt lat="44.98185177534901" lon="9.063164935986556"><ele>108.0</ele><time>2026-04-06T12:14:49.999Z</time></trkpt><trkpt lat="44.981658299002824" lon="9.063092703795027"><ele>107.66666666666666</ele><time>2026-04-06T12:14:51Z</time></trkpt><trkpt lat="44.981480617906016" lon="9.063038852032989"><ele>107.33333333333333</ele><time>2026-04-06T12:14:52Z</time></trkpt><trkpt lat="44.981312358360036" lon="9.062998567967856"><ele>107.0</ele><time>2026-04-06T12:14:53Z</time></trkpt><trkpt lat="44.98115616001342" lon="9.062968730648251"><ele>107.0</ele><time>2026-04-06T12:14:54Z</time></trkpt><trkpt lat="44.98101515693144" lon="9.06294188545449"><ele>107.0</ele><time>2026-04-06T12:14:55Z</time></trkpt><trkpt lat="44.98088995276672" lon="9.062900305695313"><ele>107.0</ele><time>2026-04-06T12:14:56Z</time></trkpt><trkpt lat="44.98077947570434" lon="9.062879566846815"><ele>107.0</ele><time>2026-04-06T12:14:57Z</time></trkpt><trkpt lat="44.980687257382044" lon="9.062863481271629"><ele>107.25</ele><time>2026-04-06T12:14:58Z</time></trkpt><trkpt lat="44.980598070240475" lon="9.062711168339373"><ele>107.5</ele><time>2026-04-06T12:14:59Z</time></trkpt><trkpt lat="44.98048460742558" lon="9.062744799375391"><ele>107.75</ele><time>2026-04-06T12:15:00Z</time></trkpt><trkpt lat="44.980338185306906" lon="9.062784826683059"><ele>108.0</ele><time>2026-04-06T12:15:01Z</time></trkpt><trkpt lat="44.98019416727501" lon="9.062745613191483"><ele>108.0</ele><time>2026-04-06T12:15:02Z</time></trkpt><trkpt lat="44.98002371257988" lon="9.062696223939152"><ele>108.0</ele><time>2026-04-06T12:15:03Z</time></trkpt><trkpt lat="44.979838353019915" lon="9.062651174634427"><ele>108.0</ele><time>2026-04-06T12:15:04Z</time></trkpt><trkpt lat="44.979640374949106" lon="9.062604420701225"><ele>108.33333333333334</ele><time>2026-04-06T12:15:05Z</time></trkpt><trkpt lat="44.97943692425181" lon="9.062558074191323"><ele>108.66666666666667</ele><time>2026-04-06T12:15:06Z</time></trkpt><trkpt lat="44.97920832750924" lon="9.062503433364707"><ele>109.0</ele><time>2026-04-06T12:15:07Z</time></trkpt><trkpt lat="44.97895815278675" lon="9.062445133595176"><ele>110.0</ele><time>2026-04-06T12:15:08Z</time></trkpt><trkpt lat="44.97869124797821" lon="9.062386603136186"><ele>111.0</ele><time>2026-04-06T12:15:09Z</time></trkpt><trkpt lat="44.97842804810752" lon="9.06232674190603"><ele>112.0</ele><time>2026-04-06T12:15:10Z</time></trkpt><trkpt lat="44.97815544515338" lon="9.062258156699539"><ele>113.0</ele><time>2026-04-06T12:15:11Z</time></trkpt><trkpt lat="44.977865588786244" lon="9.062191284872982"><ele>113.0</ele><time>2026-04-06T12:15:12Z</time></trkpt><trkpt lat="44.97755656628411" lon="9.062118455924292"><ele>113.0</ele><time>2026-04-06T12:15:13Z</time></trkpt><trkpt lat="44.977239809597876" lon="9.062041470726946"><ele>112.5</ele><time>2026-04-06T12:15:14Z</time></trkpt><trkpt lat="44.97692703950736" lon="9.06195784641292"><ele>112.0</ele><time>2026-04-06T12:15:15Z</time></trkpt><trkpt lat="44.976612150231354" lon="9.061890868151755"><ele>112.0</ele><time>2026-04-06T12:15:16Z</time></trkpt><trkpt lat="44.976291236712875" lon="9.061833142507545"><ele>112.0</ele><time>2026-04-06T12:15:17Z</time></trkpt><trkpt lat="44.97597406974479" lon="9.061786200870513"><ele>113.5</ele><time>2026-04-06T12:15:18Z</time></trkpt><trkpt lat="44.9756621932104" lon="9.061737541954408"><ele>115.0</ele><time>2026-04-06T12:15:19Z</time></trkpt><trkpt lat="44.97534135493608" lon="9.061680710573379"><ele>115.0</ele><time>2026-04-06T12:15:20Z</time></trkpt><trkpt lat="44.97501455876599" lon="9.061619484075978"><ele>115.0</ele><time>2026-04-06T12:15:21Z</time></trkpt><trkpt lat="44.97468425838795" lon="9.061557307734926"><ele>115.0</ele><time>2026-04-06T12:15:22Z</time></trkpt><trkpt lat="44.974450991828185" lon="9.061530351454165"><ele>115.0</ele><time>2026-04-06T12:15:23Z</time></trkpt><trkpt lat="44.97416604601266" lon="9.061486140459673"><ele>115.0</ele><time>2026-04-06T12:15:24Z</time></trkpt><trkpt lat="44.97388208710834" lon="9.061435011518816"><ele>115.0</ele><time>2026-04-06T12:15:25Z</time></trkpt><trkpt lat="44.97360121253087" lon="9.061382862052497"><ele>116.5</ele><time>2026-04-06T12:15:26Z</time></trkpt><trkpt lat="44.97332214765051" lon="9.06133633988486"><ele>118.0</ele><time>2026-04-06T12:15:27Z</time></trkpt><trkpt lat="44.97304726614192" lon="9.061291517366135"><ele>118.0</ele><time>2026-04-06T12:15:28Z</time></trkpt><trkpt lat="44.97277675572594" lon="9.061245676517514"><ele>118.0</ele><time>2026-04-06T12:15:29Z</time></trkpt><trkpt lat="44.97251058943575" lon="9.061206213492918"><ele>118.0</ele><time>2026-04-06T12:15:30Z</time></trkpt><trkpt lat="44.9722399348014" lon="9.061165790638588"><ele>118.0</ele><time>2026-04-06T12:15:31Z</time></trkpt><trkpt lat="44.97196183890323" lon="9.061120115695658"><ele>118.5</ele><time>2026-04-06T12:15:32Z</time></trkpt><trkpt lat="44.97168498022961" lon="9.061070551611033"><ele>119.0</ele><time>2026-04-06T12:15:33Z</time></trkpt><trkpt lat="44.97141182828547" lon="9.061020263358454"><ele>119.0</ele><time>2026-04-06T12:15:34Z</time></trkpt><trkpt lat="44.97114756807019" lon="9.060972614540331"><ele>119.0</ele><time>2026-04-06T12:15:35Z</time></trkpt><trkpt lat="44.97088582103319" lon="9.06093058191417"><ele>120.5</ele><time>2026-04-06T12:15:36Z</time></trkpt><trkpt lat="44.970628856471755" lon="9.060888394876027"><ele>122.0</ele><time>2026-04-06T12:15:37Z</time></trkpt><trkpt lat="44.97037651222904" lon="9.060849380743528"><ele>122.0</ele><time>2026-04-06T12:15:38Z</time></trkpt><trkpt lat="44.97014006561156" lon="9.060808389179822"><ele>122.0</ele><time>2026-04-06T12:15:39Z</time></trkpt><trkpt lat="44.96992520691574" lon="9.0607714710275"><ele>123.0</ele><time>2026-04-06T12:15:40Z</time></trkpt><trkpt lat="44.96972448311278" lon="9.060740352226237"><ele>124.0</ele><time>2026-04-06T12:15:41Z</time></trkpt><trkpt lat="44.96953077967305" lon="9.060709865455852"><ele>125.0</ele><time>2026-04-06T12:15:42Z</time></trkpt><trkpt lat="44.9693635233775" lon="9.0606817810437"><ele>125.0</ele><time>2026-04-06T12:15:43Z</time></trkpt><trkpt lat="44.96923124338886" lon="9.060643655196165"><ele>125.0</ele><time>2026-04-06T12:15:44Z</time></trkpt><trkpt lat="44.969108264277224" lon="9.060584879614966"><ele>125.0</ele><time>2026-04-06T12:15:45Z</time></trkpt><trkpt lat="44.969001814340814" lon="9.060493886116392"><ele>125.0</ele><time>2026-04-06T12:15:46Z</time></trkpt><trkpt lat="44.96890531923243" lon="9.060365906931542"><ele>125.0</ele><time>2026-04-06T12:15:47Z</time></trkpt><trkpt lat="44.96880624167997" lon="9.060251616427154"><ele>125.0</ele><time>2026-04-06T12:15:48Z</time></trkpt><trkpt lat="44.968748237031114" lon="9.0600904674916"><ele>125.0</ele><time>2026-04-06T12:15:49Z</time></trkpt><trkpt lat="44.968670141580155" lon="9.05997104227874"><ele>125.0</ele><time>2026-04-06T12:15:50Z</time></trkpt><trkpt lat="44.96855883875927" lon="9.059877759225605"><ele>125.0</ele><time>2026-04-06T12:15:51Z</time></trkpt><trkpt lat="44.96845862870315" lon="9.059791700435083"><ele>125.0</ele><time>2026-04-06T12:15:52Z</time></trkpt><trkpt lat="44.96837669860003" lon="9.059650407761588"><ele>125.0</ele><time>2026-04-06T12:15:53Z</time></trkpt><trkpt lat="44.968313966263196" lon="9.059477884066219"><ele>125.0</ele><time>2026-04-06T12:15:54Z</time></trkpt><trkpt lat="44.96826341687995" lon="9.059290424692604"><ele>125.66666666666666</ele><time>2026-04-06T12:15:55Z</time></trkpt><trkpt lat="44.96822495624745" lon="9.05909523754415"><ele>126.33333333333334</ele><time>2026-04-06T12:15:56Z</time></trkpt><trkpt lat="44.968182978537484" lon="9.058897349544797"><ele>127.0</ele><time>2026-04-06T12:15:57Z</time></trkpt><trkpt lat="44.96812526674349" lon="9.058686031817393"><ele>127.0</ele><time>2026-04-06T12:15:58Z</time></trkpt><trkpt lat="44.96805079045288" lon="9.05843101605642"><ele>127.0</ele><time>2026-04-06T12:15:59Z</time></trkpt><trkpt lat="44.9679643287271" lon="9.05812829432181"><ele>127.0</ele><time>2026-04-06T12:16:00Z</time></trkpt><trkpt lat="44.967878013150425" lon="9.05779386716712"><ele>127.0</ele><time>2026-04-06T12:16:01Z</time></trkpt><trkpt lat="44.96779460982597" lon="9.057456752618442"><ele>127.0</ele><time>2026-04-06T12:16:02Z</time></trkpt><trkpt lat="44.96772713556188" lon="9.057101080531208"><ele>127.0</ele><time>2026-04-06T12:16:03Z</time></trkpt><trkpt lat="44.967623117744466" lon="9.056717949813976"><ele>127.0</ele><time>2026-04-06T12:16:04Z</time></trkpt><trkpt lat="44.967510876924706" lon="9.056305712157519"><ele>128.5</ele><time>2026-04-06T12:16:05Z</time></trkpt><trkpt lat="44.967393000403" lon="9.055877184407779"><ele>130.0</ele><time>2026-04-06T12:16:06Z</time></trkpt><trkpt lat="44.96728226519272" lon="9.055475208413194"><ele>130.0</ele><time>2026-04-06T12:16:07Z</time></trkpt><trkpt lat="44.96717149880571" lon="9.055069229459338"><ele>130.0</ele><time>2026-04-06T12:16:08Z</time></trkpt><trkpt lat="44.9670673535872" lon="9.054685888573536"><ele>129.5</ele><time>2026-04-06T12:16:09Z</time></trkpt><trkpt lat="44.966973476444146" lon="9.054340960316802"><ele>129.0</ele><time>2026-04-06T12:16:10Z</time></trkpt><trkpt lat="44.96688667521445" lon="9.054022030756219"><ele>128.5</ele><time>2026-04-06T12:16:11Z</time></trkpt><trkpt lat="44.966794689093504" lon="9.053684050596944"><ele>128.0</ele><time>2026-04-06T12:16:12Z</time></trkpt><trkpt lat="44.96669786732164" lon="9.053328303033982"><ele>127.5</ele><time>2026-04-06T12:16:13Z</time></trkpt><trkpt lat="44.96659584997903" lon="9.05295346564276"><ele>127.0</ele><time>2026-04-06T12:16:14Z</time></trkpt><trkpt lat="44.96649236813984" lon="9.052573385561882"><ele>127.0</ele><time>2026-04-06T12:16:15Z</time></trkpt><trkpt lat="44.966391600365746" lon="9.052201753249188"><ele>127.0</ele><time>2026-04-06T12:16:16Z</time></trkpt><trkpt lat="44.96627992059988" lon="9.051844982148191"><ele>126.5</ele><time>2026-04-06T12:16:17Z</time></trkpt><trkpt lat="44.96618144849055" lon="9.05148858642644"><ele>126.0</ele><time>2026-04-06T12:16:18Z</time></trkpt><trkpt lat="44.966066895046154" lon="9.051141751996635"><ele>126.0</ele><time>2026-04-06T12:16:19Z</time></trkpt><trkpt lat="44.96593635190107" lon="9.05081080753416"><ele>126.0</ele><time>2026-04-06T12:16:20Z</time></trkpt><trkpt lat="44.96578767332965" lon="9.050491496395425"><ele>127.5</ele><time>2026-04-06T12:16:21Z</time></trkpt><trkpt lat="44.96562736869119" lon="9.050184870921733"><ele>129.0</ele><time>2026-04-06T12:16:22Z</time></trkpt><trkpt lat="44.9654592628877" lon="9.049889602220276"><ele>129.0</ele><time>2026-04-06T12:16:23Z</time></trkpt><trkpt lat="44.9652939248776" lon="9.049591027135667"><ele>129.0</ele><time>2026-04-06T12:16:24Z</time></trkpt><trkpt lat="44.96514669164606" lon="9.0492817857575"><ele>129.5</ele><time>2026-04-06T12:16:25Z</time></trkpt><trkpt lat="44.96497854450134" lon="9.049000761226809"><ele>130.0</ele><time>2026-04-06T12:16:26Z</time></trkpt><trkpt lat="44.96482158816586" lon="9.048709441471253"><ele>130.0</ele><time>2026-04-06T12:16:27Z</time></trkpt><trkpt lat="44.96467751061761" lon="9.048403795849298"><ele>130.0</ele><time>2026-04-06T12:16:28Z</time></trkpt><trkpt lat="44.96452015401756" lon="9.048107199230154"><ele>129.0</ele><time>2026-04-06T12:16:29Z</time></trkpt><trkpt lat="44.96436789006314" lon="9.047819304846467"><ele>128.0</ele><time>2026-04-06T12:16:30Z</time></trkpt><trkpt lat="44.964221188065714" lon="9.047541856521846"><ele>127.5</ele><time>2026-04-06T12:16:31Z</time></trkpt><trkpt lat="44.964069596814134" lon="9.04725469521321"><ele>127.0</ele><time>2026-04-06T12:16:32Z</time></trkpt><trkpt lat="44.963913622740456" lon="9.046959231468023"><ele>127.0</ele><time>2026-04-06T12:16:33Z</time></trkpt><trkpt lat="44.9637406314523" lon="9.04666730027867"><ele>127.0</ele><time>2026-04-06T12:16:34Z</time></trkpt><trkpt lat="44.96358318293833" lon="9.046354901091261"><ele>127.5</ele><time>2026-04-06T12:16:35Z</time></trkpt><trkpt lat="44.963416771208344" lon="9.046042509792663"><ele>128.0</ele><time>2026-04-06T12:16:36Z</time></trkpt><trkpt lat="44.96324980571312" lon="9.045733179446081"><ele>128.0</ele><time>2026-04-06T12:16:37Z</time></trkpt><trkpt lat="44.9630978241125" lon="9.045412365775048"><ele>128.0</ele><time>2026-04-06T12:16:38Z</time></trkpt><trkpt lat="44.96292077872644" lon="9.04512232602233"><ele>127.5</ele><time>2026-04-06T12:16:39Z</time></trkpt><trkpt lat="44.96275719649481" lon="9.044830775682588"><ele>127.0</ele><time>2026-04-06T12:16:40Z</time></trkpt><trkpt lat="44.96257655658973" lon="9.044562664154684"><ele>128.0</ele><time>2026-04-06T12:16:41Z</time></trkpt><trkpt lat="44.96237344570905" lon="9.04432969235787"><ele>129.0</ele><time>2026-04-06T12:16:42Z</time></trkpt><trkpt lat="44.96215550388715" lon="9.044120373448107"><ele>129.0</ele><time>2026-04-06T12:16:43Z</time></trkpt><trkpt lat="44.961923751690065" lon="9.043933315521977"><ele>129.0</ele><time>2026-04-06T12:16:44Z</time></trkpt><trkpt lat="44.96169127099282" lon="9.043742110007713"><ele>129.5</ele><time>2026-04-06T12:16:45Z</time></trkpt><trkpt lat="44.96147172833242" lon="9.043513982025889"><ele>130.0</ele><time>2026-04-06T12:16:46Z</time></trkpt><trkpt lat="44.96124196054779" lon="9.043304364630572"><ele>130.0</ele><time>2026-04-06T12:16:47Z</time></trkpt><trkpt lat="44.96100259379736" lon="9.043113132368774"><ele>130.0</ele><time>2026-04-06T12:16:48Z</time></trkpt><trkpt lat="44.96077239083901" lon="9.04289651450345"><ele>130.0</ele><time>2026-04-06T12:16:49Z</time></trkpt><trkpt lat="44.960539870646755" lon="9.042683282513392"><ele>130.0</ele><time>2026-04-06T12:16:50Z</time></trkpt><trkpt lat="44.960304901376844" lon="9.042474389403532"><ele>131.0</ele><time>2026-04-06T12:16:51Z</time></trkpt><trkpt lat="44.96006906674396" lon="9.042265895413767"><ele>132.0</ele><time>2026-04-06T12:16:52Z</time></trkpt><trkpt lat="44.95983447768086" lon="9.042055203292831"><ele>132.5</ele><time>2026-04-06T12:16:53Z</time></trkpt><trkpt lat="44.95960264957983" lon="9.041843316968352"><ele>133.0</ele><time>2026-04-06T12:16:54Z</time></trkpt><trkpt lat="44.9593712809244" lon="9.041632322621439"><ele>134.0</ele><time>2026-04-06T12:16:55Z</time></trkpt><trkpt lat="44.95914007817646" lon="9.041424195353153"><ele>135.0</ele><time>2026-04-06T12:16:56Z</time></trkpt><trkpt lat="44.95891030572672" lon="9.041219250068899"><ele>135.0</ele><time>2026-04-06T12:16:57Z</time></trkpt><trkpt lat="44.9586832149948" lon="9.04101155123175"><ele>135.0</ele><time>2026-04-06T12:16:58Z</time></trkpt><trkpt lat="44.95845959257546" lon="9.040803443268413"><ele>136.0</ele><time>2026-04-06T12:16:59Z</time></trkpt><trkpt lat="44.958234907471834" lon="9.040598442180144"><ele>137.0</ele><time>2026-04-06T12:17:00Z</time></trkpt><trkpt lat="44.9580120126187" lon="9.040394121201436"><ele>137.0</ele><time>2026-04-06T12:17:01Z</time></trkpt><trkpt lat="44.9577987699047" lon="9.040176353204771"><ele>137.0</ele><time>2026-04-06T12:17:02Z</time></trkpt><trkpt lat="44.957601478548064" lon="9.039930467816328"><ele>137.0</ele><time>2026-04-06T12:17:03Z</time></trkpt><trkpt lat="44.95742359010118" lon="9.039660211669602"><ele>137.0</ele><time>2026-04-06T12:17:04Z</time></trkpt><trkpt lat="44.95726752353892" lon="9.039365045371104"><ele>138.0</ele><time>2026-04-06T12:17:05Z</time></trkpt><trkpt lat="44.9571337173993" lon="9.039055328107132"><ele>139.0</ele><time>2026-04-06T12:17:06Z</time></trkpt><trkpt lat="44.95701005624351" lon="9.038739285616549"><ele>139.0</ele><time>2026-04-06T12:17:07Z</time></trkpt><trkpt lat="44.95688693754036" lon="9.038424754292425"><ele>139.0</ele><time>2026-04-06T12:17:08Z</time></trkpt><trkpt lat="44.956758905063644" lon="9.038120847068798"><ele>140.0</ele><time>2026-04-06T12:17:09Z</time></trkpt><trkpt lat="44.95662180162418" lon="9.037826600667694"><ele>141.0</ele><time>2026-04-06T12:17:10Z</time></trkpt><trkpt lat="44.956466804087064" lon="9.037552726130887"><ele>141.5</ele><time>2026-04-06T12:17:11Z</time></trkpt><trkpt lat="44.95628906818266" lon="9.037308644390299"><ele>142.0</ele><time>2026-04-06T12:17:12Z</time></trkpt><trkpt lat="44.95610090874424" lon="9.0370799095234"><ele>142.0</ele><time>2026-04-06T12:17:13Z</time></trkpt><trkpt lat="44.955911176738695" lon="9.036854071333726"><ele>142.0</ele><time>2026-04-06T12:17:14Z</time></trkpt><trkpt lat="44.95572619423384" lon="9.036622498909276"><ele>143.0</ele><time>2026-04-06T12:17:15Z</time></trkpt><trkpt lat="44.9555435339485" lon="9.036382930305317"><ele>144.0</ele><time>2026-04-06T12:17:16Z</time></trkpt><trkpt lat="44.95536103838437" lon="9.036150114723457"><ele>144.0</ele><time>2026-04-06T12:17:17Z</time></trkpt><trkpt lat="44.95517741091789" lon="9.035918447003523"><ele>144.0</ele><time>2026-04-06T12:17:18Z</time></trkpt><trkpt lat="44.954992355254085" lon="9.035684415831968"><ele>144.5</ele><time>2026-04-06T12:17:19Z</time></trkpt><trkpt lat="44.95480591213653" lon="9.035452161317485"><ele>145.0</ele><time>2026-04-06T12:17:20Z</time></trkpt><trkpt lat="44.95462197262591" lon="9.035222696122943"><ele>145.0</ele><time>2026-04-06T12:17:21Z</time></trkpt><trkpt lat="44.95443756075925" lon="9.034991781194602"><ele>145.0</ele><time>2026-04-06T12:17:22Z</time></trkpt><trkpt lat="44.95426399313513" lon="9.034775020678927"><ele>145.33333333333334</ele><time>2026-04-06T12:17:23Z</time></trkpt><trkpt lat="44.954110555574" lon="9.034576731808176"><ele>145.66666666666666</ele><time>2026-04-06T12:17:24Z</time></trkpt><trkpt lat="44.953977786508595" lon="9.034405864984295"><ele>146.0</ele><time>2026-04-06T12:17:25Z</time></trkpt><trkpt lat="44.95386819599004" lon="9.034261366407033"><ele>145.75</ele><time>2026-04-06T12:17:26Z</time></trkpt><trkpt lat="44.95377698481061" lon="9.034127581834747"><ele>145.5</ele><time>2026-04-06T12:17:27Z</time></trkpt><trkpt lat="44.95370497715437" lon="9.033973260332228"><ele>145.25</ele><time>2026-04-06T12:17:28Z</time></trkpt><trkpt lat="44.95365082739563" lon="9.033814269156188"><ele>145.0</ele><time>2026-04-06T12:17:29Z</time></trkpt><trkpt lat="44.95358353125317" lon="9.033695561810418"><ele>145.0</ele><time>2026-04-06T12:17:30Z</time></trkpt><trkpt lat="44.95348037496193" lon="9.033620348056473"><ele>145.0</ele><time>2026-04-06T12:17:31Z</time></trkpt><trkpt lat="44.95334986120721" lon="9.033559979529803"><ele>145.0</ele><time>2026-04-06T12:17:32Z</time></trkpt><trkpt lat="44.95321617594264" lon="9.033461354335428"><ele>145.0</ele><time>2026-04-06T12:17:33Z</time></trkpt><trkpt lat="44.95308893584959" lon="9.033306642730048"><ele>143.66666666666669</ele><time>2026-04-06T12:17:34Z</time></trkpt><trkpt lat="44.95295518574471" lon="9.033130650072472"><ele>142.33333333333334</ele><time>2026-04-06T12:17:35Z</time></trkpt><trkpt lat="44.95281392271985" lon="9.032947008306316"><ele>141.0</ele><time>2026-04-06T12:17:36Z</time></trkpt><trkpt lat="44.952665117991984" lon="9.032749270900943"><ele>141.66666666666666</ele><time>2026-04-06T12:17:37Z</time></trkpt><trkpt lat="44.95251852108152" lon="9.03255436115046"><ele>142.33333333333331</ele><time>2026-04-06T12:17:38Z</time></trkpt><trkpt lat="44.952359505722455" lon="9.03235113599046"><ele>143.0</ele><time>2026-04-06T12:17:39Z</time></trkpt><trkpt lat="44.95218560212658" lon="9.032133712296421"><ele>144.0</ele><time>2026-04-06T12:17:40Z</time></trkpt><trkpt lat="44.95200146630972" lon="9.031901481866985"><ele>145.0</ele><time>2026-04-06T12:17:41Z</time></trkpt><trkpt lat="44.95180975551004" lon="9.031658815804766"><ele>145.0</ele><time>2026-04-06T12:17:42Z</time></trkpt><trkpt lat="44.95162729149446" lon="9.031426119723443"><ele>145.0</ele><time>2026-04-06T12:17:43Z</time></trkpt><trkpt lat="44.9514363685045" lon="9.031184314187131"><ele>145.0</ele><time>2026-04-06T12:17:44Z</time></trkpt><trkpt lat="44.951240859548975" lon="9.030935316762415"><ele>145.0</ele><time>2026-04-06T12:17:45Z</time></trkpt><trkpt lat="44.95104190103245" lon="9.03068472013277"><ele>145.0</ele><time>2026-04-06T12:17:46Z</time></trkpt><trkpt lat="44.950843155526954" lon="9.030433471129736"><ele>145.0</ele><time>2026-04-06T12:17:47Z</time></trkpt><trkpt lat="44.95064929366843" lon="9.030187729648883"><ele>143.5</ele><time>2026-04-06T12:17:48Z</time></trkpt><trkpt lat="44.950468426584074" lon="9.029957776572552"><ele>142.0</ele><time>2026-04-06T12:17:49Z</time></trkpt><trkpt lat="44.95029387024027" lon="9.029741522355392"><ele>142.0</ele><time>2026-04-06T12:17:50Z</time></trkpt><trkpt lat="44.950120235042455" lon="9.02955159801131"><ele>142.0</ele><time>2026-04-06T12:17:51Z</time></trkpt><trkpt lat="44.94994613788569" lon="9.029387043418046"><ele>142.0</ele><time>2026-04-06T12:17:52Z</time></trkpt><trkpt lat="44.9497674019684" lon="9.029258420995827"><ele>142.0</ele><time>2026-04-06T12:17:53Z</time></trkpt><trkpt lat="44.94957948630119" lon="9.029162678561914"><ele>142.0</ele><time>2026-04-06T12:17:54Z</time></trkpt><trkpt lat="44.94936978659003" lon="9.0290743509907"><ele>142.0</ele><time>2026-04-06T12:17:55Z</time></trkpt><trkpt lat="44.94914478027505" lon="9.028986423057098"><ele>143.0</ele><time>2026-04-06T12:17:56Z</time></trkpt><trkpt lat="44.94891182149211" lon="9.028887196324082"><ele>144.0</ele><time>2026-04-06T12:17:57Z</time></trkpt><trkpt lat="44.94867210839734" lon="9.028787348209603"><ele>144.0</ele><time>2026-04-06T12:17:58Z</time></trkpt><trkpt lat="44.948422246327155" lon="9.028683060173629"><ele>144.0</ele><time>2026-04-06T12:17:59Z</time></trkpt><trkpt lat="44.94817135950645" lon="9.02857860813436"><ele>144.0</ele><time>2026-04-06T12:18:00Z</time></trkpt><trkpt lat="44.947921426353304" lon="9.028472069793125"><ele>144.0</ele><time>2026-04-06T12:18:01Z</time></trkpt><trkpt lat="44.947673992792794" lon="9.028363327136887"><ele>142.5</ele><time>2026-04-06T12:18:02Z</time></trkpt><trkpt lat="44.94742879988096" lon="9.028252399969242"><ele>141.0</ele><time>2026-04-06T12:18:03Z</time></trkpt><trkpt lat="44.94718305254653" lon="9.028146832268263"><ele>141.0</ele><time>2026-04-06T12:18:04Z</time></trkpt><trkpt lat="44.94693689374758" lon="9.028044715919235"><ele>141.0</ele><time>2026-04-06T12:18:05Z</time></trkpt><trkpt lat="44.946698400888636" lon="9.02791936535014"><ele>142.0</ele><time>2026-04-06T12:18:06Z</time></trkpt><trkpt lat="44.94645640414999" lon="9.027814597919221"><ele>143.0</ele><time>2026-04-06T12:18:07Z</time></trkpt><trkpt lat="44.94620428491693" lon="9.02772677860094"><ele>143.0</ele><time>2026-04-06T12:18:08Z</time></trkpt><trkpt lat="44.945954973366284" lon="9.027614716550115"><ele>143.0</ele><time>2026-04-06T12:18:09Z</time></trkpt><trkpt lat="44.94570397446106" lon="9.027501409722252"><ele>143.0</ele><time>2026-04-06T12:18:10Z</time></trkpt><trkpt lat="44.94545052211613" lon="9.027387439624388"><ele>143.0</ele><time>2026-04-06T12:18:11Z</time></trkpt><trkpt lat="44.94519582076024" lon="9.02727564173255"><ele>142.0</ele><time>2026-04-06T12:18:12Z</time></trkpt><trkpt lat="44.944938200323676" lon="9.027170803286293"><ele>141.0</ele><time>2026-04-06T12:18:13Z</time></trkpt><trkpt lat="44.944678115891335" lon="9.027078713056229"><ele>141.0</ele><time>2026-04-06T12:18:14Z</time></trkpt><trkpt lat="44.94441574861882" lon="9.027003155693846"><ele>141.0</ele><time>2026-04-06T12:18:15Z</time></trkpt><trkpt lat="44.94415416129081" lon="9.026936422125663"><ele>142.5</ele><time>2026-04-06T12:18:16Z</time></trkpt><trkpt lat="44.94388782550205" lon="9.02686912298008"><ele>144.0</ele><time>2026-04-06T12:18:17Z</time></trkpt><trkpt lat="44.94362373682181" lon="9.026808234434549"><ele>145.5</ele><time>2026-04-06T12:18:18Z</time></trkpt><trkpt lat="44.943358280175865" lon="9.026746878249428"><ele>147.0</ele><time>2026-04-06T12:18:19Z</time></trkpt><trkpt lat="44.94309250453968" lon="9.026681298084052"><ele>144.0</ele><time>2026-04-06T12:18:20Z</time></trkpt><trkpt lat="44.942828310002064" lon="9.026610470997582"><ele>141.0</ele><time>2026-04-06T12:18:21Z</time></trkpt><trkpt lat="44.94256169581592" lon="9.026539262837874"><ele>140.5</ele><time>2026-04-06T12:18:22Z</time></trkpt><trkpt lat="44.942307996822706" lon="9.026469633205064"><ele>140.0</ele><time>2026-04-06T12:18:23Z</time></trkpt><trkpt lat="44.94206283198662" lon="9.026408738793005"><ele>140.0</ele><time>2026-04-06T12:18:24Z</time></trkpt><trkpt lat="44.94183128922161" lon="9.026351384240824"><ele>140.0</ele><time>2026-04-06T12:18:25Z</time></trkpt><trkpt lat="44.94161305550908" lon="9.026292779759114"><ele>140.66666666666666</ele><time>2026-04-06T12:18:26Z</time></trkpt><trkpt lat="44.941397160438626" lon="9.026228123554295"><ele>141.33333333333334</ele><time>2026-04-06T12:18:27Z</time></trkpt><trkpt lat="44.941190485885585" lon="9.026095977313568"><ele>142.0</ele><time>2026-04-06T12:18:28Z</time></trkpt><trkpt lat="44.9409818100024" lon="9.025947750656345"><ele>141.0</ele><time>2026-04-06T12:18:29Z</time></trkpt><trkpt lat="44.940760330040185" lon="9.025792912857106"><ele>140.0</ele><time>2026-04-06T12:18:30Z</time></trkpt><trkpt lat="44.94052980062983" lon="9.025653446806142"><ele>140.0</ele><time>2026-04-06T12:18:31Z</time></trkpt><trkpt lat="44.9403213736321" lon="9.025482378918266"><ele>140.0</ele><time>2026-04-06T12:18:32Z</time></trkpt><trkpt lat="44.94009660850223" lon="9.025347562863796"><ele>141.0</ele><time>2026-04-06T12:18:33Z</time></trkpt><trkpt lat="44.93988533328861" lon="9.025185581146658"><ele>142.0</ele><time>2026-04-06T12:18:34Z</time></trkpt><trkpt lat="44.93968375002076" lon="9.025022812842318"><ele>140.5</ele><time>2026-04-06T12:18:35Z</time></trkpt><trkpt lat="44.93950586359967" lon="9.024820875386313"><ele>139.0</ele><time>2026-04-06T12:18:36Z</time></trkpt><trkpt lat="44.9393270246213" lon="9.024609980356498"><ele>140.5</ele><time>2026-04-06T12:18:37Z</time></trkpt><trkpt lat="44.93914605313763" lon="9.024392491997693"><ele>142.0</ele><time>2026-04-06T12:18:38Z</time></trkpt><trkpt lat="44.93895431054089" lon="9.024189365001721"><ele>141.0</ele><time>2026-04-06T12:18:39Z</time></trkpt><trkpt lat="44.938771535280694" lon="9.02397413229252"><ele>140.0</ele><time>2026-04-06T12:18:40Z</time></trkpt><trkpt lat="44.93860496182988" lon="9.023743656334027"><ele>140.0</ele><time>2026-04-06T12:18:41Z</time></trkpt><trkpt lat="44.938427162025306" lon="9.023530451664188"><ele>140.0</ele><time>2026-04-06T12:18:42Z</time></trkpt><trkpt lat="44.93824766291811" lon="9.02332077606558"><ele>140.0</ele><time>2026-04-06T12:18:43Z</time></trkpt><trkpt lat="44.93800527027219" lon="9.023216066126972"><ele>140.0</ele><time>2026-04-06T12:18:44Z</time></trkpt><trkpt lat="44.93779507282936" lon="9.023053509609499"><ele>140.0</ele><time>2026-04-06T12:18:45Z</time></trkpt><trkpt lat="44.93758911905159" lon="9.022893872821205"><ele>140.0</ele><time>2026-04-06T12:18:46Z</time></trkpt><trkpt lat="44.93738484301081" lon="9.022747702067885"><ele>141.5</ele><time>2026-04-06T12:18:47Z</time></trkpt><trkpt lat="44.93717485949798" lon="9.02262483655401"><ele>143.0</ele><time>2026-04-06T12:18:48Z</time></trkpt><trkpt lat="44.93695682559162" lon="9.022534519561034"><ele>141.0</ele><time>2026-04-06T12:18:49Z</time></trkpt><trkpt lat="44.93672878745149" lon="9.022475887299766"><ele>139.0</ele><time>2026-04-06T12:18:50Z</time></trkpt><trkpt lat="44.936487524561976" lon="9.022428623143158"><ele>139.0</ele><time>2026-04-06T12:18:51Z</time></trkpt><trkpt lat="44.93624060094088" lon="9.022379858414414"><ele>139.0</ele><time>2026-04-06T12:18:52.001Z</time></trkpt><trkpt lat="44.935992857819215" lon="9.0223263617924"><ele>142.0</ele><time>2026-04-06T12:18:53.001Z</time></trkpt><trkpt lat="44.93574689213149" lon="9.022273774515334"><ele>145.0</ele><time>2026-04-06T12:18:54.001Z</time></trkpt><trkpt lat="44.935508570040035" lon="9.022222043008863"><ele>145.0</ele><time>2026-04-06T12:18:55.001Z</time></trkpt><trkpt lat="44.935280805521295" lon="9.022175294742652"><ele>145.0</ele><time>2026-04-06T12:18:56.001Z</time></trkpt><trkpt lat="44.9350538992895" lon="9.022128727592095"><ele>146.0</ele><time>2026-04-06T12:18:57.001Z</time></trkpt><trkpt lat="44.934829786588914" lon="9.022082257761605"><ele>147.0</ele><time>2026-04-06T12:18:57.999Z</time></trkpt><trkpt lat="44.93460761698796" lon="9.022034788057365"><ele>147.0</ele><time>2026-04-06T12:18:58.999Z</time></trkpt><trkpt lat="44.93438573628304" lon="9.021986100686034"><ele>147.0</ele><time>2026-04-06T12:18:59.999Z</time></trkpt><trkpt lat="44.93416495589359" lon="9.021929205401628"><ele>147.0</ele><time>2026-04-06T12:19:00.999Z</time></trkpt><trkpt lat="44.9339480237859" lon="9.021858084256882"><ele>146.66666666666666</ele><time>2026-04-06T12:19:01.999Z</time></trkpt><trkpt lat="44.93373287643148" lon="9.021770620766917"><ele>146.33333333333331</ele><time>2026-04-06T12:19:02.999Z</time></trkpt><trkpt lat="44.93351996020456" lon="9.021679804765329"><ele>146.0</ele><time>2026-04-06T12:19:03.999Z</time></trkpt><trkpt lat="44.93330155117555" lon="9.021593999616847"><ele>146.0</ele><time>2026-04-06T12:19:04.999Z</time></trkpt><trkpt lat="44.933086230038526" lon="9.021512158987198"><ele>146.0</ele><time>2026-04-06T12:19:05.999Z</time></trkpt><trkpt lat="44.932869980382456" lon="9.021429418648912"><ele>146.0</ele><time>2026-04-06T12:19:06.999Z</time></trkpt><trkpt lat="44.93265538048523" lon="9.021346309700489"><ele>147.0</ele><time>2026-04-06T12:19:07.999Z</time></trkpt><trkpt lat="44.932442454701295" lon="9.021265100088476"><ele>148.0</ele><time>2026-04-06T12:19:08.999Z</time></trkpt><trkpt lat="44.93223368627635" lon="9.021179958700232"><ele>149.0</ele><time>2026-04-06T12:19:09.999Z</time></trkpt><trkpt lat="44.93202202946656" lon="9.021092181189974"><ele>149.0</ele><time>2026-04-06T12:19:10.999Z</time></trkpt><trkpt lat="44.9318054658454" lon="9.021003715586941"><ele>149.0</ele><time>2026-04-06T12:19:11.999Z</time></trkpt><trkpt lat="44.93160507933198" lon="9.020929127424548"><ele>149.0</ele><time>2026-04-06T12:19:12.999Z</time></trkpt><trkpt lat="44.931412897034264" lon="9.020863073503962"><ele>148.33333333333331</ele><time>2026-04-06T12:19:14Z</time></trkpt><trkpt lat="44.9312306684668" lon="9.020794783862584"><ele>147.66666666666666</ele><time>2026-04-06T12:19:15Z</time></trkpt><trkpt lat="44.931055370525115" lon="9.020728363909212"><ele>147.0</ele><time>2026-04-06T12:19:16Z</time></trkpt><trkpt lat="44.930892051793855" lon="9.020662970050894"><ele>148.0</ele><time>2026-04-06T12:19:17Z</time></trkpt><trkpt lat="44.93074022853872" lon="9.020599717362312"><ele>149.0</ele><time>2026-04-06T12:19:18Z</time></trkpt><trkpt lat="44.93059359132616" lon="9.020531570292158"><ele>150.0</ele><time>2026-04-06T12:19:19Z</time></trkpt><trkpt lat="44.930463636139365" lon="9.020460729542545"><ele>150.0</ele><time>2026-04-06T12:19:20Z</time></trkpt><trkpt lat="44.9303471605827" lon="9.020385656979586"><ele>150.0</ele><time>2026-04-06T12:19:21Z</time></trkpt><trkpt lat="44.930248108240235" lon="9.020313120585545"><ele>150.0</ele><time>2026-04-06T12:19:22Z</time></trkpt><trkpt lat="44.9301583070726" lon="9.020262121763668"><ele>150.0</ele><time>2026-04-06T12:19:23Z</time></trkpt><trkpt lat="44.93009916705198" lon="9.020159418830165"><ele>150.0</ele><time>2026-04-06T12:19:26Z</time></trkpt><trkpt lat="44.9300156800006" lon="9.020026985535019"><ele>150.33333333333334</ele><time>2026-04-06T12:19:28Z</time></trkpt><trkpt lat="44.92995459982312" lon="9.020004935973443"><ele>150.66666666666666</ele><time>2026-04-06T12:19:29Z</time></trkpt><trkpt lat="44.929894617770685" lon="9.020044783833791"><ele>151.0</ele><time>2026-04-06T12:19:30Z</time></trkpt><trkpt lat="44.92984500929498" lon="9.020135353244415"><ele>151.33333333333331</ele><time>2026-04-06T12:19:31Z</time></trkpt><trkpt lat="44.92979311736113" lon="9.020263197693312"><ele>151.66666666666666</ele><time>2026-04-06T12:19:32Z</time></trkpt><trkpt lat="44.92970087131374" lon="9.020381673637365"><ele>152.0</ele><time>2026-04-06T12:19:33Z</time></trkpt><trkpt lat="44.92958400696349" lon="9.020526776484854"><ele>152.0</ele><time>2026-04-06T12:19:34Z</time></trkpt><trkpt lat="44.92946129535177" lon="9.020677464327397"><ele>152.0</ele><time>2026-04-06T12:19:35Z</time></trkpt><trkpt lat="44.9293356832443" lon="9.020842086118432"><ele>152.0</ele><time>2026-04-06T12:19:36Z</time></trkpt><trkpt lat="44.9291983333858" lon="9.021018795399861"><ele>152.66666666666666</ele><time>2026-04-06T12:19:37Z</time></trkpt><trkpt lat="44.92905031763734" lon="9.021202264762206"><ele>153.33333333333334</ele><time>2026-04-06T12:19:38Z</time></trkpt><trkpt lat="44.92890480632352" lon="9.021387284514773"><ele>154.0</ele><time>2026-04-06T12:19:39Z</time></trkpt><trkpt lat="44.92875897475477" lon="9.021571585144237"><ele>154.33333333333334</ele><time>2026-04-06T12:19:40Z</time></trkpt><trkpt lat="44.928614887666185" lon="9.021753823662763"><ele>154.66666666666666</ele><time>2026-04-06T12:19:41Z</time></trkpt><trkpt lat="44.928473583895" lon="9.02192918129499"><ele>155.0</ele><time>2026-04-06T12:19:42Z</time></trkpt><trkpt lat="44.92834209392815" lon="9.022093691137439"><ele>155.0</ele><time>2026-04-06T12:19:43Z</time></trkpt><trkpt lat="44.92821211319261" lon="9.02225749557454"><ele>155.0</ele><time>2026-04-06T12:19:44Z</time></trkpt><trkpt lat="44.92808150412515" lon="9.022407713793383"><ele>155.0</ele><time>2026-04-06T12:19:45Z</time></trkpt><trkpt lat="44.92795817991864" lon="9.022561785666312"><ele>155.0</ele><time>2026-04-06T12:19:46Z</time></trkpt><trkpt lat="44.927832135269604" lon="9.022725242208804"><ele>155.0</ele><time>2026-04-06T12:19:47Z</time></trkpt><trkpt lat="44.927706436479276" lon="9.022888084040444"><ele>155.0</ele><time>2026-04-06T12:19:48Z</time></trkpt><trkpt lat="44.92757253390222" lon="9.02305064053008"><ele>155.0</ele><time>2026-04-06T12:19:49Z</time></trkpt><trkpt lat="44.92743578066831" lon="9.023210975592054"><ele>155.0</ele><time>2026-04-06T12:19:50Z</time></trkpt><trkpt lat="44.92730179774265" lon="9.023371541111102"><ele>155.0</ele><time>2026-04-06T12:19:51Z</time></trkpt><trkpt lat="44.927167384708454" lon="9.023539236328302"><ele>155.33333333333331</ele><time>2026-04-06T12:19:52Z</time></trkpt><trkpt lat="44.92702875675031" lon="9.023713010380492"><ele>155.66666666666666</ele><time>2026-04-06T12:19:53Z</time></trkpt><trkpt lat="44.92690194032023" lon="9.023871041702067"><ele>156.0</ele><time>2026-04-06T12:19:54Z</time></trkpt><trkpt lat="44.92678419672782" lon="9.024019082969819"><ele>156.33333333333334</ele><time>2026-04-06T12:19:55Z</time></trkpt><trkpt lat="44.926662948690634" lon="9.02416770985595"><ele>156.66666666666669</ele><time>2026-04-06T12:19:56Z</time></trkpt><trkpt lat="44.92653528923667" lon="9.02431538169188"><ele>157.0</ele><time>2026-04-06T12:19:57Z</time></trkpt><trkpt lat="44.92641282069617" lon="9.024463779266634"><ele>157.0</ele><time>2026-04-06T12:19:58Z</time></trkpt><trkpt lat="44.9262940291009" lon="9.024617714763506"><ele>157.0</ele><time>2026-04-06T12:19:59Z</time></trkpt><trkpt lat="44.92618296288748" lon="9.0247599082827"><ele>157.0</ele><time>2026-04-06T12:20:00Z</time></trkpt><trkpt lat="44.92607172445452" lon="9.024895874777597"><ele>157.0</ele><time>2026-04-06T12:20:01Z</time></trkpt><trkpt lat="44.92595895550701" lon="9.025032906435046"><ele>157.0</ele><time>2026-04-06T12:20:02Z</time></trkpt><trkpt lat="44.92584070632271" lon="9.025179662594974"><ele>157.0</ele><time>2026-04-06T12:20:03Z</time></trkpt><trkpt lat="44.92570262912011" lon="9.025328361170398"><ele>157.0</ele><time>2026-04-06T12:20:04Z</time></trkpt><trkpt lat="44.925561658159744" lon="9.02550225966255"><ele>157.0</ele><time>2026-04-06T12:20:05Z</time></trkpt><trkpt lat="44.92541010170811" lon="9.0256892161896"><ele>157.0</ele><time>2026-04-06T12:20:06Z</time></trkpt><trkpt lat="44.92526595184755" lon="9.025908888515076"><ele>157.0</ele><time>2026-04-06T12:20:07Z</time></trkpt><trkpt lat="44.92510101951026" lon="9.026107874439735"><ele>157.0</ele><time>2026-04-06T12:20:08Z</time></trkpt><trkpt lat="44.92493818149148" lon="9.026297394682462"><ele>157.0</ele><time>2026-04-06T12:20:09Z</time></trkpt><trkpt lat="44.92479028317957" lon="9.02646414795954"><ele>157.0</ele><time>2026-04-06T12:20:10Z</time></trkpt><trkpt lat="44.92465564157152" lon="9.02661953979773"><ele>157.0</ele><time>2026-04-06T12:20:11Z</time></trkpt><trkpt lat="44.92453219839819" lon="9.02677265792823"><ele>157.0</ele><time>2026-04-06T12:20:12Z</time></trkpt><trkpt lat="44.924420483261805" lon="9.02691472861614"><ele>157.25</ele><time>2026-04-06T12:20:13Z</time></trkpt><trkpt lat="44.92431618387224" lon="9.027049000226668"><ele>157.5</ele><time>2026-04-06T12:20:14Z</time></trkpt><trkpt lat="44.92420680588357" lon="9.027185823964059"><ele>157.75</ele><time>2026-04-06T12:20:15Z</time></trkpt><trkpt lat="44.92409587785763" lon="9.02732084487313"><ele>158.0</ele><time>2026-04-06T12:20:16Z</time></trkpt><trkpt lat="44.92398306079357" lon="9.027458407590775"><ele>158.33333333333331</ele><time>2026-04-06T12:20:17Z</time></trkpt><trkpt lat="44.92386777537516" lon="9.027596612828795"><ele>158.66666666666666</ele><time>2026-04-06T12:20:18Z</time></trkpt><trkpt lat="44.92374881041156" lon="9.027743471516056"><ele>159.0</ele><time>2026-04-06T12:20:19Z</time></trkpt><trkpt lat="44.92361447463565" lon="9.027911746716866"><ele>159.0</ele><time>2026-04-06T12:20:20Z</time></trkpt><trkpt lat="44.92346008470237" lon="9.028108217853113"><ele>159.0</ele><time>2026-04-06T12:20:21Z</time></trkpt><trkpt lat="44.92329475877164" lon="9.028309757315318"><ele>159.0</ele><time>2026-04-06T12:20:22Z</time></trkpt><trkpt lat="44.92310628667796" lon="9.028529021891757"><ele>160.5</ele><time>2026-04-06T12:20:23Z</time></trkpt><trkpt lat="44.922896492395694" lon="9.028787237383995"><ele>162.0</ele><time>2026-04-06T12:20:24Z</time></trkpt><trkpt lat="44.92268603591448" lon="9.029047377869023"><ele>162.5</ele><time>2026-04-06T12:20:25Z</time></trkpt><trkpt lat="44.922484738494255" lon="9.029296196865566"><ele>163.0</ele><time>2026-04-06T12:20:26Z</time></trkpt><trkpt lat="44.92227561522054" lon="9.029554478862408"><ele>163.0</ele><time>2026-04-06T12:20:27Z</time></trkpt><trkpt lat="44.92207914815142" lon="9.029796724674792"><ele>163.0</ele><time>2026-04-06T12:20:28Z</time></trkpt><trkpt lat="44.92191876309018" lon="9.03001442384602"><ele>163.0</ele><time>2026-04-06T12:20:29Z</time></trkpt><trkpt lat="44.921764502870374" lon="9.030175726993404"><ele>163.0</ele><time>2026-04-06T12:20:30Z</time></trkpt><trkpt lat="44.921619567656585" lon="9.03035991687966"><ele>163.0</ele><time>2026-04-06T12:20:31Z</time></trkpt><trkpt lat="44.92149184850446" lon="9.030507084213212"><ele>163.0</ele><time>2026-04-06T12:20:32Z</time></trkpt><trkpt lat="44.921371835329786" lon="9.03063116026156"><ele>163.0</ele><time>2026-04-06T12:20:33Z</time></trkpt><trkpt lat="44.921260050451366" lon="9.030742148984377"><ele>163.0</ele><time>2026-04-06T12:20:34Z</time></trkpt><trkpt lat="44.92116630303864" lon="9.030837074103378"><ele>163.0</ele><time>2026-04-06T12:20:35Z</time></trkpt><trkpt lat="44.92108741747707" lon="9.030919156071766"><ele>163.5</ele><time>2026-04-06T12:20:36Z</time></trkpt><trkpt lat="44.92102219257905" lon="9.030983512516464"><ele>164.0</ele><time>2026-04-06T12:20:37Z</time></trkpt><trkpt lat="44.920967745072765" lon="9.031036425439737"><ele>164.5</ele><time>2026-04-06T12:20:38Z</time></trkpt><trkpt lat="44.92088699944106" lon="9.031113281451889"><ele>165.0</ele><time>2026-04-06T12:20:40Z</time></trkpt><trkpt lat="44.92080634821427" lon="9.031168449604188"><ele>165.5</ele><time>2026-04-06T12:20:42Z</time></trkpt><trkpt lat="44.920707996961816" lon="9.031181504788814"><ele>166.0</ele><time>2026-04-06T12:20:44Z</time></trkpt><trkpt lat="44.920589409519074" lon="9.031154309350041"><ele>166.16666666666669</ele><time>2026-04-06T12:20:46.001Z</time></trkpt><trkpt lat="44.92052820095989" lon="9.031233288590045"><ele>166.33333333333334</ele><time>2026-04-06T12:20:47.001Z</time></trkpt><trkpt lat="44.92048897312449" lon="9.031326279852172"><ele>166.5</ele><time>2026-04-06T12:20:48.001Z</time></trkpt><trkpt lat="44.9204830488858" lon="9.03145155361051"><ele>166.66666666666666</ele><time>2026-04-06T12:20:49.001Z</time></trkpt><trkpt lat="44.92049078251214" lon="9.031570354704682"><ele>166.83333333333331</ele><time>2026-04-06T12:20:50.001Z</time></trkpt><trkpt lat="44.92047195859028" lon="9.031671658837084"><ele>167.0</ele><time>2026-04-06T12:20:51.001Z</time></trkpt><trkpt lat="44.92042743178114" lon="9.031754499639664"><ele>167.39999999999998</ele><time>2026-04-06T12:20:52.001Z</time></trkpt><trkpt lat="44.92037171555925" lon="9.031838011793559"><ele>167.79999999999998</ele><time>2026-04-06T12:20:53.001Z</time></trkpt><trkpt lat="44.92031584696436" lon="9.031923988564186"><ele>168.2</ele><time>2026-04-06T12:20:54.001Z</time></trkpt><trkpt lat="44.92024876535137" lon="9.032034500538046"><ele>168.6</ele><time>2026-04-06T12:20:55.001Z</time></trkpt><trkpt lat="44.92017128634895" lon="9.03217088104818"><ele>169.0</ele><time>2026-04-06T12:20:56.001Z</time></trkpt><trkpt lat="44.92008597199344" lon="9.032331955423556"><ele>169.25</ele><time>2026-04-06T12:20:57.001Z</time></trkpt><trkpt lat="44.92000638047195" lon="9.03248880391434"><ele>169.5</ele><time>2026-04-06T12:20:58.001Z</time></trkpt><trkpt lat="44.91992772161629" lon="9.032658605985313"><ele>169.75</ele><time>2026-04-06T12:20:59.001Z</time></trkpt><trkpt lat="44.919846254987" lon="9.032840693047342"><ele>170.0</ele><time>2026-04-06T12:21:00.001Z</time></trkpt><trkpt lat="44.91976214037797" lon="9.033029216573086"><ele>170.0</ele><time>2026-04-06T12:21:01.001Z</time></trkpt><trkpt lat="44.91967506779986" lon="9.033225273898204"><ele>170.0</ele><time>2026-04-06T12:21:02.001Z</time></trkpt><trkpt lat="44.91958758545171" lon="9.03341937997387"><ele>170.0</ele><time>2026-04-06T12:21:03.001Z</time></trkpt><trkpt lat="44.919493127248046" lon="9.033619263194197"><ele>171.0</ele><time>2026-04-06T12:21:03.999Z</time></trkpt><trkpt lat="44.91940047372187" lon="9.033830813045707"><ele>172.0</ele><time>2026-04-06T12:21:04.999Z</time></trkpt><trkpt lat="44.91930423739735" lon="9.034046386622968"><ele>173.0</ele><time>2026-04-06T12:21:05.999Z</time></trkpt><trkpt lat="44.919206566059934" lon="9.034273227292987"><ele>173.0</ele><time>2026-04-06T12:21:06.999Z</time></trkpt><trkpt lat="44.9191053807781" lon="9.034499453890387"><ele>173.0</ele><time>2026-04-06T12:21:07.999Z</time></trkpt><trkpt lat="44.919006770833214" lon="9.03472878771892"><ele>173.0</ele><time>2026-04-06T12:21:08.999Z</time></trkpt><trkpt lat="44.91890948558205" lon="9.034952578915455"><ele>175.0</ele><time>2026-04-06T12:21:09.999Z</time></trkpt><trkpt lat="44.91881486908338" lon="9.035161709395188"><ele>177.0</ele><time>2026-04-06T12:21:10.999Z</time></trkpt><trkpt lat="44.91872080360468" lon="9.035373981164408"><ele>179.0</ele><time>2026-04-06T12:21:11.999Z</time></trkpt><trkpt lat="44.918624191305845" lon="9.035588452073066"><ele>179.0</ele><time>2026-04-06T12:21:12.999Z</time></trkpt><trkpt lat="44.91852857891688" lon="9.035805427449754"><ele>179.0</ele><time>2026-04-06T12:21:13.999Z</time></trkpt><trkpt lat="44.91842544244024" lon="9.03602802948856"><ele>179.0</ele><time>2026-04-06T12:21:14.999Z</time></trkpt><trkpt lat="44.91832022940469" lon="9.036257152063799"><ele>179.0</ele><time>2026-04-06T12:21:15.999Z</time></trkpt><trkpt lat="44.918220985819175" lon="9.036487666639943"><ele>179.0</ele><time>2026-04-06T12:21:16.999Z</time></trkpt><trkpt lat="44.91811472386929" lon="9.036716683487834"><ele>179.0</ele><time>2026-04-06T12:21:18Z</time></trkpt><trkpt lat="44.91800905297145" lon="9.036948130159944"><ele>180.33333333333331</ele><time>2026-04-06T12:21:19Z</time></trkpt><trkpt lat="44.91790970891149" lon="9.037172212387407"><ele>181.66666666666666</ele><time>2026-04-06T12:21:20Z</time></trkpt><trkpt lat="44.91781458756326" lon="9.037391688811324"><ele>183.0</ele><time>2026-04-06T12:21:21Z</time></trkpt><trkpt lat="44.91771545031753" lon="9.037607335824218"><ele>183.0</ele><time>2026-04-06T12:21:22Z</time></trkpt><trkpt lat="44.917607558840224" lon="9.03782513640683"><ele>183.0</ele><time>2026-04-06T12:21:23Z</time></trkpt><trkpt lat="44.91748711113668" lon="9.038039614332131"><ele>183.0</ele><time>2026-04-06T12:21:24Z</time></trkpt><trkpt lat="44.91733917560909" lon="9.038244341768998"><ele>184.0</ele><time>2026-04-06T12:21:25Z</time></trkpt><trkpt lat="44.917150239078055" lon="9.038437653989261"><ele>185.0</ele><time>2026-04-06T12:21:26Z</time></trkpt><trkpt lat="44.91694464124431" lon="9.03864486184183"><ele>183.0</ele><time>2026-04-06T12:21:27Z</time></trkpt><trkpt lat="44.91671891201344" lon="9.03885768844086"><ele>181.0</ele><time>2026-04-06T12:21:28Z</time></trkpt><trkpt lat="44.916489914665355" lon="9.039073131421839"><ele>182.5</ele><time>2026-04-06T12:21:29Z</time></trkpt><trkpt lat="44.91626679910294" lon="9.03928706168112"><ele>184.0</ele><time>2026-04-06T12:21:30Z</time></trkpt><trkpt lat="44.916050581202406" lon="9.039500803963099"><ele>182.5</ele><time>2026-04-06T12:21:31Z</time></trkpt><trkpt lat="44.91584368696621" lon="9.039710182037021"><ele>181.0</ele><time>2026-04-06T12:21:32Z</time></trkpt><trkpt lat="44.91563987444493" lon="9.03991419459178"><ele>181.5</ele><time>2026-04-06T12:21:33Z</time></trkpt><trkpt lat="44.91543545098392" lon="9.040116827501109"><ele>182.0</ele><time>2026-04-06T12:21:34Z</time></trkpt><trkpt lat="44.915229421761914" lon="9.040318585993905"><ele>181.0</ele><time>2026-04-06T12:21:35Z</time></trkpt><trkpt lat="44.91502487429524" lon="9.04052208071886"><ele>180.0</ele><time>2026-04-06T12:21:36Z</time></trkpt><trkpt lat="44.914819963911754" lon="9.040723852017203"><ele>181.0</ele><time>2026-04-06T12:21:37Z</time></trkpt><trkpt lat="44.91461566378926" lon="9.040917583045161"><ele>182.0</ele><time>2026-04-06T12:21:38Z</time></trkpt><trkpt lat="44.91441175558135" lon="9.041112581060258"><ele>183.5</ele><time>2026-04-06T12:21:39Z</time></trkpt><trkpt lat="44.914205039182626" lon="9.041310774794644"><ele>185.0</ele><time>2026-04-06T12:21:40Z</time></trkpt><trkpt lat="44.91399534834482" lon="9.041519132413368"><ele>186.0</ele><time>2026-04-06T12:21:41Z</time></trkpt><trkpt lat="44.91377924936649" lon="9.041727561202059"><ele>187.0</ele><time>2026-04-06T12:21:42Z</time></trkpt><trkpt lat="44.91356181054552" lon="9.041940293567233"><ele>185.0</ele><time>2026-04-06T12:21:43Z</time></trkpt><trkpt lat="44.91334236093151" lon="9.04215349226603"><ele>183.0</ele><time>2026-04-06T12:21:44Z</time></trkpt><trkpt lat="44.91312316703547" lon="9.042370250407863"><ele>184.5</ele><time>2026-04-06T12:21:45Z</time></trkpt><trkpt lat="44.91290637368772" lon="9.042589094295723"><ele>186.0</ele><time>2026-04-06T12:21:46Z</time></trkpt><trkpt lat="44.91268737510637" lon="9.042807114395393"><ele>186.0</ele><time>2026-04-06T12:21:47Z</time></trkpt><trkpt lat="44.912467719551664" lon="9.043024598671794"><ele>186.0</ele><time>2026-04-06T12:21:48Z</time></trkpt><trkpt lat="44.912244910136536" lon="9.043238272111637"><ele>187.5</ele><time>2026-04-06T12:21:49Z</time></trkpt><trkpt lat="44.9120218888053" lon="9.043452607708508"><ele>189.0</ele><time>2026-04-06T12:21:50Z</time></trkpt><trkpt lat="44.9117996734538" lon="9.043668738003124"><ele>188.5</ele><time>2026-04-06T12:21:51Z</time></trkpt><trkpt lat="44.91157879194478" lon="9.043887903246098"><ele>188.0</ele><time>2026-04-06T12:21:52Z</time></trkpt><trkpt lat="44.91135781737789" lon="9.044105042608646"><ele>190.0</ele><time>2026-04-06T12:21:53Z</time></trkpt><trkpt lat="44.91113467005306" lon="9.044317729652034"><ele>192.0</ele><time>2026-04-06T12:21:54Z</time></trkpt><trkpt lat="44.91091164868046" lon="9.044533185275164"><ele>192.0</ele><time>2026-04-06T12:21:55Z</time></trkpt><trkpt lat="44.910689651211975" lon="9.044751651606372"><ele>192.0</ele><time>2026-04-06T12:21:56Z</time></trkpt><trkpt lat="44.91046842683651" lon="9.044970877199882"><ele>193.5</ele><time>2026-04-06T12:21:57Z</time></trkpt><trkpt lat="44.910245086938694" lon="9.04519380791192"><ele>195.0</ele><time>2026-04-06T12:21:58Z</time></trkpt><trkpt lat="44.91002417372018" lon="9.04541498923586"><ele>192.5</ele><time>2026-04-06T12:21:59Z</time></trkpt><trkpt lat="44.90980194694689" lon="9.045634366114959"><ele>190.0</ele><time>2026-04-06T12:22:00Z</time></trkpt><trkpt lat="44.90958490333181" lon="9.045849637680897"><ele>190.0</ele><time>2026-04-06T12:22:01Z</time></trkpt><trkpt lat="44.90937147417785" lon="9.046052864107786"><ele>190.0</ele><time>2026-04-06T12:22:02Z</time></trkpt><trkpt lat="44.909164385106244" lon="9.046255609102618"><ele>190.0</ele><time>2026-04-06T12:22:03Z</time></trkpt><trkpt lat="44.90896106611857" lon="9.046460250438708"><ele>190.0</ele><time>2026-04-06T12:22:04Z</time></trkpt><trkpt lat="44.908756122522135" lon="9.046657000363798"><ele>190.0</ele><time>2026-04-06T12:22:05Z</time></trkpt><trkpt lat="44.90855635894045" lon="9.046850768582674"><ele>190.0</ele><time>2026-04-06T12:22:06Z</time></trkpt><trkpt lat="44.908364060191005" lon="9.047036571223929"><ele>190.0</ele><time>2026-04-06T12:22:07Z</time></trkpt><trkpt lat="44.908177357274" lon="9.047220476139609"><ele>190.0</ele><time>2026-04-06T12:22:08Z</time></trkpt><trkpt lat="44.907998131484064" lon="9.047398079789724"><ele>190.0</ele><time>2026-04-06T12:22:09Z</time></trkpt><trkpt lat="44.907823327692945" lon="9.047568744803135"><ele>189.66666666666669</ele><time>2026-04-06T12:22:10Z</time></trkpt><trkpt lat="44.907652894625386" lon="9.047730790134498"><ele>189.33333333333334</ele><time>2026-04-06T12:22:11Z</time></trkpt><trkpt lat="44.90749320711664" lon="9.047885819332127"><ele>189.0</ele><time>2026-04-06T12:22:12Z</time></trkpt><trkpt lat="44.907341213325594" lon="9.04804082872128"><ele>189.0</ele><time>2026-04-06T12:22:13Z</time></trkpt><trkpt lat="44.907186729486234" lon="9.048193943598678"><ele>189.0</ele><time>2026-04-06T12:22:14Z</time></trkpt><trkpt lat="44.90703122041298" lon="9.048337583032973"><ele>189.0</ele><time>2026-04-06T12:22:15Z</time></trkpt><trkpt lat="44.90688204147901" lon="9.048484990821311"><ele>188.0</ele><time>2026-04-06T12:22:16Z</time></trkpt><trkpt lat="44.906731983422006" lon="9.048638878918615"><ele>187.0</ele><time>2026-04-06T12:22:17Z</time></trkpt><trkpt lat="44.90657485452221" lon="9.048790270235331"><ele>186.0</ele><time>2026-04-06T12:22:18Z</time></trkpt><trkpt lat="44.90643339592284" lon="9.04892973098167"><ele>186.0</ele><time>2026-04-06T12:22:19Z</time></trkpt><trkpt lat="44.90629784762964" lon="9.049059279941101"><ele>186.0</ele><time>2026-04-06T12:22:20Z</time></trkpt><trkpt lat="44.90616977001173" lon="9.04918357933373"><ele>186.0</ele><time>2026-04-06T12:22:21Z</time></trkpt><trkpt lat="44.906022630685435" lon="9.049315175469943"><ele>186.0</ele><time>2026-04-06T12:22:22Z</time></trkpt><trkpt lat="44.905849612955635" lon="9.04946035167628"><ele>186.0</ele><time>2026-04-06T12:22:23Z</time></trkpt><trkpt lat="44.905661655883215" lon="9.049600064998502"><ele>186.0</ele><time>2026-04-06T12:22:24Z</time></trkpt><trkpt lat="44.90545398725329" lon="9.04972309838565"><ele>186.0</ele><time>2026-04-06T12:22:25Z</time></trkpt><trkpt lat="44.90523321926914" lon="9.049848726415098"><ele>186.0</ele><time>2026-04-06T12:22:26Z</time></trkpt><trkpt lat="44.90500707264464" lon="9.049981886334546"><ele>188.0</ele><time>2026-04-06T12:22:27Z</time></trkpt><trkpt lat="44.90478891346845" lon="9.050115658996797"><ele>190.0</ele><time>2026-04-06T12:22:28Z</time></trkpt><trkpt lat="44.90455289682822" lon="9.050262931925042"><ele>190.0</ele><time>2026-04-06T12:22:29Z</time></trkpt><trkpt lat="44.90441238427234" lon="9.050354223423502"><ele>190.0</ele><time>2026-04-06T12:22:30Z</time></trkpt><trkpt lat="44.904209212280854" lon="9.050479359917544"><ele>190.0</ele><time>2026-04-06T12:22:31Z</time></trkpt><trkpt lat="44.904000025363395" lon="9.050602496064625"><ele>188.5</ele><time>2026-04-06T12:22:32Z</time></trkpt><trkpt lat="44.90378688611843" lon="9.050728952863674"><ele>187.0</ele><time>2026-04-06T12:22:33.001Z</time></trkpt><trkpt lat="44.90357423268393" lon="9.050861962564605"><ele>188.0</ele><time>2026-04-06T12:22:34.001Z</time></trkpt><trkpt lat="44.90335691418081" lon="9.05098921978178"><ele>189.0</ele><time>2026-04-06T12:22:35.001Z</time></trkpt><trkpt lat="44.90314223532413" lon="9.051113520004611"><ele>189.0</ele><time>2026-04-06T12:22:36.001Z</time></trkpt><trkpt lat="44.902939823567195" lon="9.051233260283045"><ele>189.0</ele><time>2026-04-06T12:22:37.001Z</time></trkpt><trkpt lat="44.90274404992374" lon="9.05134545375923"><ele>189.0</ele><time>2026-04-06T12:22:38.001Z</time></trkpt><trkpt lat="44.90255644049013" lon="9.05145720539613"><ele>189.66666666666666</ele><time>2026-04-06T12:22:39.001Z</time></trkpt><trkpt lat="44.90237186503912" lon="9.05156263218033"><ele>190.33333333333331</ele><time>2026-04-06T12:22:40.001Z</time></trkpt><trkpt lat="44.902193792108946" lon="9.051670715803429"><ele>191.0</ele><time>2026-04-06T12:22:41.001Z</time></trkpt><trkpt lat="44.90201137374087" lon="9.05178361100509"><ele>191.0</ele><time>2026-04-06T12:22:42.001Z</time></trkpt><trkpt lat="44.90182908155817" lon="9.05189350804904"><ele>191.0</ele><time>2026-04-06T12:22:43.001Z</time></trkpt><trkpt lat="44.90164812357264" lon="9.051998205653497"><ele>191.0</ele><time>2026-04-06T12:22:44.001Z</time></trkpt><trkpt lat="44.90148013212065" lon="9.052100374738874"><ele>190.0</ele><time>2026-04-06T12:22:45.001Z</time></trkpt><trkpt lat="44.90132401730523" lon="9.052196058911871"><ele>189.0</ele><time>2026-04-06T12:22:46.001Z</time></trkpt><trkpt lat="44.90117892049873" lon="9.052285980980196"><ele>188.0</ele><time>2026-04-06T12:22:47.001Z</time></trkpt><trkpt lat="44.90104114728548" lon="9.052373496257179"><ele>187.75</ele><time>2026-04-06T12:22:48.001Z</time></trkpt><trkpt lat="44.90091041522966" lon="9.052459085177363"><ele>187.5</ele><time>2026-04-06T12:22:49.001Z</time></trkpt><trkpt lat="44.90077421623379" lon="9.052547098726118"><ele>187.25</ele><time>2026-04-06T12:22:50.001Z</time></trkpt><trkpt lat="44.90064519992177" lon="9.05262365886934"><ele>187.0</ele><time>2026-04-06T12:22:51.001Z</time></trkpt><trkpt lat="44.90052581106306" lon="9.052691819456191"><ele>187.0</ele><time>2026-04-06T12:22:52.001Z</time></trkpt><trkpt lat="44.9003991363054" lon="9.052762382495695"><ele>187.0</ele><time>2026-04-06T12:22:53.001Z</time></trkpt><trkpt lat="44.90027921518891" lon="9.052834144164953"><ele>187.0</ele><time>2026-04-06T12:22:54.001Z</time></trkpt><trkpt lat="44.90016741610286" lon="9.052899025083711"><ele>187.0</ele><time>2026-04-06T12:22:55.001Z</time></trkpt><trkpt lat="44.90006081372866" lon="9.052954691355922"><ele>187.0</ele><time>2026-04-06T12:22:56.001Z</time></trkpt><trkpt lat="44.89996101332273" lon="9.052996252418902"><ele>187.0</ele><time>2026-04-06T12:22:57.001Z</time></trkpt><trkpt lat="44.89987078031187" lon="9.053023920854189"><ele>187.0</ele><time>2026-04-06T12:22:58.001Z</time></trkpt><trkpt lat="44.89978404325971" lon="9.053023070747422"><ele>187.0</ele><time>2026-04-06T12:22:59.001Z</time></trkpt><trkpt lat="44.89970330300783" lon="9.053033558072515"><ele>187.0</ele><time>2026-04-06T12:23:00.001Z</time></trkpt><trkpt lat="44.899609844541196" lon="9.05302183091937"><ele>187.0</ele><time>2026-04-06T12:23:01.001Z</time></trkpt><trkpt lat="44.89951778811949" lon="9.053015591130913"><ele>187.0</ele><time>2026-04-06T12:23:02.001Z</time></trkpt><trkpt lat="44.89943993349678" lon="9.052999375279889"><ele>187.0</ele><time>2026-04-06T12:23:03.001Z</time></trkpt><trkpt lat="44.89936336288531" lon="9.05298415823583"><ele>187.0</ele><time>2026-04-06T12:23:04.001Z</time></trkpt><trkpt lat="44.899305488437655" lon="9.053129480017196"><ele>187.0</ele><time>2026-04-06T12:23:05.001Z</time></trkpt><trkpt lat="44.89925192127679" lon="9.053267111780217"><ele>187.5</ele><time>2026-04-06T12:23:06.001Z</time></trkpt><trkpt lat="44.899188721704405" lon="9.05340509938167"><ele>188.0</ele><time>2026-04-06T12:23:07.001Z</time></trkpt><trkpt lat="44.8990920912019" lon="9.05351806756396"><ele>188.5</ele><time>2026-04-06T12:23:08.001Z</time></trkpt><trkpt lat="44.89897446069458" lon="9.053617786978098"><ele>189.0</ele><time>2026-04-06T12:23:09.001Z</time></trkpt><trkpt lat="44.89884256727978" lon="9.05368212347329"><ele>189.0</ele><time>2026-04-06T12:23:10Z</time></trkpt><trkpt lat="44.89869811138346" lon="9.053770036228139"><ele>189.0</ele><time>2026-04-06T12:23:11Z</time></trkpt><trkpt lat="44.898511570438465" lon="9.053883379574845"><ele>189.0</ele><time>2026-04-06T12:23:12Z</time></trkpt><trkpt lat="44.89830945725453" lon="9.054004464513433"><ele>190.33333333333331</ele><time>2026-04-06T12:23:13Z</time></trkpt><trkpt lat="44.89812552922413" lon="9.054135003359319"><ele>191.66666666666666</ele><time>2026-04-06T12:23:14Z</time></trkpt><trkpt lat="44.89796295189482" lon="9.054229842728171"><ele>193.0</ele><time>2026-04-06T12:23:15Z</time></trkpt><trkpt lat="44.89782607938986" lon="9.054317676377869"><ele>193.0</ele><time>2026-04-06T12:23:16Z</time></trkpt><trkpt lat="44.897696914713904" lon="9.05437272038325"><ele>193.0</ele><time>2026-04-06T12:23:17Z</time></trkpt><trkpt lat="44.897580736879526" lon="9.054443334825576"><ele>193.0</ele><time>2026-04-06T12:23:18Z</time></trkpt><trkpt lat="44.89747177085275" lon="9.054525383431482"><ele>193.0</ele><time>2026-04-06T12:23:19Z</time></trkpt><trkpt lat="44.89737146747098" lon="9.054588413544264"><ele>193.2</ele><time>2026-04-06T12:23:20Z</time></trkpt><trkpt lat="44.89727340166276" lon="9.054640772732759"><ele>193.4</ele><time>2026-04-06T12:23:21Z</time></trkpt><trkpt lat="44.897173133039345" lon="9.054694961483245"><ele>193.6</ele><time>2026-04-06T12:23:22Z</time></trkpt><trkpt lat="44.89709652015359" lon="9.054796258810953"><ele>193.79999999999998</ele><time>2026-04-06T12:23:23Z</time></trkpt><trkpt lat="44.89701815155808" lon="9.054878095138559"><ele>194.0</ele><time>2026-04-06T12:23:24Z</time></trkpt><trkpt lat="44.89694727392431" lon="9.05496924092794"><ele>194.0</ele><time>2026-04-06T12:23:25Z</time></trkpt><trkpt lat="44.89687151422421" lon="9.055066513222112"><ele>194.0</ele><time>2026-04-06T12:23:26Z</time></trkpt><trkpt lat="44.89679908948111" lon="9.05516628119826"><ele>194.0</ele><time>2026-04-06T12:23:27Z</time></trkpt><trkpt lat="44.89672628186561" lon="9.055262002453247"><ele>194.0</ele><time>2026-04-06T12:23:28Z</time></trkpt><trkpt lat="44.89665182783341" lon="9.05535149617774"><ele>194.0</ele><time>2026-04-06T12:23:29Z</time></trkpt><trkpt lat="44.896582401124306" lon="9.055447652839044"><ele>194.39999999999998</ele><time>2026-04-06T12:23:30Z</time></trkpt><trkpt lat="44.8965142803673" lon="9.055538411548387"><ele>194.8</ele><time>2026-04-06T12:23:31Z</time></trkpt><trkpt lat="44.8964425442512" lon="9.05562851674188"><ele>195.2</ele><time>2026-04-06T12:23:32Z</time></trkpt><trkpt lat="44.89637835026456" lon="9.055727946028814"><ele>195.60000000000002</ele><time>2026-04-06T12:23:33Z</time></trkpt><trkpt lat="44.89631009569392" lon="9.05582363265082"><ele>196.0</ele><time>2026-04-06T12:23:34Z</time></trkpt><trkpt lat="44.89624419063621" lon="9.055919821636115"><ele>196.4</ele><time>2026-04-06T12:23:35Z</time></trkpt><trkpt lat="44.896177468515425" lon="9.0560136170644"><ele>196.8</ele><time>2026-04-06T12:23:36Z</time></trkpt><trkpt lat="44.89611168214751" lon="9.056106772856001"><ele>197.20000000000002</ele><time>2026-04-06T12:23:37Z</time></trkpt><trkpt lat="44.89604125333844" lon="9.056172834455648"><ele>197.60000000000002</ele><time>2026-04-06T12:23:38Z</time></trkpt><trkpt lat="44.89598940184701" lon="9.056243297864858"><ele>198.0</ele><time>2026-04-06T12:23:39Z</time></trkpt><trkpt lat="44.895922566607574" lon="9.05637811863014"><ele>198.0</ele><time>2026-04-06T12:23:41Z</time></trkpt><trkpt lat="44.89586059148594" lon="9.056492120267746"><ele>198.0</ele><time>2026-04-06T12:23:43Z</time></trkpt><trkpt lat="44.895811905268644" lon="9.0566118313869"><ele>198.0</ele><time>2026-04-06T12:23:45Z</time></trkpt><trkpt lat="44.8957830574056" lon="9.056702174777097"><ele>198.0</ele><time>2026-04-06T12:23:46Z</time></trkpt><trkpt lat="44.895725918037655" lon="9.056846950949048"><ele>198.0</ele><time>2026-04-06T12:23:47Z</time></trkpt><trkpt lat="44.89567913126447" lon="9.057009854571257"><ele>198.33333333333331</ele><time>2026-04-06T12:23:48Z</time></trkpt><trkpt lat="44.89562002805677" lon="9.057225474431268"><ele>198.66666666666666</ele><time>2026-04-06T12:23:49Z</time></trkpt><trkpt lat="44.89554483922451" lon="9.057450417875042"><ele>199.0</ele><time>2026-04-06T12:23:50Z</time></trkpt><trkpt lat="44.89548485682449" lon="9.057678006025348"><ele>199.33333333333331</ele><time>2026-04-06T12:23:51Z</time></trkpt><trkpt lat="44.89540676370879" lon="9.05790739569193"><ele>199.66666666666669</ele><time>2026-04-06T12:23:52Z</time></trkpt><trkpt lat="44.89533137406481" lon="9.058141670969283"><ele>200.0</ele><time>2026-04-06T12:23:53Z</time></trkpt><trkpt lat="44.89526450585598" lon="9.05837443511981"><ele>200.66666666666669</ele><time>2026-04-06T12:23:54Z</time></trkpt><trkpt lat="44.89519485127879" lon="9.058592214505767"><ele>201.33333333333331</ele><time>2026-04-06T12:23:55Z</time></trkpt><trkpt lat="44.895118193200155" lon="9.058812067365539"><ele>202.0</ele><time>2026-04-06T12:23:56Z</time></trkpt><trkpt lat="44.895050237936964" lon="9.059017201251521"><ele>201.33333333333331</ele><time>2026-04-06T12:23:57Z</time></trkpt><trkpt lat="44.89499315123508" lon="9.059215728720625"><ele>200.66666666666669</ele><time>2026-04-06T12:23:58Z</time></trkpt><trkpt lat="44.894922409404366" lon="9.059400811081886"><ele>200.0</ele><time>2026-04-06T12:23:59Z</time></trkpt><trkpt lat="44.89485891892685" lon="9.059592136156942"><ele>200.0</ele><time>2026-04-06T12:24:00Z</time></trkpt><trkpt lat="44.89477928901106" lon="9.059725450407253"><ele>200.0</ele><time>2026-04-06T12:24:01Z</time></trkpt><trkpt lat="44.89468013228307" lon="9.059838361243237"><ele>200.0</ele><time>2026-04-06T12:24:02Z</time></trkpt><trkpt lat="44.894549689013516" lon="9.059863366522803"><ele>200.0</ele><time>2026-04-06T12:24:03Z</time></trkpt><trkpt lat="44.89441947514986" lon="9.059897225024619"><ele>200.00000000000003</ele><time>2026-04-06T12:24:04Z</time></trkpt><trkpt lat="44.89434682554314" lon="9.059928902926005"><ele>200.0</ele><time>2026-04-06T12:24:05Z</time></trkpt><trkpt lat="44.894280031762676" lon="9.05994087241829"><ele>200.0</ele><time>2026-04-06T12:24:06Z</time></trkpt><trkpt lat="44.89420914456215" lon="9.05996309305305"><ele>200.0</ele><time>2026-04-06T12:24:07Z</time></trkpt><trkpt lat="44.894127234110385" lon="9.05997970791688"><ele>200.00000000000003</ele><time>2026-04-06T12:24:08Z</time></trkpt><trkpt lat="44.89402698655111" lon="9.059998302016233"><ele>200.0</ele><time>2026-04-06T12:24:09Z</time></trkpt><trkpt lat="44.89391386648282" lon="9.0600255670708"><ele>199.5</ele><time>2026-04-06T12:24:10Z</time></trkpt><trkpt lat="44.89378160828221" lon="9.060057672733999"><ele>199.0</ele><time>2026-04-06T12:24:11Z</time></trkpt><trkpt lat="44.89363370123691" lon="9.060092570295405"><ele>198.5</ele><time>2026-04-06T12:24:12Z</time></trkpt><trkpt lat="44.89347536599182" lon="9.060133771615064"><ele>198.0</ele><time>2026-04-06T12:24:13Z</time></trkpt><trkpt lat="44.89330754314343" lon="9.060177803305093"><ele>197.33333333333331</ele><time>2026-04-06T12:24:14.001Z</time></trkpt><trkpt lat="44.893115249185755" lon="9.060229478131973"><ele>196.66666666666666</ele><time>2026-04-06T12:24:15.001Z</time></trkpt><trkpt lat="44.89290758457847" lon="9.060284650756463"><ele>196.0</ele><time>2026-04-06T12:24:16.001Z</time></trkpt><trkpt lat="44.89270230453403" lon="9.060341195279854"><ele>194.66666666666666</ele><time>2026-04-06T12:24:17.001Z</time></trkpt><trkpt lat="44.89248885661782" lon="9.060394629655654"><ele>193.33333333333331</ele><time>2026-04-06T12:24:18.001Z</time></trkpt><trkpt lat="44.8922665578824" lon="9.060447427169484"><ele>192.0</ele><time>2026-04-06T12:24:19.001Z</time></trkpt><trkpt lat="44.89203558679164" lon="9.060500849263995"><ele>192.0</ele><time>2026-04-06T12:24:20.001Z</time></trkpt><trkpt lat="44.89180105653849" lon="9.060558080298081"><ele>192.0</ele><time>2026-04-06T12:24:21.001Z</time></trkpt><trkpt lat="44.89157426406152" lon="9.060607015194822"><ele>192.66666666666669</ele><time>2026-04-06T12:24:22.001Z</time></trkpt><trkpt lat="44.891353840707026" lon="9.060644633506975"><ele>193.33333333333334</ele><time>2026-04-06T12:24:23.001Z</time></trkpt><trkpt lat="44.89112886421569" lon="9.06063088609565"><ele>194.0</ele><time>2026-04-06T12:24:24.001Z</time></trkpt><trkpt lat="44.89090398387037" lon="9.060599209195699"><ele>196.0</ele><time>2026-04-06T12:24:25.001Z</time></trkpt><trkpt lat="44.890679574136776" lon="9.060562082992796"><ele>198.0</ele><time>2026-04-06T12:24:26.001Z</time></trkpt><trkpt lat="44.890454741257265" lon="9.060528892251192"><ele>198.0</ele><time>2026-04-06T12:24:27.001Z</time></trkpt><trkpt lat="44.89023204828467" lon="9.06049910398263"><ele>198.0</ele><time>2026-04-06T12:24:28.001Z</time></trkpt><trkpt lat="44.89002390578784" lon="9.060472298111627"><ele>198.0</ele><time>2026-04-06T12:24:29.001Z</time></trkpt><trkpt lat="44.88982259245203" lon="9.06045070920477"><ele>198.0</ele><time>2026-04-06T12:24:30.001Z</time></trkpt><trkpt lat="44.8896139792896" lon="9.060437805044977"><ele>198.0</ele><time>2026-04-06T12:24:31.001Z</time></trkpt><trkpt lat="44.88940643547865" lon="9.060428866786298"><ele>198.0</ele><time>2026-04-06T12:24:32.001Z</time></trkpt><trkpt lat="44.88919473342849" lon="9.060431646774802"><ele>199.33333333333331</ele><time>2026-04-06T12:24:33.001Z</time></trkpt><trkpt lat="44.88898830253749" lon="9.060442459952869"><ele>200.66666666666666</ele><time>2026-04-06T12:24:34.001Z</time></trkpt><trkpt lat="44.88878827445604" lon="9.060452384698769"><ele>202.0</ele><time>2026-04-06T12:24:35.001Z</time></trkpt><trkpt lat="44.88859239000037" lon="9.06045411427075"><ele>201.66666666666666</ele><time>2026-04-06T12:24:36.001Z</time></trkpt><trkpt lat="44.88840271052125" lon="9.060384417969674"><ele>201.33333333333331</ele><time>2026-04-06T12:24:37.001Z</time></trkpt><trkpt lat="44.88821491569213" lon="9.060313059299007"><ele>201.0</ele><time>2026-04-06T12:24:38.001Z</time></trkpt><trkpt lat="44.88802384110033" lon="9.060233981399874"><ele>201.0</ele><time>2026-04-06T12:24:39.001Z</time></trkpt><trkpt lat="44.88783178309923" lon="9.060151688641673"><ele>201.0</ele><time>2026-04-06T12:24:40.001Z</time></trkpt><trkpt lat="44.88762741975829" lon="9.06008695663641"><ele>201.0</ele><time>2026-04-06T12:24:41.001Z</time></trkpt><trkpt lat="44.88742407663575" lon="9.059976906546112"><ele>200.0</ele><time>2026-04-06T12:24:42.001Z</time></trkpt><trkpt lat="44.88719886603622" lon="9.059883116628438"><ele>199.0</ele><time>2026-04-06T12:24:43.001Z</time></trkpt><trkpt lat="44.8869707365653" lon="9.05978856373338"><ele>200.66666666666666</ele><time>2026-04-06T12:24:44.001Z</time></trkpt><trkpt lat="44.88675143820238" lon="9.059700043810892"><ele>202.33333333333331</ele><time>2026-04-06T12:24:45.001Z</time></trkpt><trkpt lat="44.886545898167" lon="9.059614210484193"><ele>204.0</ele><time>2026-04-06T12:24:46.001Z</time></trkpt><trkpt lat="44.88634035149142" lon="9.059528161385241"><ele>204.0</ele><time>2026-04-06T12:24:47.001Z</time></trkpt><trkpt lat="44.88613214853754" lon="9.059440796884298"><ele>204.0</ele><time>2026-04-06T12:24:48.001Z</time></trkpt><trkpt lat="44.88589505246561" lon="9.059341308451813"><ele>207.0</ele><time>2026-04-06T12:24:49.001Z</time></trkpt><trkpt lat="44.88562854764652" lon="9.059228773125863"><ele>210.0</ele><time>2026-04-06T12:24:50.001Z</time></trkpt><trkpt lat="44.88537111537436" lon="9.059119860571224"><ele>209.66666666666669</ele><time>2026-04-06T12:24:51.001Z</time></trkpt><trkpt lat="44.88514347097001" lon="9.059046632507325"><ele>209.33333333333334</ele><time>2026-04-06T12:24:52.001Z</time></trkpt><trkpt lat="44.88494495293213" lon="9.058957207584626"><ele>209.0</ele><time>2026-04-06T12:24:53.001Z</time></trkpt><trkpt lat="44.88476812589342" lon="9.058879995328047"><ele>209.0</ele><time>2026-04-06T12:24:54.001Z</time></trkpt><trkpt lat="44.884604265645685" lon="9.058818752661931"><ele>209.0</ele><time>2026-04-06T12:24:55.001Z</time></trkpt><trkpt lat="44.88444563100136" lon="9.058792435340271"><ele>209.0</ele><time>2026-04-06T12:24:56.001Z</time></trkpt><trkpt lat="44.884280963240734" lon="9.058807536447123"><ele>209.66666666666669</ele><time>2026-04-06T12:24:57.001Z</time></trkpt><trkpt lat="44.88411421816233" lon="9.058879726455313"><ele>210.33333333333331</ele><time>2026-04-06T12:24:58.001Z</time></trkpt><trkpt lat="44.883946874806036" lon="9.05898680588316"><ele>211.0</ele><time>2026-04-06T12:24:59.001Z</time></trkpt><trkpt lat="44.88377200082853" lon="9.059113192985787"><ele>210.33333333333331</ele><time>2026-04-06T12:25:00.001Z</time></trkpt><trkpt lat="44.88358517836899" lon="9.059239418966358"><ele>209.66666666666669</ele><time>2026-04-06T12:25:01.001Z</time></trkpt><trkpt lat="44.88338236350115" lon="9.059366729619464"><ele>209.0</ele><time>2026-04-06T12:25:02.001Z</time></trkpt><trkpt lat="44.88318262348121" lon="9.059489829243914"><ele>209.0</ele><time>2026-04-06T12:25:03.001Z</time></trkpt><trkpt lat="44.88297851032066" lon="9.059619200823725"><ele>209.0</ele><time>2026-04-06T12:25:04.001Z</time></trkpt><trkpt lat="44.882773389122555" lon="9.059751994238473"><ele>209.0</ele><time>2026-04-06T12:25:05.001Z</time></trkpt><trkpt lat="44.88256575327923" lon="9.05988460391556"><ele>211.5</ele><time>2026-04-06T12:25:06.001Z</time></trkpt><trkpt lat="44.88235226443216" lon="9.060020278140927"><ele>214.0</ele><time>2026-04-06T12:25:07.001Z</time></trkpt><trkpt lat="44.882136960809866" lon="9.060154133352423"><ele>214.0</ele><time>2026-04-06T12:25:08.001Z</time></trkpt><trkpt lat="44.8819327206017" lon="9.060282062033156"><ele>214.0</ele><time>2026-04-06T12:25:09.001Z</time></trkpt><trkpt lat="44.881740129311666" lon="9.060401426506074"><ele>214.0</ele><time>2026-04-06T12:25:10.001Z</time></trkpt><trkpt lat="44.8815600058171" lon="9.060537987189205"><ele>212.66666666666666</ele><time>2026-04-06T12:25:11.001Z</time></trkpt><trkpt lat="44.881405042338535" lon="9.060697073659462"><ele>211.33333333333331</ele><time>2026-04-06T12:25:12.001Z</time></trkpt><trkpt lat="44.88126212810951" lon="9.060890104349372"><ele>210.0</ele><time>2026-04-06T12:25:13.001Z</time></trkpt><trkpt lat="44.88113665495544" lon="9.061089757083062"><ele>210.66666666666669</ele><time>2026-04-06T12:25:14.001Z</time></trkpt><trkpt lat="44.88099591909412" lon="9.061273981972336"><ele>211.33333333333334</ele><time>2026-04-06T12:25:15.001Z</time></trkpt><trkpt lat="44.88087290103098" lon="9.061496491311148"><ele>212.0</ele><time>2026-04-06T12:25:16Z</time></trkpt><trkpt lat="44.880737501431625" lon="9.061716568189565"><ele>213.33333333333334</ele><time>2026-04-06T12:25:17Z</time></trkpt><trkpt lat="44.88060252382481" lon="9.061932828351411"><ele>214.66666666666669</ele><time>2026-04-06T12:25:18Z</time></trkpt><trkpt lat="44.88046520757738" lon="9.0621476337749"><ele>216.0</ele><time>2026-04-06T12:25:19Z</time></trkpt><trkpt lat="44.880326394280665" lon="9.06236135650105"><ele>216.33333333333331</ele><time>2026-04-06T12:25:20Z</time></trkpt><trkpt lat="44.88019045366211" lon="9.06257685471889"><ele>216.66666666666666</ele><time>2026-04-06T12:25:21Z</time></trkpt><trkpt lat="44.8800552800303" lon="9.062793545717176"><ele>217.0</ele><time>2026-04-06T12:25:22Z</time></trkpt><trkpt lat="44.879928102413615" lon="9.063002006947823"><ele>216.33333333333331</ele><time>2026-04-06T12:25:23Z</time></trkpt><trkpt lat="44.87979626678803" lon="9.063197934038902"><ele>215.66666666666669</ele><time>2026-04-06T12:25:24Z</time></trkpt><trkpt lat="44.87965135204598" lon="9.063354434566593"><ele>215.0</ele><time>2026-04-06T12:25:25Z</time></trkpt><trkpt lat="44.87948802462293" lon="9.063468069486811"><ele>216.0</ele><time>2026-04-06T12:25:26Z</time></trkpt><trkpt lat="44.8793144069463" lon="9.06353086525818"><ele>217.0</ele><time>2026-04-06T12:25:27Z</time></trkpt><trkpt lat="44.87912498314915" lon="9.06359179927606"><ele>218.0</ele><time>2026-04-06T12:25:28Z</time></trkpt><trkpt lat="44.87892380675893" lon="9.063647671002617"><ele>218.0</ele><time>2026-04-06T12:25:29Z</time></trkpt><trkpt lat="44.87872793541272" lon="9.06369698167726"><ele>218.0</ele><time>2026-04-06T12:25:30Z</time></trkpt><trkpt lat="44.87853939083317" lon="9.063753327303248"><ele>218.0</ele><time>2026-04-06T12:25:31Z</time></trkpt><trkpt lat="44.87834721009282" lon="9.063818397380173"><ele>216.66666666666669</ele><time>2026-04-06T12:25:32Z</time></trkpt><trkpt lat="44.878155427065494" lon="9.06388166713009"><ele>215.33333333333331</ele><time>2026-04-06T12:25:33Z</time></trkpt><trkpt lat="44.87795891682231" lon="9.06395624383459"><ele>214.0</ele><time>2026-04-06T12:25:34Z</time></trkpt><trkpt lat="44.877762704510076" lon="9.064040347614984"><ele>217.0</ele><time>2026-04-06T12:25:35Z</time></trkpt><trkpt lat="44.877561606714416" lon="9.064117383862758"><ele>220.0</ele><time>2026-04-06T12:25:36Z</time></trkpt><trkpt lat="44.877357253781184" lon="9.064179683591796"><ele>223.0</ele><time>2026-04-06T12:25:37Z</time></trkpt><trkpt lat="44.87714251177013" lon="9.064238511911702"><ele>223.0</ele><time>2026-04-06T12:25:38Z</time></trkpt><trkpt lat="44.876929814002" lon="9.064310789817748"><ele>223.0</ele><time>2026-04-06T12:25:39Z</time></trkpt><trkpt lat="44.87672086365876" lon="9.064389540287348"><ele>223.0</ele><time>2026-04-06T12:25:40Z</time></trkpt><trkpt lat="44.87651128996883" lon="9.064466824013467"><ele>221.33333333333331</ele><time>2026-04-06T12:25:41Z</time></trkpt><trkpt lat="44.87630689468359" lon="9.064532438739732"><ele>219.66666666666669</ele><time>2026-04-06T12:25:42Z</time></trkpt><trkpt lat="44.87610590845179" lon="9.06460033977385"><ele>218.0</ele><time>2026-04-06T12:25:43Z</time></trkpt><trkpt lat="44.87590840544809" lon="9.064669650295441"><ele>217.0</ele><time>2026-04-06T12:25:44Z</time></trkpt><trkpt lat="44.875717058868666" lon="9.06473777566211"><ele>216.0</ele><time>2026-04-06T12:25:45Z</time></trkpt><trkpt lat="44.87553974960203" lon="9.06480442816101"><ele>215.0</ele><time>2026-04-06T12:25:46Z</time></trkpt><trkpt lat="44.87538018678834" lon="9.064864538508228"><ele>215.0</ele><time>2026-04-06T12:25:47Z</time></trkpt><trkpt lat="44.87522462318444" lon="9.06491654852978"><ele>215.0</ele><time>2026-04-06T12:25:48Z</time></trkpt><trkpt lat="44.87506578429299" lon="9.064965351819046"><ele>215.0</ele><time>2026-04-06T12:25:49Z</time></trkpt><trkpt lat="44.87490621694367" lon="9.065025928581083"><ele>217.66666666666669</ele><time>2026-04-06T12:25:50Z</time></trkpt><trkpt lat="44.874750134878774" lon="9.065108270018804"><ele>220.33333333333331</ele><time>2026-04-06T12:25:51Z</time></trkpt><trkpt lat="44.874597743641495" lon="9.065213451485006"><ele>223.0</ele><time>2026-04-06T12:25:52Z</time></trkpt><trkpt lat="44.87445023265687" lon="9.06534325611972"><ele>223.0</ele><time>2026-04-06T12:25:53Z</time></trkpt><trkpt lat="44.874308081557075" lon="9.065496027039543"><ele>223.0</ele><time>2026-04-06T12:25:54Z</time></trkpt><trkpt lat="44.87417858766861" lon="9.065667313200974"><ele>223.0</ele><time>2026-04-06T12:25:55Z</time></trkpt><trkpt lat="44.87406991993989" lon="9.065843903340602"><ele>224.66666666666666</ele><time>2026-04-06T12:25:56Z</time></trkpt><trkpt lat="44.873958152622606" lon="9.066011440105646"><ele>226.33333333333331</ele><time>2026-04-06T12:25:57Z</time></trkpt><trkpt lat="44.873841516024726" lon="9.06617125503893"><ele>228.0</ele><time>2026-04-06T12:25:58Z</time></trkpt><trkpt lat="44.87372258820854" lon="9.06632896870816"><ele>228.0</ele><time>2026-04-06T12:25:59Z</time></trkpt><trkpt lat="44.87361599903511" lon="9.066475119086261"><ele>228.0</ele><time>2026-04-06T12:26:00Z</time></trkpt><trkpt lat="44.87350890191722" lon="9.066620626489645"><ele>228.0</ele><time>2026-04-06T12:26:01Z</time></trkpt><trkpt lat="44.87339389463649" lon="9.066771024728592"><ele>228.0</ele><time>2026-04-06T12:26:02Z</time></trkpt><trkpt lat="44.87327470641822" lon="9.066920648642176"><ele>228.0</ele><time>2026-04-06T12:26:03Z</time></trkpt><trkpt lat="44.873144929415844" lon="9.067066845549443"><ele>228.0</ele><time>2026-04-06T12:26:04Z</time></trkpt><trkpt lat="44.873007427219655" lon="9.067192424221103"><ele>228.0</ele><time>2026-04-06T12:26:05Z</time></trkpt><trkpt lat="44.87287131174901" lon="9.06731181388999"><ele>228.0</ele><time>2026-04-06T12:26:06Z</time></trkpt><trkpt lat="44.872735631044655" lon="9.067434053910508"><ele>228.0</ele><time>2026-04-06T12:26:07Z</time></trkpt><trkpt lat="44.87259053511937" lon="9.06754905379084"><ele>228.33333333333331</ele><time>2026-04-06T12:26:08Z</time></trkpt><trkpt lat="44.87243393406118" lon="9.06763452671763"><ele>228.66666666666666</ele><time>2026-04-06T12:26:09Z</time></trkpt><trkpt lat="44.87227061213529" lon="9.067679989598316"><ele>229.0</ele><time>2026-04-06T12:26:10Z</time></trkpt><trkpt lat="44.87210065772291" lon="9.06769762299378"><ele>229.0</ele><time>2026-04-06T12:26:11Z</time></trkpt><trkpt lat="44.87193402596953" lon="9.067712442138758"><ele>229.0</ele><time>2026-04-06T12:26:12Z</time></trkpt><trkpt lat="44.87178309409646" lon="9.067725268285526"><ele>229.0</ele><time>2026-04-06T12:26:13Z</time></trkpt><trkpt lat="44.87162881364501" lon="9.067750276697481"><ele>228.66666666666666</ele><time>2026-04-06T12:26:14Z</time></trkpt><trkpt lat="44.87147286991398" lon="9.067777303906423"><ele>228.33333333333331</ele><time>2026-04-06T12:26:15Z</time></trkpt><trkpt lat="44.871329622108746" lon="9.067811744643706"><ele>228.0</ele><time>2026-04-06T12:26:16Z</time></trkpt><trkpt lat="44.87118638442127" lon="9.067864221791119"><ele>228.0</ele><time>2026-04-06T12:26:17Z</time></trkpt><trkpt lat="44.87105274218582" lon="9.067926689117458"><ele>228.0</ele><time>2026-04-06T12:26:18Z</time></trkpt><trkpt lat="44.87092830514579" lon="9.068006953948814"><ele>228.0</ele><time>2026-04-06T12:26:19Z</time></trkpt><trkpt lat="44.870812059985866" lon="9.06810845844648"><ele>228.0</ele><time>2026-04-06T12:26:20Z</time></trkpt><trkpt lat="44.87070770751076" lon="9.068241525466188"><ele>231.0</ele><time>2026-04-06T12:26:21.001Z</time></trkpt><trkpt lat="44.87060867196217" lon="9.068403391208173"><ele>234.0</ele><time>2026-04-06T12:26:22.001Z</time></trkpt><trkpt lat="44.87050743609349" lon="9.068576323657139"><ele>237.0</ele><time>2026-04-06T12:26:23.001Z</time></trkpt><trkpt lat="44.87040836376277" lon="9.068745717039715"><ele>237.0</ele><time>2026-04-06T12:26:24.001Z</time></trkpt><trkpt lat="44.870315070627186" lon="9.068918955929671"><ele>237.0</ele><time>2026-04-06T12:26:25.001Z</time></trkpt><trkpt lat="44.87022812024266" lon="9.069098157210616"><ele>237.0</ele><time>2026-04-06T12:26:26.001Z</time></trkpt><trkpt lat="44.87016503873544" lon="9.069294783202174"><ele>235.33333333333331</ele><time>2026-04-06T12:26:27.001Z</time></trkpt><trkpt lat="44.870121088044044" lon="9.069506147373941"><ele>233.66666666666666</ele><time>2026-04-06T12:26:28.001Z</time></trkpt><trkpt lat="44.87009383485825" lon="9.06973186833575"><ele>232.0</ele><time>2026-04-06T12:26:29.001Z</time></trkpt><trkpt lat="44.870064708272935" lon="9.069941559774593"><ele>233.66666666666666</ele><time>2026-04-06T12:26:30.001Z</time></trkpt><trkpt lat="44.86999708525345" lon="9.070133769009958"><ele>235.33333333333331</ele><time>2026-04-06T12:26:31.001Z</time></trkpt><trkpt lat="44.86991654006073" lon="9.07032282012667"><ele>237.0</ele><time>2026-04-06T12:26:32.001Z</time></trkpt><trkpt lat="44.86981884605834" lon="9.070481496731036"><ele>237.0</ele><time>2026-04-06T12:26:33.001Z</time></trkpt><trkpt lat="44.86970589356293" lon="9.070617282103578"><ele>237.0</ele><time>2026-04-06T12:26:34.001Z</time></trkpt><trkpt lat="44.86957613309631" lon="9.070727975430387"><ele>237.0</ele><time>2026-04-06T12:26:35.001Z</time></trkpt><trkpt lat="44.86942778160973" lon="9.07081859851444"><ele>236.33333333333331</ele><time>2026-04-06T12:26:36.001Z</time></trkpt><trkpt lat="44.8692692741417" lon="9.070868545909338"><ele>235.66666666666666</ele><time>2026-04-06T12:26:37.001Z</time></trkpt><trkpt lat="44.86910305041214" lon="9.070901205324903"><ele>235.0</ele><time>2026-04-06T12:26:38.001Z</time></trkpt><trkpt lat="44.868941015873474" lon="9.070951965118285"><ele>235.0</ele><time>2026-04-06T12:26:39.001Z</time></trkpt><trkpt lat="44.86877816873203" lon="9.070969618935276"><ele>235.0</ele><time>2026-04-06T12:26:40.001Z</time></trkpt><trkpt lat="44.8686257676457" lon="9.070997290574091"><ele>235.0</ele><time>2026-04-06T12:26:41.001Z</time></trkpt><trkpt lat="44.86847859950323" lon="9.071024082680745"><ele>234.0</ele><time>2026-04-06T12:26:42.001Z</time></trkpt><trkpt lat="44.868332537018226" lon="9.07104788122232"><ele>233.0</ele><time>2026-04-06T12:26:43.001Z</time></trkpt><trkpt lat="44.86818664176696" lon="9.071071797564759"><ele>232.0</ele><time>2026-04-06T12:26:44.001Z</time></trkpt><trkpt lat="44.86803373007727" lon="9.071095140619562"><ele>231.0</ele><time>2026-04-06T12:26:45.001Z</time></trkpt><trkpt lat="44.86787994860537" lon="9.07111773938863"><ele>231.0</ele><time>2026-04-06T12:26:46.001Z</time></trkpt><trkpt lat="44.86772561071241" lon="9.071143893489701"><ele>231.0</ele><time>2026-04-06T12:26:47.001Z</time></trkpt><trkpt lat="44.86756355335021" lon="9.071174801097882"><ele>231.0</ele><time>2026-04-06T12:26:48.001Z</time></trkpt><trkpt lat="44.867404109994574" lon="9.071198994598452"><ele>230.33333333333331</ele><time>2026-04-06T12:26:49.001Z</time></trkpt><trkpt lat="44.86723982053883" lon="9.071224211464324"><ele>229.66666666666666</ele><time>2026-04-06T12:26:50.001Z</time></trkpt><trkpt lat="44.86707951622652" lon="9.07125360086647"><ele>229.0</ele><time>2026-04-06T12:26:51.001Z</time></trkpt><trkpt lat="44.86691366075082" lon="9.071258632163063"><ele>230.0</ele><time>2026-04-06T12:26:52.001Z</time></trkpt><trkpt lat="44.86675085030237" lon="9.071309148339388"><ele>231.0</ele><time>2026-04-06T12:26:53.001Z</time></trkpt><trkpt lat="44.86658620503304" lon="9.07133316637159"><ele>232.0</ele><time>2026-04-06T12:26:54.001Z</time></trkpt><trkpt lat="44.866426661922716" lon="9.071360424034943"><ele>232.0</ele><time>2026-04-06T12:26:55.001Z</time></trkpt><trkpt lat="44.86626811656557" lon="9.071391546368014"><ele>232.0</ele><time>2026-04-06T12:26:56.001Z</time></trkpt><trkpt lat="44.86610254630756" lon="9.071418451631892"><ele>232.0</ele><time>2026-04-06T12:26:57.001Z</time></trkpt><trkpt lat="44.86593409455012" lon="9.071442220496827"><ele>232.0</ele><time>2026-04-06T12:26:58.001Z</time></trkpt><trkpt lat="44.86575703300156" lon="9.07147282086956"><ele>232.0</ele><time>2026-04-06T12:26:59.001Z</time></trkpt><trkpt lat="44.86555236204842" lon="9.071491192630647"><ele>232.0</ele><time>2026-04-06T12:27:00.001Z</time></trkpt><trkpt lat="44.86531790564299" lon="9.07152935957692"><ele>232.0</ele><time>2026-04-06T12:27:01.001Z</time></trkpt><trkpt lat="44.86505379879996" lon="9.071572270688568"><ele>232.0</ele><time>2026-04-06T12:27:02.001Z</time></trkpt><trkpt lat="44.86476639084191" lon="9.071618967681957"><ele>232.0</ele><time>2026-04-06T12:27:03.001Z</time></trkpt><trkpt lat="44.86448501827925" lon="9.071664684081997"><ele>232.0</ele><time>2026-04-06T12:27:04.001Z</time></trkpt><trkpt lat="44.86423884071778" lon="9.071721270194221"><ele>231.66666666666666</ele><time>2026-04-06T12:27:05.001Z</time></trkpt><trkpt lat="44.86400901138231" lon="9.071753573121887"><ele>231.33333333333331</ele><time>2026-04-06T12:27:06.001Z</time></trkpt><trkpt lat="44.86379360696481" lon="9.07179045681475"><ele>231.0</ele><time>2026-04-06T12:27:07.001Z</time></trkpt><trkpt lat="44.86359074571779" lon="9.071840792061785"><ele>231.0</ele><time>2026-04-06T12:27:08.001Z</time></trkpt><trkpt lat="44.86339966016035" lon="9.071923238590845"><ele>231.0</ele><time>2026-04-06T12:27:09.001Z</time></trkpt><trkpt lat="44.86321047442287" lon="9.072039946609097"><ele>231.0</ele><time>2026-04-06T12:27:10.001Z</time></trkpt><trkpt lat="44.863027851333754" lon="9.072195499786098"><ele>231.0</ele><time>2026-04-06T12:27:11.001Z</time></trkpt><trkpt lat="44.86286353402874" lon="9.072375416116977"><ele>231.0</ele><time>2026-04-06T12:27:12.001Z</time></trkpt><trkpt lat="44.86271374074335" lon="9.072585938052088"><ele>231.0</ele><time>2026-04-06T12:27:13.001Z</time></trkpt><trkpt lat="44.8625850404396" lon="9.072820734058388"><ele>233.0</ele><time>2026-04-06T12:27:14.001Z</time></trkpt><trkpt lat="44.86247398641972" lon="9.073078523720582"><ele>235.0</ele><time>2026-04-06T12:27:15.001Z</time></trkpt><trkpt lat="44.86238002740743" lon="9.073353703632401"><ele>237.0</ele><time>2026-04-06T12:27:16.001Z</time></trkpt><trkpt lat="44.862308943411385" lon="9.073639428268049"><ele>238.66666666666669</ele><time>2026-04-06T12:27:17.001Z</time></trkpt><trkpt lat="44.86224942272743" lon="9.073939231708927"><ele>240.33333333333334</ele><time>2026-04-06T12:27:18.001Z</time></trkpt><trkpt lat="44.86219584241396" lon="9.074252077438738"><ele>242.0</ele><time>2026-04-06T12:27:19.001Z</time></trkpt><trkpt lat="44.86213993418915" lon="9.074572087289575"><ele>246.5</ele><time>2026-04-06T12:27:20.001Z</time></trkpt><trkpt lat="44.86209363048459" lon="9.074896949894322"><ele>251.0</ele><time>2026-04-06T12:27:21.001Z</time></trkpt><trkpt lat="44.862047905005525" lon="9.075215536851518"><ele>254.0</ele><time>2026-04-06T12:27:22Z</time></trkpt><trkpt lat="44.862004684347994" lon="9.075547551237054"><ele>257.0</ele><time>2026-04-06T12:27:23Z</time></trkpt><trkpt lat="44.861965797385004" lon="9.075877675512446"><ele>259.5</ele><time>2026-04-06T12:27:24Z</time></trkpt><trkpt lat="44.86192486234005" lon="9.07619069929489"><ele>262.0</ele><time>2026-04-06T12:27:25Z</time></trkpt><trkpt lat="44.861867432431254" lon="9.076504364722735"><ele>263.5</ele><time>2026-04-06T12:27:26Z</time></trkpt><trkpt lat="44.8617999990551" lon="9.076822203388549"><ele>265.0</ele><time>2026-04-06T12:27:27Z</time></trkpt><trkpt lat="44.86170724803423" lon="9.077118864632087"><ele>255.5</ele><time>2026-04-06T12:27:28Z</time></trkpt><trkpt lat="44.86158832243875" lon="9.077398219485685"><ele>246.0</ele><time>2026-04-06T12:27:29Z</time></trkpt><trkpt lat="44.861462127808004" lon="9.077670620589355"><ele>246.0</ele><time>2026-04-06T12:27:30Z</time></trkpt><trkpt lat="44.861316555334106" lon="9.077928811108205"><ele>246.0</ele><time>2026-04-06T12:27:31Z</time></trkpt><trkpt lat="44.861147700086256" lon="9.078149207251894"><ele>244.5</ele><time>2026-04-06T12:27:32Z</time></trkpt><trkpt lat="44.86098557883282" lon="9.078389007550328"><ele>243.0</ele><time>2026-04-06T12:27:33Z</time></trkpt><trkpt lat="44.86081021119045" lon="9.0786082391592"><ele>243.0</ele><time>2026-04-06T12:27:34Z</time></trkpt><trkpt lat="44.86063963768876" lon="9.078832071109263"><ele>243.0</ele><time>2026-04-06T12:27:35Z</time></trkpt><trkpt lat="44.86047824268037" lon="9.079060981110628"><ele>244.0</ele><time>2026-04-06T12:27:36Z</time></trkpt><trkpt lat="44.86033239328555" lon="9.079289538897282"><ele>245.0</ele><time>2026-04-06T12:27:37Z</time></trkpt><trkpt lat="44.860196555301606" lon="9.079524743314186"><ele>246.0</ele><time>2026-04-06T12:27:38Z</time></trkpt><trkpt lat="44.86007585701775" lon="9.079772392557024"><ele>247.0</ele><time>2026-04-06T12:27:39Z</time></trkpt><trkpt lat="44.85997683366135" lon="9.080026845398923"><ele>248.0</ele><time>2026-04-06T12:27:40Z</time></trkpt><trkpt lat="44.85990342279893" lon="9.08029371980176"><ele>249.0</ele><time>2026-04-06T12:27:41Z</time></trkpt><trkpt lat="44.85985999516537" lon="9.08057590694501"><ele>250.66666666666669</ele><time>2026-04-06T12:27:42Z</time></trkpt><trkpt lat="44.85981079521275" lon="9.080854619007672"><ele>252.33333333333334</ele><time>2026-04-06T12:27:43Z</time></trkpt><trkpt lat="44.85972381352968" lon="9.081109243406244"><ele>254.0</ele><time>2026-04-06T12:27:44Z</time></trkpt><trkpt lat="44.85960405029363" lon="9.081338844040273"><ele>254.0</ele><time>2026-04-06T12:27:45Z</time></trkpt><trkpt lat="44.85944713004556" lon="9.081520676382594"><ele>254.0</ele><time>2026-04-06T12:27:46Z</time></trkpt><trkpt lat="44.859283419058066" lon="9.08169358588047"><ele>254.0</ele><time>2026-04-06T12:27:47Z</time></trkpt><trkpt lat="44.859112934079114" lon="9.08188042888236"><ele>252.0</ele><time>2026-04-06T12:27:48Z</time></trkpt><trkpt lat="44.858927731340195" lon="9.082055881749064"><ele>250.0</ele><time>2026-04-06T12:27:49Z</time></trkpt><trkpt lat="44.858738590068036" lon="9.082238261351431"><ele>252.0</ele><time>2026-04-06T12:27:50Z</time></trkpt><trkpt lat="44.858544500066046" lon="9.082431558783274"><ele>254.0</ele><time>2026-04-06T12:27:51Z</time></trkpt><trkpt lat="44.8583439167442" lon="9.082631953543958"><ele>254.0</ele><time>2026-04-06T12:27:52Z</time></trkpt><trkpt lat="44.858151305345416" lon="9.08282738289374"><ele>254.0</ele><time>2026-04-06T12:27:53Z</time></trkpt><trkpt lat="44.85796393406529" lon="9.083004924366097"><ele>254.0</ele><time>2026-04-06T12:27:54Z</time></trkpt><trkpt lat="44.85778807661697" lon="9.083168431939061"><ele>254.0</ele><time>2026-04-06T12:27:55Z</time></trkpt><trkpt lat="44.85762657729391" lon="9.08333153686682"><ele>254.0</ele><time>2026-04-06T12:27:56Z</time></trkpt><trkpt lat="44.85747177393589" lon="9.083486398632203"><ele>255.66666666666669</ele><time>2026-04-06T12:27:57Z</time></trkpt><trkpt lat="44.85728539178939" lon="9.083660600512681"><ele>257.3333333333333</ele><time>2026-04-06T12:27:58Z</time></trkpt><trkpt lat="44.8571288832814" lon="9.083809764873994"><ele>259.0</ele><time>2026-04-06T12:27:59Z</time></trkpt><trkpt lat="44.85699015004949" lon="9.083944886347442"><ele>259.0</ele><time>2026-04-06T12:28:00Z</time></trkpt><trkpt lat="44.85686009819788" lon="9.084084725609795"><ele>259.0</ele><time>2026-04-06T12:28:01Z</time></trkpt><trkpt lat="44.85673345075561" lon="9.084230381823618"><ele>259.0</ele><time>2026-04-06T12:28:02Z</time></trkpt><trkpt lat="44.85659414670281" lon="9.08439922280738"><ele>258.66666666666663</ele><time>2026-04-06T12:28:03Z</time></trkpt><trkpt lat="44.8565018883026" lon="9.084580101793131"><ele>258.3333333333333</ele><time>2026-04-06T12:28:04Z</time></trkpt><trkpt lat="44.856428389793614" lon="9.084786586918328"><ele>258.0</ele><time>2026-04-06T12:28:05Z</time></trkpt><trkpt lat="44.85637557826167" lon="9.085023525265811"><ele>258.0</ele><time>2026-04-06T12:28:06Z</time></trkpt><trkpt lat="44.85634797837552" lon="9.0852826475447"><ele>258.0</ele><time>2026-04-06T12:28:07Z</time></trkpt><trkpt lat="44.8563362214937" lon="9.085569314967477"><ele>258.0</ele><time>2026-04-06T12:28:08Z</time></trkpt><trkpt lat="44.856328150576275" lon="9.085878259767437"><ele>259.5</ele><time>2026-04-06T12:28:09Z</time></trkpt><trkpt lat="44.85631687047074" lon="9.086201807012324"><ele>261.0</ele><time>2026-04-06T12:28:10Z</time></trkpt><trkpt lat="44.856309507348705" lon="9.086539322109951"><ele>262.5</ele><time>2026-04-06T12:28:11Z</time></trkpt><trkpt lat="44.85629143406232" lon="9.086880106184475"><ele>264.0</ele><time>2026-04-06T12:28:12Z</time></trkpt><trkpt lat="44.85626245840635" lon="9.087214995989449"><ele>266.0</ele><time>2026-04-06T12:28:13Z</time></trkpt><trkpt lat="44.85622033405615" lon="9.087555864752613"><ele>268.0</ele><time>2026-04-06T12:28:14Z</time></trkpt><trkpt lat="44.85618436389194" lon="9.087893916917913"><ele>268.0</ele><time>2026-04-06T12:28:15Z</time></trkpt><trkpt lat="44.85615579629707" lon="9.088233266857314"><ele>268.0</ele><time>2026-04-06T12:28:16Z</time></trkpt><trkpt lat="44.85613287861857" lon="9.08855461453709"><ele>267.3333333333333</ele><time>2026-04-06T12:28:17Z</time></trkpt><trkpt lat="44.85610864454542" lon="9.08885144014749"><ele>266.6666666666667</ele><time>2026-04-06T12:28:18Z</time></trkpt><trkpt lat="44.856085945457494" lon="9.089127895202392"><ele>266.0</ele><time>2026-04-06T12:28:19Z</time></trkpt><trkpt lat="44.85605467336668" lon="9.08938208073948"><ele>265.33333333333337</ele><time>2026-04-06T12:28:20Z</time></trkpt><trkpt lat="44.85598985347258" lon="9.089620032107682"><ele>264.6666666666667</ele><time>2026-04-06T12:28:21Z</time></trkpt><trkpt lat="44.85589910296525" lon="9.089870810176711"><ele>264.0</ele><time>2026-04-06T12:28:22.001Z</time></trkpt><trkpt lat="44.85577062413416" lon="9.090109498137455"><ele>264.0</ele><time>2026-04-06T12:28:23.001Z</time></trkpt><trkpt lat="44.85562155094241" lon="9.090340093160453"><ele>264.0</ele><time>2026-04-06T12:28:24.001Z</time></trkpt><trkpt lat="44.855436607709485" lon="9.09054823518931"><ele>264.0</ele><time>2026-04-06T12:28:25.001Z</time></trkpt><trkpt lat="44.8552841176367" lon="9.090749594812122"><ele>264.0</ele><time>2026-04-06T12:28:26.001Z</time></trkpt><trkpt lat="44.85514421599883" lon="9.090944319607708"><ele>264.0</ele><time>2026-04-06T12:28:27.001Z</time></trkpt><trkpt lat="44.855040954182066" lon="9.091142445218141"><ele>263.3333333333333</ele><time>2026-04-06T12:28:28.001Z</time></trkpt><trkpt lat="44.8549706184176" lon="9.091349293280532"><ele>262.66666666666663</ele><time>2026-04-06T12:28:29.001Z</time></trkpt><trkpt lat="44.85493216682701" lon="9.091576681590459"><ele>262.0</ele><time>2026-04-06T12:28:30.001Z</time></trkpt><trkpt lat="44.854919797677816" lon="9.091828901204812"><ele>262.0</ele><time>2026-04-06T12:28:31.001Z</time></trkpt><trkpt lat="44.85492396109117" lon="9.092102356372152"><ele>262.0</ele><time>2026-04-06T12:28:32.001Z</time></trkpt><trkpt lat="44.85492578258375" lon="9.09239369450002"><ele>262.0</ele><time>2026-04-06T12:28:33.001Z</time></trkpt><trkpt lat="44.8549196014678" lon="9.092697300907087"><ele>262.66666666666663</ele><time>2026-04-06T12:28:34.001Z</time></trkpt><trkpt lat="44.854911852701186" lon="9.092994085027872"><ele>263.3333333333333</ele><time>2026-04-06T12:28:35.001Z</time></trkpt><trkpt lat="44.8549056258839" lon="9.093286760847647"><ele>264.0</ele><time>2026-04-06T12:28:36.001Z</time></trkpt><trkpt lat="44.85490196528483" lon="9.093569400732513"><ele>264.3333333333333</ele><time>2026-04-06T12:28:37.001Z</time></trkpt><trkpt lat="44.85489565300309" lon="9.093842045754261"><ele>264.66666666666663</ele><time>2026-04-06T12:28:38.001Z</time></trkpt><trkpt lat="44.85488492477621" lon="9.094109867416128"><ele>265.0</ele><time>2026-04-06T12:28:39.001Z</time></trkpt><trkpt lat="44.85485042329802" lon="9.094355138702953"><ele>265.0</ele><time>2026-04-06T12:28:40.001Z</time></trkpt><trkpt lat="44.85478663526007" lon="9.094587489944086"><ele>265.0</ele><time>2026-04-06T12:28:41.001Z</time></trkpt><trkpt lat="44.85469261873485" lon="9.094801038227986"><ele>265.0</ele><time>2026-04-06T12:28:42.001Z</time></trkpt><trkpt lat="44.854569127191695" lon="9.094984744372521"><ele>265.66666666666663</ele><time>2026-04-06T12:28:43.001Z</time></trkpt><trkpt lat="44.85441615467707" lon="9.095128088253794"><ele>266.3333333333333</ele><time>2026-04-06T12:28:44.001Z</time></trkpt><trkpt lat="44.85423600605007" lon="9.095249975481421"><ele>267.0</ele><time>2026-04-06T12:28:45.001Z</time></trkpt><trkpt lat="44.854037645228615" lon="9.095376927323416"><ele>265.0</ele><time>2026-04-06T12:28:46.001Z</time></trkpt><trkpt lat="44.85383403687642" lon="9.095516862519244"><ele>263.0</ele><time>2026-04-06T12:28:47.001Z</time></trkpt><trkpt lat="44.85362887885203" lon="9.095666210497491"><ele>264.0</ele><time>2026-04-06T12:28:48.001Z</time></trkpt><trkpt lat="44.85343158842171" lon="9.09581351722183"><ele>265.0</ele><time>2026-04-06T12:28:49.001Z</time></trkpt><trkpt lat="44.85323779849034" lon="9.095961744019469"><ele>266.0</ele><time>2026-04-06T12:28:50.001Z</time></trkpt><trkpt lat="44.853045099976235" lon="9.096106225416973"><ele>266.0</ele><time>2026-04-06T12:28:51.001Z</time></trkpt><trkpt lat="44.85285196918417" lon="9.096250230150849"><ele>266.0</ele><time>2026-04-06T12:28:52.001Z</time></trkpt><trkpt lat="44.85266121013937" lon="9.09639433585612"><ele>266.0</ele><time>2026-04-06T12:28:53.001Z</time></trkpt><trkpt lat="44.85246730180961" lon="9.096535102270305"><ele>265.6666666666667</ele><time>2026-04-06T12:28:54.001Z</time></trkpt><trkpt lat="44.852273513247944" lon="9.096679046231205"><ele>265.3333333333333</ele><time>2026-04-06T12:28:55.001Z</time></trkpt><trkpt lat="44.85207805136951" lon="9.096821641201144"><ele>265.0</ele><time>2026-04-06T12:28:56.001Z</time></trkpt><trkpt lat="44.85188684473042" lon="9.09696225007324"><ele>265.0</ele><time>2026-04-06T12:28:57.001Z</time></trkpt><trkpt lat="44.851697629140304" lon="9.097096455769206"><ele>265.0</ele><time>2026-04-06T12:28:58.001Z</time></trkpt><trkpt lat="44.851523629681" lon="9.097227866885168"><ele>265.0</ele><time>2026-04-06T12:28:59.001Z</time></trkpt><trkpt lat="44.85135654561092" lon="9.097343194526177"><ele>265.3333333333333</ele><time>2026-04-06T12:29:00.001Z</time></trkpt><trkpt lat="44.851194216801375" lon="9.097462797202695"><ele>265.6666666666667</ele><time>2026-04-06T12:29:01.001Z</time></trkpt><trkpt lat="44.85102796790127" lon="9.097600035466643"><ele>266.0</ele><time>2026-04-06T12:29:02.001Z</time></trkpt><trkpt lat="44.85085311373318" lon="9.097730065207992"><ele>266.0</ele><time>2026-04-06T12:29:03.001Z</time></trkpt><trkpt lat="44.85067325931974" lon="9.097860762778387"><ele>266.0</ele><time>2026-04-06T12:29:04.001Z</time></trkpt><trkpt lat="44.85049103380406" lon="9.097991935655045"><ele>266.0</ele><time>2026-04-06T12:29:05.001Z</time></trkpt><trkpt lat="44.85030540844038" lon="9.098125758833309"><ele>266.6666666666667</ele><time>2026-04-06T12:29:06.001Z</time></trkpt><trkpt lat="44.85012050265604" lon="9.098264655995571"><ele>267.3333333333333</ele><time>2026-04-06T12:29:07.001Z</time></trkpt><trkpt lat="44.84993342759986" lon="9.098400550459736"><ele>268.0</ele><time>2026-04-06T12:29:08.001Z</time></trkpt><trkpt lat="44.84974372577076" lon="9.098532519556981"><ele>268.0</ele><time>2026-04-06T12:29:09.001Z</time></trkpt><trkpt lat="44.849556323292674" lon="9.09867034532691"><ele>268.0</ele><time>2026-04-06T12:29:10.001Z</time></trkpt><trkpt lat="44.84937540309845" lon="9.098823069145793"><ele>268.0</ele><time>2026-04-06T12:29:11.001Z</time></trkpt><trkpt lat="44.84920379499443" lon="9.09899361349379"><ele>269.3333333333333</ele><time>2026-04-06T12:29:12.001Z</time></trkpt><trkpt lat="44.84904414994325" lon="9.099189380646656"><ele>270.6666666666667</ele><time>2026-04-06T12:29:13.001Z</time></trkpt><trkpt lat="44.84888872379968" lon="9.099396639651932"><ele>272.0</ele><time>2026-04-06T12:29:14.001Z</time></trkpt><trkpt lat="44.84872902961229" lon="9.099603932221441"><ele>272.0</ele><time>2026-04-06T12:29:15.001Z</time></trkpt><trkpt lat="44.84856885229199" lon="9.099814604024948"><ele>272.0</ele><time>2026-04-06T12:29:16.001Z</time></trkpt><trkpt lat="44.84840652602869" lon="9.100031163733702"><ele>272.0</ele><time>2026-04-06T12:29:17.001Z</time></trkpt><trkpt lat="44.84823933943868" lon="9.10024974904169"><ele>271.0</ele><time>2026-04-06T12:29:18.001Z</time></trkpt><trkpt lat="44.84806924744398" lon="9.100471264101285"><ele>270.0</ele><time>2026-04-06T12:29:19.001Z</time></trkpt><trkpt lat="44.847897833442964" lon="9.100695388608882"><ele>270.5</ele><time>2026-04-06T12:29:20.001Z</time></trkpt><trkpt lat="44.8477266239289" lon="9.100922227282586"><ele>271.0</ele><time>2026-04-06T12:29:21.001Z</time></trkpt><trkpt lat="44.84755247404109" lon="9.101158368933573"><ele>271.0</ele><time>2026-04-06T12:29:22.001Z</time></trkpt><trkpt lat="44.8473744321369" lon="9.101395782242337"><ele>271.0</ele><time>2026-04-06T12:29:23.001Z</time></trkpt><trkpt lat="44.8471959768731" lon="9.10163369707067"><ele>274.0</ele><time>2026-04-06T12:29:24.001Z</time></trkpt><trkpt lat="44.84701615028186" lon="9.1018720070055"><ele>277.0</ele><time>2026-04-06T12:29:25.001Z</time></trkpt><trkpt lat="44.84683159441974" lon="9.102111805836737"><ele>277.5</ele><time>2026-04-06T12:29:26.001Z</time></trkpt><trkpt lat="44.846648985090646" lon="9.102347496072122"><ele>278.0</ele><time>2026-04-06T12:29:27.001Z</time></trkpt><trkpt lat="44.84646765041326" lon="9.102586068995691"><ele>278.0</ele><time>2026-04-06T12:29:28Z</time></trkpt><trkpt lat="44.846286908310034" lon="9.102825329543979"><ele>278.0</ele><time>2026-04-06T12:29:29Z</time></trkpt><trkpt lat="44.84610429651233" lon="9.103064269668174"><ele>277.0</ele><time>2026-04-06T12:29:30Z</time></trkpt><trkpt lat="44.84592318169199" lon="9.103305047706314"><ele>276.0</ele><time>2026-04-06T12:29:31Z</time></trkpt><trkpt lat="44.845741166220904" lon="9.103543308150742"><ele>276.0</ele><time>2026-04-06T12:29:32Z</time></trkpt><trkpt lat="44.84555917011294" lon="9.103783068213847"><ele>276.0</ele><time>2026-04-06T12:29:33Z</time></trkpt><trkpt lat="44.845379017097464" lon="9.104024532556716"><ele>277.5</ele><time>2026-04-06T12:29:34Z</time></trkpt><trkpt lat="44.845200083643704" lon="9.10426349876419"><ele>279.0</ele><time>2026-04-06T12:29:35Z</time></trkpt><trkpt lat="44.845025081864584" lon="9.104506086049994"><ele>279.0</ele><time>2026-04-06T12:29:36Z</time></trkpt><trkpt lat="44.84484295858518" lon="9.104746931081412"><ele>279.0</ele><time>2026-04-06T12:29:37Z</time></trkpt><trkpt lat="44.84465878318213" lon="9.104984276898906"><ele>280.0</ele><time>2026-04-06T12:29:38Z</time></trkpt><trkpt lat="44.84447657845465" lon="9.105225934203068"><ele>281.0</ele><time>2026-04-06T12:29:39Z</time></trkpt><trkpt lat="44.844295142199464" lon="9.105468630819635"><ele>281.0</ele><time>2026-04-06T12:29:40Z</time></trkpt><trkpt lat="44.84411099419643" lon="9.105708964931123"><ele>281.0</ele><time>2026-04-06T12:29:41Z</time></trkpt><trkpt lat="44.84392593825208" lon="9.105948357064912"><ele>282.0</ele><time>2026-04-06T12:29:42Z</time></trkpt><trkpt lat="44.84374293031586" lon="9.106189790514644"><ele>283.0</ele><time>2026-04-06T12:29:43Z</time></trkpt><trkpt lat="44.8435612834215" lon="9.106431807169193"><ele>283.5</ele><time>2026-04-06T12:29:44Z</time></trkpt><trkpt lat="44.84338190240087" lon="9.106675200629285"><ele>284.0</ele><time>2026-04-06T12:29:45Z</time></trkpt><trkpt lat="44.843198833682784" lon="9.10691701923283"><ele>284.0</ele><time>2026-04-06T12:29:46Z</time></trkpt><trkpt lat="44.84302103412569" lon="9.107151050185463"><ele>284.0</ele><time>2026-04-06T12:29:47Z</time></trkpt><trkpt lat="44.842850637857964" lon="9.107377157735105"><ele>283.6666666666667</ele><time>2026-04-06T12:29:48Z</time></trkpt><trkpt lat="44.8426866569972" lon="9.10758966152926"><ele>283.3333333333333</ele><time>2026-04-06T12:29:49Z</time></trkpt><trkpt lat="44.84252746261927" lon="9.107799108716739"><ele>283.0</ele><time>2026-04-06T12:29:50Z</time></trkpt><trkpt lat="44.84237658569114" lon="9.10800460690021"><ele>283.0</ele><time>2026-04-06T12:29:51Z</time></trkpt><trkpt lat="44.84223034549896" lon="9.108202491846525"><ele>283.0</ele><time>2026-04-06T12:29:52Z</time></trkpt><trkpt lat="44.84208092337926" lon="9.10839708463144"><ele>283.0</ele><time>2026-04-06T12:29:53Z</time></trkpt><trkpt lat="44.84192859531984" lon="9.108593607620598"><ele>283.66666666666663</ele><time>2026-04-06T12:29:54Z</time></trkpt><trkpt lat="44.84177454233322" lon="9.10879602544437"><ele>284.3333333333333</ele><time>2026-04-06T12:29:55Z</time></trkpt><trkpt lat="44.8416195048569" lon="9.109002762664495"><ele>285.0</ele><time>2026-04-06T12:29:56Z</time></trkpt><trkpt lat="44.84145369902785" lon="9.109198449044886"><ele>285.6666666666667</ele><time>2026-04-06T12:29:57Z</time></trkpt><trkpt lat="44.84126823281508" lon="9.10935887753753"><ele>286.33333333333337</ele><time>2026-04-06T12:29:58Z</time></trkpt><trkpt lat="44.84106378480345" lon="9.10948295321205"><ele>287.0</ele><time>2026-04-06T12:29:59Z</time></trkpt><trkpt lat="44.84085184525499" lon="9.109593826148881"><ele>287.0</ele><time>2026-04-06T12:30:00Z</time></trkpt><trkpt lat="44.84064172108113" lon="9.10970866101011"><ele>287.0</ele><time>2026-04-06T12:30:01Z</time></trkpt><trkpt lat="44.84043199678946" lon="9.1098327517136"><ele>287.0</ele><time>2026-04-06T12:30:02Z</time></trkpt><trkpt lat="44.84021901143687" lon="9.109966204675105"><ele>287.0</ele><time>2026-04-06T12:30:03Z</time></trkpt><trkpt lat="44.840003984872546" lon="9.110100399696938"><ele>287.0</ele><time>2026-04-06T12:30:04Z</time></trkpt><trkpt lat="44.83978806670887" lon="9.110234408331667"><ele>287.0</ele><time>2026-04-06T12:30:05Z</time></trkpt><trkpt lat="44.839567579167166" lon="9.11036934856735"><ele>287.0</ele><time>2026-04-06T12:30:06Z</time></trkpt><trkpt lat="44.83934784250081" lon="9.110500539912815"><ele>287.0</ele><time>2026-04-06T12:30:07Z</time></trkpt><trkpt lat="44.839131094619916" lon="9.11063324455673"><ele>287.0</ele><time>2026-04-06T12:30:08Z</time></trkpt><trkpt lat="44.83892335272795" lon="9.110755038675308"><ele>287.0</ele><time>2026-04-06T12:30:09Z</time></trkpt><trkpt lat="44.838713656184034" lon="9.110881571945438"><ele>287.0</ele><time>2026-04-06T12:30:10Z</time></trkpt><trkpt lat="44.83850381638131" lon="9.111008474103718"><ele>287.0</ele><time>2026-04-06T12:30:11Z</time></trkpt><trkpt lat="44.838294235273054" lon="9.111136945303134"><ele>287.0</ele><time>2026-04-06T12:30:12Z</time></trkpt><trkpt lat="44.83808606008569" lon="9.111267947433381"><ele>287.0</ele><time>2026-04-06T12:30:13Z</time></trkpt><trkpt lat="44.83787778454444" lon="9.111394487081089"><ele>287.0</ele><time>2026-04-06T12:30:14Z</time></trkpt><trkpt lat="44.83767001567091" lon="9.11151719179942"><ele>287.0</ele><time>2026-04-06T12:30:15Z</time></trkpt><trkpt lat="44.837472286753126" lon="9.111631708873993"><ele>287.0</ele><time>2026-04-06T12:30:16Z</time></trkpt><trkpt lat="44.83729213489132" lon="9.111739044748465"><ele>288.33333333333337</ele><time>2026-04-06T12:30:17Z</time></trkpt><trkpt lat="44.83712515448068" lon="9.11184026901539"><ele>289.6666666666667</ele><time>2026-04-06T12:30:18Z</time></trkpt><trkpt lat="44.83697537086143" lon="9.111934985695324"><ele>291.0</ele><time>2026-04-06T12:30:19Z</time></trkpt><trkpt lat="44.83682995660802" lon="9.11202124369654"><ele>290.6666666666667</ele><time>2026-04-06T12:30:20Z</time></trkpt><trkpt lat="44.83668463089933" lon="9.112120057817137"><ele>290.33333333333337</ele><time>2026-04-06T12:30:21Z</time></trkpt><trkpt lat="44.83655111946633" lon="9.112238407412171"><ele>290.0</ele><time>2026-04-06T12:30:22Z</time></trkpt><trkpt lat="44.83643110740571" lon="9.112394455326813"><ele>291.0</ele><time>2026-04-06T12:30:23Z</time></trkpt><trkpt lat="44.83632077432313" lon="9.112583224932273"><ele>292.0</ele><time>2026-04-06T12:30:24Z</time></trkpt><trkpt lat="44.83622435447258" lon="9.112795961875912"><ele>293.0</ele><time>2026-04-06T12:30:25Z</time></trkpt><trkpt lat="44.836141174073674" lon="9.113027220776747"><ele>293.33333333333337</ele><time>2026-04-06T12:30:26Z</time></trkpt><trkpt lat="44.83606161532542" lon="9.113269676905006"><ele>293.6666666666667</ele><time>2026-04-06T12:30:27Z</time></trkpt><trkpt lat="44.835979219211104" lon="9.11351458329148"><ele>294.0</ele><time>2026-04-06T12:30:28.001Z</time></trkpt><trkpt lat="44.835894569603894" lon="9.11376414506738"><ele>293.0</ele><time>2026-04-06T12:30:29.001Z</time></trkpt><trkpt lat="44.83580699219736" lon="9.114016546159352"><ele>292.0</ele><time>2026-04-06T12:30:30.001Z</time></trkpt><trkpt lat="44.835719272266594" lon="9.11427117900378"><ele>291.0</ele><time>2026-04-06T12:30:31.001Z</time></trkpt><trkpt lat="44.835633244309406" lon="9.114524595082376"><ele>291.0</ele><time>2026-04-06T12:30:32.001Z</time></trkpt><trkpt lat="44.83554824868153" lon="9.11476934797114"><ele>291.0</ele><time>2026-04-06T12:30:33.001Z</time></trkpt><trkpt lat="44.83545620758787" lon="9.115006273711632"><ele>291.0</ele><time>2026-04-06T12:30:34.001Z</time></trkpt><trkpt lat="44.83533871320391" lon="9.115225398717534"><ele>291.3333333333333</ele><time>2026-04-06T12:30:35.001Z</time></trkpt><trkpt lat="44.83519988773721" lon="9.115422760842474"><ele>291.66666666666663</ele><time>2026-04-06T12:30:36.001Z</time></trkpt><trkpt lat="44.835060198834974" lon="9.115623823092964"><ele>292.0</ele><time>2026-04-06T12:30:37.001Z</time></trkpt><trkpt lat="44.83492290371653" lon="9.115837123172444"><ele>294.3333333333333</ele><time>2026-04-06T12:30:38.001Z</time></trkpt><trkpt lat="44.83478704028573" lon="9.1160600805414"><ele>296.6666666666667</ele><time>2026-04-06T12:30:39.001Z</time></trkpt><trkpt lat="44.83464760018996" lon="9.116281466037481"><ele>299.0</ele><time>2026-04-06T12:30:40.001Z</time></trkpt><trkpt lat="44.83450866486772" lon="9.116499997550116"><ele>298.33333333333337</ele><time>2026-04-06T12:30:41.001Z</time></trkpt><trkpt lat="44.83436777971771" lon="9.116709362957693"><ele>297.6666666666667</ele><time>2026-04-06T12:30:42.001Z</time></trkpt><trkpt lat="44.83421108330538" lon="9.116884103776247"><ele>297.0</ele><time>2026-04-06T12:30:43.001Z</time></trkpt><trkpt lat="44.83403702927028" lon="9.117029062628818"><ele>297.0</ele><time>2026-04-06T12:30:44.001Z</time></trkpt><trkpt lat="44.83385244204182" lon="9.11715408725612"><ele>297.0</ele><time>2026-04-06T12:30:45.001Z</time></trkpt><trkpt lat="44.833662516374346" lon="9.11727162398257"><ele>297.0</ele><time>2026-04-06T12:30:46.001Z</time></trkpt><trkpt lat="44.83347031936086" lon="9.117386480097533"><ele>298.6666666666667</ele><time>2026-04-06T12:30:47.001Z</time></trkpt><trkpt lat="44.833280942996936" lon="9.117508559680529"><ele>300.33333333333337</ele><time>2026-04-06T12:30:48.001Z</time></trkpt><trkpt lat="44.83308721370555" lon="9.117631373202402"><ele>302.0</ele><time>2026-04-06T12:30:49.001Z</time></trkpt><trkpt lat="44.832894445897395" lon="9.117751695589616"><ele>302.0</ele><time>2026-04-06T12:30:50.001Z</time></trkpt><trkpt lat="44.83270321794015" lon="9.117873807443813"><ele>302.0</ele><time>2026-04-06T12:30:51.001Z</time></trkpt><trkpt lat="44.832508378664855" lon="9.117996031322564"><ele>302.0</ele><time>2026-04-06T12:30:52.001Z</time></trkpt><trkpt lat="44.83231802718457" lon="9.118118609452367"><ele>302.33333333333337</ele><time>2026-04-06T12:30:53.001Z</time></trkpt><trkpt lat="44.832140513997906" lon="9.118213077732877"><ele>302.6666666666667</ele><time>2026-04-06T12:30:54.001Z</time></trkpt><trkpt lat="44.83195255931367" lon="9.118286027973785"><ele>303.0</ele><time>2026-04-06T12:30:55.001Z</time></trkpt><trkpt lat="44.831755710986755" lon="9.11827692930968"><ele>301.3333333333333</ele><time>2026-04-06T12:30:56.001Z</time></trkpt><trkpt lat="44.8315569887603" lon="9.118265888712974"><ele>299.66666666666663</ele><time>2026-04-06T12:30:57.001Z</time></trkpt><trkpt lat="44.83137129129945" lon="9.118271696937555"><ele>298.0</ele><time>2026-04-06T12:30:58.001Z</time></trkpt><trkpt lat="44.8311920742357" lon="9.118287321667053"><ele>298.0</ele><time>2026-04-06T12:30:59.001Z</time></trkpt><trkpt lat="44.83101407425143" lon="9.118349684091664"><ele>298.0</ele><time>2026-04-06T12:31:00.001Z</time></trkpt><trkpt lat="44.830846420347434" lon="9.118446842032554"><ele>298.0</ele><time>2026-04-06T12:31:01.001Z</time></trkpt><trkpt lat="44.830701420859576" lon="9.118586450922592"><ele>299.66666666666663</ele><time>2026-04-06T12:31:02.001Z</time></trkpt><trkpt lat="44.830568095398675" lon="9.118768425833697"><ele>301.3333333333333</ele><time>2026-04-06T12:31:03.001Z</time></trkpt><trkpt lat="44.83044132405434" lon="9.118989578800953"><ele>303.0</ele><time>2026-04-06T12:31:04.001Z</time></trkpt><trkpt lat="44.830328076556924" lon="9.119240248369627"><ele>302.6666666666667</ele><time>2026-04-06T12:31:05.001Z</time></trkpt><trkpt lat="44.83027094128781" lon="9.11944886320549"><ele>302.33333333333337</ele><time>2026-04-06T12:31:06.001Z</time></trkpt><trkpt lat="44.830193564663084" lon="9.11965570525464"><ele>302.0</ele><time>2026-04-06T12:31:07.001Z</time></trkpt><trkpt lat="44.83011230354979" lon="9.119859083596353"><ele>303.33333333333337</ele><time>2026-04-06T12:31:08.001Z</time></trkpt><trkpt lat="44.83001298823262" lon="9.120040754693362"><ele>304.6666666666667</ele><time>2026-04-06T12:31:09.001Z</time></trkpt><trkpt lat="44.82988788300883" lon="9.120188740161217"><ele>306.0</ele><time>2026-04-06T12:31:10.001Z</time></trkpt><trkpt lat="44.82975276962951" lon="9.12030614286386"><ele>306.0</ele><time>2026-04-06T12:31:11.001Z</time></trkpt><trkpt lat="44.82962002433016" lon="9.120397853485773"><ele>306.0</ele><time>2026-04-06T12:31:12.001Z</time></trkpt><trkpt lat="44.829484580241115" lon="9.120468483295562"><ele>306.0</ele><time>2026-04-06T12:31:13.001Z</time></trkpt><trkpt lat="44.829353952468274" lon="9.1205188086505"><ele>306.0</ele><time>2026-04-06T12:31:14.001Z</time></trkpt><trkpt lat="44.8292216951739" lon="9.120560893580752"><ele>305.25</ele><time>2026-04-06T12:31:15.001Z</time></trkpt><trkpt lat="44.82909347299647" lon="9.120606264055938"><ele>304.5</ele><time>2026-04-06T12:31:16.001Z</time></trkpt><trkpt lat="44.82896381622311" lon="9.120657975449273"><ele>303.75</ele><time>2026-04-06T12:31:17.001Z</time></trkpt><trkpt lat="44.82883214744677" lon="9.120706283687335"><ele>303.0</ele><time>2026-04-06T12:31:18.001Z</time></trkpt><trkpt lat="44.82870247836738" lon="9.120755714079472"><ele>304.25</ele><time>2026-04-06T12:31:19.001Z</time></trkpt><trkpt lat="44.828579287516156" lon="9.120806500798913"><ele>305.5</ele><time>2026-04-06T12:31:20.001Z</time></trkpt><trkpt lat="44.82846331304062" lon="9.120852180765155"><ele>306.75</ele><time>2026-04-06T12:31:21.001Z</time></trkpt><trkpt lat="44.828350692302536" lon="9.120894087002888"><ele>308.0</ele><time>2026-04-06T12:31:22.001Z</time></trkpt><trkpt lat="44.82824352447152" lon="9.120933991459122"><ele>308.0</ele><time>2026-04-06T12:31:23.001Z</time></trkpt><trkpt lat="44.82813449789155" lon="9.120975871529788"><ele>308.0</ele><time>2026-04-06T12:31:24.001Z</time></trkpt><trkpt lat="44.82803152339607" lon="9.121015838183274"><ele>308.0</ele><time>2026-04-06T12:31:25.001Z</time></trkpt><trkpt lat="44.82791975857418" lon="9.121063321911675"><ele>308.0</ele><time>2026-04-06T12:31:26.001Z</time></trkpt><trkpt lat="44.827798021468524" lon="9.121111715200657"><ele>308.0</ele><time>2026-04-06T12:31:27.001Z</time></trkpt><trkpt lat="44.82766832207169" lon="9.121173178777372"><ele>308.0</ele><time>2026-04-06T12:31:28.001Z</time></trkpt><trkpt lat="44.82753478018838" lon="9.121244130285753"><ele>308.0</ele><time>2026-04-06T12:31:29.001Z</time></trkpt><trkpt lat="44.8274111596598" lon="9.121330665459222"><ele>308.0</ele><time>2026-04-06T12:31:30.001Z</time></trkpt><trkpt lat="44.827292236433486" lon="9.121425882707157"><ele>306.5</ele><time>2026-04-06T12:31:31.001Z</time></trkpt><trkpt lat="44.827181821189896" lon="9.12152170712245"><ele>305.0</ele><time>2026-04-06T12:31:32.001Z</time></trkpt><trkpt lat="44.82707920263851" lon="9.121629261437883"><ele>303.5</ele><time>2026-04-06T12:31:33.001Z</time></trkpt><trkpt lat="44.82698157244343" lon="9.121734256112035"><ele>302.0</ele><time>2026-04-06T12:31:34Z</time></trkpt><trkpt lat="44.82688568727029" lon="9.1218412122733"><ele>303.25</ele><time>2026-04-06T12:31:35Z</time></trkpt><trkpt lat="44.826787482738816" lon="9.121929934987326"><ele>304.5</ele><time>2026-04-06T12:31:36Z</time></trkpt><trkpt lat="44.82669455735469" lon="9.122017361695823"><ele>305.75</ele><time>2026-04-06T12:31:37Z</time></trkpt><trkpt lat="44.82659871219137" lon="9.122109707608208"><ele>307.0</ele><time>2026-04-06T12:31:38Z</time></trkpt><trkpt lat="44.82650244598925" lon="9.122206882501143"><ele>307.0</ele><time>2026-04-06T12:31:39Z</time></trkpt><trkpt lat="44.826411932238074" lon="9.122315477955715"><ele>307.0</ele><time>2026-04-06T12:31:40Z</time></trkpt><trkpt lat="44.82633008769075" lon="9.122426734004312"><ele>307.0</ele><time>2026-04-06T12:31:41Z</time></trkpt><trkpt lat="44.82624620815121" lon="9.122557497696747"><ele>307.0</ele><time>2026-04-06T12:31:42Z</time></trkpt><trkpt lat="44.826159876374895" lon="9.122705724834448"><ele>307.3333333333333</ele><time>2026-04-06T12:31:43Z</time></trkpt><trkpt lat="44.82605522378988" lon="9.122861328702774"><ele>307.6666666666667</ele><time>2026-04-06T12:31:44Z</time></trkpt><trkpt lat="44.82594130305023" lon="9.123066903008395"><ele>308.0</ele><time>2026-04-06T12:31:45Z</time></trkpt><trkpt lat="44.82584647000713" lon="9.123268133483604"><ele>308.0</ele><time>2026-04-06T12:31:46Z</time></trkpt><trkpt lat="44.82576134031904" lon="9.123395061118991"><ele>308.0</ele><time>2026-04-06T12:31:47Z</time></trkpt><trkpt lat="44.82569464981888" lon="9.123530977359302"><ele>308.0</ele><time>2026-04-06T12:31:48Z</time></trkpt><trkpt lat="44.8256277921358" lon="9.12365785572375"><ele>308.0</ele><time>2026-04-06T12:31:49Z</time></trkpt><trkpt lat="44.825559275284725" lon="9.12379106000116"><ele>308.0</ele><time>2026-04-06T12:31:50Z</time></trkpt><trkpt lat="44.8254886113916" lon="9.123927846463074"><ele>308.0</ele><time>2026-04-06T12:31:51Z</time></trkpt><trkpt lat="44.82540724502878" lon="9.12403828633429"><ele>308.0</ele><time>2026-04-06T12:31:52Z</time></trkpt><trkpt lat="44.825346894229966" lon="9.124148232338966"><ele>308.0</ele><time>2026-04-06T12:31:53Z</time></trkpt><trkpt lat="44.82530396317547" lon="9.124256304872425"><ele>308.0</ele><time>2026-04-06T12:31:54Z</time></trkpt><trkpt lat="44.82526123616979" lon="9.12433774192057"><ele>308.25</ele><time>2026-04-06T12:31:55Z</time></trkpt><trkpt lat="44.82519833244885" lon="9.124416576216792"><ele>308.5</ele><time>2026-04-06T12:31:56Z</time></trkpt><trkpt lat="44.82513389243481" lon="9.124532958779477"><ele>308.75</ele><time>2026-04-06T12:31:57Z</time></trkpt><trkpt lat="44.82502458914759" lon="9.12476442577719"><ele>309.0</ele><time>2026-04-06T12:31:58Z</time></trkpt><trkpt lat="44.82491975895328" lon="9.12494111570466"><ele>309.5</ele><time>2026-04-06T12:31:59Z</time></trkpt><trkpt lat="44.8247984359858" lon="9.125163324598793"><ele>310.0</ele><time>2026-04-06T12:32:00Z</time></trkpt><trkpt lat="44.82464448725303" lon="9.125448925645495"><ele>310.0</ele><time>2026-04-06T12:32:01Z</time></trkpt><trkpt lat="44.824461368966325" lon="9.12578308544282"><ele>310.0</ele><time>2026-04-06T12:32:02Z</time></trkpt><trkpt lat="44.824282155444436" lon="9.126098568760778"><ele>310.0</ele><time>2026-04-06T12:32:03Z</time></trkpt><trkpt lat="44.82409227387909" lon="9.126420250886119"><ele>310.0</ele><time>2026-04-06T12:32:04Z</time></trkpt><trkpt lat="44.823925978895325" lon="9.126704834510276"><ele>310.5</ele><time>2026-04-06T12:32:05Z</time></trkpt><trkpt lat="44.823775790788574" lon="9.126974764457445"><ele>311.0</ele><time>2026-04-06T12:32:06Z</time></trkpt><trkpt lat="44.82363615533365" lon="9.12723176357455"><ele>311.33333333333337</ele><time>2026-04-06T12:32:07Z</time></trkpt><trkpt lat="44.823501981225114" lon="9.127461845077985"><ele>311.6666666666667</ele><time>2026-04-06T12:32:08Z</time></trkpt><trkpt lat="44.82337787358886" lon="9.127673559810797"><ele>312.0</ele><time>2026-04-06T12:32:09Z</time></trkpt><trkpt lat="44.823263718064965" lon="9.12786964753931"><ele>312.0</ele><time>2026-04-06T12:32:10Z</time></trkpt><trkpt lat="44.82316640249263" lon="9.12805793837587"><ele>312.0</ele><time>2026-04-06T12:32:11Z</time></trkpt><trkpt lat="44.82307142647772" lon="9.128253517429622"><ele>312.0</ele><time>2026-04-06T12:32:12Z</time></trkpt><trkpt lat="44.82297879835349" lon="9.128458951796736"><ele>312.3333333333333</ele><time>2026-04-06T12:32:13Z</time></trkpt><trkpt lat="44.822895481065515" lon="9.128666104774904"><ele>312.66666666666663</ele><time>2026-04-06T12:32:14Z</time></trkpt><trkpt lat="44.822824769412605" lon="9.128886980555544"><ele>313.0</ele><time>2026-04-06T12:32:15Z</time></trkpt><trkpt lat="44.822758401366976" lon="9.129112525068493"><ele>314.3333333333333</ele><time>2026-04-06T12:32:16Z</time></trkpt><trkpt lat="44.82270960583856" lon="9.129345356649175"><ele>315.6666666666667</ele><time>2026-04-06T12:32:17Z</time></trkpt><trkpt lat="44.822670304795516" lon="9.12958013790803"><ele>317.0</ele><time>2026-04-06T12:32:18Z</time></trkpt><trkpt lat="44.82264150795775" lon="9.129815194701859"><ele>317.6666666666667</ele><time>2026-04-06T12:32:19Z</time></trkpt><trkpt lat="44.822621362646856" lon="9.130051061589349"><ele>318.3333333333333</ele><time>2026-04-06T12:32:20Z</time></trkpt><trkpt lat="44.82262876135339" lon="9.130291670402562"><ele>319.0</ele><time>2026-04-06T12:32:21Z</time></trkpt><trkpt lat="44.822632331893445" lon="9.130542506843208"><ele>318.66666666666663</ele><time>2026-04-06T12:32:22Z</time></trkpt><trkpt lat="44.8226433279194" lon="9.130800827421755"><ele>318.3333333333333</ele><time>2026-04-06T12:32:23Z</time></trkpt><trkpt lat="44.82265596002048" lon="9.131050820467378"><ele>318.0</ele><time>2026-04-06T12:32:24Z</time></trkpt><trkpt lat="44.822668079137316" lon="9.131309443219159"><ele>321.3333333333333</ele><time>2026-04-06T12:32:25Z</time></trkpt><trkpt lat="44.822679412814395" lon="9.13157229153919"><ele>324.66666666666663</ele><time>2026-04-06T12:32:26Z</time></trkpt><trkpt lat="44.82268945465479" lon="9.13183974431614"><ele>328.0</ele><time>2026-04-06T12:32:27Z</time></trkpt><trkpt lat="44.82270222453005" lon="9.132093902442056"><ele>328.0</ele><time>2026-04-06T12:32:28Z</time></trkpt><trkpt lat="44.822711714774854" lon="9.132341802893112"><ele>328.0</ele><time>2026-04-06T12:32:29Z</time></trkpt><trkpt lat="44.82272014843119" lon="9.13257951099276"><ele>328.0</ele><time>2026-04-06T12:32:30Z</time></trkpt><trkpt lat="44.82272734690021" lon="9.132830166986112"><ele>328.0</ele><time>2026-04-06T12:32:31.001Z</time></trkpt><trkpt lat="44.822739883851845" lon="9.133073810944095"><ele>328.0</ele><time>2026-04-06T12:32:32.001Z</time></trkpt><trkpt lat="44.82275960462" lon="9.133310539428784"><ele>328.0</ele><time>2026-04-06T12:32:33.001Z</time></trkpt><trkpt lat="44.82278518166044" lon="9.13354633061318"><ele>328.0</ele><time>2026-04-06T12:32:34.001Z</time></trkpt><trkpt lat="44.822818998136185" lon="9.133778400069325"><ele>328.0</ele><time>2026-04-06T12:32:35.001Z</time></trkpt><trkpt lat="44.82286405974563" lon="9.134007108363928"><ele>328.0</ele><time>2026-04-06T12:32:36.001Z</time></trkpt><trkpt lat="44.822925772257484" lon="9.134258624159093"><ele>328.0</ele><time>2026-04-06T12:32:37.001Z</time></trkpt><trkpt lat="44.82300300718734" lon="9.134556287051149"><ele>328.0</ele><time>2026-04-06T12:32:38.001Z</time></trkpt><trkpt lat="44.823123492147815" lon="9.134867662324588"><ele>328.0</ele><time>2026-04-06T12:32:39.001Z</time></trkpt><trkpt lat="44.82322912784503" lon="9.135174505649317"><ele>328.0</ele><time>2026-04-06T12:32:40.001Z</time></trkpt><trkpt lat="44.823332728908184" lon="9.135451497800151"><ele>328.0</ele><time>2026-04-06T12:32:41.001Z</time></trkpt><trkpt lat="44.82343201716125" lon="9.13571944161685"><ele>328.0</ele><time>2026-04-06T12:32:42.001Z</time></trkpt><trkpt lat="44.82352288912728" lon="9.135992162787758"><ele>328.0</ele><time>2026-04-06T12:32:43.001Z</time></trkpt><trkpt lat="44.82359813933168" lon="9.136278066941372"><ele>331.0</ele><time>2026-04-06T12:32:44.001Z</time></trkpt><trkpt lat="44.82365093599956" lon="9.136574685048426"><ele>334.0</ele><time>2026-04-06T12:32:45.001Z</time></trkpt><trkpt lat="44.823682901305396" lon="9.136880795914923"><ele>337.0</ele><time>2026-04-06T12:32:46.001Z</time></trkpt><trkpt lat="44.82369913015223" lon="9.137193024084604"><ele>335.66666666666663</ele><time>2026-04-06T12:32:47.001Z</time></trkpt><trkpt lat="44.8236965728585" lon="9.137509485510165"><ele>334.3333333333333</ele><time>2026-04-06T12:32:48.001Z</time></trkpt><trkpt lat="44.823674685514426" lon="9.137823832136583"><ele>333.0</ele><time>2026-04-06T12:32:49.001Z</time></trkpt><trkpt lat="44.823648151800796" lon="9.138135103710377"><ele>334.0</ele><time>2026-04-06T12:32:50.001Z</time></trkpt><trkpt lat="44.82362362669481" lon="9.138423890686543"><ele>335.0</ele><time>2026-04-06T12:32:51.001Z</time></trkpt><trkpt lat="44.82360666720821" lon="9.13869382895119"><ele>336.0</ele><time>2026-04-06T12:32:52.001Z</time></trkpt><trkpt lat="44.823588586890054" lon="9.138951090330792"><ele>337.6666666666667</ele><time>2026-04-06T12:32:53.001Z</time></trkpt><trkpt lat="44.82356269409399" lon="9.13918676864943"><ele>339.33333333333337</ele><time>2026-04-06T12:32:54.001Z</time></trkpt><trkpt lat="44.82354466035814" lon="9.139419638711539"><ele>341.0</ele><time>2026-04-06T12:32:55.001Z</time></trkpt><trkpt lat="44.823530273268354" lon="9.139655968558944"><ele>341.0</ele><time>2026-04-06T12:32:56.001Z</time></trkpt><trkpt lat="44.82352021829812" lon="9.139887630466038"><ele>341.0</ele><time>2026-04-06T12:32:57.001Z</time></trkpt><trkpt lat="44.82352109503595" lon="9.14015314784361"><ele>341.0</ele><time>2026-04-06T12:32:58.001Z</time></trkpt><trkpt lat="44.82354288342939" lon="9.140455372881291"><ele>341.5</ele><time>2026-04-06T12:32:59.001Z</time></trkpt><trkpt lat="44.82355791520404" lon="9.140792218072786"><ele>342.0</ele><time>2026-04-06T12:33:00.001Z</time></trkpt><trkpt lat="44.82359282496231" lon="9.14113541090616"><ele>342.0</ele><time>2026-04-06T12:33:01.001Z</time></trkpt><trkpt lat="44.823640640258695" lon="9.1414873312796"><ele>342.0</ele><time>2026-04-06T12:33:02.001Z</time></trkpt><trkpt lat="44.82367484744728" lon="9.141839935789163"><ele>341.5</ele><time>2026-04-06T12:33:03.001Z</time></trkpt><trkpt lat="44.823715386240124" lon="9.142186308525142"><ele>341.0</ele><time>2026-04-06T12:33:04.001Z</time></trkpt><trkpt lat="44.823751557338646" lon="9.14252999966818"><ele>339.5</ele><time>2026-04-06T12:33:05.001Z</time></trkpt><trkpt lat="44.82378390860361" lon="9.142866574993601"><ele>338.0</ele><time>2026-04-06T12:33:06.001Z</time></trkpt><trkpt lat="44.823814909201644" lon="9.143196251578727"><ele>337.0</ele><time>2026-04-06T12:33:07.001Z</time></trkpt><trkpt lat="44.8238457618414" lon="9.143522246578565"><ele>336.0</ele><time>2026-04-06T12:33:08.001Z</time></trkpt><trkpt lat="44.82386992199119" lon="9.143847727827552"><ele>335.5</ele><time>2026-04-06T12:33:09.001Z</time></trkpt><trkpt lat="44.823888437077095" lon="9.144172738772692"><ele>335.0</ele><time>2026-04-06T12:33:10.001Z</time></trkpt><trkpt lat="44.82390410056718" lon="9.144501986152264"><ele>335.0</ele><time>2026-04-06T12:33:11.001Z</time></trkpt><trkpt lat="44.82391200387375" lon="9.144830058777082"><ele>335.0</ele><time>2026-04-06T12:33:12.001Z</time></trkpt><trkpt lat="44.82391094663461" lon="9.14516157069105"><ele>336.0</ele><time>2026-04-06T12:33:13.001Z</time></trkpt><trkpt lat="44.82390490458981" lon="9.145494324584554"><ele>337.0</ele><time>2026-04-06T12:33:14.001Z</time></trkpt><trkpt lat="44.823891975117895" lon="9.145825816621791"><ele>340.0</ele><time>2026-04-06T12:33:15.001Z</time></trkpt><trkpt lat="44.82387047272977" lon="9.146155782348215"><ele>343.0</ele><time>2026-04-06T12:33:16.001Z</time></trkpt><trkpt lat="44.82384564277731" lon="9.146487586987988"><ele>344.0</ele><time>2026-04-06T12:33:17.001Z</time></trkpt><trkpt lat="44.82381499099313" lon="9.146818836379383"><ele>345.0</ele><time>2026-04-06T12:33:18.001Z</time></trkpt><trkpt lat="44.82378145738987" lon="9.147147297820625"><ele>344.0</ele><time>2026-04-06T12:33:19.001Z</time></trkpt><trkpt lat="44.823745247739275" lon="9.147476646311942"><ele>343.0</ele><time>2026-04-06T12:33:20.001Z</time></trkpt><trkpt lat="44.8237090071221" lon="9.147805962400172"><ele>343.0</ele><time>2026-04-06T12:33:21.001Z</time></trkpt><trkpt lat="44.82367476126773" lon="9.148135542302791"><ele>343.0</ele><time>2026-04-06T12:33:22.001Z</time></trkpt><trkpt lat="44.823643954181904" lon="9.14846220776167"><ele>342.66666666666663</ele><time>2026-04-06T12:33:23.001Z</time></trkpt><trkpt lat="44.823615521815555" lon="9.148776331451872"><ele>342.3333333333333</ele><time>2026-04-06T12:33:24.001Z</time></trkpt><trkpt lat="44.82358629290169" lon="9.149083691902208"><ele>342.0</ele><time>2026-04-06T12:33:25.001Z</time></trkpt><trkpt lat="44.82356009540203" lon="9.14939839263114"><ele>343.0</ele><time>2026-04-06T12:33:26.001Z</time></trkpt><trkpt lat="44.82353541683794" lon="9.149722581607737"><ele>344.0</ele><time>2026-04-06T12:33:27.001Z</time></trkpt><trkpt lat="44.82349557950985" lon="9.150044569051579"><ele>345.5</ele><time>2026-04-06T12:33:28.001Z</time></trkpt><trkpt lat="44.82349082525551" lon="9.150369697734678"><ele>347.0</ele><time>2026-04-06T12:33:29.001Z</time></trkpt><trkpt lat="44.823473369169136" lon="9.15067884266187"><ele>344.6666666666667</ele><time>2026-04-06T12:33:30.001Z</time></trkpt><trkpt lat="44.82345975365932" lon="9.150973880854048"><ele>342.3333333333333</ele><time>2026-04-06T12:33:31.001Z</time></trkpt><trkpt lat="44.823449028791806" lon="9.1512586491755"><ele>340.0</ele><time>2026-04-06T12:33:32.001Z</time></trkpt><trkpt lat="44.82343925990213" lon="9.151530015228376"><ele>340.3333333333333</ele><time>2026-04-06T12:33:33.001Z</time></trkpt><trkpt lat="44.82343205566297" lon="9.151790108618064"><ele>340.6666666666667</ele><time>2026-04-06T12:33:34.001Z</time></trkpt><trkpt lat="44.82342482181233" lon="9.152047402442424"><ele>341.0</ele><time>2026-04-06T12:33:35.001Z</time></trkpt><trkpt lat="44.82341923933543" lon="9.1523123201315"><ele>342.33333333333337</ele><time>2026-04-06T12:33:36.001Z</time></trkpt><trkpt lat="44.82341287642646" lon="9.15258408872825"><ele>343.6666666666667</ele><time>2026-04-06T12:33:37.001Z</time></trkpt><trkpt lat="44.82340272305695" lon="9.152853087393348"><ele>345.0</ele><time>2026-04-06T12:33:38.001Z</time></trkpt><trkpt lat="44.82339139085164" lon="9.153106515216415"><ele>345.0</ele><time>2026-04-06T12:33:39.001Z</time></trkpt><trkpt lat="44.823386362200395" lon="9.15333852936736"><ele>345.0</ele><time>2026-04-06T12:33:40Z</time></trkpt><trkpt lat="44.82338544167562" lon="9.153554087926617"><ele>345.0</ele><time>2026-04-06T12:33:41Z</time></trkpt><trkpt lat="44.82338309388917" lon="9.15376666306671"><ele>345.0</ele><time>2026-04-06T12:33:42Z</time></trkpt><trkpt lat="44.823383019379754" lon="9.153961530868028"><ele>345.0</ele><time>2026-04-06T12:33:43Z</time></trkpt><trkpt lat="44.82338091575117" lon="9.15414736625999"><ele>345.0</ele><time>2026-04-06T12:33:44Z</time></trkpt><trkpt lat="44.8233758539016" lon="9.154319880648574"><ele>345.0</ele><time>2026-04-06T12:33:45Z</time></trkpt><trkpt lat="44.82337082181068" lon="9.15448543305434"><ele>346.0</ele><time>2026-04-06T12:33:46Z</time></trkpt><trkpt lat="44.82336936714194" lon="9.154632980743346"><ele>347.0</ele><time>2026-04-06T12:33:47Z</time></trkpt><trkpt lat="44.82336689119336" lon="9.154772767285985"><ele>348.0</ele><time>2026-04-06T12:33:48Z</time></trkpt><trkpt lat="44.8233664633351" lon="9.154901788544814"><ele>349.0</ele><time>2026-04-06T12:33:49Z</time></trkpt><trkpt lat="44.82336729334078" lon="9.155037478593183"><ele>350.0</ele><time>2026-04-06T12:33:50Z</time></trkpt><trkpt lat="44.82336294076605" lon="9.15518145221509"><ele>350.6</ele><time>2026-04-06T12:33:51Z</time></trkpt><trkpt lat="44.823357701477825" lon="9.155331271144455"><ele>351.2</ele><time>2026-04-06T12:33:52Z</time></trkpt><trkpt lat="44.82335240341794" lon="9.155477882476928"><ele>351.79999999999995</ele><time>2026-04-06T12:33:53Z</time></trkpt><trkpt lat="44.823347720197226" lon="9.15562521308708"><ele>352.4</ele><time>2026-04-06T12:33:54Z</time></trkpt><trkpt lat="44.82334370884803" lon="9.155778101536043"><ele>353.0</ele><time>2026-04-06T12:33:55Z</time></trkpt><trkpt lat="44.823339966447165" lon="9.155929913046798"><ele>353.4</ele><time>2026-04-06T12:33:56Z</time></trkpt><trkpt lat="44.82333461775531" lon="9.156080702968172"><ele>353.79999999999995</ele><time>2026-04-06T12:33:57Z</time></trkpt><trkpt lat="44.82333040980021" lon="9.156235438248423"><ele>354.2</ele><time>2026-04-06T12:33:58Z</time></trkpt><trkpt lat="44.823328587446234" lon="9.156392209219147"><ele>354.6</ele><time>2026-04-06T12:33:59Z</time></trkpt><trkpt lat="44.82334598427858" lon="9.156528068264063"><ele>355.0</ele><time>2026-04-06T12:34:00Z</time></trkpt><trkpt lat="44.82338754267658" lon="9.156666418762152"><ele>355.0</ele><time>2026-04-06T12:34:01Z</time></trkpt><trkpt lat="44.82345561314013" lon="9.156791170153827"><ele>355.0</ele><time>2026-04-06T12:34:02Z</time></trkpt><trkpt lat="44.82354520577136" lon="9.156901849473961"><ele>355.0</ele><time>2026-04-06T12:34:03Z</time></trkpt><trkpt lat="44.82365271490053" lon="9.156993037352596"><ele>355.0</ele><time>2026-04-06T12:34:04Z</time></trkpt><trkpt lat="44.82376297377172" lon="9.157086481485477"><ele>355.0</ele><time>2026-04-06T12:34:05Z</time></trkpt><trkpt lat="44.82386503122445" lon="9.157177696290201"><ele>355.0</ele><time>2026-04-06T12:34:06Z</time></trkpt><trkpt lat="44.82396121417033" lon="9.157264498036238"><ele>355.0</ele><time>2026-04-06T12:34:07Z</time></trkpt><trkpt lat="44.82405139482853" lon="9.157349708065187"><ele>355.0</ele><time>2026-04-06T12:34:08Z</time></trkpt><trkpt lat="44.824142928955204" lon="9.157435188790512"><ele>354.75</ele><time>2026-04-06T12:34:09Z</time></trkpt><trkpt lat="44.82424122790598" lon="9.157527076303666"><ele>354.5</ele><time>2026-04-06T12:34:10Z</time></trkpt><trkpt lat="44.82433904081346" lon="9.157621105429914"><ele>354.25</ele><time>2026-04-06T12:34:11Z</time></trkpt><trkpt lat="44.8244365990105" lon="9.157720211550387"><ele>354.0</ele><time>2026-04-06T12:34:12Z</time></trkpt><trkpt lat="44.82452297708158" lon="9.157831924043576"><ele>354.25</ele><time>2026-04-06T12:34:13Z</time></trkpt><trkpt lat="44.82459496284496" lon="9.1579568021024"><ele>354.5</ele><time>2026-04-06T12:34:14Z</time></trkpt><trkpt lat="44.82465303409659" lon="9.158108376528805"><ele>354.75</ele><time>2026-04-06T12:34:15Z</time></trkpt><trkpt lat="44.824702816584406" lon="9.158294880135577"><ele>355.0</ele><time>2026-04-06T12:34:16Z</time></trkpt><trkpt lat="44.82474608261626" lon="9.158541839981593"><ele>355.0</ele><time>2026-04-06T12:34:17Z</time></trkpt><trkpt lat="44.82478722300725" lon="9.158811942196627"><ele>355.0</ele><time>2026-04-06T12:34:18Z</time></trkpt><trkpt lat="44.82482402001572" lon="9.159096825552211"><ele>355.0</ele><time>2026-04-06T12:34:19Z</time></trkpt><trkpt lat="44.82485828347362" lon="9.159381293545378"><ele>354.5</ele><time>2026-04-06T12:34:20Z</time></trkpt><trkpt lat="44.824901416950134" lon="9.15969003226987"><ele>354.0</ele><time>2026-04-06T12:34:21Z</time></trkpt><trkpt lat="44.824957588174655" lon="9.160019804960472"><ele>354.0</ele><time>2026-04-06T12:34:22Z</time></trkpt><trkpt lat="44.82501259446026" lon="9.16035077924446"><ele>354.0</ele><time>2026-04-06T12:34:23Z</time></trkpt><trkpt lat="44.82505924411864" lon="9.160684170989267"><ele>354.5</ele><time>2026-04-06T12:34:24Z</time></trkpt><trkpt lat="44.82508502630732" lon="9.161046512115858"><ele>355.0</ele><time>2026-04-06T12:34:25Z</time></trkpt><trkpt lat="44.82509490568018" lon="9.161425491867828"><ele>356.5</ele><time>2026-04-06T12:34:26Z</time></trkpt><trkpt lat="44.82509439915928" lon="9.161821364207702"><ele>358.0</ele><time>2026-04-06T12:34:27Z</time></trkpt><trkpt lat="44.82509304568482" lon="9.162216847692605"><ele>358.5</ele><time>2026-04-06T12:34:28Z</time></trkpt><trkpt lat="44.82510166280947" lon="9.162606641786057"><ele>359.0</ele><time>2026-04-06T12:34:29Z</time></trkpt><trkpt lat="44.82511371909857" lon="9.162969556958547"><ele>358.5</ele><time>2026-04-06T12:34:30Z</time></trkpt><trkpt lat="44.825118637491656" lon="9.163297556315232"><ele>358.0</ele><time>2026-04-06T12:34:31Z</time></trkpt><trkpt lat="44.8250953848584" lon="9.163638348841339"><ele>358.0</ele><time>2026-04-06T12:34:32Z</time></trkpt><trkpt lat="44.82503598982013" lon="9.163971343615856"><ele>358.0</ele><time>2026-04-06T12:34:33Z</time></trkpt><trkpt lat="44.82495617890176" lon="9.164312160850324"><ele>358.0</ele><time>2026-04-06T12:34:34Z</time></trkpt><trkpt lat="44.824862362783755" lon="9.164641264674861"><ele>358.0</ele><time>2026-04-06T12:34:35Z</time></trkpt><trkpt lat="44.82477931986285" lon="9.1649513774315"><ele>359.5</ele><time>2026-04-06T12:34:36Z</time></trkpt><trkpt lat="44.824722987082986" lon="9.165271545953821"><ele>361.0</ele><time>2026-04-06T12:34:37Z</time></trkpt><trkpt lat="44.82467823981291" lon="9.165601066043122"><ele>363.0</ele><time>2026-04-06T12:34:38Z</time></trkpt><trkpt lat="44.82465089643518" lon="9.165939257141222"><ele>365.0</ele><time>2026-04-06T12:34:39.001Z</time></trkpt><trkpt lat="44.82462438217895" lon="9.166271069904216"><ele>366.5</ele><time>2026-04-06T12:34:40.001Z</time></trkpt><trkpt lat="44.82460107631411" lon="9.166595401113915"><ele>368.0</ele><time>2026-04-06T12:34:41.001Z</time></trkpt><trkpt lat="44.82459214544689" lon="9.166928741702286"><ele>368.0</ele><time>2026-04-06T12:34:42.001Z</time></trkpt><trkpt lat="44.82460114931464" lon="9.167265931053029"><ele>368.0</ele><time>2026-04-06T12:34:43.001Z</time></trkpt><trkpt lat="44.824628154316784" lon="9.167611101714598"><ele>367.0</ele><time>2026-04-06T12:34:44.001Z</time></trkpt><trkpt lat="44.824669175292804" lon="9.16796502313775"><ele>366.0</ele><time>2026-04-06T12:34:45.001Z</time></trkpt><trkpt lat="44.82471128691494" lon="9.168327800284946"><ele>366.0</ele><time>2026-04-06T12:34:46.001Z</time></trkpt><trkpt lat="44.824739638810875" lon="9.168697260788926"><ele>366.0</ele><time>2026-04-06T12:34:47.001Z</time></trkpt><trkpt lat="44.824742865534006" lon="9.16907434708305"><ele>368.5</ele><time>2026-04-06T12:34:48.001Z</time></trkpt><trkpt lat="44.82473519469611" lon="9.16945465855937"><ele>371.0</ele><time>2026-04-06T12:34:49.001Z</time></trkpt><trkpt lat="44.82473024449237" lon="9.169837344578063"><ele>371.0</ele><time>2026-04-06T12:34:50.001Z</time></trkpt><trkpt lat="44.82472732003478" lon="9.170226681286737"><ele>371.0</ele><time>2026-04-06T12:34:51.001Z</time></trkpt><trkpt lat="44.82472324112615" lon="9.170615267375515"><ele>371.0</ele><time>2026-04-06T12:34:52.001Z</time></trkpt><trkpt lat="44.824722816531256" lon="9.171003914179781"><ele>371.0</ele><time>2026-04-06T12:34:53.001Z</time></trkpt><trkpt lat="44.824724339363925" lon="9.171391774795856"><ele>372.0</ele><time>2026-04-06T12:34:54.001Z</time></trkpt><trkpt lat="44.82472518278822" lon="9.171778323004673"><ele>373.0</ele><time>2026-04-06T12:34:55.001Z</time></trkpt><trkpt lat="44.82472743763695" lon="9.172160752054202"><ele>374.0</ele><time>2026-04-06T12:34:56.001Z</time></trkpt><trkpt lat="44.82473008397307" lon="9.172540046174742"><ele>375.0</ele><time>2026-04-06T12:34:57.001Z</time></trkpt><trkpt lat="44.824732953917874" lon="9.172918462579915"><ele>376.0</ele><time>2026-04-06T12:34:58.001Z</time></trkpt><trkpt lat="44.82473693522068" lon="9.173295224773995"><ele>377.0</ele><time>2026-04-06T12:34:59.001Z</time></trkpt><trkpt lat="44.82473951030692" lon="9.17366752810346"><ele>378.0</ele><time>2026-04-06T12:35:00.001Z</time></trkpt><trkpt lat="44.82474094918274" lon="9.174034216632187"><ele>379.0</ele><time>2026-04-06T12:35:01.001Z</time></trkpt><trkpt lat="44.824743019823885" lon="9.174398564727731"><ele>379.0</ele><time>2026-04-06T12:35:02.001Z</time></trkpt><trkpt lat="44.82474406264029" lon="9.17476085650862"><ele>379.0</ele><time>2026-04-06T12:35:03.001Z</time></trkpt><trkpt lat="44.824746207907154" lon="9.175120212925155"><ele>379.5</ele><time>2026-04-06T12:35:04.001Z</time></trkpt><trkpt lat="44.824750094614316" lon="9.175476855574109"><ele>380.0</ele><time>2026-04-06T12:35:05.001Z</time></trkpt><trkpt lat="44.82475402474813" lon="9.17583228515752"><ele>381.0</ele><time>2026-04-06T12:35:06.001Z</time></trkpt><trkpt lat="44.824757942484474" lon="9.176186204630792"><ele>382.0</ele><time>2026-04-06T12:35:07.001Z</time></trkpt><trkpt lat="44.82475914293315" lon="9.17653524535492"><ele>382.0</ele><time>2026-04-06T12:35:08.001Z</time></trkpt><trkpt lat="44.824760046400684" lon="9.176880556661175"><ele>382.0</ele><time>2026-04-06T12:35:09.001Z</time></trkpt><trkpt lat="44.82476242915228" lon="9.177225446514983"><ele>381.0</ele><time>2026-04-06T12:35:10.001Z</time></trkpt><trkpt lat="44.82476527881285" lon="9.177570387983344"><ele>380.0</ele><time>2026-04-06T12:35:11.001Z</time></trkpt><trkpt lat="44.824767406325364" lon="9.177916008013545"><ele>380.0</ele><time>2026-04-06T12:35:12.001Z</time></trkpt><trkpt lat="44.82476795918293" lon="9.178258625384233"><ele>380.0</ele><time>2026-04-06T12:35:13.001Z</time></trkpt><trkpt lat="44.82477139780228" lon="9.178604144224147"><ele>380.0</ele><time>2026-04-06T12:35:14.001Z</time></trkpt><trkpt lat="44.82477542986157" lon="9.178941489812768"><ele>380.0</ele><time>2026-04-06T12:35:15.001Z</time></trkpt><trkpt lat="44.82477985972601" lon="9.179265896500473"><ele>380.33333333333337</ele><time>2026-04-06T12:35:16.001Z</time></trkpt><trkpt lat="44.824784465060155" lon="9.179582827110254"><ele>380.6666666666667</ele><time>2026-04-06T12:35:17.001Z</time></trkpt><trkpt lat="44.824791740045065" lon="9.179890697666576"><ele>381.0</ele><time>2026-04-06T12:35:18.001Z</time></trkpt><trkpt lat="44.82479880428676" lon="9.180192137967142"><ele>381.6666666666667</ele><time>2026-04-06T12:35:19.001Z</time></trkpt><trkpt lat="44.82480582846788" lon="9.18048346601535"><ele>382.33333333333337</ele><time>2026-04-06T12:35:20.001Z</time></trkpt><trkpt lat="44.82481119842562" lon="9.180755533880308"><ele>383.0</ele><time>2026-04-06T12:35:21.001Z</time></trkpt><trkpt lat="44.82481810011808" lon="9.181000848378737"><ele>383.6666666666667</ele><time>2026-04-06T12:35:22.001Z</time></trkpt><trkpt lat="44.82482233408215" lon="9.181207827877772"><ele>384.33333333333337</ele><time>2026-04-06T12:35:23.001Z</time></trkpt><trkpt lat="44.82482334908181" lon="9.181390045396132"><ele>385.0</ele><time>2026-04-06T12:35:24.001Z</time></trkpt><trkpt lat="44.82486768780992" lon="9.181755164397082"><ele>385.75</ele><time>2026-04-06T12:35:25.001Z</time></trkpt><trkpt lat="44.82488239529921" lon="9.181954106023262"><ele>386.5</ele><time>2026-04-06T12:35:26.001Z</time></trkpt><trkpt lat="44.82489591575303" lon="9.182139484547292"><ele>387.25</ele><time>2026-04-06T12:35:27.001Z</time></trkpt><trkpt lat="44.82491298011193" lon="9.182323490251704"><ele>388.0</ele><time>2026-04-06T12:35:28.001Z</time></trkpt><trkpt lat="44.82492323676882" lon="9.182510169941807"><ele>388.0</ele><time>2026-04-06T12:35:29.001Z</time></trkpt><trkpt lat="44.824928683468514" lon="9.182704734186979"><ele>388.0</ele><time>2026-04-06T12:35:30.001Z</time></trkpt><trkpt lat="44.82493193892196" lon="9.182906852940135"><ele>388.0</ele><time>2026-04-06T12:35:31.001Z</time></trkpt><trkpt lat="44.82493213593593" lon="9.183125154488689"><ele>388.0</ele><time>2026-04-06T12:35:32.001Z</time></trkpt><trkpt lat="44.824924885699126" lon="9.18335942869626"><ele>387.6666666666667</ele><time>2026-04-06T12:35:33.001Z</time></trkpt><trkpt lat="44.8248938005024" lon="9.183593684052559"><ele>387.33333333333337</ele><time>2026-04-06T12:35:34.001Z</time></trkpt><trkpt lat="44.82486877314624" lon="9.183835082466368"><ele>387.0</ele><time>2026-04-06T12:35:35.001Z</time></trkpt><trkpt lat="44.82487055531034" lon="9.184078684522277"><ele>388.0</ele><time>2026-04-06T12:35:36.001Z</time></trkpt><trkpt lat="44.82484835101228" lon="9.184319928375714"><ele>389.0</ele><time>2026-04-06T12:35:37.001Z</time></trkpt><trkpt lat="44.82484869109093" lon="9.184561830355728"><ele>390.0</ele><time>2026-04-06T12:35:38.001Z</time></trkpt><trkpt lat="44.82485034070287" lon="9.184801685287194"><ele>391.0</ele><time>2026-04-06T12:35:39.001Z</time></trkpt><trkpt lat="44.824841533358" lon="9.185044170199626"><ele>392.0</ele><time>2026-04-06T12:35:40.001Z</time></trkpt><trkpt lat="44.8248266953434" lon="9.185284326064611"><ele>393.0</ele><time>2026-04-06T12:35:41.001Z</time></trkpt><trkpt lat="44.82480248262857" lon="9.185520991503727"><ele>393.0</ele><time>2026-04-06T12:35:42.001Z</time></trkpt><trkpt lat="44.82477583194317" lon="9.185762712651886"><ele>393.0</ele><time>2026-04-06T12:35:43.001Z</time></trkpt><trkpt lat="44.82475167200967" lon="9.186003328610377"><ele>393.0</ele><time>2026-04-06T12:35:44.001Z</time></trkpt><trkpt lat="44.82472845293332" lon="9.186244288098388"><ele>393.0</ele><time>2026-04-06T12:35:45.001Z</time></trkpt><trkpt lat="44.824706345366906" lon="9.186485683628074"><ele>393.0</ele><time>2026-04-06T12:35:46Z</time></trkpt><trkpt lat="44.82468469668868" lon="9.186726837486788"><ele>393.0</ele><time>2026-04-06T12:35:47Z</time></trkpt><trkpt lat="44.82466862643236" lon="9.186967935167294"><ele>394.0</ele><time>2026-04-06T12:35:48Z</time></trkpt><trkpt lat="44.82464751935178" lon="9.187208220444255"><ele>395.0</ele><time>2026-04-06T12:35:49Z</time></trkpt><trkpt lat="44.824617084575486" lon="9.18744150916122"><ele>396.0</ele><time>2026-04-06T12:35:50Z</time></trkpt><trkpt lat="44.8245815679974" lon="9.187676299772113"><ele>396.66666666666663</ele><time>2026-04-06T12:35:51Z</time></trkpt><trkpt lat="44.8245696822761" lon="9.187909408921366"><ele>397.3333333333333</ele><time>2026-04-06T12:35:52Z</time></trkpt><trkpt lat="44.82456380547322" lon="9.188138804548903"><ele>398.0</ele><time>2026-04-06T12:35:53Z</time></trkpt><trkpt lat="44.8245594474174" lon="9.188370051806391"><ele>399.0</ele><time>2026-04-06T12:35:54Z</time></trkpt><trkpt lat="44.824540756760236" lon="9.18856974116181"><ele>400.0</ele><time>2026-04-06T12:35:55Z</time></trkpt><trkpt lat="44.824525113807994" lon="9.188765663364526"><ele>401.0</ele><time>2026-04-06T12:35:56Z</time></trkpt><trkpt lat="44.82449200090194" lon="9.188961562645003"><ele>402.0</ele><time>2026-04-06T12:35:57Z</time></trkpt><trkpt lat="44.824433318956636" lon="9.189159744870555"><ele>402.25</ele><time>2026-04-06T12:35:58Z</time></trkpt><trkpt lat="44.82436480947544" lon="9.189355263587379"><ele>402.5</ele><time>2026-04-06T12:35:59Z</time></trkpt><trkpt lat="44.824297169883884" lon="9.18950119043873"><ele>402.75</ele><time>2026-04-06T12:36:00Z</time></trkpt><trkpt lat="44.82423743483995" lon="9.189627082128371"><ele>403.0</ele><time>2026-04-06T12:36:01Z</time></trkpt><trkpt lat="44.824169920433626" lon="9.189745985190745"><ele>402.4</ele><time>2026-04-06T12:36:02Z</time></trkpt><trkpt lat="44.82408997017113" lon="9.189851587500677"><ele>401.79999999999995</ele><time>2026-04-06T12:36:03Z</time></trkpt><trkpt lat="44.82401103382604" lon="9.189957888059313"><ele>401.2</ele><time>2026-04-06T12:36:04Z</time></trkpt><trkpt lat="44.8239592792667" lon="9.190049125627791"><ele>400.6</ele><time>2026-04-06T12:36:05Z</time></trkpt><trkpt lat="44.82393223698232" lon="9.190205455899283"><ele>400.0</ele><time>2026-04-06T12:36:06Z</time></trkpt><trkpt lat="44.82391260544063" lon="9.190372867286802"><ele>400.0</ele><time>2026-04-06T12:36:07Z</time></trkpt><trkpt lat="44.823872699750886" lon="9.19056287563002"><ele>400.0</ele><time>2026-04-06T12:36:08Z</time></trkpt><trkpt lat="44.82381764503846" lon="9.190752752184652"><ele>400.0</ele><time>2026-04-06T12:36:09Z</time></trkpt><trkpt lat="44.82376852005844" lon="9.190937120266723"><ele>400.0</ele><time>2026-04-06T12:36:10Z</time></trkpt><trkpt lat="44.823727087765434" lon="9.191096752919046"><ele>400.6</ele><time>2026-04-06T12:36:11Z</time></trkpt><trkpt lat="44.82369065174529" lon="9.191246736686153"><ele>401.2</ele><time>2026-04-06T12:36:12Z</time></trkpt><trkpt lat="44.82365956766082" lon="9.191370142965292"><ele>401.79999999999995</ele><time>2026-04-06T12:36:13Z</time></trkpt><trkpt lat="44.82363162899382" lon="9.191507720931488"><ele>402.4</ele><time>2026-04-06T12:36:14Z</time></trkpt><trkpt lat="44.82359793880098" lon="9.191669829189294"><ele>403.0</ele><time>2026-04-06T12:36:15Z</time></trkpt><trkpt lat="44.82355989394898" lon="9.191876938540668"><ele>403.33333333333337</ele><time>2026-04-06T12:36:16Z</time></trkpt><trkpt lat="44.82352411311736" lon="9.192102376607597"><ele>403.66666666666663</ele><time>2026-04-06T12:36:17Z</time></trkpt><trkpt lat="44.82349101513016" lon="9.192316512032919"><ele>404.0</ele><time>2026-04-06T12:36:18Z</time></trkpt><trkpt lat="44.82345808171639" lon="9.19254887886596"><ele>404.0</ele><time>2026-04-06T12:36:19Z</time></trkpt><trkpt lat="44.82341107530131" lon="9.192791532059257"><ele>404.0</ele><time>2026-04-06T12:36:20Z</time></trkpt><trkpt lat="44.8233674331776" lon="9.193008018872336"><ele>404.0</ele><time>2026-04-06T12:36:21Z</time></trkpt><trkpt lat="44.8233271868494" lon="9.193201097168586"><ele>404.4</ele><time>2026-04-06T12:36:22Z</time></trkpt><trkpt lat="44.823291672334506" lon="9.193380597191512"><ele>404.79999999999995</ele><time>2026-04-06T12:36:23Z</time></trkpt><trkpt lat="44.823258985766905" lon="9.193546111554975"><ele>405.20000000000005</ele><time>2026-04-06T12:36:24Z</time></trkpt><trkpt lat="44.82324234568436" lon="9.193687062572334"><ele>405.6</ele><time>2026-04-06T12:36:25Z</time></trkpt><trkpt lat="44.823225453333805" lon="9.193796953452056"><ele>406.0</ele><time>2026-04-06T12:36:26Z</time></trkpt><trkpt lat="44.823183429238114" lon="9.19392267850753"><ele>406.0</ele><time>2026-04-06T12:36:28Z</time></trkpt><trkpt lat="44.82307490779243" lon="9.19395210301515"><ele>406.0</ele><time>2026-04-06T12:36:30Z</time></trkpt><trkpt lat="44.82300212751081" lon="9.193917699498058"><ele>406.0</ele><time>2026-04-06T12:36:31Z</time></trkpt><trkpt lat="44.8229182883543" lon="9.193869836501385"><ele>406.0</ele><time>2026-04-06T12:36:32Z</time></trkpt><trkpt lat="44.82282996595636" lon="9.193834164249623"><ele>406.0</ele><time>2026-04-06T12:36:33Z</time></trkpt><trkpt lat="44.82274481695617" lon="9.193803576261212"><ele>406.00000000000006</ele><time>2026-04-06T12:36:34Z</time></trkpt><trkpt lat="44.82266113490394" lon="9.19377054265376"><ele>406.0</ele><time>2026-04-06T12:36:35Z</time></trkpt><trkpt lat="44.82257326806551" lon="9.193754060313607"><ele>406.0</ele><time>2026-04-06T12:36:36Z</time></trkpt><trkpt lat="44.822488376615084" lon="9.193755742722937"><ele>406.0</ele><time>2026-04-06T12:36:37Z</time></trkpt><trkpt lat="44.82240628185197" lon="9.193801126218226"><ele>406.00000000000006</ele><time>2026-04-06T12:36:38Z</time></trkpt><trkpt lat="44.82232041502684" lon="9.193863881221686"><ele>406.0</ele><time>2026-04-06T12:36:39Z</time></trkpt><trkpt lat="44.82228566268398" lon="9.194023349916938"><ele>405.0</ele><time>2026-04-06T12:36:40Z</time></trkpt><trkpt lat="44.82226796516565" lon="9.194178821174791"><ele>404.0</ele><time>2026-04-06T12:36:41Z</time></trkpt><trkpt lat="44.82226162767821" lon="9.194329273345074"><ele>403.0</ele><time>2026-04-06T12:36:42Z</time></trkpt><trkpt lat="44.82224963637406" lon="9.194481898845298"><ele>402.0</ele><time>2026-04-06T12:36:43Z</time></trkpt><trkpt lat="44.822226642632494" lon="9.194629459843295"><ele>401.0</ele><time>2026-04-06T12:36:44Z</time></trkpt><trkpt lat="44.82220587915016" lon="9.194775681074512"><ele>401.4</ele><time>2026-04-06T12:36:45Z</time></trkpt><trkpt lat="44.82218546211047" lon="9.19492507708953"><ele>401.8</ele><time>2026-04-06T12:36:46Z</time></trkpt><trkpt lat="44.82216595501489" lon="9.195069077385725"><ele>402.2</ele><time>2026-04-06T12:36:47Z</time></trkpt><trkpt lat="44.82214356001276" lon="9.195214582211959"><ele>402.59999999999997</ele><time>2026-04-06T12:36:48.001Z</time></trkpt><trkpt lat="44.8221314822487" lon="9.195357588651934"><ele>403.0</ele><time>2026-04-06T12:36:49.001Z</time></trkpt><trkpt lat="44.822115920445846" lon="9.19549664203153"><ele>403.0</ele><time>2026-04-06T12:36:50.001Z</time></trkpt><trkpt lat="44.82209998156081" lon="9.195631076244245"><ele>403.0</ele><time>2026-04-06T12:36:51.001Z</time></trkpt><trkpt lat="44.82208427159192" lon="9.19575986918987"><ele>403.0</ele><time>2026-04-06T12:36:52.001Z</time></trkpt><trkpt lat="44.822067234460526" lon="9.19588358464939"><ele>403.0</ele><time>2026-04-06T12:36:53.001Z</time></trkpt><trkpt lat="44.822049318636914" lon="9.1960050695872"><ele>403.0</ele><time>2026-04-06T12:36:54.001Z</time></trkpt><trkpt lat="44.82203452648495" lon="9.19612727963899"><ele>403.59999999999997</ele><time>2026-04-06T12:36:55.001Z</time></trkpt><trkpt lat="44.822019290890445" lon="9.196253482670993"><ele>404.2</ele><time>2026-04-06T12:36:56.001Z</time></trkpt><trkpt lat="44.82200797542801" lon="9.196382687041156"><ele>404.8</ele><time>2026-04-06T12:36:57.001Z</time></trkpt><trkpt lat="44.82199300200443" lon="9.196512826528167"><ele>405.4</ele><time>2026-04-06T12:36:58.001Z</time></trkpt><trkpt lat="44.82197784599824" lon="9.196646538304789"><ele>406.0</ele><time>2026-04-06T12:36:59.001Z</time></trkpt><trkpt lat="44.82195829557047" lon="9.196778483725785"><ele>406.1666666666667</ele><time>2026-04-06T12:37:00.001Z</time></trkpt><trkpt lat="44.821942420437594" lon="9.196909429366748"><ele>406.33333333333337</ele><time>2026-04-06T12:37:01.001Z</time></trkpt><trkpt lat="44.821926551620585" lon="9.197030896605872"><ele>406.5</ele><time>2026-04-06T12:37:02.001Z</time></trkpt><trkpt lat="44.821914400427815" lon="9.197148832076646"><ele>406.66666666666663</ele><time>2026-04-06T12:37:03.001Z</time></trkpt><trkpt lat="44.82189895992025" lon="9.19726433160461"><ele>406.8333333333333</ele><time>2026-04-06T12:37:04.001Z</time></trkpt><trkpt lat="44.821884115020794" lon="9.197368994435198"><ele>407.0</ele><time>2026-04-06T12:37:05.001Z</time></trkpt><trkpt lat="44.821876406108665" lon="9.19747342202846"><ele>407.16666666666663</ele><time>2026-04-06T12:37:06.001Z</time></trkpt><trkpt lat="44.82186721288932" lon="9.197571269552817"><ele>407.3333333333333</ele><time>2026-04-06T12:37:07.001Z</time></trkpt><trkpt lat="44.821856607287" lon="9.197678484543049"><ele>407.5</ele><time>2026-04-06T12:37:08.001Z</time></trkpt><trkpt lat="44.821844271992646" lon="9.19778598640191"><ele>407.66666666666663</ele><time>2026-04-06T12:37:09.001Z</time></trkpt><trkpt lat="44.82183480058918" lon="9.197897525152895"><ele>407.8333333333333</ele><time>2026-04-06T12:37:10.001Z</time></trkpt><trkpt lat="44.82182007895912" lon="9.198003302599883"><ele>408.0</ele><time>2026-04-06T12:37:11.001Z</time></trkpt><trkpt lat="44.82180687328977" lon="9.198113206810003"><ele>407.3333333333333</ele><time>2026-04-06T12:37:12.001Z</time></trkpt><trkpt lat="44.8217946898956" lon="9.198220012631225"><ele>406.66666666666663</ele><time>2026-04-06T12:37:13.001Z</time></trkpt><trkpt lat="44.82178272362232" lon="9.198327899100299"><ele>406.0</ele><time>2026-04-06T12:37:14.001Z</time></trkpt><trkpt lat="44.82177303172751" lon="9.198434474967103"><ele>405.3333333333333</ele><time>2026-04-06T12:37:15.001Z</time></trkpt><trkpt lat="44.82176110063761" lon="9.198549444663989"><ele>404.66666666666663</ele><time>2026-04-06T12:37:16.001Z</time></trkpt><trkpt lat="44.82174911254282" lon="9.198676174577544"><ele>404.0</ele><time>2026-04-06T12:37:17.001Z</time></trkpt><trkpt lat="44.8217365727875" lon="9.19879382204947"><ele>404.0</ele><time>2026-04-06T12:37:18.001Z</time></trkpt><trkpt lat="44.82172107865069" lon="9.19890577165755"><ele>404.0</ele><time>2026-04-06T12:37:19.001Z</time></trkpt><trkpt lat="44.82170146084516" lon="9.199032181596392"><ele>404.0</ele><time>2026-04-06T12:37:20.001Z</time></trkpt><trkpt lat="44.82165737264612" lon="9.199181291231227"><ele>404.0</ele><time>2026-04-06T12:37:21.001Z</time></trkpt><trkpt lat="44.82166628091242" lon="9.199372176222003"><ele>404.0</ele><time>2026-04-06T12:37:23.001Z</time></trkpt><trkpt lat="44.82166373654718" lon="9.199483524464132"><ele>404.4</ele><time>2026-04-06T12:37:24.001Z</time></trkpt><trkpt lat="44.82163512446818" lon="9.199601518477424"><ele>404.79999999999995</ele><time>2026-04-06T12:37:26.001Z</time></trkpt><trkpt lat="44.82178144898977" lon="9.19961681809953"><ele>405.20000000000005</ele><time>2026-04-06T12:37:29.001Z</time></trkpt><trkpt lat="44.821794018054916" lon="9.199484654212"><ele>405.6</ele><time>2026-04-06T12:37:31.001Z</time></trkpt><trkpt lat="44.821801927158816" lon="9.19936842123398"><ele>406.0</ele><time>2026-04-06T12:37:34.001Z</time></trkpt><trkpt lat="44.82182185023812" lon="9.199258204371175"><ele>406.57142857142856</ele><time>2026-04-06T12:37:37.001Z</time></trkpt><trkpt lat="44.82183376928808" lon="9.19914151967471"><ele>407.1428571428571</ele><time>2026-04-06T12:37:40.001Z</time></trkpt><trkpt lat="44.8218521027505" lon="9.199051778546096"><ele>407.7142857142857</ele><time>2026-04-06T12:37:43.001Z</time></trkpt><trkpt lat="44.82186747764739" lon="9.198937387690856"><ele>408.2857142857143</ele><time>2026-04-06T12:37:48.001Z</time></trkpt><trkpt lat="44.82187427834014" lon="9.198844001070102"><ele>408.85714285714283</ele><time>2026-04-06T12:37:51.001Z</time></trkpt><trkpt lat="44.821886951972445" lon="9.19874845987962"><ele>409.42857142857144</ele><time>2026-04-06T12:37:54Z</time></trkpt><trkpt lat="44.82189953052683" lon="9.198639934284763"><ele>410.0</ele><time>2026-04-06T12:37:57Z</time></trkpt><trkpt lat="44.82191337307197" lon="9.198518543171625"><ele>409.99999999999994</ele><time>2026-04-06T12:38:00Z</time></trkpt><trkpt lat="44.8219321715062" lon="9.198385882075161"><ele>410.0</ele><time>2026-04-06T12:38:03Z</time></trkpt><trkpt lat="44.82194199918902" lon="9.198290292158509"><ele>410.0</ele><time>2026-04-06T12:38:05Z</time></trkpt><trkpt lat="44.821953076727205" lon="9.198191767713917"><ele>410.0</ele><time>2026-04-06T12:38:07Z</time></trkpt><trkpt lat="44.82196695525316" lon="9.198092367364383"><ele>409.99999999999994</ele><time>2026-04-06T12:38:09Z</time></trkpt><trkpt lat="44.82197931207848" lon="9.197988323651117"><ele>410.0</ele><time>2026-04-06T12:38:11Z</time></trkpt><trkpt lat="44.821983166019585" lon="9.197883455464238"><ele>409.66666666666663</ele><time>2026-04-06T12:38:14Z</time></trkpt><trkpt lat="44.82193891060509" lon="9.197804558556307"><ele>409.3333333333333</ele><time>2026-04-06T12:38:18Z</time></trkpt><trkpt lat="44.8218609867745" lon="9.197804263128235"><ele>409.0</ele><time>2026-04-06T12:38:21Z</time></trkpt><trkpt lat="44.82181072097483" lon="9.197903726252529"><ele>408.66666666666663</ele><time>2026-04-06T12:38:23Z</time></trkpt><trkpt lat="44.82181243678034" lon="9.198012413147392"><ele>408.3333333333333</ele><time>2026-04-06T12:38:24Z</time></trkpt><trkpt lat="44.821806389293684" lon="9.198121280600528"><ele>408.0</ele><time>2026-04-06T12:38:25Z</time></trkpt><trkpt lat="44.82179572286875" lon="9.198225155958042"><ele>407.2</ele><time>2026-04-06T12:38:26Z</time></trkpt><trkpt lat="44.82177922808353" lon="9.198350353217146"><ele>406.4</ele><time>2026-04-06T12:38:27Z</time></trkpt><trkpt lat="44.821764443903035" lon="9.198480492894245"><ele>405.59999999999997</ele><time>2026-04-06T12:38:28Z</time></trkpt><trkpt lat="44.82175031058987" lon="9.198605427451216"><ele>404.79999999999995</ele><time>2026-04-06T12:38:29Z</time></trkpt><trkpt lat="44.82173800418137" lon="9.198732293447355"><ele>404.0</ele><time>2026-04-06T12:38:30Z</time></trkpt><trkpt lat="44.82172517726772" lon="9.198856805225903"><ele>403.99999999999994</ele><time>2026-04-06T12:38:31Z</time></trkpt><trkpt lat="44.82171150148639" lon="9.198979795813063"><ele>404.0</ele><time>2026-04-06T12:38:32Z</time></trkpt><trkpt lat="44.82169652241458" lon="9.199100763646182"><ele>404.0</ele><time>2026-04-06T12:38:33Z</time></trkpt><trkpt lat="44.821682555347024" lon="9.199226452084485"><ele>404.0</ele><time>2026-04-06T12:38:34Z</time></trkpt><trkpt lat="44.821668130355235" lon="9.199348932072988"><ele>403.99999999999994</ele><time>2026-04-06T12:38:35Z</time></trkpt><trkpt lat="44.82165298355946" lon="9.199471353094332"><ele>404.0</ele><time>2026-04-06T12:38:36Z</time></trkpt><trkpt lat="44.8216358642115" lon="9.199588806643497"><ele>404.3333333333333</ele><time>2026-04-06T12:38:37Z</time></trkpt><trkpt lat="44.82163379337159" lon="9.199706230238975"><ele>404.66666666666663</ele><time>2026-04-06T12:38:38Z</time></trkpt><trkpt lat="44.82165435821809" lon="9.199810819671171"><ele>405.0</ele><time>2026-04-06T12:38:39Z</time></trkpt><trkpt lat="44.821702650261194" lon="9.199896612991198"><ele>405.33333333333337</ele><time>2026-04-06T12:38:40Z</time></trkpt><trkpt lat="44.82177417960633" lon="9.199971968296197"><ele>405.6666666666667</ele><time>2026-04-06T12:38:41Z</time></trkpt><trkpt lat="44.82188376165129" lon="9.200040025540664"><ele>406.0</ele><time>2026-04-06T12:38:42Z</time></trkpt><trkpt lat="44.82200229055702" lon="9.200112928180454"><ele>407.33333333333337</ele><time>2026-04-06T12:38:43Z</time></trkpt><trkpt lat="44.822092585103825" lon="9.200178970645302"><ele>408.6666666666667</ele><time>2026-04-06T12:38:44Z</time></trkpt><trkpt lat="44.822173749800015" lon="9.200232778144015"><ele>410.0</ele><time>2026-04-06T12:38:45Z</time></trkpt><trkpt lat="44.82225859290435" lon="9.200271316933254"><ele>411.33333333333337</ele><time>2026-04-06T12:38:46Z</time></trkpt><trkpt lat="44.82231994015418" lon="9.200315454781112"><ele>412.6666666666667</ele><time>2026-04-06T12:38:47Z</time></trkpt><trkpt lat="44.82238422294967" lon="9.200356963586003"><ele>414.0</ele><time>2026-04-06T12:38:48Z</time></trkpt><trkpt lat="44.8224449117028" lon="9.2003946596673"><ele>414.0</ele><time>2026-04-06T12:38:49Z</time></trkpt><trkpt lat="44.82251338090619" lon="9.200435735546236"><ele>414.0</ele><time>2026-04-06T12:38:50Z</time></trkpt><trkpt lat="44.822582517940425" lon="9.200485354575129"><ele>414.0</ele><time>2026-04-06T12:38:51Z</time></trkpt><trkpt lat="44.82265380066907" lon="9.200532604962472"><ele>414.0</ele><time>2026-04-06T12:38:52Z</time></trkpt><trkpt lat="44.82272012582603" lon="9.200574511198731"><ele>414.0</ele><time>2026-04-06T12:38:53Z</time></trkpt><trkpt lat="44.822815876589985" lon="9.200677296323942"><ele>414.0</ele><time>2026-04-06T12:38:55Z</time></trkpt><trkpt lat="44.822869294454435" lon="9.200759196095113"><ele>415.0</ele><time>2026-04-06T12:38:57Z</time></trkpt><trkpt lat="44.82278928900419" lon="9.20096084750572"><ele>416.0</ele><time>2026-04-06T12:38:58Z</time></trkpt><trkpt lat="44.822747116619816" lon="9.201067734968737"><ele>417.0</ele><time>2026-04-06T12:38:59Z</time></trkpt><trkpt lat="44.82273623207309" lon="9.201178237391895"><ele>418.0</ele><time>2026-04-06T12:39:00Z</time></trkpt><trkpt lat="44.82268841899221" lon="9.201294161972353"><ele>419.0</ele><time>2026-04-06T12:39:01.001Z</time></trkpt><trkpt lat="44.822651884891044" lon="9.201431247055298"><ele>419.2</ele><time>2026-04-06T12:39:02.001Z</time></trkpt><trkpt lat="44.82262026571632" lon="9.201548215461289"><ele>419.4</ele><time>2026-04-06T12:39:03.001Z</time></trkpt><trkpt lat="44.82258121931973" lon="9.201691025291742"><ele>419.6</ele><time>2026-04-06T12:39:04.001Z</time></trkpt><trkpt lat="44.82254415564324" lon="9.201826481157426"><ele>419.8</ele><time>2026-04-06T12:39:05.001Z</time></trkpt><trkpt lat="44.822507333203546" lon="9.201961055382188"><ele>420.0</ele><time>2026-04-06T12:39:06.001Z</time></trkpt><trkpt lat="44.822470334961245" lon="9.202096272107326"><ele>420.0</ele><time>2026-04-06T12:39:07.001Z</time></trkpt><trkpt lat="44.82243289825197" lon="9.202233091292035"><ele>420.0</ele><time>2026-04-06T12:39:08.001Z</time></trkpt><trkpt lat="44.8223965813459" lon="9.202366875950732"><ele>420.0</ele><time>2026-04-06T12:39:09.001Z</time></trkpt><trkpt lat="44.822362635879536" lon="9.202499253661124"><ele>420.0</ele><time>2026-04-06T12:39:10.001Z</time></trkpt><trkpt lat="44.82233074490514" lon="9.202623619434293"><ele>420.0</ele><time>2026-04-06T12:39:11.001Z</time></trkpt><trkpt lat="44.82230095602222" lon="9.202739787654028"><ele>420.6</ele><time>2026-04-06T12:39:12.001Z</time></trkpt><trkpt lat="44.82227787119311" lon="9.202829811951487"><ele>421.2</ele><time>2026-04-06T12:39:13.001Z</time></trkpt><trkpt lat="44.82225148087847" lon="9.202971262584722"><ele>421.79999999999995</ele><time>2026-04-06T12:39:15.001Z</time></trkpt><trkpt lat="44.82221582743637" lon="9.203106853356388"><ele>422.4</ele><time>2026-04-06T12:39:17.001Z</time></trkpt><trkpt lat="44.82218633778825" lon="9.203221256947693"><ele>423.0</ele><time>2026-04-06T12:39:18.001Z</time></trkpt><trkpt lat="44.822151687826576" lon="9.203352763659415"><ele>423.0</ele><time>2026-04-06T12:39:19.001Z</time></trkpt><trkpt lat="44.822120197244566" lon="9.203484139668078"><ele>423.0</ele><time>2026-04-06T12:39:20.001Z</time></trkpt><trkpt lat="44.8220835602301" lon="9.203632596343924"><ele>423.0</ele><time>2026-04-06T12:39:21.001Z</time></trkpt><trkpt lat="44.822039883191735" lon="9.203799241632648"><ele>423.0</ele><time>2026-04-06T12:39:22.001Z</time></trkpt><trkpt lat="44.82200010772137" lon="9.203965153607248"><ele>425.0</ele><time>2026-04-06T12:39:23.001Z</time></trkpt><trkpt lat="44.82196195363372" lon="9.204129283153655"><ele>427.0</ele><time>2026-04-06T12:39:24.001Z</time></trkpt><trkpt lat="44.82190615644421" lon="9.20428189732866"><ele>429.0</ele><time>2026-04-06T12:39:25.001Z</time></trkpt><trkpt lat="44.82186611204779" lon="9.204439459778882"><ele>431.0</ele><time>2026-04-06T12:39:26.001Z</time></trkpt><trkpt lat="44.821836398317075" lon="9.204594727052749"><ele>430.25</ele><time>2026-04-06T12:39:27.001Z</time></trkpt><trkpt lat="44.82179641999513" lon="9.204757285898692"><ele>429.5</ele><time>2026-04-06T12:39:28.001Z</time></trkpt><trkpt lat="44.821740808919884" lon="9.204957976411235"><ele>428.75</ele><time>2026-04-06T12:39:29.001Z</time></trkpt><trkpt lat="44.82168372053158" lon="9.205143650208063"><ele>428.0</ele><time>2026-04-06T12:39:30.001Z</time></trkpt><trkpt lat="44.82160426105776" lon="9.205318066483681"><ele>428.0</ele><time>2026-04-06T12:39:31.001Z</time></trkpt><trkpt lat="44.82150732878886" lon="9.205479427914105"><ele>428.0</ele><time>2026-04-06T12:39:32.001Z</time></trkpt><trkpt lat="44.82140867201391" lon="9.205640030351459"><ele>428.0</ele><time>2026-04-06T12:39:33.001Z</time></trkpt><trkpt lat="44.82131899214493" lon="9.205760910505512"><ele>428.0</ele><time>2026-04-06T12:39:34.001Z</time></trkpt><trkpt lat="44.8212243816612" lon="9.205882605832587"><ele>427.5</ele><time>2026-04-06T12:39:35.001Z</time></trkpt><trkpt lat="44.82114433730082" lon="9.206017954815547"><ele>427.0</ele><time>2026-04-06T12:39:36.001Z</time></trkpt><trkpt lat="44.821047187484865" lon="9.206139923949994"><ele>426.5</ele><time>2026-04-06T12:39:37.001Z</time></trkpt><trkpt lat="44.82095578714542" lon="9.206272297416062"><ele>426.0</ele><time>2026-04-06T12:39:38.001Z</time></trkpt><trkpt lat="44.82085810540155" lon="9.206409473153297"><ele>427.5</ele><time>2026-04-06T12:39:39.001Z</time></trkpt><trkpt lat="44.820760037139735" lon="9.206553065046696"><ele>429.0</ele><time>2026-04-06T12:39:40.001Z</time></trkpt><trkpt lat="44.82066278838726" lon="9.206702866531176"><ele>430.5</ele><time>2026-04-06T12:39:41.001Z</time></trkpt><trkpt lat="44.82056512418654" lon="9.20685367383043"><ele>432.0</ele><time>2026-04-06T12:39:42.001Z</time></trkpt><trkpt lat="44.82047196556385" lon="9.206995122894421"><ele>432.0</ele><time>2026-04-06T12:39:43.001Z</time></trkpt><trkpt lat="44.82038073206412" lon="9.207129987035218"><ele>432.0</ele><time>2026-04-06T12:39:44.001Z</time></trkpt><trkpt lat="44.820289766317295" lon="9.20726470815061"><ele>432.0</ele><time>2026-04-06T12:39:45.001Z</time></trkpt><trkpt lat="44.82019654326758" lon="9.207404265062598"><ele>432.0</ele><time>2026-04-06T12:39:46.001Z</time></trkpt><trkpt lat="44.820096021051775" lon="9.207533736097021"><ele>433.0</ele><time>2026-04-06T12:39:47.001Z</time></trkpt><trkpt lat="44.819998995291314" lon="9.207675019280888"><ele>434.0</ele><time>2026-04-06T12:39:48.001Z</time></trkpt><trkpt lat="44.81990231501452" lon="9.207833543049373"><ele>435.0</ele><time>2026-04-06T12:39:49.001Z</time></trkpt><trkpt lat="44.819790441371524" lon="9.208005678058457"><ele>436.66666666666663</ele><time>2026-04-06T12:39:50.001Z</time></trkpt><trkpt lat="44.81965787966396" lon="9.208182983871286"><ele>438.3333333333333</ele><time>2026-04-06T12:39:51.001Z</time></trkpt><trkpt lat="44.819528192818936" lon="9.208379343483054"><ele>440.0</ele><time>2026-04-06T12:39:52.001Z</time></trkpt><trkpt lat="44.81939438944238" lon="9.208553558418826"><ele>439.66666666666663</ele><time>2026-04-06T12:39:53.001Z</time></trkpt><trkpt lat="44.81926120308951" lon="9.208732938743564"><ele>439.33333333333337</ele><time>2026-04-06T12:39:54.001Z</time></trkpt><trkpt lat="44.81914184890393" lon="9.208919972215057"><ele>439.0</ele><time>2026-04-06T12:39:55.001Z</time></trkpt><trkpt lat="44.81904688279273" lon="9.209105008290257"><ele>439.0</ele><time>2026-04-06T12:39:56.001Z</time></trkpt><trkpt lat="44.818990006489756" lon="9.209299951460363"><ele>439.0</ele><time>2026-04-06T12:39:57.001Z</time></trkpt><trkpt lat="44.81896774730766" lon="9.209492026845467"><ele>439.0</ele><time>2026-04-06T12:39:58Z</time></trkpt><trkpt lat="44.81897467970118" lon="9.209684251893675"><ele>439.0</ele><time>2026-04-06T12:39:59Z</time></trkpt><trkpt lat="44.81900209596624" lon="9.209889677327306"><ele>440.33333333333337</ele><time>2026-04-06T12:40:00Z</time></trkpt><trkpt lat="44.8190490597789" lon="9.210105031798323"><ele>441.66666666666663</ele><time>2026-04-06T12:40:01Z</time></trkpt><trkpt lat="44.81910896666896" lon="9.210330843877074"><ele>443.0</ele><time>2026-04-06T12:40:02Z</time></trkpt><trkpt lat="44.81917580584441" lon="9.210569390403599"><ele>442.0</ele><time>2026-04-06T12:40:03Z</time></trkpt><trkpt lat="44.819238029420234" lon="9.210828103003443"><ele>441.0</ele><time>2026-04-06T12:40:04Z</time></trkpt><trkpt lat="44.81929832176383" lon="9.211095812002076"><ele>440.0</ele><time>2026-04-06T12:40:05Z</time></trkpt><trkpt lat="44.81935787557537" lon="9.211352688987509"><ele>448.0</ele><time>2026-04-06T12:40:06Z</time></trkpt><trkpt lat="44.819415404972226" lon="9.211587920362536"><ele>456.0</ele><time>2026-04-06T12:40:07Z</time></trkpt><trkpt lat="44.819468144871706" lon="9.21180551173598"><ele>464.0</ele><time>2026-04-06T12:40:08Z</time></trkpt><trkpt lat="44.81952119189206" lon="9.212023777379676"><ele>464.0</ele><time>2026-04-06T12:40:09Z</time></trkpt><trkpt lat="44.81957499919" lon="9.212224806588559"><ele>464.0</ele><time>2026-04-06T12:40:10Z</time></trkpt><trkpt lat="44.81961991939186" lon="9.212409247546717"><ele>464.0</ele><time>2026-04-06T12:40:11Z</time></trkpt><trkpt lat="44.819655731150775" lon="9.212579356913265"><ele>464.0</ele><time>2026-04-06T12:40:12Z</time></trkpt><trkpt lat="44.81967440573718" lon="9.212743553929496"><ele>462.5</ele><time>2026-04-06T12:40:13Z</time></trkpt><trkpt lat="44.81966635406625" lon="9.212899253126334"><ele>461.0</ele><time>2026-04-06T12:40:14Z</time></trkpt><trkpt lat="44.81960311410187" lon="9.213037948203924"><ele>459.5</ele><time>2026-04-06T12:40:15Z</time></trkpt><trkpt lat="44.81952576440644" lon="9.21314874632338"><ele>458.0</ele><time>2026-04-06T12:40:16Z</time></trkpt><trkpt lat="44.819427284126455" lon="9.21323515825255"><ele>455.75</ele><time>2026-04-06T12:40:17Z</time></trkpt><trkpt lat="44.819327308139364" lon="9.213334343338532"><ele>453.5</ele><time>2026-04-06T12:40:18Z</time></trkpt><trkpt lat="44.81921292296749" lon="9.213420978001256"><ele>451.25</ele><time>2026-04-06T12:40:19Z</time></trkpt><trkpt lat="44.81910657526526" lon="9.213509673394007"><ele>449.0</ele><time>2026-04-06T12:40:20Z</time></trkpt><trkpt lat="44.8190179788978" lon="9.213594722008411"><ele>448.4</ele><time>2026-04-06T12:40:21Z</time></trkpt><trkpt lat="44.81893783220914" lon="9.213686550118974"><ele>447.79999999999995</ele><time>2026-04-06T12:40:22Z</time></trkpt><trkpt lat="44.818879379192495" lon="9.213798945296194"><ele>447.20000000000005</ele><time>2026-04-06T12:40:23Z</time></trkpt><trkpt lat="44.81884448965951" lon="9.213937760350001"><ele>446.6</ele><time>2026-04-06T12:40:24Z</time></trkpt><trkpt lat="44.81883458724957" lon="9.214089213500293"><ele>446.0</ele><time>2026-04-06T12:40:25Z</time></trkpt><trkpt lat="44.818847146603794" lon="9.214255625944752"><ele>447.4</ele><time>2026-04-06T12:40:26Z</time></trkpt><trkpt lat="44.81886920588111" lon="9.21441385988539"><ele>448.8</ele><time>2026-04-06T12:40:27Z</time></trkpt><trkpt lat="44.818864851986845" lon="9.214548469918265"><ele>450.19999999999993</ele><time>2026-04-06T12:40:28Z</time></trkpt><trkpt lat="44.81881365749344" lon="9.214672735597114"><ele>451.59999999999997</ele><time>2026-04-06T12:40:29Z</time></trkpt><trkpt lat="44.818735315615676" lon="9.214788967729078"><ele>453.0</ele><time>2026-04-06T12:40:30Z</time></trkpt><trkpt lat="44.818615154339426" lon="9.214840800232151"><ele>454.25</ele><time>2026-04-06T12:40:31Z</time></trkpt><trkpt lat="44.81848675057037" lon="9.214906094121687"><ele>455.5</ele><time>2026-04-06T12:40:32Z</time></trkpt><trkpt lat="44.81836299606089" lon="9.214952185962941"><ele>456.75</ele><time>2026-04-06T12:40:33Z</time></trkpt><trkpt lat="44.81825476175337" lon="9.21487191864996"><ele>458.0</ele><time>2026-04-06T12:40:34Z</time></trkpt><trkpt lat="44.81814509411573" lon="9.214781245054267"><ele>458.0</ele><time>2026-04-06T12:40:35Z</time></trkpt><trkpt lat="44.81800734352477" lon="9.214688827584487"><ele>458.0</ele><time>2026-04-06T12:40:36Z</time></trkpt><trkpt lat="44.817870970353304" lon="9.214574485049795"><ele>458.0</ele><time>2026-04-06T12:40:37Z</time></trkpt><trkpt lat="44.81775403338941" lon="9.21448882505972"><ele>458.0</ele><time>2026-04-06T12:40:38Z</time></trkpt><trkpt lat="44.81764450817625" lon="9.214440239545622"><ele>459.25</ele><time>2026-04-06T12:40:39Z</time></trkpt><trkpt lat="44.817528384610334" lon="9.214419088269414"><ele>460.5</ele><time>2026-04-06T12:40:40Z</time></trkpt><trkpt lat="44.81741125033657" lon="9.214429652168773"><ele>461.75</ele><time>2026-04-06T12:40:41Z</time></trkpt><trkpt lat="44.817294371916624" lon="9.214487020544393"><ele>463.0</ele><time>2026-04-06T12:40:42Z</time></trkpt><trkpt lat="44.8171800828103" lon="9.21456614347249"><ele>463.0</ele><time>2026-04-06T12:40:43Z</time></trkpt><trkpt lat="44.817065197685984" lon="9.21465013610493"><ele>462.99999999999994</ele><time>2026-04-06T12:40:44Z</time></trkpt><trkpt lat="44.81696158355581" lon="9.214702178316156"><ele>462.99999999999994</ele><time>2026-04-06T12:40:45Z</time></trkpt><trkpt lat="44.81687784378311" lon="9.214745390149195"><ele>463.0</ele><time>2026-04-06T12:40:46Z</time></trkpt><trkpt lat="44.816822293911464" lon="9.214821225175099"><ele>463.0</ele><time>2026-04-06T12:40:47Z</time></trkpt><trkpt lat="44.81680209254117" lon="9.214934111032958"><ele>465.4</ele><time>2026-04-06T12:40:48Z</time></trkpt><trkpt lat="44.8168257558667" lon="9.215051526035477"><ele>467.79999999999995</ele><time>2026-04-06T12:40:49Z</time></trkpt><trkpt lat="44.81688663086528" lon="9.215139264492473"><ele>470.2</ele><time>2026-04-06T12:40:50Z</time></trkpt><trkpt lat="44.81697099988764" lon="9.215179749997716"><ele>472.6</ele><time>2026-04-06T12:40:51Z</time></trkpt><trkpt lat="44.8170686292758" lon="9.215173896579348"><ele>475.0</ele><time>2026-04-06T12:40:52Z</time></trkpt><trkpt lat="44.81715899158097" lon="9.215123299256256"><ele>475.0</ele><time>2026-04-06T12:40:53Z</time></trkpt><trkpt lat="44.81725719371515" lon="9.215086643175853"><ele>475.0</ele><time>2026-04-06T12:40:54Z</time></trkpt><trkpt lat="44.81735623205081" lon="9.215112120909168"><ele>475.0</ele><time>2026-04-06T12:40:55Z</time></trkpt><trkpt lat="44.817437008322884" lon="9.215226116940988"><ele>475.0</ele><time>2026-04-06T12:40:56Z</time></trkpt><trkpt lat="44.81752167483857" lon="9.215359717760206"><ele>475.0</ele><time>2026-04-06T12:40:57Z</time></trkpt><trkpt lat="44.81762644785345" lon="9.215510073070034"><ele>475.75</ele><time>2026-04-06T12:40:58Z</time></trkpt><trkpt lat="44.817723537756436" lon="9.215682996690147"><ele>476.5</ele><time>2026-04-06T12:40:59.001Z</time></trkpt><trkpt lat="44.8178155935185" lon="9.2158436943226"><ele>477.25</ele><time>2026-04-06T12:41:00.001Z</time></trkpt><trkpt lat="44.81787920534565" lon="9.215974614679185"><ele>478.0</ele><time>2026-04-06T12:41:01.001Z</time></trkpt><trkpt lat="44.81791475418288" lon="9.216110171960151"><ele>478.0</ele><time>2026-04-06T12:41:02.001Z</time></trkpt><trkpt lat="44.81789785384466" lon="9.216271628369437"><ele>478.0</ele><time>2026-04-06T12:41:03.001Z</time></trkpt><trkpt lat="44.81788419312123" lon="9.216456221380549"><ele>478.0</ele><time>2026-04-06T12:41:04.001Z</time></trkpt><trkpt lat="44.81790444524155" lon="9.216637431385756"><ele>478.0</ele><time>2026-04-06T12:41:05.001Z</time></trkpt><trkpt lat="44.817958050874815" lon="9.216817237889806"><ele>480.75</ele><time>2026-04-06T12:41:06.001Z</time></trkpt><trkpt lat="44.818036400040896" lon="9.216998557654406"><ele>483.5</ele><time>2026-04-06T12:41:07.001Z</time></trkpt><trkpt lat="44.818110805390766" lon="9.217148842850253"><ele>486.25</ele><time>2026-04-06T12:41:08.001Z</time></trkpt><trkpt lat="44.81821389039467" lon="9.217262807618631"><ele>489.0</ele><time>2026-04-06T12:41:09.001Z</time></trkpt><trkpt lat="44.81833023648956" lon="9.217348361682543"><ele>491.4</ele><time>2026-04-06T12:41:10.001Z</time></trkpt><trkpt lat="44.81841211231519" lon="9.217434385008838"><ele>493.79999999999995</ele><time>2026-04-06T12:41:11.001Z</time></trkpt><trkpt lat="44.81847954935761" lon="9.217498135634928"><ele>496.20000000000005</ele><time>2026-04-06T12:41:12.001Z</time></trkpt><trkpt lat="44.818505514391916" lon="9.217617523516006"><ele>498.6</ele><time>2026-04-06T12:41:13.001Z</time></trkpt><trkpt lat="44.81848238692942" lon="9.217741672826175"><ele>501.0</ele><time>2026-04-06T12:41:14.001Z</time></trkpt><trkpt lat="44.81840509224523" lon="9.217858241234701"><ele>501.0</ele><time>2026-04-06T12:41:15.001Z</time></trkpt><trkpt lat="44.81831324044351" lon="9.21793755401131"><ele>501.0</ele><time>2026-04-06T12:41:16.001Z</time></trkpt><trkpt lat="44.81821159684041" lon="9.217943524053094"><ele>501.0</ele><time>2026-04-06T12:41:17.001Z</time></trkpt><trkpt lat="44.818126287742366" lon="9.217852581632787"><ele>501.0</ele><time>2026-04-06T12:41:18.001Z</time></trkpt><trkpt lat="44.81804760211547" lon="9.21774601950824"><ele>501.0</ele><time>2026-04-06T12:41:19.001Z</time></trkpt><trkpt lat="44.81793813194106" lon="9.217605320873874"><ele>501.0</ele><time>2026-04-06T12:41:20.001Z</time></trkpt><trkpt lat="44.81783767461801" lon="9.217430416844484"><ele>501.0</ele><time>2026-04-06T12:41:21.001Z</time></trkpt><trkpt lat="44.81775151513923" lon="9.217302160245575"><ele>501.0</ele><time>2026-04-06T12:41:22.001Z</time></trkpt><trkpt lat="44.8176654006218" lon="9.217213704385504"><ele>501.0</ele><time>2026-04-06T12:41:23.001Z</time></trkpt><trkpt lat="44.81757904955331" lon="9.217169137466989"><ele>499.75</ele><time>2026-04-06T12:41:24.001Z</time></trkpt><trkpt lat="44.81748046127802" lon="9.21717133689366"><ele>498.5</ele><time>2026-04-06T12:41:25.001Z</time></trkpt><trkpt lat="44.81737154941219" lon="9.217219322250203"><ele>497.25</ele><time>2026-04-06T12:41:26.001Z</time></trkpt><trkpt lat="44.817251298958034" lon="9.217294539867313"><ele>496.0</ele><time>2026-04-06T12:41:27.001Z</time></trkpt><trkpt lat="44.817131059247174" lon="9.217367408853919"><ele>497.75</ele><time>2026-04-06T12:41:28.001Z</time></trkpt><trkpt lat="44.81702448778976" lon="9.217445212359713"><ele>499.5</ele><time>2026-04-06T12:41:29.001Z</time></trkpt><trkpt lat="44.81692384564904" lon="9.21755160866865"><ele>501.25</ele><time>2026-04-06T12:41:30.001Z</time></trkpt><trkpt lat="44.8168246724849" lon="9.217689491166004"><ele>503.0</ele><time>2026-04-06T12:41:31.001Z</time></trkpt><trkpt lat="44.8167214565078" lon="9.217854292800649"><ele>503.0</ele><time>2026-04-06T12:41:32.001Z</time></trkpt><trkpt lat="44.81660580243519" lon="9.218052571310176"><ele>503.0</ele><time>2026-04-06T12:41:33.001Z</time></trkpt><trkpt lat="44.81648309147467" lon="9.218276416113"><ele>503.0</ele><time>2026-04-06T12:41:34.001Z</time></trkpt><trkpt lat="44.81638816868933" lon="9.218464903688156"><ele>505.79999999999995</ele><time>2026-04-06T12:41:35.001Z</time></trkpt><trkpt lat="44.81632504369349" lon="9.218593923289957"><ele>508.59999999999997</ele><time>2026-04-06T12:41:36.001Z</time></trkpt><trkpt lat="44.81626705636076" lon="9.218719747197541"><ele>511.40000000000003</ele><time>2026-04-06T12:41:37.001Z</time></trkpt><trkpt lat="44.81624294339521" lon="9.21883751094811"><ele>514.2</ele><time>2026-04-06T12:41:38.001Z</time></trkpt><trkpt lat="44.81625014863106" lon="9.218960674714742"><ele>517.0</ele><time>2026-04-06T12:41:39.001Z</time></trkpt><trkpt lat="44.81629408701241" lon="9.219051506432677"><ele>517.0</ele><time>2026-04-06T12:41:40.001Z</time></trkpt><trkpt lat="44.816363355724924" lon="9.219109649254674"><ele>517.0</ele><time>2026-04-06T12:41:41.001Z</time></trkpt><trkpt lat="44.81644749242286" lon="9.219114451411196"><ele>517.0</ele><time>2026-04-06T12:41:42.001Z</time></trkpt><trkpt lat="44.81654650254766" lon="9.219077912027853"><ele>517.0</ele><time>2026-04-06T12:41:43.001Z</time></trkpt><trkpt lat="44.81665809805565" lon="9.219001617653072"><ele>517.0</ele><time>2026-04-06T12:41:44.001Z</time></trkpt><trkpt lat="44.816776414145046" lon="9.21888979127378"><ele>517.4</ele><time>2026-04-06T12:41:45.001Z</time></trkpt><trkpt lat="44.81689131068976" lon="9.218830011456191"><ele>517.8000000000001</ele><time>2026-04-06T12:41:46.001Z</time></trkpt><trkpt lat="44.81697515603119" lon="9.218764395223538"><ele>518.2</ele><time>2026-04-06T12:41:47.001Z</time></trkpt><trkpt lat="44.81706116250093" lon="9.218700103612719"><ele>518.6</ele><time>2026-04-06T12:41:48.001Z</time></trkpt><trkpt lat="44.81714411463596" lon="9.218692851117936"><ele>519.0</ele><time>2026-04-06T12:41:49.001Z</time></trkpt><trkpt lat="44.81721816611971" lon="9.218711696308544"><ele>519.0</ele><time>2026-04-06T12:41:50.001Z</time></trkpt><trkpt lat="44.8172836048235" lon="9.218753477785866"><ele>519.0</ele><time>2026-04-06T12:41:51.001Z</time></trkpt><trkpt lat="44.81731953122645" lon="9.218885219678974"><ele>519.0</ele><time>2026-04-06T12:41:52.001Z</time></trkpt><trkpt lat="44.81733612577535" lon="9.219010251155996"><ele>519.0</ele><time>2026-04-06T12:41:53.001Z</time></trkpt><trkpt lat="44.817265869042394" lon="9.219129499565994"><ele>519.0</ele><time>2026-04-06T12:41:54.001Z</time></trkpt><trkpt lat="44.81719007482056" lon="9.219222638457074"><ele>520.75</ele><time>2026-04-06T12:41:55.001Z</time></trkpt><trkpt lat="44.81709656877218" lon="9.219382125147565"><ele>522.5</ele><time>2026-04-06T12:41:56.001Z</time></trkpt><trkpt lat="44.81700327079716" lon="9.219552373698614"><ele>524.25</ele><time>2026-04-06T12:41:57.001Z</time></trkpt><trkpt lat="44.81687840500842" lon="9.21966877490454"><ele>526.0</ele><time>2026-04-06T12:41:58.001Z</time></trkpt><trkpt lat="44.8167378329779" lon="9.219784068331128"><ele>530.3333333333334</ele><time>2026-04-06T12:41:59.001Z</time></trkpt><trkpt lat="44.816600529761374" lon="9.219902938735563"><ele>534.6666666666666</ele><time>2026-04-06T12:42:00.001Z</time></trkpt><trkpt lat="44.816492793692895" lon="9.2200659536709"><ele>539.0</ele><time>2026-04-06T12:42:01.001Z</time></trkpt><trkpt lat="44.816397343411424" lon="9.220241782543697"><ele>539.0</ele><time>2026-04-06T12:42:02.001Z</time></trkpt><trkpt lat="44.81630464815832" lon="9.220430269594718"><ele>539.0</ele><time>2026-04-06T12:42:03.001Z</time></trkpt><trkpt lat="44.816201738302794" lon="9.220600336826623"><ele>539.0</ele><time>2026-04-06T12:42:04Z</time></trkpt><trkpt lat="44.81607072080102" lon="9.220724178624572"><ele>540.5</ele><time>2026-04-06T12:42:05Z</time></trkpt><trkpt lat="44.815948578992334" lon="9.220837231665735"><ele>542.0</ele><time>2026-04-06T12:42:06Z</time></trkpt><trkpt lat="44.81585526660353" lon="9.220959840909773"><ele>543.5</ele><time>2026-04-06T12:42:07Z</time></trkpt><trkpt lat="44.815772641643775" lon="9.221082744336796"><ele>545.0</ele><time>2026-04-06T12:42:08Z</time></trkpt><trkpt lat="44.81570141694496" lon="9.221220349003556"><ele>545.0</ele><time>2026-04-06T12:42:09Z</time></trkpt><trkpt lat="44.81565364592433" lon="9.221408974589501"><ele>545.0</ele><time>2026-04-06T12:42:10Z</time></trkpt><trkpt lat="44.815588648496686" lon="9.221603784268792"><ele>545.0</ele><time>2026-04-06T12:42:11Z</time></trkpt><trkpt lat="44.81551726468533" lon="9.22179536091836"><ele>545.0</ele><time>2026-04-06T12:42:12Z</time></trkpt><trkpt lat="44.81546070686987" lon="9.221993543490145"><ele>547.75</ele><time>2026-04-06T12:42:13Z</time></trkpt><trkpt lat="44.81542095968856" lon="9.222205886462666"><ele>550.5</ele><time>2026-04-06T12:42:14Z</time></trkpt><trkpt lat="44.81539758216067" lon="9.222387540411965"><ele>553.25</ele><time>2026-04-06T12:42:15Z</time></trkpt><trkpt lat="44.81535649219142" lon="9.222543402149103"><ele>556.0</ele><time>2026-04-06T12:42:16Z</time></trkpt><trkpt lat="44.81526821557253" lon="9.222653561045911"><ele>556.25</ele><time>2026-04-06T12:42:17Z</time></trkpt><trkpt lat="44.81514612528443" lon="9.22270435864839"><ele>556.5</ele><time>2026-04-06T12:42:18Z</time></trkpt><trkpt lat="44.81504856194781" lon="9.222778027847351"><ele>556.75</ele><time>2026-04-06T12:42:19Z</time></trkpt><trkpt lat="44.814982950079866" lon="9.222869839765336"><ele>557.0</ele><time>2026-04-06T12:42:20Z</time></trkpt><trkpt lat="44.81493746058654" lon="9.223032243936318"><ele>560.25</ele><time>2026-04-06T12:42:21Z</time></trkpt><trkpt lat="44.814901679454984" lon="9.223219477302568"><ele>563.5</ele><time>2026-04-06T12:42:22Z</time></trkpt><trkpt lat="44.81481099298989" lon="9.22332373173132"><ele>566.75</ele><time>2026-04-06T12:42:23Z</time></trkpt><trkpt lat="44.81469383853435" lon="9.223395920235243"><ele>570.0</ele><time>2026-04-06T12:42:24Z</time></trkpt><trkpt lat="44.814597055348514" lon="9.223504032551908"><ele>570.0</ele><time>2026-04-06T12:42:25Z</time></trkpt><trkpt lat="44.81451964325937" lon="9.223647705072132"><ele>570.0</ele><time>2026-04-06T12:42:26Z</time></trkpt><trkpt lat="44.814463015635354" lon="9.22383379400039"><ele>570.0</ele><time>2026-04-06T12:42:27Z</time></trkpt><trkpt lat="44.81441428754904" lon="9.224040846831347"><ele>570.0</ele><time>2026-04-06T12:42:28Z</time></trkpt><trkpt lat="44.81435431652507" lon="9.22425350578368"><ele>569.3333333333334</ele><time>2026-04-06T12:42:29Z</time></trkpt><trkpt lat="44.81426322355802" lon="9.22445604602307"><ele>568.6666666666667</ele><time>2026-04-06T12:42:30Z</time></trkpt><trkpt lat="44.81422577377848" lon="9.224692938678242"><ele>568.0</ele><time>2026-04-06T12:42:31Z</time></trkpt><trkpt lat="44.81419438625508" lon="9.224899660144297"><ele>571.0</ele><time>2026-04-06T12:42:32Z</time></trkpt><trkpt lat="44.81413787986063" lon="9.225077984803681"><ele>574.0</ele><time>2026-04-06T12:42:33Z</time></trkpt><trkpt lat="44.81405642214095" lon="9.22524864658842"><ele>577.0</ele><time>2026-04-06T12:42:34Z</time></trkpt><trkpt lat="44.81397930178211" lon="9.225432433571404"><ele>580.0</ele><time>2026-04-06T12:42:35Z</time></trkpt><trkpt lat="44.81387682773572" lon="9.225583772099895"><ele>581.3333333333334</ele><time>2026-04-06T12:42:36Z</time></trkpt><trkpt lat="44.81373343676366" lon="9.225671213138227"><ele>582.6666666666666</ele><time>2026-04-06T12:42:37Z</time></trkpt><trkpt lat="44.81359157502028" lon="9.22580325169904"><ele>584.0</ele><time>2026-04-06T12:42:38Z</time></trkpt><trkpt lat="44.81342200789263" lon="9.225903410265794"><ele>584.0</ele><time>2026-04-06T12:42:39Z</time></trkpt><trkpt lat="44.813264979976836" lon="9.22599694839503"><ele>584.0</ele><time>2026-04-06T12:42:40Z</time></trkpt><trkpt lat="44.813135865844274" lon="9.226072832772159"><ele>584.0</ele><time>2026-04-06T12:42:41Z</time></trkpt><trkpt lat="44.81303498324812" lon="9.226165374213334"><ele>584.0</ele><time>2026-04-06T12:42:42Z</time></trkpt><trkpt lat="44.81296825117368" lon="9.226294158622867"><ele>584.0</ele><time>2026-04-06T12:42:43Z</time></trkpt><trkpt lat="44.81292242136302" lon="9.226467902714635"><ele>584.0</ele><time>2026-04-06T12:42:44Z</time></trkpt><trkpt lat="44.81285917192234" lon="9.22666046627985"><ele>584.0</ele><time>2026-04-06T12:42:45Z</time></trkpt><trkpt lat="44.812774798658246" lon="9.226836933875086"><ele>584.0</ele><time>2026-04-06T12:42:46Z</time></trkpt><trkpt lat="44.81268344776889" lon="9.226991425964176"><ele>583.5</ele><time>2026-04-06T12:42:47Z</time></trkpt><trkpt lat="44.81259083539683" lon="9.227151454906688"><ele>583.0</ele><time>2026-04-06T12:42:48Z</time></trkpt><trkpt lat="44.81249191845316" lon="9.227311655678124"><ele>582.5</ele><time>2026-04-06T12:42:49Z</time></trkpt><trkpt lat="44.81238597775008" lon="9.22746542162327"><ele>582.0</ele><time>2026-04-06T12:42:50Z</time></trkpt><trkpt lat="44.81228056687199" lon="9.227615954977972"><ele>585.25</ele><time>2026-04-06T12:42:51Z</time></trkpt><trkpt lat="44.81218746862224" lon="9.227763706656418"><ele>588.5</ele><time>2026-04-06T12:42:52Z</time></trkpt><trkpt lat="44.81211762491943" lon="9.227913483031672"><ele>591.75</ele><time>2026-04-06T12:42:53Z</time></trkpt><trkpt lat="44.81207354213073" lon="9.228091472155485"><ele>595.0</ele><time>2026-04-06T12:42:54Z</time></trkpt><trkpt lat="44.812057156420366" lon="9.228284386452314"><ele>596.6666666666667</ele><time>2026-04-06T12:42:55Z</time></trkpt><trkpt lat="44.812071001957754" lon="9.22848998266751"><ele>598.3333333333334</ele><time>2026-04-06T12:42:56Z</time></trkpt><trkpt lat="44.81210599098573" lon="9.228705168990345"><ele>600.0</ele><time>2026-04-06T12:42:57Z</time></trkpt><trkpt lat="44.81215044440565" lon="9.228925598023816"><ele>602.0</ele><time>2026-04-06T12:42:58Z</time></trkpt><trkpt lat="44.81215398863477" lon="9.229138700959288"><ele>604.0</ele><time>2026-04-06T12:42:59Z</time></trkpt><trkpt lat="44.81214482272073" lon="9.2293516832647"><ele>606.0</ele><time>2026-04-06T12:43:00.001Z</time></trkpt><trkpt lat="44.812105889976074" lon="9.229580930321417"><ele>606.0</ele><time>2026-04-06T12:43:01.001Z</time></trkpt><trkpt lat="44.81204181226739" lon="9.22980529151494"><ele>606.0</ele><time>2026-04-06T12:43:02.001Z</time></trkpt><trkpt lat="44.81196101783336" lon="9.230044057731263"><ele>606.0</ele><time>2026-04-06T12:43:03.001Z</time></trkpt><trkpt lat="44.81188947939803" lon="9.230283585257327"><ele>606.0</ele><time>2026-04-06T12:43:04.001Z</time></trkpt><trkpt lat="44.811810150740804" lon="9.23049843864338"><ele>606.0</ele><time>2026-04-06T12:43:05.001Z</time></trkpt><trkpt lat="44.81176448539599" lon="9.230718229567449"><ele>606.0</ele><time>2026-04-06T12:43:06.001Z</time></trkpt><trkpt lat="44.81174519168162" lon="9.230941456971431"><ele>606.0</ele><time>2026-04-06T12:43:07.001Z</time></trkpt><trkpt lat="44.81175809931822" lon="9.231163316603682"><ele>606.0</ele><time>2026-04-06T12:43:08.001Z</time></trkpt><trkpt lat="44.811794018456794" lon="9.231368113973337"><ele>606.0</ele><time>2026-04-06T12:43:09.001Z</time></trkpt><trkpt lat="44.81184283552755" lon="9.231540678171909"><ele>606.0</ele><time>2026-04-06T12:43:10.001Z</time></trkpt><trkpt lat="44.81183130086824" lon="9.231702892208531"><ele>607.5</ele><time>2026-04-06T12:43:11.001Z</time></trkpt><trkpt lat="44.81179059830438" lon="9.231852409602501"><ele>609.0</ele><time>2026-04-06T12:43:12.001Z</time></trkpt><trkpt lat="44.81169515657097" lon="9.23193918529327"><ele>610.5</ele><time>2026-04-06T12:43:13.001Z</time></trkpt><trkpt lat="44.81162270201845" lon="9.232066742092488"><ele>612.0</ele><time>2026-04-06T12:43:14.001Z</time></trkpt><trkpt lat="44.811542085296196" lon="9.232178728547737"><ele>613.25</ele><time>2026-04-06T12:43:15.001Z</time></trkpt><trkpt lat="44.81151543133088" lon="9.232340839149085"><ele>614.5</ele><time>2026-04-06T12:43:16.001Z</time></trkpt><trkpt lat="44.811529055096" lon="9.232520812410534"><ele>615.75</ele><time>2026-04-06T12:43:17.001Z</time></trkpt><trkpt lat="44.811566125478976" lon="9.232698561121357"><ele>617.0</ele><time>2026-04-06T12:43:18.001Z</time></trkpt><trkpt lat="44.81155556845737" lon="9.232867597605225"><ele>617.0</ele><time>2026-04-06T12:43:19.001Z</time></trkpt><trkpt lat="44.81151646774583" lon="9.233022910920543"><ele>617.0</ele><time>2026-04-06T12:43:20.001Z</time></trkpt><trkpt lat="44.811452585840605" lon="9.233165229365737"><ele>617.0</ele><time>2026-04-06T12:43:21.001Z</time></trkpt><trkpt lat="44.81134258921557" lon="9.233241851149524"><ele>617.0</ele><time>2026-04-06T12:43:22.001Z</time></trkpt><trkpt lat="44.81121894006228" lon="9.233343729167585"><ele>616.3333333333333</ele><time>2026-04-06T12:43:23.001Z</time></trkpt><trkpt lat="44.811090646273776" lon="9.233459720054189"><ele>615.6666666666666</ele><time>2026-04-06T12:43:24.001Z</time></trkpt><trkpt lat="44.8109615679974" lon="9.23359079186539"><ele>615.0</ele><time>2026-04-06T12:43:25.001Z</time></trkpt><trkpt lat="44.81084102759788" lon="9.233739489951848"><ele>615.0</ele><time>2026-04-06T12:43:26.001Z</time></trkpt><trkpt lat="44.810726652239" lon="9.233896065721694"><ele>615.0</ele><time>2026-04-06T12:43:27.001Z</time></trkpt><trkpt lat="44.81059900187454" lon="9.23401507388081"><ele>615.0</ele><time>2026-04-06T12:43:28.001Z</time></trkpt><trkpt lat="44.81049668294028" lon="9.234163728458899"><ele>618.25</ele><time>2026-04-06T12:43:29.001Z</time></trkpt><trkpt lat="44.81039072054308" lon="9.234304064596667"><ele>621.5</ele><time>2026-04-06T12:43:30.001Z</time></trkpt><trkpt lat="44.810298228414986" lon="9.234468630115298"><ele>624.75</ele><time>2026-04-06T12:43:31.001Z</time></trkpt><trkpt lat="44.81021977878223" lon="9.234655102200271"><ele>628.0</ele><time>2026-04-06T12:43:32.001Z</time></trkpt><trkpt lat="44.81016295158997" lon="9.234851402813039"><ele>628.0</ele><time>2026-04-06T12:43:33.001Z</time></trkpt><trkpt lat="44.81010597302126" lon="9.235016943561671"><ele>628.0</ele><time>2026-04-06T12:43:34.001Z</time></trkpt><trkpt lat="44.81002302780608" lon="9.235141474505893"><ele>628.0</ele><time>2026-04-06T12:43:35.001Z</time></trkpt><trkpt lat="44.809899466179616" lon="9.235191341784157"><ele>628.0</ele><time>2026-04-06T12:43:36.001Z</time></trkpt><trkpt lat="44.80979095307965" lon="9.235280092503748"><ele>628.0</ele><time>2026-04-06T12:43:37.001Z</time></trkpt><trkpt lat="44.80969701904701" lon="9.235360780496451"><ele>628.0</ele><time>2026-04-06T12:43:38.001Z</time></trkpt><trkpt lat="44.80964120666945" lon="9.235501490759527"><ele>628.0</ele><time>2026-04-06T12:43:39.001Z</time></trkpt><trkpt lat="44.809618446526756" lon="9.235675506172187"><ele>628.0</ele><time>2026-04-06T12:43:40.001Z</time></trkpt><trkpt lat="44.80962717873568" lon="9.235869095856343"><ele>631.3333333333334</ele><time>2026-04-06T12:43:41.001Z</time></trkpt><trkpt lat="44.80965528853199" lon="9.236081602460999"><ele>634.6666666666666</ele><time>2026-04-06T12:43:42.001Z</time></trkpt><trkpt lat="44.809681480861435" lon="9.236305418533131"><ele>638.0</ele><time>2026-04-06T12:43:43.001Z</time></trkpt><trkpt lat="44.80964809085328" lon="9.236525166982535"><ele>640.6666666666666</ele><time>2026-04-06T12:43:44.001Z</time></trkpt><trkpt lat="44.80963824863062" lon="9.236743486602519"><ele>643.3333333333334</ele><time>2026-04-06T12:43:45.001Z</time></trkpt><trkpt lat="44.80962202296041" lon="9.236947785731694"><ele>646.0</ele><time>2026-04-06T12:43:46.001Z</time></trkpt><trkpt lat="44.80964900263114" lon="9.237167292252288"><ele>646.3333333333334</ele><time>2026-04-06T12:43:47.001Z</time></trkpt><trkpt lat="44.80968819626937" lon="9.23739366036314"><ele>646.6666666666666</ele><time>2026-04-06T12:43:48.001Z</time></trkpt><trkpt lat="44.80972338737525" lon="9.237630623334587"><ele>647.0</ele><time>2026-04-06T12:43:49.001Z</time></trkpt><trkpt lat="44.809751669690556" lon="9.23787203128932"><ele>647.0</ele><time>2026-04-06T12:43:50.001Z</time></trkpt><trkpt lat="44.809777488068946" lon="9.238090146925767"><ele>647.0</ele><time>2026-04-06T12:43:51.001Z</time></trkpt><trkpt lat="44.809796133658836" lon="9.238288711474308"><ele>647.0</ele><time>2026-04-06T12:43:52.001Z</time></trkpt><trkpt lat="44.8097712402434" lon="9.238457237585187"><ele>647.0</ele><time>2026-04-06T12:43:53.001Z</time></trkpt><trkpt lat="44.80974136199006" lon="9.238617509314311"><ele>646.8</ele><time>2026-04-06T12:43:54.001Z</time></trkpt><trkpt lat="44.80972959029449" lon="9.238768163618298"><ele>646.6</ele><time>2026-04-06T12:43:55.001Z</time></trkpt><trkpt lat="44.80972663131452" lon="9.238900661800466"><ele>646.4</ele><time>2026-04-06T12:43:56.001Z</time></trkpt><trkpt lat="44.80982756782521" lon="9.239009015701821"><ele>646.1999999999999</ele><time>2026-04-06T12:43:57.001Z</time></trkpt><trkpt lat="44.809914282736976" lon="9.239105803802385"><ele>646.0</ele><time>2026-04-06T12:43:58.001Z</time></trkpt><trkpt lat="44.81001541768747" lon="9.239199272434055"><ele>646.75</ele><time>2026-04-06T12:43:59.001Z</time></trkpt><trkpt lat="44.81009731309704" lon="9.239330478974082"><ele>647.5</ele><time>2026-04-06T12:44:00.001Z</time></trkpt><trkpt lat="44.81015756408908" lon="9.239476810649343"><ele>648.25</ele><time>2026-04-06T12:44:01.001Z</time></trkpt><trkpt lat="44.81017956712806" lon="9.2396425755617"><ele>649.0</ele><time>2026-04-06T12:44:02.001Z</time></trkpt><trkpt lat="44.81017828758697" lon="9.23981693558389"><ele>649.0</ele><time>2026-04-06T12:44:03.001Z</time></trkpt><trkpt lat="44.81015107683468" lon="9.240025116678162"><ele>649.0</ele><time>2026-04-06T12:44:04.001Z</time></trkpt><trkpt lat="44.810118893858395" lon="9.240267029150809"><ele>649.0</ele><time>2026-04-06T12:44:05.001Z</time></trkpt><trkpt lat="44.81009617011025" lon="9.24052535741603"><ele>648.75</ele><time>2026-04-06T12:44:06.001Z</time></trkpt><trkpt lat="44.81006408888394" lon="9.240739337491634"><ele>648.5</ele><time>2026-04-06T12:44:07.001Z</time></trkpt><trkpt lat="44.81005436741171" lon="9.24092867208065"><ele>648.25</ele><time>2026-04-06T12:44:08.001Z</time></trkpt><trkpt lat="44.81006979853498" lon="9.241110340527047"><ele>648.0</ele><time>2026-04-06T12:44:09.001Z</time></trkpt><trkpt lat="44.81010044351496" lon="9.241279166492513"><ele>648.0</ele><time>2026-04-06T12:44:10Z</time></trkpt><trkpt lat="44.81015728027986" lon="9.241437322411022"><ele>648.0</ele><time>2026-04-06T12:44:11Z</time></trkpt><trkpt lat="44.81024944559816" lon="9.241583008326712"><ele>648.0</ele><time>2026-04-06T12:44:12Z</time></trkpt><trkpt lat="44.81035123241508" lon="9.241717206678212"><ele>648.0</ele><time>2026-04-06T12:44:13Z</time></trkpt><trkpt lat="44.810430629453556" lon="9.241866843770849"><ele>649.5</ele><time>2026-04-06T12:44:14Z</time></trkpt><trkpt lat="44.81043674887748" lon="9.24204062240415"><ele>651.0</ele><time>2026-04-06T12:44:15Z</time></trkpt><trkpt lat="44.81049372889066" lon="9.242197724641489"><ele>652.5</ele><time>2026-04-06T12:44:16Z</time></trkpt><trkpt lat="44.810605280271226" lon="9.242306072499849"><ele>654.0</ele><time>2026-04-06T12:44:17Z</time></trkpt><trkpt lat="44.810726224919044" lon="9.242403467659683"><ele>654.0</ele><time>2026-04-06T12:44:18Z</time></trkpt><trkpt lat="44.810824327783166" lon="9.24254525101237"><ele>654.0</ele><time>2026-04-06T12:44:19Z</time></trkpt><trkpt lat="44.81091750603331" lon="9.242694438115254"><ele>654.0</ele><time>2026-04-06T12:44:20Z</time></trkpt><trkpt lat="44.810985156173395" lon="9.242882688566402"><ele>654.0</ele><time>2026-04-06T12:44:21Z</time></trkpt><trkpt lat="44.81102800629068" lon="9.243097121034834"><ele>660.6666666666666</ele><time>2026-04-06T12:44:22Z</time></trkpt><trkpt lat="44.811031079485005" lon="9.243323211835675"><ele>667.3333333333333</ele><time>2026-04-06T12:44:23Z</time></trkpt><trkpt lat="44.81105718077928" lon="9.24355889989846"><ele>674.0</ele><time>2026-04-06T12:44:24Z</time></trkpt><trkpt lat="44.81106686875766" lon="9.243811764628141"><ele>673.3333333333333</ele><time>2026-04-06T12:44:25Z</time></trkpt><trkpt lat="44.81108134267687" lon="9.244065506439195"><ele>672.6666666666666</ele><time>2026-04-06T12:44:26Z</time></trkpt><trkpt lat="44.8111006635224" lon="9.244303066586468"><ele>672.0</ele><time>2026-04-06T12:44:27Z</time></trkpt><trkpt lat="44.81111632516791" lon="9.244521756843767"><ele>672.0</ele><time>2026-04-06T12:44:28Z</time></trkpt><trkpt lat="44.811141486414584" lon="9.244723056299138"><ele>672.0</ele><time>2026-04-06T12:44:29Z</time></trkpt><trkpt lat="44.81118673577171" lon="9.244909696325022"><ele>672.0</ele><time>2026-04-06T12:44:30Z</time></trkpt><trkpt lat="44.811259447157234" lon="9.245078206909989"><ele>672.0</ele><time>2026-04-06T12:44:31Z</time></trkpt><trkpt lat="44.81135731083877" lon="9.245236163195983"><ele>670.3333333333334</ele><time>2026-04-06T12:44:32Z</time></trkpt><trkpt lat="44.81145215100388" lon="9.245405401035208"><ele>668.6666666666667</ele><time>2026-04-06T12:44:33Z</time></trkpt><trkpt lat="44.81152618443644" lon="9.245600931606424"><ele>667.0</ele><time>2026-04-06T12:44:34Z</time></trkpt><trkpt lat="44.81159155834915" lon="9.24581482704312"><ele>668.25</ele><time>2026-04-06T12:44:35Z</time></trkpt><trkpt lat="44.81165663248091" lon="9.246020696599205"><ele>669.5</ele><time>2026-04-06T12:44:36Z</time></trkpt><trkpt lat="44.81172402503787" lon="9.246202329002893"><ele>670.75</ele><time>2026-04-06T12:44:37Z</time></trkpt><trkpt lat="44.811807121200424" lon="9.246357158374959"><ele>672.0</ele><time>2026-04-06T12:44:38Z</time></trkpt><trkpt lat="44.81190768761976" lon="9.24648359758561"><ele>672.0</ele><time>2026-04-06T12:44:39Z</time></trkpt><trkpt lat="44.81201342894101" lon="9.246581920160212"><ele>672.0</ele><time>2026-04-06T12:44:40Z</time></trkpt><trkpt lat="44.81210983966335" lon="9.246651383078303"><ele>672.0</ele><time>2026-04-06T12:44:41Z</time></trkpt><trkpt lat="44.81216995860077" lon="9.246725588388575"><ele>672.0</ele><time>2026-04-06T12:44:42Z</time></trkpt><trkpt lat="44.81222310669342" lon="9.246801644947979"><ele>672.0</ele><time>2026-04-06T12:44:43Z</time></trkpt><trkpt lat="44.81223943960174" lon="9.246936650663049"><ele>672.0</ele><time>2026-04-06T12:44:44Z</time></trkpt><trkpt lat="44.812173403843815" lon="9.247075345670499"><ele>672.0</ele><time>2026-04-06T12:44:45Z</time></trkpt><trkpt lat="44.8121365296463" lon="9.247241214374768"><ele>672.0</ele><time>2026-04-06T12:44:46Z</time></trkpt><trkpt lat="44.812114436602755" lon="9.247358499166168"><ele>672.0</ele><time>2026-04-06T12:44:47Z</time></trkpt><trkpt lat="44.81208998106235" lon="9.247530414636758"><ele>672.25</ele><time>2026-04-06T12:44:48Z</time></trkpt><trkpt lat="44.81208391850879" lon="9.247711057157305"><ele>672.5</ele><time>2026-04-06T12:44:49Z</time></trkpt><trkpt lat="44.81210640442303" lon="9.247913159123515"><ele>672.75</ele><time>2026-04-06T12:44:50Z</time></trkpt><trkpt lat="44.81213535465164" lon="9.248125691263644"><ele>673.0</ele><time>2026-04-06T12:44:51Z</time></trkpt><trkpt lat="44.81216907674518" lon="9.248348443081031"><ele>674.0</ele><time>2026-04-06T12:44:52Z</time></trkpt><trkpt lat="44.81221524033356" lon="9.248565517928695"><ele>675.0</ele><time>2026-04-06T12:44:53Z</time></trkpt><trkpt lat="44.81222847935462" lon="9.248804164893208"><ele>676.0</ele><time>2026-04-06T12:44:54Z</time></trkpt><trkpt lat="44.8122477629095" lon="9.249031503330215"><ele>676.0</ele><time>2026-04-06T12:44:55Z</time></trkpt><trkpt lat="44.81227431087374" lon="9.249249221875921"><ele>676.0</ele><time>2026-04-06T12:44:56Z</time></trkpt><trkpt lat="44.81231820523415" lon="9.249477495101006"><ele>676.0</ele><time>2026-04-06T12:44:57Z</time></trkpt><trkpt lat="44.81236609551179" lon="9.249678066484822"><ele>675.4</ele><time>2026-04-06T12:44:58Z</time></trkpt><trkpt lat="44.81241106085327" lon="9.249858647361682"><ele>674.8</ele><time>2026-04-06T12:44:59Z</time></trkpt><trkpt lat="44.8124505610669" lon="9.250019464193214"><ele>674.1999999999999</ele><time>2026-04-06T12:45:00Z</time></trkpt><trkpt lat="44.8124769820303" lon="9.250145652796727"><ele>673.5999999999999</ele><time>2026-04-06T12:45:01Z</time></trkpt><trkpt lat="44.81247648901509" lon="9.250247756951838"><ele>673.0</ele><time>2026-04-06T12:45:02Z</time></trkpt><trkpt lat="44.81240121039521" lon="9.25039181848553"><ele>673.0</ele><time>2026-04-06T12:45:04Z</time></trkpt><trkpt lat="44.812315740265085" lon="9.25039999761968"><ele>673.0</ele><time>2026-04-06T12:45:05Z</time></trkpt><trkpt lat="44.81221507491374" lon="9.25033213056637"><ele>673.0</ele><time>2026-04-06T12:45:06Z</time></trkpt><trkpt lat="44.81210365957096" lon="9.250256804214303"><ele>673.0</ele><time>2026-04-06T12:45:07Z</time></trkpt><trkpt lat="44.81197087684255" lon="9.250187563275476"><ele>670.5</ele><time>2026-04-06T12:45:08Z</time></trkpt><trkpt lat="44.81181519242322" lon="9.250141046334194"><ele>668.0</ele><time>2026-04-06T12:45:09Z</time></trkpt><trkpt lat="44.811731427759455" lon="9.250168309107172"><ele>665.5</ele><time>2026-04-06T12:45:10Z</time></trkpt><trkpt lat="44.81161412476767" lon="9.25023014878625"><ele>663.0</ele><time>2026-04-06T12:45:11Z</time></trkpt><trkpt lat="44.81148158854168" lon="9.250329274690428"><ele>663.0</ele><time>2026-04-06T12:45:12Z</time></trkpt><trkpt lat="44.81133067696185" lon="9.250442040666679"><ele>663.0</ele><time>2026-04-06T12:45:13.001Z</time></trkpt><trkpt lat="44.81118972522452" lon="9.250539117173224"><ele>663.0</ele><time>2026-04-06T12:45:14.001Z</time></trkpt><trkpt lat="44.811062076486074" lon="9.250658267212316"><ele>664.6666666666666</ele><time>2026-04-06T12:45:15.001Z</time></trkpt><trkpt lat="44.8109517441099" lon="9.250806585481744"><ele>666.3333333333333</ele><time>2026-04-06T12:45:16.001Z</time></trkpt><trkpt lat="44.81085785070345" lon="9.250981302704515"><ele>668.0</ele><time>2026-04-06T12:45:17.001Z</time></trkpt><trkpt lat="44.81076247773821" lon="9.251171751885497"><ele>668.0</ele><time>2026-04-06T12:45:18.001Z</time></trkpt><trkpt lat="44.81067498821531" lon="9.251339551236192"><ele>668.0</ele><time>2026-04-06T12:45:19.001Z</time></trkpt><trkpt lat="44.810604445299525" lon="9.251483524785364"><ele>668.0</ele><time>2026-04-06T12:45:20.001Z</time></trkpt><trkpt lat="44.81056366665842" lon="9.251636929230333"><ele>668.0</ele><time>2026-04-06T12:45:21.001Z</time></trkpt><trkpt lat="44.81055085626877" lon="9.251797463693132"><ele>669.5</ele><time>2026-04-06T12:45:22.001Z</time></trkpt><trkpt lat="44.81057197427667" lon="9.251963704200474"><ele>671.0</ele><time>2026-04-06T12:45:23.001Z</time></trkpt><trkpt lat="44.81062270075214" lon="9.2521480291716"><ele>672.5</ele><time>2026-04-06T12:45:24.001Z</time></trkpt><trkpt lat="44.810685670866306" lon="9.252366687530168"><ele>674.0</ele><time>2026-04-06T12:45:25.001Z</time></trkpt><trkpt lat="44.8107501577814" lon="9.252622155944016"><ele>674.0</ele><time>2026-04-06T12:45:26.001Z</time></trkpt><trkpt lat="44.81080169229197" lon="9.252852203801865"><ele>674.0</ele><time>2026-04-06T12:45:27.001Z</time></trkpt><trkpt lat="44.810855719863525" lon="9.253057287086495"><ele>674.0</ele><time>2026-04-06T12:45:28.001Z</time></trkpt><trkpt lat="44.81091719650316" lon="9.253235390227593"><ele>671.5</ele><time>2026-04-06T12:45:29.001Z</time></trkpt><trkpt lat="44.810983837833994" lon="9.25339294461601"><ele>669.0</ele><time>2026-04-06T12:45:30.001Z</time></trkpt><trkpt lat="44.811188485329005" lon="9.253744403307964"><ele>671.6666666666666</ele><time>2026-04-06T12:45:31.001Z</time></trkpt><trkpt lat="44.81132900188345" lon="9.25397718250953"><ele>674.3333333333333</ele><time>2026-04-06T12:45:32.001Z</time></trkpt><trkpt lat="44.81144526143717" lon="9.254173225945527"><ele>677.0</ele><time>2026-04-06T12:45:33.001Z</time></trkpt><trkpt lat="44.81152523491061" lon="9.254377355500681"><ele>677.0</ele><time>2026-04-06T12:45:34.001Z</time></trkpt><trkpt lat="44.81158659371753" lon="9.25459953655432"><ele>677.0</ele><time>2026-04-06T12:45:35.001Z</time></trkpt><trkpt lat="44.811652361695835" lon="9.254851071147367"><ele>677.0</ele><time>2026-04-06T12:45:36.001Z</time></trkpt><trkpt lat="44.8117230244258" lon="9.255125210925847"><ele>675.3333333333333</ele><time>2026-04-06T12:45:37.001Z</time></trkpt><trkpt lat="44.81178070609222" lon="9.255365844868797"><ele>673.6666666666666</ele><time>2026-04-06T12:45:38.001Z</time></trkpt><trkpt lat="44.811821126008965" lon="9.255596285523817"><ele>672.0</ele><time>2026-04-06T12:45:39.001Z</time></trkpt><trkpt lat="44.811835401620044" lon="9.255834473897098"><ele>673.6666666666666</ele><time>2026-04-06T12:45:40.001Z</time></trkpt><trkpt lat="44.81183520170398" lon="9.256100834372383"><ele>675.3333333333333</ele><time>2026-04-06T12:45:41.001Z</time></trkpt><trkpt lat="44.81182927051514" lon="9.256347919902096"><ele>677.0</ele><time>2026-04-06T12:45:42.001Z</time></trkpt><trkpt lat="44.81181842384942" lon="9.256567238446205"><ele>677.0</ele><time>2026-04-06T12:45:43.001Z</time></trkpt><trkpt lat="44.8117994917251" lon="9.256763416562555"><ele>677.0</ele><time>2026-04-06T12:45:44.001Z</time></trkpt><trkpt lat="44.81175937383364" lon="9.256930143538183"><ele>677.0</ele><time>2026-04-06T12:45:45.001Z</time></trkpt><trkpt lat="44.811687748605245" lon="9.257063300117611"><ele>677.0</ele><time>2026-04-06T12:45:46.001Z</time></trkpt><trkpt lat="44.8116249077851" lon="9.257203587006428"><ele>677.0</ele><time>2026-04-06T12:45:47.001Z</time></trkpt><trkpt lat="44.811502236594876" lon="9.257253655322119"><ele>677.0</ele><time>2026-04-06T12:45:48.001Z</time></trkpt><trkpt lat="44.811381680530246" lon="9.257293529690905"><ele>677.0</ele><time>2026-04-06T12:45:49.001Z</time></trkpt><trkpt lat="44.81129487825846" lon="9.257382643811862"><ele>677.0</ele><time>2026-04-06T12:45:50.001Z</time></trkpt><trkpt lat="44.811260668907636" lon="9.257525314122608"><ele>678.25</ele><time>2026-04-06T12:45:51.001Z</time></trkpt><trkpt lat="44.81126397706012" lon="9.257706744273078"><ele>679.5</ele><time>2026-04-06T12:45:52.001Z</time></trkpt><trkpt lat="44.81126669781876" lon="9.25792443446424"><ele>680.75</ele><time>2026-04-06T12:45:53.001Z</time></trkpt><trkpt lat="44.81126490921143" lon="9.258157786559222"><ele>682.0</ele><time>2026-04-06T12:45:54.001Z</time></trkpt><trkpt lat="44.81123527497127" lon="9.258366311144004"><ele>682.75</ele><time>2026-04-06T12:45:55.001Z</time></trkpt><trkpt lat="44.81121269358575" lon="9.258570938415009"><ele>683.5</ele><time>2026-04-06T12:45:56.001Z</time></trkpt><trkpt lat="44.81121465735755" lon="9.258761038015644"><ele>684.25</ele><time>2026-04-06T12:45:57.001Z</time></trkpt><trkpt lat="44.81122842197186" lon="9.258938775096428"><ele>685.0</ele><time>2026-04-06T12:45:58.001Z</time></trkpt><trkpt lat="44.81122224762067" lon="9.259106529091332"><ele>687.25</ele><time>2026-04-06T12:45:59.001Z</time></trkpt><trkpt lat="44.8111617814672" lon="9.259248198518444"><ele>689.5</ele><time>2026-04-06T12:46:00.001Z</time></trkpt><trkpt lat="44.81107187537067" lon="9.259353259200175"><ele>691.75</ele><time>2026-04-06T12:46:01.001Z</time></trkpt><trkpt lat="44.81095745006539" lon="9.259445972136819"><ele>694.0</ele><time>2026-04-06T12:46:02.001Z</time></trkpt><trkpt lat="44.81082361174253" lon="9.259516916776889"><ele>687.3333333333334</ele><time>2026-04-06T12:46:03.001Z</time></trkpt><trkpt lat="44.81067170863039" lon="9.259584671265921"><ele>680.6666666666666</ele><time>2026-04-06T12:46:04.001Z</time></trkpt><trkpt lat="44.8105161495743" lon="9.259621649439676"><ele>674.0</ele><time>2026-04-06T12:46:05.001Z</time></trkpt><trkpt lat="44.810372501874824" lon="9.259690709365712"><ele>675.6666666666666</ele><time>2026-04-06T12:46:06.001Z</time></trkpt><trkpt lat="44.810217465600324" lon="9.259801945477758"><ele>677.3333333333334</ele><time>2026-04-06T12:46:07.001Z</time></trkpt><trkpt lat="44.810054218212066" lon="9.259940607512815"><ele>679.0</ele><time>2026-04-06T12:46:08.001Z</time></trkpt><trkpt lat="44.80988891729051" lon="9.260075124954835"><ele>679.0</ele><time>2026-04-06T12:46:09.001Z</time></trkpt><trkpt lat="44.80973399475097" lon="9.260198051185938"><ele>679.0</ele><time>2026-04-06T12:46:10.001Z</time></trkpt><trkpt lat="44.80959661795342" lon="9.260294274748672"><ele>679.0</ele><time>2026-04-06T12:46:11.001Z</time></trkpt><trkpt lat="44.80947098159932" lon="9.260352152555292"><ele>679.0</ele><time>2026-04-06T12:46:12.001Z</time></trkpt><trkpt lat="44.80933945305721" lon="9.260369427224749"><ele>679.0</ele><time>2026-04-06T12:46:13.001Z</time></trkpt><trkpt lat="44.80919805072463" lon="9.260335632459315"><ele>679.0</ele><time>2026-04-06T12:46:14.001Z</time></trkpt><trkpt lat="44.80907576248674" lon="9.260267587513162"><ele>679.0</ele><time>2026-04-06T12:46:15.001Z</time></trkpt><trkpt lat="44.80896665404185" lon="9.26023031071976"><ele>680.0</ele><time>2026-04-06T12:46:16Z</time></trkpt><trkpt lat="44.80887705972082" lon="9.260277798454242"><ele>681.0</ele><time>2026-04-06T12:46:17Z</time></trkpt><trkpt lat="44.80878772351021" lon="9.260379332605106"><ele>682.0</ele><time>2026-04-06T12:46:18Z</time></trkpt><trkpt lat="44.80873237161771" lon="9.260505226229116"><ele>683.0</ele><time>2026-04-06T12:46:19Z</time></trkpt><trkpt lat="44.8087127483324" lon="9.260633011630048"><ele>684.0</ele><time>2026-04-06T12:46:20Z</time></trkpt><trkpt lat="44.80873343896797" lon="9.26077194424392"><ele>684.0</ele><time>2026-04-06T12:46:21Z</time></trkpt><trkpt lat="44.80876915478123" lon="9.260938095895225"><ele>684.0</ele><time>2026-04-06T12:46:22Z</time></trkpt><trkpt lat="44.808815354581355" lon="9.261145327187451"><ele>684.0</ele><time>2026-04-06T12:46:23Z</time></trkpt><trkpt lat="44.80886000865044" lon="9.261378057710807"><ele>684.0</ele><time>2026-04-06T12:46:24Z</time></trkpt><trkpt lat="44.80890517216152" lon="9.261616281709152"><ele>683.6666666666666</ele><time>2026-04-06T12:46:25Z</time></trkpt><trkpt lat="44.808957541674516" lon="9.261852502555909"><ele>683.3333333333333</ele><time>2026-04-06T12:46:26Z</time></trkpt><trkpt lat="44.80902593107527" lon="9.262100490919353"><ele>683.0</ele><time>2026-04-06T12:46:27Z</time></trkpt><trkpt lat="44.80912182061634" lon="9.26233919762266"><ele>680.0</ele><time>2026-04-06T12:46:28Z</time></trkpt><trkpt lat="44.8092287393883" lon="9.262559784406308"><ele>677.0</ele><time>2026-04-06T12:46:29Z</time></trkpt><trkpt lat="44.809347953050356" lon="9.262767223769467"><ele>674.0</ele><time>2026-04-06T12:46:30Z</time></trkpt><trkpt lat="44.80947869421395" lon="9.26295799045785"><ele>678.6666666666666</ele><time>2026-04-06T12:46:31Z</time></trkpt><trkpt lat="44.80962037167479" lon="9.263125674380431"><ele>683.3333333333334</ele><time>2026-04-06T12:46:32Z</time></trkpt><trkpt lat="44.809765722952044" lon="9.263265175458159"><ele>688.0</ele><time>2026-04-06T12:46:33Z</time></trkpt><trkpt lat="44.80990870962482" lon="9.263377844346609"><ele>688.0</ele><time>2026-04-06T12:46:34Z</time></trkpt><trkpt lat="44.81002802700685" lon="9.263474631650409"><ele>688.0</ele><time>2026-04-06T12:46:35Z</time></trkpt><trkpt lat="44.81011436874856" lon="9.263597854471914"><ele>688.0</ele><time>2026-04-06T12:46:36Z</time></trkpt><trkpt lat="44.81017817737861" lon="9.263738628012739"><ele>688.0</ele><time>2026-04-06T12:46:37Z</time></trkpt><trkpt lat="44.810210960295514" lon="9.263902485983591"><ele>690.5</ele><time>2026-04-06T12:46:38Z</time></trkpt><trkpt lat="44.81025530727482" lon="9.264073766287856"><ele>693.0</ele><time>2026-04-06T12:46:39Z</time></trkpt><trkpt lat="44.81029287272333" lon="9.264234731276732"><ele>695.5</ele><time>2026-04-06T12:46:40Z</time></trkpt><trkpt lat="44.81037722652207" lon="9.264383548393917"><ele>698.0</ele><time>2026-04-06T12:46:41Z</time></trkpt><trkpt lat="44.81048594722039" lon="9.264526969100018"><ele>698.0</ele><time>2026-04-06T12:46:42Z</time></trkpt><trkpt lat="44.81061080040423" lon="9.26467149624461"><ele>698.0</ele><time>2026-04-06T12:46:43Z</time></trkpt><trkpt lat="44.81074484096141" lon="9.2648314201567"><ele>698.0</ele><time>2026-04-06T12:46:44Z</time></trkpt><trkpt lat="44.81088389154392" lon="9.26499903336989"><ele>702.25</ele><time>2026-04-06T12:46:45Z</time></trkpt><trkpt lat="44.81101600654582" lon="9.265153119038203"><ele>706.5</ele><time>2026-04-06T12:46:46Z</time></trkpt><trkpt lat="44.811133565997075" lon="9.265280147731996"><ele>710.75</ele><time>2026-04-06T12:46:47Z</time></trkpt><trkpt lat="44.81122977603953" lon="9.265376412443231"><ele>715.0</ele><time>2026-04-06T12:46:48Z</time></trkpt><trkpt lat="44.81129491523335" lon="9.265456760044692"><ele>715.0</ele><time>2026-04-06T12:46:49Z</time></trkpt><trkpt lat="44.81131780741224" lon="9.265558751215657"><ele>715.0</ele><time>2026-04-06T12:46:50Z</time></trkpt><trkpt lat="44.81128881662927" lon="9.26567161204921"><ele>715.0</ele><time>2026-04-06T12:46:51Z</time></trkpt><trkpt lat="44.81126041764847" lon="9.265798500667188"><ele>715.0</ele><time>2026-04-06T12:46:52Z</time></trkpt><trkpt lat="44.81118814963975" lon="9.265958460617345"><ele>715.0</ele><time>2026-04-06T12:46:53Z</time></trkpt><trkpt lat="44.81110167214787" lon="9.266150385774761"><ele>709.0</ele><time>2026-04-06T12:46:54Z</time></trkpt><trkpt lat="44.81100172818359" lon="9.266372182537777"><ele>703.0</ele><time>2026-04-06T12:46:55Z</time></trkpt><trkpt lat="44.81089340771704" lon="9.266611097632225"><ele>697.0</ele><time>2026-04-06T12:46:56Z</time></trkpt><trkpt lat="44.810794670320846" lon="9.266864706425803"><ele>698.5</ele><time>2026-04-06T12:46:57Z</time></trkpt><trkpt lat="44.81066633210835" lon="9.26712873492764"><ele>700.0</ele><time>2026-04-06T12:46:58Z</time></trkpt><trkpt lat="44.81048553186889" lon="9.267331865651903"><ele>700.0</ele><time>2026-04-06T12:46:59Z</time></trkpt><trkpt lat="44.810316329676084" lon="9.2675411983388"><ele>700.0</ele><time>2026-04-06T12:47:00Z</time></trkpt><trkpt lat="44.81017173958815" lon="9.267758659452316"><ele>700.0</ele><time>2026-04-06T12:47:01Z</time></trkpt><trkpt lat="44.81004568160709" lon="9.267961528338718"><ele>699.6666666666667</ele><time>2026-04-06T12:47:02Z</time></trkpt><trkpt lat="44.80995358190114" lon="9.268186997067682"><ele>699.3333333333334</ele><time>2026-04-06T12:47:03Z</time></trkpt><trkpt lat="44.809851835181306" lon="9.268410184158045"><ele>699.0</ele><time>2026-04-06T12:47:04Z</time></trkpt><trkpt lat="44.80971667101514" lon="9.268592965001488"><ele>699.0</ele><time>2026-04-06T12:47:05Z</time></trkpt><trkpt lat="44.80959766569265" lon="9.268772636525318"><ele>699.0</ele><time>2026-04-06T12:47:06Z</time></trkpt><trkpt lat="44.809511949993876" lon="9.26897774020707"><ele>699.0</ele><time>2026-04-06T12:47:07Z</time></trkpt><trkpt lat="44.80944440845029" lon="9.269204859314494"><ele>702.0</ele><time>2026-04-06T12:47:08.001Z</time></trkpt><trkpt lat="44.80938517227807" lon="9.269461701782541"><ele>705.0</ele><time>2026-04-06T12:47:09.001Z</time></trkpt><trkpt lat="44.80932963726793" lon="9.269743638197694"><ele>708.0</ele><time>2026-04-06T12:47:10.001Z</time></trkpt><trkpt lat="44.80928036319563" lon="9.270017956995472"><ele>708.0</ele><time>2026-04-06T12:47:11.001Z</time></trkpt><trkpt lat="44.80919436110556" lon="9.27025341492087"><ele>708.0</ele><time>2026-04-06T12:47:12.001Z</time></trkpt><trkpt lat="44.80911208903205" lon="9.270482004095536"><ele>708.0</ele><time>2026-04-06T12:47:13.001Z</time></trkpt><trkpt lat="44.80902643930106" lon="9.270680201359495"><ele>710.0</ele><time>2026-04-06T12:47:14.001Z</time></trkpt><trkpt lat="44.808962305852255" lon="9.2708510936851"><ele>712.0</ele><time>2026-04-06T12:47:15.001Z</time></trkpt><trkpt lat="44.80890500696295" lon="9.270988207205942"><ele>714.0</ele><time>2026-04-06T12:47:16.001Z</time></trkpt><trkpt lat="44.80887451551585" lon="9.271107378022416"><ele>716.0</ele><time>2026-04-06T12:47:17.001Z</time></trkpt><trkpt lat="44.808867670465446" lon="9.271214487680489"><ele>718.0</ele><time>2026-04-06T12:47:18.001Z</time></trkpt><trkpt lat="44.80888825642587" lon="9.271311437956607"><ele>718.0</ele><time>2026-04-06T12:47:19.001Z</time></trkpt><trkpt lat="44.8089810120455" lon="9.271385053314368"><ele>718.0</ele><time>2026-04-06T12:47:20.001Z</time></trkpt><trkpt lat="44.809063217044454" lon="9.271416110960846"><ele>718.0</ele><time>2026-04-06T12:47:21.001Z</time></trkpt><trkpt lat="44.809155013893644" lon="9.271380068987481"><ele>718.0</ele><time>2026-04-06T12:47:22.001Z</time></trkpt><trkpt lat="44.80923597445231" lon="9.271282765838832"><ele>718.0</ele><time>2026-04-06T12:47:23.001Z</time></trkpt><trkpt lat="44.80931880885976" lon="9.271154462513747"><ele>720.0</ele><time>2026-04-06T12:47:24.001Z</time></trkpt><trkpt lat="44.80941043916984" lon="9.271001388100016"><ele>722.0</ele><time>2026-04-06T12:47:25.001Z</time></trkpt><trkpt lat="44.80951596318184" lon="9.270855543166595"><ele>724.0</ele><time>2026-04-06T12:47:26.001Z</time></trkpt><trkpt lat="44.809630429753966" lon="9.270701025556763"><ele>726.0</ele><time>2026-04-06T12:47:27.001Z</time></trkpt><trkpt lat="44.80975225933931" lon="9.27050718895278"><ele>726.0</ele><time>2026-04-06T12:47:28.001Z</time></trkpt><trkpt lat="44.80984365414232" lon="9.270337065346986"><ele>726.0</ele><time>2026-04-06T12:47:29.001Z</time></trkpt><trkpt lat="44.80990486174987" lon="9.270204031813343"><ele>726.0</ele><time>2026-04-06T12:47:30.001Z</time></trkpt><trkpt lat="44.809959400892055" lon="9.270124806747098"><ele>726.0</ele><time>2026-04-06T12:47:31.001Z</time></trkpt><trkpt lat="44.810026052570834" lon="9.270097342463309"><ele>726.0</ele><time>2026-04-06T12:47:32.001Z</time></trkpt><trkpt lat="44.810086107506194" lon="9.270129404867033"><ele>726.0</ele><time>2026-04-06T12:47:33.001Z</time></trkpt><trkpt lat="44.81013168947361" lon="9.270198424326574"><ele>726.0</ele><time>2026-04-06T12:47:34.001Z</time></trkpt><trkpt lat="44.8101489296709" lon="9.270307500685941"><ele>726.0</ele><time>2026-04-06T12:47:35.001Z</time></trkpt><trkpt lat="44.81012743466312" lon="9.270418694373708"><ele>726.0</ele><time>2026-04-06T12:47:36.001Z</time></trkpt><trkpt lat="44.81005872964393" lon="9.270524564416581"><ele>726.0</ele><time>2026-04-06T12:47:37.001Z</time></trkpt><trkpt lat="44.8099707121775" lon="9.270633110699286"><ele>726.0</ele><time>2026-04-06T12:47:38.001Z</time></trkpt><trkpt lat="44.8098762014919" lon="9.27077259469543"><ele>728.5</ele><time>2026-04-06T12:47:39.001Z</time></trkpt><trkpt lat="44.80982183040642" lon="9.270943956754852"><ele>731.0</ele><time>2026-04-06T12:47:40.001Z</time></trkpt><trkpt lat="44.80979073171558" lon="9.271138013778168"><ele>733.5</ele><time>2026-04-06T12:47:41.001Z</time></trkpt><trkpt lat="44.80977816871949" lon="9.27134042496587"><ele>736.0</ele><time>2026-04-06T12:47:42.001Z</time></trkpt><trkpt lat="44.809786061307086" lon="9.271553145352975"><ele>738.3333333333334</ele><time>2026-04-06T12:47:43.001Z</time></trkpt><trkpt lat="44.809809232327446" lon="9.27176540700469"><ele>740.6666666666666</ele><time>2026-04-06T12:47:44.001Z</time></trkpt><trkpt lat="44.80983948011547" lon="9.271982587883652"><ele>743.0</ele><time>2026-04-06T12:47:45.001Z</time></trkpt><trkpt lat="44.80988093687551" lon="9.272217928400222"><ele>743.0</ele><time>2026-04-06T12:47:46.001Z</time></trkpt><trkpt lat="44.80991850084748" lon="9.272462343113821"><ele>743.0</ele><time>2026-04-06T12:47:47.001Z</time></trkpt><trkpt lat="44.809943466119556" lon="9.27268766316948"><ele>743.0</ele><time>2026-04-06T12:47:48.001Z</time></trkpt><trkpt lat="44.80996189912281" lon="9.27291286231515"><ele>743.5</ele><time>2026-04-06T12:47:49.001Z</time></trkpt><trkpt lat="44.80997463592253" lon="9.273131847152909"><ele>744.0</ele><time>2026-04-06T12:47:50.001Z</time></trkpt><trkpt lat="44.80998559396733" lon="9.27331795137172"><ele>744.5</ele><time>2026-04-06T12:47:51.001Z</time></trkpt><trkpt lat="44.809999615232705" lon="9.273458899292827"><ele>745.0</ele><time>2026-04-06T12:47:52.001Z</time></trkpt><trkpt lat="44.81007289417868" lon="9.273570230063168"><ele>745.0</ele><time>2026-04-06T12:47:54.001Z</time></trkpt><trkpt lat="44.810142853357824" lon="9.273571459257003"><ele>745.0</ele><time>2026-04-06T12:47:55.001Z</time></trkpt><trkpt lat="44.81021153557709" lon="9.273529571923406"><ele>745.0</ele><time>2026-04-06T12:47:56.001Z</time></trkpt><trkpt lat="44.81025601667688" lon="9.273426970536908"><ele>745.0</ele><time>2026-04-06T12:47:57.001Z</time></trkpt><trkpt lat="44.810272392265475" lon="9.273286759441062"><ele>745.0</ele><time>2026-04-06T12:47:58.001Z</time></trkpt><trkpt lat="44.81027628942658" lon="9.27311173556443"><ele>749.75</ele><time>2026-04-06T12:47:59.001Z</time></trkpt><trkpt lat="44.81030423569467" lon="9.272952165468533"><ele>754.5</ele><time>2026-04-06T12:48:00.001Z</time></trkpt><trkpt lat="44.81039351056833" lon="9.272859588578369"><ele>759.25</ele><time>2026-04-06T12:48:01.001Z</time></trkpt><trkpt lat="44.81049796452952" lon="9.272725492897374"><ele>764.0</ele><time>2026-04-06T12:48:02.001Z</time></trkpt><trkpt lat="44.81061544943703" lon="9.272592855787378"><ele>764.0</ele><time>2026-04-06T12:48:03.001Z</time></trkpt><trkpt lat="44.81070880547823" lon="9.272400526029193"><ele>764.0</ele><time>2026-04-06T12:48:04.001Z</time></trkpt><trkpt lat="44.81078131057733" lon="9.272171505347465"><ele>764.0</ele><time>2026-04-06T12:48:05.001Z</time></trkpt><trkpt lat="44.81082536566495" lon="9.271969091201088"><ele>765.0</ele><time>2026-04-06T12:48:06.001Z</time></trkpt><trkpt lat="44.81087990213091" lon="9.271781822318298"><ele>766.0</ele><time>2026-04-06T12:48:07.001Z</time></trkpt><trkpt lat="44.81097172967192" lon="9.271593518269883"><ele>767.0</ele><time>2026-04-06T12:48:08.001Z</time></trkpt><trkpt lat="44.81108341737466" lon="9.271418725172255"><ele>767.0</ele><time>2026-04-06T12:48:09.001Z</time></trkpt><trkpt lat="44.81121591645828" lon="9.271239261537108"><ele>767.0</ele><time>2026-04-06T12:48:10.001Z</time></trkpt><trkpt lat="44.811354929036966" lon="9.271061241328823"><ele>767.0</ele><time>2026-04-06T12:48:11.001Z</time></trkpt><trkpt lat="44.81148755041547" lon="9.270893573314417"><ele>767.0</ele><time>2026-04-06T12:48:12.001Z</time></trkpt><trkpt lat="44.81159320348888" lon="9.270776192339312"><ele>767.0</ele><time>2026-04-06T12:48:13.001Z</time></trkpt><trkpt lat="44.81167138546957" lon="9.27069564014876"><ele>767.0</ele><time>2026-04-06T12:48:14.001Z</time></trkpt><trkpt lat="44.8117340415291" lon="9.270660739192197"><ele>767.0</ele><time>2026-04-06T12:48:15.001Z</time></trkpt><trkpt lat="44.81185117625677" lon="9.270732803625037"><ele>767.0</ele><time>2026-04-06T12:48:17.001Z</time></trkpt><trkpt lat="44.8118749038527" lon="9.270839744022538"><ele>767.0</ele><time>2026-04-06T12:48:18.001Z</time></trkpt><trkpt lat="44.81185431433876" lon="9.27096577592684"><ele>767.0</ele><time>2026-04-06T12:48:19.001Z</time></trkpt><trkpt lat="44.81179771228935" lon="9.271108202410405"><ele>767.0</ele><time>2026-04-06T12:48:20.002Z</time></trkpt><trkpt lat="44.81173169360949" lon="9.271295479629938"><ele>767.0</ele><time>2026-04-06T12:48:21.002Z</time></trkpt><trkpt lat="44.8116890248558" lon="9.271501477923383"><ele>769.6666666666666</ele><time>2026-04-06T12:48:22Z</time></trkpt><trkpt lat="44.811667002498304" lon="9.271715223280225"><ele>772.3333333333333</ele><time>2026-04-06T12:48:23Z</time></trkpt><trkpt lat="44.811651552893736" lon="9.27197918927168"><ele>775.0</ele><time>2026-04-06T12:48:24Z</time></trkpt><trkpt lat="44.811637900893786" lon="9.272289897743143"><ele>778.0</ele><time>2026-04-06T12:48:25Z</time></trkpt><trkpt lat="44.81161893296769" lon="9.272590459926187"><ele>781.0</ele><time>2026-04-06T12:48:26Z</time></trkpt><trkpt lat="44.811599103046504" lon="9.272925260650213"><ele>783.0</ele><time>2026-04-06T12:48:27Z</time></trkpt><trkpt lat="44.8115823324703" lon="9.273270299727665"><ele>785.0</ele><time>2026-04-06T12:48:28Z</time></trkpt><trkpt lat="44.811574519702674" lon="9.273568082457667"><ele>785.0</ele><time>2026-04-06T12:48:29Z</time></trkpt><trkpt lat="44.811573314652094" lon="9.273847990047345"><ele>785.0</ele><time>2026-04-06T12:48:30Z</time></trkpt><trkpt lat="44.81157898638528" lon="9.274099801035597"><ele>785.0</ele><time>2026-04-06T12:48:31Z</time></trkpt><trkpt lat="44.811584694595005" lon="9.274321560440736"><ele>786.75</ele><time>2026-04-06T12:48:32Z</time></trkpt><trkpt lat="44.81156797684026" lon="9.27450973284346"><ele>788.5</ele><time>2026-04-06T12:48:33Z</time></trkpt><trkpt lat="44.811591246242955" lon="9.274666562762688"><ele>790.25</ele><time>2026-04-06T12:48:34Z</time></trkpt><trkpt lat="44.811607410345474" lon="9.274809085209235"><ele>792.0</ele><time>2026-04-06T12:48:35Z</time></trkpt><trkpt lat="44.81164618670188" lon="9.274964226108061"><ele>793.0</ele><time>2026-04-06T12:48:36Z</time></trkpt><trkpt lat="44.811713449716066" lon="9.275052057785421"><ele>794.0</ele><time>2026-04-06T12:48:37Z</time></trkpt><trkpt lat="44.811787022514444" lon="9.275145729126418"><ele>795.0</ele><time>2026-04-06T12:48:38Z</time></trkpt><trkpt lat="44.81183913621198" lon="9.275258085540374"><ele>796.0</ele><time>2026-04-06T12:48:39Z</time></trkpt><trkpt lat="44.81186213708939" lon="9.275413407812815"><ele>797.0</ele><time>2026-04-06T12:48:40Z</time></trkpt><trkpt lat="44.81184419696255" lon="9.2755793461062"><ele>797.2</ele><time>2026-04-06T12:48:41Z</time></trkpt><trkpt lat="44.81180471316381" lon="9.27575278805561"><ele>797.4000000000001</ele><time>2026-04-06T12:48:42Z</time></trkpt><trkpt lat="44.81176438678836" lon="9.275901180562428"><ele>797.5999999999999</ele><time>2026-04-06T12:48:43Z</time></trkpt><trkpt lat="44.81173056138883" lon="9.276023905784927"><ele>797.8</ele><time>2026-04-06T12:48:44Z</time></trkpt><trkpt lat="44.81171556212441" lon="9.276149935076026"><ele>798.0</ele><time>2026-04-06T12:48:45Z</time></trkpt><trkpt lat="44.811716187860966" lon="9.276293040033009"><ele>798.0</ele><time>2026-04-06T12:48:46Z</time></trkpt><trkpt lat="44.81177021646089" lon="9.276434358497495"><ele>798.0</ele><time>2026-04-06T12:48:47Z</time></trkpt><trkpt lat="44.81181876875971" lon="9.276572234052264"><ele>798.0</ele><time>2026-04-06T12:48:48Z</time></trkpt><trkpt lat="44.81183991540782" lon="9.276700447149485"><ele>798.0</ele><time>2026-04-06T12:48:49Z</time></trkpt><trkpt lat="44.8118670300734" lon="9.276818018199759"><ele>798.0</ele><time>2026-04-06T12:48:50Z</time></trkpt><trkpt lat="44.81188677534896" lon="9.27693365326643"><ele>804.0</ele><time>2026-04-06T12:48:51Z</time></trkpt><trkpt lat="44.81190310731243" lon="9.277057743982423"><ele>810.0</ele><time>2026-04-06T12:48:52Z</time></trkpt><trkpt lat="44.81191456236419" lon="9.277194870853066"><ele>816.0</ele><time>2026-04-06T12:48:53Z</time></trkpt><trkpt lat="44.81192583301007" lon="9.277379863572063"><ele>822.0</ele><time>2026-04-06T12:48:54Z</time></trkpt><trkpt lat="44.81193149097101" lon="9.277499801982767"><ele>828.0</ele><time>2026-04-06T12:48:55Z</time></trkpt><trkpt lat="44.81195451121503" lon="9.277802775508286"><ele>828.75</ele><time>2026-04-06T12:48:56Z</time></trkpt><trkpt lat="44.81196285614563" lon="9.27797402165028"><ele>829.5</ele><time>2026-04-06T12:48:57Z</time></trkpt><trkpt lat="44.81196478779267" lon="9.278158112246897"><ele>830.25</ele><time>2026-04-06T12:48:58Z</time></trkpt><trkpt lat="44.81199572631016" lon="9.27833740907168"><ele>831.0</ele><time>2026-04-06T12:48:59Z</time></trkpt><trkpt lat="44.812057999026216" lon="9.278529934297858"><ele>832.5</ele><time>2026-04-06T12:49:00Z</time></trkpt><trkpt lat="44.81212477046493" lon="9.278698290746327"><ele>834.0</ele><time>2026-04-06T12:49:01Z</time></trkpt><trkpt lat="44.81217755669614" lon="9.27883607195867"><ele>835.5</ele><time>2026-04-06T12:49:02Z</time></trkpt><trkpt lat="44.81223299562602" lon="9.278959890786755"><ele>837.0</ele><time>2026-04-06T12:49:03Z</time></trkpt><trkpt lat="44.81223239860704" lon="9.27912621014545"><ele>838.0</ele><time>2026-04-06T12:49:04Z</time></trkpt><trkpt lat="44.812173064720156" lon="9.279251734377615"><ele>839.0</ele><time>2026-04-06T12:49:05Z</time></trkpt><trkpt lat="44.81212253842309" lon="9.279388972982535"><ele>840.0</ele><time>2026-04-06T12:49:06Z</time></trkpt><trkpt lat="44.812093226103016" lon="9.27956119891293"><ele>841.0</ele><time>2026-04-06T12:49:07Z</time></trkpt><trkpt lat="44.81206418519725" lon="9.279797589601106"><ele>842.6666666666666</ele><time>2026-04-06T12:49:08Z</time></trkpt><trkpt lat="44.81207464797077" lon="9.280044823814716"><ele>844.3333333333333</ele><time>2026-04-06T12:49:09Z</time></trkpt><trkpt lat="44.81213029928113" lon="9.280290182037765"><ele>846.0</ele><time>2026-04-06T12:49:10Z</time></trkpt><trkpt lat="44.81222655890146" lon="9.280474750979046"><ele>845.75</ele><time>2026-04-06T12:49:12.001Z</time></trkpt><trkpt lat="44.81227860554421" lon="9.28066906198217"><ele>845.5</ele><time>2026-04-06T12:49:13.001Z</time></trkpt><trkpt lat="44.81233007431873" lon="9.28086109473799"><ele>845.25</ele><time>2026-04-06T12:49:14.001Z</time></trkpt><trkpt lat="44.812400903499054" lon="9.281045940556794"><ele>845.0</ele><time>2026-04-06T12:49:15.001Z</time></trkpt><trkpt lat="44.812458358774066" lon="9.281230620669445"><ele>845.0</ele><time>2026-04-06T12:49:16.001Z</time></trkpt><trkpt lat="44.81249746469423" lon="9.28141368531759"><ele>845.0</ele><time>2026-04-06T12:49:17.001Z</time></trkpt><trkpt lat="44.812531114950694" lon="9.281593851214424"><ele>845.0</ele><time>2026-04-06T12:49:18.001Z</time></trkpt><trkpt lat="44.81256050188819" lon="9.281772632761724"><ele>845.0</ele><time>2026-04-06T12:49:19.001Z</time></trkpt><trkpt lat="44.812587067897766" lon="9.281931028171288"><ele>843.2</ele><time>2026-04-06T12:49:20.001Z</time></trkpt><trkpt lat="44.812618899786436" lon="9.282058860954695"><ele>841.4</ele><time>2026-04-06T12:49:21.001Z</time></trkpt><trkpt lat="44.81266793280662" lon="9.28216269540627"><ele>839.5999999999999</ele><time>2026-04-06T12:49:22.001Z</time></trkpt><trkpt lat="44.812761739482" lon="9.282205200813467"><ele>837.8</ele><time>2026-04-06T12:49:23.001Z</time></trkpt><trkpt lat="44.81285834964602" lon="9.28225154017475"><ele>836.0</ele><time>2026-04-06T12:49:24.001Z</time></trkpt><trkpt lat="44.81297708125422" lon="9.282289025215967"><ele>841.75</ele><time>2026-04-06T12:49:25.001Z</time></trkpt><trkpt lat="44.813111164967935" lon="9.282352180351639"><ele>847.5</ele><time>2026-04-06T12:49:26.001Z</time></trkpt><trkpt lat="44.81323024828588" lon="9.28240997439485"><ele>853.25</ele><time>2026-04-06T12:49:27.001Z</time></trkpt><trkpt lat="44.813334439148015" lon="9.282451342246185"><ele>859.0</ele><time>2026-04-06T12:49:28.001Z</time></trkpt><trkpt lat="44.813444622136174" lon="9.282468050154012"><ele>861.75</ele><time>2026-04-06T12:49:29.001Z</time></trkpt><trkpt lat="44.813547153575286" lon="9.282429883801608"><ele>864.5</ele><time>2026-04-06T12:49:30.001Z</time></trkpt><trkpt lat="44.81365461020241" lon="9.282368393528554"><ele>867.25</ele><time>2026-04-06T12:49:31.001Z</time></trkpt><trkpt lat="44.81375895357922" lon="9.282329549213507"><ele>870.0</ele><time>2026-04-06T12:49:32.001Z</time></trkpt><trkpt lat="44.81388963481953" lon="9.282361243594572"><ele>870.0</ele><time>2026-04-06T12:49:33.001Z</time></trkpt><trkpt lat="44.81396798955344" lon="9.282352400942061"><ele>870.0</ele><time>2026-04-06T12:49:34.001Z</time></trkpt><trkpt lat="44.81407129397657" lon="9.282395991141929"><ele>870.0</ele><time>2026-04-06T12:49:36.001Z</time></trkpt><trkpt lat="44.814153354276755" lon="9.282468352451799"><ele>870.0</ele><time>2026-04-06T12:49:38.001Z</time></trkpt><trkpt lat="44.814162910388156" lon="9.282564405694268"><ele>870.0</ele><time>2026-04-06T12:49:39.001Z</time></trkpt><trkpt lat="44.814105311310065" lon="9.282652350562751"><ele>870.0</ele><time>2026-04-06T12:49:40.001Z</time></trkpt><trkpt lat="44.814053137998094" lon="9.282730196201484"><ele>870.0</ele><time>2026-04-06T12:49:41.001Z</time></trkpt><trkpt lat="44.813958979140246" lon="9.282726771210443"><ele>870.0</ele><time>2026-04-06T12:49:42.001Z</time></trkpt><trkpt lat="44.813858987996085" lon="9.282716566762787"><ele>870.0</ele><time>2026-04-06T12:49:43.001Z</time></trkpt><trkpt lat="44.813753457440875" lon="9.28276106953062"><ele>870.0</ele><time>2026-04-06T12:49:44.001Z</time></trkpt><trkpt lat="44.8136484774723" lon="9.282817046503864"><ele>870.0</ele><time>2026-04-06T12:49:45.001Z</time></trkpt><trkpt lat="44.81354364118677" lon="9.28288193753656"><ele>867.8</ele><time>2026-04-06T12:49:46.001Z</time></trkpt><trkpt lat="44.81343232252081" lon="9.282935127076266"><ele>865.6</ele><time>2026-04-06T12:49:47.001Z</time></trkpt><trkpt lat="44.81332161078668" lon="9.282976403144888"><ele>863.4000000000001</ele><time>2026-04-06T12:49:48.001Z</time></trkpt><trkpt lat="44.81322307347593" lon="9.283025602407147"><ele>861.2</ele><time>2026-04-06T12:49:49.001Z</time></trkpt><trkpt lat="44.81314665021921" lon="9.283101994510194"><ele>859.0</ele><time>2026-04-06T12:49:50.001Z</time></trkpt><trkpt lat="44.81308071203996" lon="9.283207109487005"><ele>864.2</ele><time>2026-04-06T12:49:51.001Z</time></trkpt><trkpt lat="44.813014391340275" lon="9.283316697399117"><ele>869.4000000000001</ele><time>2026-04-06T12:49:52.001Z</time></trkpt><trkpt lat="44.81295379588083" lon="9.283444660353089"><ele>874.6</ele><time>2026-04-06T12:49:53.001Z</time></trkpt><trkpt lat="44.81288589790454" lon="9.28355415982349"><ele>879.8</ele><time>2026-04-06T12:49:54.001Z</time></trkpt><trkpt lat="44.81281460855982" lon="9.283660666057866"><ele>885.0</ele><time>2026-04-06T12:49:55.001Z</time></trkpt><trkpt lat="44.812766500708896" lon="9.28378604902016"><ele>885.0</ele><time>2026-04-06T12:49:56.001Z</time></trkpt><trkpt lat="44.81271505890869" lon="9.283898549691754"><ele>885.0</ele><time>2026-04-06T12:49:57.001Z</time></trkpt><trkpt lat="44.81266456321509" lon="9.284004899896212"><ele>885.0</ele><time>2026-04-06T12:49:58.001Z</time></trkpt><trkpt lat="44.8126336052515" lon="9.284142228036869"><ele>885.0</ele><time>2026-04-06T12:49:59.001Z</time></trkpt><trkpt lat="44.81259866611363" lon="9.284259470596673"><ele>885.0</ele><time>2026-04-06T12:50:00.001Z</time></trkpt><trkpt lat="44.812531367723274" lon="9.284370719383311"><ele>882.5</ele><time>2026-04-06T12:50:01.001Z</time></trkpt><trkpt lat="44.812466139965245" lon="9.284497208782463"><ele>880.0</ele><time>2026-04-06T12:50:02.001Z</time></trkpt><trkpt lat="44.81238685048327" lon="9.28465418141956"><ele>877.5</ele><time>2026-04-06T12:50:03.001Z</time></trkpt><trkpt lat="44.81231553420863" lon="9.284868700930323"><ele>875.0</ele><time>2026-04-06T12:50:04.001Z</time></trkpt><trkpt lat="44.81224611511008" lon="9.285041881181348"><ele>878.3333333333334</ele><time>2026-04-06T12:50:05.001Z</time></trkpt><trkpt lat="44.81218426833852" lon="9.285152755929808"><ele>881.6666666666667</ele><time>2026-04-06T12:50:06.001Z</time></trkpt><trkpt lat="44.81210584254834" lon="9.285218897198613"><ele>885.0</ele><time>2026-04-06T12:50:07.001Z</time></trkpt><trkpt lat="44.812017678575465" lon="9.285216011996926"><ele>888.3333333333333</ele><time>2026-04-06T12:50:08.001Z</time></trkpt><trkpt lat="44.81194952003358" lon="9.285252183011503"><ele>891.6666666666666</ele><time>2026-04-06T12:50:09.001Z</time></trkpt><trkpt lat="44.81189114759912" lon="9.285297690835945"><ele>895.0</ele><time>2026-04-06T12:50:10.001Z</time></trkpt><trkpt lat="44.81184895814371" lon="9.285384770106322"><ele>895.0</ele><time>2026-04-06T12:50:11.001Z</time></trkpt><trkpt lat="44.81185115916542" lon="9.285508936996157"><ele>895.0</ele><time>2026-04-06T12:50:12.001Z</time></trkpt><trkpt lat="44.81188150729836" lon="9.285650227605403"><ele>895.0</ele><time>2026-04-06T12:50:13.001Z</time></trkpt><trkpt lat="44.811890292330794" lon="9.285847578209394"><ele>895.0</ele><time>2026-04-06T12:50:14.001Z</time></trkpt><trkpt lat="44.81189074331008" lon="9.286052287993906"><ele>900.0</ele><time>2026-04-06T12:50:15.001Z</time></trkpt><trkpt lat="44.811885190770035" lon="9.286251618306126"><ele>905.0</ele><time>2026-04-06T12:50:16.001Z</time></trkpt><trkpt lat="44.81187462092569" lon="9.286414245367043"><ele>910.0</ele><time>2026-04-06T12:50:17.001Z</time></trkpt><trkpt lat="44.811892390406555" lon="9.28654557590505"><ele>915.0</ele><time>2026-04-06T12:50:18.001Z</time></trkpt><trkpt lat="44.811950249395274" lon="9.286678056220811"><ele>917.3333333333333</ele><time>2026-04-06T12:50:19.001Z</time></trkpt><trkpt lat="44.812048128957294" lon="9.286830312568748"><ele>919.6666666666666</ele><time>2026-04-06T12:50:20.001Z</time></trkpt><trkpt lat="44.81210742947677" lon="9.287052912525073"><ele>922.0</ele><time>2026-04-06T12:50:21.001Z</time></trkpt><trkpt lat="44.81216812199774" lon="9.287275165253225"><ele>922.0</ele><time>2026-04-06T12:50:22.001Z</time></trkpt><trkpt lat="44.812251845381304" lon="9.287424508377818"><ele>922.0</ele><time>2026-04-06T12:50:23.001Z</time></trkpt><trkpt lat="44.8123166031487" lon="9.287559739043326"><ele>922.0</ele><time>2026-04-06T12:50:24.002Z</time></trkpt><trkpt lat="44.81238540461101" lon="9.287666253920099"><ele>922.0</ele><time>2026-04-06T12:50:25.002Z</time></trkpt><trkpt lat="44.812430933566" lon="9.287758615899051"><ele>922.0</ele><time>2026-04-06T12:50:26.002Z</time></trkpt><trkpt lat="44.81241320518716" lon="9.287922940215635"><ele>922.0</ele><time>2026-04-06T12:50:28Z</time></trkpt><trkpt lat="44.81234375179511" lon="9.287988735929236"><ele>922.0</ele><time>2026-04-06T12:50:29Z</time></trkpt><trkpt lat="44.812270283144386" lon="9.287978129047453"><ele>922.0</ele><time>2026-04-06T12:50:30Z</time></trkpt><trkpt lat="44.812203045417675" lon="9.287898135359928"><ele>922.0</ele><time>2026-04-06T12:50:31Z</time></trkpt><trkpt lat="44.81215984221649" lon="9.287736020509268"><ele>922.0</ele><time>2026-04-06T12:50:32Z</time></trkpt><trkpt lat="44.812049853583474" lon="9.287570495308328"><ele>922.0</ele><time>2026-04-06T12:50:33Z</time></trkpt><trkpt lat="44.811933105620206" lon="9.287381211889166"><ele>922.0</ele><time>2026-04-06T12:50:34Z</time></trkpt><trkpt lat="44.81182547105822" lon="9.287210362209917"><ele>922.0</ele><time>2026-04-06T12:50:35Z</time></trkpt><trkpt lat="44.81174364177067" lon="9.287037657785142"><ele>917.0</ele><time>2026-04-06T12:50:36Z</time></trkpt><trkpt lat="44.811654592452335" lon="9.286883023640412"><ele>912.0</ele><time>2026-04-06T12:50:37Z</time></trkpt><trkpt lat="44.81152730454087" lon="9.286768836926681"><ele>907.0</ele><time>2026-04-06T12:50:38Z</time></trkpt><trkpt lat="44.811393392072816" lon="9.28668341922121"><ele>902.0</ele><time>2026-04-06T12:50:39Z</time></trkpt><trkpt lat="44.81128786112956" lon="9.286625068815091"><ele>902.0</ele><time>2026-04-06T12:50:40Z</time></trkpt><trkpt lat="44.8111862429304" lon="9.286607700367366"><ele>902.0</ele><time>2026-04-06T12:50:41Z</time></trkpt><trkpt lat="44.8110866433258" lon="9.286650607355394"><ele>902.0</ele><time>2026-04-06T12:50:42Z</time></trkpt><trkpt lat="44.81100224027007" lon="9.286735490620329"><ele>902.0</ele><time>2026-04-06T12:50:43Z</time></trkpt><trkpt lat="44.810921172540134" lon="9.286851659500927"><ele>902.0</ele><time>2026-04-06T12:50:44Z</time></trkpt><trkpt lat="44.810852455834336" lon="9.28700872770961"><ele>902.6666666666667</ele><time>2026-04-06T12:50:45Z</time></trkpt><trkpt lat="44.810756901997" lon="9.287163369685242"><ele>903.3333333333333</ele><time>2026-04-06T12:50:46Z</time></trkpt><trkpt lat="44.810634236220736" lon="9.287300534155733"><ele>904.0</ele><time>2026-04-06T12:50:47Z</time></trkpt><trkpt lat="44.810487804504916" lon="9.287424203146552"><ele>906.0</ele><time>2026-04-06T12:50:48Z</time></trkpt><trkpt lat="44.81032490300525" lon="9.28756570137783"><ele>908.0</ele><time>2026-04-06T12:50:49Z</time></trkpt><trkpt lat="44.81016527557354" lon="9.287691923124997"><ele>910.0</ele><time>2026-04-06T12:50:50Z</time></trkpt><trkpt lat="44.81001338456154" lon="9.287835675584857"><ele>910.0</ele><time>2026-04-06T12:50:51Z</time></trkpt><trkpt lat="44.809871233458885" lon="9.287972996962417"><ele>910.0</ele><time>2026-04-06T12:50:52Z</time></trkpt><trkpt lat="44.80974991109404" lon="9.288101913610213"><ele>910.0</ele><time>2026-04-06T12:50:53Z</time></trkpt><trkpt lat="44.80964716366981" lon="9.288228979941808"><ele>911.25</ele><time>2026-04-06T12:50:54Z</time></trkpt><trkpt lat="44.809545126850075" lon="9.288350703463722"><ele>912.5</ele><time>2026-04-06T12:50:55Z</time></trkpt><trkpt lat="44.80945457347939" lon="9.288490345420795"><ele>913.75</ele><time>2026-04-06T12:50:56Z</time></trkpt><trkpt lat="44.80936606579878" lon="9.288640119046189"><ele>915.0</ele><time>2026-04-06T12:50:57Z</time></trkpt><trkpt lat="44.8092857648164" lon="9.288787432348197"><ele>917.75</ele><time>2026-04-06T12:50:58Z</time></trkpt><trkpt lat="44.809221334214804" lon="9.288947850345279"><ele>920.5</ele><time>2026-04-06T12:50:59Z</time></trkpt><trkpt lat="44.80918520290557" lon="9.289123871607774"><ele>923.25</ele><time>2026-04-06T12:51:00Z</time></trkpt><trkpt lat="44.80916651973061" lon="9.289310795936439"><ele>926.0</ele><time>2026-04-06T12:51:01Z</time></trkpt><trkpt lat="44.80915156967578" lon="9.289490990726677"><ele>926.0000000000001</ele><time>2026-04-06T12:51:02Z</time></trkpt><trkpt lat="44.80913266204002" lon="9.289648801275955"><ele>926.0</ele><time>2026-04-06T12:51:03Z</time></trkpt><trkpt lat="44.809125907883995" lon="9.289761177981953"><ele>926.0</ele><time>2026-04-06T12:51:04Z</time></trkpt><trkpt lat="44.809149637604364" lon="9.289847748427293"><ele>926.0</ele><time>2026-04-06T12:51:05Z</time></trkpt><trkpt lat="44.80920404975173" lon="9.289924508245424"><ele>926.0000000000001</ele><time>2026-04-06T12:51:06Z</time></trkpt><trkpt lat="44.80926350449496" lon="9.28998389132965"><ele>926.0</ele><time>2026-04-06T12:51:07Z</time></trkpt><trkpt lat="44.80935081371496" lon="9.289972072825314"><ele>931.1999999999999</ele><time>2026-04-06T12:51:08Z</time></trkpt><trkpt lat="44.809424339226915" lon="9.289917590890385"><ele>936.3999999999999</ele><time>2026-04-06T12:51:09Z</time></trkpt><trkpt lat="44.80948432733678" lon="9.28983004554081"><ele>941.6</ele><time>2026-04-06T12:51:10Z</time></trkpt><trkpt lat="44.80950668134778" lon="9.289687205524865"><ele>946.8</ele><time>2026-04-06T12:51:11Z</time></trkpt><trkpt lat="44.80949193405654" lon="9.289565919532002"><ele>952.0</ele><time>2026-04-06T12:51:12Z</time></trkpt><trkpt lat="44.80947507562899" lon="9.289391130216899"><ele>952.0</ele><time>2026-04-06T12:51:13Z</time></trkpt><trkpt lat="44.80946903830453" lon="9.289251546641403"><ele>952.0</ele><time>2026-04-06T12:51:14Z</time></trkpt><trkpt lat="44.80952268540397" lon="9.289118877023357"><ele>952.0</ele><time>2026-04-06T12:51:15Z</time></trkpt><trkpt lat="44.80963159735106" lon="9.289029337714394"><ele>952.0</ele><time>2026-04-06T12:51:16Z</time></trkpt><trkpt lat="44.80973936122305" lon="9.288888578131592"><ele>946.6666666666666</ele><time>2026-04-06T12:51:17Z</time></trkpt><trkpt lat="44.809854819433106" lon="9.288766635172419"><ele>941.3333333333333</ele><time>2026-04-06T12:51:18.001Z</time></trkpt><trkpt lat="44.809984364717856" lon="9.288630925985712"><ele>936.0</ele><time>2026-04-06T12:51:19.001Z</time></trkpt><trkpt lat="44.810134700392155" lon="9.288477193596366"><ele>939.5</ele><time>2026-04-06T12:51:20.001Z</time></trkpt><trkpt lat="44.81027439077009" lon="9.288379131376523"><ele>943.0</ele><time>2026-04-06T12:51:21.001Z</time></trkpt><trkpt lat="44.81039607714965" lon="9.28830328723736"><ele>946.5</ele><time>2026-04-06T12:51:22.001Z</time></trkpt><trkpt lat="44.81050203155566" lon="9.288231440244218"><ele>950.0</ele><time>2026-04-06T12:51:23.001Z</time></trkpt><trkpt lat="44.81059207878327" lon="9.288227661316242"><ele>950.0</ele><time>2026-04-06T12:51:24.001Z</time></trkpt><trkpt lat="44.810665155256075" lon="9.28821075283193"><ele>950.0</ele><time>2026-04-06T12:51:25.001Z</time></trkpt><trkpt lat="44.81075535351221" lon="9.288220249978144"><ele>950.0</ele><time>2026-04-06T12:51:26.001Z</time></trkpt><trkpt lat="44.810817167479215" lon="9.288347708541346"><ele>950.0</ele><time>2026-04-06T12:51:27.001Z</time></trkpt><trkpt lat="44.810881716686616" lon="9.288450043381868"><ele>950.0</ele><time>2026-04-06T12:51:28.001Z</time></trkpt><trkpt lat="44.810952197676805" lon="9.288564830869563"><ele>950.0</ele><time>2026-04-06T12:51:29.001Z</time></trkpt><trkpt lat="44.81101980059909" lon="9.288708133380233"><ele>950.0</ele><time>2026-04-06T12:51:31.001Z</time></trkpt><trkpt lat="44.81098264950953" lon="9.28880328344915"><ele>950.0</ele><time>2026-04-06T12:51:32.001Z</time></trkpt><trkpt lat="44.81091707697241" lon="9.288860329655085"><ele>950.0</ele><time>2026-04-06T12:51:33.001Z</time></trkpt><trkpt lat="44.81082614189931" lon="9.288858415204684"><ele>950.0</ele><time>2026-04-06T12:51:34.001Z</time></trkpt><trkpt lat="44.81072532503068" lon="9.288776696575253"><ele>950.0</ele><time>2026-04-06T12:51:35.001Z</time></trkpt><trkpt lat="44.81060579080632" lon="9.288764208506121"><ele>950.0</ele><time>2026-04-06T12:51:36.001Z</time></trkpt><trkpt lat="44.81052269554008" lon="9.288744495659996"><ele>950.0</ele><time>2026-04-06T12:51:37.001Z</time></trkpt><trkpt lat="44.81042510830905" lon="9.288792109298637"><ele>950.0</ele><time>2026-04-06T12:51:38.001Z</time></trkpt><trkpt lat="44.8103395563131" lon="9.288899041352236"><ele>950.0</ele><time>2026-04-06T12:51:39.001Z</time></trkpt><trkpt lat="44.81025194934798" lon="9.289058881049254"><ele>950.5</ele><time>2026-04-06T12:51:40.001Z</time></trkpt><trkpt lat="44.81019263453493" lon="9.289195638875972"><ele>951.0</ele><time>2026-04-06T12:51:41.001Z</time></trkpt><trkpt lat="44.81013621374773" lon="9.28936817892471"><ele>951.5</ele><time>2026-04-06T12:51:42.001Z</time></trkpt><trkpt lat="44.81007579501082" lon="9.289543534084594"><ele>952.0</ele><time>2026-04-06T12:51:43.001Z</time></trkpt><trkpt lat="44.810030059547955" lon="9.289765163258405"><ele>954.5</ele><time>2026-04-06T12:51:44.001Z</time></trkpt><trkpt lat="44.81002913618032" lon="9.289976480993824"><ele>957.0</ele><time>2026-04-06T12:51:45.001Z</time></trkpt><trkpt lat="44.80997433755589" lon="9.290132922020938"><ele>959.5</ele><time>2026-04-06T12:51:46.001Z</time></trkpt><trkpt lat="44.8099080680607" lon="9.29029144224498"><ele>962.0</ele><time>2026-04-06T12:51:47.001Z</time></trkpt><trkpt lat="44.8098630923944" lon="9.2904411020726"><ele>962.0000000000001</ele><time>2026-04-06T12:51:48.001Z</time></trkpt><trkpt lat="44.80985100609593" lon="9.29057497774128"><ele>962.0</ele><time>2026-04-06T12:51:49.001Z</time></trkpt><trkpt lat="44.80987147497187" lon="9.290681819639403"><ele>962.0</ele><time>2026-04-06T12:51:50.001Z</time></trkpt><trkpt lat="44.80996243390508" lon="9.290758068558398"><ele>962.0</ele><time>2026-04-06T12:51:51.001Z</time></trkpt><trkpt lat="44.81004224849736" lon="9.290818203421036"><ele>962.0000000000001</ele><time>2026-04-06T12:51:52.001Z</time></trkpt><trkpt lat="44.810104463515614" lon="9.290864617557832"><ele>962.0</ele><time>2026-04-06T12:51:53.001Z</time></trkpt><trkpt lat="44.810152343221695" lon="9.290968005579042"><ele>963.6666666666667</ele><time>2026-04-06T12:51:54.001Z</time></trkpt><trkpt lat="44.810172620319655" lon="9.291071272443366"><ele>965.3333333333334</ele><time>2026-04-06T12:51:55.001Z</time></trkpt><trkpt lat="44.810105629567985" lon="9.291163637764557"><ele>967.0</ele><time>2026-04-06T12:51:56.001Z</time></trkpt><trkpt lat="44.810037623911235" lon="9.291210558865288"><ele>968.6666666666667</ele><time>2026-04-06T12:51:57.001Z</time></trkpt><trkpt lat="44.80994318282672" lon="9.29128623985612"><ele>970.3333333333334</ele><time>2026-04-06T12:51:58.001Z</time></trkpt><trkpt lat="44.80988068317544" lon="9.291353633609624"><ele>972.0</ele><time>2026-04-06T12:51:59.001Z</time></trkpt><trkpt lat="44.80982132520599" lon="9.291481825285736"><ele>973.5</ele><time>2026-04-06T12:52:00.001Z</time></trkpt><trkpt lat="44.80979309737815" lon="9.29164879718309"><ele>975.0</ele><time>2026-04-06T12:52:01.001Z</time></trkpt><trkpt lat="44.80976864973869" lon="9.291837415267004"><ele>976.5</ele><time>2026-04-06T12:52:02.001Z</time></trkpt><trkpt lat="44.80975266238739" lon="9.292074842609631"><ele>978.0</ele><time>2026-04-06T12:52:03.001Z</time></trkpt><trkpt lat="44.80974621695587" lon="9.292351116944625"><ele>981.6666666666667</ele><time>2026-04-06T12:52:04.001Z</time></trkpt><trkpt lat="44.80972575033379" lon="9.29264962793151"><ele>985.3333333333334</ele><time>2026-04-06T12:52:05.001Z</time></trkpt><trkpt lat="44.809709650918904" lon="9.292951291178701"><ele>989.0</ele><time>2026-04-06T12:52:06.001Z</time></trkpt><trkpt lat="44.80969700719303" lon="9.293243951723305"><ele>993.0</ele><time>2026-04-06T12:52:07.001Z</time></trkpt><trkpt lat="44.8096862253532" lon="9.293489259231958"><ele>997.0</ele><time>2026-04-06T12:52:08.001Z</time></trkpt><trkpt lat="44.809690702179594" lon="9.293709354101543"><ele>1001.0</ele><time>2026-04-06T12:52:09.001Z</time></trkpt><trkpt lat="44.80970557999069" lon="9.293894440725206"><ele>1003.1999999999999</ele><time>2026-04-06T12:52:10.001Z</time></trkpt><trkpt lat="44.80972082889284" lon="9.294050627220273"><ele>1005.3999999999999</ele><time>2026-04-06T12:52:11.001Z</time></trkpt><trkpt lat="44.80969842670811" lon="9.294183995804014"><ele>1007.6</ele><time>2026-04-06T12:52:12.001Z</time></trkpt><trkpt lat="44.80965348103969" lon="9.294281911963004"><ele>1009.8</ele><time>2026-04-06T12:52:13.001Z</time></trkpt><trkpt lat="44.809578367415774" lon="9.294373889568789"><ele>1012.0</ele><time>2026-04-06T12:52:14.001Z</time></trkpt><trkpt lat="44.809477929425796" lon="9.294401293079803"><ele>1012.0</ele><time>2026-04-06T12:52:15.001Z</time></trkpt><trkpt lat="44.80933377815953" lon="9.294460844054791"><ele>1012.0</ele><time>2026-04-06T12:52:16.001Z</time></trkpt><trkpt lat="44.80918605288958" lon="9.294598283605996"><ele>1012.0</ele><time>2026-04-06T12:52:17.001Z</time></trkpt><trkpt lat="44.809056215790925" lon="9.294750394405803"><ele>1012.25</ele><time>2026-04-06T12:52:18.001Z</time></trkpt><trkpt lat="44.80893753429572" lon="9.294836830242788"><ele>1012.5</ele><time>2026-04-06T12:52:19.001Z</time></trkpt><trkpt lat="44.80882174436242" lon="9.294855595108277"><ele>1012.75</ele><time>2026-04-06T12:52:20.001Z</time></trkpt><trkpt lat="44.80867183428567" lon="9.294880825881457"><ele>1013.0</ele><time>2026-04-06T12:52:21.001Z</time></trkpt><trkpt lat="44.80854679565252" lon="9.294907835797506"><ele>1009.2</ele><time>2026-04-06T12:52:22.001Z</time></trkpt><trkpt lat="44.80847044913921" lon="9.294965382088064"><ele>1005.4</ele><time>2026-04-06T12:52:23.001Z</time></trkpt><trkpt lat="44.808420309262026" lon="9.295060003270647"><ele>1001.6000000000001</ele><time>2026-04-06T12:52:24.001Z</time></trkpt><trkpt lat="44.80839814545317" lon="9.295188488898317"><ele>997.8000000000001</ele><time>2026-04-06T12:52:25.001Z</time></trkpt><trkpt lat="44.80840192167214" lon="9.2953317133217"><ele>994.0</ele><time>2026-04-06T12:52:26.001Z</time></trkpt><trkpt lat="44.80841315121239" lon="9.295486156904728"><ele>997.0</ele><time>2026-04-06T12:52:27.001Z</time></trkpt><trkpt lat="44.80843509357747" lon="9.295664118400337"><ele>1000.0</ele><time>2026-04-06T12:52:28.001Z</time></trkpt><trkpt lat="44.80844808199645" lon="9.295858724340244"><ele>1003.0</ele><time>2026-04-06T12:52:29.001Z</time></trkpt><trkpt lat="44.808485790424065" lon="9.296070429234135"><ele>1006.0</ele><time>2026-04-06T12:52:30.001Z</time></trkpt><trkpt lat="44.80855113219525" lon="9.29629530227654"><ele>1013.0</ele><time>2026-04-06T12:52:31.002Z</time></trkpt><trkpt lat="44.80861609363942" lon="9.296494514841218"><ele>1020.0</ele><time>2026-04-06T12:52:32.002Z</time></trkpt><trkpt lat="44.80865187970392" lon="9.296676977287603"><ele>1027.0</ele><time>2026-04-06T12:52:33.002Z</time></trkpt><trkpt lat="44.8086469364865" lon="9.296841362434359"><ele>1034.0</ele><time>2026-04-06T12:52:34Z</time></trkpt><trkpt lat="44.80862932600542" lon="9.29700469572695"><ele>1034.0</ele><time>2026-04-06T12:52:35Z</time></trkpt><trkpt lat="44.808620800480114" lon="9.297151960951526"><ele>1034.0</ele><time>2026-04-06T12:52:36Z</time></trkpt><trkpt lat="44.80862728421139" lon="9.297304095221156"><ele>1034.0</ele><time>2026-04-06T12:52:37Z</time></trkpt><trkpt lat="44.80859709790334" lon="9.29741532579557"><ele>1034.0</ele><time>2026-04-06T12:52:38Z</time></trkpt><trkpt lat="44.80854941321205" lon="9.29750566182451"><ele>1034.0</ele><time>2026-04-06T12:52:39Z</time></trkpt><trkpt lat="44.80846647346439" lon="9.29756777432176"><ele>1031.6000000000001</ele><time>2026-04-06T12:52:40Z</time></trkpt><trkpt lat="44.80836821147619" lon="9.297586083680129"><ele>1029.2</ele><time>2026-04-06T12:52:41Z</time></trkpt><trkpt lat="44.80826059853188" lon="9.297603947134407"><ele>1026.8000000000002</ele><time>2026-04-06T12:52:42Z</time></trkpt><trkpt lat="44.80817425195026" lon="9.297666215797756"><ele>1024.4</ele><time>2026-04-06T12:52:43Z</time></trkpt><trkpt lat="44.80810581719446" lon="9.297745062254704"><ele>1022.0</ele><time>2026-04-06T12:52:44Z</time></trkpt><trkpt lat="44.8081010497269" lon="9.297923840739672"><ele>1026.0</ele><time>2026-04-06T12:52:45Z</time></trkpt><trkpt lat="44.80807293003908" lon="9.298086750703018"><ele>1030.0</ele><time>2026-04-06T12:52:46Z</time></trkpt><trkpt lat="44.80802642570409" lon="9.29825944232416"><ele>1034.0</ele><time>2026-04-06T12:52:47Z</time></trkpt><trkpt lat="44.80796780897196" lon="9.298444712905575"><ele>1038.0</ele><time>2026-04-06T12:52:48Z</time></trkpt><trkpt lat="44.80789909648042" lon="9.298659473470835"><ele>1038.0</ele><time>2026-04-06T12:52:49Z</time></trkpt><trkpt lat="44.807830154778316" lon="9.298877440206494"><ele>1038.0</ele><time>2026-04-06T12:52:50Z</time></trkpt><trkpt lat="44.80776264955863" lon="9.299104493411892"><ele>1038.0</ele><time>2026-04-06T12:52:51Z</time></trkpt><trkpt lat="44.807657928795585" lon="9.299253771778245"><ele>1038.25</ele><time>2026-04-06T12:52:52Z</time></trkpt><trkpt lat="44.80756676658717" lon="9.29938277579518"><ele>1038.5</ele><time>2026-04-06T12:52:53Z</time></trkpt><trkpt lat="44.80751626276778" lon="9.299536886913579"><ele>1038.75</ele><time>2026-04-06T12:52:54Z</time></trkpt><trkpt lat="44.80747905145645" lon="9.29967338144043"><ele>1039.0</ele><time>2026-04-06T12:52:55Z</time></trkpt><trkpt lat="44.807471994569866" lon="9.299817963705202"><ele>1039.0</ele><time>2026-04-06T12:52:56Z</time></trkpt><trkpt lat="44.80749130584511" lon="9.299950242522996"><ele>1039.0</ele><time>2026-04-06T12:52:57Z</time></trkpt><trkpt lat="44.80749305077014" lon="9.300073293755748"><ele>1039.0</ele><time>2026-04-06T12:52:58Z</time></trkpt><trkpt lat="44.807498394483574" lon="9.30020050531569"><ele>1039.0</ele><time>2026-04-06T12:52:59Z</time></trkpt><trkpt lat="44.807456965298435" lon="9.300292980645462"><ele>1039.0</ele><time>2026-04-06T12:53:00Z</time></trkpt><trkpt lat="44.807376662677" lon="9.30034246025837"><ele>1039.0</ele><time>2026-04-06T12:53:01Z</time></trkpt><trkpt lat="44.8073104992373" lon="9.300454208641158"><ele>1039.0</ele><time>2026-04-06T12:53:02Z</time></trkpt><trkpt lat="44.80724526336524" lon="9.300563480933171"><ele>1039.0</ele><time>2026-04-06T12:53:03Z</time></trkpt><trkpt lat="44.80721559825212" lon="9.30069784031545"><ele>1039.0</ele><time>2026-04-06T12:53:04Z</time></trkpt><trkpt lat="44.80722656270602" lon="9.300851090572184"><ele>1039.0</ele><time>2026-04-06T12:53:05Z</time></trkpt><trkpt lat="44.807218479290356" lon="9.301018164318755"><ele>1039.0</ele><time>2026-04-06T12:53:06Z</time></trkpt><trkpt lat="44.807213957158964" lon="9.301169446841195"><ele>1042.4</ele><time>2026-04-06T12:53:07Z</time></trkpt><trkpt lat="44.80719226756921" lon="9.301311126004808"><ele>1045.8000000000002</ele><time>2026-04-06T12:53:08Z</time></trkpt><trkpt lat="44.80716315235634" lon="9.301468603459506"><ele>1049.1999999999998</ele><time>2026-04-06T12:53:09Z</time></trkpt><trkpt lat="44.80713399758223" lon="9.301627540244365"><ele>1052.6</ele><time>2026-04-06T12:53:10Z</time></trkpt><trkpt lat="44.807118639904516" lon="9.301783909208073"><ele>1056.0</ele><time>2026-04-06T12:53:11Z</time></trkpt><trkpt lat="44.80707835828294" lon="9.301951597396986"><ele>1055.0</ele><time>2026-04-06T12:53:12Z</time></trkpt><trkpt lat="44.80699904416021" lon="9.302074342793723"><ele>1054.0</ele><time>2026-04-06T12:53:13Z</time></trkpt><trkpt lat="44.80693103280993" lon="9.302187486535415"><ele>1053.0</ele><time>2026-04-06T12:53:14Z</time></trkpt><trkpt lat="44.80685844871735" lon="9.302307357282544"><ele>1052.0</ele><time>2026-04-06T12:53:15Z</time></trkpt><trkpt lat="44.806801971242436" lon="9.30242736820216"><ele>1051.0</ele><time>2026-04-06T12:53:16Z</time></trkpt><trkpt lat="44.80675636817018" lon="9.30255660570685"><ele>1051.0</ele><time>2026-04-06T12:53:17Z</time></trkpt><trkpt lat="44.806712628202725" lon="9.302683595540763"><ele>1051.0</ele><time>2026-04-06T12:53:18Z</time></trkpt><trkpt lat="44.806667699894795" lon="9.302814319047929"><ele>1051.0</ele><time>2026-04-06T12:53:19Z</time></trkpt><trkpt lat="44.80663992296772" lon="9.30294964011543"><ele>1051.0</ele><time>2026-04-06T12:53:20Z</time></trkpt><trkpt lat="44.806597599136545" lon="9.303072066114837"><ele>1051.0</ele><time>2026-04-06T12:53:21Z</time></trkpt><trkpt lat="44.80657104155135" lon="9.303189691341808"><ele>1054.0</ele><time>2026-04-06T12:53:22Z</time></trkpt><trkpt lat="44.80655495228198" lon="9.303305656852244"><ele>1057.0</ele><time>2026-04-06T12:53:23Z</time></trkpt><trkpt lat="44.806525076555786" lon="9.303416909902358"><ele>1060.0</ele><time>2026-04-06T12:53:24Z</time></trkpt><trkpt lat="44.806469412635245" lon="9.303514102935452"><ele>1063.0</ele><time>2026-04-06T12:53:25Z</time></trkpt><trkpt lat="44.80638127343393" lon="9.303577122542093"><ele>1066.0</ele><time>2026-04-06T12:53:26.001Z</time></trkpt><trkpt lat="44.80631801676088" lon="9.303678626105901"><ele>1066.0</ele><time>2026-04-06T12:53:27.001Z</time></trkpt><trkpt lat="44.8062671460897" lon="9.303841274166555"><ele>1066.0</ele><time>2026-04-06T12:53:28.001Z</time></trkpt><trkpt lat="44.80620510161852" lon="9.304056760132365"><ele>1066.0</ele><time>2026-04-06T12:53:29.001Z</time></trkpt><trkpt lat="44.80614137612818" lon="9.304289135656063"><ele>1066.0</ele><time>2026-04-06T12:53:30.001Z</time></trkpt><trkpt lat="44.80608879571577" lon="9.304528093360478"><ele>1066.0</ele><time>2026-04-06T12:53:31.001Z</time></trkpt><trkpt lat="44.806008940240844" lon="9.304774169367505"><ele>1066.0</ele><time>2026-04-06T12:53:32.001Z</time></trkpt><trkpt lat="44.80592166149969" lon="9.305047271307348"><ele>1066.0</ele><time>2026-04-06T12:53:33.001Z</time></trkpt><trkpt lat="44.80582935167902" lon="9.30531503745398"><ele>1066.0</ele><time>2026-04-06T12:53:34.001Z</time></trkpt><trkpt lat="44.80572001123999" lon="9.305542179651123"><ele>1066.0</ele><time>2026-04-06T12:53:35.001Z</time></trkpt><trkpt lat="44.80563815613206" lon="9.305758080028761"><ele>1070.5</ele><time>2026-04-06T12:53:36.001Z</time></trkpt><trkpt lat="44.80559968230286" lon="9.305979234652524"><ele>1075.0</ele><time>2026-04-06T12:53:37.001Z</time></trkpt><trkpt lat="44.8055656397267" lon="9.306184540722525"><ele>1079.5</ele><time>2026-04-06T12:53:38.001Z</time></trkpt><trkpt lat="44.8055272550322" lon="9.306364902347608"><ele>1084.0</ele><time>2026-04-06T12:53:39.001Z</time></trkpt><trkpt lat="44.80542347488551" lon="9.306505202614474"><ele>1087.0</ele><time>2026-04-06T12:53:40.001Z</time></trkpt><trkpt lat="44.80531212768434" lon="9.306672676860325"><ele>1090.0</ele><time>2026-04-06T12:53:41.001Z</time></trkpt><trkpt lat="44.805185061235086" lon="9.306858804201333"><ele>1093.0</ele><time>2026-04-06T12:53:42.001Z</time></trkpt><trkpt lat="44.80504642137726" lon="9.307088547551922"><ele>1087.0</ele><time>2026-04-06T12:53:43.001Z</time></trkpt><trkpt lat="44.80490932384937" lon="9.30733898898035"><ele>1081.0</ele><time>2026-04-06T12:53:44.001Z</time></trkpt><trkpt lat="44.80477181738074" lon="9.307595816216436"><ele>1081.0</ele><time>2026-04-06T12:53:45.001Z</time></trkpt><trkpt lat="44.8046344831519" lon="9.307838238171483"><ele>1081.0</ele><time>2026-04-06T12:53:46.001Z</time></trkpt><trkpt lat="44.80451362769765" lon="9.308058970584185"><ele>1081.0</ele><time>2026-04-06T12:53:47.001Z</time></trkpt><trkpt lat="44.80439978626501" lon="9.308255618949527"><ele>1078.0</ele><time>2026-04-06T12:53:48.001Z</time></trkpt><trkpt lat="44.804285256875794" lon="9.308410542165495"><ele>1075.0</ele><time>2026-04-06T12:53:49.001Z</time></trkpt><trkpt lat="44.804172727856255" lon="9.308554661012135"><ele>1072.0</ele><time>2026-04-06T12:53:50.001Z</time></trkpt><trkpt lat="44.804075664305316" lon="9.308709032408881"><ele>1072.0</ele><time>2026-04-06T12:53:51.001Z</time></trkpt><trkpt lat="44.803975839474994" lon="9.308868034250247"><ele>1072.0</ele><time>2026-04-06T12:53:52.001Z</time></trkpt><trkpt lat="44.80389563790626" lon="9.309060209645503"><ele>1072.0</ele><time>2026-04-06T12:53:53.001Z</time></trkpt><trkpt lat="44.80381285577452" lon="9.309264273668902"><ele>1075.6666666666665</ele><time>2026-04-06T12:53:54.001Z</time></trkpt><trkpt lat="44.80376604339044" lon="9.309492123574433"><ele>1079.3333333333333</ele><time>2026-04-06T12:53:55.001Z</time></trkpt><trkpt lat="44.80371353958133" lon="9.309722440504283"><ele>1083.0</ele><time>2026-04-06T12:53:56.001Z</time></trkpt><trkpt lat="44.803646970546964" lon="9.309930965662769"><ele>1082.75</ele><time>2026-04-06T12:53:57.001Z</time></trkpt><trkpt lat="44.80360492447537" lon="9.310135752202221"><ele>1082.5</ele><time>2026-04-06T12:53:58.001Z</time></trkpt><trkpt lat="44.8035167788694" lon="9.310300475450221"><ele>1082.25</ele><time>2026-04-06T12:53:59.001Z</time></trkpt><trkpt lat="44.803437738720596" lon="9.310479013328603"><ele>1082.0</ele><time>2026-04-06T12:54:00.001Z</time></trkpt><trkpt lat="44.803366573383514" lon="9.310657387376468"><ele>1084.75</ele><time>2026-04-06T12:54:01.001Z</time></trkpt><trkpt lat="44.80328251896924" lon="9.310824086083782"><ele>1087.5</ele><time>2026-04-06T12:54:02.001Z</time></trkpt><trkpt lat="44.803201633979846" lon="9.310983785268782"><ele>1090.25</ele><time>2026-04-06T12:54:03.001Z</time></trkpt><trkpt lat="44.803107017258725" lon="9.311124184719091"><ele>1093.0</ele><time>2026-04-06T12:54:04.001Z</time></trkpt><trkpt lat="44.80298348127116" lon="9.311212293077798"><ele>1093.0</ele><time>2026-04-06T12:54:05.001Z</time></trkpt><trkpt lat="44.80285716073863" lon="9.311289163174104"><ele>1093.0</ele><time>2026-04-06T12:54:06.001Z</time></trkpt><trkpt lat="44.80274639542006" lon="9.311376280281959"><ele>1093.0</ele><time>2026-04-06T12:54:07.001Z</time></trkpt><trkpt lat="44.80267185323798" lon="9.311515384544816"><ele>1093.0</ele><time>2026-04-06T12:54:08.001Z</time></trkpt><trkpt lat="44.8025868840987" lon="9.3116638308443"><ele>1092.6666666666665</ele><time>2026-04-06T12:54:09.001Z</time></trkpt><trkpt lat="44.80251019821885" lon="9.311846194530517"><ele>1092.3333333333333</ele><time>2026-04-06T12:54:10.001Z</time></trkpt><trkpt lat="44.80243474660944" lon="9.312056689165326"><ele>1092.0</ele><time>2026-04-06T12:54:11.001Z</time></trkpt><trkpt lat="44.802365926364885" lon="9.312277664525126"><ele>1094.0</ele><time>2026-04-06T12:54:12.001Z</time></trkpt><trkpt lat="44.80227454234645" lon="9.312513641819233"><ele>1096.0</ele><time>2026-04-06T12:54:13.001Z</time></trkpt><trkpt lat="44.80221125029035" lon="9.312742897465414"><ele>1098.0</ele><time>2026-04-06T12:54:14.001Z</time></trkpt><trkpt lat="44.80216210082601" lon="9.312935708294253"><ele>1097.0</ele><time>2026-04-06T12:54:15.001Z</time></trkpt><trkpt lat="44.80210177992988" lon="9.313092867768566"><ele>1096.0</ele><time>2026-04-06T12:54:16.001Z</time></trkpt><trkpt lat="44.80203058354172" lon="9.31322735411714"><ele>1095.0</ele><time>2026-04-06T12:54:17.001Z</time></trkpt><trkpt lat="44.80194596550686" lon="9.313330662119212"><ele>1094.0</ele><time>2026-04-06T12:54:18.001Z</time></trkpt><trkpt lat="44.80186368904405" lon="9.31342218754621"><ele>1095.75</ele><time>2026-04-06T12:54:19.001Z</time></trkpt><trkpt lat="44.80175275922702" lon="9.313497273357427"><ele>1097.5</ele><time>2026-04-06T12:54:20.001Z</time></trkpt><trkpt lat="44.801632102384175" lon="9.31359524719294"><ele>1099.25</ele><time>2026-04-06T12:54:21.001Z</time></trkpt><trkpt lat="44.80152433299528" lon="9.31367978834988"><ele>1101.0</ele><time>2026-04-06T12:54:22.001Z</time></trkpt><trkpt lat="44.80142968756341" lon="9.313746573883225"><ele>1101.0</ele><time>2026-04-06T12:54:23.001Z</time></trkpt><trkpt lat="44.801317307339126" lon="9.313745192277132"><ele>1101.0</ele><time>2026-04-06T12:54:24.001Z</time></trkpt><trkpt lat="44.801218257008316" lon="9.31364247093388"><ele>1101.0</ele><time>2026-04-06T12:54:25.001Z</time></trkpt><trkpt lat="44.80109256905537" lon="9.313580966264631"><ele>1101.0</ele><time>2026-04-06T12:54:26.001Z</time></trkpt><trkpt lat="44.80098885748141" lon="9.313505535567817"><ele>1102.2</ele><time>2026-04-06T12:54:27.001Z</time></trkpt><trkpt lat="44.80089975799529" lon="9.313471375246454"><ele>1103.3999999999999</ele><time>2026-04-06T12:54:28.001Z</time></trkpt><trkpt lat="44.800809654288024" lon="9.313487715284783"><ele>1104.6</ele><time>2026-04-06T12:54:29.001Z</time></trkpt><trkpt lat="44.8007244320251" lon="9.313526166736002"><ele>1105.8</ele><time>2026-04-06T12:54:30.001Z</time></trkpt><trkpt lat="44.8006399637992" lon="9.313584221196718"><ele>1107.0</ele><time>2026-04-06T12:54:31.001Z</time></trkpt><trkpt lat="44.800558498258745" lon="9.313651393765126"><ele>1107.0</ele><time>2026-04-06T12:54:32.001Z</time></trkpt><trkpt lat="44.800477371078706" lon="9.313722007251712"><ele>1107.0</ele><time>2026-04-06T12:54:33.001Z</time></trkpt><trkpt lat="44.80039707833923" lon="9.313814743085521"><ele>1107.0</ele><time>2026-04-06T12:54:34.001Z</time></trkpt><trkpt lat="44.80032965207408" lon="9.313932802190882"><ele>1107.0</ele><time>2026-04-06T12:54:35.001Z</time></trkpt><trkpt lat="44.800276439887604" lon="9.314062384747347"><ele>1107.0</ele><time>2026-04-06T12:54:36.001Z</time></trkpt><trkpt lat="44.8002438127057" lon="9.31421777199233"><ele>1106.6</ele><time>2026-04-06T12:54:37.001Z</time></trkpt><trkpt lat="44.80022938786494" lon="9.314391959779662"><ele>1106.2</ele><time>2026-04-06T12:54:38.001Z</time></trkpt><trkpt lat="44.8002259161576" lon="9.314519442957286"><ele>1105.8</ele><time>2026-04-06T12:54:39.001Z</time></trkpt><trkpt lat="44.80021045628518" lon="9.314639783020317"><ele>1105.4</ele><time>2026-04-06T12:54:40Z</time></trkpt><trkpt lat="44.80015060563581" lon="9.31476167286825"><ele>1105.0</ele><time>2026-04-06T12:54:41Z</time></trkpt><trkpt lat="44.80005864288894" lon="9.314873092064666"><ele>1110.0</ele><time>2026-04-06T12:54:42Z</time></trkpt><trkpt lat="44.79997318635167" lon="9.314981826857817"><ele>1115.0</ele><time>2026-04-06T12:54:43Z</time></trkpt><trkpt lat="44.799912658124896" lon="9.315105222338268"><ele>1120.0</ele><time>2026-04-06T12:54:44Z</time></trkpt><trkpt lat="44.79988007522208" lon="9.315268167687776"><ele>1125.0</ele><time>2026-04-06T12:54:45Z</time></trkpt><trkpt lat="44.79987841424825" lon="9.315454235362866"><ele>1122.75</ele><time>2026-04-06T12:54:46Z</time></trkpt><trkpt lat="44.79985385076944" lon="9.315618639771285"><ele>1120.5</ele><time>2026-04-06T12:54:47Z</time></trkpt><trkpt lat="44.79983806962521" lon="9.315768566895525"><ele>1118.25</ele><time>2026-04-06T12:54:48Z</time></trkpt><trkpt lat="44.79982217030039" lon="9.315942836310134"><ele>1116.0</ele><time>2026-04-06T12:54:49Z</time></trkpt><trkpt lat="44.79976599601661" lon="9.316092155294259"><ele>1116.0</ele><time>2026-04-06T12:54:50Z</time></trkpt><trkpt lat="44.79971209170092" lon="9.316245821200567"><ele>1116.0</ele><time>2026-04-06T12:54:51Z</time></trkpt><trkpt lat="44.7996544116573" lon="9.316393829500374"><ele>1116.0</ele><time>2026-04-06T12:54:52Z</time></trkpt><trkpt lat="44.79960062480063" lon="9.31652449215737"><ele>1116.0</ele><time>2026-04-06T12:54:53Z</time></trkpt><trkpt lat="44.79956142188224" lon="9.316640049700723"><ele>1116.0</ele><time>2026-04-06T12:54:54Z</time></trkpt><trkpt lat="44.79954003866222" lon="9.31677123220896"><ele>1115.0</ele><time>2026-04-06T12:54:55Z</time></trkpt><trkpt lat="44.7995641228575" lon="9.316881711803488"><ele>1114.0</ele><time>2026-04-06T12:54:56Z</time></trkpt><trkpt lat="44.79960299883948" lon="9.317078212372513"><ele>1113.0</ele><time>2026-04-06T12:54:57Z</time></trkpt><trkpt lat="44.799662294034825" lon="9.317272259713896"><ele>1112.0</ele><time>2026-04-06T12:54:58Z</time></trkpt><trkpt lat="44.799700963771876" lon="9.317418489544393"><ele>1112.0</ele><time>2026-04-06T12:54:59Z</time></trkpt><trkpt lat="44.79971603481099" lon="9.317628500160062"><ele>1112.0</ele><time>2026-04-06T12:55:00Z</time></trkpt><trkpt lat="44.79970943391849" lon="9.31786079859282"><ele>1112.0</ele><time>2026-04-06T12:55:01Z</time></trkpt><trkpt lat="44.799678109059606" lon="9.318105861231114"><ele>1111.8</ele><time>2026-04-06T12:55:02Z</time></trkpt><trkpt lat="44.79964189439115" lon="9.318280947834916"><ele>1111.6</ele><time>2026-04-06T12:55:03Z</time></trkpt><trkpt lat="44.79962053498907" lon="9.318386717627497"><ele>1111.3999999999999</ele><time>2026-04-06T12:55:04Z</time></trkpt><trkpt lat="44.799642155019534" lon="9.318485260451732"><ele>1111.2</ele><time>2026-04-06T12:55:05Z</time></trkpt><trkpt lat="44.79957846517463" lon="9.318580606831382"><ele>1111.0</ele><time>2026-04-06T12:55:06Z</time></trkpt><trkpt lat="44.79947270254493" lon="9.318667661693349"><ele>1116.3333333333333</ele><time>2026-04-06T12:55:07Z</time></trkpt><trkpt lat="44.79933166454095" lon="9.318800923606139"><ele>1121.6666666666667</ele><time>2026-04-06T12:55:08Z</time></trkpt><trkpt lat="44.79919482649973" lon="9.31894373415549"><ele>1127.0</ele><time>2026-04-06T12:55:09Z</time></trkpt><trkpt lat="44.79908928928022" lon="9.319092390917092"><ele>1127.0</ele><time>2026-04-06T12:55:10Z</time></trkpt><trkpt lat="44.79899940029218" lon="9.319214499174226"><ele>1127.0</ele><time>2026-04-06T12:55:11Z</time></trkpt><trkpt lat="44.79893308419978" lon="9.319334302752145"><ele>1127.0</ele><time>2026-04-06T12:55:12Z</time></trkpt><trkpt lat="44.79883945956741" lon="9.319381271692833"><ele>1127.0</ele><time>2026-04-06T12:55:13Z</time></trkpt><trkpt lat="44.79873429237014" lon="9.319402005167829"><ele>1127.0</ele><time>2026-04-06T12:55:14Z</time></trkpt><trkpt lat="44.798577602346576" lon="9.31945064714613"><ele>1130.5</ele><time>2026-04-06T12:55:15Z</time></trkpt><trkpt lat="44.798459104174945" lon="9.319490294307826"><ele>1134.0</ele><time>2026-04-06T12:55:16Z</time></trkpt><trkpt lat="44.79837082818611" lon="9.319543452364359"><ele>1137.5</ele><time>2026-04-06T12:55:17Z</time></trkpt><trkpt lat="44.798318893232114" lon="9.319634187591927"><ele>1141.0</ele><time>2026-04-06T12:55:18Z</time></trkpt><trkpt lat="44.79826826136045" lon="9.31971387927229"><ele>1144.5</ele><time>2026-04-06T12:55:19Z</time></trkpt><trkpt lat="44.79825002728873" lon="9.319808738588506"><ele>1148.0</ele><time>2026-04-06T12:55:20Z</time></trkpt><trkpt lat="44.79826837918521" lon="9.319902350400758"><ele>1148.0</ele><time>2026-04-06T12:55:21Z</time></trkpt><trkpt lat="44.79832339840703" lon="9.319975912326788"><ele>1148.0</ele><time>2026-04-06T12:55:22Z</time></trkpt><trkpt lat="44.7984047705938" lon="9.320027580790851"><ele>1148.0</ele><time>2026-04-06T12:55:23Z</time></trkpt><trkpt lat="44.798512807537115" lon="9.32007189461803"><ele>1148.0</ele><time>2026-04-06T12:55:24Z</time></trkpt><trkpt lat="44.79863196038299" lon="9.320134190901443"><ele>1148.0</ele><time>2026-04-06T12:55:25.001Z</time></trkpt><trkpt lat="44.79875513706406" lon="9.320201502399408"><ele>1143.4</ele><time>2026-04-06T12:55:26.001Z</time></trkpt><trkpt lat="44.7988728510027" lon="9.320272951428478"><ele>1138.8</ele><time>2026-04-06T12:55:27.001Z</time></trkpt><trkpt lat="44.799001428911836" lon="9.320361117573768"><ele>1134.2</ele><time>2026-04-06T12:55:28.001Z</time></trkpt><trkpt lat="44.79906145929584" lon="9.320440442079528"><ele>1129.6</ele><time>2026-04-06T12:55:29.001Z</time></trkpt><trkpt lat="44.799071196951665" lon="9.320572083127791"><ele>1125.0</ele><time>2026-04-06T12:55:30.001Z</time></trkpt><trkpt lat="44.79906313774961" lon="9.320736863986896"><ele>1125.0</ele><time>2026-04-06T12:55:31.001Z</time></trkpt><trkpt lat="44.799080183084946" lon="9.320924294072285"><ele>1125.0</ele><time>2026-04-06T12:55:32.001Z</time></trkpt><trkpt lat="44.799084877321434" lon="9.32106541979256"><ele>1125.0</ele><time>2026-04-06T12:55:33.001Z</time></trkpt><trkpt lat="44.799048363465744" lon="9.321140197833872"><ele>1125.0</ele><time>2026-04-06T12:55:34.001Z</time></trkpt><trkpt lat="44.798994919059105" lon="9.321189383394698"><ele>1125.0</ele><time>2026-04-06T12:55:35.001Z</time></trkpt><trkpt lat="44.79889332018711" lon="9.321195638204767"><ele>1125.0</ele><time>2026-04-06T12:55:36.001Z</time></trkpt><trkpt lat="44.7987803970531" lon="9.321246506444796"><ele>1125.0</ele><time>2026-04-06T12:55:37.001Z</time></trkpt><trkpt lat="44.79868017865921" lon="9.321347149365275"><ele>1125.0</ele><time>2026-04-06T12:55:38.001Z</time></trkpt><trkpt lat="44.79857023447077" lon="9.321472904646406"><ele>1125.0</ele><time>2026-04-06T12:55:39.001Z</time></trkpt><trkpt lat="44.79846088095407" lon="9.32159338240867"><ele>1129.25</ele><time>2026-04-06T12:55:40.001Z</time></trkpt><trkpt lat="44.79836839247061" lon="9.321733770391887"><ele>1133.5</ele><time>2026-04-06T12:55:41.001Z</time></trkpt><trkpt lat="44.79828025300863" lon="9.3218526607334"><ele>1137.75</ele><time>2026-04-06T12:55:42.001Z</time></trkpt><trkpt lat="44.7981914775772" lon="9.32196137093678"><ele>1142.0</ele><time>2026-04-06T12:55:43.001Z</time></trkpt><trkpt lat="44.798117771887355" lon="9.322078190968432"><ele>1142.0</ele><time>2026-04-06T12:55:44.001Z</time></trkpt><trkpt lat="44.79801672029006" lon="9.32216352459286"><ele>1142.0</ele><time>2026-04-06T12:55:45.001Z</time></trkpt><trkpt lat="44.79789782096264" lon="9.322249286906445"><ele>1142.0</ele><time>2026-04-06T12:55:46.001Z</time></trkpt><trkpt lat="44.79778857888275" lon="9.322314357165428"><ele>1142.0</ele><time>2026-04-06T12:55:47.001Z</time></trkpt><trkpt lat="44.79768758326118" lon="9.322368777932452"><ele>1142.3333333333335</ele><time>2026-04-06T12:55:48.001Z</time></trkpt><trkpt lat="44.79759044986447" lon="9.322354816582477"><ele>1142.6666666666667</ele><time>2026-04-06T12:55:49.001Z</time></trkpt><trkpt lat="44.797502334014666" lon="9.322340822550009"><ele>1143.0</ele><time>2026-04-06T12:55:50.001Z</time></trkpt><trkpt lat="44.79741746532492" lon="9.322369368270843"><ele>1143.3333333333333</ele><time>2026-04-06T12:55:51.001Z</time></trkpt><trkpt lat="44.79735422179651" lon="9.322432050131384"><ele>1143.6666666666665</ele><time>2026-04-06T12:55:52.001Z</time></trkpt><trkpt lat="44.797316474948346" lon="9.322547387116563"><ele>1144.0</ele><time>2026-04-06T12:55:53.001Z</time></trkpt><trkpt lat="44.797296092980844" lon="9.322695875268293"><ele>1144.0</ele><time>2026-04-06T12:55:54.001Z</time></trkpt><trkpt lat="44.79730158826042" lon="9.322888419244833"><ele>1144.0</ele><time>2026-04-06T12:55:55.001Z</time></trkpt><trkpt lat="44.797304799057116" lon="9.323114839034854"><ele>1144.0</ele><time>2026-04-06T12:55:56.001Z</time></trkpt><trkpt lat="44.79729223207605" lon="9.323350533767643"><ele>1141.25</ele><time>2026-04-06T12:55:57.001Z</time></trkpt><trkpt lat="44.79727310794917" lon="9.3235581315639"><ele>1138.5</ele><time>2026-04-06T12:55:58.001Z</time></trkpt><trkpt lat="44.79725812153959" lon="9.323736981702405"><ele>1135.75</ele><time>2026-04-06T12:55:59.001Z</time></trkpt><trkpt lat="44.79721955426999" lon="9.323888216987143"><ele>1133.0</ele><time>2026-04-06T12:56:00.001Z</time></trkpt><trkpt lat="44.79716865455977" lon="9.324044672197088"><ele>1131.5</ele><time>2026-04-06T12:56:01.001Z</time></trkpt><trkpt lat="44.79709262500942" lon="9.324228296415592"><ele>1130.0</ele><time>2026-04-06T12:56:02.001Z</time></trkpt><trkpt lat="44.797015287821964" lon="9.324418676498022"><ele>1128.5</ele><time>2026-04-06T12:56:03.001Z</time></trkpt><trkpt lat="44.79697416527718" lon="9.324578635883045"><ele>1127.0</ele><time>2026-04-06T12:56:04.001Z</time></trkpt><trkpt lat="44.796939285253515" lon="9.324706912205174"><ele>1126.2</ele><time>2026-04-06T12:56:05.001Z</time></trkpt><trkpt lat="44.796946350840656" lon="9.324840019479465"><ele>1125.4</ele><time>2026-04-06T12:56:06.001Z</time></trkpt><trkpt lat="44.79699133574064" lon="9.324969836768704"><ele>1124.6</ele><time>2026-04-06T12:56:07.001Z</time></trkpt><trkpt lat="44.79704283258802" lon="9.325116933095588"><ele>1123.8</ele><time>2026-04-06T12:56:08.001Z</time></trkpt><trkpt lat="44.79705421145487" lon="9.325280402761969"><ele>1123.0</ele><time>2026-04-06T12:56:09.001Z</time></trkpt><trkpt lat="44.79702606279213" lon="9.325442714509935"><ele>1122.0</ele><time>2026-04-06T12:56:10.001Z</time></trkpt><trkpt lat="44.796952618014046" lon="9.325588103245929"><ele>1121.0</ele><time>2026-04-06T12:56:11.001Z</time></trkpt><trkpt lat="44.796855448320564" lon="9.325719072470264"><ele>1120.0</ele><time>2026-04-06T12:56:12.001Z</time></trkpt><trkpt lat="44.79676615419667" lon="9.325821040614414"><ele>1119.0</ele><time>2026-04-06T12:56:13.001Z</time></trkpt><trkpt lat="44.79669286762915" lon="9.325900528918506"><ele>1119.4</ele><time>2026-04-06T12:56:14.001Z</time></trkpt><trkpt lat="44.79665882542525" lon="9.326022958680026"><ele>1119.8000000000002</ele><time>2026-04-06T12:56:15.001Z</time></trkpt><trkpt lat="44.79666351483562" lon="9.326155857001833"><ele>1120.1999999999998</ele><time>2026-04-06T12:56:16.001Z</time></trkpt><trkpt lat="44.79672378962365" lon="9.326281369146628"><ele>1120.6</ele><time>2026-04-06T12:56:17.001Z</time></trkpt><trkpt lat="44.796795185176265" lon="9.326394640775632"><ele>1121.0</ele><time>2026-04-06T12:56:18.001Z</time></trkpt><trkpt lat="44.7968563581669" lon="9.32649677277258"><ele>1121.0</ele><time>2026-04-06T12:56:19.001Z</time></trkpt><trkpt lat="44.79686735883753" lon="9.32662829554571"><ele>1121.0</ele><time>2026-04-06T12:56:20.001Z</time></trkpt><trkpt lat="44.79682504077284" lon="9.32676619475662"><ele>1121.0</ele><time>2026-04-06T12:56:21.001Z</time></trkpt><trkpt lat="44.79676861039755" lon="9.326892401377005"><ele>1121.0</ele><time>2026-04-06T12:56:22.001Z</time></trkpt><trkpt lat="44.796740581125825" lon="9.327015147888437"><ele>1121.0</ele><time>2026-04-06T12:56:23.001Z</time></trkpt><trkpt lat="44.79674032371502" lon="9.327128038944188"><ele>1122.8333333333335</ele><time>2026-04-06T12:56:24.001Z</time></trkpt><trkpt lat="44.79678565932527" lon="9.327220398950363"><ele>1124.6666666666667</ele><time>2026-04-06T12:56:25.001Z</time></trkpt><trkpt lat="44.79684604292745" lon="9.327295969554608"><ele>1126.5</ele><time>2026-04-06T12:56:26.001Z</time></trkpt><trkpt lat="44.79689927422646" lon="9.32737451440248"><ele>1128.3333333333333</ele><time>2026-04-06T12:56:27.001Z</time></trkpt><trkpt lat="44.796946157701825" lon="9.327461470683733"><ele>1130.1666666666665</ele><time>2026-04-06T12:56:28.001Z</time></trkpt><trkpt lat="44.79699235668612" lon="9.32755551047944"><ele>1132.0</ele><time>2026-04-06T12:56:29.001Z</time></trkpt><trkpt lat="44.797039765391176" lon="9.32765124505417"><ele>1132.0</ele><time>2026-04-06T12:56:30.001Z</time></trkpt><trkpt lat="44.79708584044978" lon="9.327746948935786"><ele>1132.0</ele><time>2026-04-06T12:56:31.001Z</time></trkpt><trkpt lat="44.79713114581157" lon="9.32784276835917"><ele>1132.0</ele><time>2026-04-06T12:56:32.001Z</time></trkpt><trkpt lat="44.79717670825659" lon="9.327924153437019"><ele>1132.0</ele><time>2026-04-06T12:56:33.001Z</time></trkpt><trkpt lat="44.79722041001731" lon="9.327997550053311"><ele>1132.0</ele><time>2026-04-06T12:56:34.001Z</time></trkpt><trkpt lat="44.79728922393377" lon="9.328126524741092"><ele>1132.0</ele><time>2026-04-06T12:56:36.001Z</time></trkpt><trkpt lat="44.79730637696004" lon="9.32826404281429"><ele>1133.6</ele><time>2026-04-06T12:56:38.001Z</time></trkpt><trkpt lat="44.79724527449954" lon="9.32836062729174"><ele>1135.2</ele><time>2026-04-06T12:56:40.001Z</time></trkpt><trkpt lat="44.797336586227274" lon="9.328473948552942"><ele>1136.8</ele><time>2026-04-06T12:56:43.002Z</time></trkpt><trkpt lat="44.79739343873426" lon="9.328563780399234"><ele>1138.4</ele><time>2026-04-06T12:56:46.001Z</time></trkpt><trkpt lat="44.797432554895614" lon="9.328654098254933"><ele>1140.0</ele><time>2026-04-06T12:56:49.001Z</time></trkpt><trkpt lat="44.79749972513668" lon="9.328718832417156"><ele>1140.0</ele><time>2026-04-06T12:56:53.001Z</time></trkpt><trkpt lat="44.79754520173242" lon="9.328781792252643"><ele>1140.0</ele><time>2026-04-06T12:56:56.001Z</time></trkpt><trkpt lat="44.79759361986563" lon="9.328864760743054"><ele>1140.0</ele><time>2026-04-06T12:56:59Z</time></trkpt><trkpt lat="44.79764865719679" lon="9.32896599263802"><ele>1140.0</ele><time>2026-04-06T12:57:02Z</time></trkpt><trkpt lat="44.7977071596937" lon="9.329023423625445"><ele>1140.0</ele><time>2026-04-06T12:57:06Z</time></trkpt><trkpt lat="44.79779592538382" lon="9.328921494121431"><ele>1140.0</ele><time>2026-04-06T12:57:10Z</time></trkpt><trkpt lat="44.797716074412044" lon="9.328842363043899"><ele>1140.0</ele><time>2026-04-06T12:57:12.001Z</time></trkpt><trkpt lat="44.797647011259656" lon="9.32877878458977"><ele>1140.0</ele><time>2026-04-06T12:57:15.001Z</time></trkpt><trkpt lat="44.797591836622516" lon="9.328726963214434"><ele>1140.0</ele><time>2026-04-06T12:57:18.001Z</time></trkpt><trkpt lat="44.79755541445772" lon="9.328637678792093"><ele>1140.0</ele><time>2026-04-06T12:57:24.001Z</time></trkpt><trkpt lat="44.79750104035382" lon="9.328570397534964"><ele>1140.0</ele><time>2026-04-06T12:57:28.001Z</time></trkpt><trkpt lat="44.797430402346464" lon="9.328410862823334"><ele>1140.0</ele><time>2026-04-06T13:06:11Z</time></trkpt><trkpt lat="44.7973973960247" lon="9.328296401159664"><ele>1140.0</ele><time>2026-04-06T13:06:14Z</time></trkpt><trkpt lat="44.797335406589454" lon="9.328274267124327"><ele>1140.0</ele><time>2026-04-06T13:06:17Z</time></trkpt><trkpt lat="44.79726975493172" lon="9.328303284288744"><ele>1140.0</ele><time>2026-04-06T13:06:19Z</time></trkpt><trkpt lat="44.79718366913447" lon="9.328354320630984"><ele>1140.0</ele><time>2026-04-06T13:06:21Z</time></trkpt><trkpt lat="44.79705918988357" lon="9.328329517832795"><ele>1140.0</ele><time>2026-04-06T13:06:23Z</time></trkpt><trkpt lat="44.79699601847249" lon="9.32832137911606"><ele>1140.0</ele><time>2026-04-06T13:06:24Z</time></trkpt><trkpt lat="44.796930345332605" lon="9.32830820157826"><ele>1143.0</ele><time>2026-04-06T13:06:25Z</time></trkpt><trkpt lat="44.7968039491377" lon="9.328283470681166"><ele>1146.0</ele><time>2026-04-06T13:06:27Z</time></trkpt><trkpt lat="44.796744044644875" lon="9.328314532866711"><ele>1149.0</ele><time>2026-04-06T13:06:28Z</time></trkpt><trkpt lat="44.79662514621874" lon="9.32835795679759"><ele>1152.0</ele><time>2026-04-06T13:06:30Z</time></trkpt><trkpt lat="44.79651179526674" lon="9.328411282545325"><ele>1155.0</ele><time>2026-04-06T13:06:32Z</time></trkpt><trkpt lat="44.79640319870388" lon="9.32851731658929"><ele>1155.0</ele><time>2026-04-06T13:06:34Z</time></trkpt><trkpt lat="44.79633813716182" lon="9.328572863525343"><ele>1155.0</ele><time>2026-04-06T13:06:35Z</time></trkpt><trkpt lat="44.79628155309577" lon="9.32864697183133"><ele>1155.0</ele><time>2026-04-06T13:06:36Z</time></trkpt><trkpt lat="44.796234408516895" lon="9.328735451312415"><ele>1155.0</ele><time>2026-04-06T13:06:37Z</time></trkpt><trkpt lat="44.796196305750485" lon="9.3288316812651"><ele>1155.0</ele><time>2026-04-06T13:06:38Z</time></trkpt><trkpt lat="44.796153271628384" lon="9.328925836642076"><ele>1155.0</ele><time>2026-04-06T13:06:39Z</time></trkpt><trkpt lat="44.796122624236965" lon="9.329012970558706"><ele>1152.6666666666667</ele><time>2026-04-06T13:06:40Z</time></trkpt><trkpt lat="44.79610846865447" lon="9.329103201885948"><ele>1150.3333333333333</ele><time>2026-04-06T13:06:41Z</time></trkpt><trkpt lat="44.79613217657277" lon="9.329192386981436"><ele>1148.0</ele><time>2026-04-06T13:06:42Z</time></trkpt><trkpt lat="44.796178612876325" lon="9.329265031771758"><ele>1145.6666666666665</ele><time>2026-04-06T13:06:43Z</time></trkpt><trkpt lat="44.796279725936294" lon="9.32927702305468"><ele>1143.3333333333333</ele><time>2026-04-06T13:06:44Z</time></trkpt><trkpt lat="44.79635167165759" lon="9.329252670169387"><ele>1141.0</ele><time>2026-04-06T13:06:45Z</time></trkpt><trkpt lat="44.7964060421887" lon="9.32918376219717"><ele>1141.0</ele><time>2026-04-06T13:06:46Z</time></trkpt><trkpt lat="44.796445920862375" lon="9.32909218788793"><ele>1141.0</ele><time>2026-04-06T13:06:47Z</time></trkpt><trkpt lat="44.79648107939399" lon="9.328969070899275"><ele>1141.0</ele><time>2026-04-06T13:06:48Z</time></trkpt><trkpt lat="44.79651194213562" lon="9.328859058247915"><ele>1141.0</ele><time>2026-04-06T13:06:49Z</time></trkpt><trkpt lat="44.79656531184982" lon="9.328788184149683"><ele>1141.0</ele><time>2026-04-06T13:06:50Z</time></trkpt><trkpt lat="44.79663599068688" lon="9.32875694638562"><ele>1141.0</ele><time>2026-04-06T13:06:51Z</time></trkpt><trkpt lat="44.79671083778968" lon="9.328769169061875"><ele>1140.3333333333333</ele><time>2026-04-06T13:06:52Z</time></trkpt><trkpt lat="44.796781450196946" lon="9.328831406720699"><ele>1139.6666666666665</ele><time>2026-04-06T13:06:53Z</time></trkpt><trkpt lat="44.79684728411769" lon="9.328911432795513"><ele>1139.0</ele><time>2026-04-06T13:06:54Z</time></trkpt><trkpt lat="44.79691223153276" lon="9.328991087485072"><ele>1138.3333333333333</ele><time>2026-04-06T13:06:55Z</time></trkpt><trkpt lat="44.79698036206198" lon="9.329070034502067"><ele>1137.6666666666667</ele><time>2026-04-06T13:06:56Z</time></trkpt><trkpt lat="44.79705072633457" lon="9.329156437518767"><ele>1137.0</ele><time>2026-04-06T13:06:57Z</time></trkpt><trkpt lat="44.79712279924097" lon="9.329245469700409"><ele>1137.0</ele><time>2026-04-06T13:06:58Z</time></trkpt><trkpt lat="44.797190179999" lon="9.32933542609465"><ele>1137.0</ele><time>2026-04-06T13:06:59Z</time></trkpt><trkpt lat="44.79726068440908" lon="9.32941311880281"><ele>1137.0</ele><time>2026-04-06T13:07:00Z</time></trkpt><trkpt lat="44.79735495716084" lon="9.329460931776572"><ele>1137.0</ele><time>2026-04-06T13:07:01Z</time></trkpt><trkpt lat="44.797446187042844" lon="9.329497015310327"><ele>1137.0</ele><time>2026-04-06T13:07:02Z</time></trkpt><trkpt lat="44.7975359640404" lon="9.329548159377842"><ele>1137.0</ele><time>2026-04-06T13:07:03Z</time></trkpt><trkpt lat="44.79762135500167" lon="9.329596956198884"><ele>1137.0</ele><time>2026-04-06T13:07:04Z</time></trkpt><trkpt lat="44.79772243703237" lon="9.329639589196942"><ele>1137.0</ele><time>2026-04-06T13:07:05Z</time></trkpt><trkpt lat="44.79780796918356" lon="9.329716043106812"><ele>1137.0</ele><time>2026-04-06T13:07:06Z</time></trkpt><trkpt lat="44.797890905343785" lon="9.32980361603546"><ele>1137.0</ele><time>2026-04-06T13:07:07Z</time></trkpt><trkpt lat="44.79798088203527" lon="9.329871095373809"><ele>1135.2</ele><time>2026-04-06T13:07:08Z</time></trkpt><trkpt lat="44.7980805564667" lon="9.329934184863678"><ele>1133.4</ele><time>2026-04-06T13:07:09Z</time></trkpt><trkpt lat="44.79819452904321" lon="9.329980871054964"><ele>1131.6</ele><time>2026-04-06T13:07:10Z</time></trkpt><trkpt lat="44.79830378460878" lon="9.330026338733763"><ele>1129.8</ele><time>2026-04-06T13:07:11Z</time></trkpt><trkpt lat="44.79839535760053" lon="9.330095765244282"><ele>1128.0</ele><time>2026-04-06T13:07:12Z</time></trkpt><trkpt lat="44.79848633648365" lon="9.330191749171457"><ele>1128.25</ele><time>2026-04-06T13:07:13Z</time></trkpt><trkpt lat="44.79857019255427" lon="9.330300598970139"><ele>1128.5</ele><time>2026-04-06T13:07:14Z</time></trkpt><trkpt lat="44.79864149116838" lon="9.330432543423646"><ele>1128.75</ele><time>2026-04-06T13:07:15Z</time></trkpt><trkpt lat="44.798717361415115" lon="9.330566104330751"><ele>1129.0</ele><time>2026-04-06T13:07:16Z</time></trkpt><trkpt lat="44.79880188667575" lon="9.330690971259864"><ele>1129.0</ele><time>2026-04-06T13:07:17Z</time></trkpt><trkpt lat="44.798876884300526" lon="9.330828571895424"><ele>1129.0</ele><time>2026-04-06T13:07:18Z</time></trkpt><trkpt lat="44.798931149885135" lon="9.330985805248664"><ele>1129.0</ele><time>2026-04-06T13:07:19Z</time></trkpt><trkpt lat="44.799002078045575" lon="9.331143258050307"><ele>1129.0</ele><time>2026-04-06T13:07:20Z</time></trkpt><trkpt lat="44.79905179190431" lon="9.331306377587248"><ele>1125.75</ele><time>2026-04-06T13:07:21Z</time></trkpt><trkpt lat="44.79910529470115" lon="9.33147387949892"><ele>1122.5</ele><time>2026-04-06T13:07:22Z</time></trkpt><trkpt lat="44.7991655133435" lon="9.331629677309515"><ele>1119.25</ele><time>2026-04-06T13:07:23Z</time></trkpt><trkpt lat="44.799252855484774" lon="9.331760912936932"><ele>1116.0</ele><time>2026-04-06T13:07:24Z</time></trkpt><trkpt lat="44.799352857129605" lon="9.331880522969682"><ele>1116.0</ele><time>2026-04-06T13:07:25Z</time></trkpt><trkpt lat="44.79945919844142" lon="9.33200564962776"><ele>1116.0</ele><time>2026-04-06T13:07:26Z</time></trkpt><trkpt lat="44.79956258992457" lon="9.332128514358782"><ele>1116.0</ele><time>2026-04-06T13:07:27Z</time></trkpt><trkpt lat="44.799665067935685" lon="9.332248525207245"><ele>1116.0</ele><time>2026-04-06T13:07:28Z</time></trkpt><trkpt lat="44.79976514551969" lon="9.332360355392398"><ele>1112.5</ele><time>2026-04-06T13:07:29Z</time></trkpt><trkpt lat="44.79987621954667" lon="9.3324345715243"><ele>1109.0</ele><time>2026-04-06T13:07:30Z</time></trkpt><trkpt lat="44.80000071716383" lon="9.332489667788604"><ele>1105.5</ele><time>2026-04-06T13:07:31Z</time></trkpt><trkpt lat="44.80012473870574" lon="9.332529987653217"><ele>1102.0</ele><time>2026-04-06T13:07:32Z</time></trkpt><trkpt lat="44.80024541323386" lon="9.332575517945804"><ele>1102.0</ele><time>2026-04-06T13:07:33Z</time></trkpt><trkpt lat="44.8003621390764" lon="9.332624214377839"><ele>1102.0</ele><time>2026-04-06T13:07:34Z</time></trkpt><trkpt lat="44.800480897973756" lon="9.332672434010744"><ele>1102.0</ele><time>2026-04-06T13:07:35Z</time></trkpt><trkpt lat="44.80058829592008" lon="9.332737657250908"><ele>1102.0</ele><time>2026-04-06T13:07:36Z</time></trkpt><trkpt lat="44.80070187831633" lon="9.332786858693"><ele>1102.0</ele><time>2026-04-06T13:07:37Z</time></trkpt><trkpt lat="44.80081249242148" lon="9.332849677078364"><ele>1102.0</ele><time>2026-04-06T13:07:38Z</time></trkpt><trkpt lat="44.800922209729784" lon="9.33294311536913"><ele>1102.0</ele><time>2026-04-06T13:07:39Z</time></trkpt><trkpt lat="44.80102040880813" lon="9.333036562417957"><ele>1102.0</ele><time>2026-04-06T13:07:40Z</time></trkpt><trkpt lat="44.80111949007873" lon="9.333115457154138"><ele>1102.25</ele><time>2026-04-06T13:07:41Z</time></trkpt><trkpt lat="44.801213174358494" lon="9.333227409471055"><ele>1102.5</ele><time>2026-04-06T13:07:42Z</time></trkpt><trkpt lat="44.801286371505405" lon="9.333365801015965"><ele>1102.75</ele><time>2026-04-06T13:07:43Z</time></trkpt><trkpt lat="44.801352823819634" lon="9.33350612756374"><ele>1103.0</ele><time>2026-04-06T13:07:44Z</time></trkpt><trkpt lat="44.80141486675003" lon="9.333646661312706"><ele>1103.0</ele><time>2026-04-06T13:07:45Z</time></trkpt><trkpt lat="44.80148390195797" lon="9.333772961475765"><ele>1103.0</ele><time>2026-04-06T13:07:46Z</time></trkpt><trkpt lat="44.80157328672696" lon="9.333874026319547"><ele>1103.0</ele><time>2026-04-06T13:07:47Z</time></trkpt><trkpt lat="44.80166064151708" lon="9.333957251531947"><ele>1103.0</ele><time>2026-04-06T13:07:48Z</time></trkpt><trkpt lat="44.80175040788955" lon="9.334030731783908"><ele>1103.0</ele><time>2026-04-06T13:07:49Z</time></trkpt><trkpt lat="44.801822997465344" lon="9.33413182184556"><ele>1105.75</ele><time>2026-04-06T13:07:50Z</time></trkpt><trkpt lat="44.80183269702795" lon="9.334286850350162"><ele>1108.5</ele><time>2026-04-06T13:07:51Z</time></trkpt><trkpt lat="44.801797342411454" lon="9.334438040867584"><ele>1111.25</ele><time>2026-04-06T13:07:52Z</time></trkpt><trkpt lat="44.80177507340296" lon="9.334613496869622"><ele>1114.0</ele><time>2026-04-06T13:07:53Z</time></trkpt><trkpt lat="44.801777706654384" lon="9.334757328228207"><ele>1110.75</ele><time>2026-04-06T13:07:54Z</time></trkpt><trkpt lat="44.80180987204823" lon="9.33490814619404"><ele>1107.5</ele><time>2026-04-06T13:07:55Z</time></trkpt><trkpt lat="44.80187451481101" lon="9.33504428794928"><ele>1104.25</ele><time>2026-04-06T13:07:56Z</time></trkpt><trkpt lat="44.80195286327526" lon="9.335185764168306"><ele>1101.0</ele><time>2026-04-06T13:07:57Z</time></trkpt><trkpt lat="44.80203435771472" lon="9.335337490856789"><ele>1101.0</ele><time>2026-04-06T13:07:58Z</time></trkpt><trkpt lat="44.80210385896349" lon="9.335512052415258"><ele>1101.0</ele><time>2026-04-06T13:07:59Z</time></trkpt><trkpt lat="44.80218222095618" lon="9.335684932147835"><ele>1101.0</ele><time>2026-04-06T13:08:00Z</time></trkpt><trkpt lat="44.80226134893742" lon="9.335862281464296"><ele>1101.0</ele><time>2026-04-06T13:08:01Z</time></trkpt><trkpt lat="44.802340635313406" lon="9.336032421413652"><ele>1094.5</ele><time>2026-04-06T13:08:02Z</time></trkpt><trkpt lat="44.80241694043579" lon="9.336198065992392"><ele>1088.0</ele><time>2026-04-06T13:08:03Z</time></trkpt><trkpt lat="44.802496127459605" lon="9.336356206132713"><ele>1081.5</ele><time>2026-04-06T13:08:04Z</time></trkpt><trkpt lat="44.802577230933124" lon="9.336507432798786"><ele>1075.0</ele><time>2026-04-06T13:08:05Z</time></trkpt><trkpt lat="44.802672483750165" lon="9.336657317959803"><ele>1075.0</ele><time>2026-04-06T13:08:06Z</time></trkpt><trkpt lat="44.80278320441072" lon="9.336807230399808"><ele>1075.0</ele><time>2026-04-06T13:08:07Z</time></trkpt><trkpt lat="44.80291582732241" lon="9.336955382465932"><ele>1075.0</ele><time>2026-04-06T13:08:08Z</time></trkpt><trkpt lat="44.803068338619326" lon="9.337130753374847"><ele>1066.6666666666665</ele><time>2026-04-06T13:08:09Z</time></trkpt><trkpt lat="44.803249366392144" lon="9.337332399156134"><ele>1058.3333333333333</ele><time>2026-04-06T13:08:10Z</time></trkpt><trkpt lat="44.80341865899065" lon="9.33750926143643"><ele>1050.0</ele><time>2026-04-06T13:08:11Z</time></trkpt><trkpt lat="44.803545207455116" lon="9.337660455147647"><ele>1050.0</ele><time>2026-04-06T13:08:12Z</time></trkpt><trkpt lat="44.80365084324261" lon="9.337780128524154"><ele>1050.0</ele><time>2026-04-06T13:08:13Z</time></trkpt><trkpt lat="44.80373526006016" lon="9.337884128647552"><ele>1050.0</ele><time>2026-04-06T13:08:14Z</time></trkpt><trkpt lat="44.80379822971947" lon="9.337989777542742"><ele>1050.0</ele><time>2026-04-06T13:08:15Z</time></trkpt><trkpt lat="44.80382985202026" lon="9.338137077769126"><ele>1045.5</ele><time>2026-04-06T13:08:16Z</time></trkpt><trkpt lat="44.80385299644226" lon="9.338294837922827"><ele>1041.0</ele><time>2026-04-06T13:08:17Z</time></trkpt><trkpt lat="44.80384645522681" lon="9.338458319412535"><ele>1036.5</ele><time>2026-04-06T13:08:18Z</time></trkpt><trkpt lat="44.8038561561037" lon="9.338637247417038"><ele>1032.0</ele><time>2026-04-06T13:08:19Z</time></trkpt><trkpt lat="44.803802141858746" lon="9.338811246590407"><ele>1032.75</ele><time>2026-04-06T13:08:20Z</time></trkpt><trkpt lat="44.80373405677981" lon="9.338983313287747"><ele>1033.5</ele><time>2026-04-06T13:08:21Z</time></trkpt><trkpt lat="44.803665488610974" lon="9.339159444484045"><ele>1034.25</ele><time>2026-04-06T13:08:22Z</time></trkpt><trkpt lat="44.80360280258276" lon="9.339337696630416"><ele>1035.0</ele><time>2026-04-06T13:08:23Z</time></trkpt><trkpt lat="44.803544062722594" lon="9.339504741220793"><ele>1033.8</ele><time>2026-04-06T13:08:24Z</time></trkpt><trkpt lat="44.803488489880635" lon="9.339643111508593"><ele>1032.6</ele><time>2026-04-06T13:08:25Z</time></trkpt><trkpt lat="44.803459569470526" lon="9.339779432247918"><ele>1031.4</ele><time>2026-04-06T13:08:26Z</time></trkpt><trkpt lat="44.803452528328506" lon="9.339904281140557"><ele>1030.2</ele><time>2026-04-06T13:08:27Z</time></trkpt><trkpt lat="44.80347887708866" lon="9.340032187208108"><ele>1029.0</ele><time>2026-04-06T13:08:28Z</time></trkpt><trkpt lat="44.803530292849175" lon="9.340148545533713"><ele>1032.0</ele><time>2026-04-06T13:08:29Z</time></trkpt><trkpt lat="44.80360909448921" lon="9.340238341269094"><ele>1035.0</ele><time>2026-04-06T13:08:30Z</time></trkpt><trkpt lat="44.80371088705914" lon="9.340306602850477"><ele>1038.0</ele><time>2026-04-06T13:08:31Z</time></trkpt><trkpt lat="44.80382408713464" lon="9.340367689849446"><ele>1041.0</ele><time>2026-04-06T13:08:32Z</time></trkpt><trkpt lat="44.803940885851915" lon="9.34041809235428"><ele>1041.0</ele><time>2026-04-06T13:08:33Z</time></trkpt><trkpt lat="44.80405468156124" lon="9.340457932387407"><ele>1041.0</ele><time>2026-04-06T13:08:34Z</time></trkpt><trkpt lat="44.804155430325665" lon="9.340510147345185"><ele>1041.0</ele><time>2026-04-06T13:08:35Z</time></trkpt><trkpt lat="44.804231848288126" lon="9.34060123132117"><ele>1041.0</ele><time>2026-04-06T13:08:36Z</time></trkpt><trkpt lat="44.80427881466927" lon="9.34073430578457"><ele>1041.0</ele><time>2026-04-06T13:08:37Z</time></trkpt><trkpt lat="44.804303564459495" lon="9.340894505209874"><ele>1038.0</ele><time>2026-04-06T13:08:38Z</time></trkpt><trkpt lat="44.80429748728373" lon="9.341070919508113"><ele>1035.0</ele><time>2026-04-06T13:08:39Z</time></trkpt><trkpt lat="44.80426273954459" lon="9.341250711965555"><ele>1032.0</ele><time>2026-04-06T13:08:40Z</time></trkpt><trkpt lat="44.80422982154054" lon="9.341435608554745"><ele>1029.0</ele><time>2026-04-06T13:08:41Z</time></trkpt><trkpt lat="44.80420612989745" lon="9.341609129866486"><ele>1030.25</ele><time>2026-04-06T13:08:42Z</time></trkpt><trkpt lat="44.804196097654085" lon="9.341764831466577"><ele>1031.5</ele><time>2026-04-06T13:08:43Z</time></trkpt><trkpt lat="44.80421508909246" lon="9.341922076172237"><ele>1032.75</ele><time>2026-04-06T13:08:44Z</time></trkpt><trkpt lat="44.80426653957966" lon="9.342070028166084"><ele>1034.0</ele><time>2026-04-06T13:08:45Z</time></trkpt><trkpt lat="44.80434863163308" lon="9.342191577078195"><ele>1032.25</ele><time>2026-04-06T13:08:46Z</time></trkpt><trkpt lat="44.80445081212159" lon="9.342289961373107"><ele>1030.5</ele><time>2026-04-06T13:08:47Z</time></trkpt><trkpt lat="44.804554331508626" lon="9.342364988788677"><ele>1028.75</ele><time>2026-04-06T13:08:48Z</time></trkpt><trkpt lat="44.80464306147367" lon="9.342445847307706"><ele>1027.0</ele><time>2026-04-06T13:08:49Z</time></trkpt><trkpt lat="44.80470508079834" lon="9.34256427719481"><ele>1027.0</ele><time>2026-04-06T13:08:50Z</time></trkpt><trkpt lat="44.804739476712136" lon="9.342702515617141"><ele>1027.0</ele><time>2026-04-06T13:08:51Z</time></trkpt><trkpt lat="44.80474230434063" lon="9.342851704120102"><ele>1027.0</ele><time>2026-04-06T13:08:52Z</time></trkpt><trkpt lat="44.8047126739554" lon="9.34299161772794"><ele>1027.0</ele><time>2026-04-06T13:08:53Z</time></trkpt><trkpt lat="44.80462530268747" lon="9.343111863763475"><ele>1027.0</ele><time>2026-04-06T13:08:54Z</time></trkpt><trkpt lat="44.80453587900804" lon="9.343227562169682"><ele>1026.75</ele><time>2026-04-06T13:08:55Z</time></trkpt><trkpt lat="44.80442110321407" lon="9.343331951441336"><ele>1026.5</ele><time>2026-04-06T13:08:56Z</time></trkpt><trkpt lat="44.80428523050234" lon="9.343438489180665"><ele>1026.25</ele><time>2026-04-06T13:08:57Z</time></trkpt><trkpt lat="44.804155397294494" lon="9.343554540195022"><ele>1026.0</ele><time>2026-04-06T13:08:58Z</time></trkpt><trkpt lat="44.80403112764597" lon="9.3436526467069"><ele>1021.0</ele><time>2026-04-06T13:08:59Z</time></trkpt><trkpt lat="44.80392201621357" lon="9.34374929971726"><ele>1016.0</ele><time>2026-04-06T13:09:00Z</time></trkpt><trkpt lat="44.803831324529305" lon="9.34384631734159"><ele>1011.0</ele><time>2026-04-06T13:09:01Z</time></trkpt><trkpt lat="44.80376360758111" lon="9.343969537728764"><ele>1006.0</ele><time>2026-04-06T13:09:02Z</time></trkpt><trkpt lat="44.80370922785459" lon="9.344118928032623"><ele>1005.9999999999999</ele><time>2026-04-06T13:09:03Z</time></trkpt><trkpt lat="44.80367321474484" lon="9.344251447459934"><ele>1006.0</ele><time>2026-04-06T13:09:04Z</time></trkpt><trkpt lat="44.803659930098405" lon="9.344368995217607"><ele>1006.0</ele><time>2026-04-06T13:09:05Z</time></trkpt><trkpt lat="44.80367872306206" lon="9.344481798287392"><ele>1006.0</ele><time>2026-04-06T13:09:06Z</time></trkpt><trkpt lat="44.803736231125356" lon="9.344571109643336"><ele>1005.9999999999999</ele><time>2026-04-06T13:09:07Z</time></trkpt><trkpt lat="44.80381425551694" lon="9.344618610453917"><ele>1006.0</ele><time>2026-04-06T13:09:08Z</time></trkpt><trkpt lat="44.803896846491035" lon="9.344660079656355"><ele>1004.4</ele><time>2026-04-06T13:09:09Z</time></trkpt><trkpt lat="44.80399904578545" lon="9.344717235251657"><ele>1002.8</ele><time>2026-04-06T13:09:10Z</time></trkpt><trkpt lat="44.804093588145804" lon="9.344766675002834"><ele>1001.1999999999999</ele><time>2026-04-06T13:09:11Z</time></trkpt><trkpt lat="44.804165592319265" lon="9.344820924940361"><ele>999.5999999999999</ele><time>2026-04-06T13:09:12Z</time></trkpt><trkpt lat="44.804212701392906" lon="9.344925826981408"><ele>998.0</ele><time>2026-04-06T13:09:13Z</time></trkpt><trkpt lat="44.8042225341942" lon="9.345078973368064"><ele>998.0</ele><time>2026-04-06T13:09:14Z</time></trkpt><trkpt lat="44.80421630293399" lon="9.345280257734744"><ele>998.0</ele><time>2026-04-06T13:09:15Z</time></trkpt><trkpt lat="44.80420517156585" lon="9.34549829344327"><ele>998.0</ele><time>2026-04-06T13:09:16Z</time></trkpt><trkpt lat="44.80420101400581" lon="9.34568630500819"><ele>998.0</ele><time>2026-04-06T13:09:17Z</time></trkpt><trkpt lat="44.80421287694493" lon="9.34584799040528"><ele>994.5</ele><time>2026-04-06T13:09:18Z</time></trkpt><trkpt lat="44.804248979405266" lon="9.345990047975489"><ele>991.0</ele><time>2026-04-06T13:09:19Z</time></trkpt><trkpt lat="44.80432374627786" lon="9.346110627276452"><ele>987.5</ele><time>2026-04-06T13:09:20Z</time></trkpt><trkpt lat="44.804425835858964" lon="9.346209880932086"><ele>984.0</ele><time>2026-04-06T13:09:21Z</time></trkpt><trkpt lat="44.80454692829637" lon="9.34631707243747"><ele>984.5</ele><time>2026-04-06T13:09:22Z</time></trkpt><trkpt lat="44.804672605897125" lon="9.346437511314148"><ele>985.0</ele><time>2026-04-06T13:09:23Z</time></trkpt><trkpt lat="44.804789473690725" lon="9.346563932513828"><ele>985.5</ele><time>2026-04-06T13:09:24Z</time></trkpt><trkpt lat="44.80491282250311" lon="9.34667323379676"><ele>986.0</ele><time>2026-04-06T13:09:25Z</time></trkpt><trkpt lat="44.805058521862556" lon="9.34675772368307"><ele>991.0</ele><time>2026-04-06T13:09:26Z</time></trkpt><trkpt lat="44.80522394907949" lon="9.346825705125607"><ele>996.0</ele><time>2026-04-06T13:09:27Z</time></trkpt><trkpt lat="44.805394610270426" lon="9.346884809289365"><ele>1001.0</ele><time>2026-04-06T13:09:27.999Z</time></trkpt><trkpt lat="44.8055723531919" lon="9.346951727029765"><ele>1001.0</ele><time>2026-04-06T13:09:28.999Z</time></trkpt><trkpt lat="44.80573443868546" lon="9.347005933157094"><ele>1001.0</ele><time>2026-04-06T13:09:29.999Z</time></trkpt><trkpt lat="44.805881985989146" lon="9.347069111979891"><ele>1001.0</ele><time>2026-04-06T13:09:30.999Z</time></trkpt><trkpt lat="44.80601742939033" lon="9.347176956571193"><ele>996.6666666666667</ele><time>2026-04-06T13:09:31.999Z</time></trkpt><trkpt lat="44.8061585394681" lon="9.34733155599405"><ele>992.3333333333333</ele><time>2026-04-06T13:09:32.999Z</time></trkpt><trkpt lat="44.806315263090056" lon="9.347505864515098"><ele>988.0</ele><time>2026-04-06T13:09:33.999Z</time></trkpt><trkpt lat="44.806475976300156" lon="9.347677811455737"><ele>988.0</ele><time>2026-04-06T13:09:34.999Z</time></trkpt><trkpt lat="44.8066064537875" lon="9.347819492974107"><ele>988.0</ele><time>2026-04-06T13:09:35.999Z</time></trkpt><trkpt lat="44.80670645326439" lon="9.347947843170784"><ele>988.0</ele><time>2026-04-06T13:09:36.999Z</time></trkpt><trkpt lat="44.80680028358307" lon="9.34806249761393"><ele>988.0</ele><time>2026-04-06T13:09:37.999Z</time></trkpt><trkpt lat="44.80682996318174" lon="9.348187212227511"><ele>992.0</ele><time>2026-04-06T13:09:38.999Z</time></trkpt><trkpt lat="44.806841080253264" lon="9.348337067426403"><ele>996.0</ele><time>2026-04-06T13:09:39.999Z</time></trkpt><trkpt lat="44.806824323264294" lon="9.348521114159436"><ele>1000.0</ele><time>2026-04-06T13:09:40.999Z</time></trkpt><trkpt lat="44.80679977880944" lon="9.348741156596189"><ele>1004.0</ele><time>2026-04-06T13:09:41.999Z</time></trkpt><trkpt lat="44.80677421579401" lon="9.348989656870488"><ele>992.3333333333334</ele><time>2026-04-06T13:09:42.999Z</time></trkpt><trkpt lat="44.80674656074837" lon="9.34924141296405"><ele>980.6666666666667</ele><time>2026-04-06T13:09:43.999Z</time></trkpt><trkpt lat="44.806718878050475" lon="9.349470713540349"><ele>969.0</ele><time>2026-04-06T13:09:44.999Z</time></trkpt><trkpt lat="44.80669386881303" lon="9.349669717413192"><ele>969.0</ele><time>2026-04-06T13:09:45.999Z</time></trkpt><trkpt lat="44.80666898191571" lon="9.34982424832869"><ele>969.0000000000001</ele><time>2026-04-06T13:09:46.999Z</time></trkpt><trkpt lat="44.80663588397831" lon="9.34994910449621"><ele>969.0000000000001</ele><time>2026-04-06T13:09:47.999Z</time></trkpt><trkpt lat="44.8065657811591" lon="9.350053166895368"><ele>969.0</ele><time>2026-04-06T13:09:48.999Z</time></trkpt><trkpt lat="44.80646909221503" lon="9.350118592868062"><ele>969.0</ele><time>2026-04-06T13:09:49.999Z</time></trkpt><trkpt lat="44.806344481659664" lon="9.350170132838374"><ele>969.0</ele><time>2026-04-06T13:09:50.999Z</time></trkpt><trkpt lat="44.80622238437316" lon="9.350219353186407"><ele>969.0000000000001</ele><time>2026-04-06T13:09:51.999Z</time></trkpt><trkpt lat="44.80611732949751" lon="9.350271407675836"><ele>969.0000000000001</ele><time>2026-04-06T13:09:53Z</time></trkpt><trkpt lat="44.806026938972096" lon="9.350338708356864"><ele>969.0</ele><time>2026-04-06T13:09:54Z</time></trkpt><trkpt lat="44.80596383587604" lon="9.350436624268006"><ele>969.0</ele><time>2026-04-06T13:09:55Z</time></trkpt><trkpt lat="44.80592680036634" lon="9.350570425731892"><ele>965.0</ele><time>2026-04-06T13:09:56Z</time></trkpt><trkpt lat="44.80590133412421" lon="9.350741902813478"><ele>961.0</ele><time>2026-04-06T13:09:57Z</time></trkpt><trkpt lat="44.805872861947826" lon="9.350940486511371"><ele>957.0</ele><time>2026-04-06T13:09:58Z</time></trkpt><trkpt lat="44.805846360778006" lon="9.351133729646733"><ele>953.0</ele><time>2026-04-06T13:09:59Z</time></trkpt><trkpt lat="44.805817355946175" lon="9.351311805774804"><ele>954.25</ele><time>2026-04-06T13:10:00Z</time></trkpt><trkpt lat="44.80578574010281" lon="9.351480425246615"><ele>955.5</ele><time>2026-04-06T13:10:01Z</time></trkpt><trkpt lat="44.80575979089975" lon="9.351638075346012"><ele>956.75</ele><time>2026-04-06T13:10:02Z</time></trkpt><trkpt lat="44.80574030375972" lon="9.35179056235611"><ele>958.0</ele><time>2026-04-06T13:10:03Z</time></trkpt><trkpt lat="44.80573004247416" lon="9.351937833444612"><ele>958.0</ele><time>2026-04-06T13:10:04Z</time></trkpt><trkpt lat="44.80575548295428" lon="9.35208426707848"><ele>958.0</ele><time>2026-04-06T13:10:05Z</time></trkpt><trkpt lat="44.80581361892239" lon="9.352233062266984"><ele>958.0</ele><time>2026-04-06T13:10:06Z</time></trkpt><trkpt lat="44.805846581574954" lon="9.352397811067902"><ele>958.0</ele><time>2026-04-06T13:10:07Z</time></trkpt><trkpt lat="44.805894202540834" lon="9.352534989423726"><ele>957.25</ele><time>2026-04-06T13:10:08Z</time></trkpt><trkpt lat="44.80589241904143" lon="9.352693067873059"><ele>956.5</ele><time>2026-04-06T13:10:09Z</time></trkpt><trkpt lat="44.805846989263216" lon="9.352866346755413"><ele>955.75</ele><time>2026-04-06T13:10:10Z</time></trkpt><trkpt lat="44.805782467328065" lon="9.353038737633065"><ele>955.0</ele><time>2026-04-06T13:10:11Z</time></trkpt><trkpt lat="44.80571602156586" lon="9.35322597716523"><ele>953.3333333333333</ele><time>2026-04-06T13:10:12Z</time></trkpt><trkpt lat="44.80564383957939" lon="9.353415426195154"><ele>951.6666666666667</ele><time>2026-04-06T13:10:13Z</time></trkpt><trkpt lat="44.805549601781614" lon="9.353597165059503"><ele>950.0</ele><time>2026-04-06T13:10:14Z</time></trkpt><trkpt lat="44.80542941163298" lon="9.35377544720637"><ele>952.0</ele><time>2026-04-06T13:10:15Z</time></trkpt><trkpt lat="44.80530362967558" lon="9.353957077943829"><ele>954.0</ele><time>2026-04-06T13:10:16Z</time></trkpt><trkpt lat="44.805183332601665" lon="9.354126019631954"><ele>956.0</ele><time>2026-04-06T13:10:17Z</time></trkpt><trkpt lat="44.80505052643308" lon="9.354271256884903"><ele>953.0</ele><time>2026-04-06T13:10:18Z</time></trkpt><trkpt lat="44.80491897505424" lon="9.354392709672615"><ele>950.0</ele><time>2026-04-06T13:10:19Z</time></trkpt><trkpt lat="44.80478676721176" lon="9.354514130750855"><ele>947.0</ele><time>2026-04-06T13:10:20Z</time></trkpt><trkpt lat="44.80467538232932" lon="9.354619819452388"><ele>944.0</ele><time>2026-04-06T13:10:21Z</time></trkpt><trkpt lat="44.80458969492574" lon="9.354708783273965"><ele>944.0</ele><time>2026-04-06T13:10:22Z</time></trkpt><trkpt lat="44.80453886809886" lon="9.354808068819144"><ele>944.0000000000001</ele><time>2026-04-06T13:10:23Z</time></trkpt><trkpt lat="44.80452253424939" lon="9.354929057565002"><ele>944.0000000000001</ele><time>2026-04-06T13:10:24Z</time></trkpt><trkpt lat="44.80453480213386" lon="9.355078481208235"><ele>944.0</ele><time>2026-04-06T13:10:25Z</time></trkpt><trkpt lat="44.8045782020572" lon="9.355252953507255"><ele>944.0</ele><time>2026-04-06T13:10:26Z</time></trkpt><trkpt lat="44.80460314575503" lon="9.355445271593656"><ele>945.5</ele><time>2026-04-06T13:10:27Z</time></trkpt><trkpt lat="44.80460113479478" lon="9.355661075986427"><ele>947.0</ele><time>2026-04-06T13:10:28Z</time></trkpt><trkpt lat="44.804593592341654" lon="9.355881075027419"><ele>948.5</ele><time>2026-04-06T13:10:29Z</time></trkpt><trkpt lat="44.804588900964866" lon="9.356047561127284"><ele>950.0</ele><time>2026-04-06T13:10:30Z</time></trkpt><trkpt lat="44.80455497873961" lon="9.356174416823096"><ele>950.0</ele><time>2026-04-06T13:10:31Z</time></trkpt><trkpt lat="44.804469140357064" lon="9.35626935154389"><ele>950.0</ele><time>2026-04-06T13:10:32Z</time></trkpt><trkpt lat="44.80433932600457" lon="9.35632335829937"><ele>950.0</ele><time>2026-04-06T13:10:33Z</time></trkpt><trkpt lat="44.804213577862605" lon="9.356345961102141"><ele>950.0</ele><time>2026-04-06T13:10:34Z</time></trkpt><trkpt lat="44.80410953893478" lon="9.356389697142589"><ele>944.25</ele><time>2026-04-06T13:10:35Z</time></trkpt><trkpt lat="44.804041546692254" lon="9.356478365407407"><ele>938.5</ele><time>2026-04-06T13:10:36Z</time></trkpt><trkpt lat="44.80400580225358" lon="9.3566238443243"><ele>932.75</ele><time>2026-04-06T13:10:37Z</time></trkpt><trkpt lat="44.80399934132729" lon="9.35679779735807"><ele>927.0</ele><time>2026-04-06T13:10:38Z</time></trkpt><trkpt lat="44.80401080950483" lon="9.356989324546111"><ele>927.0</ele><time>2026-04-06T13:10:39Z</time></trkpt><trkpt lat="44.80401882722393" lon="9.357181717796372"><ele>927.0</ele><time>2026-04-06T13:10:40Z</time></trkpt><trkpt lat="44.80401598068947" lon="9.357359698205917"><ele>927.0</ele><time>2026-04-06T13:10:41Z</time></trkpt><trkpt lat="44.803974585414444" lon="9.35752778026089"><ele>927.0</ele><time>2026-04-06T13:10:42Z</time></trkpt><trkpt lat="44.80389856157483" lon="9.35769611305473"><ele>926.6666666666667</ele><time>2026-04-06T13:10:43Z</time></trkpt><trkpt lat="44.80380337089175" lon="9.357885798507558"><ele>926.3333333333334</ele><time>2026-04-06T13:10:44Z</time></trkpt><trkpt lat="44.80370828509824" lon="9.358081903489769"><ele>926.0</ele><time>2026-04-06T13:10:45Z</time></trkpt><trkpt lat="44.80362358456688" lon="9.358265897952442"><ele>926.4</ele><time>2026-04-06T13:10:46Z</time></trkpt><trkpt lat="44.80355078450428" lon="9.358432151512368"><ele>926.8</ele><time>2026-04-06T13:10:47Z</time></trkpt><trkpt lat="44.80349368291112" lon="9.358569274328861"><ele>927.1999999999999</ele><time>2026-04-06T13:10:48Z</time></trkpt><trkpt lat="44.80345187882163" lon="9.358668949300139"><ele>927.5999999999999</ele><time>2026-04-06T13:10:49Z</time></trkpt><trkpt lat="44.80340267546335" lon="9.358741972364209"><ele>928.0</ele><time>2026-04-06T13:10:50Z</time></trkpt><trkpt lat="44.80333162842591" lon="9.358779837750141"><ele>923.8</ele><time>2026-04-06T13:10:51Z</time></trkpt><trkpt lat="44.80324316250852" lon="9.35878011428091"><ele>919.5999999999999</ele><time>2026-04-06T13:10:52Z</time></trkpt><trkpt lat="44.80314266910928" lon="9.358740009269985"><ele>915.4000000000001</ele><time>2026-04-06T13:10:53Z</time></trkpt><trkpt lat="44.80303649977267" lon="9.358666552531021"><ele>911.2</ele><time>2026-04-06T13:10:54Z</time></trkpt><trkpt lat="44.80293778319846" lon="9.358572897704287"><ele>907.0</ele><time>2026-04-06T13:10:55Z</time></trkpt><trkpt lat="44.80283219536788" lon="9.358528068003398"><ele>907.0</ele><time>2026-04-06T13:10:56Z</time></trkpt><trkpt lat="44.802684496774226" lon="9.358535441038391"><ele>907.0</ele><time>2026-04-06T13:10:57Z</time></trkpt><trkpt lat="44.802513051905734" lon="9.3585644925385"><ele>907.0</ele><time>2026-04-06T13:10:58Z</time></trkpt><trkpt lat="44.80233457647806" lon="9.358587456583797"><ele>902.3333333333333</ele><time>2026-04-06T13:10:59Z</time></trkpt><trkpt lat="44.80216507753162" lon="9.3585961655625"><ele>897.6666666666667</ele><time>2026-04-06T13:11:00Z</time></trkpt><trkpt lat="44.80199823748596" lon="9.358604895333682"><ele>893.0</ele><time>2026-04-06T13:11:01Z</time></trkpt><trkpt lat="44.80184282052692" lon="9.358636126216625"><ele>893.5</ele><time>2026-04-06T13:11:02Z</time></trkpt><trkpt lat="44.80171066324474" lon="9.35868492755824"><ele>894.0</ele><time>2026-04-06T13:11:03Z</time></trkpt><trkpt lat="44.80161352170612" lon="9.35875394884458"><ele>894.5</ele><time>2026-04-06T13:11:04Z</time></trkpt><trkpt lat="44.80152641020568" lon="9.358862765715783"><ele>895.0</ele><time>2026-04-06T13:11:05Z</time></trkpt><trkpt lat="44.80144934886565" lon="9.359012498935103"><ele>895.0</ele><time>2026-04-06T13:11:06Z</time></trkpt><trkpt lat="44.80136897950939" lon="9.3591799238973"><ele>895.0</ele><time>2026-04-06T13:11:07Z</time></trkpt><trkpt lat="44.801301184851155" lon="9.359316979174958"><ele>895.0</ele><time>2026-04-06T13:11:08Z</time></trkpt><trkpt lat="44.801231201197105" lon="9.359386723486885"><ele>895.0</ele><time>2026-04-06T13:11:09Z</time></trkpt><trkpt lat="44.801139427161694" lon="9.359400125012574"><ele>895.0</ele><time>2026-04-06T13:11:10Z</time></trkpt><trkpt lat="44.80103200068354" lon="9.359351802511334"><ele>892.6666666666666</ele><time>2026-04-06T13:11:11Z</time></trkpt><trkpt lat="44.800918203229074" lon="9.359240706415079"><ele>890.3333333333333</ele><time>2026-04-06T13:11:12Z</time></trkpt><trkpt lat="44.80078873385323" lon="9.359086902251397"><ele>888.0</ele><time>2026-04-06T13:11:13Z</time></trkpt><trkpt lat="44.80065076155451" lon="9.358934955148204"><ele>884.0</ele><time>2026-04-06T13:11:14Z</time></trkpt><trkpt lat="44.800535238035195" lon="9.358810132819391"><ele>880.0</ele><time>2026-04-06T13:11:15Z</time></trkpt><trkpt lat="44.8004399566085" lon="9.358725780360523"><ele>876.0</ele><time>2026-04-06T13:11:16Z</time></trkpt><trkpt lat="44.800353032048676" lon="9.358682553236916"><ele>872.0</ele><time>2026-04-06T13:11:17Z</time></trkpt><trkpt lat="44.800262372102736" lon="9.358671966744543"><ele>868.0</ele><time>2026-04-06T13:11:18Z</time></trkpt><trkpt lat="44.800157775525605" lon="9.358718998951247"><ele>870.0</ele><time>2026-04-06T13:11:19Z</time></trkpt><trkpt lat="44.80004720042203" lon="9.35881267857288"><ele>872.0</ele><time>2026-04-06T13:11:20Z</time></trkpt><trkpt lat="44.799942248692645" lon="9.358910486899623"><ele>874.0</ele><time>2026-04-06T13:11:21Z</time></trkpt><trkpt lat="44.79983161598492" lon="9.35894554587955"><ele>876.0</ele><time>2026-04-06T13:11:22Z</time></trkpt><trkpt lat="44.79969876276545" lon="9.358899130175516"><ele>876.0</ele><time>2026-04-06T13:11:23Z</time></trkpt><trkpt lat="44.79956436730713" lon="9.358841900468342"><ele>876.0</ele><time>2026-04-06T13:11:24Z</time></trkpt><trkpt lat="44.79945123352312" lon="9.358830184151659"><ele>876.0</ele><time>2026-04-06T13:11:25Z</time></trkpt><trkpt lat="44.79935828945304" lon="9.358879646647756"><ele>876.0</ele><time>2026-04-06T13:11:26Z</time></trkpt><trkpt lat="44.79927890463451" lon="9.358976577615294"><ele>876.0</ele><time>2026-04-06T13:11:27Z</time></trkpt><trkpt lat="44.799224945650685" lon="9.359108802056706"><ele>875.9999999999999</ele><time>2026-04-06T13:11:28Z</time></trkpt><trkpt lat="44.799208048957794" lon="9.359253113659998"><ele>875.9999999999999</ele><time>2026-04-06T13:11:29Z</time></trkpt><trkpt lat="44.799234753682924" lon="9.359401364320167"><ele>876.0</ele><time>2026-04-06T13:11:30Z</time></trkpt><trkpt lat="44.79929369392193" lon="9.359544727224215"><ele>876.0</ele><time>2026-04-06T13:11:31Z</time></trkpt><trkpt lat="44.7993646848183" lon="9.35966489511235"><ele>876.5</ele><time>2026-04-06T13:11:32Z</time></trkpt><trkpt lat="44.79940841854425" lon="9.359808034632684"><ele>877.0</ele><time>2026-04-06T13:11:33Z</time></trkpt><trkpt lat="44.79940484658637" lon="9.359977542278274"><ele>877.5</ele><time>2026-04-06T13:11:33.999Z</time></trkpt><trkpt lat="44.79936644596238" lon="9.36015425990841"><ele>878.0</ele><time>2026-04-06T13:11:34.999Z</time></trkpt><trkpt lat="44.79930081043655" lon="9.360319525032201"><ele>872.6666666666667</ele><time>2026-04-06T13:11:35.999Z</time></trkpt><trkpt lat="44.7992002523553" lon="9.360464561863322"><ele>867.3333333333333</ele><time>2026-04-06T13:11:36.999Z</time></trkpt><trkpt lat="44.79907995717147" lon="9.360611534654156"><ele>862.0</ele><time>2026-04-06T13:11:37.999Z</time></trkpt><trkpt lat="44.79896614930968" lon="9.360762864919334"><ele>862.0</ele><time>2026-04-06T13:11:38.999Z</time></trkpt><trkpt lat="44.79887819306044" lon="9.360904697823736"><ele>862.0</ele><time>2026-04-06T13:11:39.999Z</time></trkpt><trkpt lat="44.798809653492135" lon="9.3610279570635"><ele>862.0</ele><time>2026-04-06T13:11:40.999Z</time></trkpt><trkpt lat="44.7987688173021" lon="9.361158932126681"><ele>862.0</ele><time>2026-04-06T13:11:41.999Z</time></trkpt><trkpt lat="44.79876095179738" lon="9.361317682098669"><ele>861.75</ele><time>2026-04-06T13:11:42.999Z</time></trkpt><trkpt lat="44.79878867887961" lon="9.361471282960785"><ele>861.5</ele><time>2026-04-06T13:11:43.999Z</time></trkpt><trkpt lat="44.798823441419046" lon="9.361642700367856"><ele>861.25</ele><time>2026-04-06T13:11:44.999Z</time></trkpt><trkpt lat="44.79882457514805" lon="9.361840495152752"><ele>861.0</ele><time>2026-04-06T13:11:46Z</time></trkpt><trkpt lat="44.798805323742606" lon="9.362016425874504"><ele>861.0</ele><time>2026-04-06T13:11:47Z</time></trkpt><trkpt lat="44.798786549563204" lon="9.362146936502116"><ele>860.9999999999999</ele><time>2026-04-06T13:11:48Z</time></trkpt><trkpt lat="44.79873465176519" lon="9.36224489850512"><ele>860.9999999999999</ele><time>2026-04-06T13:11:49Z</time></trkpt><trkpt lat="44.79863744283816" lon="9.362302110249168"><ele>861.0</ele><time>2026-04-06T13:11:50Z</time></trkpt><trkpt lat="44.79849841575903" lon="9.362329383039691"><ele>861.0</ele><time>2026-04-06T13:11:51Z</time></trkpt><trkpt lat="44.79834555566112" lon="9.362338602635912"><ele>855.5</ele><time>2026-04-06T13:11:52Z</time></trkpt><trkpt lat="44.79822083823743" lon="9.362367339039615"><ele>850.0</ele><time>2026-04-06T13:11:53Z</time></trkpt><trkpt lat="44.79811489167629" lon="9.362438607076822"><ele>844.5</ele><time>2026-04-06T13:11:54Z</time></trkpt><trkpt lat="44.79803214174762" lon="9.362559221291704"><ele>839.0</ele><time>2026-04-06T13:11:55Z</time></trkpt><trkpt lat="44.79796505645573" lon="9.3626972963966"><ele>839.0</ele><time>2026-04-06T13:11:56Z</time></trkpt><trkpt lat="44.79790693371602" lon="9.362838760764111"><ele>839.0</ele><time>2026-04-06T13:11:57Z</time></trkpt><trkpt lat="44.79784488291751" lon="9.362970784463782"><ele>839.0</ele><time>2026-04-06T13:11:58Z</time></trkpt><trkpt lat="44.79777938459435" lon="9.363095804171447"><ele>839.0</ele><time>2026-04-06T13:11:59Z</time></trkpt><trkpt lat="44.797712681706635" lon="9.363217034293521"><ele>839.0</ele><time>2026-04-06T13:12:00Z</time></trkpt><trkpt lat="44.797650775730894" lon="9.363335858276946"><ele>836.8000000000001</ele><time>2026-04-06T13:12:01Z</time></trkpt><trkpt lat="44.79758615700568" lon="9.363456600632958"><ele>834.6</ele><time>2026-04-06T13:12:02Z</time></trkpt><trkpt lat="44.79752372765313" lon="9.363579885561817"><ele>832.4</ele><time>2026-04-06T13:12:03Z</time></trkpt><trkpt lat="44.79745525140911" lon="9.363696426823058"><ele>830.2</ele><time>2026-04-06T13:12:04Z</time></trkpt><trkpt lat="44.79739240448994" lon="9.363811031675299"><ele>828.0</ele><time>2026-04-06T13:12:05Z</time></trkpt><trkpt lat="44.797335985669996" lon="9.363919510218942"><ele>828.0</ele><time>2026-04-06T13:12:06Z</time></trkpt><trkpt lat="44.79729173572724" lon="9.364007431381054"><ele>828.0</ele><time>2026-04-06T13:12:07Z</time></trkpt><trkpt lat="44.79722043133147" lon="9.364104933108038"><ele>828.0</ele><time>2026-04-06T13:12:09Z</time></trkpt><trkpt lat="44.79716141641943" lon="9.364145304233938"><ele>828.0</ele><time>2026-04-06T13:12:11Z</time></trkpt><trkpt lat="44.79712194866433" lon="9.364282493760964"><ele>828.0</ele><time>2026-04-06T13:12:58Z</time></trkpt><trkpt lat="44.7970586110616" lon="9.364360041135026"><ele>828.0</ele><time>2026-04-06T13:12:59Z</time></trkpt><trkpt lat="44.797008946787166" lon="9.364473502809659"><ele>828.0</ele><time>2026-04-06T13:13:00Z</time></trkpt><trkpt lat="44.796958909830884" lon="9.364629582404689"><ele>828.0</ele><time>2026-04-06T13:13:01Z</time></trkpt><trkpt lat="44.79691688557518" lon="9.36480102108485"><ele>828.0</ele><time>2026-04-06T13:13:02Z</time></trkpt><trkpt lat="44.79688137092035" lon="9.364993262098542"><ele>828.0</ele><time>2026-04-06T13:13:03Z</time></trkpt><trkpt lat="44.796848537994315" lon="9.365203569664017"><ele>819.0</ele><time>2026-04-06T13:13:04Z</time></trkpt><trkpt lat="44.79682016121974" lon="9.365428945209773"><ele>810.0</ele><time>2026-04-06T13:13:05Z</time></trkpt><trkpt lat="44.79679411745748" lon="9.365643577921483"><ele>801.0</ele><time>2026-04-06T13:13:06Z</time></trkpt><trkpt lat="44.796760062051625" lon="9.365849527072132"><ele>801.0</ele><time>2026-04-06T13:13:07Z</time></trkpt><trkpt lat="44.79668850126252" lon="9.366036348798358"><ele>801.0</ele><time>2026-04-06T13:13:08Z</time></trkpt><trkpt lat="44.79660256119916" lon="9.366211288421928"><ele>801.0</ele><time>2026-04-06T13:13:09Z</time></trkpt><trkpt lat="44.79650023014427" lon="9.36636879596246"><ele>801.0</ele><time>2026-04-06T13:13:10Z</time></trkpt><trkpt lat="44.796385865634896" lon="9.36652085058105"><ele>801.0</ele><time>2026-04-06T13:13:11Z</time></trkpt><trkpt lat="44.79626559777648" lon="9.366675425907529"><ele>801.0</ele><time>2026-04-06T13:13:12Z</time></trkpt><trkpt lat="44.796138043271434" lon="9.36683178542582"><ele>801.0</ele><time>2026-04-06T13:13:13Z</time></trkpt><trkpt lat="44.79600556772131" lon="9.366991440687512"><ele>801.0</ele><time>2026-04-06T13:13:14Z</time></trkpt><trkpt lat="44.795872561709636" lon="9.367152418642103"><ele>801.0</ele><time>2026-04-06T13:13:15Z</time></trkpt><trkpt lat="44.79574159859395" lon="9.367305688532664"><ele>797.6666666666667</ele><time>2026-04-06T13:13:16Z</time></trkpt><trkpt lat="44.795617749390594" lon="9.367451820057912"><ele>794.3333333333334</ele><time>2026-04-06T13:13:17Z</time></trkpt><trkpt lat="44.7955054902038" lon="9.367601985286468"><ele>791.0</ele><time>2026-04-06T13:13:18Z</time></trkpt><trkpt lat="44.795408359966295" lon="9.367769394304217"><ele>791.0</ele><time>2026-04-06T13:13:19Z</time></trkpt><trkpt lat="44.79533164872226" lon="9.367952467564328"><ele>791.0</ele><time>2026-04-06T13:13:20Z</time></trkpt><trkpt lat="44.795285484128016" lon="9.368147398231917"><ele>791.0</ele><time>2026-04-06T13:13:21Z</time></trkpt><trkpt lat="44.79524760182314" lon="9.36834513974354"><ele>791.0</ele><time>2026-04-06T13:13:22Z</time></trkpt><trkpt lat="44.79526948503154" lon="9.368545493953585"><ele>791.25</ele><time>2026-04-06T13:13:23Z</time></trkpt><trkpt lat="44.7953027942588" lon="9.368739788155231"><ele>791.5</ele><time>2026-04-06T13:13:24Z</time></trkpt><trkpt lat="44.79535976747341" lon="9.36893179038291"><ele>791.75</ele><time>2026-04-06T13:13:25Z</time></trkpt><trkpt lat="44.79542734975882" lon="9.3691189099917"><ele>792.0</ele><time>2026-04-06T13:13:26Z</time></trkpt><trkpt lat="44.79546978729595" lon="9.369293708386575"><ele>793.6</ele><time>2026-04-06T13:13:27Z</time></trkpt><trkpt lat="44.795476633942975" lon="9.36948244414859"><ele>795.2</ele><time>2026-04-06T13:13:28Z</time></trkpt><trkpt lat="44.79546173191663" lon="9.369587342810597"><ele>796.8</ele><time>2026-04-06T13:13:29Z</time></trkpt><trkpt lat="44.795390857481046" lon="9.369701429663715"><ele>798.4</ele><time>2026-04-06T13:13:30Z</time></trkpt><trkpt lat="44.79529244034826" lon="9.36976535204124"><ele>800.0</ele><time>2026-04-06T13:13:31Z</time></trkpt><trkpt lat="44.795156748283205" lon="9.369740037924265"><ele>791.3333333333334</ele><time>2026-04-06T13:13:32Z</time></trkpt><trkpt lat="44.79502086164553" lon="9.369814846554213"><ele>782.6666666666667</ele><time>2026-04-06T13:13:33Z</time></trkpt><trkpt lat="44.79486272412767" lon="9.369900444026444"><ele>774.0</ele><time>2026-04-06T13:13:34Z</time></trkpt><trkpt lat="44.7946871440551" lon="9.369997550263006"><ele>774.0</ele><time>2026-04-06T13:13:35Z</time></trkpt><trkpt lat="44.79449814283195" lon="9.370102831970575"><ele>774.0</ele><time>2026-04-06T13:13:36Z</time></trkpt><trkpt lat="44.79430295718512" lon="9.37021053685777"><ele>774.0</ele><time>2026-04-06T13:13:37Z</time></trkpt><trkpt lat="44.79412115853311" lon="9.370310738349536"><ele>772.0</ele><time>2026-04-06T13:13:38Z</time></trkpt><trkpt lat="44.79396496503275" lon="9.370397357180735"><ele>770.0</ele><time>2026-04-06T13:13:39Z</time></trkpt><trkpt lat="44.793842073767735" lon="9.370488417194599"><ele>768.0</ele><time>2026-04-06T13:13:39.999Z</time></trkpt><trkpt lat="44.793724493509515" lon="9.370528389036915"><ele>766.0</ele><time>2026-04-06T13:13:40.999Z</time></trkpt><trkpt lat="44.79362929999429" lon="9.370570528388788"><ele>764.0</ele><time>2026-04-06T13:13:41.999Z</time></trkpt><trkpt lat="44.793544898463864" lon="9.37059303638649"><ele>762.0</ele><time>2026-04-06T13:13:42.999Z</time></trkpt><trkpt lat="44.793471586982065" lon="9.370563573395206"><ele>760.0</ele><time>2026-04-06T13:13:43.999Z</time></trkpt><trkpt lat="44.79341508318812" lon="9.370485759628178"><ele>758.0</ele><time>2026-04-06T13:13:44.999Z</time></trkpt><trkpt lat="44.79341781801762" lon="9.370368604370311"><ele>756.0</ele><time>2026-04-06T13:13:45.999Z</time></trkpt><trkpt lat="44.79343920912241" lon="9.37025487634896"><ele>754.0</ele><time>2026-04-06T13:13:46.999Z</time></trkpt><trkpt lat="44.79344488532095" lon="9.370122477729824"><ele>753.5</ele><time>2026-04-06T13:13:47.999Z</time></trkpt><trkpt lat="44.793475830041054" lon="9.369957146894546"><ele>753.0</ele><time>2026-04-06T13:13:48.999Z</time></trkpt><trkpt lat="44.79350004450042" lon="9.36976016061341"><ele>752.5</ele><time>2026-04-06T13:13:49.999Z</time></trkpt><trkpt lat="44.793505874185485" lon="9.369539390454769"><ele>752.0</ele><time>2026-04-06T13:13:50.999Z</time></trkpt><trkpt lat="44.79349304409146" lon="9.369278988887357"><ele>751.3333333333333</ele><time>2026-04-06T13:13:51.999Z</time></trkpt><trkpt lat="44.79346552813502" lon="9.369052684825226"><ele>750.6666666666666</ele><time>2026-04-06T13:13:52.999Z</time></trkpt><trkpt lat="44.79344979710915" lon="9.36883978260639"><ele>750.0</ele><time>2026-04-06T13:13:53.999Z</time></trkpt><trkpt lat="44.793455507285714" lon="9.368633210783182"><ele>749.0</ele><time>2026-04-06T13:13:54.999Z</time></trkpt><trkpt lat="44.7934753256126" lon="9.36840792925248"><ele>748.0</ele><time>2026-04-06T13:13:56Z</time></trkpt><trkpt lat="44.793502390701796" lon="9.368161945203136"><ele>747.0</ele><time>2026-04-06T13:13:57Z</time></trkpt><trkpt lat="44.79352224531783" lon="9.367916288842796"><ele>751.3333333333334</ele><time>2026-04-06T13:13:58Z</time></trkpt><trkpt lat="44.79354170264695" lon="9.367673931414581"><ele>755.6666666666667</ele><time>2026-04-06T13:13:59Z</time></trkpt><trkpt lat="44.793555373376684" lon="9.36745113470388"><ele>760.0</ele><time>2026-04-06T13:14:00Z</time></trkpt><trkpt lat="44.79358392234467" lon="9.367238760509201"><ele>758.3333333333334</ele><time>2026-04-06T13:14:01Z</time></trkpt><trkpt lat="44.79363494700356" lon="9.36702554672066"><ele>756.6666666666666</ele><time>2026-04-06T13:14:02Z</time></trkpt><trkpt lat="44.79368950470997" lon="9.366797938574615"><ele>755.0</ele><time>2026-04-06T13:14:03Z</time></trkpt><trkpt lat="44.793728081739154" lon="9.366564686866772"><ele>753.5</ele><time>2026-04-06T13:14:04Z</time></trkpt><trkpt lat="44.79375320756874" lon="9.3663588549957"><ele>752.0</ele><time>2026-04-06T13:14:05Z</time></trkpt><trkpt lat="44.79377718505176" lon="9.36617980172039"><ele>750.5</ele><time>2026-04-06T13:14:06Z</time></trkpt><trkpt lat="44.79383850737103" lon="9.366014261106594"><ele>749.0</ele><time>2026-04-06T13:14:07Z</time></trkpt><trkpt lat="44.79392109087557" lon="9.36584635337087"><ele>749.0</ele><time>2026-04-06T13:14:08Z</time></trkpt><trkpt lat="44.794005241413636" lon="9.365660702157342"><ele>749.0</ele><time>2026-04-06T13:14:09Z</time></trkpt><trkpt lat="44.794079543798325" lon="9.365469842937229"><ele>749.0</ele><time>2026-04-06T13:14:10Z</time></trkpt><trkpt lat="44.79413897356698" lon="9.365269893642365"><ele>744.3333333333333</ele><time>2026-04-06T13:14:11Z</time></trkpt><trkpt lat="44.7941791435849" lon="9.36506007758713"><ele>739.6666666666666</ele><time>2026-04-06T13:14:12Z</time></trkpt><trkpt lat="44.79419850832954" lon="9.364860412835688"><ele>735.0</ele><time>2026-04-06T13:14:13Z</time></trkpt><trkpt lat="44.79420239469991" lon="9.364639826905703"><ele>733.0</ele><time>2026-04-06T13:14:14Z</time></trkpt><trkpt lat="44.7941922005736" lon="9.36440853651147"><ele>731.0</ele><time>2026-04-06T13:14:15Z</time></trkpt><trkpt lat="44.79416650729484" lon="9.364162535034133"><ele>729.0</ele><time>2026-04-06T13:14:16Z</time></trkpt><trkpt lat="44.79412534952619" lon="9.363906921107448"><ele>729.3333333333334</ele><time>2026-04-06T13:14:17Z</time></trkpt><trkpt lat="44.79407324914818" lon="9.363641766542978"><ele>729.6666666666667</ele><time>2026-04-06T13:14:18Z</time></trkpt><trkpt lat="44.79401431617397" lon="9.363369474585761"><ele>730.0</ele><time>2026-04-06T13:14:19Z</time></trkpt><trkpt lat="44.793957460134905" lon="9.363100677128832"><ele>730.6666666666667</ele><time>2026-04-06T13:14:20Z</time></trkpt><trkpt lat="44.79390311522293" lon="9.36283261115793"><ele>731.3333333333334</ele><time>2026-04-06T13:14:21Z</time></trkpt><trkpt lat="44.7938496987766" lon="9.362566058487737"><ele>732.0</ele><time>2026-04-06T13:14:22Z</time></trkpt><trkpt lat="44.79378791825762" lon="9.362288210561875"><ele>732.3333333333334</ele><time>2026-04-06T13:14:23Z</time></trkpt><trkpt lat="44.79372745162002" lon="9.36202333469085"><ele>732.6666666666667</ele><time>2026-04-06T13:14:24Z</time></trkpt><trkpt lat="44.793668922024416" lon="9.361779858645862"><ele>733.0</ele><time>2026-04-06T13:14:25Z</time></trkpt><trkpt lat="44.79361460019412" lon="9.361549606679334"><ele>733.5</ele><time>2026-04-06T13:14:26Z</time></trkpt><trkpt lat="44.7935704765377" lon="9.361342872232573"><ele>734.0</ele><time>2026-04-06T13:14:27Z</time></trkpt><trkpt lat="44.79354137455191" lon="9.361148340434358"><ele>734.5</ele><time>2026-04-06T13:14:28Z</time></trkpt><trkpt lat="44.793513188507134" lon="9.360982727894806"><ele>735.0</ele><time>2026-04-06T13:14:29Z</time></trkpt><trkpt lat="44.79347859515405" lon="9.360842423829396"><ele>732.4</ele><time>2026-04-06T13:14:30Z</time></trkpt><trkpt lat="44.79342037161474" lon="9.360726386268903"><ele>729.8</ele><time>2026-04-06T13:14:31Z</time></trkpt><trkpt lat="44.793330864121074" lon="9.36064971204269"><ele>727.2</ele><time>2026-04-06T13:14:32Z</time></trkpt><trkpt lat="44.79322244610027" lon="9.360621447610843"><ele>724.6</ele><time>2026-04-06T13:14:33Z</time></trkpt><trkpt lat="44.79310774903544" lon="9.360636237565606"><ele>722.0</ele><time>2026-04-06T13:14:34Z</time></trkpt><trkpt lat="44.79299299200685" lon="9.360698182546077"><ele>722.0</ele><time>2026-04-06T13:14:35Z</time></trkpt><trkpt lat="44.792889652964675" lon="9.360813306166273"><ele>722.0</ele><time>2026-04-06T13:14:36Z</time></trkpt><trkpt lat="44.79276969720631" lon="9.360956916731336"><ele>722.0</ele><time>2026-04-06T13:14:37Z</time></trkpt><trkpt lat="44.79265047917811" lon="9.361135300618137"><ele>720.5</ele><time>2026-04-06T13:14:38Z</time></trkpt><trkpt lat="44.792543587382575" lon="9.361305027651278"><ele>719.0</ele><time>2026-04-06T13:14:39Z</time></trkpt><trkpt lat="44.792444296383" lon="9.36145186667468"><ele>717.5</ele><time>2026-04-06T13:14:40Z</time></trkpt><trkpt lat="44.792342223398244" lon="9.361572394084687"><ele>716.0</ele><time>2026-04-06T13:14:41Z</time></trkpt><trkpt lat="44.792231155939085" lon="9.361661626205597"><ele>715.25</ele><time>2026-04-06T13:14:42Z</time></trkpt><trkpt lat="44.792105263385004" lon="9.361716877169863"><ele>714.5</ele><time>2026-04-06T13:14:43Z</time></trkpt><trkpt lat="44.79199079650449" lon="9.361705270714221"><ele>713.75</ele><time>2026-04-06T13:14:44Z</time></trkpt><trkpt lat="44.79188487620942" lon="9.361648563333533"><ele>713.0</ele><time>2026-04-06T13:14:45Z</time></trkpt><trkpt lat="44.791760544252746" lon="9.361562210144664"><ele>711.6666666666666</ele><time>2026-04-06T13:14:46Z</time></trkpt><trkpt lat="44.79164838816081" lon="9.361404966075087"><ele>710.3333333333334</ele><time>2026-04-06T13:14:47Z</time></trkpt><trkpt lat="44.79153522151314" lon="9.361215381751961"><ele>709.0</ele><time>2026-04-06T13:14:48Z</time></trkpt><trkpt lat="44.79141114079906" lon="9.361003033549833"><ele>709.0</ele><time>2026-04-06T13:14:49Z</time></trkpt><trkpt lat="44.79129418254337" lon="9.36081020666601"><ele>709.0</ele><time>2026-04-06T13:14:50Z</time></trkpt><trkpt lat="44.79118769380183" lon="9.36063292652074"><ele>709.0</ele><time>2026-04-06T13:14:51Z</time></trkpt><trkpt lat="44.791097213528786" lon="9.360444958498405"><ele>710.0</ele><time>2026-04-06T13:14:52Z</time></trkpt><trkpt lat="44.79104732499957" lon="9.360241487789292"><ele>711.0</ele><time>2026-04-06T13:14:53Z</time></trkpt><trkpt lat="44.79100055886101" lon="9.3600424759659"><ele>712.0</ele><time>2026-04-06T13:14:54Z</time></trkpt><trkpt lat="44.790916623669645" lon="9.359858208089575"><ele>708.0</ele><time>2026-04-06T13:14:55Z</time></trkpt><trkpt lat="44.79079998934119" lon="9.35967710355342"><ele>704.0</ele><time>2026-04-06T13:14:56Z</time></trkpt><trkpt lat="44.79065914253593" lon="9.359494842183116"><ele>700.0</ele><time>2026-04-06T13:14:57Z</time></trkpt><trkpt lat="44.790500533109885" lon="9.359299332811567"><ele>700.0</ele><time>2026-04-06T13:14:58Z</time></trkpt><trkpt lat="44.790348201580265" lon="9.359107455123826"><ele>700.0</ele><time>2026-04-06T13:14:59Z</time></trkpt><trkpt lat="44.790213195417024" lon="9.35892771363006"><ele>700.0</ele><time>2026-04-06T13:15:00Z</time></trkpt><trkpt lat="44.790091047780415" lon="9.358757267066585"><ele>697.25</ele><time>2026-04-06T13:15:01Z</time></trkpt><trkpt lat="44.78998270298258" lon="9.358622225601469"><ele>694.5</ele><time>2026-04-06T13:15:02Z</time></trkpt><trkpt lat="44.789869198557014" lon="9.358507518036797"><ele>691.75</ele><time>2026-04-06T13:15:03Z</time></trkpt><trkpt lat="44.78974143660754" lon="9.358421556539724"><ele>689.0</ele><time>2026-04-06T13:15:04Z</time></trkpt><trkpt lat="44.78960679936711" lon="9.35836579073976"><ele>689.0</ele><time>2026-04-06T13:15:05Z</time></trkpt><trkpt lat="44.789464346639605" lon="9.358339835974432"><ele>689.0</ele><time>2026-04-06T13:15:06Z</time></trkpt><trkpt lat="44.78931801212533" lon="9.358341667513908"><ele>689.0</ele><time>2026-04-06T13:15:07Z</time></trkpt><trkpt lat="44.78916611243742" lon="9.358391446302768"><ele>689.0</ele><time>2026-04-06T13:15:08Z</time></trkpt><trkpt lat="44.78899305981091" lon="9.358477159088608"><ele>685.3333333333333</ele><time>2026-04-06T13:15:09Z</time></trkpt><trkpt lat="44.78880017900705" lon="9.358541937980876"><ele>681.6666666666666</ele><time>2026-04-06T13:15:10Z</time></trkpt><trkpt lat="44.78864094081901" lon="9.35864056011606"><ele>678.0</ele><time>2026-04-06T13:15:11Z</time></trkpt><trkpt lat="44.788500159660636" lon="9.358676687269869"><ele>676.5999999999999</ele><time>2026-04-06T13:15:12Z</time></trkpt><trkpt lat="44.78839517016522" lon="9.35870930901297"><ele>675.1999999999999</ele><time>2026-04-06T13:15:13Z</time></trkpt><trkpt lat="44.78829931289392" lon="9.358700423063816"><ele>673.8</ele><time>2026-04-06T13:15:14Z</time></trkpt><trkpt lat="44.7882056933111" lon="9.358634143110917"><ele>672.4</ele><time>2026-04-06T13:15:15Z</time></trkpt><trkpt lat="44.78811999981988" lon="9.358487021829887"><ele>671.0</ele><time>2026-04-06T13:15:16Z</time></trkpt><trkpt lat="44.78801404096513" lon="9.358307585612316"><ele>671.0</ele><time>2026-04-06T13:15:17Z</time></trkpt><trkpt lat="44.78789226909781" lon="9.358137071467263"><ele>671.0</ele><time>2026-04-06T13:15:18Z</time></trkpt><trkpt lat="44.787792174315726" lon="9.357995023359788"><ele>671.0</ele><time>2026-04-06T13:15:19Z</time></trkpt><trkpt lat="44.78771460404012" lon="9.35784178689743"><ele>671.0</ele><time>2026-04-06T13:15:20Z</time></trkpt><trkpt lat="44.78766926808746" lon="9.357659567620125"><ele>666.0</ele><time>2026-04-06T13:15:21Z</time></trkpt><trkpt lat="44.787653431133315" lon="9.35743801631197"><ele>661.0</ele><time>2026-04-06T13:15:22Z</time></trkpt><trkpt lat="44.787653350119534" lon="9.357167182426748"><ele>656.0</ele><time>2026-04-06T13:15:23Z</time></trkpt><trkpt lat="44.787647461636055" lon="9.35686517564851"><ele>655.0</ele><time>2026-04-06T13:15:24Z</time></trkpt><trkpt lat="44.78763205406655" lon="9.356593086318927"><ele>654.0</ele><time>2026-04-06T13:15:25Z</time></trkpt><trkpt lat="44.7876130148895" lon="9.356358665898195"><ele>653.0</ele><time>2026-04-06T13:15:26Z</time></trkpt><trkpt lat="44.7875906196514" lon="9.356132487753879"><ele>653.0</ele><time>2026-04-06T13:15:27Z</time></trkpt><trkpt lat="44.78756990968128" lon="9.355924088214724"><ele>653.0</ele><time>2026-04-06T13:15:28Z</time></trkpt><trkpt lat="44.78754770538905" lon="9.355733885447703"><ele>653.0</ele><time>2026-04-06T13:15:29Z</time></trkpt><trkpt lat="44.78752734376082" lon="9.355573898130867"><ele>653.0</ele><time>2026-04-06T13:15:30Z</time></trkpt><trkpt lat="44.7874860339972" lon="9.355451887454327"><ele>653.5</ele><time>2026-04-06T13:15:31Z</time></trkpt><trkpt lat="44.78740825160307" lon="9.355357168168824"><ele>654.0</ele><time>2026-04-06T13:15:32Z</time></trkpt><trkpt lat="44.78730551225163" lon="9.35530516136558"><ele>654.5</ele><time>2026-04-06T13:15:33Z</time></trkpt><trkpt lat="44.78719373938368" lon="9.355315504391918"><ele>655.0</ele><time>2026-04-06T13:15:34Z</time></trkpt><trkpt lat="44.787074211262535" lon="9.355375514232469"><ele>655.0</ele><time>2026-04-06T13:15:35Z</time></trkpt><trkpt lat="44.786935369917494" lon="9.355470659505293"><ele>655.0</ele><time>2026-04-06T13:15:36Z</time></trkpt><trkpt lat="44.78676111204291" lon="9.355541745321421"><ele>655.0</ele><time>2026-04-06T13:15:37Z</time></trkpt><trkpt lat="44.78657216647182" lon="9.355640354273675"><ele>650.0</ele><time>2026-04-06T13:15:38Z</time></trkpt><trkpt lat="44.78639460677546" lon="9.355757761925359"><ele>645.0</ele><time>2026-04-06T13:15:39Z</time></trkpt><trkpt lat="44.78622078511139" lon="9.35583467806093"><ele>640.0</ele><time>2026-04-06T13:15:40Z</time></trkpt><trkpt lat="44.786054227377974" lon="9.355908328348239"><ele>638.0</ele><time>2026-04-06T13:15:41Z</time></trkpt><trkpt lat="44.785902057548434" lon="9.356002508405252"><ele>636.0</ele><time>2026-04-06T13:15:42Z</time></trkpt><trkpt lat="44.78577297415415" lon="9.356154469198385"><ele>634.0</ele><time>2026-04-06T13:15:43Z</time></trkpt><trkpt lat="44.78568702040405" lon="9.356345477158435"><ele>633.0</ele><time>2026-04-06T13:15:44Z</time></trkpt><trkpt lat="44.78560499795696" lon="9.356518111792273"><ele>632.0</ele><time>2026-04-06T13:15:45Z</time></trkpt><trkpt lat="44.785500124560684" lon="9.356647528629287"><ele>631.0</ele><time>2026-04-06T13:15:45.999Z</time></trkpt><trkpt lat="44.785394980657806" lon="9.356757704694491"><ele>630.0</ele><time>2026-04-06T13:15:46.999Z</time></trkpt><trkpt lat="44.785272118800115" lon="9.356851314178122"><ele>628.25</ele><time>2026-04-06T13:15:47.999Z</time></trkpt><trkpt lat="44.78514599731799" lon="9.35693635437473"><ele>626.5</ele><time>2026-04-06T13:15:48.999Z</time></trkpt><trkpt lat="44.78502957055091" lon="9.357013267853311"><ele>624.75</ele><time>2026-04-06T13:15:49.999Z</time></trkpt><trkpt lat="44.784934124436674" lon="9.357070222701648"><ele>623.0</ele><time>2026-04-06T13:15:50.999Z</time></trkpt><trkpt lat="44.78485499043238" lon="9.357102113055717"><ele>623.0</ele><time>2026-04-06T13:15:51.999Z</time></trkpt><trkpt lat="44.784772644218094" lon="9.357041578237318"><ele>623.0</ele><time>2026-04-06T13:15:52.999Z</time></trkpt><trkpt lat="44.78469704993312" lon="9.356902331735096"><ele>623.0</ele><time>2026-04-06T13:15:53.999Z</time></trkpt><trkpt lat="44.78461344089786" lon="9.356739638089097"><ele>623.0</ele><time>2026-04-06T13:15:54.999Z</time></trkpt><trkpt lat="44.78451849631608" lon="9.356591212055486"><ele>623.0</ele><time>2026-04-06T13:15:55.999Z</time></trkpt><trkpt lat="44.784409677600856" lon="9.356489874780188"><ele>623.0</ele><time>2026-04-06T13:15:56.999Z</time></trkpt><trkpt lat="44.78428425743032" lon="9.35643457119058"><ele>623.0</ele><time>2026-04-06T13:15:57.999Z</time></trkpt><trkpt lat="44.784141891503715" lon="9.356422085096842"><ele>623.0</ele><time>2026-04-06T13:15:58.999Z</time></trkpt><trkpt lat="44.78397511352719" lon="9.356445420841268"><ele>621.6666666666666</ele><time>2026-04-06T13:15:59.999Z</time></trkpt><trkpt lat="44.78378903336336" lon="9.356481185679959"><ele>620.3333333333334</ele><time>2026-04-06T13:16:00.999Z</time></trkpt><trkpt lat="44.78361714313633" lon="9.356484640529445"><ele>619.0</ele><time>2026-04-06T13:16:01.999Z</time></trkpt><trkpt lat="44.78347623706476" lon="9.356514294190552"><ele>617.5</ele><time>2026-04-06T13:16:02.999Z</time></trkpt><trkpt lat="44.783336733262814" lon="9.356476466453815"><ele>616.0</ele><time>2026-04-06T13:16:03.999Z</time></trkpt><trkpt lat="44.78321233717691" lon="9.356393438712383"><ele>614.5</ele><time>2026-04-06T13:16:04.999Z</time></trkpt><trkpt lat="44.783109263251426" lon="9.356311343178268"><ele>613.0</ele><time>2026-04-06T13:16:05.999Z</time></trkpt><trkpt lat="44.78299979421712" lon="9.356262827391111"><ele>613.0</ele><time>2026-04-06T13:16:06.999Z</time></trkpt><trkpt lat="44.782894502904185" lon="9.35625955611324"><ele>613.0</ele><time>2026-04-06T13:16:07.999Z</time></trkpt><trkpt lat="44.78279067537894" lon="9.356287052752016"><ele>613.0</ele><time>2026-04-06T13:16:08.999Z</time></trkpt><trkpt lat="44.78270691024357" lon="9.356372207252505"><ele>613.0</ele><time>2026-04-06T13:16:09.999Z</time></trkpt><trkpt lat="44.78265617296984" lon="9.3564911178214"><ele>613.0</ele><time>2026-04-06T13:16:10.999Z</time></trkpt><trkpt lat="44.78266248639252" lon="9.35664302896043"><ele>613.0</ele><time>2026-04-06T13:16:11.999Z</time></trkpt><trkpt lat="44.78272993014757" lon="9.356769133181984"><ele>613.0</ele><time>2026-04-06T13:16:12.999Z</time></trkpt><trkpt lat="44.782797139069004" lon="9.356900904099174"><ele>613.0</ele><time>2026-04-06T13:16:14Z</time></trkpt><trkpt lat="44.782855676783704" lon="9.357071183331268"><ele>613.0</ele><time>2026-04-06T13:16:15Z</time></trkpt><trkpt lat="44.782926208936" lon="9.357219897945813"><ele>611.6</ele><time>2026-04-06T13:16:16Z</time></trkpt><trkpt lat="44.782994769239515" lon="9.357360618960158"><ele>610.1999999999999</ele><time>2026-04-06T13:16:17Z</time></trkpt><trkpt lat="44.78305906187473" lon="9.35749516139234"><ele>608.8</ele><time>2026-04-06T13:16:18Z</time></trkpt><trkpt lat="44.783104876866155" lon="9.357617185024978"><ele>607.4</ele><time>2026-04-06T13:16:19Z</time></trkpt><trkpt lat="44.78310842105604" lon="9.357725824916034"><ele>606.0</ele><time>2026-04-06T13:16:20Z</time></trkpt><trkpt lat="44.78307299985387" lon="9.357826750278393"><ele>606.0</ele><time>2026-04-06T13:16:21Z</time></trkpt><trkpt lat="44.782990920670876" lon="9.357926284402648"><ele>606.0</ele><time>2026-04-06T13:16:22Z</time></trkpt><trkpt lat="44.78289319795036" lon="9.35803617043857"><ele>606.0</ele><time>2026-04-06T13:16:23Z</time></trkpt><trkpt lat="44.7827800720767" lon="9.35816487872717"><ele>606.0</ele><time>2026-04-06T13:16:24Z</time></trkpt><trkpt lat="44.782672647334984" lon="9.358289285836147"><ele>602.6</ele><time>2026-04-06T13:16:25Z</time></trkpt><trkpt lat="44.78259457507346" lon="9.358387411972892"><ele>599.2</ele><time>2026-04-06T13:16:26Z</time></trkpt><trkpt lat="44.782524610306105" lon="9.358506913985993"><ele>595.8</ele><time>2026-04-06T13:16:27Z</time></trkpt><trkpt lat="44.78249763189955" lon="9.358648189046866"><ele>592.4</ele><time>2026-04-06T13:16:28Z</time></trkpt><trkpt lat="44.78249949305704" lon="9.35877606911128"><ele>589.0</ele><time>2026-04-06T13:16:29Z</time></trkpt><trkpt lat="44.78254737133907" lon="9.358891858762247"><ele>589.5</ele><time>2026-04-06T13:16:30Z</time></trkpt><trkpt lat="44.7826352472209" lon="9.358997324440587"><ele>590.0</ele><time>2026-04-06T13:16:31Z</time></trkpt><trkpt lat="44.782751842046224" lon="9.359114671906289"><ele>590.5</ele><time>2026-04-06T13:16:32Z</time></trkpt><trkpt lat="44.78285885689526" lon="9.359252201344136"><ele>591.0</ele><time>2026-04-06T13:16:33Z</time></trkpt><trkpt lat="44.78295232627392" lon="9.359375846314558"><ele>591.0</ele><time>2026-04-06T13:16:34Z</time></trkpt><trkpt lat="44.78301266661784" lon="9.359507604548215"><ele>591.0</ele><time>2026-04-06T13:16:35Z</time></trkpt><trkpt lat="44.78298967284517" lon="9.359674249131727"><ele>591.0</ele><time>2026-04-06T13:16:36Z</time></trkpt><trkpt lat="44.78295688259901" lon="9.359816231685945"><ele>591.0</ele><time>2026-04-06T13:16:37Z</time></trkpt><trkpt lat="44.78289237541958" lon="9.359919688604762"><ele>591.0</ele><time>2026-04-06T13:16:38Z</time></trkpt><trkpt lat="44.78281676672252" lon="9.360025309811668"><ele>588.75</ele><time>2026-04-06T13:16:39Z</time></trkpt><trkpt lat="44.78272497426645" lon="9.360099155840198"><ele>586.5</ele><time>2026-04-06T13:16:40Z</time></trkpt><trkpt lat="44.78262186352113" lon="9.360105919300102"><ele>584.25</ele><time>2026-04-06T13:16:41Z</time></trkpt><trkpt lat="44.78251859442336" lon="9.360076094441968"><ele>582.0</ele><time>2026-04-06T13:16:42Z</time></trkpt><trkpt lat="44.78239059115371" lon="9.360012138404999"><ele>580.0</ele><time>2026-04-06T13:16:43Z</time></trkpt><trkpt lat="44.782239681382976" lon="9.359935359898035"><ele>578.0</ele><time>2026-04-06T13:16:44Z</time></trkpt><trkpt lat="44.782057879110205" lon="9.35986641060632"><ele>576.0</ele><time>2026-04-06T13:16:45Z</time></trkpt><trkpt lat="44.781885207605434" lon="9.359775026220136"><ele>574.6666666666666</ele><time>2026-04-06T13:16:46Z</time></trkpt><trkpt lat="44.78172800664839" lon="9.35969943548537"><ele>573.3333333333333</ele><time>2026-04-06T13:16:47Z</time></trkpt><trkpt lat="44.78157787809894" lon="9.359628817482273"><ele>572.0</ele><time>2026-04-06T13:16:48Z</time></trkpt><trkpt lat="44.781448180491864" lon="9.35957959583374"><ele>572.0</ele><time>2026-04-06T13:16:49Z</time></trkpt><trkpt lat="44.781346160576476" lon="9.35952274973586"><ele>572.0</ele><time>2026-04-06T13:16:50Z</time></trkpt><trkpt lat="44.78125203963874" lon="9.359428300540365"><ele>572.0</ele><time>2026-04-06T13:16:51Z</time></trkpt><trkpt lat="44.7811861353531" lon="9.359270127132703"><ele>572.0</ele><time>2026-04-06T13:16:52Z</time></trkpt><trkpt lat="44.781100406022745" lon="9.35912111107925"><ele>572.0</ele><time>2026-04-06T13:16:53Z</time></trkpt><trkpt lat="44.7810324510815" lon="9.358974305184173"><ele>572.0</ele><time>2026-04-06T13:16:54Z</time></trkpt><trkpt lat="44.78096439118915" lon="9.358876222398159"><ele>572.0</ele><time>2026-04-06T13:16:55Z</time></trkpt><trkpt lat="44.78086681792102" lon="9.35882482665108"><ele>572.0</ele><time>2026-04-06T13:16:56Z</time></trkpt><trkpt lat="44.78074230078856" lon="9.358810645336302"><ele>571.25</ele><time>2026-04-06T13:16:57Z</time></trkpt><trkpt lat="44.78061136562269" lon="9.358790097221485"><ele>570.5</ele><time>2026-04-06T13:16:58Z</time></trkpt><trkpt lat="44.78048837449929" lon="9.358708012698912"><ele>569.75</ele><time>2026-04-06T13:16:59Z</time></trkpt><trkpt lat="44.780359969837576" lon="9.358619162679165"><ele>569.0</ele><time>2026-04-06T13:17:00Z</time></trkpt><trkpt lat="44.78023224194784" lon="9.358517384185712"><ele>565.3333333333333</ele><time>2026-04-06T13:17:01Z</time></trkpt><trkpt lat="44.78012902501722" lon="9.358355588487052"><ele>561.6666666666666</ele><time>2026-04-06T13:17:02Z</time></trkpt><trkpt lat="44.78004386023687" lon="9.35816140932725"><ele>558.0</ele><time>2026-04-06T13:17:03Z</time></trkpt><trkpt lat="44.77997844529392" lon="9.357950518379736"><ele>558.0</ele><time>2026-04-06T13:17:04Z</time></trkpt><trkpt lat="44.77991573380643" lon="9.35776895126286"><ele>558.0</ele><time>2026-04-06T13:17:05Z</time></trkpt><trkpt lat="44.779818178541426" lon="9.357608212689973"><ele>558.0</ele><time>2026-04-06T13:17:06Z</time></trkpt><trkpt lat="44.77969298926705" lon="9.357451983671726"><ele>558.0</ele><time>2026-04-06T13:17:07Z</time></trkpt><trkpt lat="44.77958257847595" lon="9.35731088954965"><ele>558.0</ele><time>2026-04-06T13:17:08Z</time></trkpt><trkpt lat="44.779479078916644" lon="9.357188267197419"><ele>558.0</ele><time>2026-04-06T13:17:09Z</time></trkpt><trkpt lat="44.77935293446265" lon="9.357093452937491"><ele>558.0</ele><time>2026-04-06T13:17:10Z</time></trkpt><trkpt lat="44.779212097735204" lon="9.357012817838699"><ele>556.0</ele><time>2026-04-06T13:17:11Z</time></trkpt><trkpt lat="44.77905411826841" lon="9.356940498191078"><ele>554.0</ele><time>2026-04-06T13:17:12Z</time></trkpt><trkpt lat="44.778878254407665" lon="9.356878781690826"><ele>552.0</ele><time>2026-04-06T13:17:13Z</time></trkpt><trkpt lat="44.77868497650329" lon="9.356825078735582"><ele>549.0</ele><time>2026-04-06T13:17:14Z</time></trkpt><trkpt lat="44.77848941644905" lon="9.356779120203802"><ele>546.0</ele><time>2026-04-06T13:17:15Z</time></trkpt><trkpt lat="44.77831358192484" lon="9.356726390565939"><ele>543.0</ele><time>2026-04-06T13:17:16Z</time></trkpt><trkpt lat="44.77815763820251" lon="9.356683192081416"><ele>543.0</ele><time>2026-04-06T13:17:17Z</time></trkpt><trkpt lat="44.77801700646077" lon="9.356671302918144"><ele>543.0</ele><time>2026-04-06T13:17:18Z</time></trkpt><trkpt lat="44.77789231290699" lon="9.356680463612266"><ele>543.0</ele><time>2026-04-06T13:17:19Z</time></trkpt><trkpt lat="44.777785485503436" lon="9.356703069180757"><ele>543.0</ele><time>2026-04-06T13:17:20Z</time></trkpt><trkpt lat="44.77769616039869" lon="9.35668357703323"><ele>541.75</ele><time>2026-04-06T13:17:21Z</time></trkpt><trkpt lat="44.77760498076049" lon="9.35667388300197"><ele>540.5</ele><time>2026-04-06T13:17:22Z</time></trkpt><trkpt lat="44.777516553757025" lon="9.35654990677422"><ele>539.25</ele><time>2026-04-06T13:17:23Z</time></trkpt><trkpt lat="44.77742437634502" lon="9.356399641339195"><ele>538.0</ele><time>2026-04-06T13:17:24Z</time></trkpt><trkpt lat="44.777323154422824" lon="9.356200724071973"><ele>538.0</ele><time>2026-04-06T13:17:25Z</time></trkpt><trkpt lat="44.777215891662415" lon="9.356007954548778"><ele>538.0</ele><time>2026-04-06T13:17:26Z</time></trkpt><trkpt lat="44.77712361292629" lon="9.355861074412335"><ele>538.0</ele><time>2026-04-06T13:17:27Z</time></trkpt><trkpt lat="44.777045758615664" lon="9.35576319231428"><ele>538.0</ele><time>2026-04-06T13:17:28Z</time></trkpt><trkpt lat="44.77695356844928" lon="9.355696063597843"><ele>534.5</ele><time>2026-04-06T13:17:29Z</time></trkpt><trkpt lat="44.77683405236102" lon="9.355673765601317"><ele>531.0</ele><time>2026-04-06T13:17:30Z</time></trkpt><trkpt lat="44.776696109975816" lon="9.355687796569299"><ele>527.5</ele><time>2026-04-06T13:17:31Z</time></trkpt><trkpt lat="44.77653542985643" lon="9.355730557696264"><ele>524.0</ele><time>2026-04-06T13:17:32Z</time></trkpt><trkpt lat="44.776381117895994" lon="9.355744010940573"><ele>524.0</ele><time>2026-04-06T13:17:33Z</time></trkpt><trkpt lat="44.77625020454031" lon="9.355746394133707"><ele>524.0</ele><time>2026-04-06T13:17:34Z</time></trkpt><trkpt lat="44.776119001359135" lon="9.355695421177842"><ele>524.0</ele><time>2026-04-06T13:17:35Z</time></trkpt><trkpt lat="44.77595000431618" lon="9.355639998512252"><ele>524.0</ele><time>2026-04-06T13:17:36Z</time></trkpt><trkpt lat="44.775762148161114" lon="9.355557471872965"><ele>522.0</ele><time>2026-04-06T13:17:37Z</time></trkpt><trkpt lat="44.77560101106307" lon="9.355494461871785"><ele>520.0</ele><time>2026-04-06T13:17:38Z</time></trkpt><trkpt lat="44.77547764785267" lon="9.355455312413756"><ele>518.0</ele><time>2026-04-06T13:17:39Z</time></trkpt><trkpt lat="44.77538837151583" lon="9.355414379953928"><ele>516.0</ele><time>2026-04-06T13:17:40Z</time></trkpt><trkpt lat="44.77532523338227" lon="9.35536990340611"><ele>516.0</ele><time>2026-04-06T13:17:41Z</time></trkpt><trkpt lat="44.7752877850578" lon="9.355269291989774"><ele>516.0</ele><time>2026-04-06T13:17:42Z</time></trkpt><trkpt lat="44.77529250807428" lon="9.355118620988561"><ele>516.0</ele><time>2026-04-06T13:17:43Z</time></trkpt><trkpt lat="44.775291376264455" lon="9.354953155103304"><ele>516.0</ele><time>2026-04-06T13:17:44Z</time></trkpt><trkpt lat="44.77527708232221" lon="9.354804420852712"><ele>516.0</ele><time>2026-04-06T13:17:45Z</time></trkpt><trkpt lat="44.775230857167166" lon="9.354687246529199"><ele>512.6</ele><time>2026-04-06T13:17:46Z</time></trkpt><trkpt lat="44.77515113419613" lon="9.354603676941869"><ele>509.20000000000005</ele><time>2026-04-06T13:17:47Z</time></trkpt><trkpt lat="44.775059902018064" lon="9.354564202388616"><ele>505.79999999999995</ele><time>2026-04-06T13:17:48Z</time></trkpt><trkpt lat="44.774969064707584" lon="9.354570266352825"><ele>502.4</ele><time>2026-04-06T13:17:49Z</time></trkpt><trkpt lat="44.77487944374764" lon="9.35459228509026"><ele>499.0</ele><time>2026-04-06T13:17:50Z</time></trkpt><trkpt lat="44.77480092987847" lon="9.354697836187686"><ele>499.75</ele><time>2026-04-06T13:17:51Z</time></trkpt><trkpt lat="44.77474240295998" lon="9.354830108715138"><ele>500.5</ele><time>2026-04-06T13:17:51.999Z</time></trkpt><trkpt lat="44.77471362329122" lon="9.354989001782746"><ele>501.25</ele><time>2026-04-06T13:17:52.999Z</time></trkpt><trkpt lat="44.77473893853615" lon="9.355166261306872"><ele>502.0</ele><time>2026-04-06T13:17:53.999Z</time></trkpt><trkpt lat="44.77476438025408" lon="9.355337319108603"><ele>502.0</ele><time>2026-04-06T13:17:54.999Z</time></trkpt><trkpt lat="44.774814537426494" lon="9.355517069392048"><ele>502.0</ele><time>2026-04-06T13:17:55.999Z</time></trkpt><trkpt lat="44.77487733491441" lon="9.355715217767269"><ele>502.0</ele><time>2026-04-06T13:17:56.999Z</time></trkpt><trkpt lat="44.77491910563776" lon="9.35595652812662"><ele>501.0</ele><time>2026-04-06T13:17:57.999Z</time></trkpt><trkpt lat="44.774981595317136" lon="9.356216095397937"><ele>500.0</ele><time>2026-04-06T13:17:58.999Z</time></trkpt><trkpt lat="44.775045039449715" lon="9.356479627436048"><ele>499.0</ele><time>2026-04-06T13:17:59.999Z</time></trkpt><trkpt lat="44.77510946016096" lon="9.356747215658649"><ele>499.33333333333337</ele><time>2026-04-06T13:18:00.999Z</time></trkpt><trkpt lat="44.77516801371576" lon="9.356990121579974"><ele>499.66666666666663</ele><time>2026-04-06T13:18:01.999Z</time></trkpt><trkpt lat="44.775215651774346" lon="9.35719795021073"><ele>500.0</ele><time>2026-04-06T13:18:02.999Z</time></trkpt><trkpt lat="44.775249285867915" lon="9.357392832587056"><ele>500.0</ele><time>2026-04-06T13:18:03.999Z</time></trkpt><trkpt lat="44.77526458403774" lon="9.357580993484255"><ele>500.0</ele><time>2026-04-06T13:18:04.999Z</time></trkpt><trkpt lat="44.77526068295163" lon="9.357765281027492"><ele>500.0</ele><time>2026-04-06T13:18:05.999Z</time></trkpt><trkpt lat="44.77525070706947" lon="9.357944418955112"><ele>500.0</ele><time>2026-04-06T13:18:06.999Z</time></trkpt><trkpt lat="44.775245309435434" lon="9.35811510896023"><ele>498.6</ele><time>2026-04-06T13:18:07.999Z</time></trkpt><trkpt lat="44.775262050895755" lon="9.358256836414638"><ele>497.2</ele><time>2026-04-06T13:18:08.999Z</time></trkpt><trkpt lat="44.77527914809366" lon="9.358383316467277"><ele>495.79999999999995</ele><time>2026-04-06T13:18:10Z</time></trkpt><trkpt lat="44.77535192021114" lon="9.358480243553746"><ele>494.4</ele><time>2026-04-06T13:18:11Z</time></trkpt><trkpt lat="44.775465223429784" lon="9.358526108464721"><ele>493.0</ele><time>2026-04-06T13:18:12Z</time></trkpt><trkpt lat="44.77558263974045" lon="9.358566046535477"><ele>493.0</ele><time>2026-04-06T13:18:13Z</time></trkpt><trkpt lat="44.77568410677454" lon="9.35865607548568"><ele>493.0</ele><time>2026-04-06T13:18:14Z</time></trkpt><trkpt lat="44.77577425976588" lon="9.35880362809497"><ele>493.0</ele><time>2026-04-06T13:18:15Z</time></trkpt><trkpt lat="44.7758786703882" lon="9.35897898094313"><ele>493.0</ele><time>2026-04-06T13:18:16Z</time></trkpt><trkpt lat="44.775994790396624" lon="9.359151307723126"><ele>493.0</ele><time>2026-04-06T13:18:17Z</time></trkpt><trkpt lat="44.77609548063679" lon="9.359342659105266"><ele>493.0</ele><time>2026-04-06T13:18:18Z</time></trkpt><trkpt lat="44.77619896529817" lon="9.359524362287445"><ele>493.0</ele><time>2026-04-06T13:18:19Z</time></trkpt><trkpt lat="44.77629153085927" lon="9.359689391666747"><ele>491.75</ele><time>2026-04-06T13:18:20Z</time></trkpt><trkpt lat="44.776387629030395" lon="9.359843143727351"><ele>490.5</ele><time>2026-04-06T13:18:21Z</time></trkpt><trkpt lat="44.77649682829778" lon="9.359978154642754"><ele>489.25</ele><time>2026-04-06T13:18:22Z</time></trkpt><trkpt lat="44.776627026557314" lon="9.360085316439154"><ele>488.0</ele><time>2026-04-06T13:18:23Z</time></trkpt><trkpt lat="44.77677096181727" lon="9.360166324104846"><ele>489.59999999999997</ele><time>2026-04-06T13:18:24Z</time></trkpt><trkpt lat="44.77688390269161" lon="9.360223659305012"><ele>491.19999999999993</ele><time>2026-04-06T13:18:25Z</time></trkpt><trkpt lat="44.7769575493311" lon="9.360297132213708"><ele>492.8</ele><time>2026-04-06T13:18:26Z</time></trkpt><trkpt lat="44.777003724939654" lon="9.360398819152502"><ele>494.4</ele><time>2026-04-06T13:18:27Z</time></trkpt><trkpt lat="44.77700055377751" lon="9.360523535980946"><ele>496.0</ele><time>2026-04-06T13:18:28Z</time></trkpt><trkpt lat="44.77698615576705" lon="9.36064915056718"><ele>496.0</ele><time>2026-04-06T13:18:29Z</time></trkpt><trkpt lat="44.776954313295136" lon="9.360800749701932"><ele>496.0</ele><time>2026-04-06T13:18:30Z</time></trkpt><trkpt lat="44.77684920714511" lon="9.360926869426747"><ele>496.0</ele><time>2026-04-06T13:18:31Z</time></trkpt><trkpt lat="44.77674533922725" lon="9.36107713425097"><ele>496.0</ele><time>2026-04-06T13:18:32Z</time></trkpt><trkpt lat="44.77664746995394" lon="9.361225006001572"><ele>492.4</ele><time>2026-04-06T13:18:33Z</time></trkpt><trkpt lat="44.77658618236362" lon="9.361369586829682"><ele>488.8</ele><time>2026-04-06T13:18:34Z</time></trkpt><trkpt lat="44.77654049706717" lon="9.361476783693945"><ele>485.19999999999993</ele><time>2026-04-06T13:18:35Z</time></trkpt><trkpt lat="44.77652871500292" lon="9.361594020355057"><ele>481.59999999999997</ele><time>2026-04-06T13:18:36Z</time></trkpt><trkpt lat="44.77655642458246" lon="9.361721463052591"><ele>478.0</ele><time>2026-04-06T13:18:37Z</time></trkpt><trkpt lat="44.77660632373822" lon="9.361858253540845"><ele>478.0</ele><time>2026-04-06T13:18:38Z</time></trkpt><trkpt lat="44.776691239628" lon="9.361985709853112"><ele>478.0</ele><time>2026-04-06T13:18:39Z</time></trkpt><trkpt lat="44.77679770032501" lon="9.362091033778386"><ele>478.0</ele><time>2026-04-06T13:18:40Z</time></trkpt><trkpt lat="44.77691114097943" lon="9.362171715238938"><ele>478.0</ele><time>2026-04-06T13:18:41Z</time></trkpt><trkpt lat="44.776973728951155" lon="9.362277186039938"><ele>480.0</ele><time>2026-04-06T13:18:42Z</time></trkpt><trkpt lat="44.777013962031" lon="9.36237439682964"><ele>481.99999999999994</ele><time>2026-04-06T13:18:43Z</time></trkpt><trkpt lat="44.77700988946234" lon="9.362504851070524"><ele>483.99999999999994</ele><time>2026-04-06T13:18:44Z</time></trkpt><trkpt lat="44.77696086765916" lon="9.362659011009363"><ele>486.0</ele><time>2026-04-06T13:18:45Z</time></trkpt><trkpt lat="44.77692572231017" lon="9.362869013242655"><ele>488.0</ele><time>2026-04-06T13:18:46Z</time></trkpt><trkpt lat="44.77688543917091" lon="9.363115888005002"><ele>480.66666666666663</ele><time>2026-04-06T13:18:47Z</time></trkpt><trkpt lat="44.77684418760527" lon="9.363370392311232"><ele>473.33333333333337</ele><time>2026-04-06T13:18:48Z</time></trkpt><trkpt lat="44.77680995339728" lon="9.363596073690795"><ele>466.0</ele><time>2026-04-06T13:18:49Z</time></trkpt><trkpt lat="44.7767758448137" lon="9.363804171296245"><ele>466.6666666666667</ele><time>2026-04-06T13:18:50Z</time></trkpt><trkpt lat="44.776729840588175" lon="9.36399580060836"><ele>467.33333333333337</ele><time>2026-04-06T13:18:51Z</time></trkpt><trkpt lat="44.77665460808222" lon="9.364173070488212"><ele>468.0</ele><time>2026-04-06T13:18:52Z</time></trkpt><trkpt lat="44.776540567144295" lon="9.364392415112"><ele>468.0</ele><time>2026-04-06T13:18:53Z</time></trkpt><trkpt lat="44.77639675562895" lon="9.364661141323932"><ele>468.0</ele><time>2026-04-06T13:18:54Z</time></trkpt><trkpt lat="44.77624446181732" lon="9.36494571745035"><ele>468.66666666666663</ele><time>2026-04-06T13:18:55Z</time></trkpt><trkpt lat="44.77611429976801" lon="9.365188938191563"><ele>469.3333333333333</ele><time>2026-04-06T13:18:56Z</time></trkpt><trkpt lat="44.7760195031533" lon="9.365367556360425"><ele>470.0</ele><time>2026-04-06T13:18:57Z</time></trkpt><trkpt lat="44.77596007504487" lon="9.365466270571545"><ele>467.49999999999994</ele><time>2026-04-06T13:18:58Z</time></trkpt><trkpt lat="44.77591311212516" lon="9.365535938591306"><ele>465.0</ele><time>2026-04-06T13:18:59Z</time></trkpt><trkpt lat="44.77585510064025" lon="9.36558750327442"><ele>462.5</ele><time>2026-04-06T13:19:00Z</time></trkpt><trkpt lat="44.77577837446283" lon="9.36561706366671"><ele>460.0</ele><time>2026-04-06T13:19:01Z</time></trkpt><trkpt lat="44.77568807517692" lon="9.365569285194216"><ele>457.49999999999994</ele><time>2026-04-06T13:19:02Z</time></trkpt><trkpt lat="44.77561752384599" lon="9.365454497765251"><ele>455.0</ele><time>2026-04-06T13:19:03Z</time></trkpt><trkpt lat="44.77557913405792" lon="9.365305145040523"><ele>455.0</ele><time>2026-04-06T13:19:04Z</time></trkpt><trkpt lat="44.77557587791539" lon="9.365122694424407"><ele>455.0</ele><time>2026-04-06T13:19:05Z</time></trkpt><trkpt lat="44.775520609681095" lon="9.365004235987424"><ele>455.0</ele><time>2026-04-06T13:19:06Z</time></trkpt><trkpt lat="44.77542402761291" lon="9.36491060182853"><ele>455.0</ele><time>2026-04-06T13:19:07Z</time></trkpt><trkpt lat="44.77530202320521" lon="9.364851492629262"><ele>452.75</ele><time>2026-04-06T13:19:08Z</time></trkpt><trkpt lat="44.77517190343299" lon="9.364788248098595"><ele>450.5</ele><time>2026-04-06T13:19:09Z</time></trkpt><trkpt lat="44.775070952244626" lon="9.364676739048491"><ele>448.25</ele><time>2026-04-06T13:19:10Z</time></trkpt><trkpt lat="44.77499287387092" lon="9.36449787364449"><ele>446.0</ele><time>2026-04-06T13:19:11Z</time></trkpt><trkpt lat="44.77492633411877" lon="9.364291469017227"><ele>446.0</ele><time>2026-04-06T13:19:12Z</time></trkpt><trkpt lat="44.77486843052836" lon="9.364106253003422"><ele>446.0</ele><time>2026-04-06T13:19:13Z</time></trkpt><trkpt lat="44.77480519637358" lon="9.363950142717442"><ele>446.0</ele><time>2026-04-06T13:19:14Z</time></trkpt><trkpt lat="44.774729121563546" lon="9.363818111206292"><ele>446.0</ele><time>2026-04-06T13:19:15Z</time></trkpt><trkpt lat="44.77463124729752" lon="9.363733311815325"><ele>446.75</ele><time>2026-04-06T13:19:16Z</time></trkpt><trkpt lat="44.77450316597711" lon="9.363671658960824"><ele>447.5</ele><time>2026-04-06T13:19:17Z</time></trkpt><trkpt lat="44.77436474004847" lon="9.36360723534526"><ele>448.25</ele><time>2026-04-06T13:19:18Z</time></trkpt><trkpt lat="44.774231271439234" lon="9.363537824139494"><ele>449.0</ele><time>2026-04-06T13:19:19Z</time></trkpt><trkpt lat="44.77410101614334" lon="9.363462532471928"><ele>446.5</ele><time>2026-04-06T13:19:20Z</time></trkpt><trkpt lat="44.773977529478586" lon="9.363393321398096"><ele>444.0</ele><time>2026-04-06T13:19:21Z</time></trkpt><trkpt lat="44.77386595718387" lon="9.363348820531094"><ele>441.5</ele><time>2026-04-06T13:19:22Z</time></trkpt><trkpt lat="44.7737624904162" lon="9.363354942332967"><ele>439.0</ele><time>2026-04-06T13:19:23Z</time></trkpt><trkpt lat="44.7736355804813" lon="9.363358833270777"><ele>434.6666666666667</ele><time>2026-04-06T13:19:24Z</time></trkpt><trkpt lat="44.77350242989837" lon="9.36344168444646"><ele>430.33333333333337</ele><time>2026-04-06T13:19:25Z</time></trkpt><trkpt lat="44.773360145112534" lon="9.363536295240548"><ele>426.0</ele><time>2026-04-06T13:19:26Z</time></trkpt><trkpt lat="44.77322455278881" lon="9.363633430457472"><ele>426.0</ele><time>2026-04-06T13:19:27Z</time></trkpt><trkpt lat="44.77311544021263" lon="9.363704716194194"><ele>426.0</ele><time>2026-04-06T13:19:28Z</time></trkpt><trkpt lat="44.77303129239493" lon="9.363767016340981"><ele>426.0</ele><time>2026-04-06T13:19:29Z</time></trkpt><trkpt lat="44.77297333050566" lon="9.363849662212639"><ele>426.0</ele><time>2026-04-06T13:19:30Z</time></trkpt><trkpt lat="44.77293729113694" lon="9.36396075909394"><ele>426.0</ele><time>2026-04-06T13:19:31Z</time></trkpt><trkpt lat="44.77293946848498" lon="9.364096298274458"><ele>426.25</ele><time>2026-04-06T13:19:32Z</time></trkpt><trkpt lat="44.77297146505597" lon="9.364248124585718"><ele>426.5</ele><time>2026-04-06T13:19:33Z</time></trkpt><trkpt lat="44.77302371875949" lon="9.364429654063594"><ele>426.75</ele><time>2026-04-06T13:19:34.001Z</time></trkpt><trkpt lat="44.773081384973345" lon="9.364626627273601"><ele>427.0</ele><time>2026-04-06T13:19:35.001Z</time></trkpt><trkpt lat="44.773129051283526" lon="9.364806267589417"><ele>426.6</ele><time>2026-04-06T13:19:36.001Z</time></trkpt><trkpt lat="44.773142131682185" lon="9.364957321300794"><ele>426.20000000000005</ele><time>2026-04-06T13:19:37.001Z</time></trkpt><trkpt lat="44.773124761669436" lon="9.365082160595204"><ele>425.8</ele><time>2026-04-06T13:19:38.001Z</time></trkpt><trkpt lat="44.773068786733845" lon="9.365174770107913"><ele>425.4</ele><time>2026-04-06T13:19:39.001Z</time></trkpt><trkpt lat="44.77300411529302" lon="9.36529496677654"><ele>425.0</ele><time>2026-04-06T13:19:40.001Z</time></trkpt><trkpt lat="44.77291598127863" lon="9.365463475603374"><ele>424.0</ele><time>2026-04-06T13:19:41.001Z</time></trkpt><trkpt lat="44.77282378002003" lon="9.365644274861294"><ele>423.0</ele><time>2026-04-06T13:19:42.001Z</time></trkpt><trkpt lat="44.77274478257705" lon="9.365801118313378"><ele>422.0</ele><time>2026-04-06T13:19:43.001Z</time></trkpt><trkpt lat="44.772680170417544" lon="9.365953139056513"><ele>421.0</ele><time>2026-04-06T13:19:44.001Z</time></trkpt><trkpt lat="44.77265617387115" lon="9.366133076249756"><ele>418.5</ele><time>2026-04-06T13:19:45.001Z</time></trkpt><trkpt lat="44.77263485174628" lon="9.366312547769034"><ele>416.0</ele><time>2026-04-06T13:19:46.001Z</time></trkpt><trkpt lat="44.77263888321563" lon="9.366517868461125"><ele>413.5</ele><time>2026-04-06T13:19:47.001Z</time></trkpt><trkpt lat="44.77264371500564" lon="9.366690280529225"><ele>411.0</ele><time>2026-04-06T13:19:48.001Z</time></trkpt><trkpt lat="44.772654123031835" lon="9.366827557067573"><ele>410.4</ele><time>2026-04-06T13:19:49.001Z</time></trkpt><trkpt lat="44.77267078928322" lon="9.366942606468964"><ele>409.8</ele><time>2026-04-06T13:19:50.001Z</time></trkpt><trkpt lat="44.7727583466215" lon="9.367004808282415"><ele>409.2</ele><time>2026-04-06T13:19:51.001Z</time></trkpt><trkpt lat="44.77285643261944" lon="9.36706196304701"><ele>408.59999999999997</ele><time>2026-04-06T13:19:52.001Z</time></trkpt><trkpt lat="44.77296970897796" lon="9.367119839737223"><ele>408.0</ele><time>2026-04-06T13:19:53.001Z</time></trkpt><trkpt lat="44.77306605816809" lon="9.367191818084512"><ele>408.75</ele><time>2026-04-06T13:19:54.001Z</time></trkpt><trkpt lat="44.77313216047843" lon="9.36730569523828"><ele>409.5</ele><time>2026-04-06T13:19:55.001Z</time></trkpt><trkpt lat="44.77317393397982" lon="9.367441113610607"><ele>410.25</ele><time>2026-04-06T13:19:56.001Z</time></trkpt><trkpt lat="44.77319798342873" lon="9.367605290246301"><ele>411.0</ele><time>2026-04-06T13:19:57.001Z</time></trkpt><trkpt lat="44.77321872589484" lon="9.367781785320128"><ele>411.0</ele><time>2026-04-06T13:19:57.999Z</time></trkpt><trkpt lat="44.77322245348891" lon="9.367927263613144"><ele>411.0</ele><time>2026-04-06T13:19:58.999Z</time></trkpt><trkpt lat="44.77318439721226" lon="9.368032813662266"><ele>411.0</ele><time>2026-04-06T13:19:59.999Z</time></trkpt><trkpt lat="44.77311371394486" lon="9.368139159646855"><ele>411.0</ele><time>2026-04-06T13:20:00.999Z</time></trkpt><trkpt lat="44.773019631168445" lon="9.368292063171433"><ele>411.0</ele><time>2026-04-06T13:20:01.999Z</time></trkpt><trkpt lat="44.77292309153215" lon="9.36848089760531"><ele>412.5</ele><time>2026-04-06T13:20:02.999Z</time></trkpt><trkpt lat="44.772820005816214" lon="9.36864444070046"><ele>414.0</ele><time>2026-04-06T13:20:03.999Z</time></trkpt><trkpt lat="44.77273173128102" lon="9.368786990989848"><ele>415.5</ele><time>2026-04-06T13:20:04.999Z</time></trkpt><trkpt lat="44.772659509606505" lon="9.368923712433068"><ele>417.0</ele><time>2026-04-06T13:20:05.999Z</time></trkpt><trkpt lat="44.772612278559585" lon="9.369074376972144"><ele>411.25</ele><time>2026-04-06T13:20:06.999Z</time></trkpt><trkpt lat="44.77258573688781" lon="9.369244175736496"><ele>405.5</ele><time>2026-04-06T13:20:07.999Z</time></trkpt><trkpt lat="44.7725751569652" lon="9.369445954420867"><ele>399.75</ele><time>2026-04-06T13:20:08.999Z</time></trkpt><trkpt lat="44.77257031200392" lon="9.369663693265547"><ele>394.0</ele><time>2026-04-06T13:20:09.999Z</time></trkpt><trkpt lat="44.772545270001444" lon="9.369865152001848"><ele>393.0</ele><time>2026-04-06T13:20:10.999Z</time></trkpt><trkpt lat="44.772537922994154" lon="9.370058810331034"><ele>392.0</ele><time>2026-04-06T13:20:11.999Z</time></trkpt><trkpt lat="44.77255171111809" lon="9.37023999353928"><ele>391.0</ele><time>2026-04-06T13:20:12.999Z</time></trkpt><trkpt lat="44.77256578488073" lon="9.370398707928636"><ele>390.0</ele><time>2026-04-06T13:20:13.999Z</time></trkpt><trkpt lat="44.77259277506506" lon="9.370537235338338"><ele>387.0</ele><time>2026-04-06T13:20:15Z</time></trkpt><trkpt lat="44.772643185692665" lon="9.370673895578218"><ele>384.0</ele><time>2026-04-06T13:20:16Z</time></trkpt><trkpt lat="44.77272402583682" lon="9.370805556193751"><ele>381.0</ele><time>2026-04-06T13:20:17Z</time></trkpt><trkpt lat="44.772821703074605" lon="9.370935902912446"><ele>378.0</ele><time>2026-04-06T13:20:18Z</time></trkpt><trkpt lat="44.77286943600172" lon="9.371092552441198"><ele>382.25</ele><time>2026-04-06T13:20:19Z</time></trkpt><trkpt lat="44.772870597578404" lon="9.371247016615898"><ele>386.5</ele><time>2026-04-06T13:20:20Z</time></trkpt><trkpt lat="44.77285429300126" lon="9.37142010228524"><ele>390.75</ele><time>2026-04-06T13:20:21Z</time></trkpt><trkpt lat="44.77284659324502" lon="9.37161847779098"><ele>395.0</ele><time>2026-04-06T13:20:22Z</time></trkpt><trkpt lat="44.772878452322466" lon="9.37183829422766"><ele>395.0</ele><time>2026-04-06T13:20:23Z</time></trkpt><trkpt lat="44.77290157730693" lon="9.37200246010101"><ele>395.0</ele><time>2026-04-06T13:20:24Z</time></trkpt><trkpt lat="44.77290725341887" lon="9.372171145262397"><ele>395.0</ele><time>2026-04-06T13:20:25Z</time></trkpt><trkpt lat="44.7728635830066" lon="9.372340274581724"><ele>395.0</ele><time>2026-04-06T13:20:26Z</time></trkpt><trkpt lat="44.77279307450399" lon="9.372545834641997"><ele>393.3333333333333</ele><time>2026-04-06T13:20:27Z</time></trkpt><trkpt lat="44.77271552967094" lon="9.372764758174938"><ele>391.66666666666663</ele><time>2026-04-06T13:20:28Z</time></trkpt><trkpt lat="44.77263899802762" lon="9.372979205624967"><ele>390.0</ele><time>2026-04-06T13:20:29Z</time></trkpt><trkpt lat="44.77256293868167" lon="9.373198677935063"><ele>385.0</ele><time>2026-04-06T13:20:30Z</time></trkpt><trkpt lat="44.772494287318246" lon="9.37340427826104"><ele>380.0</ele><time>2026-04-06T13:20:31Z</time></trkpt><trkpt lat="44.77242755467414" lon="9.373587518080596"><ele>375.0</ele><time>2026-04-06T13:20:32Z</time></trkpt><trkpt lat="44.772360099635904" lon="9.373739743534347"><ele>370.0</ele><time>2026-04-06T13:20:33Z</time></trkpt><trkpt lat="44.77227778309379" lon="9.3738501241055"><ele>370.75</ele><time>2026-04-06T13:20:34Z</time></trkpt><trkpt lat="44.77218311847023" lon="9.373918120125879"><ele>371.5</ele><time>2026-04-06T13:20:35Z</time></trkpt><trkpt lat="44.77206304076355" lon="9.373940812972352"><ele>372.25</ele><time>2026-04-06T13:20:36Z</time></trkpt><trkpt lat="44.771914597634904" lon="9.373977291824323"><ele>373.0</ele><time>2026-04-06T13:20:37Z</time></trkpt><trkpt lat="44.7717621373401" lon="9.373989998676436"><ele>370.4</ele><time>2026-04-06T13:20:38Z</time></trkpt><trkpt lat="44.77163323353183" lon="9.374006782640114"><ele>367.79999999999995</ele><time>2026-04-06T13:20:39Z</time></trkpt><trkpt lat="44.771532849509526" lon="9.37403649243536"><ele>365.2</ele><time>2026-04-06T13:20:40Z</time></trkpt><trkpt lat="44.77144283565988" lon="9.374059474437288"><ele>362.6</ele><time>2026-04-06T13:20:41Z</time></trkpt><trkpt lat="44.77136489218961" lon="9.374158034265081"><ele>360.0</ele><time>2026-04-06T13:20:42Z</time></trkpt><trkpt lat="44.77133273539556" lon="9.374319045834861"><ele>360.0</ele><time>2026-04-06T13:20:43Z</time></trkpt><trkpt lat="44.77131314283215" lon="9.374498164324025"><ele>360.0</ele><time>2026-04-06T13:20:44Z</time></trkpt><trkpt lat="44.77129580937015" lon="9.37470173764472"><ele>360.0</ele><time>2026-04-06T13:20:45Z</time></trkpt><trkpt lat="44.77124219372402" lon="9.374883929673523"><ele>360.0</ele><time>2026-04-06T13:20:46Z</time></trkpt><trkpt lat="44.77119587997086" lon="9.375014145653457"><ele>360.2</ele><time>2026-04-06T13:20:47Z</time></trkpt><trkpt lat="44.771133743937646" lon="9.375088802802582"><ele>360.4</ele><time>2026-04-06T13:20:48Z</time></trkpt><trkpt lat="44.77104156202895" lon="9.375092078336921"><ele>360.6</ele><time>2026-04-06T13:20:49Z</time></trkpt><trkpt lat="44.77091868281989" lon="9.37508657820203"><ele>360.8</ele><time>2026-04-06T13:20:50Z</time></trkpt><trkpt lat="44.77077607118361" lon="9.375088901808827"><ele>361.0</ele><time>2026-04-06T13:20:51Z</time></trkpt><trkpt lat="44.770621550429766" lon="9.375076165932283"><ele>359.4</ele><time>2026-04-06T13:20:52Z</time></trkpt><trkpt lat="44.770484768496395" lon="9.37505010636632"><ele>357.8</ele><time>2026-04-06T13:20:53Z</time></trkpt><trkpt lat="44.770373220790226" lon="9.375042877432348"><ele>356.2</ele><time>2026-04-06T13:20:54Z</time></trkpt><trkpt lat="44.770276970837386" lon="9.375048133684011"><ele>354.59999999999997</ele><time>2026-04-06T13:20:55Z</time></trkpt><trkpt lat="44.77019959190347" lon="9.37508167201735"><ele>353.0</ele><time>2026-04-06T13:20:56Z</time></trkpt><trkpt lat="44.77013447383218" lon="9.375164987800606"><ele>352.0</ele><time>2026-04-06T13:20:57Z</time></trkpt><trkpt lat="44.77009181326227" lon="9.375286467915032"><ele>351.0</ele><time>2026-04-06T13:20:58Z</time></trkpt><trkpt lat="44.770066321169395" lon="9.37543280197631"><ele>350.0</ele><time>2026-04-06T13:20:59Z</time></trkpt><trkpt lat="44.77002992043204" lon="9.375585374967814"><ele>349.0</ele><time>2026-04-06T13:21:00Z</time></trkpt><trkpt lat="44.76993701642616" lon="9.375674413895867"><ele>348.0</ele><time>2026-04-06T13:21:01Z</time></trkpt><trkpt lat="44.769839536254736" lon="9.375788523519569"><ele>347.75</ele><time>2026-04-06T13:21:02Z</time></trkpt><trkpt lat="44.76973834344413" lon="9.375908475671398"><ele>347.5</ele><time>2026-04-06T13:21:03Z</time></trkpt><trkpt lat="44.76965518595457" lon="9.376042960728155"><ele>347.25</ele><time>2026-04-06T13:21:04Z</time></trkpt><trkpt lat="44.76958838649554" lon="9.376177593648034"><ele>347.0</ele><time>2026-04-06T13:21:05Z</time></trkpt><trkpt lat="44.76955311365235" lon="9.37634035049386"><ele>347.25</ele><time>2026-04-06T13:21:06Z</time></trkpt><trkpt lat="44.76951605303983" lon="9.376511360525418"><ele>347.5</ele><time>2026-04-06T13:21:07Z</time></trkpt><trkpt lat="44.76949104517389" lon="9.376678981465"><ele>347.75</ele><time>2026-04-06T13:21:08Z</time></trkpt><trkpt lat="44.769454740380596" lon="9.376814073782144"><ele>348.0</ele><time>2026-04-06T13:21:09Z</time></trkpt><trkpt lat="44.769372580406696" lon="9.376911567011932"><ele>344.6666666666667</ele><time>2026-04-06T13:21:10Z</time></trkpt><trkpt lat="44.76926330787524" lon="9.377029925346546"><ele>341.33333333333337</ele><time>2026-04-06T13:21:11Z</time></trkpt><trkpt lat="44.76913490412735" lon="9.37716764156325"><ele>338.0</ele><time>2026-04-06T13:21:12Z</time></trkpt><trkpt lat="44.76901167187123" lon="9.37732653993255"><ele>338.0</ele><time>2026-04-06T13:21:13Z</time></trkpt><trkpt lat="44.76888952140381" lon="9.377440955276866"><ele>338.0</ele><time>2026-04-06T13:21:14Z</time></trkpt><trkpt lat="44.768799537484604" lon="9.377542143299324"><ele>338.0</ele><time>2026-04-06T13:21:15Z</time></trkpt><trkpt lat="44.768733349313464" lon="9.377653585487085"><ele>338.0</ele><time>2026-04-06T13:21:16Z</time></trkpt><trkpt lat="44.768681230390314" lon="9.377794824213405"><ele>338.0</ele><time>2026-04-06T13:21:17Z</time></trkpt><trkpt lat="44.768649395616485" lon="9.37798162318702"><ele>338.0</ele><time>2026-04-06T13:21:18Z</time></trkpt><trkpt lat="44.76862078414413" lon="9.378183337443094"><ele>338.0</ele><time>2026-04-06T13:21:19Z</time></trkpt><trkpt lat="44.76855281413909" lon="9.378350103323307"><ele>338.0</ele><time>2026-04-06T13:21:20Z</time></trkpt><trkpt lat="44.76846489642942" lon="9.378505716361053"><ele>334.0</ele><time>2026-04-06T13:21:21Z</time></trkpt><trkpt lat="44.76838863176688" lon="9.378670844003974"><ele>330.0</ele><time>2026-04-06T13:21:22Z</time></trkpt><trkpt lat="44.76831579209124" lon="9.378797828744789"><ele>326.0</ele><time>2026-04-06T13:21:23Z</time></trkpt><trkpt lat="44.7682648394962" lon="9.378923725605713"><ele>322.0</ele><time>2026-04-06T13:21:24Z</time></trkpt><trkpt lat="44.76824332199058" lon="9.379059227221171"><ele>321.75</ele><time>2026-04-06T13:21:25Z</time></trkpt><trkpt lat="44.768253423048144" lon="9.379205984448845"><ele>321.5</ele><time>2026-04-06T13:21:26.001Z</time></trkpt><trkpt lat="44.76829268851933" lon="9.37935066004152"><ele>321.25</ele><time>2026-04-06T13:21:27.001Z</time></trkpt><trkpt lat="44.76834870303768" lon="9.379506377094557"><ele>321.0</ele><time>2026-04-06T13:21:28.001Z</time></trkpt><trkpt lat="44.76839369732429" lon="9.37969934098319"><ele>319.6666666666667</ele><time>2026-04-06T13:21:29.001Z</time></trkpt><trkpt lat="44.76847227040863" lon="9.379902145982408"><ele>318.33333333333337</ele><time>2026-04-06T13:21:30.001Z</time></trkpt><trkpt lat="44.76849149251708" lon="9.380109183528342"><ele>317.0</ele><time>2026-04-06T13:21:31.001Z</time></trkpt><trkpt lat="44.76850144076209" lon="9.38030263805169"><ele>315.6666666666667</ele><time>2026-04-06T13:21:32.001Z</time></trkpt><trkpt lat="44.76851353625993" lon="9.380536585713035"><ele>314.3333333333333</ele><time>2026-04-06T13:21:33.001Z</time></trkpt><trkpt lat="44.76852826104318" lon="9.380821264499438"><ele>313.0</ele><time>2026-04-06T13:21:34.001Z</time></trkpt><trkpt lat="44.768557251028966" lon="9.381112164669878"><ele>313.0</ele><time>2026-04-06T13:21:35.001Z</time></trkpt><trkpt lat="44.76857233081777" lon="9.381359297695601"><ele>313.0</ele><time>2026-04-06T13:21:36.001Z</time></trkpt><trkpt lat="44.76856855445345" lon="9.38155613397557"><ele>313.0</ele><time>2026-04-06T13:21:37.001Z</time></trkpt><trkpt lat="44.76858307660558" lon="9.3817360519756"><ele>313.0</ele><time>2026-04-06T13:21:38.001Z</time></trkpt><trkpt lat="44.7686277272755" lon="9.381909628854043"><ele>313.0</ele><time>2026-04-06T13:21:39.001Z</time></trkpt><trkpt lat="44.768681629433615" lon="9.382084303360227"><ele>313.0</ele><time>2026-04-06T13:21:40.001Z</time></trkpt><trkpt lat="44.76875730797326" lon="9.382265711786676"><ele>313.0</ele><time>2026-04-06T13:21:41.001Z</time></trkpt><trkpt lat="44.7688659552593" lon="9.382461574537395"><ele>311.3333333333333</ele><time>2026-04-06T13:21:42.001Z</time></trkpt><trkpt lat="44.768977568679624" lon="9.382690051518058"><ele>309.6666666666667</ele><time>2026-04-06T13:21:43.001Z</time></trkpt><trkpt lat="44.76909959764767" lon="9.382938168852263"><ele>308.0</ele><time>2026-04-06T13:21:44.001Z</time></trkpt><trkpt lat="44.76920836787054" lon="9.383173700353055"><ele>308.0</ele><time>2026-04-06T13:21:45.001Z</time></trkpt><trkpt lat="44.769317890189114" lon="9.383402541858096"><ele>308.0</ele><time>2026-04-06T13:21:46.001Z</time></trkpt><trkpt lat="44.76942757722154" lon="9.383625755433648"><ele>308.0</ele><time>2026-04-06T13:21:47.001Z</time></trkpt><trkpt lat="44.769534444194505" lon="9.383845586266442"><ele>305.0</ele><time>2026-04-06T13:21:48.001Z</time></trkpt><trkpt lat="44.76963941991702" lon="9.384064884569213"><ele>302.0</ele><time>2026-04-06T13:21:49.001Z</time></trkpt><trkpt lat="44.7697415425303" lon="9.38428065864803"><ele>299.0</ele><time>2026-04-06T13:21:50.001Z</time></trkpt><trkpt lat="44.769845116588364" lon="9.384487655321767"><ele>295.6666666666667</ele><time>2026-04-06T13:21:51.001Z</time></trkpt><trkpt lat="44.769943330718" lon="9.384691193457565"><ele>292.3333333333333</ele><time>2026-04-06T13:21:52.001Z</time></trkpt><trkpt lat="44.77003448158371" lon="9.384882427521312"><ele>289.0</ele><time>2026-04-06T13:21:53.001Z</time></trkpt><trkpt lat="44.770107807655364" lon="9.385047034659463"><ele>289.0</ele><time>2026-04-06T13:21:54.001Z</time></trkpt><trkpt lat="44.77013809696305" lon="9.385195555419136"><ele>289.0</ele><time>2026-04-06T13:21:55.001Z</time></trkpt><trkpt lat="44.77016059472862" lon="9.385325145624467"><ele>289.0</ele><time>2026-04-06T13:21:56.001Z</time></trkpt><trkpt lat="44.770157253157834" lon="9.385456338303328"><ele>289.0</ele><time>2026-04-06T13:21:57.001Z</time></trkpt><trkpt lat="44.770147110230496" lon="9.38556723595948"><ele>289.0</ele><time>2026-04-06T13:21:58.001Z</time></trkpt><trkpt lat="44.770119337521024" lon="9.385667728411768"><ele>288.16666666666663</ele><time>2026-04-06T13:21:59.001Z</time></trkpt><trkpt lat="44.77010699503152" lon="9.38576160349439"><ele>287.3333333333333</ele><time>2026-04-06T13:22:00.001Z</time></trkpt><trkpt lat="44.770031887493225" lon="9.385886635287322"><ele>286.5</ele><time>2026-04-06T13:22:02.001Z</time></trkpt><trkpt lat="44.76995525851021" lon="9.385928018594974"><ele>285.6666666666667</ele><time>2026-04-06T13:22:03.999Z</time></trkpt><trkpt lat="44.769877778856404" lon="9.385893665843803"><ele>284.83333333333337</ele><time>2026-04-06T13:22:05.999Z</time></trkpt><trkpt lat="44.76981811230611" lon="9.385842026936464"><ele>284.0</ele><time>2026-04-06T13:22:07.999Z</time></trkpt><trkpt lat="44.76975902373545" lon="9.385804978191603"><ele>284.0</ele><time>2026-04-06T13:22:09.999Z</time></trkpt><trkpt lat="44.769677233793175" lon="9.38576919300235"><ele>284.0</ele><time>2026-04-06T13:22:12.999Z</time></trkpt><trkpt lat="44.7696020832734" lon="9.385754865802175"><ele>284.0</ele><time>2026-04-06T13:22:15.999Z</time></trkpt><trkpt lat="44.76952977730854" lon="9.385735953953676"><ele>284.0</ele><time>2026-04-06T13:22:18.999Z</time></trkpt><trkpt lat="44.76945272006361" lon="9.385724575598797"><ele>284.0</ele><time>2026-04-06T13:22:21.999Z</time></trkpt><trkpt lat="44.76936929229537" lon="9.385715475539065"><ele>284.0</ele><time>2026-04-06T13:22:25Z</time></trkpt><trkpt lat="44.76930648963643" lon="9.385694336134836"><ele>284.0</ele><time>2026-04-06T13:22:28Z</time></trkpt><trkpt lat="44.76924333217456" lon="9.385770975882922"><ele>284.0</ele><time>2026-04-06T13:22:30Z</time></trkpt><trkpt lat="44.7692081405724" lon="9.385851089913356"><ele>284.0</ele><time>2026-04-06T13:22:35Z</time></trkpt><trkpt lat="44.769282908772944" lon="9.385941846664316"><ele>284.0</ele><time>2026-04-06T13:22:38Z</time></trkpt><trkpt lat="44.769324918667316" lon="9.38601718252878"><ele>284.0</ele><time>2026-04-06T13:23:03Z</time></trkpt><trkpt lat="44.7696691016291" lon="9.385878854774067"><ele>284.0</ele><time>2026-04-06T13:23:11Z</time></trkpt><trkpt lat="44.76974777491195" lon="9.385892239187482"><ele>284.0</ele><time>2026-04-06T13:23:14Z</time></trkpt><trkpt lat="44.76979384125643" lon="9.385822422441283"><ele>284.0</ele><time>2026-04-06T13:23:19Z</time></trkpt><trkpt lat="44.76970776626646" lon="9.3857893880097"><ele>284.0</ele><time>2026-04-06T13:23:23.001Z</time></trkpt><trkpt lat="44.76964732653532" lon="9.385758701002606"><ele>284.0</ele><time>2026-04-06T13:23:25.001Z</time></trkpt><trkpt lat="44.769566536785746" lon="9.385746665505637"><ele>284.0</ele><time>2026-04-06T13:23:28.001Z</time></trkpt><trkpt lat="44.76949993526488" lon="9.385727385672485"><ele>284.0</ele><time>2026-04-06T13:23:31.001Z</time></trkpt></trkseg><trkseg><trkpt lat="44.764683806055274" lon="9.386114776880241"><ele>269.0</ele><time>2026-04-06T13:53:36.999Z</time></trkpt><trkpt lat="44.764618271025135" lon="9.386085885136843"><ele>269.0</ele><time>2026-04-06T13:53:37.999Z</time></trkpt><trkpt lat="44.76455160461371" lon="9.386058331761381"><ele>269.0</ele><time>2026-04-06T13:53:38.999Z</time></trkpt><trkpt lat="44.764442307613606" lon="9.386015138020511"><ele>269.0</ele><time>2026-04-06T13:53:40.999Z</time></trkpt><trkpt lat="44.76435577291508" lon="9.385986893046953"><ele>269.0</ele><time>2026-04-06T13:53:42.999Z</time></trkpt><trkpt lat="44.764285797224495" lon="9.385944202148156"><ele>269.0</ele><time>2026-04-06T13:53:44.999Z</time></trkpt><trkpt lat="44.7642237279492" lon="9.385871290152492"><ele>268.4</ele><time>2026-04-06T13:53:48.999Z</time></trkpt><trkpt lat="44.76414604647326" lon="9.385785170139581"><ele>267.79999999999995</ele><time>2026-04-06T13:53:50.999Z</time></trkpt><trkpt lat="44.76407237952542" lon="9.385686836889006"><ele>267.20000000000005</ele><time>2026-04-06T13:53:52.999Z</time></trkpt><trkpt lat="44.76400799899393" lon="9.385582998543539"><ele>266.6</ele><time>2026-04-06T13:53:54.999Z</time></trkpt><trkpt lat="44.76392444375705" lon="9.385432222477718"><ele>266.0</ele><time>2026-04-06T13:53:56.999Z</time></trkpt><trkpt lat="44.76388064075145" lon="9.38534013213513"><ele>269.0</ele><time>2026-04-06T13:53:57.999Z</time></trkpt><trkpt lat="44.76383243843931" lon="9.385242576589182"><ele>272.0</ele><time>2026-04-06T13:53:58.999Z</time></trkpt><trkpt lat="44.763775859431625" lon="9.385125284094372"><ele>275.0</ele><time>2026-04-06T13:53:59.999Z</time></trkpt><trkpt lat="44.76370331366803" lon="9.384984114628892"><ele>278.0</ele><time>2026-04-06T13:54:00.999Z</time></trkpt><trkpt lat="44.76363956458781" lon="9.384861422275666"><ele>281.0</ele><time>2026-04-06T13:54:01.999Z</time></trkpt><trkpt lat="44.7635769374795" lon="9.384734243427559"><ele>278.40000000000003</ele><time>2026-04-06T13:54:02.999Z</time></trkpt><trkpt lat="44.763517203551956" lon="9.384612063620008"><ele>275.8</ele><time>2026-04-06T13:54:03.999Z</time></trkpt><trkpt lat="44.763457066673205" lon="9.384494302203588"><ele>273.20000000000005</ele><time>2026-04-06T13:54:04.999Z</time></trkpt><trkpt lat="44.76339827823633" lon="9.384365378734126"><ele>270.6</ele><time>2026-04-06T13:54:05.999Z</time></trkpt><trkpt lat="44.76333793339845" lon="9.384242818800749"><ele>268.0</ele><time>2026-04-06T13:54:06.999Z</time></trkpt><trkpt lat="44.76327135087962" lon="9.384114724768668"><ele>268.0</ele><time>2026-04-06T13:54:07.999Z</time></trkpt><trkpt lat="44.763198859033196" lon="9.383987892021665"><ele>268.0</ele><time>2026-04-06T13:54:08.999Z</time></trkpt><trkpt lat="44.76312145920593" lon="9.38386113297831"><ele>268.0</ele><time>2026-04-06T13:54:09.999Z</time></trkpt><trkpt lat="44.76304719046827" lon="9.383751109929714"><ele>268.0</ele><time>2026-04-06T13:54:10.999Z</time></trkpt><trkpt lat="44.76296196785257" lon="9.383635197585411"><ele>266.75</ele><time>2026-04-06T13:54:11.999Z</time></trkpt><trkpt lat="44.76286431502655" lon="9.383515161348754"><ele>265.5</ele><time>2026-04-06T13:54:12.999Z</time></trkpt><trkpt lat="44.76275363990295" lon="9.383400126295188"><ele>264.25</ele><time>2026-04-06T13:54:13.999Z</time></trkpt><trkpt lat="44.762635613893295" lon="9.38329479819085"><ele>263.0</ele><time>2026-04-06T13:54:14.999Z</time></trkpt><trkpt lat="44.76250502527278" lon="9.383201203347843"><ele>263.0</ele><time>2026-04-06T13:54:15.999Z</time></trkpt><trkpt lat="44.76237018518401" lon="9.383113701625044"><ele>263.0</ele><time>2026-04-06T13:54:16.999Z</time></trkpt><trkpt lat="44.76223234089309" lon="9.383019082239336"><ele>263.0</ele><time>2026-04-06T13:54:17.999Z</time></trkpt><trkpt lat="44.762092769396766" lon="9.382924276315457"><ele>263.0</ele><time>2026-04-06T13:54:18.999Z</time></trkpt><trkpt lat="44.76195782586567" lon="9.382825238677817"><ele>263.0</ele><time>2026-04-06T13:54:19.999Z</time></trkpt><trkpt lat="44.76181738851388" lon="9.382724597822127"><ele>263.0</ele><time>2026-04-06T13:54:20.999Z</time></trkpt><trkpt lat="44.76167242182444" lon="9.382633022827623"><ele>263.0</ele><time>2026-04-06T13:54:21.999Z</time></trkpt><trkpt lat="44.76152887215624" lon="9.38252855064419"><ele>263.0</ele><time>2026-04-06T13:54:22.999Z</time></trkpt><trkpt lat="44.761378782842066" lon="9.382429097859958"><ele>263.0</ele><time>2026-04-06T13:54:23.999Z</time></trkpt><trkpt lat="44.76123313867665" lon="9.3823320082738"><ele>263.0</ele><time>2026-04-06T13:54:24.999Z</time></trkpt><trkpt lat="44.761091042452854" lon="9.382230214366244"><ele>263.0</ele><time>2026-04-06T13:54:25.999Z</time></trkpt><trkpt lat="44.76094570923266" lon="9.382142498217076"><ele>263.0</ele><time>2026-04-06T13:54:26.999Z</time></trkpt><trkpt lat="44.76080380181091" lon="9.38202653742325"><ele>264.6666666666667</ele><time>2026-04-06T13:54:27.999Z</time></trkpt><trkpt lat="44.760662033160536" lon="9.381942408577622"><ele>266.3333333333333</ele><time>2026-04-06T13:54:28.999Z</time></trkpt><trkpt lat="44.760517017878925" lon="9.381855385233765"><ele>268.0</ele><time>2026-04-06T13:54:29.999Z</time></trkpt><trkpt lat="44.76037120426343" lon="9.381774518216092"><ele>268.0</ele><time>2026-04-06T13:54:30.999Z</time></trkpt><trkpt lat="44.76022447311774" lon="9.381706796276315"><ele>268.0</ele><time>2026-04-06T13:54:31.999Z</time></trkpt><trkpt lat="44.760070501500024" lon="9.38164645002402"><ele>268.0</ele><time>2026-04-06T13:54:32.999Z</time></trkpt><trkpt lat="44.75991637570496" lon="9.381617898358304"><ele>267.3333333333333</ele><time>2026-04-06T13:54:33.999Z</time></trkpt><trkpt lat="44.75976019453223" lon="9.381602404614148"><ele>266.6666666666667</ele><time>2026-04-06T13:54:34.999Z</time></trkpt><trkpt lat="44.759602562034274" lon="9.381613368602185"><ele>266.0</ele><time>2026-04-06T13:54:35.999Z</time></trkpt><trkpt lat="44.75943856340391" lon="9.381644746439788"><ele>266.0</ele><time>2026-04-06T13:54:36.999Z</time></trkpt><trkpt lat="44.75927066599955" lon="9.381677012850897"><ele>266.0</ele><time>2026-04-06T13:54:37.999Z</time></trkpt><trkpt lat="44.75910061542917" lon="9.381707048703417"><ele>266.0</ele><time>2026-04-06T13:54:38.999Z</time></trkpt><trkpt lat="44.75893290907527" lon="9.38173771978175"><ele>266.0</ele><time>2026-04-06T13:54:39.999Z</time></trkpt><trkpt lat="44.75876345517849" lon="9.381767379179879"><ele>266.0</ele><time>2026-04-06T13:54:40.999Z</time></trkpt><trkpt lat="44.75859767713233" lon="9.381796651218366"><ele>266.0</ele><time>2026-04-06T13:54:41.999Z</time></trkpt><trkpt lat="44.758430078364604" lon="9.381823521820955"><ele>266.33333333333337</ele><time>2026-04-06T13:54:42.999Z</time></trkpt><trkpt lat="44.7582653170086" lon="9.381849106515766"><ele>266.6666666666667</ele><time>2026-04-06T13:54:43.999Z</time></trkpt><trkpt lat="44.75810180973747" lon="9.38187768147599"><ele>267.0</ele><time>2026-04-06T13:54:44.999Z</time></trkpt><trkpt lat="44.7579381993998" lon="9.381903504642432"><ele>267.0</ele><time>2026-04-06T13:54:45.999Z</time></trkpt><trkpt lat="44.7577745697742" lon="9.381928772127536"><ele>267.0</ele><time>2026-04-06T13:54:46.999Z</time></trkpt><trkpt lat="44.75761329706743" lon="9.38195564986087"><ele>267.0</ele><time>2026-04-06T13:54:47.999Z</time></trkpt><trkpt lat="44.757456784009364" lon="9.381981413383901"><ele>267.6666666666667</ele><time>2026-04-06T13:54:48.999Z</time></trkpt><trkpt lat="44.75729951358384" lon="9.382013254742098"><ele>268.33333333333337</ele><time>2026-04-06T13:54:49.999Z</time></trkpt><trkpt lat="44.757145237515104" lon="9.38203904975686"><ele>269.0</ele><time>2026-04-06T13:54:50.999Z</time></trkpt><trkpt lat="44.75700525603852" lon="9.382060699868033"><ele>269.0</ele><time>2026-04-06T13:54:51.999Z</time></trkpt><trkpt lat="44.75690166590388" lon="9.382066838666704"><ele>269.0</ele><time>2026-04-06T13:54:52.999Z</time></trkpt><trkpt lat="44.75682374719268" lon="9.382065940860834"><ele>269.0</ele><time>2026-04-06T13:54:53.999Z</time></trkpt><trkpt lat="44.75675741589314" lon="9.382061775613705"><ele>269.0</ele><time>2026-04-06T13:54:54.999Z</time></trkpt><trkpt lat="44.756667640797765" lon="9.38204955910319"><ele>269.0</ele><time>2026-04-06T13:54:56.999Z</time></trkpt><trkpt lat="44.75656913508084" lon="9.382036909784771"><ele>269.0</ele><time>2026-04-06T13:54:58.999Z</time></trkpt><trkpt lat="44.75650472669418" lon="9.382020139134967"><ele>269.33333333333337</ele><time>2026-04-06T13:54:59.999Z</time></trkpt><trkpt lat="44.75643647948393" lon="9.38200096417498"><ele>269.6666666666667</ele><time>2026-04-06T13:55:00.999Z</time></trkpt><trkpt lat="44.7563697674341" lon="9.381982377230289"><ele>270.0</ele><time>2026-04-06T13:55:01.999Z</time></trkpt><trkpt lat="44.75629648542449" lon="9.381950007914053"><ele>270.3333333333333</ele><time>2026-04-06T13:55:02.999Z</time></trkpt><trkpt lat="44.75621633386206" lon="9.38191301806357"><ele>270.66666666666663</ele><time>2026-04-06T13:55:03.999Z</time></trkpt><trkpt lat="44.75612875264165" lon="9.38186518360036"><ele>271.0</ele><time>2026-04-06T13:55:04.999Z</time></trkpt><trkpt lat="44.756044187762825" lon="9.381808704543614"><ele>270.75</ele><time>2026-04-06T13:55:05.999Z</time></trkpt><trkpt lat="44.75595414162741" lon="9.38173684026492"><ele>270.5</ele><time>2026-04-06T13:55:06.999Z</time></trkpt><trkpt lat="44.75585969148883" lon="9.381654719550523"><ele>270.25</ele><time>2026-04-06T13:55:07.999Z</time></trkpt><trkpt lat="44.75575357307072" lon="9.38156178032566"><ele>270.0</ele><time>2026-04-06T13:55:08.999Z</time></trkpt><trkpt lat="44.755647455432964" lon="9.381465497910424"><ele>270.0</ele><time>2026-04-06T13:55:09.999Z</time></trkpt><trkpt lat="44.75553630621443" lon="9.381371372467813"><ele>270.0</ele><time>2026-04-06T13:55:10.999Z</time></trkpt><trkpt lat="44.75543281299229" lon="9.381274202236954"><ele>270.0</ele><time>2026-04-06T13:55:11.999Z</time></trkpt><trkpt lat="44.7553331047196" lon="9.38118438735539"><ele>270.0</ele><time>2026-04-06T13:55:12.999Z</time></trkpt><trkpt lat="44.75524154279402" lon="9.38109726372304"><ele>270.25</ele><time>2026-04-06T13:55:13.999Z</time></trkpt><trkpt lat="44.755140738390295" lon="9.381002301980864"><ele>270.5</ele><time>2026-04-06T13:55:14.999Z</time></trkpt><trkpt lat="44.75503202538105" lon="9.380894542435724"><ele>270.75</ele><time>2026-04-06T13:55:15.999Z</time></trkpt><trkpt lat="44.754910573309814" lon="9.38078022277668"><ele>271.0</ele><time>2026-04-06T13:55:16.999Z</time></trkpt><trkpt lat="44.75478041224382" lon="9.380663730818624"><ele>271.0</ele><time>2026-04-06T13:55:17.999Z</time></trkpt><trkpt lat="44.75464185493866" lon="9.380539341529053"><ele>271.0</ele><time>2026-04-06T13:55:18.999Z</time></trkpt><trkpt lat="44.75450931984178" lon="9.380419236137268"><ele>271.0</ele><time>2026-04-06T13:55:19.999Z</time></trkpt><trkpt lat="44.75436872124069" lon="9.380298272960246"><ele>271.0</ele><time>2026-04-06T13:55:20.999Z</time></trkpt><trkpt lat="44.754229546882144" lon="9.380177277979048"><ele>271.0</ele><time>2026-04-06T13:55:21.999Z</time></trkpt><trkpt lat="44.75408772823722" lon="9.380064330865004"><ele>271.0</ele><time>2026-04-06T13:55:22.999Z</time></trkpt><trkpt lat="44.753936180450204" lon="9.379980641379579"><ele>271.0</ele><time>2026-04-06T13:55:23.999Z</time></trkpt><trkpt lat="44.75377080140925" lon="9.379922837550827"><ele>271.0</ele><time>2026-04-06T13:55:24.999Z</time></trkpt><trkpt lat="44.753603429557366" lon="9.37988529735569"><ele>271.0</ele><time>2026-04-06T13:55:25.999Z</time></trkpt><trkpt lat="44.75342942484211" lon="9.379866719063951"><ele>268.66666666666663</ele><time>2026-04-06T13:55:26.999Z</time></trkpt><trkpt lat="44.75325381324396" lon="9.379855563570874"><ele>266.3333333333333</ele><time>2026-04-06T13:55:27.999Z</time></trkpt><trkpt lat="44.753078536646306" lon="9.379848948258573"><ele>264.0</ele><time>2026-04-06T13:55:28.999Z</time></trkpt><trkpt lat="44.75290252080083" lon="9.379827657798923"><ele>264.0</ele><time>2026-04-06T13:55:29.999Z</time></trkpt><trkpt lat="44.75271894594551" lon="9.379808270963528"><ele>264.0</ele><time>2026-04-06T13:55:30.999Z</time></trkpt><trkpt lat="44.752533924797646" lon="9.379795228016789"><ele>264.0</ele><time>2026-04-06T13:55:31.999Z</time></trkpt><trkpt lat="44.75235293132765" lon="9.37977834439842"><ele>264.3333333333333</ele><time>2026-04-06T13:55:32.999Z</time></trkpt><trkpt lat="44.7521701100662" lon="9.37976336156065"><ele>264.66666666666663</ele><time>2026-04-06T13:55:33.999Z</time></trkpt><trkpt lat="44.75198566891418" lon="9.379748968958802"><ele>265.0</ele><time>2026-04-06T13:55:34.999Z</time></trkpt><trkpt lat="44.75179866261019" lon="9.379735705384395"><ele>265.0</ele><time>2026-04-06T13:55:35.999Z</time></trkpt><trkpt lat="44.7516160234498" lon="9.379718886792183"><ele>265.0</ele><time>2026-04-06T13:55:36.999Z</time></trkpt><trkpt lat="44.751439421181416" lon="9.379701554128546"><ele>265.0</ele><time>2026-04-06T13:55:37.999Z</time></trkpt><trkpt lat="44.751274231965176" lon="9.379684003978253"><ele>264.66666666666663</ele><time>2026-04-06T13:55:38.999Z</time></trkpt><trkpt lat="44.751111785342246" lon="9.37967219777735"><ele>264.3333333333333</ele><time>2026-04-06T13:55:39.999Z</time></trkpt><trkpt lat="44.75095132962955" lon="9.379657528352789"><ele>264.0</ele><time>2026-04-06T13:55:40.999Z</time></trkpt><trkpt lat="44.75079148752106" lon="9.379646072505853"><ele>265.0</ele><time>2026-04-06T13:55:41.999Z</time></trkpt><trkpt lat="44.750631441658534" lon="9.379635065043704"><ele>266.0</ele><time>2026-04-06T13:55:42.999Z</time></trkpt><trkpt lat="44.750468449359985" lon="9.37962221410597"><ele>267.0</ele><time>2026-04-06T13:55:43.999Z</time></trkpt><trkpt lat="44.750304019736014" lon="9.379620080157702"><ele>267.0</ele><time>2026-04-06T13:55:44.999Z</time></trkpt><trkpt lat="44.75013788996347" lon="9.379643302428072"><ele>267.0</ele><time>2026-04-06T13:55:45.999Z</time></trkpt><trkpt lat="44.7499757366015" lon="9.379695490168642"><ele>267.0</ele><time>2026-04-06T13:55:46.999Z</time></trkpt><trkpt lat="44.749813920934464" lon="9.379772380940416"><ele>268.0</ele><time>2026-04-06T13:55:47.999Z</time></trkpt><trkpt lat="44.74965722958168" lon="9.379869531119331"><ele>269.0</ele><time>2026-04-06T13:55:48.999Z</time></trkpt><trkpt lat="44.74951001514585" lon="9.37998459999002"><ele>270.0</ele><time>2026-04-06T13:55:49.999Z</time></trkpt><trkpt lat="44.74937095040693" lon="9.38011785115021"><ele>272.0</ele><time>2026-04-06T13:55:50.999Z</time></trkpt><trkpt lat="44.749244555752846" lon="9.380271035207489"><ele>274.0</ele><time>2026-04-06T13:55:51.999Z</time></trkpt><trkpt lat="44.74913223205449" lon="9.380441146398416"><ele>276.0</ele><time>2026-04-06T13:55:52.999Z</time></trkpt><trkpt lat="44.749035555318855" lon="9.38061839652824"><ele>279.0</ele><time>2026-04-06T13:55:53.999Z</time></trkpt><trkpt lat="44.74894068921634" lon="9.380805979644716"><ele>282.0</ele><time>2026-04-06T13:55:54.999Z</time></trkpt><trkpt lat="44.748860920452934" lon="9.38101283761294"><ele>285.0</ele><time>2026-04-06T13:55:55.999Z</time></trkpt><trkpt lat="44.74879867111621" lon="9.381233674847458"><ele>289.6666666666667</ele><time>2026-04-06T13:55:56.999Z</time></trkpt><trkpt lat="44.74874835445308" lon="9.381456576719113"><ele>294.33333333333337</ele><time>2026-04-06T13:55:57.999Z</time></trkpt><trkpt lat="44.74872180281766" lon="9.381691244833073"><ele>299.0</ele><time>2026-04-06T13:55:58.999Z</time></trkpt><trkpt lat="44.748707865802345" lon="9.381932842945309"><ele>299.0</ele><time>2026-04-06T13:55:59.999Z</time></trkpt><trkpt lat="44.74870473478922" lon="9.382176826005036"><ele>299.0</ele><time>2026-04-06T13:56:00.999Z</time></trkpt><trkpt lat="44.74871990667302" lon="9.382414829298517"><ele>299.0</ele><time>2026-04-06T13:56:01.999Z</time></trkpt><trkpt lat="44.748751617263466" lon="9.382653580697893"><ele>301.33333333333337</ele><time>2026-04-06T13:56:02.999Z</time></trkpt><trkpt lat="44.74879586138489" lon="9.382896452547422"><ele>303.6666666666667</ele><time>2026-04-06T13:56:03.999Z</time></trkpt><trkpt lat="44.7488413486919" lon="9.383141622149912"><ele>306.0</ele><time>2026-04-06T13:56:04.999Z</time></trkpt><trkpt lat="44.748885811624206" lon="9.383385546115088"><ele>306.3333333333333</ele><time>2026-04-06T13:56:05.999Z</time></trkpt><trkpt lat="44.74892313351275" lon="9.383636866865972"><ele>306.66666666666663</ele><time>2026-04-06T13:56:06.999Z</time></trkpt><trkpt lat="44.74894483863671" lon="9.383897285193237"><ele>307.0</ele><time>2026-04-06T13:56:07.999Z</time></trkpt><trkpt lat="44.748954287071506" lon="9.384152840941601"><ele>307.66666666666663</ele><time>2026-04-06T13:56:08.999Z</time></trkpt><trkpt lat="44.748957464442135" lon="9.384406974530028"><ele>308.3333333333333</ele><time>2026-04-06T13:56:09.999Z</time></trkpt><trkpt lat="44.74895337965416" lon="9.384664304597276"><ele>309.0</ele><time>2026-04-06T13:56:10.999Z</time></trkpt><trkpt lat="44.74895110498668" lon="9.384921568382401"><ele>309.0</ele><time>2026-04-06T13:56:11.999Z</time></trkpt><trkpt lat="44.74895605574192" lon="9.385169492160358"><ele>309.0</ele><time>2026-04-06T13:56:12.999Z</time></trkpt><trkpt lat="44.748960195533556" lon="9.385414282859507"><ele>309.0</ele><time>2026-04-06T13:56:13.999Z</time></trkpt><trkpt lat="44.74896164652096" lon="9.385644131657335"><ele>311.6666666666667</ele><time>2026-04-06T13:56:14.999Z</time></trkpt><trkpt lat="44.74895700231909" lon="9.385872708445818"><ele>314.33333333333337</ele><time>2026-04-06T13:56:15.999Z</time></trkpt><trkpt lat="44.74894681192573" lon="9.386106998434009"><ele>317.0</ele><time>2026-04-06T13:56:16.999Z</time></trkpt><trkpt lat="44.74892696551931" lon="9.386347873164299"><ele>321.6666666666667</ele><time>2026-04-06T13:56:17.999Z</time></trkpt><trkpt lat="44.7488959933798" lon="9.386586966557317"><ele>326.3333333333333</ele><time>2026-04-06T13:56:18.998Z</time></trkpt><trkpt lat="44.748854961213425" lon="9.386824206492932"><ele>331.0</ele><time>2026-04-06T13:56:19.998Z</time></trkpt><trkpt lat="44.74880598238234" lon="9.38705544644828"><ele>336.3333333333333</ele><time>2026-04-06T13:56:20.998Z</time></trkpt><trkpt lat="44.74874998054105" lon="9.387279069950058"><ele>341.6666666666667</ele><time>2026-04-06T13:56:21.998Z</time></trkpt><trkpt lat="44.74868721691087" lon="9.387510494637239"><ele>347.0</ele><time>2026-04-06T13:56:22.998Z</time></trkpt><trkpt lat="44.7486103463083" lon="9.38773350553463"><ele>333.6666666666667</ele><time>2026-04-06T13:56:23.998Z</time></trkpt><trkpt lat="44.74851337581518" lon="9.387925833422802"><ele>320.3333333333333</ele><time>2026-04-06T13:56:24.998Z</time></trkpt><trkpt lat="44.74838916229986" lon="9.38809617285154"><ele>307.0</ele><time>2026-04-06T13:56:25.998Z</time></trkpt><trkpt lat="44.748313488069535" lon="9.388280755557926"><ele>307.0</ele><time>2026-04-06T13:56:26.998Z</time></trkpt><trkpt lat="44.74824265641457" lon="9.388446495907544"><ele>307.0</ele><time>2026-04-06T13:56:27.998Z</time></trkpt><trkpt lat="44.74817958364735" lon="9.38883111103942"><ele>307.0</ele><time>2026-04-06T13:56:28.998Z</time></trkpt><trkpt lat="44.74807632927876" lon="9.389020929843202"><ele>317.0</ele><time>2026-04-06T13:56:29.998Z</time></trkpt><trkpt lat="44.74797856890135" lon="9.389204283952342"><ele>327.0</ele><time>2026-04-06T13:56:30.998Z</time></trkpt><trkpt lat="44.74786794565763" lon="9.38937337801662"><ele>337.0</ele><time>2026-04-06T13:56:31.998Z</time></trkpt><trkpt lat="44.74774552452908" lon="9.389531581388527"><ele>332.66666666666663</ele><time>2026-04-06T13:56:32.998Z</time></trkpt><trkpt lat="44.74760919511442" lon="9.38967984148301"><ele>328.3333333333333</ele><time>2026-04-06T13:56:33.998Z</time></trkpt><trkpt lat="44.74746219782227" lon="9.38980698461745"><ele>324.0</ele><time>2026-04-06T13:56:34.999Z</time></trkpt><trkpt lat="44.74730059911898" lon="9.389915722262506"><ele>324.0</ele><time>2026-04-06T13:56:35.999Z</time></trkpt><trkpt lat="44.74713426402602" lon="9.390001045385093"><ele>324.0</ele><time>2026-04-06T13:56:36.999Z</time></trkpt><trkpt lat="44.74696289709467" lon="9.390065286600258"><ele>324.0</ele><time>2026-04-06T13:56:37.999Z</time></trkpt><trkpt lat="44.746787264501535" lon="9.390102391756516"><ele>318.0</ele><time>2026-04-06T13:56:38.999Z</time></trkpt><trkpt lat="44.74660992997402" lon="9.390117384659067"><ele>312.0</ele><time>2026-04-06T13:56:39.999Z</time></trkpt><trkpt lat="44.746436491299" lon="9.390105307879285"><ele>306.0</ele><time>2026-04-06T13:56:40.999Z</time></trkpt><trkpt lat="44.746259176482894" lon="9.390068192966375"><ele>306.0</ele><time>2026-04-06T13:56:41.999Z</time></trkpt><trkpt lat="44.74608388560079" lon="9.390013221009504"><ele>306.0</ele><time>2026-04-06T13:56:42.999Z</time></trkpt><trkpt lat="44.74591337965034" lon="9.389944127643146"><ele>306.0</ele><time>2026-04-06T13:56:43.999Z</time></trkpt><trkpt lat="44.74574523920721" lon="9.389865485167823"><ele>301.0</ele><time>2026-04-06T13:56:44.999Z</time></trkpt><trkpt lat="44.74558594452235" lon="9.38976855179852"><ele>296.0</ele><time>2026-04-06T13:56:45.999Z</time></trkpt><trkpt lat="44.745428154970035" lon="9.389652722944293"><ele>291.0</ele><time>2026-04-06T13:56:46.999Z</time></trkpt><trkpt lat="44.74527003178559" lon="9.389534072139519"><ele>298.6666666666667</ele><time>2026-04-06T13:56:47.999Z</time></trkpt><trkpt lat="44.745114978708315" lon="9.389417724949267"><ele>306.33333333333337</ele><time>2026-04-06T13:56:48.999Z</time></trkpt><trkpt lat="44.744955663175936" lon="9.389322280930488"><ele>314.0</ele><time>2026-04-06T13:56:49.999Z</time></trkpt><trkpt lat="44.7448016836169" lon="9.389217936903712"><ele>314.0</ele><time>2026-04-06T13:56:50.999Z</time></trkpt><trkpt lat="44.744648257315575" lon="9.38911678440994"><ele>314.0</ele><time>2026-04-06T13:56:51.999Z</time></trkpt><trkpt lat="44.744490138279886" lon="9.38904769930357"><ele>314.0</ele><time>2026-04-06T13:56:52.999Z</time></trkpt><trkpt lat="44.74432412476447" lon="9.388996342575178"><ele>319.33333333333337</ele><time>2026-04-06T13:56:53.999Z</time></trkpt><trkpt lat="44.74415489085012" lon="9.388964032614329"><ele>324.6666666666667</ele><time>2026-04-06T13:56:54.999Z</time></trkpt><trkpt lat="44.74398425953546" lon="9.388951859745491"><ele>330.0</ele><time>2026-04-06T13:56:55.999Z</time></trkpt><trkpt lat="44.7438123697955" lon="9.388968268542705"><ele>330.0</ele><time>2026-04-06T13:56:56.999Z</time></trkpt><trkpt lat="44.74365306295564" lon="9.388994966485736"><ele>330.0</ele><time>2026-04-06T13:56:57.999Z</time></trkpt><trkpt lat="44.74351714722457" lon="9.38901039606718"><ele>330.0</ele><time>2026-04-06T13:56:58.999Z</time></trkpt><trkpt lat="44.74340368265543" lon="9.389005378602077"><ele>330.0</ele><time>2026-04-06T13:56:59.999Z</time></trkpt><trkpt lat="44.74331311943653" lon="9.388981295771739"><ele>332.8333333333333</ele><time>2026-04-06T13:57:00.999Z</time></trkpt><trkpt lat="44.74322617307625" lon="9.388951937982332"><ele>335.6666666666667</ele><time>2026-04-06T13:57:01.999Z</time></trkpt><trkpt lat="44.743148482007534" lon="9.38891711075673"><ele>338.5</ele><time>2026-04-06T13:57:02.999Z</time></trkpt><trkpt lat="44.74307562679054" lon="9.388885759927994"><ele>341.33333333333337</ele><time>2026-04-06T13:57:03.999Z</time></trkpt><trkpt lat="44.74301125253204" lon="9.388859615359108"><ele>344.1666666666667</ele><time>2026-04-06T13:57:04.999Z</time></trkpt><trkpt lat="44.74291224222407" lon="9.388799582255908"><ele>347.0</ele><time>2026-04-06T13:57:06.999Z</time></trkpt><trkpt lat="44.74282980705727" lon="9.388742388594855"><ele>344.6666666666667</ele><time>2026-04-06T13:57:08.999Z</time></trkpt><trkpt lat="44.7427696985705" lon="9.388713713198998"><ele>342.33333333333337</ele><time>2026-04-06T13:57:10.999Z</time></trkpt><trkpt lat="44.74269047018419" lon="9.38867890127673"><ele>340.0</ele><time>2026-04-06T13:58:21Z</time></trkpt><trkpt lat="44.742621174889976" lon="9.388639926143911"><ele>337.6666666666667</ele><time>2026-04-06T13:58:22Z</time></trkpt><trkpt lat="44.74253243797566" lon="9.388586667427683"><ele>335.3333333333333</ele><time>2026-04-06T13:58:23Z</time></trkpt><trkpt lat="44.742458288932546" lon="9.388544702601996"><ele>333.0</ele><time>2026-04-06T13:58:24Z</time></trkpt><trkpt lat="44.74237287270994" lon="9.388488709144072"><ele>333.0</ele><time>2026-04-06T13:58:24.998Z</time></trkpt><trkpt lat="44.74227835707109" lon="9.38843480934235"><ele>333.0</ele><time>2026-04-06T13:58:25.998Z</time></trkpt><trkpt lat="44.74220335894018" lon="9.388369256975308"><ele>333.0</ele><time>2026-04-06T13:58:26.998Z</time></trkpt><trkpt lat="44.742116099209184" lon="9.38831738127152"><ele>333.0</ele><time>2026-04-06T13:58:27.998Z</time></trkpt><trkpt lat="44.7420329908046" lon="9.388267973368524"><ele>333.0</ele><time>2026-04-06T13:58:29.013Z</time></trkpt><trkpt lat="44.741947727781834" lon="9.388217284614859"><ele>338.75</ele><time>2026-04-06T13:58:30.016Z</time></trkpt><trkpt lat="44.7418538541665" lon="9.388161476894899"><ele>344.5</ele><time>2026-04-06T13:58:31.017Z</time></trkpt><trkpt lat="44.741762648397405" lon="9.388107255143119"><ele>350.25</ele><time>2026-04-06T13:58:32.016Z</time></trkpt><trkpt lat="44.74168140632384" lon="9.38805895682814"><ele>356.0</ele><time>2026-04-06T13:58:33.017Z</time></trkpt><trkpt lat="44.74026120737636" lon="9.387249173605243"><ele>346.0</ele><time>2026-04-06T13:58:40.999Z</time></trkpt><trkpt lat="44.74011766598608" lon="9.387188079931837"><ele>336.0</ele><time>2026-04-06T13:58:41.999Z</time></trkpt><trkpt lat="44.73996342312688" lon="9.387196834936127"><ele>326.0</ele><time>2026-04-06T13:58:42.999Z</time></trkpt><trkpt lat="44.73983415371599" lon="9.387188379728181"><ele>316.0</ele><time>2026-04-06T13:58:43.999Z</time></trkpt><trkpt lat="44.739693210454945" lon="9.38719749536174"><ele>316.0</ele><time>2026-04-06T13:58:44.999Z</time></trkpt><trkpt lat="44.73953639008521" lon="9.387218232047829"><ele>316.0</ele><time>2026-04-06T13:58:45.999Z</time></trkpt><trkpt lat="44.73936650171303" lon="9.387288919071413"><ele>316.0</ele><time>2026-04-06T13:58:46.999Z</time></trkpt><trkpt lat="44.739220488089494" lon="9.387366854051347"><ele>320.0</ele><time>2026-04-06T13:58:47.999Z</time></trkpt><trkpt lat="44.73908425644276" lon="9.38745365560692"><ele>324.0</ele><time>2026-04-06T13:58:48.999Z</time></trkpt><trkpt lat="44.73895104188302" lon="9.387564484033515"><ele>328.0</ele><time>2026-04-06T13:58:49.999Z</time></trkpt><trkpt lat="44.738821531432514" lon="9.387699466526641"><ele>328.0</ele><time>2026-04-06T13:58:50.999Z</time></trkpt><trkpt lat="44.738689847911914" lon="9.387858525402105"><ele>328.0</ele><time>2026-04-06T13:58:51.999Z</time></trkpt><trkpt lat="44.7385538306231" lon="9.388019558712736"><ele>328.0</ele><time>2026-04-06T13:58:52.999Z</time></trkpt><trkpt lat="44.738413430114875" lon="9.388201947101825"><ele>327.3333333333333</ele><time>2026-04-06T13:58:53.999Z</time></trkpt><trkpt lat="44.738274856889554" lon="9.388364560812905"><ele>326.6666666666667</ele><time>2026-04-06T13:58:54.999Z</time></trkpt><trkpt lat="44.738134004015635" lon="9.388528157789386"><ele>326.0</ele><time>2026-04-06T13:58:55.999Z</time></trkpt><trkpt lat="44.737989423927324" lon="9.388694258239573"><ele>328.33333333333337</ele><time>2026-04-06T13:58:56.999Z</time></trkpt><trkpt lat="44.73783855449192" lon="9.388858916571795"><ele>330.6666666666667</ele><time>2026-04-06T13:58:57.999Z</time></trkpt><trkpt lat="44.737684076591414" lon="9.389014358497484"><ele>333.0</ele><time>2026-04-06T13:58:58.999Z</time></trkpt><trkpt lat="44.73753214572502" lon="9.389157986025083"><ele>333.0</ele><time>2026-04-06T13:58:59.999Z</time></trkpt><trkpt lat="44.73738824977315" lon="9.38928712213937"><ele>333.0</ele><time>2026-04-06T13:59:00.999Z</time></trkpt><trkpt lat="44.73726821957791" lon="9.38938704941669"><ele>333.0</ele><time>2026-04-06T13:59:01.999Z</time></trkpt><trkpt lat="44.737138574512656" lon="9.389471425277765"><ele>333.0</ele><time>2026-04-06T13:59:02.999Z</time></trkpt><trkpt lat="44.73699938174374" lon="9.389540356205636"><ele>333.0</ele><time>2026-04-06T13:59:03.999Z</time></trkpt><trkpt lat="44.73684479847036" lon="9.389597102559401"><ele>333.0</ele><time>2026-04-06T13:59:04.999Z</time></trkpt><trkpt lat="44.73667928460395" lon="9.389638888103937"><ele>330.0</ele><time>2026-04-06T13:59:05.999Z</time></trkpt><trkpt lat="44.736507297328316" lon="9.38965763684494"><ele>327.0</ele><time>2026-04-06T13:59:06.999Z</time></trkpt><trkpt lat="44.73632930223242" lon="9.3896669666206"><ele>324.0</ele><time>2026-04-06T13:59:08Z</time></trkpt><trkpt lat="44.73615590339652" lon="9.389674153112475"><ele>336.0</ele><time>2026-04-06T13:59:09Z</time></trkpt><trkpt lat="44.735990841330334" lon="9.389685320357142"><ele>348.0</ele><time>2026-04-06T13:59:10Z</time></trkpt><trkpt lat="44.73584064444271" lon="9.389684584288924"><ele>360.0</ele><time>2026-04-06T13:59:11Z</time></trkpt><trkpt lat="44.73569765853878" lon="9.389681915866062"><ele>360.0</ele><time>2026-04-06T13:59:12Z</time></trkpt><trkpt lat="44.735565520786785" lon="9.389680370897631"><ele>360.0</ele><time>2026-04-06T13:59:13Z</time></trkpt><trkpt lat="44.73542897825953" lon="9.389670426549264"><ele>360.0</ele><time>2026-04-06T13:59:14Z</time></trkpt><trkpt lat="44.735284431797794" lon="9.389634207581208"><ele>360.0</ele><time>2026-04-06T13:59:15Z</time></trkpt><trkpt lat="44.73514315499418" lon="9.389575143585821"><ele>350.0</ele><time>2026-04-06T13:59:16Z</time></trkpt><trkpt lat="44.73499183738161" lon="9.389513220902314"><ele>340.0</ele><time>2026-04-06T13:59:17Z</time></trkpt><trkpt lat="44.73483447892648" lon="9.389464785529887"><ele>330.0</ele><time>2026-04-06T13:59:18Z</time></trkpt><trkpt lat="44.73470428986423" lon="9.389361504702588"><ele>330.0</ele><time>2026-04-06T13:59:19Z</time></trkpt><trkpt lat="44.73458054144632" lon="9.389261281966421"><ele>330.0</ele><time>2026-04-06T13:59:20Z</time></trkpt><trkpt lat="44.7344578983684" lon="9.389188098106493"><ele>330.0</ele><time>2026-04-06T13:59:21Z</time></trkpt><trkpt lat="44.73432851709814" lon="9.38910223873241"><ele>330.0</ele><time>2026-04-06T13:59:22Z</time></trkpt><trkpt lat="44.73417772380086" lon="9.389071045398792"><ele>333.75</ele><time>2026-04-06T13:59:23Z</time></trkpt><trkpt lat="44.73402371193898" lon="9.3890407344963"><ele>337.5</ele><time>2026-04-06T13:59:24Z</time></trkpt><trkpt lat="44.733876571776094" lon="9.389029685198873"><ele>341.25</ele><time>2026-04-06T13:59:25Z</time></trkpt><trkpt lat="44.733736733450044" lon="9.38903160076996"><ele>345.0</ele><time>2026-04-06T13:59:26Z</time></trkpt><trkpt lat="44.733599431472015" lon="9.389056013060292"><ele>345.75</ele><time>2026-04-06T13:59:27Z</time></trkpt><trkpt lat="44.73346953320564" lon="9.389098112347886"><ele>346.5</ele><time>2026-04-06T13:59:28Z</time></trkpt><trkpt lat="44.73334876693584" lon="9.389134184010684"><ele>347.25</ele><time>2026-04-06T13:59:29Z</time></trkpt><trkpt lat="44.733238635957484" lon="9.389081566703826"><ele>348.0</ele><time>2026-04-06T13:59:30Z</time></trkpt><trkpt lat="44.73311789225701" lon="9.389031628142938"><ele>348.0</ele><time>2026-04-06T13:59:31Z</time></trkpt><trkpt lat="44.73298191640499" lon="9.389016224751028"><ele>348.0</ele><time>2026-04-06T13:59:32Z</time></trkpt><trkpt lat="44.73284084872347" lon="9.389014329863649"><ele>348.0</ele><time>2026-04-06T13:59:33Z</time></trkpt><trkpt lat="44.73269145908434" lon="9.389013099431661"><ele>348.0</ele><time>2026-04-06T13:59:34Z</time></trkpt><trkpt lat="44.7325545139268" lon="9.389003923708863"><ele>351.5</ele><time>2026-04-06T13:59:35Z</time></trkpt><trkpt lat="44.73245753664875" lon="9.388970272679737"><ele>355.0</ele><time>2026-04-06T13:59:36Z</time></trkpt><trkpt lat="44.73238242638316" lon="9.388920054015642"><ele>358.5</ele><time>2026-04-06T13:59:37Z</time></trkpt><trkpt lat="44.73233141489796" lon="9.388841351777417"><ele>362.0</ele><time>2026-04-06T13:59:38Z</time></trkpt><trkpt lat="44.73228601432419" lon="9.388718028218944"><ele>365.5</ele><time>2026-04-06T13:59:39Z</time></trkpt><trkpt lat="44.73222679361235" lon="9.388640620375767"><ele>369.0</ele><time>2026-04-06T13:59:40Z</time></trkpt><trkpt lat="44.73214737744706" lon="9.388579136898736"><ele>362.0</ele><time>2026-04-06T13:59:41Z</time></trkpt><trkpt lat="44.732050302570855" lon="9.38852243866036"><ele>355.0</ele><time>2026-04-06T13:59:42Z</time></trkpt><trkpt lat="44.73193810586508" lon="9.38847708010753"><ele>348.0</ele><time>2026-04-06T13:59:43Z</time></trkpt><trkpt lat="44.731818571717454" lon="9.388422419481184"><ele>341.0</ele><time>2026-04-06T13:59:44Z</time></trkpt><trkpt lat="44.73169457264147" lon="9.388371279716367"><ele>341.0</ele><time>2026-04-06T13:59:45Z</time></trkpt><trkpt lat="44.731570569525566" lon="9.388364974639734"><ele>341.0</ele><time>2026-04-06T13:59:46Z</time></trkpt><trkpt lat="44.73144676844931" lon="9.388400372912745"><ele>341.0</ele><time>2026-04-06T13:59:47Z</time></trkpt><trkpt lat="44.73133322787531" lon="9.38845610405476"><ele>341.0</ele><time>2026-04-06T13:59:48Z</time></trkpt><trkpt lat="44.73122553714375" lon="9.388487491990931"><ele>341.0</ele><time>2026-04-06T13:59:49Z</time></trkpt><trkpt lat="44.731126693671484" lon="9.38848384010969"><ele>341.0</ele><time>2026-04-06T13:59:50Z</time></trkpt><trkpt lat="44.731034371679065" lon="9.388449612248406"><ele>341.0</ele><time>2026-04-06T13:59:51Z</time></trkpt><trkpt lat="44.73096008124851" lon="9.38837374067183"><ele>341.0</ele><time>2026-04-06T13:59:52Z</time></trkpt><trkpt lat="44.73093519639595" lon="9.388239376866007"><ele>341.0</ele><time>2026-04-06T13:59:53Z</time></trkpt><trkpt lat="44.7308746569304" lon="9.388149476188758"><ele>344.8</ele><time>2026-04-06T13:59:54Z</time></trkpt><trkpt lat="44.73079791598368" lon="9.388082542241614"><ele>348.6</ele><time>2026-04-06T13:59:55Z</time></trkpt><trkpt lat="44.73070004748117" lon="9.38805186795853"><ele>352.4</ele><time>2026-04-06T13:59:56Z</time></trkpt><trkpt lat="44.730588352331225" lon="9.388045655167199"><ele>356.2</ele><time>2026-04-06T13:59:57Z</time></trkpt><trkpt lat="44.73047287037335" lon="9.388056643992718"><ele>360.0</ele><time>2026-04-06T13:59:58Z</time></trkpt><trkpt lat="44.73035863081812" lon="9.388000438626067"><ele>352.0</ele><time>2026-04-06T13:59:59Z</time></trkpt><trkpt lat="44.73024977702086" lon="9.387911673887379"><ele>344.0</ele><time>2026-04-06T14:00:00Z</time></trkpt><trkpt lat="44.730107422623085" lon="9.387811814426037"><ele>336.0</ele><time>2026-04-06T14:00:01Z</time></trkpt><trkpt lat="44.72992774183377" lon="9.38774880717856"><ele>336.0</ele><time>2026-04-06T14:00:02Z</time></trkpt><trkpt lat="44.729782346936034" lon="9.387669770554407"><ele>336.0</ele><time>2026-04-06T14:00:03Z</time></trkpt><trkpt lat="44.7296925659098" lon="9.387522828745393"><ele>336.0</ele><time>2026-04-06T14:00:04Z</time></trkpt><trkpt lat="44.72959018871455" lon="9.387405487381445"><ele>336.0</ele><time>2026-04-06T14:00:05Z</time></trkpt><trkpt lat="44.72947413564324" lon="9.387349811598146"><ele>345.75</ele><time>2026-04-06T14:00:06Z</time></trkpt><trkpt lat="44.72935188358806" lon="9.38732423007427"><ele>355.5</ele><time>2026-04-06T14:00:07Z</time></trkpt><trkpt lat="44.72921608170895" lon="9.387352552867146"><ele>365.25</ele><time>2026-04-06T14:00:08Z</time></trkpt><trkpt lat="44.72908083738545" lon="9.387344091037335"><ele>375.0</ele><time>2026-04-06T14:00:09Z</time></trkpt><trkpt lat="44.72894909499642" lon="9.38729189752955"><ele>375.0</ele><time>2026-04-06T14:00:10Z</time></trkpt><trkpt lat="44.72884169342984" lon="9.38720073503119"><ele>375.0</ele><time>2026-04-06T14:00:11Z</time></trkpt><trkpt lat="44.72877239695977" lon="9.387082760924415"><ele>375.0</ele><time>2026-04-06T14:00:12Z</time></trkpt><trkpt lat="44.72875374940275" lon="9.38692400630202"><ele>375.0</ele><time>2026-04-06T14:00:13Z</time></trkpt><trkpt lat="44.72870279968073" lon="9.386776371586365"><ele>371.25</ele><time>2026-04-06T14:00:14Z</time></trkpt><trkpt lat="44.728650018222424" lon="9.386683355020477"><ele>367.5</ele><time>2026-04-06T14:00:15Z</time></trkpt><trkpt lat="44.72854904679312" lon="9.386631278742714"><ele>363.75</ele><time>2026-04-06T14:00:16Z</time></trkpt><trkpt lat="44.728409015248836" lon="9.38664239919353"><ele>360.0</ele><time>2026-04-06T14:00:17Z</time></trkpt><trkpt lat="44.72826283867344" lon="9.386605378138695"><ele>360.0</ele><time>2026-04-06T14:00:18Z</time></trkpt><trkpt lat="44.72810750808087" lon="9.38655560981893"><ele>360.0</ele><time>2026-04-06T14:00:19Z</time></trkpt><trkpt lat="44.72794857685129" lon="9.386491657653233"><ele>360.0</ele><time>2026-04-06T14:00:20Z</time></trkpt><trkpt lat="44.72780494091057" lon="9.38641942617384"><ele>351.0</ele><time>2026-04-06T14:00:21Z</time></trkpt><trkpt lat="44.72766561085155" lon="9.386323571442958"><ele>342.0</ele><time>2026-04-06T14:00:22Z</time></trkpt><trkpt lat="44.72751713737211" lon="9.38620591411043"><ele>333.0</ele><time>2026-04-06T14:00:23Z</time></trkpt><trkpt lat="44.72736907344671" lon="9.386080167616404"><ele>333.0</ele><time>2026-04-06T14:00:24Z</time></trkpt><trkpt lat="44.72723531855376" lon="9.385972070940985"><ele>333.0</ele><time>2026-04-06T14:00:25Z</time></trkpt><trkpt lat="44.72711376336905" lon="9.38588452910025"><ele>333.0</ele><time>2026-04-06T14:00:26Z</time></trkpt><trkpt lat="44.72700798023734" lon="9.385792203522083"><ele>333.0</ele><time>2026-04-06T14:00:27Z</time></trkpt><trkpt lat="44.72691368701493" lon="9.385676498757132"><ele>329.0</ele><time>2026-04-06T14:00:28Z</time></trkpt><trkpt lat="44.7268446297536" lon="9.385526768981913"><ele>325.0</ele><time>2026-04-06T14:00:29Z</time></trkpt><trkpt lat="44.72675500738874" lon="9.385424891023252"><ele>321.0</ele><time>2026-04-06T14:00:30Z</time></trkpt><trkpt lat="44.72663350141062" lon="9.385368527618661"><ele>317.0</ele><time>2026-04-06T14:00:30.998Z</time></trkpt><trkpt lat="44.72651556609277" lon="9.385324625859239"><ele>317.0</ele><time>2026-04-06T14:00:31.998Z</time></trkpt><trkpt lat="44.726418063328445" lon="9.385263602488555"><ele>317.0</ele><time>2026-04-06T14:00:32.998Z</time></trkpt><trkpt lat="44.72634310944551" lon="9.385218976999042"><ele>317.0</ele><time>2026-04-06T14:00:33.998Z</time></trkpt><trkpt lat="44.7262639031882" lon="9.385211918002717"><ele>317.0</ele><time>2026-04-06T14:00:34.998Z</time></trkpt><trkpt lat="44.72618450461419" lon="9.385271205453718"><ele>317.0</ele><time>2026-04-06T14:00:35.999Z</time></trkpt><trkpt lat="44.726134210355994" lon="9.385356037717772"><ele>317.0</ele><time>2026-04-06T14:00:36.999Z</time></trkpt><trkpt lat="44.726163137768054" lon="9.385506577601323"><ele>327.0</ele><time>2026-04-06T14:00:37.999Z</time></trkpt><trkpt lat="44.726204918787005" lon="9.38562189746017"><ele>337.0</ele><time>2026-04-06T14:00:38.999Z</time></trkpt><trkpt lat="44.726250957447256" lon="9.385756339447147"><ele>347.0</ele><time>2026-04-06T14:00:39.999Z</time></trkpt><trkpt lat="44.72628815704924" lon="9.385924190074832"><ele>357.0</ele><time>2026-04-06T14:00:40.999Z</time></trkpt><trkpt lat="44.726321706576286" lon="9.386107039185118"><ele>357.0</ele><time>2026-04-06T14:00:41.999Z</time></trkpt><trkpt lat="44.726350536236005" lon="9.386285127552837"><ele>357.0</ele><time>2026-04-06T14:00:42.999Z</time></trkpt><trkpt lat="44.72638723888276" lon="9.386443687147352"><ele>357.0</ele><time>2026-04-06T14:00:43.999Z</time></trkpt><trkpt lat="44.72641758794997" lon="9.38659397221593"><ele>357.0</ele><time>2026-04-06T14:00:44.999Z</time></trkpt><trkpt lat="44.72643424872017" lon="9.386748699026894"><ele>361.75</ele><time>2026-04-06T14:00:45.999Z</time></trkpt><trkpt lat="44.72642168253692" lon="9.386924155789833"><ele>366.5</ele><time>2026-04-06T14:00:46.999Z</time></trkpt><trkpt lat="44.72638494877608" lon="9.387114007983012"><ele>371.25</ele><time>2026-04-06T14:00:47.999Z</time></trkpt><trkpt lat="44.72632496894215" lon="9.387317617186993"><ele>376.0</ele><time>2026-04-06T14:00:48.999Z</time></trkpt><trkpt lat="44.726242665937505" lon="9.387515188750154"><ele>373.66666666666663</ele><time>2026-04-06T14:00:49.999Z</time></trkpt><trkpt lat="44.726150198389185" lon="9.38771161626088"><ele>371.3333333333333</ele><time>2026-04-06T14:00:50.999Z</time></trkpt><trkpt lat="44.72605714232325" lon="9.387895883038638"><ele>369.0</ele><time>2026-04-06T14:00:51.999Z</time></trkpt><trkpt lat="44.725968839393836" lon="9.388072005337463"><ele>369.0</ele><time>2026-04-06T14:00:52.999Z</time></trkpt><trkpt lat="44.72588112163129" lon="9.388232351164598"><ele>369.0</ele><time>2026-04-06T14:00:53.999Z</time></trkpt><trkpt lat="44.7257682606774" lon="9.38837695156984"><ele>369.0</ele><time>2026-04-06T14:00:54.999Z</time></trkpt><trkpt lat="44.72563566606414" lon="9.388513119593487"><ele>369.0</ele><time>2026-04-06T14:00:55.999Z</time></trkpt><trkpt lat="44.72550148717459" lon="9.388642865942968"><ele>369.0</ele><time>2026-04-06T14:00:56.999Z</time></trkpt><trkpt lat="44.72538244006283" lon="9.388753306019753"><ele>369.0</ele><time>2026-04-06T14:00:57.999Z</time></trkpt><trkpt lat="44.72526608874" lon="9.388846299667069"><ele>369.0</ele><time>2026-04-06T14:00:58.999Z</time></trkpt><trkpt lat="44.72515022070911" lon="9.38891506479246"><ele>366.0</ele><time>2026-04-06T14:00:59.999Z</time></trkpt><trkpt lat="44.72504069752054" lon="9.388988576464909"><ele>363.0</ele><time>2026-04-06T14:01:00.999Z</time></trkpt><trkpt lat="44.72495050245517" lon="9.38909933883205"><ele>360.0</ele><time>2026-04-06T14:01:01.999Z</time></trkpt><trkpt lat="44.72488895636732" lon="9.389258625661999"><ele>357.0</ele><time>2026-04-06T14:01:02.999Z</time></trkpt><trkpt lat="44.72484263355082" lon="9.38943702178017"><ele>357.0</ele><time>2026-04-06T14:01:03.999Z</time></trkpt><trkpt lat="44.72480670774552" lon="9.389602562997727"><ele>357.0</ele><time>2026-04-06T14:01:05Z</time></trkpt><trkpt lat="44.72476952018021" lon="9.389750372697907"><ele>357.0</ele><time>2026-04-06T14:01:06Z</time></trkpt><trkpt lat="44.72473696928138" lon="9.389881821541445"><ele>357.0</ele><time>2026-04-06T14:01:07Z</time></trkpt><trkpt lat="44.72472207606382" lon="9.390009677849388"><ele>357.0</ele><time>2026-04-06T14:01:08Z</time></trkpt><trkpt lat="44.72474560903492" lon="9.390134095735716"><ele>357.40000000000003</ele><time>2026-04-06T14:01:09Z</time></trkpt><trkpt lat="44.72479281531806" lon="9.390244273780253"><ele>357.8</ele><time>2026-04-06T14:01:10Z</time></trkpt><trkpt lat="44.724850682328295" lon="9.390347063366585"><ele>358.2</ele><time>2026-04-06T14:01:11Z</time></trkpt><trkpt lat="44.72491186999714" lon="9.39044636660323"><ele>358.6</ele><time>2026-04-06T14:01:12Z</time></trkpt><trkpt lat="44.724946268502386" lon="9.390557020248005"><ele>359.0</ele><time>2026-04-06T14:01:13Z</time></trkpt><trkpt lat="44.724942622648335" lon="9.390680513944318"><ele>356.25</ele><time>2026-04-06T14:01:14Z</time></trkpt><trkpt lat="44.72488889845723" lon="9.390799514742296"><ele>353.5</ele><time>2026-04-06T14:01:15Z</time></trkpt><trkpt lat="44.7248669058058" lon="9.390942993826053"><ele>350.75</ele><time>2026-04-06T14:01:16Z</time></trkpt><trkpt lat="44.724826196203686" lon="9.391105544260206"><ele>348.0</ele><time>2026-04-06T14:01:17Z</time></trkpt><trkpt lat="44.724787231935245" lon="9.391278530755104"><ele>351.5</ele><time>2026-04-06T14:01:18Z</time></trkpt><trkpt lat="44.724747541799715" lon="9.391458617976374"><ele>355.0</ele><time>2026-04-06T14:01:19Z</time></trkpt><trkpt lat="44.724702606535914" lon="9.391641882855307"><ele>358.5</ele><time>2026-04-06T14:01:20Z</time></trkpt><trkpt lat="44.72464831073488" lon="9.391830155586357"><ele>362.0</ele><time>2026-04-06T14:01:21Z</time></trkpt><trkpt lat="44.72459506494257" lon="9.392020035603228"><ele>366.25</ele><time>2026-04-06T14:01:22Z</time></trkpt><trkpt lat="44.724545069307624" lon="9.392197492730913"><ele>370.5</ele><time>2026-04-06T14:01:23Z</time></trkpt><trkpt lat="44.724495412820424" lon="9.392375256145328"><ele>374.75</ele><time>2026-04-06T14:01:24Z</time></trkpt><trkpt lat="44.72442145546269" lon="9.392513834173393"><ele>379.0</ele><time>2026-04-06T14:01:25Z</time></trkpt><trkpt lat="44.724348726045356" lon="9.392682241220397"><ele>375.75</ele><time>2026-04-06T14:01:26Z</time></trkpt><trkpt lat="44.72425113371903" lon="9.392837525151915"><ele>372.5</ele><time>2026-04-06T14:01:27Z</time></trkpt><trkpt lat="44.724152107429" lon="9.392997529420628"><ele>369.25</ele><time>2026-04-06T14:01:28Z</time></trkpt><trkpt lat="44.724058044866695" lon="9.393146786754826"><ele>366.0</ele><time>2026-04-06T14:01:29Z</time></trkpt><trkpt lat="44.72397239876153" lon="9.393272269447502"><ele>366.0</ele><time>2026-04-06T14:01:30Z</time></trkpt><trkpt lat="44.72391105282819" lon="9.393374775629729"><ele>366.0</ele><time>2026-04-06T14:01:31Z</time></trkpt><trkpt lat="44.72387239358211" lon="9.393464091327418"><ele>366.0</ele><time>2026-04-06T14:01:32Z</time></trkpt><trkpt lat="44.7238301587427" lon="9.393532192891188"><ele>366.0</ele><time>2026-04-06T14:01:33Z</time></trkpt><trkpt lat="44.7237574321279" lon="9.393611161905802"><ele>366.0</ele><time>2026-04-06T14:01:35Z</time></trkpt><trkpt lat="44.72366389628308" lon="9.393698461359273"><ele>366.0</ele><time>2026-04-06T14:02:13Z</time></trkpt><trkpt lat="44.72358282361339" lon="9.393728899795203"><ele>366.4</ele><time>2026-04-06T14:02:14Z</time></trkpt><trkpt lat="44.72349948945359" lon="9.39379963423042"><ele>366.8</ele><time>2026-04-06T14:02:15.001Z</time></trkpt><trkpt lat="44.72342040558447" lon="9.393834801602654"><ele>367.2</ele><time>2026-04-06T14:02:16.001Z</time></trkpt><trkpt lat="44.72333578625313" lon="9.393871030573864"><ele>367.59999999999997</ele><time>2026-04-06T14:02:17.001Z</time></trkpt><trkpt lat="44.72325058621818" lon="9.39390621379602"><ele>368.0</ele><time>2026-04-06T14:02:18.001Z</time></trkpt><trkpt lat="44.72314289308842" lon="9.393944893557377"><ele>368.0</ele><time>2026-04-06T14:02:19.001Z</time></trkpt><trkpt lat="44.7230204351088" lon="9.393988166530745"><ele>368.0</ele><time>2026-04-06T14:02:20.001Z</time></trkpt><trkpt lat="44.72291612106982" lon="9.394023187967685"><ele>368.0</ele><time>2026-04-06T14:02:21.001Z</time></trkpt><trkpt lat="44.722830228384375" lon="9.394070453460099"><ele>368.0</ele><time>2026-04-06T14:02:22.001Z</time></trkpt><trkpt lat="44.72274328854698" lon="9.394120955197112"><ele>368.0</ele><time>2026-04-06T14:02:23.001Z</time></trkpt><trkpt lat="44.72266879912461" lon="9.394221536076813"><ele>362.4</ele><time>2026-04-06T14:02:24.001Z</time></trkpt><trkpt lat="44.72261563718047" lon="9.394384453209101"><ele>356.79999999999995</ele><time>2026-04-06T14:02:25.001Z</time></trkpt><trkpt lat="44.722587823063826" lon="9.394478408288041"><ele>351.2</ele><time>2026-04-06T14:02:26.001Z</time></trkpt><trkpt lat="44.722484261988384" lon="9.394566569400968"><ele>345.6</ele><time>2026-04-06T14:02:28.001Z</time></trkpt><trkpt lat="44.72238990533157" lon="9.39451169530138"><ele>340.0</ele><time>2026-04-06T14:02:29.001Z</time></trkpt><trkpt lat="44.72230559885142" lon="9.39439673668193"><ele>340.0</ele><time>2026-04-06T14:02:30.001Z</time></trkpt><trkpt lat="44.72222153451771" lon="9.39423990750999"><ele>340.0</ele><time>2026-04-06T14:02:31.001Z</time></trkpt><trkpt lat="44.722123982032386" lon="9.394093546856556"><ele>340.0</ele><time>2026-04-06T14:02:32.001Z</time></trkpt><trkpt lat="44.7220177308254" lon="9.393970507859176"><ele>340.0</ele><time>2026-04-06T14:02:33.001Z</time></trkpt><trkpt lat="44.721906615725544" lon="9.393884371630252"><ele>339.4</ele><time>2026-04-06T14:02:34.001Z</time></trkpt><trkpt lat="44.72180037463054" lon="9.393827286773417"><ele>338.8</ele><time>2026-04-06T14:02:35.001Z</time></trkpt><trkpt lat="44.721690846394665" lon="9.393814990929695"><ele>338.20000000000005</ele><time>2026-04-06T14:02:36.001Z</time></trkpt><trkpt lat="44.72158674689552" lon="9.39385751685256"><ele>337.6</ele><time>2026-04-06T14:02:36.999Z</time></trkpt><trkpt lat="44.721488433385424" lon="9.39391121120331"><ele>337.0</ele><time>2026-04-06T14:02:37.999Z</time></trkpt><trkpt lat="44.721434025976926" lon="9.394006065948767"><ele>337.0</ele><time>2026-04-06T14:02:38.999Z</time></trkpt><trkpt lat="44.72139574583463" lon="9.394150308145232"><ele>337.0</ele><time>2026-04-06T14:02:39.999Z</time></trkpt><trkpt lat="44.721322860091966" lon="9.3944757827147"><ele>337.0</ele><time>2026-04-06T14:02:42Z</time></trkpt><trkpt lat="44.721256844774366" lon="9.394586887303676"><ele>340.0</ele><time>2026-04-06T14:02:43Z</time></trkpt><trkpt lat="44.721161467470935" lon="9.394695544472546"><ele>343.0</ele><time>2026-04-06T14:02:44Z</time></trkpt><trkpt lat="44.72105047870722" lon="9.394818225995436"><ele>346.0</ele><time>2026-04-06T14:02:45Z</time></trkpt><trkpt lat="44.72094792607503" lon="9.394922497714639"><ele>349.0</ele><time>2026-04-06T14:02:46Z</time></trkpt><trkpt lat="44.720852247842295" lon="9.394993003290118"><ele>349.0</ele><time>2026-04-06T14:02:47Z</time></trkpt><trkpt lat="44.72076790541804" lon="9.395021719850037"><ele>349.0</ele><time>2026-04-06T14:02:48Z</time></trkpt><trkpt lat="44.72068055778608" lon="9.395034206837511"><ele>349.0</ele><time>2026-04-06T14:02:49Z</time></trkpt><trkpt lat="44.7205940746538" lon="9.395022783844961"><ele>349.0</ele><time>2026-04-06T14:02:50Z</time></trkpt><trkpt lat="44.72052749110165" lon="9.394969544086266"><ele>349.0</ele><time>2026-04-06T14:02:51Z</time></trkpt><trkpt lat="44.72047310973288" lon="9.394895321540206"><ele>349.0</ele><time>2026-04-06T14:02:52Z</time></trkpt><trkpt lat="44.720465332349576" lon="9.394771379987487"><ele>343.0</ele><time>2026-04-06T14:02:53Z</time></trkpt><trkpt lat="44.72048151519072" lon="9.394619160512505"><ele>337.0</ele><time>2026-04-06T14:02:54Z</time></trkpt><trkpt lat="44.720489246385654" lon="9.394405449640074"><ele>331.0</ele><time>2026-04-06T14:02:55Z</time></trkpt><trkpt lat="44.720502194593145" lon="9.394207568470156"><ele>325.0</ele><time>2026-04-06T14:02:56Z</time></trkpt><trkpt lat="44.720538896953" lon="9.394045985158195"><ele>325.0</ele><time>2026-04-06T14:02:57Z</time></trkpt><trkpt lat="44.72060638389561" lon="9.393920604363627"><ele>325.0</ele><time>2026-04-06T14:02:58Z</time></trkpt><trkpt lat="44.72068610486002" lon="9.393756411562423"><ele>325.0</ele><time>2026-04-06T14:02:59Z</time></trkpt><trkpt lat="44.720756267595256" lon="9.393614034909037"><ele>325.0</ele><time>2026-04-06T14:03:00Z</time></trkpt><trkpt lat="44.72081642247599" lon="9.393485362099085"><ele>325.4</ele><time>2026-04-06T14:03:01Z</time></trkpt><trkpt lat="44.72085272715221" lon="9.393338781429243"><ele>325.8</ele><time>2026-04-06T14:03:02Z</time></trkpt><trkpt lat="44.72082241490453" lon="9.393196544101894"><ele>326.20000000000005</ele><time>2026-04-06T14:03:03Z</time></trkpt><trkpt lat="44.72079916086999" lon="9.393056145113912"><ele>326.6</ele><time>2026-04-06T14:03:04Z</time></trkpt><trkpt lat="44.72070936800637" lon="9.392929873029692"><ele>327.0</ele><time>2026-04-06T14:03:05Z</time></trkpt><trkpt lat="44.720606365649495" lon="9.392797119660147"><ele>325.75</ele><time>2026-04-06T14:03:06Z</time></trkpt><trkpt lat="44.72050532338485" lon="9.392676283366699"><ele>324.5</ele><time>2026-04-06T14:03:07Z</time></trkpt><trkpt lat="44.72045616768841" lon="9.392519018870354"><ele>323.25</ele><time>2026-04-06T14:03:08Z</time></trkpt><trkpt lat="44.72040305973183" lon="9.392345134410128"><ele>322.0</ele><time>2026-04-06T14:03:09Z</time></trkpt><trkpt lat="44.72033293932312" lon="9.392162388791037"><ele>318.75</ele><time>2026-04-06T14:03:10Z</time></trkpt><trkpt lat="44.72030443917892" lon="9.39196600059045"><ele>315.5</ele><time>2026-04-06T14:03:11Z</time></trkpt><trkpt lat="44.72028587233675" lon="9.391791745838477"><ele>312.25</ele><time>2026-04-06T14:03:12Z</time></trkpt><trkpt lat="44.720278058537936" lon="9.391587689719827"><ele>309.0</ele><time>2026-04-06T14:03:13Z</time></trkpt><trkpt lat="44.72026770131974" lon="9.391360194174593"><ele>307.0</ele><time>2026-04-06T14:03:14Z</time></trkpt><trkpt lat="44.720251258400594" lon="9.391137104502024"><ele>305.0</ele><time>2026-04-06T14:03:15Z</time></trkpt><trkpt lat="44.7202247559723" lon="9.390913588132586"><ele>303.0</ele><time>2026-04-06T14:03:16Z</time></trkpt><trkpt lat="44.72020516615982" lon="9.39071261979997"><ele>307.0</ele><time>2026-04-06T14:03:17Z</time></trkpt><trkpt lat="44.72018671357549" lon="9.390531959609541"><ele>311.0</ele><time>2026-04-06T14:03:18Z</time></trkpt><trkpt lat="44.720161234936725" lon="9.390374539498078"><ele>315.0</ele><time>2026-04-06T14:03:19Z</time></trkpt><trkpt lat="44.720117001683235" lon="9.390232962682218"><ele>319.0</ele><time>2026-04-06T14:03:20Z</time></trkpt><trkpt lat="44.72003684616587" lon="9.390120110070002"><ele>319.0</ele><time>2026-04-06T14:03:21Z</time></trkpt><trkpt lat="44.719932262697085" lon="9.390034537998991"><ele>319.0</ele><time>2026-04-06T14:03:22Z</time></trkpt><trkpt lat="44.71980649779115" lon="9.389986520157908"><ele>319.0</ele><time>2026-04-06T14:03:23Z</time></trkpt><trkpt lat="44.71964942612867" lon="9.389960772056753"><ele>319.0</ele><time>2026-04-06T14:03:24Z</time></trkpt><trkpt lat="44.719489430462204" lon="9.389934617440037"><ele>320.0</ele><time>2026-04-06T14:03:25Z</time></trkpt><trkpt lat="44.719337934901844" lon="9.389926038211877"><ele>321.0</ele><time>2026-04-06T14:03:26Z</time></trkpt><trkpt lat="44.71920262480201" lon="9.38995039517936"><ele>322.0</ele><time>2026-04-06T14:03:27Z</time></trkpt><trkpt lat="44.71907358300591" lon="9.39000652212246"><ele>323.0</ele><time>2026-04-06T14:03:28Z</time></trkpt><trkpt lat="44.718939054987835" lon="9.390085742723514"><ele>323.0</ele><time>2026-04-06T14:03:29Z</time></trkpt><trkpt lat="44.71880959738819" lon="9.390190728301489"><ele>323.0</ele><time>2026-04-06T14:03:30Z</time></trkpt><trkpt lat="44.718665674150614" lon="9.390226729353142"><ele>323.0</ele><time>2026-04-06T14:03:31Z</time></trkpt><trkpt lat="44.7184986088467" lon="9.39025462021004"><ele>323.6666666666667</ele><time>2026-04-06T14:03:32Z</time></trkpt><trkpt lat="44.718304464938" lon="9.39022684215097"><ele>324.3333333333333</ele><time>2026-04-06T14:03:33Z</time></trkpt><trkpt lat="44.718101639343814" lon="9.390193551853162"><ele>325.0</ele><time>2026-04-06T14:03:34Z</time></trkpt><trkpt lat="44.71790554110155" lon="9.39016056886038"><ele>327.3333333333333</ele><time>2026-04-06T14:03:35Z</time></trkpt><trkpt lat="44.71773148492891" lon="9.390132868995288"><ele>329.6666666666667</ele><time>2026-04-06T14:03:36.001Z</time></trkpt><trkpt lat="44.717577086630264" lon="9.390123664278754"><ele>332.0</ele><time>2026-04-06T14:03:37.001Z</time></trkpt><trkpt lat="44.717435994831014" lon="9.390134267853263"><ele>332.0</ele><time>2026-04-06T14:03:38.001Z</time></trkpt><trkpt lat="44.71731323989254" lon="9.390059388708424"><ele>332.0</ele><time>2026-04-06T14:03:39.001Z</time></trkpt><trkpt lat="44.71716829633461" lon="9.389979645715355"><ele>332.0</ele><time>2026-04-06T14:03:40.001Z</time></trkpt><trkpt lat="44.71699764514847" lon="9.389904981412045"><ele>337.0</ele><time>2026-04-06T14:03:41.001Z</time></trkpt><trkpt lat="44.7168199673966" lon="9.389812018681729"><ele>342.0</ele><time>2026-04-06T14:03:42.001Z</time></trkpt><trkpt lat="44.716657785225095" lon="9.389684361831893"><ele>347.0</ele><time>2026-04-06T14:03:43.001Z</time></trkpt><trkpt lat="44.71650640725443" lon="9.38954928501727"><ele>335.33333333333337</ele><time>2026-04-06T14:03:44.001Z</time></trkpt><trkpt lat="44.716364904720926" lon="9.389421951896656"><ele>323.6666666666667</ele><time>2026-04-06T14:03:45.001Z</time></trkpt><trkpt lat="44.716226170574494" lon="9.389319060632916"><ele>312.0</ele><time>2026-04-06T14:03:46.001Z</time></trkpt><trkpt lat="44.716111345637174" lon="9.389207022471194"><ele>315.0</ele><time>2026-04-06T14:03:47.001Z</time></trkpt><trkpt lat="44.71602318820748" lon="9.389085213599428"><ele>318.0</ele><time>2026-04-06T14:03:48.001Z</time></trkpt><trkpt lat="44.71598313005487" lon="9.388897892151345"><ele>321.0</ele><time>2026-04-06T14:03:49.001Z</time></trkpt><trkpt lat="44.7159219578977" lon="9.388697261404417"><ele>324.0</ele><time>2026-04-06T14:03:50.001Z</time></trkpt><trkpt lat="44.71583741114642" lon="9.388485086955024"><ele>324.0</ele><time>2026-04-06T14:03:51.001Z</time></trkpt><trkpt lat="44.715767461609914" lon="9.388260936589162"><ele>324.0</ele><time>2026-04-06T14:03:52.001Z</time></trkpt><trkpt lat="44.7156867190656" lon="9.388052734489792"><ele>324.0</ele><time>2026-04-06T14:03:53.001Z</time></trkpt><trkpt lat="44.71560416263527" lon="9.387871654622995"><ele>320.75</ele><time>2026-04-06T14:03:54.001Z</time></trkpt><trkpt lat="44.71550969321746" lon="9.387724415517368"><ele>317.5</ele><time>2026-04-06T14:03:55.001Z</time></trkpt><trkpt lat="44.71538987360345" lon="9.387599663198783"><ele>314.25</ele><time>2026-04-06T14:03:56.001Z</time></trkpt><trkpt lat="44.71528201075643" lon="9.387476256803788"><ele>311.0</ele><time>2026-04-06T14:03:57.001Z</time></trkpt><trkpt lat="44.715226566575396" lon="9.38731032415849"><ele>314.75</ele><time>2026-04-06T14:03:58.001Z</time></trkpt><trkpt lat="44.71520394608639" lon="9.387136592635185"><ele>318.5</ele><time>2026-04-06T14:03:59.001Z</time></trkpt><trkpt lat="44.71514759528589" lon="9.386927561774076"><ele>322.25</ele><time>2026-04-06T14:04:00.001Z</time></trkpt><trkpt lat="44.715048180310305" lon="9.386747415930182"><ele>326.0</ele><time>2026-04-06T14:04:01.001Z</time></trkpt><trkpt lat="44.714971975001426" lon="9.38653083722073"><ele>322.33333333333337</ele><time>2026-04-06T14:04:02.001Z</time></trkpt><trkpt lat="44.71489364184025" lon="9.386291928687434"><ele>318.6666666666667</ele><time>2026-04-06T14:04:03.001Z</time></trkpt><trkpt lat="44.714795559923104" lon="9.38606098887772"><ele>315.0</ele><time>2026-04-06T14:04:04.001Z</time></trkpt><trkpt lat="44.71469487274989" lon="9.385790823253284"><ele>315.0</ele><time>2026-04-06T14:04:05.001Z</time></trkpt><trkpt lat="44.71459798476481" lon="9.385535183866777"><ele>315.0</ele><time>2026-04-06T14:04:06.001Z</time></trkpt><trkpt lat="44.714529272340506" lon="9.385345245333417"><ele>315.0</ele><time>2026-04-06T14:04:07.001Z</time></trkpt><trkpt lat="44.714477819281406" lon="9.385185814727544"><ele>313.25</ele><time>2026-04-06T14:04:08.001Z</time></trkpt><trkpt lat="44.71442531839818" lon="9.38502182597178"><ele>311.5</ele><time>2026-04-06T14:04:09.001Z</time></trkpt><trkpt lat="44.71444242213605" lon="9.384841668488283"><ele>309.75</ele><time>2026-04-06T14:04:10.001Z</time></trkpt><trkpt lat="44.71445129263233" lon="9.384613381101024"><ele>308.0</ele><time>2026-04-06T14:04:11.001Z</time></trkpt><trkpt lat="44.71445717858596" lon="9.38434313402585"><ele>308.0</ele><time>2026-04-06T14:04:12.001Z</time></trkpt><trkpt lat="44.71447881094074" lon="9.384090618333566"><ele>308.0</ele><time>2026-04-06T14:04:13.001Z</time></trkpt><trkpt lat="44.71451660720356" lon="9.383901114587719"><ele>308.0</ele><time>2026-04-06T14:04:14.001Z</time></trkpt><trkpt lat="44.71452436646146" lon="9.383732012103575"><ele>308.0</ele><time>2026-04-06T14:04:15.001Z</time></trkpt><trkpt lat="44.71453683353349" lon="9.383578670172966"><ele>308.8</ele><time>2026-04-06T14:04:16.001Z</time></trkpt><trkpt lat="44.71452208066413" lon="9.383440673622665"><ele>309.6</ele><time>2026-04-06T14:04:17.001Z</time></trkpt><trkpt lat="44.7144845021297" lon="9.38331298747332"><ele>310.4</ele><time>2026-04-06T14:04:18.001Z</time></trkpt><trkpt lat="44.71442137082968" lon="9.38319534566733"><ele>311.2</ele><time>2026-04-06T14:04:19.001Z</time></trkpt><trkpt lat="44.714336536224266" lon="9.383087001191928"><ele>312.0</ele><time>2026-04-06T14:04:20.001Z</time></trkpt><trkpt lat="44.71425864000082" lon="9.382972447426754"><ele>313.0</ele><time>2026-04-06T14:04:21.001Z</time></trkpt><trkpt lat="44.71418661416789" lon="9.382851859055824"><ele>314.0</ele><time>2026-04-06T14:04:22.001Z</time></trkpt><trkpt lat="44.71411471782282" lon="9.382734098250129"><ele>315.0</ele><time>2026-04-06T14:04:23.001Z</time></trkpt><trkpt lat="44.714048113119006" lon="9.382629443819775"><ele>316.0</ele><time>2026-04-06T14:04:24.001Z</time></trkpt><trkpt lat="44.71398588934763" lon="9.382524937106968"><ele>317.0</ele><time>2026-04-06T14:04:25.001Z</time></trkpt><trkpt lat="44.71393866289429" lon="9.382398855290914"><ele>317.0</ele><time>2026-04-06T14:04:26.001Z</time></trkpt><trkpt lat="44.71393059224425" lon="9.382246726230894"><ele>317.0</ele><time>2026-04-06T14:04:27.001Z</time></trkpt><trkpt lat="44.71391749217246" lon="9.382092246801392"><ele>317.0</ele><time>2026-04-06T14:04:28.001Z</time></trkpt><trkpt lat="44.71389248319444" lon="9.381923276241091"><ele>317.0</ele><time>2026-04-06T14:04:29.001Z</time></trkpt><trkpt lat="44.71388192428454" lon="9.381754606249656"><ele>316.25</ele><time>2026-04-06T14:04:30.001Z</time></trkpt><trkpt lat="44.71386517242048" lon="9.381589980858237"><ele>315.5</ele><time>2026-04-06T14:04:31.001Z</time></trkpt><trkpt lat="44.71384570046173" lon="9.381428272805886"><ele>314.75</ele><time>2026-04-06T14:04:32.001Z</time></trkpt><trkpt lat="44.7138254392411" lon="9.381275021523058"><ele>314.0</ele><time>2026-04-06T14:04:33.001Z</time></trkpt><trkpt lat="44.71378966196745" lon="9.381128643426862"><ele>314.0</ele><time>2026-04-06T14:04:34.001Z</time></trkpt><trkpt lat="44.71373727983754" lon="9.380989660833292"><ele>314.0</ele><time>2026-04-06T14:04:35.001Z</time></trkpt><trkpt lat="44.713666484926726" lon="9.380860466208796"><ele>314.0</ele><time>2026-04-06T14:04:36.001Z</time></trkpt><trkpt lat="44.71357524459717" lon="9.380742938685728"><ele>314.0</ele><time>2026-04-06T14:04:37.001Z</time></trkpt><trkpt lat="44.713491821474435" lon="9.380625336093098"><ele>315.25</ele><time>2026-04-06T14:04:38.001Z</time></trkpt><trkpt lat="44.713414884998876" lon="9.380501071684549"><ele>316.5</ele><time>2026-04-06T14:04:39.001Z</time></trkpt><trkpt lat="44.71333705799411" lon="9.38038643581269"><ele>317.75</ele><time>2026-04-06T14:04:40.001Z</time></trkpt><trkpt lat="44.71325371599492" lon="9.380279312732313"><ele>319.0</ele><time>2026-04-06T14:04:41.001Z</time></trkpt><trkpt lat="44.7131562972209" lon="9.380187208746555"><ele>319.0</ele><time>2026-04-06T14:04:42.001Z</time></trkpt><trkpt lat="44.713044670232854" lon="9.380137543566175"><ele>319.0</ele><time>2026-04-06T14:04:43.001Z</time></trkpt><trkpt lat="44.71292595999164" lon="9.380110859200263"><ele>319.0</ele><time>2026-04-06T14:04:44.001Z</time></trkpt><trkpt lat="44.71280662605326" lon="9.380084157003159"><ele>319.0</ele><time>2026-04-06T14:04:45.001Z</time></trkpt><trkpt lat="44.71268517587266" lon="9.380065952030218"><ele>319.75</ele><time>2026-04-06T14:04:46.001Z</time></trkpt><trkpt lat="44.71256337496209" lon="9.38005349751447"><ele>320.5</ele><time>2026-04-06T14:04:47.001Z</time></trkpt><trkpt lat="44.712437122551435" lon="9.380037673800464"><ele>321.25</ele><time>2026-04-06T14:04:48.001Z</time></trkpt><trkpt lat="44.71230975025897" lon="9.380016349617762"><ele>322.0</ele><time>2026-04-06T14:04:49.001Z</time></trkpt><trkpt lat="44.71217986051884" lon="9.380000769032801"><ele>322.0</ele><time>2026-04-06T14:04:50.001Z</time></trkpt><trkpt lat="44.712050885774076" lon="9.37998641604401"><ele>322.0</ele><time>2026-04-06T14:04:51.001Z</time></trkpt><trkpt lat="44.711924773949505" lon="9.379967428097576"><ele>322.0</ele><time>2026-04-06T14:04:52.001Z</time></trkpt><trkpt lat="44.71180090867136" lon="9.379948617945708"><ele>322.0</ele><time>2026-04-06T14:04:53.001Z</time></trkpt><trkpt lat="44.71169851122724" lon="9.379880821290996"><ele>321.0</ele><time>2026-04-06T14:04:54.001Z</time></trkpt><trkpt lat="44.711600594406455" lon="9.379800319276988"><ele>320.0</ele><time>2026-04-06T14:04:55.001Z</time></trkpt><trkpt lat="44.71151975356639" lon="9.379670535427431"><ele>319.0</ele><time>2026-04-06T14:04:56.001Z</time></trkpt><trkpt lat="44.71144446442993" lon="9.379509065060713"><ele>318.0</ele><time>2026-04-06T14:04:57.001Z</time></trkpt><trkpt lat="44.7113513252464" lon="9.37934145490204"><ele>317.3333333333333</ele><time>2026-04-06T14:04:58.001Z</time></trkpt><trkpt lat="44.71125907654201" lon="9.379132156033751"><ele>316.66666666666663</ele><time>2026-04-06T14:04:59.001Z</time></trkpt><trkpt lat="44.71116081715621" lon="9.378925157541035"><ele>316.0</ele><time>2026-04-06T14:05:00.001Z</time></trkpt><trkpt lat="44.711048630453874" lon="9.378691317129093"><ele>316.0</ele><time>2026-04-06T14:05:01.001Z</time></trkpt><trkpt lat="44.71092587616756" lon="9.378437218262201"><ele>316.0</ele><time>2026-04-06T14:05:02.001Z</time></trkpt><trkpt lat="44.710802372187835" lon="9.378186617668662"><ele>316.0</ele><time>2026-04-06T14:05:03.001Z</time></trkpt><trkpt lat="44.71070448244835" lon="9.377977721410254"><ele>318.0</ele><time>2026-04-06T14:05:04.001Z</time></trkpt><trkpt lat="44.710622135062295" lon="9.377800749956839"><ele>320.0</ele><time>2026-04-06T14:05:05.001Z</time></trkpt><trkpt lat="44.71054427654443" lon="9.377646200825952"><ele>322.0</ele><time>2026-04-06T14:05:06.001Z</time></trkpt><trkpt lat="44.71046374046952" lon="9.377521020783309"><ele>324.0</ele><time>2026-04-06T14:05:07.001Z</time></trkpt><trkpt lat="44.71036282507459" lon="9.377459492764883"><ele>324.0</ele><time>2026-04-06T14:05:08.001Z</time></trkpt><trkpt lat="44.71024532685622" lon="9.377438912400457"><ele>324.0</ele><time>2026-04-06T14:05:09.001Z</time></trkpt><trkpt lat="44.710126022478136" lon="9.377453570436735"><ele>324.0</ele><time>2026-04-06T14:05:10.001Z</time></trkpt><trkpt lat="44.71001333869558" lon="9.377486730292041"><ele>324.0</ele><time>2026-04-06T14:05:11.001Z</time></trkpt><trkpt lat="44.709892392059814" lon="9.377558258258302"><ele>326.3333333333333</ele><time>2026-04-06T14:05:12.001Z</time></trkpt><trkpt lat="44.70976772365383" lon="9.377676319514615"><ele>328.66666666666663</ele><time>2026-04-06T14:05:13.001Z</time></trkpt><trkpt lat="44.70964798792585" lon="9.377819024431748"><ele>331.0</ele><time>2026-04-06T14:05:14.001Z</time></trkpt><trkpt lat="44.709530207361034" lon="9.377932883179632"><ele>332.25</ele><time>2026-04-06T14:05:15.001Z</time></trkpt><trkpt lat="44.70940564776413" lon="9.378005811424332"><ele>333.5</ele><time>2026-04-06T14:05:16.001Z</time></trkpt><trkpt lat="44.70926108481816" lon="9.378041430669729"><ele>334.75</ele><time>2026-04-06T14:05:17.001Z</time></trkpt><trkpt lat="44.70912535446631" lon="9.37810675098313"><ele>336.0</ele><time>2026-04-06T14:05:18.001Z</time></trkpt><trkpt lat="44.70900321030863" lon="9.378131454101563"><ele>336.0</ele><time>2026-04-06T14:05:19.001Z</time></trkpt><trkpt lat="44.7088841395278" lon="9.378085787875175"><ele>336.0</ele><time>2026-04-06T14:05:20.001Z</time></trkpt><trkpt lat="44.70874405814397" lon="9.3780513921891"><ele>336.0</ele><time>2026-04-06T14:05:21.001Z</time></trkpt><trkpt lat="44.708591253128425" lon="9.377980380387042"><ele>336.0</ele><time>2026-04-06T14:05:22.001Z</time></trkpt><trkpt lat="44.70844121959932" lon="9.377918942096482"><ele>335.75</ele><time>2026-04-06T14:05:23.001Z</time></trkpt><trkpt lat="44.70832365502192" lon="9.377836010737733"><ele>335.5</ele><time>2026-04-06T14:05:24.001Z</time></trkpt><trkpt lat="44.70821518151671" lon="9.377760544736178"><ele>335.25</ele><time>2026-04-06T14:05:25.001Z</time></trkpt><trkpt lat="44.70813695964874" lon="9.37761453607677"><ele>335.0</ele><time>2026-04-06T14:05:26.001Z</time></trkpt><trkpt lat="44.708109895479794" lon="9.37742564621409"><ele>335.0</ele><time>2026-04-06T14:05:27.001Z</time></trkpt><trkpt lat="44.70807933951755" lon="9.377240823387147"><ele>335.0</ele><time>2026-04-06T14:05:28.001Z</time></trkpt><trkpt lat="44.70804381124224" lon="9.377061240075713"><ele>335.0</ele><time>2026-04-06T14:05:29.001Z</time></trkpt><trkpt lat="44.707966964501644" lon="9.376892010022791"><ele>335.0</ele><time>2026-04-06T14:05:30.001Z</time></trkpt><trkpt lat="44.707903597629375" lon="9.37684838017926"><ele>336.6666666666667</ele><time>2026-04-06T14:05:31.001Z</time></trkpt><trkpt lat="44.7078046550618" lon="9.376805154379635"><ele>338.33333333333337</ele><time>2026-04-06T14:05:32.001Z</time></trkpt><trkpt lat="44.70769541137649" lon="9.376802688838286"><ele>340.0</ele><time>2026-04-06T14:05:33.001Z</time></trkpt><trkpt lat="44.707605949684904" lon="9.37681874238863"><ele>341.6666666666667</ele><time>2026-04-06T14:05:34.001Z</time></trkpt><trkpt lat="44.70754552148165" lon="9.376846845830922"><ele>343.3333333333333</ele><time>2026-04-06T14:07:00.002Z</time></trkpt><trkpt lat="44.707468341227276" lon="9.376846992029037"><ele>345.0</ele><time>2026-04-06T14:07:01.002Z</time></trkpt><trkpt lat="44.70737762260501" lon="9.376846401568937"><ele>345.0</ele><time>2026-04-06T14:07:02.001Z</time></trkpt><trkpt lat="44.707301571475625" lon="9.376856464816427"><ele>345.0</ele><time>2026-04-06T14:07:03.001Z</time></trkpt><trkpt lat="44.70723367476424" lon="9.376859931722544"><ele>345.0</ele><time>2026-04-06T14:07:04.001Z</time></trkpt><trkpt lat="44.70711538747301" lon="9.376900627157845"><ele>345.0</ele><time>2026-04-06T14:07:05.001Z</time></trkpt><trkpt lat="44.707031259123575" lon="9.376974876317927"><ele>345.0</ele><time>2026-04-06T14:07:06.001Z</time></trkpt><trkpt lat="44.706948180522744" lon="9.377088017931806"><ele>344.0</ele><time>2026-04-06T14:07:07.001Z</time></trkpt><trkpt lat="44.70688019914636" lon="9.377197457859815"><ele>343.0</ele><time>2026-04-06T14:07:08.001Z</time></trkpt><trkpt lat="44.706823511848114" lon="9.377287918016428"><ele>342.0</ele><time>2026-04-06T14:07:09.001Z</time></trkpt><trkpt lat="44.70676109970818" lon="9.377342421846574"><ele>341.0</ele><time>2026-04-06T14:07:10.001Z</time></trkpt><trkpt lat="44.706697340566684" lon="9.37736282887283"><ele>340.0</ele><time>2026-04-06T14:07:11.001Z</time></trkpt><trkpt lat="44.70661106841636" lon="9.377320231943505"><ele>339.0</ele><time>2026-04-06T14:07:12.001Z</time></trkpt><trkpt lat="44.706516910863535" lon="9.377244006989473"><ele>339.0</ele><time>2026-04-06T14:07:13.001Z</time></trkpt><trkpt lat="44.70638500658568" lon="9.377185725087426"><ele>339.0</ele><time>2026-04-06T14:07:14.001Z</time></trkpt><trkpt lat="44.706259299877644" lon="9.377049769412436"><ele>339.0</ele><time>2026-04-06T14:07:15.001Z</time></trkpt><trkpt lat="44.706134506028015" lon="9.376918549667247"><ele>340.75</ele><time>2026-04-06T14:07:16.001Z</time></trkpt><trkpt lat="44.70600198424995" lon="9.376775469866287"><ele>342.5</ele><time>2026-04-06T14:07:17.001Z</time></trkpt><trkpt lat="44.70589325710645" lon="9.376643709819826"><ele>344.25</ele><time>2026-04-06T14:07:18.001Z</time></trkpt><trkpt lat="44.705811075231864" lon="9.376488973661958"><ele>346.0</ele><time>2026-04-06T14:07:19.001Z</time></trkpt><trkpt lat="44.70574334064162" lon="9.37631184298343"><ele>347.75</ele><time>2026-04-06T14:07:20.001Z</time></trkpt><trkpt lat="44.70567598484015" lon="9.376116947410896"><ele>349.5</ele><time>2026-04-06T14:07:21.001Z</time></trkpt><trkpt lat="44.705609893918954" lon="9.37593270292383"><ele>351.25</ele><time>2026-04-06T14:07:22.001Z</time></trkpt><trkpt lat="44.70556035208654" lon="9.37577319982463"><ele>353.0</ele><time>2026-04-06T14:07:23.001Z</time></trkpt><trkpt lat="44.705534130377785" lon="9.375632304544709"><ele>354.0</ele><time>2026-04-06T14:07:24.001Z</time></trkpt><trkpt lat="44.70553927074926" lon="9.375501189846547"><ele>355.0</ele><time>2026-04-06T14:07:25.001Z</time></trkpt><trkpt lat="44.70556874035956" lon="9.375346100002853"><ele>356.0</ele><time>2026-04-06T14:07:26.001Z</time></trkpt><trkpt lat="44.70562057902686" lon="9.37514289807773"><ele>357.0</ele><time>2026-04-06T14:07:27.001Z</time></trkpt><trkpt lat="44.705676231182075" lon="9.374939181987827"><ele>357.0</ele><time>2026-04-06T14:07:28.001Z</time></trkpt><trkpt lat="44.70571956196332" lon="9.374734490933491"><ele>357.0</ele><time>2026-04-06T14:07:29.001Z</time></trkpt><trkpt lat="44.705770486138846" lon="9.374557746920884"><ele>357.0</ele><time>2026-04-06T14:07:30.001Z</time></trkpt><trkpt lat="44.70581301266573" lon="9.374397059041458"><ele>357.0</ele><time>2026-04-06T14:07:31.001Z</time></trkpt><trkpt lat="44.70584429814815" lon="9.374244001979555"><ele>358.0</ele><time>2026-04-06T14:07:32.001Z</time></trkpt><trkpt lat="44.70585601119307" lon="9.374081120288727"><ele>359.0</ele><time>2026-04-06T14:07:33.001Z</time></trkpt><trkpt lat="44.70584012121335" lon="9.373924460068828"><ele>360.0</ele><time>2026-04-06T14:07:34.001Z</time></trkpt><trkpt lat="44.70578626153554" lon="9.373788662960155"><ele>361.0</ele><time>2026-04-06T14:07:35.001Z</time></trkpt><trkpt lat="44.70569509239439" lon="9.373662211958456"><ele>367.0</ele><time>2026-04-06T14:07:36.001Z</time></trkpt><trkpt lat="44.70558556732723" lon="9.37352698842265"><ele>373.0</ele><time>2026-04-06T14:07:37.001Z</time></trkpt><trkpt lat="44.70547841698908" lon="9.373367905714867"><ele>379.0</ele><time>2026-04-06T14:07:38.001Z</time></trkpt><trkpt lat="44.70538262366575" lon="9.373205997850182"><ele>379.0</ele><time>2026-04-06T14:07:39.001Z</time></trkpt><trkpt lat="44.705298225436536" lon="9.373074762915227"><ele>379.0</ele><time>2026-04-06T14:07:40.001Z</time></trkpt><trkpt lat="44.705204017856985" lon="9.372993423450964"><ele>379.0</ele><time>2026-04-06T14:07:41.001Z</time></trkpt><trkpt lat="44.70509544037821" lon="9.372963101684883"><ele>379.0</ele><time>2026-04-06T14:07:42.001Z</time></trkpt><trkpt lat="44.70496756921084" lon="9.372983487349584"><ele>382.25</ele><time>2026-04-06T14:07:43.001Z</time></trkpt><trkpt lat="44.704825609066276" lon="9.37292802579193"><ele>385.5</ele><time>2026-04-06T14:07:44.001Z</time></trkpt><trkpt lat="44.70468909780723" lon="9.372829061181008"><ele>388.75</ele><time>2026-04-06T14:07:45.001Z</time></trkpt><trkpt lat="44.70456413912268" lon="9.372754001801974"><ele>392.0</ele><time>2026-04-06T14:07:46.001Z</time></trkpt><trkpt lat="44.70444397004693" lon="9.372772872007548"><ele>390.5</ele><time>2026-04-06T14:07:47.001Z</time></trkpt><trkpt lat="44.70431230218986" lon="9.372828667094248"><ele>389.0</ele><time>2026-04-06T14:07:48.001Z</time></trkpt><trkpt lat="44.70417965648444" lon="9.372865729747682"><ele>387.5</ele><time>2026-04-06T14:07:49.001Z</time></trkpt><trkpt lat="44.70406315844424" lon="9.372824648735405"><ele>386.0</ele><time>2026-04-06T14:07:50.001Z</time></trkpt><trkpt lat="44.703959990435685" lon="9.37273756918368"><ele>386.0</ele><time>2026-04-06T14:07:51.001Z</time></trkpt><trkpt lat="44.70382804775315" lon="9.37265970708097"><ele>386.0</ele><time>2026-04-06T14:07:52.001Z</time></trkpt><trkpt lat="44.703712860232265" lon="9.372545337463176"><ele>386.0</ele><time>2026-04-06T14:07:53.001Z</time></trkpt><trkpt lat="44.70362954957289" lon="9.372400612797879"><ele>386.0</ele><time>2026-04-06T14:07:54.001Z</time></trkpt><trkpt lat="44.703541503345214" lon="9.37223721343059"><ele>386.5</ele><time>2026-04-06T14:07:55.001Z</time></trkpt><trkpt lat="44.70344224200582" lon="9.37207467608051"><ele>387.0</ele><time>2026-04-06T14:07:56.001Z</time></trkpt><trkpt lat="44.70335228528751" lon="9.371891522389925"><ele>387.5</ele><time>2026-04-06T14:07:57.001Z</time></trkpt><trkpt lat="44.70326943495971" lon="9.371737343257537"><ele>388.0</ele><time>2026-04-06T14:07:58.001Z</time></trkpt><trkpt lat="44.70318861564279" lon="9.371613797411472"><ele>388.0</ele><time>2026-04-06T14:07:59.001Z</time></trkpt><trkpt lat="44.70309206655039" lon="9.371519080990963"><ele>388.0</ele><time>2026-04-06T14:08:00.001Z</time></trkpt><trkpt lat="44.7029732413436" lon="9.371452843564509"><ele>388.0</ele><time>2026-04-06T14:08:01.001Z</time></trkpt><trkpt lat="44.70283635681366" lon="9.371412240990377"><ele>388.0</ele><time>2026-04-06T14:08:02.001Z</time></trkpt><trkpt lat="44.70269381550338" lon="9.371371171427917"><ele>392.0</ele><time>2026-04-06T14:08:03.001Z</time></trkpt><trkpt lat="44.70255105071396" lon="9.371310139077167"><ele>396.0</ele><time>2026-04-06T14:08:04.001Z</time></trkpt><trkpt lat="44.702401779405555" lon="9.371248335533712"><ele>400.0</ele><time>2026-04-06T14:08:05.001Z</time></trkpt><trkpt lat="44.70225625964035" lon="9.371193763527382"><ele>400.0</ele><time>2026-04-06T14:08:06.001Z</time></trkpt><trkpt lat="44.70212739175685" lon="9.371138928562678"><ele>400.0</ele><time>2026-04-06T14:08:07.001Z</time></trkpt><trkpt lat="44.70201690081001" lon="9.371089724102916"><ele>400.0</ele><time>2026-04-06T14:08:08.001Z</time></trkpt><trkpt lat="44.701924814341055" lon="9.371014715157353"><ele>400.0</ele><time>2026-04-06T14:08:09.001Z</time></trkpt><trkpt lat="44.7018510704259" lon="9.370883651933786"><ele>397.0</ele><time>2026-04-06T14:08:10.001Z</time></trkpt><trkpt lat="44.70178081325641" lon="9.370735856029919"><ele>394.0</ele><time>2026-04-06T14:08:11.001Z</time></trkpt><trkpt lat="44.70174606456718" lon="9.370584615582294"><ele>391.0</ele><time>2026-04-06T14:08:12.001Z</time></trkpt><trkpt lat="44.70176429112258" lon="9.37041359205511"><ele>388.0</ele><time>2026-04-06T14:08:13.001Z</time></trkpt><trkpt lat="44.701832040109366" lon="9.370254075896389"><ele>388.0</ele><time>2026-04-06T14:08:14.001Z</time></trkpt><trkpt lat="44.70189555884002" lon="9.37009464737694"><ele>388.0</ele><time>2026-04-06T14:08:15.001Z</time></trkpt><trkpt lat="44.70193932800679" lon="9.369962491318311"><ele>388.0</ele><time>2026-04-06T14:08:16.001Z</time></trkpt><trkpt lat="44.70193491177064" lon="9.369835229160826"><ele>388.0</ele><time>2026-04-06T14:08:17.001Z</time></trkpt><trkpt lat="44.70188923892975" lon="9.36971167076533"><ele>388.0</ele><time>2026-04-06T14:08:18.001Z</time></trkpt><trkpt lat="44.70181307375164" lon="9.369575027681124"><ele>392.75</ele><time>2026-04-06T14:08:19.001Z</time></trkpt><trkpt lat="44.70174628371243" lon="9.369415055123525"><ele>397.5</ele><time>2026-04-06T14:08:20.001Z</time></trkpt><trkpt lat="44.70171660687597" lon="9.369236568340966"><ele>402.25</ele><time>2026-04-06T14:08:21.001Z</time></trkpt><trkpt lat="44.70168988391078" lon="9.36905598597944"><ele>407.0</ele><time>2026-04-06T14:08:22.001Z</time></trkpt><trkpt lat="44.701652417211726" lon="9.368908690372423"><ele>412.5</ele><time>2026-04-06T14:08:23.001Z</time></trkpt><trkpt lat="44.7015890290811" lon="9.368778604214933"><ele>418.0</ele><time>2026-04-06T14:08:24.001Z</time></trkpt><trkpt lat="44.70149280258718" lon="9.368674669470048"><ele>423.5</ele><time>2026-04-06T14:08:25.001Z</time></trkpt><trkpt lat="44.701374012333524" lon="9.368582696797546"><ele>429.0</ele><time>2026-04-06T14:08:26.001Z</time></trkpt><trkpt lat="44.70132745294646" lon="9.368406032706122"><ele>429.0</ele><time>2026-04-06T14:08:27.001Z</time></trkpt><trkpt lat="44.701267924162984" lon="9.368216689111224"><ele>429.0</ele><time>2026-04-06T14:08:28.001Z</time></trkpt><trkpt lat="44.70119757058078" lon="9.368053310282423"><ele>429.0</ele><time>2026-04-06T14:08:29.001Z</time></trkpt><trkpt lat="44.701129539429715" lon="9.367890505971888"><ele>429.0</ele><time>2026-04-06T14:08:30.001Z</time></trkpt><trkpt lat="44.701021562164094" lon="9.367753847467888"><ele>424.33333333333337</ele><time>2026-04-06T14:08:31.001Z</time></trkpt><trkpt lat="44.70088171013696" lon="9.367631326893372"><ele>419.6666666666667</ele><time>2026-04-06T14:08:32.001Z</time></trkpt><trkpt lat="44.70074357361598" lon="9.367508691087467"><ele>415.0</ele><time>2026-04-06T14:08:33.001Z</time></trkpt><trkpt lat="44.70062855432706" lon="9.367393497284256"><ele>415.0</ele><time>2026-04-06T14:08:34.001Z</time></trkpt><trkpt lat="44.70053805671593" lon="9.367288414858198"><ele>415.0</ele><time>2026-04-06T14:08:35.001Z</time></trkpt><trkpt lat="44.70047283166342" lon="9.3671819151596"><ele>415.0</ele><time>2026-04-06T14:08:36.001Z</time></trkpt><trkpt lat="44.70043800085593" lon="9.367052399546674"><ele>415.0</ele><time>2026-04-06T14:08:37.001Z</time></trkpt><trkpt lat="44.70045043611926" lon="9.36688816350997"><ele>415.0</ele><time>2026-04-06T14:08:38.001Z</time></trkpt><trkpt lat="44.70048503000449" lon="9.366725368544193"><ele>419.0</ele><time>2026-04-06T14:08:39.001Z</time></trkpt><trkpt lat="44.70051750593888" lon="9.366569747135923"><ele>423.0</ele><time>2026-04-06T14:08:40.001Z</time></trkpt><trkpt lat="44.700539542203266" lon="9.366448272664853"><ele>427.0</ele><time>2026-04-06T14:08:41.001Z</time></trkpt><trkpt lat="44.70050836481334" lon="9.366346161687051"><ele>431.0</ele><time>2026-04-06T14:08:42.001Z</time></trkpt><trkpt lat="44.700436034268655" lon="9.366249729748647"><ele>435.0</ele><time>2026-04-06T14:08:43.001Z</time></trkpt><trkpt lat="44.700348801149424" lon="9.366154574337694"><ele>436.5</ele><time>2026-04-06T14:08:44.001Z</time></trkpt><trkpt lat="44.700254478581066" lon="9.366100827490168"><ele>438.0</ele><time>2026-04-06T14:08:45.001Z</time></trkpt><trkpt lat="44.700147700467085" lon="9.366103494155023"><ele>439.5</ele><time>2026-04-06T14:08:46.001Z</time></trkpt><trkpt lat="44.700020921181064" lon="9.366147296831196"><ele>441.0</ele><time>2026-04-06T14:08:47.001Z</time></trkpt><trkpt lat="44.69989263917353" lon="9.36619795805812"><ele>441.0</ele><time>2026-04-06T14:08:48.001Z</time></trkpt><trkpt lat="44.699769077921935" lon="9.366238422939666"><ele>441.0</ele><time>2026-04-06T14:08:49.001Z</time></trkpt><trkpt lat="44.6996482174118" lon="9.366272924710797"><ele>441.0</ele><time>2026-04-06T14:08:50.001Z</time></trkpt><trkpt lat="44.69953451949194" lon="9.366303150312834"><ele>441.0</ele><time>2026-04-06T14:08:51.001Z</time></trkpt><trkpt lat="44.69943122528374" lon="9.366326251713897"><ele>437.4</ele><time>2026-04-06T14:08:52.001Z</time></trkpt><trkpt lat="44.699341978053496" lon="9.366340686293752"><ele>433.8</ele><time>2026-04-06T14:08:53.001Z</time></trkpt><trkpt lat="44.69926082643731" lon="9.366310441595365"><ele>430.2</ele><time>2026-04-06T14:08:54.001Z</time></trkpt><trkpt lat="44.69919189035234" lon="9.366179848367167"><ele>426.59999999999997</ele><time>2026-04-06T14:08:55.001Z</time></trkpt><trkpt lat="44.699076856475756" lon="9.366116825007444"><ele>423.0</ele><time>2026-04-06T14:08:56.001Z</time></trkpt><trkpt lat="44.69898849306446" lon="9.366058340757752"><ele>423.0</ele><time>2026-04-06T14:08:57.001Z</time></trkpt><trkpt lat="44.69890122586921" lon="9.366018726679568"><ele>423.0</ele><time>2026-04-06T14:08:58.001Z</time></trkpt><trkpt lat="44.69884283216498" lon="9.365929895700658"><ele>423.0</ele><time>2026-04-06T14:08:59.001Z</time></trkpt><trkpt lat="44.69882923628386" lon="9.365776119200682"><ele>423.0</ele><time>2026-04-06T14:09:00.001Z</time></trkpt><trkpt lat="44.69888464666337" lon="9.365618167007227"><ele>423.0</ele><time>2026-04-06T14:09:01.001Z</time></trkpt><trkpt lat="44.69887085173999" lon="9.365469513673295"><ele>432.5</ele><time>2026-04-06T14:09:02.001Z</time></trkpt><trkpt lat="44.69882746509538" lon="9.36531823847747"><ele>442.0</ele><time>2026-04-06T14:09:03.001Z</time></trkpt><trkpt lat="44.69875243240753" lon="9.365172329944645"><ele>451.5</ele><time>2026-04-06T14:09:04.001Z</time></trkpt><trkpt lat="44.698679735438496" lon="9.365034329199954"><ele>461.0</ele><time>2026-04-06T14:09:05.001Z</time></trkpt><trkpt lat="44.69861335132656" lon="9.364920539750825"><ele>450.0</ele><time>2026-04-06T14:09:06.001Z</time></trkpt><trkpt lat="44.69853263665815" lon="9.364839372417645"><ele>439.0</ele><time>2026-04-06T14:09:07.001Z</time></trkpt><trkpt lat="44.69842981622361" lon="9.364773217533816"><ele>428.0</ele><time>2026-04-06T14:09:08.001Z</time></trkpt><trkpt lat="44.698302137478066" lon="9.364799124459386"><ele>417.0</ele><time>2026-04-06T14:09:09.001Z</time></trkpt><trkpt lat="44.69819421871255" lon="9.364762103911792"><ele>428.25</ele><time>2026-04-06T14:09:10.001Z</time></trkpt><trkpt lat="44.69809575176328" lon="9.364678664898022"><ele>439.5</ele><time>2026-04-06T14:09:11.001Z</time></trkpt><trkpt lat="44.69800614978133" lon="9.364563486457929"><ele>450.75</ele><time>2026-04-06T14:09:12.001Z</time></trkpt><trkpt lat="44.697946016299234" lon="9.364407288827962"><ele>462.0</ele><time>2026-04-06T14:09:13.001Z</time></trkpt><trkpt lat="44.697867617697334" lon="9.364251787198018"><ele>462.0</ele><time>2026-04-06T14:09:14.001Z</time></trkpt><trkpt lat="44.69781244166399" lon="9.364119558941487"><ele>462.0</ele><time>2026-04-06T14:09:15.001Z</time></trkpt><trkpt lat="44.69773086347298" lon="9.364032721393142"><ele>462.0</ele><time>2026-04-06T14:09:16.001Z</time></trkpt><trkpt lat="44.6976238103525" lon="9.363993290357655"><ele>462.0</ele><time>2026-04-06T14:09:17.001Z</time></trkpt><trkpt lat="44.69749000825903" lon="9.364008804807746"><ele>453.0</ele><time>2026-04-06T14:09:18.001Z</time></trkpt><trkpt lat="44.697331591975406" lon="9.364016707432862"><ele>444.0</ele><time>2026-04-06T14:09:19.001Z</time></trkpt><trkpt lat="44.69717357006982" lon="9.36395096634942"><ele>435.0</ele><time>2026-04-06T14:09:20.001Z</time></trkpt><trkpt lat="44.69701910267868" lon="9.363942818091635"><ele>437.25</ele><time>2026-04-06T14:09:21.001Z</time></trkpt><trkpt lat="44.69688094010483" lon="9.364004355735238"><ele>439.5</ele><time>2026-04-06T14:09:22.001Z</time></trkpt><trkpt lat="44.69674235215043" lon="9.364054043774491"><ele>441.75</ele><time>2026-04-06T14:09:23.001Z</time></trkpt><trkpt lat="44.696595324454535" lon="9.364044604174925"><ele>444.0</ele><time>2026-04-06T14:09:24.001Z</time></trkpt><trkpt lat="44.69642707384882" lon="9.364004017433109"><ele>444.0</ele><time>2026-04-06T14:09:25.001Z</time></trkpt><trkpt lat="44.69625034467054" lon="9.363977653829936"><ele>444.0</ele><time>2026-04-06T14:09:26.001Z</time></trkpt><trkpt lat="44.696101969977384" lon="9.36396914231391"><ele>444.0</ele><time>2026-04-06T14:09:27.001Z</time></trkpt><trkpt lat="44.69597423788281" lon="9.363912672802558"><ele>453.75</ele><time>2026-04-06T14:09:28.001Z</time></trkpt><trkpt lat="44.6958397634893" lon="9.363832928146982"><ele>463.5</ele><time>2026-04-06T14:09:29.001Z</time></trkpt><trkpt lat="44.69569723269445" lon="9.363792641157202"><ele>473.25</ele><time>2026-04-06T14:09:30.001Z</time></trkpt><trkpt lat="44.69553913322172" lon="9.363791863089999"><ele>483.0</ele><time>2026-04-06T14:09:31.001Z</time></trkpt><trkpt lat="44.69535237924579" lon="9.363828335941866"><ele>470.66666666666663</ele><time>2026-04-06T14:09:32.001Z</time></trkpt><trkpt lat="44.69513414729599" lon="9.363879081919517"><ele>458.3333333333333</ele><time>2026-04-06T14:09:33.001Z</time></trkpt><trkpt lat="44.69491206163723" lon="9.363928261039655"><ele>446.0</ele><time>2026-04-06T14:09:34.001Z</time></trkpt><trkpt lat="44.694730226547556" lon="9.363972339221894"><ele>446.0</ele><time>2026-04-06T14:09:35.001Z</time></trkpt><trkpt lat="44.69458939340257" lon="9.363998027710505"><ele>446.0</ele><time>2026-04-06T14:09:36.001Z</time></trkpt><trkpt lat="44.694475622220644" lon="9.36399489185298"><ele>446.0</ele><time>2026-04-06T14:09:37.001Z</time></trkpt><trkpt lat="44.694380677808084" lon="9.364005283127165"><ele>446.0</ele><time>2026-04-06T14:09:38.001Z</time></trkpt><trkpt lat="44.69430721680391" lon="9.363988251933327"><ele>446.0</ele><time>2026-04-06T14:09:39.001Z</time></trkpt><trkpt lat="44.6942697143673" lon="9.36389643631518"><ele>442.66666666666663</ele><time>2026-04-06T14:09:40.001Z</time></trkpt><trkpt lat="44.69429228270482" lon="9.363794884468858"><ele>439.3333333333333</ele><time>2026-04-06T14:09:41.001Z</time></trkpt><trkpt lat="44.69434321035216" lon="9.363710599714468"><ele>436.0</ele><time>2026-04-06T14:09:42.001Z</time></trkpt><trkpt lat="44.694425945061205" lon="9.36367642496793"><ele>432.66666666666663</ele><time>2026-04-06T14:09:43.001Z</time></trkpt><trkpt lat="44.69451890331048" lon="9.363656093787272"><ele>429.3333333333333</ele><time>2026-04-06T14:09:44.001Z</time></trkpt><trkpt lat="44.69459429721517" lon="9.36357831606367"><ele>426.0</ele><time>2026-04-06T14:09:45.001Z</time></trkpt><trkpt lat="44.69463561130843" lon="9.363468962826191"><ele>433.0</ele><time>2026-04-06T14:09:46.001Z</time></trkpt><trkpt lat="44.69464818698521" lon="9.363329506524698"><ele>440.0</ele><time>2026-04-06T14:09:47.001Z</time></trkpt><trkpt lat="44.69462397103614" lon="9.36317609284888"><ele>447.0</ele><time>2026-04-06T14:09:48.001Z</time></trkpt><trkpt lat="44.69459741520036" lon="9.363022047824105"><ele>454.0</ele><time>2026-04-06T14:09:49.001Z</time></trkpt><trkpt lat="44.69461089128669" lon="9.362869476250955"><ele>461.0</ele><time>2026-04-06T14:09:50.001Z</time></trkpt><trkpt lat="44.694672263759976" lon="9.362711285512185"><ele>461.0</ele><time>2026-04-06T14:09:51.001Z</time></trkpt><trkpt lat="44.69475814691688" lon="9.36254693173486"><ele>461.0</ele><time>2026-04-06T14:09:52.001Z</time></trkpt><trkpt lat="44.69483373749627" lon="9.362408290449235"><ele>461.0</ele><time>2026-04-06T14:09:53.001Z</time></trkpt><trkpt lat="44.69492134547372" lon="9.362293568113085"><ele>461.0</ele><time>2026-04-06T14:09:54.001Z</time></trkpt><trkpt lat="44.695036677015715" lon="9.362224271538777"><ele>457.0</ele><time>2026-04-06T14:09:55.001Z</time></trkpt><trkpt lat="44.69516891103092" lon="9.362164117512354"><ele>453.0</ele><time>2026-04-06T14:09:56.001Z</time></trkpt><trkpt lat="44.69528217594037" lon="9.362104734413023"><ele>449.0</ele><time>2026-04-06T14:09:57.001Z</time></trkpt><trkpt lat="44.69536941563656" lon="9.362033410688916"><ele>445.0</ele><time>2026-04-06T14:09:58.001Z</time></trkpt><trkpt lat="44.69544130148746" lon="9.361926819941555"><ele>453.25</ele><time>2026-04-06T14:09:59.001Z</time></trkpt><trkpt lat="44.69547285576748" lon="9.361771916977752"><ele>461.5</ele><time>2026-04-06T14:10:00.001Z</time></trkpt><trkpt lat="44.6954810824977" lon="9.361604786535612"><ele>469.75</ele><time>2026-04-06T14:10:01.001Z</time></trkpt><trkpt lat="44.69545388560716" lon="9.361418804791155"><ele>478.0</ele><time>2026-04-06T14:10:02.001Z</time></trkpt><trkpt lat="44.69535653335143" lon="9.361280959085578"><ele>478.0</ele><time>2026-04-06T14:10:03.001Z</time></trkpt><trkpt lat="44.695313878942464" lon="9.361123199769004"><ele>478.0</ele><time>2026-04-06T14:10:04.001Z</time></trkpt><trkpt lat="44.69531038632508" lon="9.360963502559562"><ele>478.0</ele><time>2026-04-06T14:10:05.001Z</time></trkpt><trkpt lat="44.69534679612072" lon="9.360801123851562"><ele>478.0</ele><time>2026-04-06T14:10:06.001Z</time></trkpt><trkpt lat="44.695389347860306" lon="9.360609535405477"><ele>478.6666666666667</ele><time>2026-04-06T14:10:07.001Z</time></trkpt><trkpt lat="44.69545138215411" lon="9.360366933074056"><ele>479.33333333333337</ele><time>2026-04-06T14:10:08.001Z</time></trkpt><trkpt lat="44.695519983471506" lon="9.360122537987994"><ele>480.0</ele><time>2026-04-06T14:10:09.001Z</time></trkpt><trkpt lat="44.695573985275125" lon="9.359909902775003"><ele>480.0</ele><time>2026-04-06T14:10:10.001Z</time></trkpt><trkpt lat="44.69559663076488" lon="9.359722986282057"><ele>480.0</ele><time>2026-04-06T14:10:11.001Z</time></trkpt><trkpt lat="44.69563072488441" lon="9.35956250556308"><ele>480.0</ele><time>2026-04-06T14:10:12.001Z</time></trkpt><trkpt lat="44.69562353212271" lon="9.35940660279156"><ele>480.0</ele><time>2026-04-06T14:10:13.001Z</time></trkpt><trkpt lat="44.695587779260435" lon="9.359268547529272"><ele>480.4</ele><time>2026-04-06T14:10:14.001Z</time></trkpt><trkpt lat="44.69552188059893" lon="9.359154821170792"><ele>480.8</ele><time>2026-04-06T14:10:15.001Z</time></trkpt><trkpt lat="44.6954349044449" lon="9.359066897524794"><ele>481.20000000000005</ele><time>2026-04-06T14:10:16.001Z</time></trkpt><trkpt lat="44.695337289700745" lon="9.359018244540215"><ele>481.6</ele><time>2026-04-06T14:10:17.001Z</time></trkpt><trkpt lat="44.695237692439534" lon="9.359017660954695"><ele>482.0</ele><time>2026-04-06T14:10:18.001Z</time></trkpt><trkpt lat="44.695142267644584" lon="9.359071632345351"><ele>479.75</ele><time>2026-04-06T14:10:19.001Z</time></trkpt><trkpt lat="44.695029206094006" lon="9.359141789791241"><ele>477.5</ele><time>2026-04-06T14:10:20.001Z</time></trkpt><trkpt lat="44.69489601466431" lon="9.359196017201887"><ele>475.25</ele><time>2026-04-06T14:10:21.001Z</time></trkpt><trkpt lat="44.69474174643912" lon="9.359243108663113"><ele>473.0</ele><time>2026-04-06T14:10:22.001Z</time></trkpt><trkpt lat="44.69461253435651" lon="9.359283595699592"><ele>473.0</ele><time>2026-04-06T14:10:23.001Z</time></trkpt><trkpt lat="44.69451046677664" lon="9.359309540854621"><ele>472.99999999999994</ele><time>2026-04-06T14:10:24.001Z</time></trkpt><trkpt lat="44.69441782984539" lon="9.359292839672008"><ele>472.99999999999994</ele><time>2026-04-06T14:10:25.001Z</time></trkpt><trkpt lat="44.69437720049181" lon="9.359167485523653"><ele>473.0</ele><time>2026-04-06T14:10:26.001Z</time></trkpt><trkpt lat="44.69430861359243" lon="9.35904776896052"><ele>473.0</ele><time>2026-04-06T14:10:27.001Z</time></trkpt><trkpt lat="44.69421911065283" lon="9.358902298122663"><ele>471.5</ele><time>2026-04-06T14:10:28.001Z</time></trkpt><trkpt lat="44.69411831207922" lon="9.358738040963038"><ele>470.0</ele><time>2026-04-06T14:10:29.001Z</time></trkpt><trkpt lat="44.69402673608807" lon="9.358596355325423"><ele>468.5</ele><time>2026-04-06T14:10:30.001Z</time></trkpt><trkpt lat="44.693956832404055" lon="9.35848793407179"><ele>467.0</ele><time>2026-04-06T14:10:31.001Z</time></trkpt><trkpt lat="44.693917347087734" lon="9.358398054215144"><ele>467.0</ele><time>2026-04-06T14:10:32.001Z</time></trkpt><trkpt lat="44.6939074933059" lon="9.358281739785676"><ele>467.0</ele><time>2026-04-06T14:10:33.001Z</time></trkpt><trkpt lat="44.693938467276624" lon="9.358152762812212"><ele>467.0</ele><time>2026-04-06T14:10:34.001Z</time></trkpt><trkpt lat="44.694008754406376" lon="9.358005698618978"><ele>467.0</ele><time>2026-04-06T14:10:35.001Z</time></trkpt><trkpt lat="44.69410028918379" lon="9.357849374048701"><ele>473.3333333333333</ele><time>2026-04-06T14:10:36.001Z</time></trkpt><trkpt lat="44.694228739307846" lon="9.357763005763944"><ele>479.66666666666663</ele><time>2026-04-06T14:10:37.001Z</time></trkpt><trkpt lat="44.69437177948621" lon="9.357656645715851"><ele>486.0</ele><time>2026-04-06T14:10:38.001Z</time></trkpt><trkpt lat="44.694505276315915" lon="9.357539532100157"><ele>486.0</ele><time>2026-04-06T14:10:39.001Z</time></trkpt><trkpt lat="44.694607278137234" lon="9.357457648920905"><ele>486.0</ele><time>2026-04-06T14:10:40.001Z</time></trkpt><trkpt lat="44.69467990718619" lon="9.357352013106244"><ele>486.0</ele><time>2026-04-06T14:10:41.001Z</time></trkpt><trkpt lat="44.694726884111965" lon="9.357188017862066"><ele>486.0</ele><time>2026-04-06T14:10:42.001Z</time></trkpt><trkpt lat="44.69476699116048" lon="9.356992108399174"><ele>481.66666666666663</ele><time>2026-04-06T14:10:43.001Z</time></trkpt><trkpt lat="44.694816281950956" lon="9.35678606041009"><ele>477.3333333333333</ele><time>2026-04-06T14:10:44.001Z</time></trkpt><trkpt lat="44.69486988663651" lon="9.356557124472456"><ele>473.0</ele><time>2026-04-06T14:10:45.001Z</time></trkpt><trkpt lat="44.69490910791049" lon="9.356343823192551"><ele>472.4</ele><time>2026-04-06T14:10:46.001Z</time></trkpt><trkpt lat="44.69493744654402" lon="9.356171107171857"><ele>471.79999999999995</ele><time>2026-04-06T14:10:47.001Z</time></trkpt><trkpt lat="44.69495036268389" lon="9.356036743332517"><ele>471.2</ele><time>2026-04-06T14:10:48.001Z</time></trkpt><trkpt lat="44.694922247416265" lon="9.355908735892415"><ele>470.6</ele><time>2026-04-06T14:10:49.001Z</time></trkpt><trkpt lat="44.69484858793096" lon="9.355796280092218"><ele>470.0</ele><time>2026-04-06T14:10:50.001Z</time></trkpt><trkpt lat="44.69476895079461" lon="9.355690815237274"><ele>470.0</ele><time>2026-04-06T14:10:51.001Z</time></trkpt><trkpt lat="44.694727092105516" lon="9.35555928886071"><ele>470.0</ele><time>2026-04-06T14:10:52.001Z</time></trkpt><trkpt lat="44.69474322910088" lon="9.355404573570043"><ele>470.0</ele><time>2026-04-06T14:10:53.001Z</time></trkpt><trkpt lat="44.69479018814947" lon="9.355217352581297"><ele>470.0</ele><time>2026-04-06T14:10:54.001Z</time></trkpt><trkpt lat="44.694834622470786" lon="9.35500142120118"><ele>469.25</ele><time>2026-04-06T14:10:55.001Z</time></trkpt><trkpt lat="44.694874057104954" lon="9.354786138982705"><ele>468.5</ele><time>2026-04-06T14:10:56.001Z</time></trkpt><trkpt lat="44.69489821184099" lon="9.354615963793055"><ele>467.75</ele><time>2026-04-06T14:10:57.001Z</time></trkpt><trkpt lat="44.6948788919629" lon="9.3544765460478"><ele>467.0</ele><time>2026-04-06T14:10:58.001Z</time></trkpt><trkpt lat="44.69481417812367" lon="9.354349675348162"><ele>469.75</ele><time>2026-04-06T14:10:59.001Z</time></trkpt><trkpt lat="44.69472908062542" lon="9.354215478169932"><ele>472.5</ele><time>2026-04-06T14:11:00.001Z</time></trkpt><trkpt lat="44.6946743257311" lon="9.354067405978357"><ele>475.25</ele><time>2026-04-06T14:11:01.001Z</time></trkpt><trkpt lat="44.694668286452426" lon="9.353883683184067"><ele>478.0</ele><time>2026-04-06T14:11:02.001Z</time></trkpt><trkpt lat="44.69470010026736" lon="9.353710253182536"><ele>475.0</ele><time>2026-04-06T14:11:03.001Z</time></trkpt><trkpt lat="44.69470821202372" lon="9.35357470324218"><ele>471.99999999999994</ele><time>2026-04-06T14:11:04.001Z</time></trkpt><trkpt lat="44.69467612729527" lon="9.353488643902102"><ele>468.99999999999994</ele><time>2026-04-06T14:11:05.001Z</time></trkpt><trkpt lat="44.694607448873064" lon="9.353413347642634"><ele>466.0</ele><time>2026-04-06T14:11:06.001Z</time></trkpt><trkpt lat="44.6945134988973" lon="9.353367760388881"><ele>463.0</ele><time>2026-04-06T14:11:07.001Z</time></trkpt><trkpt lat="44.694408572226294" lon="9.353378487825056"><ele>463.0</ele><time>2026-04-06T14:11:08.001Z</time></trkpt><trkpt lat="44.69428383410464" lon="9.353431652166194"><ele>463.0</ele><time>2026-04-06T14:11:09.001Z</time></trkpt><trkpt lat="44.69415690418158" lon="9.3534780608778"><ele>463.0</ele><time>2026-04-06T14:11:10.001Z</time></trkpt><trkpt lat="44.694049703258536" lon="9.353501419937395"><ele>463.0</ele><time>2026-04-06T14:11:11.001Z</time></trkpt><trkpt lat="44.69396233348747" lon="9.353487180519945"><ele>463.0</ele><time>2026-04-06T14:11:12.001Z</time></trkpt><trkpt lat="44.69388766926878" lon="9.3534102329935"><ele>462.99999999999994</ele><time>2026-04-06T14:11:13.001Z</time></trkpt><trkpt lat="44.69385064126392" lon="9.353272397057111"><ele>462.99999999999994</ele><time>2026-04-06T14:11:14.001Z</time></trkpt><trkpt lat="44.693772007517666" lon="9.353198816876999"><ele>463.0</ele><time>2026-04-06T14:11:15.001Z</time></trkpt><trkpt lat="44.69367566083674" lon="9.353169724802093"><ele>463.0</ele><time>2026-04-06T14:11:16.001Z</time></trkpt><trkpt lat="44.693549735216116" lon="9.353187517534932"><ele>459.0</ele><time>2026-04-06T14:11:17.001Z</time></trkpt><trkpt lat="44.69343329807358" lon="9.353217448000805"><ele>454.99999999999994</ele><time>2026-04-06T14:11:18.001Z</time></trkpt><trkpt lat="44.69334870587718" lon="9.353200543947718"><ele>450.99999999999994</ele><time>2026-04-06T14:11:19.001Z</time></trkpt><trkpt lat="44.69328366937174" lon="9.353120958835067"><ele>447.0</ele><time>2026-04-06T14:11:20.001Z</time></trkpt><trkpt lat="44.6932447890628" lon="9.352997034414793"><ele>443.0</ele><time>2026-04-06T14:11:21.001Z</time></trkpt><trkpt lat="44.69327807602401" lon="9.352857777233773"><ele>443.0</ele><time>2026-04-06T14:11:22.001Z</time></trkpt><trkpt lat="44.693312389270254" lon="9.35268373021885"><ele>443.0</ele><time>2026-04-06T14:11:23.001Z</time></trkpt><trkpt lat="44.693335980155744" lon="9.352486171582735"><ele>443.0</ele><time>2026-04-06T14:11:24.001Z</time></trkpt><trkpt lat="44.69333001609073" lon="9.352317423637194"><ele>443.0</ele><time>2026-04-06T14:11:25.001Z</time></trkpt><trkpt lat="44.6932762475046" lon="9.352160372366214"><ele>451.0</ele><time>2026-04-06T14:11:26.001Z</time></trkpt><trkpt lat="44.69318195183909" lon="9.351997055700256"><ele>459.0</ele><time>2026-04-06T14:11:27.001Z</time></trkpt><trkpt lat="44.69307566006855" lon="9.351812209408807"><ele>467.0</ele><time>2026-04-06T14:11:28.001Z</time></trkpt><trkpt lat="44.692983780990836" lon="9.351636558202467"><ele>467.0</ele><time>2026-04-06T14:11:29.001Z</time></trkpt><trkpt lat="44.69291993782461" lon="9.351473922001253"><ele>467.0</ele><time>2026-04-06T14:11:30.001Z</time></trkpt><trkpt lat="44.69292005626809" lon="9.351284113867298"><ele>467.0</ele><time>2026-04-06T14:11:31.001Z</time></trkpt><trkpt lat="44.69286013458512" lon="9.351100753819567"><ele>467.0</ele><time>2026-04-06T14:11:32Z</time></trkpt><trkpt lat="44.69278923182048" lon="9.350975690628227"><ele>467.25</ele><time>2026-04-06T14:11:33Z</time></trkpt><trkpt lat="44.69267558711667" lon="9.350843931348809"><ele>467.5</ele><time>2026-04-06T14:11:34Z</time></trkpt><trkpt lat="44.69255717127224" lon="9.350712504653835"><ele>467.75</ele><time>2026-04-06T14:11:35Z</time></trkpt><trkpt lat="44.69245338141472" lon="9.350590688716277"><ele>468.0</ele><time>2026-04-06T14:11:36Z</time></trkpt><trkpt lat="44.692401307105996" lon="9.350436677798076"><ele>468.0</ele><time>2026-04-06T14:11:37Z</time></trkpt><trkpt lat="44.69235200477698" lon="9.350261770680797"><ele>468.0</ele><time>2026-04-06T14:11:38Z</time></trkpt><trkpt lat="44.69227405757323" lon="9.35011076042372"><ele>468.0</ele><time>2026-04-06T14:11:39Z</time></trkpt><trkpt lat="44.692186754422714" lon="9.349993132313427"><ele>468.0</ele><time>2026-04-06T14:11:40Z</time></trkpt><trkpt lat="44.692094195782815" lon="9.349904087306266"><ele>468.0</ele><time>2026-04-06T14:11:41Z</time></trkpt><trkpt lat="44.69203119768481" lon="9.349811515103708"><ele>467.99999999999994</ele><time>2026-04-06T14:11:42Z</time></trkpt><trkpt lat="44.6920245398695" lon="9.349655997767298"><ele>467.99999999999994</ele><time>2026-04-06T14:11:43Z</time></trkpt><trkpt lat="44.69197169778069" lon="9.349529258673172"><ele>468.0</ele><time>2026-04-06T14:11:44Z</time></trkpt><trkpt lat="44.691903884556304" lon="9.349421973168559"><ele>468.0</ele><time>2026-04-06T14:11:45Z</time></trkpt><trkpt lat="44.69179229621205" lon="9.349353033797907"><ele>461.4</ele><time>2026-04-06T14:11:46Z</time></trkpt><trkpt lat="44.69168133119236" lon="9.349309587338071"><ele>454.79999999999995</ele><time>2026-04-06T14:11:47Z</time></trkpt><trkpt lat="44.691592375306236" lon="9.349251286806187"><ele>448.2</ele><time>2026-04-06T14:11:48Z</time></trkpt><trkpt lat="44.691542305197586" lon="9.349131705981222"><ele>441.6</ele><time>2026-04-06T14:11:49Z</time></trkpt><trkpt lat="44.69149990657559" lon="9.349008451794951"><ele>435.0</ele><time>2026-04-06T14:11:50Z</time></trkpt><trkpt lat="44.69151104356229" lon="9.3488677292602"><ele>435.0</ele><time>2026-04-06T14:11:51Z</time></trkpt><trkpt lat="44.6916016898302" lon="9.34876069292719"><ele>435.0</ele><time>2026-04-06T14:11:52Z</time></trkpt><trkpt lat="44.69167981334098" lon="9.348612624017973"><ele>435.0</ele><time>2026-04-06T14:11:53Z</time></trkpt><trkpt lat="44.69175214603613" lon="9.348446327548382"><ele>435.0</ele><time>2026-04-06T14:11:54Z</time></trkpt><trkpt lat="44.691800335499785" lon="9.34827879508356"><ele>435.0</ele><time>2026-04-06T14:11:55Z</time></trkpt><trkpt lat="44.69182594916476" lon="9.348122261461013"><ele>435.0</ele><time>2026-04-06T14:11:56Z</time></trkpt><trkpt lat="44.691846863216675" lon="9.347994728894605"><ele>435.0</ele><time>2026-04-06T14:11:57Z</time></trkpt><trkpt lat="44.69184013698072" lon="9.3478802081583"><ele>435.0</ele><time>2026-04-06T14:11:58Z</time></trkpt><trkpt lat="44.69179749285368" lon="9.347777893745313"><ele>435.0</ele><time>2026-04-06T14:11:59Z</time></trkpt><trkpt lat="44.691723263266994" lon="9.347700837782938"><ele>436.4</ele><time>2026-04-06T14:12:00Z</time></trkpt><trkpt lat="44.69162991891502" lon="9.347637163909356"><ele>437.8</ele><time>2026-04-06T14:12:01Z</time></trkpt><trkpt lat="44.6915546414244" lon="9.347555535396914"><ele>439.20000000000005</ele><time>2026-04-06T14:12:02Z</time></trkpt><trkpt lat="44.69150756872923" lon="9.347409278935247"><ele>440.6</ele><time>2026-04-06T14:12:03Z</time></trkpt><trkpt lat="44.69145972791121" lon="9.347259156983784"><ele>442.0</ele><time>2026-04-06T14:12:04Z</time></trkpt><trkpt lat="44.69143548718037" lon="9.347139445045853"><ele>442.6</ele><time>2026-04-06T14:12:05Z</time></trkpt><trkpt lat="44.69144384548526" lon="9.347014468166781"><ele>443.20000000000005</ele><time>2026-04-06T14:12:06Z</time></trkpt><trkpt lat="44.691494545375406" lon="9.346878525234729"><ele>443.8</ele><time>2026-04-06T14:12:07Z</time></trkpt><trkpt lat="44.691570648969396" lon="9.346741436048736"><ele>444.4</ele><time>2026-04-06T14:12:08Z</time></trkpt><trkpt lat="44.691618112356295" lon="9.346625308295314"><ele>445.0</ele><time>2026-04-06T14:12:09Z</time></trkpt><trkpt lat="44.6916093611189" lon="9.346505079475131"><ele>445.0</ele><time>2026-04-06T14:12:10Z</time></trkpt><trkpt lat="44.69154909608344" lon="9.346390035077757"><ele>445.0</ele><time>2026-04-06T14:12:11Z</time></trkpt><trkpt lat="44.69146121230534" lon="9.346288158467145"><ele>445.0</ele><time>2026-04-06T14:12:12Z</time></trkpt><trkpt lat="44.691345422106814" lon="9.346211196180906"><ele>445.0</ele><time>2026-04-06T14:12:13Z</time></trkpt><trkpt lat="44.691240528378366" lon="9.346109761720788"><ele>445.0</ele><time>2026-04-06T14:12:14Z</time></trkpt><trkpt lat="44.69117062462371" lon="9.345999744033389"><ele>445.0</ele><time>2026-04-06T14:12:15Z</time></trkpt><trkpt lat="44.69113737741" lon="9.345850283904571"><ele>445.0</ele><time>2026-04-06T14:12:16Z</time></trkpt><trkpt lat="44.6911544642263" lon="9.345709883926457"><ele>445.0</ele><time>2026-04-06T14:12:17Z</time></trkpt><trkpt lat="44.69114983291652" lon="9.345577018036643"><ele>445.0</ele><time>2026-04-06T14:12:18Z</time></trkpt><trkpt lat="44.69116125245824" lon="9.345440137126749"><ele>445.00000000000006</ele><time>2026-04-06T14:12:19Z</time></trkpt><trkpt lat="44.69116758240557" lon="9.345310527835794"><ele>445.0</ele><time>2026-04-06T14:12:20Z</time></trkpt><trkpt lat="44.69117333395642" lon="9.345179375751373"><ele>445.0</ele><time>2026-04-06T14:12:21Z</time></trkpt><trkpt lat="44.69118308910676" lon="9.345058000339598"><ele>445.0</ele><time>2026-04-06T14:12:22Z</time></trkpt><trkpt lat="44.69120810349535" lon="9.344946885445419"><ele>445.00000000000006</ele><time>2026-04-06T14:12:23Z</time></trkpt><trkpt lat="44.6912504589045" lon="9.3448396454308"><ele>445.0</ele><time>2026-04-06T14:12:24Z</time></trkpt><trkpt lat="44.69130858330332" lon="9.344764533854056"><ele>445.0</ele><time>2026-04-06T14:12:25Z</time></trkpt><trkpt lat="44.69138971159195" lon="9.344730699990267"><ele>445.0</ele><time>2026-04-06T14:12:26Z</time></trkpt><trkpt lat="44.691527931383256" lon="9.34471100780424"><ele>445.0</ele><time>2026-04-06T14:12:27Z</time></trkpt><trkpt lat="44.69168578481418" lon="9.344562934600352"><ele>445.0</ele><time>2026-04-06T14:12:28Z</time></trkpt><trkpt lat="44.6918419499577" lon="9.344375333565894"><ele>444.6666666666667</ele><time>2026-04-06T14:12:29Z</time></trkpt><trkpt lat="44.69201489935564" lon="9.344206388750024"><ele>444.33333333333337</ele><time>2026-04-06T14:12:30Z</time></trkpt><trkpt lat="44.69219093457742" lon="9.344112072628384"><ele>444.0</ele><time>2026-04-06T14:12:31Z</time></trkpt><trkpt lat="44.692324370482424" lon="9.343957693431767"><ele>431.66666666666663</ele><time>2026-04-06T14:12:32Z</time></trkpt><trkpt lat="44.69245970414547" lon="9.343784786889843"><ele>419.3333333333333</ele><time>2026-04-06T14:12:33Z</time></trkpt><trkpt lat="44.69258144185166" lon="9.343606474031002"><ele>407.0</ele><time>2026-04-06T14:12:34Z</time></trkpt><trkpt lat="44.69268858393261" lon="9.34345377139409"><ele>411.25</ele><time>2026-04-06T14:12:35Z</time></trkpt><trkpt lat="44.69275994242336" lon="9.343287359498683"><ele>415.5</ele><time>2026-04-06T14:12:36Z</time></trkpt><trkpt lat="44.6928187053499" lon="9.34308237644888"><ele>419.75</ele><time>2026-04-06T14:12:37Z</time></trkpt><trkpt lat="44.692864747034236" lon="9.342876351979461"><ele>424.0</ele><time>2026-04-06T14:12:38Z</time></trkpt><trkpt lat="44.692933056195685" lon="9.342704923483183"><ele>424.0</ele><time>2026-04-06T14:12:39Z</time></trkpt><trkpt lat="44.69303774109453" lon="9.342514240704995"><ele>424.0</ele><time>2026-04-06T14:12:40Z</time></trkpt><trkpt lat="44.69314660433843" lon="9.342295315356486"><ele>424.0</ele><time>2026-04-06T14:12:41Z</time></trkpt><trkpt lat="44.693246052105934" lon="9.342135367230025"><ele>421.6</ele><time>2026-04-06T14:12:42Z</time></trkpt><trkpt lat="44.69333789943084" lon="9.342028407790046"><ele>419.2</ele><time>2026-04-06T14:12:43Z</time></trkpt><trkpt lat="44.69340991138578" lon="9.34194509145381"><ele>416.8</ele><time>2026-04-06T14:12:44Z</time></trkpt><trkpt lat="44.69344130214083" lon="9.341856668507875"><ele>414.40000000000003</ele><time>2026-04-06T14:12:45Z</time></trkpt><trkpt lat="44.69344615418271" lon="9.34174492237854"><ele>412.0</ele><time>2026-04-06T14:12:46Z</time></trkpt><trkpt lat="44.69343357548463" lon="9.341601684985982"><ele>412.0</ele><time>2026-04-06T14:12:47Z</time></trkpt><trkpt lat="44.69342548583752" lon="9.341473406054384"><ele>412.0</ele><time>2026-04-06T14:12:48Z</time></trkpt><trkpt lat="44.69341203890933" lon="9.341358704527913"><ele>412.0</ele><time>2026-04-06T14:12:49Z</time></trkpt><trkpt lat="44.69336419618785" lon="9.341252615485631"><ele>412.0</ele><time>2026-04-06T14:12:50Z</time></trkpt><trkpt lat="44.69328453321263" lon="9.341139597586489"><ele>412.0</ele><time>2026-04-06T14:12:51Z</time></trkpt><trkpt lat="44.69317828788427" lon="9.341036122376892"><ele>418.75</ele><time>2026-04-06T14:12:52Z</time></trkpt><trkpt lat="44.69304842440835" lon="9.341020928580127"><ele>425.5</ele><time>2026-04-06T14:12:53Z</time></trkpt><trkpt lat="44.692929213587" lon="9.34102564636544"><ele>432.25</ele><time>2026-04-06T14:12:54Z</time></trkpt><trkpt lat="44.69281829102387" lon="9.341094879991147"><ele>439.0</ele><time>2026-04-06T14:12:55Z</time></trkpt><trkpt lat="44.69268898657974" lon="9.341146573916626"><ele>439.0</ele><time>2026-04-06T14:12:56Z</time></trkpt><trkpt lat="44.692580333294416" lon="9.34122884493397"><ele>439.0</ele><time>2026-04-06T14:12:57Z</time></trkpt><trkpt lat="44.692475979161244" lon="9.341360361437161"><ele>439.0</ele><time>2026-04-06T14:12:58Z</time></trkpt><trkpt lat="44.69238719159734" lon="9.341530302478107"><ele>439.0</ele><time>2026-04-06T14:12:59Z</time></trkpt><trkpt lat="44.69229312501377" lon="9.341701985449891"><ele>432.5</ele><time>2026-04-06T14:13:00Z</time></trkpt><trkpt lat="44.6921920858887" lon="9.341880425956557"><ele>426.0</ele><time>2026-04-06T14:13:01Z</time></trkpt><trkpt lat="44.69209260588572" lon="9.342044778377062"><ele>419.5</ele><time>2026-04-06T14:13:02Z</time></trkpt><trkpt lat="44.692017666764265" lon="9.342194806528454"><ele>413.0</ele><time>2026-04-06T14:13:03Z</time></trkpt><trkpt lat="44.691927436751214" lon="9.342295153799634"><ele>410.2</ele><time>2026-04-06T14:13:04Z</time></trkpt><trkpt lat="44.69182121245139" lon="9.342337647147724"><ele>407.4</ele><time>2026-04-06T14:13:05Z</time></trkpt><trkpt lat="44.691710143242936" lon="9.342364253034319"><ele>404.59999999999997</ele><time>2026-04-06T14:13:06Z</time></trkpt><trkpt lat="44.69162434131941" lon="9.342382727664138"><ele>401.79999999999995</ele><time>2026-04-06T14:13:07.001Z</time></trkpt><trkpt lat="44.691547598758675" lon="9.342364522267872"><ele>399.0</ele><time>2026-04-06T14:13:08.001Z</time></trkpt><trkpt lat="44.691484760102846" lon="9.34227847936031"><ele>403.5</ele><time>2026-04-06T14:13:09.001Z</time></trkpt><trkpt lat="44.691468490825564" lon="9.342134944453885"><ele>408.0</ele><time>2026-04-06T14:13:10.001Z</time></trkpt><trkpt lat="44.69145570605915" lon="9.341984718625538"><ele>412.5</ele><time>2026-04-06T14:13:11.001Z</time></trkpt><trkpt lat="44.69153836495994" lon="9.341817052100803"><ele>417.0</ele><time>2026-04-06T14:13:12.001Z</time></trkpt><trkpt lat="44.69155393127027" lon="9.341593291050003"><ele>418.66666666666663</ele><time>2026-04-06T14:13:13.001Z</time></trkpt><trkpt lat="44.69152816848574" lon="9.34136913340536"><ele>420.3333333333333</ele><time>2026-04-06T14:13:14.001Z</time></trkpt><trkpt lat="44.69146932887454" lon="9.341146434737322"><ele>422.0</ele><time>2026-04-06T14:13:15.001Z</time></trkpt><trkpt lat="44.69142105752162" lon="9.340950490498223"><ele>422.0</ele><time>2026-04-06T14:13:16.001Z</time></trkpt><trkpt lat="44.691401012534705" lon="9.340791162423889"><ele>422.0</ele><time>2026-04-06T14:13:17.001Z</time></trkpt><trkpt lat="44.691454968109774" lon="9.340636597918026"><ele>422.0</ele><time>2026-04-06T14:13:18.001Z</time></trkpt><trkpt lat="44.69150423318676" lon="9.34043093275549"><ele>422.0</ele><time>2026-04-06T14:13:19.001Z</time></trkpt><trkpt lat="44.69155648174364" lon="9.340213908689254"><ele>422.20000000000005</ele><time>2026-04-06T14:13:20Z</time></trkpt><trkpt lat="44.69158253093936" lon="9.340030692408668"><ele>422.4</ele><time>2026-04-06T14:13:21Z</time></trkpt><trkpt lat="44.69160867331226" lon="9.33989532010622"><ele>422.6</ele><time>2026-04-06T14:13:22Z</time></trkpt><trkpt lat="44.691604015002014" lon="9.339785606496894"><ele>422.79999999999995</ele><time>2026-04-06T14:13:23Z</time></trkpt><trkpt lat="44.69156682941566" lon="9.339680895959914"><ele>423.0</ele><time>2026-04-06T14:13:24Z</time></trkpt><trkpt lat="44.691505315021374" lon="9.339583083039113"><ele>422.59999999999997</ele><time>2026-04-06T14:13:25Z</time></trkpt><trkpt lat="44.69144715285028" lon="9.339477466202158"><ele>422.2</ele><time>2026-04-06T14:13:26Z</time></trkpt><trkpt lat="44.691407234870404" lon="9.339385284126937"><ele>421.8</ele><time>2026-04-06T14:13:27Z</time></trkpt><trkpt lat="44.691423296363816" lon="9.339266834953339"><ele>421.4</ele><time>2026-04-06T14:13:28Z</time></trkpt><trkpt lat="44.6915103879537" lon="9.339165632712728"><ele>421.0</ele><time>2026-04-06T14:13:29Z</time></trkpt><trkpt lat="44.69157925376719" lon="9.339041996579263"><ele>421.0</ele><time>2026-04-06T14:13:30Z</time></trkpt><trkpt lat="44.69164848690144" lon="9.338918537283138"><ele>421.0</ele><time>2026-04-06T14:13:31Z</time></trkpt><trkpt lat="44.691708309198425" lon="9.338811859715706"><ele>421.0</ele><time>2026-04-06T14:13:32Z</time></trkpt><trkpt lat="44.691765955717095" lon="9.338711559043873"><ele>421.0</ele><time>2026-04-06T14:13:33Z</time></trkpt><trkpt lat="44.6918053134422" lon="9.338599726390335"><ele>421.0</ele><time>2026-04-06T14:13:34Z</time></trkpt><trkpt lat="44.69184010091525" lon="9.338492275151204"><ele>420.8</ele><time>2026-04-06T14:13:35Z</time></trkpt><trkpt lat="44.691848017399245" lon="9.33835862457597"><ele>420.6</ele><time>2026-04-06T14:13:36Z</time></trkpt><trkpt lat="44.69181522180878" lon="9.338222393064356"><ele>420.4</ele><time>2026-04-06T14:13:37Z</time></trkpt><trkpt lat="44.6917512096415" lon="9.33809816263881"><ele>420.2</ele><time>2026-04-06T14:13:38Z</time></trkpt><trkpt lat="44.6916662211938" lon="9.33798871911995"><ele>420.0</ele><time>2026-04-06T14:13:39Z</time></trkpt><trkpt lat="44.691558217356004" lon="9.337909813903247"><ele>423.0</ele><time>2026-04-06T14:13:40Z</time></trkpt><trkpt lat="44.691386159782155" lon="9.337889983073564"><ele>426.0</ele><time>2026-04-06T14:13:41Z</time></trkpt><trkpt lat="44.691234535285254" lon="9.337857746074963"><ele>429.0</ele><time>2026-04-06T14:13:42Z</time></trkpt><trkpt lat="44.69109731964511" lon="9.337817942838887"><ele>427.2</ele><time>2026-04-06T14:13:43Z</time></trkpt><trkpt lat="44.69098260047753" lon="9.337786125599465"><ele>425.4</ele><time>2026-04-06T14:13:44Z</time></trkpt><trkpt lat="44.69089456853748" lon="9.337740388459808"><ele>423.6</ele><time>2026-04-06T14:13:45Z</time></trkpt><trkpt lat="44.69082331869754" lon="9.337657343701547"><ele>421.8</ele><time>2026-04-06T14:13:46Z</time></trkpt><trkpt lat="44.69074556495278" lon="9.33754614462555"><ele>420.0</ele><time>2026-04-06T14:13:47Z</time></trkpt><trkpt lat="44.69066121715129" lon="9.337421585507078"><ele>420.0</ele><time>2026-04-06T14:13:48Z</time></trkpt><trkpt lat="44.69057975512079" lon="9.33729366998752"><ele>420.0</ele><time>2026-04-06T14:13:49Z</time></trkpt><trkpt lat="44.69051747611227" lon="9.337169799430958"><ele>420.0</ele><time>2026-04-06T14:13:50Z</time></trkpt><trkpt lat="44.69048989068436" lon="9.337035267565335"><ele>420.0</ele><time>2026-04-06T14:13:51Z</time></trkpt><trkpt lat="44.69054172746291" lon="9.336878110687993"><ele>421.0</ele><time>2026-04-06T14:13:52Z</time></trkpt><trkpt lat="44.69055489720715" lon="9.336661761465328"><ele>422.0</ele><time>2026-04-06T14:13:53Z</time></trkpt><trkpt lat="44.69058376816297" lon="9.336413099638799"><ele>423.0</ele><time>2026-04-06T14:13:54Z</time></trkpt><trkpt lat="44.69058744307416" lon="9.336151289994687"><ele>422.66666666666663</ele><time>2026-04-06T14:13:55Z</time></trkpt><trkpt lat="44.69058312770136" lon="9.335899155369319"><ele>422.3333333333333</ele><time>2026-04-06T14:13:56Z</time></trkpt><trkpt lat="44.690576950234366" lon="9.335660839523362"><ele>422.0</ele><time>2026-04-06T14:13:57Z</time></trkpt><trkpt lat="44.69057487440384" lon="9.335451693958783"><ele>422.0</ele><time>2026-04-06T14:13:58Z</time></trkpt><trkpt lat="44.69057258948231" lon="9.335276548094422"><ele>422.0</ele><time>2026-04-06T14:13:59Z</time></trkpt><trkpt lat="44.69055930885324" lon="9.33511689697279"><ele>422.0</ele><time>2026-04-06T14:14:00Z</time></trkpt><trkpt lat="44.69051984725074" lon="9.334956797858045"><ele>422.0</ele><time>2026-04-06T14:14:01Z</time></trkpt><trkpt lat="44.69044882452993" lon="9.334807237085899"><ele>420.75</ele><time>2026-04-06T14:14:02Z</time></trkpt><trkpt lat="44.69035231372073" lon="9.334658090366629"><ele>419.5</ele><time>2026-04-06T14:14:03Z</time></trkpt><trkpt lat="44.69025747224244" lon="9.334519102726043"><ele>418.25</ele><time>2026-04-06T14:14:04Z</time></trkpt><trkpt lat="44.69018820771169" lon="9.334388217950407"><ele>417.0</ele><time>2026-04-06T14:14:05Z</time></trkpt><trkpt lat="44.690168911478956" lon="9.334228491520685"><ele>412.0</ele><time>2026-04-06T14:14:06Z</time></trkpt><trkpt lat="44.690176646749755" lon="9.3340549881908"><ele>407.0</ele><time>2026-04-06T14:14:07Z</time></trkpt><trkpt lat="44.69016508957827" lon="9.333840386178473"><ele>402.0</ele><time>2026-04-06T14:14:08Z</time></trkpt><trkpt lat="44.69016243491293" lon="9.333611818180504"><ele>397.0</ele><time>2026-04-06T14:14:09Z</time></trkpt><trkpt lat="44.69014812510794" lon="9.333396448798906"><ele>397.0</ele><time>2026-04-06T14:14:10Z</time></trkpt><trkpt lat="44.69013079429134" lon="9.33323586004259"><ele>397.0</ele><time>2026-04-06T14:14:11Z</time></trkpt><trkpt lat="44.69011888945497" lon="9.333131014427046"><ele>397.0</ele><time>2026-04-06T14:14:12Z</time></trkpt><trkpt lat="44.69013920347321" lon="9.333027796429203"><ele>397.0</ele><time>2026-04-06T14:14:13Z</time></trkpt><trkpt lat="44.690206836366734" lon="9.332933396592471"><ele>397.0</ele><time>2026-04-06T14:14:14Z</time></trkpt><trkpt lat="44.69031841845547" lon="9.332876641836599"><ele>397.0</ele><time>2026-04-06T14:14:15Z</time></trkpt><trkpt lat="44.690436858280634" lon="9.332804659496917"><ele>397.0</ele><time>2026-04-06T14:14:16Z</time></trkpt><trkpt lat="44.69055703229018" lon="9.332779156670778"><ele>397.0</ele><time>2026-04-06T14:14:17Z</time></trkpt><trkpt lat="44.69068744789008" lon="9.332745283174717"><ele>397.0</ele><time>2026-04-06T14:14:18Z</time></trkpt><trkpt lat="44.6908165179253" lon="9.332749421511988"><ele>397.00000000000006</ele><time>2026-04-06T14:14:19Z</time></trkpt><trkpt lat="44.69091582400292" lon="9.33273584473042"><ele>397.0</ele><time>2026-04-06T14:14:20Z</time></trkpt><trkpt lat="44.690983798542526" lon="9.332718444442621"><ele>397.0</ele><time>2026-04-06T14:14:21Z</time></trkpt><trkpt lat="44.691056218259796" lon="9.332565392437491"><ele>397.0</ele><time>2026-04-06T14:14:23Z</time></trkpt><trkpt lat="44.69105236454365" lon="9.332465749217565"><ele>397.00000000000006</ele><time>2026-04-06T14:14:24Z</time></trkpt><trkpt lat="44.69103225385186" lon="9.332364560595373"><ele>397.0</ele><time>2026-04-06T14:14:25Z</time></trkpt><trkpt lat="44.690996477552574" lon="9.332269241397254"><ele>397.0</ele><time>2026-04-06T14:14:26Z</time></trkpt><trkpt lat="44.690899869090856" lon="9.33223690615352"><ele>397.0</ele><time>2026-04-06T14:14:27Z</time></trkpt><trkpt lat="44.69079640072424" lon="9.332223300994206"><ele>397.0</ele><time>2026-04-06T14:14:28Z</time></trkpt><trkpt lat="44.69069189864307" lon="9.332206840885313"><ele>397.0</ele><time>2026-04-06T14:14:29Z</time></trkpt><trkpt lat="44.69060829710884" lon="9.332133341875382"><ele>397.0</ele><time>2026-04-06T14:14:30Z</time></trkpt><trkpt lat="44.69054181258448" lon="9.332033832116032"><ele>398.75</ele><time>2026-04-06T14:14:31Z</time></trkpt><trkpt lat="44.69045026686254" lon="9.331912270154474"><ele>400.5</ele><time>2026-04-06T14:14:32Z</time></trkpt><trkpt lat="44.69037786827901" lon="9.331771008937471"><ele>402.25</ele><time>2026-04-06T14:14:33Z</time></trkpt><trkpt lat="44.690309475921076" lon="9.331652197904205"><ele>404.0</ele><time>2026-04-06T14:14:34Z</time></trkpt><trkpt lat="44.690247905084135" lon="9.331549663633805"><ele>399.0</ele><time>2026-04-06T14:14:35Z</time></trkpt><trkpt lat="44.69022753366626" lon="9.331422513664725"><ele>394.0</ele><time>2026-04-06T14:14:36Z</time></trkpt><trkpt lat="44.69018783974737" lon="9.331302812069364"><ele>389.0</ele><time>2026-04-06T14:14:37Z</time></trkpt><trkpt lat="44.69017380575266" lon="9.331174721765024"><ele>384.0</ele><time>2026-04-06T14:14:38Z</time></trkpt><trkpt lat="44.69018380859911" lon="9.331041082703623"><ele>379.0</ele><time>2026-04-06T14:14:39Z</time></trkpt><trkpt lat="44.690165410450426" lon="9.330897910758647"><ele>378.5</ele><time>2026-04-06T14:14:40Z</time></trkpt><trkpt lat="44.690180796422034" lon="9.330734786400145"><ele>378.0</ele><time>2026-04-06T14:14:41Z</time></trkpt><trkpt lat="44.69020602823651" lon="9.330563956507959"><ele>377.5</ele><time>2026-04-06T14:14:42Z</time></trkpt><trkpt lat="44.69022955200523" lon="9.330397864525613"><ele>377.0</ele><time>2026-04-06T14:14:43Z</time></trkpt><trkpt lat="44.690236042551724" lon="9.330235283183404"><ele>377.0</ele><time>2026-04-06T14:14:44Z</time></trkpt><trkpt lat="44.69023162601159" lon="9.330082204311516"><ele>377.0</ele><time>2026-04-06T14:14:45Z</time></trkpt><trkpt lat="44.69022845739577" lon="9.329948883898052"><ele>377.0</ele><time>2026-04-06T14:14:46Z</time></trkpt><trkpt lat="44.69021289065877" lon="9.329822738881356"><ele>377.0</ele><time>2026-04-06T14:14:47Z</time></trkpt><trkpt lat="44.69017653548943" lon="9.32971780180743"><ele>377.0</ele><time>2026-04-06T14:14:48Z</time></trkpt><trkpt lat="44.690107658832595" lon="9.329640621473832"><ele>376.6</ele><time>2026-04-06T14:14:49Z</time></trkpt><trkpt lat="44.6900264572012" lon="9.329589238921683"><ele>376.20000000000005</ele><time>2026-04-06T14:14:50Z</time></trkpt><trkpt lat="44.68993343908847" lon="9.329541564572255"><ele>375.8</ele><time>2026-04-06T14:14:51Z</time></trkpt><trkpt lat="44.68984042871959" lon="9.329483196861995"><ele>375.4</ele><time>2026-04-06T14:14:52Z</time></trkpt><trkpt lat="44.68974802437652" lon="9.329419912674691"><ele>375.0</ele><time>2026-04-06T14:14:53Z</time></trkpt><trkpt lat="44.68965235805084" lon="9.329356435502838"><ele>375.0</ele><time>2026-04-06T14:14:54Z</time></trkpt><trkpt lat="44.689557843484934" lon="9.32929897143359"><ele>375.0</ele><time>2026-04-06T14:14:55Z</time></trkpt><trkpt lat="44.689466564419654" lon="9.329241447753793"><ele>375.0</ele><time>2026-04-06T14:14:56Z</time></trkpt><trkpt lat="44.68937383491194" lon="9.329186875167112"><ele>375.0</ele><time>2026-04-06T14:14:57Z</time></trkpt><trkpt lat="44.68928258008983" lon="9.329126358725935"><ele>375.0</ele><time>2026-04-06T14:14:58Z</time></trkpt><trkpt lat="44.689189533055185" lon="9.32907144191932"><ele>374.6666666666667</ele><time>2026-04-06T14:14:59Z</time></trkpt><trkpt lat="44.68910327066674" lon="9.329010539768671"><ele>374.3333333333333</ele><time>2026-04-06T14:15:00Z</time></trkpt><trkpt lat="44.68902595988803" lon="9.328980908419771"><ele>374.0</ele><time>2026-04-06T14:15:01Z</time></trkpt><trkpt lat="44.688974220759484" lon="9.328917137092153"><ele>373.66666666666663</ele><time>2026-04-06T14:15:02Z</time></trkpt><trkpt lat="44.688910327713515" lon="9.328875528818147"><ele>373.3333333333333</ele><time>2026-04-06T14:15:03Z</time></trkpt><trkpt lat="44.68887738798339" lon="9.328777448405942"><ele>373.0</ele><time>2026-04-06T14:15:04Z</time></trkpt><trkpt lat="44.68887601764275" lon="9.328658589842316"><ele>373.0</ele><time>2026-04-06T14:15:05Z</time></trkpt><trkpt lat="44.688938353161404" lon="9.328542339889339"><ele>373.0</ele><time>2026-04-06T14:15:06Z</time></trkpt><trkpt lat="44.68895314122785" lon="9.328399133391345"><ele>373.0</ele><time>2026-04-06T14:15:07Z</time></trkpt><trkpt lat="44.68899321166984" lon="9.328266338353206"><ele>373.0</ele><time>2026-04-06T14:15:08Z</time></trkpt><trkpt lat="44.68901564793569" lon="9.328139231485848"><ele>373.0</ele><time>2026-04-06T14:15:09Z</time></trkpt><trkpt lat="44.689048007196085" lon="9.32802267587393"><ele>373.8333333333333</ele><time>2026-04-06T14:15:10Z</time></trkpt><trkpt lat="44.689075814026936" lon="9.327908929999913"><ele>374.66666666666663</ele><time>2026-04-06T14:15:11Z</time></trkpt><trkpt lat="44.689091180116485" lon="9.327801203486773"><ele>375.5</ele><time>2026-04-06T14:15:12Z</time></trkpt><trkpt lat="44.689096064277315" lon="9.327710323204624"><ele>376.3333333333333</ele><time>2026-04-06T14:15:13Z</time></trkpt><trkpt lat="44.68910591771409" lon="9.327561824018751"><ele>377.1666666666667</ele><time>2026-04-06T14:15:15Z</time></trkpt><trkpt lat="44.689117507132416" lon="9.327417264697914"><ele>378.0</ele><time>2026-04-06T14:15:17Z</time></trkpt><trkpt lat="44.689146088071176" lon="9.327244141449553"><ele>379.1666666666667</ele><time>2026-04-06T14:15:19Z</time></trkpt><trkpt lat="44.689154256746676" lon="9.327152918068153"><ele>380.33333333333337</ele><time>2026-04-06T14:15:20Z</time></trkpt><trkpt lat="44.689162229198196" lon="9.327040237448811"><ele>381.5</ele><time>2026-04-06T14:15:22Z</time></trkpt><trkpt lat="44.6891756817806" lon="9.32694317279254"><ele>382.6666666666667</ele><time>2026-04-06T14:15:42Z</time></trkpt><trkpt lat="44.68918989647477" lon="9.326816461529129"><ele>383.83333333333337</ele><time>2026-04-06T14:15:44Z</time></trkpt><trkpt lat="44.68920178699508" lon="9.32672053088661"><ele>385.0</ele><time>2026-04-06T14:15:45Z</time></trkpt><trkpt lat="44.689218534572966" lon="9.326619911103935"><ele>385.0</ele><time>2026-04-06T14:15:46Z</time></trkpt><trkpt lat="44.689235065965896" lon="9.326533270859708"><ele>385.0</ele><time>2026-04-06T14:15:47Z</time></trkpt><trkpt lat="44.689253456874496" lon="9.326436884987471"><ele>385.0</ele><time>2026-04-06T14:15:48Z</time></trkpt><trkpt lat="44.68927166634636" lon="9.326341450192777"><ele>385.0</ele><time>2026-04-06T14:15:49Z</time></trkpt><trkpt lat="44.6892889474754" lon="9.326250880695117"><ele>385.0</ele><time>2026-04-06T14:15:50Z</time></trkpt><trkpt lat="44.68930599227501" lon="9.326141595109235"><ele>385.0</ele><time>2026-04-06T14:15:51Z</time></trkpt><trkpt lat="44.68931937583298" lon="9.326007675841577"><ele>385.0</ele><time>2026-04-06T14:15:52Z</time></trkpt><trkpt lat="44.6893275161632" lon="9.32587248951332"><ele>385.6666666666667</ele><time>2026-04-06T14:15:53Z</time></trkpt><trkpt lat="44.68933535484796" lon="9.32575700883175"><ele>386.33333333333337</ele><time>2026-04-06T14:15:54Z</time></trkpt><trkpt lat="44.68934304974383" lon="9.32563166914372"><ele>387.0</ele><time>2026-04-06T14:15:55Z</time></trkpt><trkpt lat="44.689347712761446" lon="9.325505246957821"><ele>387.66666666666663</ele><time>2026-04-06T14:15:56Z</time></trkpt><trkpt lat="44.68934992614826" lon="9.325383434650055"><ele>388.3333333333333</ele><time>2026-04-06T14:15:57Z</time></trkpt><trkpt lat="44.6893465834256" lon="9.325252490484036"><ele>389.0</ele><time>2026-04-06T14:15:58Z</time></trkpt><trkpt lat="44.68932539666908" lon="9.32512042223849"><ele>389.6</ele><time>2026-04-06T14:15:59Z</time></trkpt><trkpt lat="44.68932255472888" lon="9.324981644962014"><ele>390.2</ele><time>2026-04-06T14:16:00Z</time></trkpt><trkpt lat="44.68931603158368" lon="9.324851398547976"><ele>390.8</ele><time>2026-04-06T14:16:01Z</time></trkpt><trkpt lat="44.68931054595568" lon="9.324709742625739"><ele>391.40000000000003</ele><time>2026-04-06T14:16:02Z</time></trkpt><trkpt lat="44.689304346538634" lon="9.324551507383038"><ele>392.0</ele><time>2026-04-06T14:16:03Z</time></trkpt><trkpt lat="44.689302073841695" lon="9.32438015133291"><ele>391.8</ele><time>2026-04-06T14:16:04Z</time></trkpt><trkpt lat="44.68929161461291" lon="9.324206591204415"><ele>391.6</ele><time>2026-04-06T14:16:05Z</time></trkpt><trkpt lat="44.689281882413866" lon="9.324055094113488"><ele>391.40000000000003</ele><time>2026-04-06T14:16:06Z</time></trkpt><trkpt lat="44.68927388748977" lon="9.3239163391664"><ele>391.20000000000005</ele><time>2026-04-06T14:16:07Z</time></trkpt><trkpt lat="44.68923576759402" lon="9.32377161660362"><ele>391.0</ele><time>2026-04-06T14:16:08Z</time></trkpt><trkpt lat="44.689172421896615" lon="9.323627915592905"><ele>391.0</ele><time>2026-04-06T14:16:09Z</time></trkpt><trkpt lat="44.689094849503306" lon="9.323492165337806"><ele>391.0</ele><time>2026-04-06T14:16:10Z</time></trkpt><trkpt lat="44.689026509708185" lon="9.323365312914419"><ele>391.0</ele><time>2026-04-06T14:16:11Z</time></trkpt><trkpt lat="44.68896309192729" lon="9.323225473920179"><ele>391.0</ele><time>2026-04-06T14:16:12Z</time></trkpt><trkpt lat="44.688896267135235" lon="9.323124399750878"><ele>389.0</ele><time>2026-04-06T14:16:13Z</time></trkpt><trkpt lat="44.68880406283608" lon="9.323057698142122"><ele>387.0</ele><time>2026-04-06T14:16:14Z</time></trkpt><trkpt lat="44.68868408166474" lon="9.323008489506346"><ele>385.0</ele><time>2026-04-06T14:16:15Z</time></trkpt><trkpt lat="44.68854495033401" lon="9.322966594942734"><ele>383.0</ele><time>2026-04-06T14:16:16Z</time></trkpt><trkpt lat="44.68842700985504" lon="9.322931614152356"><ele>387.2</ele><time>2026-04-06T14:16:17Z</time></trkpt><trkpt lat="44.68832449339546" lon="9.322896477393185"><ele>391.4</ele><time>2026-04-06T14:16:18Z</time></trkpt><trkpt lat="44.68824182710844" lon="9.322821154709363"><ele>395.59999999999997</ele><time>2026-04-06T14:16:19Z</time></trkpt><trkpt lat="44.68820729575575" lon="9.322698828594481"><ele>399.79999999999995</ele><time>2026-04-06T14:16:20Z</time></trkpt><trkpt lat="44.68818783506183" lon="9.322567970141414"><ele>404.0</ele><time>2026-04-06T14:16:21Z</time></trkpt><trkpt lat="44.68820927348219" lon="9.322421312677946"><ele>404.0</ele><time>2026-04-06T14:16:22Z</time></trkpt><trkpt lat="44.688213139650735" lon="9.3222381546954"><ele>404.0</ele><time>2026-04-06T14:16:23Z</time></trkpt><trkpt lat="44.68820228853218" lon="9.322057875499944"><ele>404.0</ele><time>2026-04-06T14:16:24Z</time></trkpt><trkpt lat="44.68816894370325" lon="9.321900379694643"><ele>404.0</ele><time>2026-04-06T14:16:25Z</time></trkpt><trkpt lat="44.688081132950764" lon="9.321775655728569"><ele>404.0</ele><time>2026-04-06T14:16:26Z</time></trkpt><trkpt lat="44.6880582571407" lon="9.321646316062694"><ele>404.0</ele><time>2026-04-06T14:16:27Z</time></trkpt><trkpt lat="44.68804743403713" lon="9.321515902452076"><ele>404.0</ele><time>2026-04-06T14:16:28Z</time></trkpt><trkpt lat="44.688051762889664" lon="9.32137395611787"><ele>404.0</ele><time>2026-04-06T14:16:29Z</time></trkpt><trkpt lat="44.68805766749322" lon="9.321212390300312"><ele>404.0</ele><time>2026-04-06T14:16:30Z</time></trkpt><trkpt lat="44.68806519977215" lon="9.321033074515674"><ele>403.0</ele><time>2026-04-06T14:16:31Z</time></trkpt><trkpt lat="44.68807312046584" lon="9.32084451222985"><ele>402.0</ele><time>2026-04-06T14:16:32Z</time></trkpt><trkpt lat="44.6880814222254" lon="9.320644711227542"><ele>401.0</ele><time>2026-04-06T14:16:33Z</time></trkpt><trkpt lat="44.688089419491114" lon="9.320452238815138"><ele>400.0</ele><time>2026-04-06T14:16:34Z</time></trkpt><trkpt lat="44.68808286905888" lon="9.32026039426747"><ele>398.5</ele><time>2026-04-06T14:16:35Z</time></trkpt><trkpt lat="44.6880946103396" lon="9.320069178685298"><ele>397.0</ele><time>2026-04-06T14:16:36Z</time></trkpt><trkpt lat="44.68810590701357" lon="9.31990167273919"><ele>395.5</ele><time>2026-04-06T14:16:37Z</time></trkpt><trkpt lat="44.68810903504783" lon="9.31974951894597"><ele>394.0</ele><time>2026-04-06T14:16:38Z</time></trkpt><trkpt lat="44.68811170427312" lon="9.319616860418337"><ele>392.79999999999995</ele><time>2026-04-06T14:16:39Z</time></trkpt><trkpt lat="44.68808804227973" lon="9.319486523148926"><ele>391.59999999999997</ele><time>2026-04-06T14:16:40Z</time></trkpt><trkpt lat="44.68803480991444" lon="9.319369291743847"><ele>390.4</ele><time>2026-04-06T14:16:41Z</time></trkpt><trkpt lat="44.68795288977694" lon="9.319266944710295"><ele>389.2</ele><time>2026-04-06T14:16:42Z</time></trkpt><trkpt lat="44.687848336523466" lon="9.319192778835443"><ele>388.0</ele><time>2026-04-06T14:16:43Z</time></trkpt><trkpt lat="44.68775289966243" lon="9.319159659308644"><ele>394.2</ele><time>2026-04-06T14:16:44Z</time></trkpt><trkpt lat="44.68766183870256" lon="9.319191661203845"><ele>400.4</ele><time>2026-04-06T14:16:45Z</time></trkpt><trkpt lat="44.687567361217795" lon="9.31927243544768"><ele>406.59999999999997</ele><time>2026-04-06T14:16:46Z</time></trkpt><trkpt lat="44.68748329852927" lon="9.319361838082964"><ele>412.79999999999995</ele><time>2026-04-06T14:16:47Z</time></trkpt><trkpt lat="44.68739578679031" lon="9.31944993171852"><ele>419.0</ele><time>2026-04-06T14:16:48Z</time></trkpt><trkpt lat="44.68730632626564" lon="9.319510281528492"><ele>419.0</ele><time>2026-04-06T14:16:49Z</time></trkpt><trkpt lat="44.68721990426988" lon="9.319520855388742"><ele>419.0</ele><time>2026-04-06T14:16:50Z</time></trkpt><trkpt lat="44.687136070165614" lon="9.31947542652889"><ele>419.0</ele><time>2026-04-06T14:16:51Z</time></trkpt><trkpt lat="44.687078167356944" lon="9.319350745810391"><ele>419.0</ele><time>2026-04-06T14:16:52Z</time></trkpt><trkpt lat="44.687030723653415" lon="9.31919418009108"><ele>419.0</ele><time>2026-04-06T14:16:53Z</time></trkpt><trkpt lat="44.68696051510119" lon="9.318977677922264"><ele>426.0</ele><time>2026-04-06T14:16:54Z</time></trkpt><trkpt lat="44.686882019557366" lon="9.318773333765664"><ele>433.0</ele><time>2026-04-06T14:16:55Z</time></trkpt><trkpt lat="44.686841524289356" lon="9.318601420648088"><ele>440.0</ele><time>2026-04-06T14:16:56Z</time></trkpt><trkpt lat="44.68686301060023" lon="9.318445166422023"><ele>447.0</ele><time>2026-04-06T14:16:57Z</time></trkpt><trkpt lat="44.68688754292811" lon="9.318261507902525"><ele>434.66666666666663</ele><time>2026-04-06T14:16:58Z</time></trkpt><trkpt lat="44.686936196355454" lon="9.318047692479231"><ele>422.3333333333333</ele><time>2026-04-06T14:16:59Z</time></trkpt><trkpt lat="44.68704912346375" lon="9.31787540022659"><ele>410.0</ele><time>2026-04-06T14:17:00Z</time></trkpt><trkpt lat="44.68716941303456" lon="9.31771269074687"><ele>410.0</ele><time>2026-04-06T14:17:01Z</time></trkpt><trkpt lat="44.687249125047906" lon="9.317573536800722"><ele>410.0</ele><time>2026-04-06T14:17:02Z</time></trkpt><trkpt lat="44.687304180256184" lon="9.317461734328004"><ele>410.0</ele><time>2026-04-06T14:17:03Z</time></trkpt><trkpt lat="44.68731554754145" lon="9.31733447791515"><ele>410.0</ele><time>2026-04-06T14:17:04Z</time></trkpt><trkpt lat="44.687295428226186" lon="9.31717689739123"><ele>410.0</ele><time>2026-04-06T14:17:05Z</time></trkpt><trkpt lat="44.68725130064668" lon="9.317005459409065"><ele>413.0</ele><time>2026-04-06T14:17:06Z</time></trkpt><trkpt lat="44.68720664955505" lon="9.31686027289406"><ele>416.0</ele><time>2026-04-06T14:17:07Z</time></trkpt><trkpt lat="44.68724481394151" lon="9.316704486139239"><ele>419.0</ele><time>2026-04-06T14:17:08Z</time></trkpt><trkpt lat="44.687276929467906" lon="9.316499465015378"><ele>422.0</ele><time>2026-04-06T14:17:09Z</time></trkpt><trkpt lat="44.68729867702815" lon="9.316251334693659"><ele>425.3333333333333</ele><time>2026-04-06T14:17:10Z</time></trkpt><trkpt lat="44.68734587243914" lon="9.315996851892933"><ele>428.66666666666663</ele><time>2026-04-06T14:17:11Z</time></trkpt><trkpt lat="44.68736972604856" lon="9.315791613641517"><ele>432.0</ele><time>2026-04-06T14:17:12Z</time></trkpt><trkpt lat="44.68738269208289" lon="9.315618781922606"><ele>434.6</ele><time>2026-04-06T14:17:13Z</time></trkpt><trkpt lat="44.68736411207937" lon="9.31545477643049"><ele>437.20000000000005</ele><time>2026-04-06T14:17:14Z</time></trkpt><trkpt lat="44.68733516822725" lon="9.31530860054984"><ele>439.8</ele><time>2026-04-06T14:17:15Z</time></trkpt><trkpt lat="44.68734547619439" lon="9.315194795435097"><ele>442.4</ele><time>2026-04-06T14:17:16Z</time></trkpt><trkpt lat="44.68744546409556" lon="9.315141529664189"><ele>445.0</ele><time>2026-04-06T14:17:17Z</time></trkpt><trkpt lat="44.68751163737048" lon="9.315009015687469"><ele>445.0</ele><time>2026-04-06T14:17:18Z</time></trkpt><trkpt lat="44.68757284513738" lon="9.314835569822261"><ele>445.0</ele><time>2026-04-06T14:17:19Z</time></trkpt><trkpt lat="44.68763763232096" lon="9.314644591351646"><ele>445.0</ele><time>2026-04-06T14:17:20Z</time></trkpt><trkpt lat="44.68769398507337" lon="9.314471889876945"><ele>445.0</ele><time>2026-04-06T14:17:21Z</time></trkpt><trkpt lat="44.687727670821594" lon="9.314306160055713"><ele>444.4</ele><time>2026-04-06T14:17:22Z</time></trkpt><trkpt lat="44.68773454685463" lon="9.314130767103864"><ele>443.8</ele><time>2026-04-06T14:17:23Z</time></trkpt><trkpt lat="44.68772354419083" lon="9.31396938428022"><ele>443.20000000000005</ele><time>2026-04-06T14:17:24Z</time></trkpt><trkpt lat="44.68770543270715" lon="9.31382196678575"><ele>442.6</ele><time>2026-04-06T14:17:25Z</time></trkpt><trkpt lat="44.68767752913962" lon="9.313694991100501"><ele>442.0</ele><time>2026-04-06T14:17:26Z</time></trkpt><trkpt lat="44.687623454528044" lon="9.313604990859236"><ele>442.0</ele><time>2026-04-06T14:17:27Z</time></trkpt><trkpt lat="44.68754611471392" lon="9.31353864292922"><ele>442.00000000000006</ele><time>2026-04-06T14:17:28Z</time></trkpt><trkpt lat="44.68744278369547" lon="9.313490360926396"><ele>442.00000000000006</ele><time>2026-04-06T14:17:29Z</time></trkpt><trkpt lat="44.68733405765121" lon="9.313453285945622"><ele>442.0</ele><time>2026-04-06T14:17:30Z</time></trkpt><trkpt lat="44.68724528845873" lon="9.313389311526342"><ele>442.0</ele><time>2026-04-06T14:17:31Z</time></trkpt><trkpt lat="44.68719969387736" lon="9.313247817863614"><ele>436.6666666666667</ele><time>2026-04-06T14:17:32Z</time></trkpt><trkpt lat="44.68717485377956" lon="9.313059839892937"><ele>431.33333333333337</ele><time>2026-04-06T14:17:33Z</time></trkpt><trkpt lat="44.68711621571229" lon="9.31284002025674"><ele>426.0</ele><time>2026-04-06T14:17:34Z</time></trkpt><trkpt lat="44.68704156851657" lon="9.312614129166892"><ele>426.0</ele><time>2026-04-06T14:17:35Z</time></trkpt><trkpt lat="44.68697962042572" lon="9.312417593872972"><ele>426.0</ele><time>2026-04-06T14:17:36Z</time></trkpt><trkpt lat="44.68692547420168" lon="9.312248879296238"><ele>426.0</ele><time>2026-04-06T14:17:37Z</time></trkpt><trkpt lat="44.686854618633916" lon="9.312097278931589"><ele>426.0</ele><time>2026-04-06T14:17:38Z</time></trkpt><trkpt lat="44.6867912614112" lon="9.311955304324833"><ele>432.0</ele><time>2026-04-06T14:17:39Z</time></trkpt><trkpt lat="44.68672850828345" lon="9.311835493485068"><ele>438.0</ele><time>2026-04-06T14:17:40Z</time></trkpt><trkpt lat="44.68665926803205" lon="9.311736526047644"><ele>444.0</ele><time>2026-04-06T14:17:41Z</time></trkpt><trkpt lat="44.686569262558976" lon="9.311634841124803"><ele>450.0</ele><time>2026-04-06T14:17:42Z</time></trkpt><trkpt lat="44.68646407054199" lon="9.311551730361126"><ele>456.0</ele><time>2026-04-06T14:17:43Z</time></trkpt><trkpt lat="44.68637583852187" lon="9.311497731991512"><ele>456.0</ele><time>2026-04-06T14:17:44Z</time></trkpt><trkpt lat="44.686297877094106" lon="9.311429212831092"><ele>456.0</ele><time>2026-04-06T14:17:45Z</time></trkpt><trkpt lat="44.68623668687778" lon="9.311337888831854"><ele>456.0</ele><time>2026-04-06T14:17:46Z</time></trkpt><trkpt lat="44.68622410481229" lon="9.311188709997168"><ele>456.0</ele><time>2026-04-06T14:17:47Z</time></trkpt><trkpt lat="44.68622124661636" lon="9.311025622720269"><ele>456.0</ele><time>2026-04-06T14:17:48Z</time></trkpt><trkpt lat="44.68623906766941" lon="9.310842618463157"><ele>454.0</ele><time>2026-04-06T14:17:49Z</time></trkpt><trkpt lat="44.686277727899444" lon="9.31065278391432"><ele>452.0</ele><time>2026-04-06T14:17:50Z</time></trkpt><trkpt lat="44.68632073223582" lon="9.31046900698381"><ele>450.0</ele><time>2026-04-06T14:17:51Z</time></trkpt><trkpt lat="44.68637976162109" lon="9.310339524353605"><ele>448.0</ele><time>2026-04-06T14:17:52Z</time></trkpt><trkpt lat="44.68644849638184" lon="9.310236562213973"><ele>453.5</ele><time>2026-04-06T14:17:53Z</time></trkpt><trkpt lat="44.68656956169683" lon="9.310228005165923"><ele>459.0</ele><time>2026-04-06T14:17:54Z</time></trkpt><trkpt lat="44.686687305692544" lon="9.310178186625645"><ele>464.5</ele><time>2026-04-06T14:17:55Z</time></trkpt><trkpt lat="44.68678858001435" lon="9.310145303649309"><ele>470.0</ele><time>2026-04-06T14:17:56Z</time></trkpt><trkpt lat="44.68687109429172" lon="9.310047501423766"><ele>455.75</ele><time>2026-04-06T14:17:57Z</time></trkpt><trkpt lat="44.68693935544276" lon="9.309910722907874"><ele>441.5</ele><time>2026-04-06T14:17:58Z</time></trkpt><trkpt lat="44.68697970382311" lon="9.309754863836659"><ele>427.25</ele><time>2026-04-06T14:17:59Z</time></trkpt><trkpt lat="44.68699388744709" lon="9.309591765386465"><ele>413.0</ele><time>2026-04-06T14:18:00Z</time></trkpt><trkpt lat="44.68697465489619" lon="9.309423000948197"><ele>426.75</ele><time>2026-04-06T14:18:01Z</time></trkpt><trkpt lat="44.68691606795711" lon="9.309258005592257"><ele>440.5</ele><time>2026-04-06T14:18:02Z</time></trkpt><trkpt lat="44.6868321675864" lon="9.309118195892951"><ele>454.25</ele><time>2026-04-06T14:18:03Z</time></trkpt><trkpt lat="44.686738181236414" lon="9.309016173770237"><ele>468.0</ele><time>2026-04-06T14:18:04Z</time></trkpt><trkpt lat="44.68662204393282" lon="9.30895475293446"><ele>468.0</ele><time>2026-04-06T14:18:05Z</time></trkpt><trkpt lat="44.68647875018779" lon="9.308914849039049"><ele>468.0</ele><time>2026-04-06T14:18:06Z</time></trkpt><trkpt lat="44.68632280538259" lon="9.308875480801344"><ele>468.0</ele><time>2026-04-06T14:18:07Z</time></trkpt><trkpt lat="44.686195066826755" lon="9.308817215554791"><ele>468.0</ele><time>2026-04-06T14:18:08Z</time></trkpt><trkpt lat="44.686077775798914" lon="9.308791628748478"><ele>462.66666666666663</ele><time>2026-04-06T14:18:09Z</time></trkpt><trkpt lat="44.6859398262076" lon="9.30881398857398"><ele>457.3333333333333</ele><time>2026-04-06T14:18:10Z</time></trkpt><trkpt lat="44.685777226520415" lon="9.30886300323369"><ele>452.0</ele><time>2026-04-06T14:18:11Z</time></trkpt><trkpt lat="44.685603336065306" lon="9.308854473696401"><ele>452.0</ele><time>2026-04-06T14:18:12Z</time></trkpt><trkpt lat="44.6854334489733" lon="9.308854750243913"><ele>452.0</ele><time>2026-04-06T14:18:13Z</time></trkpt><trkpt lat="44.68528690531747" lon="9.308823993420773"><ele>452.0</ele><time>2026-04-06T14:18:14Z</time></trkpt><trkpt lat="44.68515781395752" lon="9.308824833294414"><ele>452.0</ele><time>2026-04-06T14:18:15Z</time></trkpt><trkpt lat="44.68503692934052" lon="9.308850555451606"><ele>455.20000000000005</ele><time>2026-04-06T14:18:16Z</time></trkpt><trkpt lat="44.68492778849323" lon="9.308885145236806"><ele>458.40000000000003</ele><time>2026-04-06T14:18:17Z</time></trkpt><trkpt lat="44.68482208778819" lon="9.308929640447847"><ele>461.59999999999997</ele><time>2026-04-06T14:18:18Z</time></trkpt><trkpt lat="44.684722265088034" lon="9.309000505158128"><ele>464.79999999999995</ele><time>2026-04-06T14:18:19Z</time></trkpt><trkpt lat="44.684633191260176" lon="9.309081080471167"><ele>468.0</ele><time>2026-04-06T14:18:20Z</time></trkpt><trkpt lat="44.68453728548058" lon="9.30913995991536"><ele>472.4</ele><time>2026-04-06T14:18:21Z</time></trkpt><trkpt lat="44.68442989091783" lon="9.309119045040863"><ele>476.79999999999995</ele><time>2026-04-06T14:18:22Z</time></trkpt><trkpt lat="44.68431252741534" lon="9.309112772898972"><ele>481.2</ele><time>2026-04-06T14:18:23Z</time></trkpt><trkpt lat="44.68420565603267" lon="9.309123478289473"><ele>485.6</ele><time>2026-04-06T14:18:24Z</time></trkpt><trkpt lat="44.68412379100642" lon="9.309114953687839"><ele>490.0</ele><time>2026-04-06T14:18:25Z</time></trkpt><trkpt lat="44.68405267340945" lon="9.309102755785078"><ele>490.1666666666667</ele><time>2026-04-06T14:18:26Z</time></trkpt><trkpt lat="44.68399108513129" lon="9.309071602601943"><ele>490.33333333333337</ele><time>2026-04-06T14:18:27Z</time></trkpt><trkpt lat="44.6839370326752" lon="9.309021728783963"><ele>490.5</ele><time>2026-04-06T14:18:28Z</time></trkpt><trkpt lat="44.68387577459599" lon="9.308880733259373"><ele>490.66666666666663</ele><time>2026-04-06T14:18:30Z</time></trkpt><trkpt lat="44.68384919644104" lon="9.308798609732602"><ele>490.8333333333333</ele><time>2026-04-06T14:18:31Z</time></trkpt><trkpt lat="44.68377939956201" lon="9.308653217143089"><ele>491.0</ele><time>2026-04-06T14:18:33Z</time></trkpt><trkpt lat="44.68371314725283" lon="9.3085454172227"><ele>489.49999999999994</ele><time>2026-04-06T14:18:35Z</time></trkpt><trkpt lat="44.68371090608201" lon="9.30844217102886"><ele>488.0</ele><time>2026-04-06T14:18:38Z</time></trkpt><trkpt lat="44.68376956033558" lon="9.308312510211191"><ele>486.5</ele><time>2026-04-06T14:18:40Z</time></trkpt><trkpt lat="44.683803070614495" lon="9.308232524509972"><ele>485.0</ele><time>2026-04-06T14:18:41Z</time></trkpt><trkpt lat="44.683834924854914" lon="9.30814866117043"><ele>483.49999999999994</ele><time>2026-04-06T14:18:42Z</time></trkpt><trkpt lat="44.68386793759436" lon="9.308068125543151"><ele>482.0</ele><time>2026-04-06T14:18:43Z</time></trkpt><trkpt lat="44.68394644262778" lon="9.307945560357865"><ele>481.99999999999994</ele><time>2026-04-06T14:18:45Z</time></trkpt><trkpt lat="44.68400652580999" lon="9.307902323912868"><ele>482.0</ele><time>2026-04-06T14:18:46Z</time></trkpt><trkpt lat="44.68407637835947" lon="9.307889694679343"><ele>482.0</ele><time>2026-04-06T14:18:47Z</time></trkpt><trkpt lat="44.684155506592425" lon="9.3079084865428"><ele>482.0</ele><time>2026-04-06T14:18:48Z</time></trkpt><trkpt lat="44.684246509163145" lon="9.307959230571782"><ele>481.99999999999994</ele><time>2026-04-06T14:18:49Z</time></trkpt><trkpt lat="44.68433952921222" lon="9.308035269947819"><ele>482.0</ele><time>2026-04-06T14:18:50Z</time></trkpt><trkpt lat="44.68442153220777" lon="9.308113979919598"><ele>479.66666666666663</ele><time>2026-04-06T14:18:51Z</time></trkpt><trkpt lat="44.68450816786951" lon="9.30817322746183"><ele>477.3333333333333</ele><time>2026-04-06T14:18:52Z</time></trkpt><trkpt lat="44.68458879958955" lon="9.308228455737284"><ele>475.0</ele><time>2026-04-06T14:18:53Z</time></trkpt><trkpt lat="44.68466663402625" lon="9.308255873850525"><ele>472.66666666666663</ele><time>2026-04-06T14:18:54Z</time></trkpt><trkpt lat="44.684747189847016" lon="9.308250775441511"><ele>470.3333333333333</ele><time>2026-04-06T14:18:55Z</time></trkpt><trkpt lat="44.6848183408391" lon="9.308202618195264"><ele>468.0</ele><time>2026-04-06T14:18:56Z</time></trkpt><trkpt lat="44.68488719620642" lon="9.308135038142915"><ele>468.59999999999997</ele><time>2026-04-06T14:18:57Z</time></trkpt><trkpt lat="44.68493578258829" lon="9.308014349327195"><ele>469.19999999999993</ele><time>2026-04-06T14:18:58Z</time></trkpt><trkpt lat="44.68497994501466" lon="9.307873489431097"><ele>469.8</ele><time>2026-04-06T14:18:59Z</time></trkpt><trkpt lat="44.68502138291067" lon="9.307718670862696"><ele>470.4</ele><time>2026-04-06T14:19:00Z</time></trkpt><trkpt lat="44.685060693768904" lon="9.307580559259902"><ele>471.0</ele><time>2026-04-06T14:19:01Z</time></trkpt><trkpt lat="44.68509107815742" lon="9.307437969416387"><ele>471.0</ele><time>2026-04-06T14:19:02Z</time></trkpt><trkpt lat="44.68514381391059" lon="9.307314759658746"><ele>471.0</ele><time>2026-04-06T14:19:03Z</time></trkpt><trkpt lat="44.685197643319675" lon="9.30720283135944"><ele>471.0</ele><time>2026-04-06T14:19:04Z</time></trkpt><trkpt lat="44.685262079510046" lon="9.307130772339525"><ele>471.0</ele><time>2026-04-06T14:19:05Z</time></trkpt><trkpt lat="44.685330763089944" lon="9.307084551023708"><ele>471.0</ele><time>2026-04-06T14:19:06Z</time></trkpt><trkpt lat="44.68540042442037" lon="9.307027609740732"><ele>471.0</ele><time>2026-04-06T14:19:07Z</time></trkpt><trkpt lat="44.685478910230714" lon="9.307024647886099"><ele>465.33333333333337</ele><time>2026-04-06T14:19:08Z</time></trkpt><trkpt lat="44.68554251550241" lon="9.307070423720491"><ele>459.6666666666667</ele><time>2026-04-06T14:19:09Z</time></trkpt><trkpt lat="44.68580205936227" lon="9.306843696115223"><ele>454.0</ele><time>2026-04-06T14:19:12Z</time></trkpt><trkpt lat="44.68580884172851" lon="9.306693223570514"><ele>454.0</ele><time>2026-04-06T14:19:13Z</time></trkpt><trkpt lat="44.68580983909215" lon="9.306532181699785"><ele>454.0</ele><time>2026-04-06T14:19:14Z</time></trkpt><trkpt lat="44.68579985063642" lon="9.306352416633427"><ele>454.0</ele><time>2026-04-06T14:19:15Z</time></trkpt><trkpt lat="44.685768116671824" lon="9.306176512949927"><ele>454.0</ele><time>2026-04-06T14:19:16Z</time></trkpt><trkpt lat="44.68574284507315" lon="9.306003293944478"><ele>454.0</ele><time>2026-04-06T14:19:17Z</time></trkpt><trkpt lat="44.68571548872929" lon="9.30580846731009"><ele>454.0</ele><time>2026-04-06T14:19:18Z</time></trkpt><trkpt lat="44.68571120380659" lon="9.305620647691427"><ele>454.0</ele><time>2026-04-06T14:19:19Z</time></trkpt><trkpt lat="44.68568874791943" lon="9.305438092341488"><ele>454.0</ele><time>2026-04-06T14:19:20Z</time></trkpt><trkpt lat="44.68570849268738" lon="9.305266527670513"><ele>452.0</ele><time>2026-04-06T14:19:21Z</time></trkpt><trkpt lat="44.68573823280814" lon="9.305109731697671"><ele>450.0</ele><time>2026-04-06T14:19:22Z</time></trkpt><trkpt lat="44.685742894629044" lon="9.304977816893636"><ele>448.0</ele><time>2026-04-06T14:19:23Z</time></trkpt><trkpt lat="44.685715811222494" lon="9.304869045355371"><ele>446.0</ele><time>2026-04-06T14:19:24Z</time></trkpt><trkpt lat="44.685642790008885" lon="9.304766907230256"><ele>444.0</ele><time>2026-04-06T14:19:25Z</time></trkpt><trkpt lat="44.6855347462522" lon="9.304644959061303"><ele>443.0</ele><time>2026-04-06T14:19:26Z</time></trkpt><trkpt lat="44.685429675640606" lon="9.304525554817532"><ele>442.0</ele><time>2026-04-06T14:19:27Z</time></trkpt><trkpt lat="44.685338740600336" lon="9.304417331961284"><ele>441.0</ele><time>2026-04-06T14:19:28Z</time></trkpt><trkpt lat="44.68524751087941" lon="9.30432849690513"><ele>440.0</ele><time>2026-04-06T14:19:29Z</time></trkpt><trkpt lat="44.68514003814341" lon="9.304259633933288"><ele>440.0</ele><time>2026-04-06T14:19:30Z</time></trkpt><trkpt lat="44.68500943576999" lon="9.304201506586399"><ele>440.0</ele><time>2026-04-06T14:19:31Z</time></trkpt><trkpt lat="44.68488625174675" lon="9.304168349870537"><ele>440.0</ele><time>2026-04-06T14:19:32Z</time></trkpt><trkpt lat="44.68480117962126" lon="9.304150620365803"><ele>440.0</ele><time>2026-04-06T14:19:33Z</time></trkpt><trkpt lat="44.684757333964065" lon="9.304076576649045"><ele>440.0</ele><time>2026-04-06T14:19:34Z</time></trkpt><trkpt lat="44.684771388445206" lon="9.303929364738545"><ele>439.99999999999994</ele><time>2026-04-06T14:19:36Z</time></trkpt><trkpt lat="44.68482135273923" lon="9.303869111900417"><ele>440.0</ele><time>2026-04-06T14:19:37Z</time></trkpt><trkpt lat="44.68488879459089" lon="9.303834782008693"><ele>440.0</ele><time>2026-04-06T14:19:38Z</time></trkpt><trkpt lat="44.68497046808863" lon="9.303839953017388"><ele>440.0</ele><time>2026-04-06T14:19:39Z</time></trkpt><trkpt lat="44.68505239238642" lon="9.303947639269218"><ele>439.99999999999994</ele><time>2026-04-06T14:19:40Z</time></trkpt><trkpt lat="44.685159392499465" lon="9.304007531408278"><ele>440.0</ele><time>2026-04-06T14:19:41Z</time></trkpt><trkpt lat="44.68526339220898" lon="9.304098021032248"><ele>438.0</ele><time>2026-04-06T14:19:42Z</time></trkpt><trkpt lat="44.68536414024296" lon="9.304159330758914"><ele>436.0</ele><time>2026-04-06T14:19:43Z</time></trkpt><trkpt lat="44.68547090576012" lon="9.30418692869103"><ele>434.0</ele><time>2026-04-06T14:19:44Z</time></trkpt><trkpt lat="44.6855860021692" lon="9.304185881220992"><ele>432.0</ele><time>2026-04-06T14:19:45Z</time></trkpt><trkpt lat="44.68570107887684" lon="9.304158333851534"><ele>432.0</ele><time>2026-04-06T14:19:46Z</time></trkpt><trkpt lat="44.68581403364942" lon="9.304108163444544"><ele>432.0</ele><time>2026-04-06T14:19:47Z</time></trkpt><trkpt lat="44.68592727904263" lon="9.304050532518756"><ele>432.0</ele><time>2026-04-06T14:19:48Z</time></trkpt><trkpt lat="44.68604467294581" lon="9.303980991101765"><ele>432.0</ele><time>2026-04-06T14:19:49Z</time></trkpt><trkpt lat="44.686165247148125" lon="9.303913263236927"><ele>426.75</ele><time>2026-04-06T14:19:50Z</time></trkpt><trkpt lat="44.686297515612296" lon="9.303844488381715"><ele>421.5</ele><time>2026-04-06T14:19:51Z</time></trkpt><trkpt lat="44.68643125011457" lon="9.303776739311811"><ele>416.25</ele><time>2026-04-06T14:19:52Z</time></trkpt><trkpt lat="44.68655667417807" lon="9.303755578927886"><ele>411.0</ele><time>2026-04-06T14:19:53Z</time></trkpt><trkpt lat="44.68666383651018" lon="9.303747252707181"><ele>411.0</ele><time>2026-04-06T14:19:54Z</time></trkpt><trkpt lat="44.68677344159827" lon="9.303770104326064"><ele>411.0</ele><time>2026-04-06T14:19:55Z</time></trkpt><trkpt lat="44.686869732965256" lon="9.303823465760841"><ele>411.0</ele><time>2026-04-06T14:19:56Z</time></trkpt><trkpt lat="44.68697408264665" lon="9.303913173469835"><ele>411.0</ele><time>2026-04-06T14:19:57Z</time></trkpt><trkpt lat="44.68708451195007" lon="9.304034173757834"><ele>410.25</ele><time>2026-04-06T14:19:58Z</time></trkpt><trkpt lat="44.6872266621357" lon="9.304194991680967"><ele>409.5</ele><time>2026-04-06T14:19:59Z</time></trkpt><trkpt lat="44.687344334652344" lon="9.304346966768785"><ele>408.75</ele><time>2026-04-06T14:20:00Z</time></trkpt><trkpt lat="44.6874218788456" lon="9.304445659521553"><ele>408.0</ele><time>2026-04-06T14:20:01Z</time></trkpt><trkpt lat="44.68747470476089" lon="9.304547712310885"><ele>408.0</ele><time>2026-04-06T14:20:02Z</time></trkpt><trkpt lat="44.68749264972173" lon="9.304687658250613"><ele>408.0</ele><time>2026-04-06T14:20:03Z</time></trkpt><trkpt lat="44.6874766331161" lon="9.304873399621929"><ele>408.0</ele><time>2026-04-06T14:20:04Z</time></trkpt><trkpt lat="44.687484414531696" lon="9.30510047116419"><ele>408.0</ele><time>2026-04-06T14:20:05Z</time></trkpt><trkpt lat="44.687464880078444" lon="9.305337286672808"><ele>407.75</ele><time>2026-04-06T14:20:06Z</time></trkpt><trkpt lat="44.687439595615075" lon="9.305536713557597"><ele>407.5</ele><time>2026-04-06T14:20:07Z</time></trkpt><trkpt lat="44.68741206862814" lon="9.305726959649206"><ele>407.25</ele><time>2026-04-06T14:20:08Z</time></trkpt><trkpt lat="44.68738866651654" lon="9.305896630240388"><ele>407.0</ele><time>2026-04-06T14:20:09Z</time></trkpt><trkpt lat="44.687367249525714" lon="9.306040483301027"><ele>406.99999999999994</ele><time>2026-04-06T14:20:10Z</time></trkpt><trkpt lat="44.68734838354109" lon="9.306169720901787"><ele>407.0</ele><time>2026-04-06T14:20:11Z</time></trkpt><trkpt lat="44.6873317554178" lon="9.306298875294022"><ele>407.0</ele><time>2026-04-06T14:20:12Z</time></trkpt><trkpt lat="44.68732167671346" lon="9.306418367080305"><ele>407.0</ele><time>2026-04-06T14:20:13Z</time></trkpt><trkpt lat="44.687312761716306" lon="9.306537876920226"><ele>406.99999999999994</ele><time>2026-04-06T14:20:14Z</time></trkpt><trkpt lat="44.68731172821105" lon="9.30665982523013"><ele>407.0</ele><time>2026-04-06T14:20:15Z</time></trkpt><trkpt lat="44.68729250625878" lon="9.306777177652181"><ele>405.66666666666663</ele><time>2026-04-06T14:20:16Z</time></trkpt><trkpt lat="44.6872443343164" lon="9.306873640937225"><ele>404.3333333333333</ele><time>2026-04-06T14:20:17Z</time></trkpt><trkpt lat="44.687167724342636" lon="9.306931340736748"><ele>403.0</ele><time>2026-04-06T14:20:18Z</time></trkpt><trkpt lat="44.68710905685404" lon="9.307022503666763"><ele>401.66666666666663</ele><time>2026-04-06T14:20:19Z</time></trkpt><trkpt lat="44.68703478887697" lon="9.307088146525633"><ele>400.3333333333333</ele><time>2026-04-06T14:20:20Z</time></trkpt><trkpt lat="44.686960676051115" lon="9.307152745788866"><ele>399.0</ele><time>2026-04-06T14:20:21Z</time></trkpt><trkpt lat="44.68689377171625" lon="9.307213471475201"><ele>398.0</ele><time>2026-04-06T14:20:22Z</time></trkpt><trkpt lat="44.68684281272306" lon="9.307298657147294"><ele>397.0</ele><time>2026-04-06T14:20:23Z</time></trkpt><trkpt lat="44.68681147284447" lon="9.307392050018388"><ele>396.0</ele><time>2026-04-06T14:20:24Z</time></trkpt><trkpt lat="44.686812705536035" lon="9.30748601136052"><ele>395.0</ele><time>2026-04-06T14:20:25Z</time></trkpt><trkpt lat="44.68684773528486" lon="9.307566737146836"><ele>394.0</ele><time>2026-04-06T14:20:26Z</time></trkpt><trkpt lat="44.68690482670982" lon="9.307617096610567"><ele>393.0</ele><time>2026-04-06T14:20:27Z</time></trkpt><trkpt lat="44.68702862863281" lon="9.30758732356106"><ele>393.0</ele><time>2026-04-06T14:20:29Z</time></trkpt><trkpt lat="44.687069641962026" lon="9.307513225486717"><ele>393.0</ele><time>2026-04-06T14:20:30Z</time></trkpt><trkpt lat="44.687097749236266" lon="9.307420719961753"><ele>393.0</ele><time>2026-04-06T14:20:31Z</time></trkpt><trkpt lat="44.68714119898727" lon="9.307313577384477"><ele>393.0</ele><time>2026-04-06T14:20:32Z</time></trkpt><trkpt lat="44.68721730616737" lon="9.307225388380179"><ele>393.0</ele><time>2026-04-06T14:20:33Z</time></trkpt><trkpt lat="44.687292887988264" lon="9.307166092652551"><ele>393.0</ele><time>2026-04-06T14:20:34Z</time></trkpt><trkpt lat="44.687358543654796" lon="9.307147856589692"><ele>394.2</ele><time>2026-04-06T14:20:35Z</time></trkpt><trkpt lat="44.6874618879071" lon="9.307094448970492"><ele>395.4</ele><time>2026-04-06T14:20:37Z</time></trkpt><trkpt lat="44.68754648440007" lon="9.307044030598892"><ele>396.59999999999997</ele><time>2026-04-06T14:20:39Z</time></trkpt><trkpt lat="44.68761586964582" lon="9.306981622416844"><ele>397.79999999999995</ele><time>2026-04-06T14:20:42Z</time></trkpt><trkpt lat="44.687669165160585" lon="9.306895911409839"><ele>399.0</ele><time>2026-04-06T14:20:44Z</time></trkpt><trkpt lat="44.6876881957296" lon="9.306741247871386"><ele>399.0</ele><time>2026-04-06T14:20:46Z</time></trkpt><trkpt lat="44.68769271879592" lon="9.306600407697129"><ele>399.0</ele><time>2026-04-06T14:20:48Z</time></trkpt><trkpt lat="44.68776098520991" lon="9.30647743100828"><ele>399.0</ele><time>2026-04-06T14:20:50Z</time></trkpt><trkpt lat="44.68785229827461" lon="9.306399943462198"><ele>399.0</ele><time>2026-04-06T14:20:52Z</time></trkpt><trkpt lat="44.68797112237139" lon="9.306438480126193"><ele>399.0</ele><time>2026-04-06T14:20:54Z</time></trkpt><trkpt lat="44.68810320704412" lon="9.30645760535559"><ele>397.1666666666667</ele><time>2026-04-06T14:20:56Z</time></trkpt><trkpt lat="44.68818043480272" lon="9.306460413176874"><ele>395.33333333333337</ele><time>2026-04-06T14:20:57Z</time></trkpt><trkpt lat="44.68827515990925" lon="9.306471661807022"><ele>393.5</ele><time>2026-04-06T14:20:58Z</time></trkpt><trkpt lat="44.688372347479024" lon="9.306488348690804"><ele>391.6666666666667</ele><time>2026-04-06T14:20:59Z</time></trkpt><trkpt lat="44.68846353776529" lon="9.306487909834049"><ele>389.83333333333337</ele><time>2026-04-06T14:21:00Z</time></trkpt><trkpt lat="44.688544495431756" lon="9.306487090767986"><ele>388.0</ele><time>2026-04-06T14:21:01Z</time></trkpt><trkpt lat="44.68861561919926" lon="9.306423813185008"><ele>391.2</ele><time>2026-04-06T14:21:02Z</time></trkpt><trkpt lat="44.688675943865285" lon="9.306349249601945"><ele>394.4</ele><time>2026-04-06T14:21:03Z</time></trkpt><trkpt lat="44.68872552631142" lon="9.306265277495868"><ele>397.59999999999997</ele><time>2026-04-06T14:21:04Z</time></trkpt><trkpt lat="44.688771468670424" lon="9.306175572458987"><ele>400.79999999999995</ele><time>2026-04-06T14:21:05Z</time></trkpt><trkpt lat="44.688815514890656" lon="9.306068296654203"><ele>404.0</ele><time>2026-04-06T14:21:06Z</time></trkpt><trkpt lat="44.6888702529968" lon="9.30590393896925"><ele>404.0</ele><time>2026-04-06T14:21:07Z</time></trkpt><trkpt lat="44.68891998475036" lon="9.305674051915362"><ele>404.0</ele><time>2026-04-06T14:21:08Z</time></trkpt><trkpt lat="44.68895260737622" lon="9.305427479612902"><ele>404.0</ele><time>2026-04-06T14:21:09Z</time></trkpt><trkpt lat="44.68898016070095" lon="9.305216371379617"><ele>402.5</ele><time>2026-04-06T14:21:10Z</time></trkpt><trkpt lat="44.68902557225525" lon="9.30505382327323"><ele>401.0</ele><time>2026-04-06T14:21:11Z</time></trkpt><trkpt lat="44.68909523165883" lon="9.304935436737509"><ele>399.5</ele><time>2026-04-06T14:21:12Z</time></trkpt><trkpt lat="44.68917185588728" lon="9.30478746798714"><ele>398.0</ele><time>2026-04-06T14:21:13Z</time></trkpt><trkpt lat="44.68923443623272" lon="9.304642104382545"><ele>397.25</ele><time>2026-04-06T14:21:14Z</time></trkpt><trkpt lat="44.689274964131585" lon="9.304506266295103"><ele>396.5</ele><time>2026-04-06T14:21:15Z</time></trkpt><trkpt lat="44.68929756445402" lon="9.304361161877628"><ele>395.75</ele><time>2026-04-06T14:21:16Z</time></trkpt><trkpt lat="44.68932169229745" lon="9.304197555651996"><ele>395.0</ele><time>2026-04-06T14:21:17Z</time></trkpt><trkpt lat="44.689367098930106" lon="9.304036580094374"><ele>398.75</ele><time>2026-04-06T14:21:18Z</time></trkpt><trkpt lat="44.689431010367656" lon="9.303909006024172"><ele>402.5</ele><time>2026-04-06T14:21:19Z</time></trkpt><trkpt lat="44.68951540679403" lon="9.303787766208593"><ele>406.25</ele><time>2026-04-06T14:21:20Z</time></trkpt><trkpt lat="44.689611439813646" lon="9.303650198555289"><ele>410.0</ele><time>2026-04-06T14:21:21Z</time></trkpt><trkpt lat="44.68971126911147" lon="9.303510384212656"><ele>410.0</ele><time>2026-04-06T14:21:22Z</time></trkpt><trkpt lat="44.68980612147765" lon="9.30337575094011"><ele>410.0</ele><time>2026-04-06T14:21:23Z</time></trkpt><trkpt lat="44.689888061200904" lon="9.303249224820451"><ele>410.0</ele><time>2026-04-06T14:21:24Z</time></trkpt><trkpt lat="44.68995608974961" lon="9.303141291992874"><ele>410.0</ele><time>2026-04-06T14:21:25Z</time></trkpt><trkpt lat="44.6900161389119" lon="9.303058092248019"><ele>410.0</ele><time>2026-04-06T14:21:26Z</time></trkpt><trkpt lat="44.690113645934545" lon="9.302968035237665"><ele>409.99999999999994</ele><time>2026-04-06T14:21:28Z</time></trkpt><trkpt lat="44.69018559104592" lon="9.30300895625475"><ele>410.0</ele><time>2026-04-06T14:21:29Z</time></trkpt><trkpt lat="44.69022556893047" lon="9.303104831491877"><ele>410.0</ele><time>2026-04-06T14:21:30Z</time></trkpt><trkpt lat="44.690214707584296" lon="9.303219884939384"><ele>410.0</ele><time>2026-04-06T14:21:31Z</time></trkpt><trkpt lat="44.690164445274654" lon="9.303335251301263"><ele>409.99999999999994</ele><time>2026-04-06T14:21:32Z</time></trkpt><trkpt lat="44.69007153495564" lon="9.303393432982295"><ele>410.0</ele><time>2026-04-06T14:21:33Z</time></trkpt><trkpt lat="44.68999417054957" lon="9.303463089065636"><ele>410.0</ele><time>2026-04-06T14:21:34Z</time></trkpt><trkpt lat="44.68992423658216" lon="9.303515292585887"><ele>410.0</ele><time>2026-04-06T14:21:35Z</time></trkpt><trkpt lat="44.68988564039376" lon="9.303598015700668"><ele>410.0</ele><time>2026-04-06T14:21:36Z</time></trkpt><trkpt lat="44.689880464558335" lon="9.303703720760348"><ele>410.0</ele><time>2026-04-06T14:21:37Z</time></trkpt><trkpt lat="44.68991011426797" lon="9.303797737661897"><ele>410.0</ele><time>2026-04-06T14:21:38Z</time></trkpt><trkpt lat="44.6899703545927" lon="9.303847292317903"><ele>410.0</ele><time>2026-04-06T14:21:39Z</time></trkpt><trkpt lat="44.69004497001751" lon="9.303857392838959"><ele>410.0</ele><time>2026-04-06T14:21:40Z</time></trkpt><trkpt lat="44.69011289929942" lon="9.303809870654343"><ele>410.0</ele><time>2026-04-06T14:21:41Z</time></trkpt><trkpt lat="44.690190225680126" lon="9.303737875191816"><ele>410.0</ele><time>2026-04-06T14:21:42Z</time></trkpt><trkpt lat="44.690246047128824" lon="9.303605469676276"><ele>410.0</ele><time>2026-04-06T14:21:43Z</time></trkpt><trkpt lat="44.69032345242561" lon="9.30351436958361"><ele>410.0</ele><time>2026-04-06T14:21:44Z</time></trkpt><trkpt lat="44.690397556594206" lon="9.303443401304175"><ele>410.0</ele><time>2026-04-06T14:21:45Z</time></trkpt><trkpt lat="44.69047873053136" lon="9.303409854733486"><ele>412.0</ele><time>2026-04-06T14:21:46Z</time></trkpt><trkpt lat="44.69057106268582" lon="9.303424667776246"><ele>414.0</ele><time>2026-04-06T14:21:47Z</time></trkpt><trkpt lat="44.69068359053787" lon="9.303430035914591"><ele>416.0</ele><time>2026-04-06T14:21:48Z</time></trkpt><trkpt lat="44.69080550695141" lon="9.303414007958356"><ele>418.0</ele><time>2026-04-06T14:21:49Z</time></trkpt><trkpt lat="44.690922929347266" lon="9.303415207807214"><ele>420.0</ele><time>2026-04-06T14:21:50Z</time></trkpt><trkpt lat="44.69103370786623" lon="9.303396545081512"><ele>422.0</ele><time>2026-04-06T14:21:51Z</time></trkpt><trkpt lat="44.69113254546743" lon="9.303359462221781"><ele>424.0</ele><time>2026-04-06T14:21:52Z</time></trkpt><trkpt lat="44.691218174292906" lon="9.303327687195505"><ele>426.0</ele><time>2026-04-06T14:21:53Z</time></trkpt><trkpt lat="44.69128080113621" lon="9.303204522732196"><ele>428.0</ele><time>2026-04-06T14:21:54Z</time></trkpt><trkpt lat="44.691345758339025" lon="9.303075509391913"><ele>430.0</ele><time>2026-04-06T14:21:55Z</time></trkpt><trkpt lat="44.691418905434425" lon="9.302911817480197"><ele>430.0</ele><time>2026-04-06T14:21:56Z</time></trkpt><trkpt lat="44.69150950672477" lon="9.302705449714567"><ele>430.0</ele><time>2026-04-06T14:21:57Z</time></trkpt><trkpt lat="44.69161401343647" lon="9.302541487801767"><ele>430.0</ele><time>2026-04-06T14:21:58Z</time></trkpt><trkpt lat="44.691703700685565" lon="9.30241089473553"><ele>430.0</ele><time>2026-04-06T14:21:59Z</time></trkpt><trkpt lat="44.691796617565096" lon="9.302318456662983"><ele>430.0</ele><time>2026-04-06T14:22:00Z</time></trkpt><trkpt lat="44.691928536716325" lon="9.30225664120331"><ele>430.0</ele><time>2026-04-06T14:22:01Z</time></trkpt><trkpt lat="44.69209385391422" lon="9.302167768721194"><ele>430.0</ele><time>2026-04-06T14:22:02Z</time></trkpt><trkpt lat="44.69223959156617" lon="9.302036431776688"><ele>432.6666666666667</ele><time>2026-04-06T14:22:03Z</time></trkpt><trkpt lat="44.6923815601909" lon="9.301888823407268"><ele>435.33333333333337</ele><time>2026-04-06T14:22:04Z</time></trkpt><trkpt lat="44.692507120035046" lon="9.301734099006039"><ele>438.0</ele><time>2026-04-06T14:22:05Z</time></trkpt><trkpt lat="44.69261941183565" lon="9.301584861619052"><ele>438.0</ele><time>2026-04-06T14:22:06Z</time></trkpt><trkpt lat="44.692725685334025" lon="9.301434479210487"><ele>438.0</ele><time>2026-04-06T14:22:07Z</time></trkpt><trkpt lat="44.69280999751316" lon="9.301300742509053"><ele>438.0</ele><time>2026-04-06T14:22:08Z</time></trkpt><trkpt lat="44.692890670018684" lon="9.301203598694919"><ele>438.0</ele><time>2026-04-06T14:22:09Z</time></trkpt><trkpt lat="44.69296347826447" lon="9.301121142583758"><ele>437.0</ele><time>2026-04-06T14:22:10Z</time></trkpt><trkpt lat="44.693040641967876" lon="9.301064365273685"><ele>435.99999999999994</ele><time>2026-04-06T14:22:11Z</time></trkpt><trkpt lat="44.693126151421644" lon="9.301085664364841"><ele>434.99999999999994</ele><time>2026-04-06T14:22:12Z</time></trkpt><trkpt lat="44.69320892137017" lon="9.301150605588461"><ele>434.0</ele><time>2026-04-06T14:22:13Z</time></trkpt><trkpt lat="44.69328153602574" lon="9.301277545521959"><ele>433.0</ele><time>2026-04-06T14:22:14Z</time></trkpt><trkpt lat="44.69336496489275" lon="9.301444948075021"><ele>437.59999999999997</ele><time>2026-04-06T14:22:15Z</time></trkpt><trkpt lat="44.69342518629669" lon="9.301576072485027"><ele>442.19999999999993</ele><time>2026-04-06T14:22:16Z</time></trkpt><trkpt lat="44.693492821038475" lon="9.301660267407598"><ele>446.8</ele><time>2026-04-06T14:22:17Z</time></trkpt><trkpt lat="44.69357314257934" lon="9.301702679482183"><ele>451.4</ele><time>2026-04-06T14:22:18Z</time></trkpt><trkpt lat="44.693659172308024" lon="9.301710558774293"><ele>456.0</ele><time>2026-04-06T14:22:19Z</time></trkpt><trkpt lat="44.693758987647705" lon="9.30166043676411"><ele>457.25</ele><time>2026-04-06T14:22:20Z</time></trkpt><trkpt lat="44.693875193376385" lon="9.30157619532384"><ele>458.5</ele><time>2026-04-06T14:22:21Z</time></trkpt><trkpt lat="44.69401180772795" lon="9.301469956920005"><ele>459.75</ele><time>2026-04-06T14:22:22Z</time></trkpt><trkpt lat="44.694142752054034" lon="9.301357693322466"><ele>461.0</ele><time>2026-04-06T14:22:23Z</time></trkpt><trkpt lat="44.69428635848105" lon="9.301233811499387"><ele>462.25</ele><time>2026-04-06T14:22:24Z</time></trkpt><trkpt lat="44.69439816020868" lon="9.301114176960915"><ele>463.5</ele><time>2026-04-06T14:22:25Z</time></trkpt><trkpt lat="44.6944769069624" lon="9.300978859524871"><ele>464.75</ele><time>2026-04-06T14:22:26Z</time></trkpt><trkpt lat="44.69455153440667" lon="9.30087094493167"><ele>466.0</ele><time>2026-04-06T14:22:27Z</time></trkpt><trkpt lat="44.6946332368055" lon="9.300800856535906"><ele>466.0</ele><time>2026-04-06T14:22:28Z</time></trkpt><trkpt lat="44.694727668088866" lon="9.30078042670644"><ele>466.0</ele><time>2026-04-06T14:22:29Z</time></trkpt><trkpt lat="44.69481819661766" lon="9.30085399337362"><ele>466.0</ele><time>2026-04-06T14:22:30Z</time></trkpt><trkpt lat="44.694933175212455" lon="9.30091464357088"><ele>466.0</ele><time>2026-04-06T14:22:31Z</time></trkpt><trkpt lat="44.69504675837508" lon="9.300987683380235"><ele>466.0</ele><time>2026-04-06T14:22:32Z</time></trkpt><trkpt lat="44.69517039858137" lon="9.300970924179481"><ele>471.33333333333337</ele><time>2026-04-06T14:22:33Z</time></trkpt><trkpt lat="44.69531081144486" lon="9.300881338586056"><ele>476.66666666666663</ele><time>2026-04-06T14:22:34Z</time></trkpt><trkpt lat="44.69546511720317" lon="9.30080255554177"><ele>482.0</ele><time>2026-04-06T14:22:35Z</time></trkpt><trkpt lat="44.69561160036083" lon="9.300701455941084"><ele>482.0</ele><time>2026-04-06T14:22:36Z</time></trkpt><trkpt lat="44.69575679763523" lon="9.300605292764919"><ele>482.0</ele><time>2026-04-06T14:22:37Z</time></trkpt><trkpt lat="44.69588002323378" lon="9.300514021260087"><ele>482.0</ele><time>2026-04-06T14:22:38Z</time></trkpt><trkpt lat="44.695992316978106" lon="9.300434391720335"><ele>482.0</ele><time>2026-04-06T14:22:39Z</time></trkpt><trkpt lat="44.6961018990075" lon="9.300389839590979"><ele>482.40000000000003</ele><time>2026-04-06T14:22:40Z</time></trkpt><trkpt lat="44.69618480296395" lon="9.300315681461234"><ele>482.80000000000007</ele><time>2026-04-06T14:22:41Z</time></trkpt><trkpt lat="44.69628747807789" lon="9.30029430036398"><ele>483.2</ele><time>2026-04-06T14:22:42Z</time></trkpt><trkpt lat="44.69638697403452" lon="9.300330337698107"><ele>483.6</ele><time>2026-04-06T14:22:43Z</time></trkpt><trkpt lat="44.696470448763385" lon="9.300295050478438"><ele>484.0</ele><time>2026-04-06T14:22:44Z</time></trkpt><trkpt lat="44.69654081336961" lon="9.300278974185682"><ele>484.0</ele><time>2026-04-06T14:22:45Z</time></trkpt><trkpt lat="44.69658731626971" lon="9.300198539035602"><ele>484.0</ele><time>2026-04-06T14:22:46Z</time></trkpt><trkpt lat="44.696596460919494" lon="9.300075597490515"><ele>484.0</ele><time>2026-04-06T14:22:47Z</time></trkpt><trkpt lat="44.696618133678676" lon="9.299943970722316"><ele>484.0</ele><time>2026-04-06T14:22:48Z</time></trkpt><trkpt lat="44.696647168680165" lon="9.299786028291873"><ele>484.0</ele><time>2026-04-06T14:22:49Z</time></trkpt><trkpt lat="44.696672598811745" lon="9.299617822971056"><ele>484.0</ele><time>2026-04-06T14:22:50Z</time></trkpt><trkpt lat="44.696698769367565" lon="9.299459265910286"><ele>484.0</ele><time>2026-04-06T14:22:51Z</time></trkpt><trkpt lat="44.696751952047805" lon="9.299297793757145"><ele>484.0</ele><time>2026-04-06T14:22:52Z</time></trkpt><trkpt lat="44.69684685570783" lon="9.299158759002232"><ele>484.0</ele><time>2026-04-06T14:22:53Z</time></trkpt><trkpt lat="44.69689873593636" lon="9.29901560095557"><ele>487.2</ele><time>2026-04-06T14:22:54Z</time></trkpt><trkpt lat="44.69694401735952" lon="9.298893450932686"><ele>490.4</ele><time>2026-04-06T14:22:55Z</time></trkpt><trkpt lat="44.69695692307579" lon="9.298775695061106"><ele>493.6</ele><time>2026-04-06T14:22:56Z</time></trkpt><trkpt lat="44.69694510788958" lon="9.298653254314845"><ele>496.8</ele><time>2026-04-06T14:22:57Z</time></trkpt><trkpt lat="44.69692802052598" lon="9.298530444716176"><ele>500.0</ele><time>2026-04-06T14:22:58Z</time></trkpt><trkpt lat="44.69693630733918" lon="9.298395339119104"><ele>499.99999999999994</ele><time>2026-04-06T14:22:59Z</time></trkpt><trkpt lat="44.69697712634715" lon="9.298267292003779"><ele>500.0</ele><time>2026-04-06T14:23:00Z</time></trkpt><trkpt lat="44.697021664220166" lon="9.298152506861197"><ele>500.0</ele><time>2026-04-06T14:23:01Z</time></trkpt><trkpt lat="44.697065211756744" lon="9.298052475837356"><ele>500.0</ele><time>2026-04-06T14:23:02Z</time></trkpt><trkpt lat="44.69711852474819" lon="9.297957908753878"><ele>499.99999999999994</ele><time>2026-04-06T14:23:03Z</time></trkpt><trkpt lat="44.69718681985623" lon="9.29788902137025"><ele>500.0</ele><time>2026-04-06T14:23:04Z</time></trkpt><trkpt lat="44.69724854762927" lon="9.297805467402167"><ele>499.3333333333333</ele><time>2026-04-06T14:23:05Z</time></trkpt><trkpt lat="44.697308490177875" lon="9.29772795740292"><ele>498.66666666666663</ele><time>2026-04-06T14:23:06Z</time></trkpt><trkpt lat="44.69737167123838" lon="9.297648353749608"><ele>498.0</ele><time>2026-04-06T14:23:07Z</time></trkpt><trkpt lat="44.697428502686165" lon="9.297578081543083"><ele>497.33333333333337</ele><time>2026-04-06T14:23:08Z</time></trkpt><trkpt lat="44.6974828321408" lon="9.297510902748648"><ele>496.6666666666667</ele><time>2026-04-06T14:23:09Z</time></trkpt><trkpt lat="44.69754287960601" lon="9.29743932640143"><ele>496.0</ele><time>2026-04-06T14:23:10Z</time></trkpt><trkpt lat="44.69760090103377" lon="9.297377387340134"><ele>496.0</ele><time>2026-04-06T14:23:11Z</time></trkpt><trkpt lat="44.69767153643801" lon="9.297327707917766"><ele>496.0</ele><time>2026-04-06T14:23:12Z</time></trkpt><trkpt lat="44.69775285974526" lon="9.29729625397172"><ele>496.0</ele><time>2026-04-06T14:23:13Z</time></trkpt><trkpt lat="44.69783304813976" lon="9.297325166946441"><ele>496.0</ele><time>2026-04-06T14:23:14Z</time></trkpt><trkpt lat="44.69792785367162" lon="9.297362090656529"><ele>496.0</ele><time>2026-04-06T14:23:15Z</time></trkpt><trkpt lat="44.698056418759386" lon="9.297416232431061"><ele>499.33333333333337</ele><time>2026-04-06T14:23:16Z</time></trkpt><trkpt lat="44.69820547438696" lon="9.297484083525882"><ele>502.66666666666663</ele><time>2026-04-06T14:23:17Z</time></trkpt><trkpt lat="44.69836151824087" lon="9.29755152453532"><ele>506.0</ele><time>2026-04-06T14:23:18Z</time></trkpt><trkpt lat="44.69849274461026" lon="9.29756960068157"><ele>509.0</ele><time>2026-04-06T14:23:19Z</time></trkpt><trkpt lat="44.69860235535282" lon="9.297576915535952"><ele>512.0</ele><time>2026-04-06T14:23:20Z</time></trkpt><trkpt lat="44.69867615639551" lon="9.297533232134876"><ele>515.0</ele><time>2026-04-06T14:23:21Z</time></trkpt><trkpt lat="44.69873232378847" lon="9.297443124102598"><ele>518.0</ele><time>2026-04-06T14:23:22Z</time></trkpt><trkpt lat="44.69878192120545" lon="9.297310062606284"><ele>521.0</ele><time>2026-04-06T14:23:23Z</time></trkpt><trkpt lat="44.69883007114387" lon="9.297111426900626"><ele>521.0</ele><time>2026-04-06T14:23:24Z</time></trkpt><trkpt lat="44.69889016660757" lon="9.296913330494485"><ele>521.0</ele><time>2026-04-06T14:23:25Z</time></trkpt><trkpt lat="44.698987808460956" lon="9.296737684926283"><ele>521.0</ele><time>2026-04-06T14:23:26Z</time></trkpt><trkpt lat="44.6991219684375" lon="9.296543504125275"><ele>518.3333333333333</ele><time>2026-04-06T14:23:27Z</time></trkpt><trkpt lat="44.699259698855606" lon="9.296338966056531"><ele>515.6666666666666</ele><time>2026-04-06T14:23:28Z</time></trkpt><trkpt lat="44.6993749642432" lon="9.29621702452835"><ele>513.0</ele><time>2026-04-06T14:23:29Z</time></trkpt><trkpt lat="44.69948893800961" lon="9.29609451349327"><ele>518.6666666666666</ele><time>2026-04-06T14:23:30Z</time></trkpt><trkpt lat="44.69963393303264" lon="9.295975649362694"><ele>524.3333333333333</ele><time>2026-04-06T14:23:31Z</time></trkpt><trkpt lat="44.69980365505827" lon="9.295861775118064"><ele>530.0</ele><time>2026-04-06T14:23:32Z</time></trkpt><trkpt lat="44.699973477545235" lon="9.29572278485013"><ele>530.0</ele><time>2026-04-06T14:23:33Z</time></trkpt><trkpt lat="44.70014345006269" lon="9.295611646754061"><ele>530.0</ele><time>2026-04-06T14:23:34Z</time></trkpt><trkpt lat="44.70029061472347" lon="9.295521113995326"><ele>530.0</ele><time>2026-04-06T14:23:35Z</time></trkpt><trkpt lat="44.700422096903324" lon="9.295456371066434"><ele>531.25</ele><time>2026-04-06T14:23:36Z</time></trkpt><trkpt lat="44.70053867429948" lon="9.295402888453763"><ele>532.5</ele><time>2026-04-06T14:23:37Z</time></trkpt><trkpt lat="44.70064103509392" lon="9.295344431248786"><ele>533.75</ele><time>2026-04-06T14:23:38Z</time></trkpt><trkpt lat="44.70074088369465" lon="9.295255819441028"><ele>535.0</ele><time>2026-04-06T14:23:39Z</time></trkpt><trkpt lat="44.70082935352716" lon="9.295133755481881"><ele>535.0</ele><time>2026-04-06T14:23:40Z</time></trkpt><trkpt lat="44.700913772984904" lon="9.29498931923167"><ele>535.0</ele><time>2026-04-06T14:23:41Z</time></trkpt><trkpt lat="44.701031964092145" lon="9.294866570659453"><ele>535.0</ele><time>2026-04-06T14:23:42Z</time></trkpt><trkpt lat="44.70113040990021" lon="9.29476210551913"><ele>535.0</ele><time>2026-04-06T14:23:43Z</time></trkpt><trkpt lat="44.70121262499506" lon="9.294660529801357"><ele>535.4</ele><time>2026-04-06T14:23:44Z</time></trkpt><trkpt lat="44.701300761528614" lon="9.294637090854563"><ele>535.8</ele><time>2026-04-06T14:23:45Z</time></trkpt><trkpt lat="44.70142090657059" lon="9.29468335483597"><ele>536.2</ele><time>2026-04-06T14:23:47Z</time></trkpt><trkpt lat="44.701468462195024" lon="9.294787652797792"><ele>536.6</ele><time>2026-04-06T14:23:48Z</time></trkpt><trkpt lat="44.70147247580013" lon="9.294910176672925"><ele>537.0</ele><time>2026-04-06T14:23:49Z</time></trkpt><trkpt lat="44.7014309388554" lon="9.295014512860229"><ele>536.6666666666666</ele><time>2026-04-06T14:23:50Z</time></trkpt><trkpt lat="44.70135689920166" lon="9.295088962202813"><ele>536.3333333333334</ele><time>2026-04-06T14:23:51Z</time></trkpt><trkpt lat="44.701254335779254" lon="9.295104559502938"><ele>536.0</ele><time>2026-04-06T14:23:52Z</time></trkpt><trkpt lat="44.70117447963421" lon="9.295167922447517"><ele>535.6666666666667</ele><time>2026-04-06T14:23:53Z</time></trkpt><trkpt lat="44.70110384162861" lon="9.295205394075166"><ele>535.3333333333334</ele><time>2026-04-06T14:23:54Z</time></trkpt><trkpt lat="44.701055002283" lon="9.29527010625021"><ele>535.0</ele><time>2026-04-06T14:23:55Z</time></trkpt><trkpt lat="44.70102319431557" lon="9.295352504352369"><ele>535.0</ele><time>2026-04-06T14:23:56Z</time></trkpt><trkpt lat="44.70101855305105" lon="9.295445901192286"><ele>535.0</ele><time>2026-04-06T14:23:57Z</time></trkpt><trkpt lat="44.7010428798623" lon="9.295538792098142"><ele>535.0</ele><time>2026-04-06T14:23:58Z</time></trkpt><trkpt lat="44.70109335152948" lon="9.295616492897784"><ele>535.0</ele><time>2026-04-06T14:23:59Z</time></trkpt><trkpt lat="44.70116155913327" lon="9.29565925266032"><ele>535.0</ele><time>2026-04-06T14:24:00Z</time></trkpt><trkpt lat="44.70123812190912" lon="9.295655881242615"><ele>535.0</ele><time>2026-04-06T14:24:01Z</time></trkpt><trkpt lat="44.701310103017455" lon="9.295597745793495"><ele>535.0</ele><time>2026-04-06T14:24:02Z</time></trkpt><trkpt lat="44.701405753985284" lon="9.295531684946264"><ele>537.25</ele><time>2026-04-06T14:24:03Z</time></trkpt><trkpt lat="44.701515209243965" lon="9.295434381331843"><ele>539.5</ele><time>2026-04-06T14:24:04Z</time></trkpt><trkpt lat="44.701640436437685" lon="9.29532106897036"><ele>541.75</ele><time>2026-04-06T14:24:05Z</time></trkpt><trkpt lat="44.701758896864256" lon="9.295192970424514"><ele>544.0</ele><time>2026-04-06T14:24:06Z</time></trkpt><trkpt lat="44.70190412161576" lon="9.295084964526703"><ele>547.0</ele><time>2026-04-06T14:24:07Z</time></trkpt><trkpt lat="44.702058088350554" lon="9.29497580821602"><ele>550.0</ele><time>2026-04-06T14:24:08Z</time></trkpt><trkpt lat="44.70223204279622" lon="9.294897280420958"><ele>553.0</ele><time>2026-04-06T14:24:09Z</time></trkpt><trkpt lat="44.70240299828086" lon="9.294842078964736"><ele>553.0</ele><time>2026-04-06T14:24:10Z</time></trkpt><trkpt lat="44.702566084823694" lon="9.294801527379962"><ele>553.0</ele><time>2026-04-06T14:24:11Z</time></trkpt><trkpt lat="44.702705160642395" lon="9.294789271707643"><ele>553.0</ele><time>2026-04-06T14:24:12Z</time></trkpt><trkpt lat="44.70283638542261" lon="9.294800421740861"><ele>553.0</ele><time>2026-04-06T14:24:13Z</time></trkpt><trkpt lat="44.70297218810454" lon="9.294833701311703"><ele>553.75</ele><time>2026-04-06T14:24:14Z</time></trkpt><trkpt lat="44.703099068554174" lon="9.294897993741909"><ele>554.5</ele><time>2026-04-06T14:24:15Z</time></trkpt><trkpt lat="44.70322646739312" lon="9.29498086609078"><ele>555.25</ele><time>2026-04-06T14:24:16Z</time></trkpt><trkpt lat="44.70334725913574" lon="9.29508290072968"><ele>556.0</ele><time>2026-04-06T14:24:17Z</time></trkpt><trkpt lat="44.70346638534643" lon="9.295208793495581"><ele>556.0</ele><time>2026-04-06T14:24:18Z</time></trkpt><trkpt lat="44.70357289307836" lon="9.29534509557087"><ele>556.0</ele><time>2026-04-06T14:24:19Z</time></trkpt><trkpt lat="44.70366858844735" lon="9.295471086074386"><ele>556.0</ele><time>2026-04-06T14:24:20Z</time></trkpt><trkpt lat="44.703773293790235" lon="9.295579729861466"><ele>556.0</ele><time>2026-04-06T14:24:21Z</time></trkpt><trkpt lat="44.70388814708607" lon="9.2956468043525"><ele>558.75</ele><time>2026-04-06T14:24:22Z</time></trkpt><trkpt lat="44.7040245405644" lon="9.295684910036572"><ele>561.5</ele><time>2026-04-06T14:24:23Z</time></trkpt><trkpt lat="44.70417046127929" lon="9.295702890382044"><ele>564.25</ele><time>2026-04-06T14:24:24Z</time></trkpt><trkpt lat="44.70427958520555" lon="9.295711999386713"><ele>567.0</ele><time>2026-04-06T14:24:25Z</time></trkpt><trkpt lat="44.70434597000194" lon="9.29574982389143"><ele>567.0</ele><time>2026-04-06T14:24:26Z</time></trkpt><trkpt lat="44.70438702732398" lon="9.295847495076952"><ele>567.0</ele><time>2026-04-06T14:24:27Z</time></trkpt><trkpt lat="44.704391307170454" lon="9.295981255972956"><ele>567.0</ele><time>2026-04-06T14:24:28Z</time></trkpt><trkpt lat="44.70436264313584" lon="9.296090255063206"><ele>567.0</ele><time>2026-04-06T14:24:29Z</time></trkpt><trkpt lat="44.704316025781125" lon="9.29615314461261"><ele>567.0</ele><time>2026-04-06T14:24:30Z</time></trkpt><trkpt lat="44.704241024833784" lon="9.296187682402927"><ele>567.0</ele><time>2026-04-06T14:24:31Z</time></trkpt><trkpt lat="44.70412990671422" lon="9.296173813976466"><ele>567.0</ele><time>2026-04-06T14:24:32Z</time></trkpt><trkpt lat="44.7039785144177" lon="9.296185242149413"><ele>567.0</ele><time>2026-04-06T14:24:33Z</time></trkpt><trkpt lat="44.70382524313505" lon="9.29616306498243"><ele>567.0</ele><time>2026-04-06T14:24:34Z</time></trkpt><trkpt lat="44.70369280575012" lon="9.29616345885522"><ele>567.0</ele><time>2026-04-06T14:24:35Z</time></trkpt><trkpt lat="44.703573685591785" lon="9.296200893036701"><ele>568.3333333333334</ele><time>2026-04-06T14:24:36Z</time></trkpt><trkpt lat="44.70344536643537" lon="9.29628126392468"><ele>569.6666666666667</ele><time>2026-04-06T14:24:37Z</time></trkpt><trkpt lat="44.70329430813812" lon="9.29640048121057"><ele>571.0</ele><time>2026-04-06T14:24:38Z</time></trkpt><trkpt lat="44.70313830629552" lon="9.296534091012655"><ele>573.6666666666667</ele><time>2026-04-06T14:24:39Z</time></trkpt><trkpt lat="44.70297311047368" lon="9.296661402385855"><ele>576.3333333333334</ele><time>2026-04-06T14:24:40Z</time></trkpt><trkpt lat="44.70281879435701" lon="9.296767030197783"><ele>579.0</ele><time>2026-04-06T14:24:41Z</time></trkpt><trkpt lat="44.70266048957047" lon="9.296843421511738"><ele>579.0</ele><time>2026-04-06T14:24:42Z</time></trkpt><trkpt lat="44.702493577619194" lon="9.29689357102622"><ele>579.0</ele><time>2026-04-06T14:24:43Z</time></trkpt><trkpt lat="44.702345827958744" lon="9.296920003470555"><ele>579.0</ele><time>2026-04-06T14:24:44Z</time></trkpt><trkpt lat="44.702219654883415" lon="9.296950078727658"><ele>579.0</ele><time>2026-04-06T14:24:45Z</time></trkpt><trkpt lat="44.702119053880246" lon="9.296988189808783"><ele>578.9999999999999</ele><time>2026-04-06T14:24:46Z</time></trkpt><trkpt lat="44.702048898203046" lon="9.297038662034451"><ele>579.0</ele><time>2026-04-06T14:24:47Z</time></trkpt><trkpt lat="44.702006350023225" lon="9.2971082877895"><ele>579.0</ele><time>2026-04-06T14:24:48Z</time></trkpt><trkpt lat="44.7019863411101" lon="9.29719625803559"><ele>579.0</ele><time>2026-04-06T14:24:49Z</time></trkpt><trkpt lat="44.701987924530684" lon="9.297307868599676"><ele>579.0</ele><time>2026-04-06T14:24:50Z</time></trkpt><trkpt lat="44.70202431751117" lon="9.297404661574754"><ele>578.9999999999999</ele><time>2026-04-06T14:24:51Z</time></trkpt><trkpt lat="44.70208673260219" lon="9.297458114951995"><ele>579.0</ele><time>2026-04-06T14:24:52Z</time></trkpt><trkpt lat="44.70217816110115" lon="9.297471629185225"><ele>579.0</ele><time>2026-04-06T14:24:53Z</time></trkpt><trkpt lat="44.70228033511531" lon="9.297439013955813"><ele>579.0</ele><time>2026-04-06T14:24:54Z</time></trkpt><trkpt lat="44.70238719559503" lon="9.297369990633403"><ele>579.0</ele><time>2026-04-06T14:24:55Z</time></trkpt><trkpt lat="44.7024939039839" lon="9.297268755880703"><ele>579.0</ele><time>2026-04-06T14:24:56Z</time></trkpt><trkpt lat="44.70260690664027" lon="9.29722162938539"><ele>579.0</ele><time>2026-04-06T14:24:57Z</time></trkpt><trkpt lat="44.70271729709641" lon="9.297222352923152"><ele>579.0</ele><time>2026-04-06T14:24:58Z</time></trkpt><trkpt lat="44.702848469336445" lon="9.297231910808572"><ele>579.0</ele><time>2026-04-06T14:24:59Z</time></trkpt><trkpt lat="44.70297340708288" lon="9.29725432212261"><ele>579.0</ele><time>2026-04-06T14:25:00Z</time></trkpt><trkpt lat="44.703099272818505" lon="9.297299084121908"><ele>583.5</ele><time>2026-04-06T14:25:01Z</time></trkpt><trkpt lat="44.70322495960921" lon="9.297383199846534"><ele>588.0</ele><time>2026-04-06T14:25:02Z</time></trkpt><trkpt lat="44.703374290778335" lon="9.297468696017104"><ele>592.5</ele><time>2026-04-06T14:25:03Z</time></trkpt><trkpt lat="44.70348441603525" lon="9.29756106550483"><ele>597.0</ele><time>2026-04-06T14:25:04Z</time></trkpt><trkpt lat="44.70356702355584" lon="9.297636339553044"><ele>596.5</ele><time>2026-04-06T14:25:05Z</time></trkpt><trkpt lat="44.70363853466545" lon="9.297729491052351"><ele>596.0</ele><time>2026-04-06T14:25:06Z</time></trkpt><trkpt lat="44.703712075979716" lon="9.297861270751085"><ele>595.5</ele><time>2026-04-06T14:25:07Z</time></trkpt><trkpt lat="44.70377733518809" lon="9.29801710082987"><ele>595.0</ele><time>2026-04-06T14:25:08Z</time></trkpt><trkpt lat="44.70381359450783" lon="9.2981664640323"><ele>595.0</ele><time>2026-04-06T14:25:09Z</time></trkpt><trkpt lat="44.70382634513289" lon="9.298308764494006"><ele>595.0</ele><time>2026-04-06T14:25:10Z</time></trkpt><trkpt lat="44.70382470224111" lon="9.298492109096617"><ele>595.0</ele><time>2026-04-06T14:25:11Z</time></trkpt><trkpt lat="44.70382721579307" lon="9.298707163568842"><ele>595.0</ele><time>2026-04-06T14:25:12Z</time></trkpt><trkpt lat="44.70384232044998" lon="9.298934561549713"><ele>597.75</ele><time>2026-04-06T14:25:13Z</time></trkpt><trkpt lat="44.7038670729841" lon="9.299151432846903"><ele>600.5</ele><time>2026-04-06T14:25:14Z</time></trkpt><trkpt lat="44.70388787484502" lon="9.299326036549969"><ele>603.25</ele><time>2026-04-06T14:25:15Z</time></trkpt><trkpt lat="44.70390263642825" lon="9.299455085291825"><ele>606.0</ele><time>2026-04-06T14:25:16Z</time></trkpt><trkpt lat="44.7038818796201" lon="9.299605549294752"><ele>606.0</ele><time>2026-04-06T14:25:18Z</time></trkpt><trkpt lat="44.70381892592367" lon="9.29967306852557"><ele>606.0</ele><time>2026-04-06T14:25:19Z</time></trkpt><trkpt lat="44.70373523024629" lon="9.299701692410961"><ele>606.0</ele><time>2026-04-06T14:25:20Z</time></trkpt><trkpt lat="44.703644996456276" lon="9.29968424371543"><ele>606.0</ele><time>2026-04-06T14:25:21Z</time></trkpt><trkpt lat="44.703569428750534" lon="9.29960806831473"><ele>606.0</ele><time>2026-04-06T14:25:22Z</time></trkpt><trkpt lat="44.703533578853865" lon="9.299470332598158"><ele>608.0</ele><time>2026-04-06T14:25:23Z</time></trkpt><trkpt lat="44.70352465266401" lon="9.299277035778799"><ele>610.0</ele><time>2026-04-06T14:25:24Z</time></trkpt><trkpt lat="44.703482336402146" lon="9.299111245393652"><ele>612.0</ele><time>2026-04-06T14:25:25Z</time></trkpt><trkpt lat="44.703444055716595" lon="9.298991737903366"><ele>614.0</ele><time>2026-04-06T14:25:26Z</time></trkpt><trkpt lat="44.703382384368446" lon="9.298901363286582"><ele>616.0</ele><time>2026-04-06T14:25:27Z</time></trkpt><trkpt lat="44.70329612814529" lon="9.298847848628741"><ele>616.0</ele><time>2026-04-06T14:25:28Z</time></trkpt><trkpt lat="44.70318923862524" lon="9.298826162225373"><ele>616.0</ele><time>2026-04-06T14:25:29Z</time></trkpt><trkpt lat="44.70307199280688" lon="9.29882923451135"><ele>616.0</ele><time>2026-04-06T14:25:30Z</time></trkpt><trkpt lat="44.70297206087688" lon="9.29887113158901"><ele>616.0</ele><time>2026-04-06T14:25:31Z</time></trkpt><trkpt lat="44.70288777287056" lon="9.298945951088822"><ele>616.0</ele><time>2026-04-06T14:25:32Z</time></trkpt><trkpt lat="44.70282589047793" lon="9.2990564806168"><ele>617.25</ele><time>2026-04-06T14:25:33Z</time></trkpt><trkpt lat="44.70278203011677" lon="9.299193060376437"><ele>618.5</ele><time>2026-04-06T14:25:34Z</time></trkpt><trkpt lat="44.702764752059394" lon="9.29933916058307"><ele>619.75</ele><time>2026-04-06T14:25:35Z</time></trkpt><trkpt lat="44.702764427113905" lon="9.29950302266925"><ele>621.0</ele><time>2026-04-06T14:25:36Z</time></trkpt><trkpt lat="44.70276272499379" lon="9.29968638039322"><ele>622.5</ele><time>2026-04-06T14:25:37Z</time></trkpt><trkpt lat="44.70275374439836" lon="9.299892316245334"><ele>624.0</ele><time>2026-04-06T14:25:37.999Z</time></trkpt><trkpt lat="44.70274297384718" lon="9.300093897535895"><ele>625.5</ele><time>2026-04-06T14:25:38.999Z</time></trkpt><trkpt lat="44.7027351112124" lon="9.300303642485458"><ele>627.0</ele><time>2026-04-06T14:25:39.999Z</time></trkpt><trkpt lat="44.70273663946915" lon="9.300542600880037"><ele>629.3333333333334</ele><time>2026-04-06T14:25:40.999Z</time></trkpt><trkpt lat="44.70275723510188" lon="9.3007802711062"><ele>631.6666666666667</ele><time>2026-04-06T14:25:42Z</time></trkpt><trkpt lat="44.70277352540971" lon="9.301010070957906"><ele>634.0</ele><time>2026-04-06T14:25:43Z</time></trkpt><trkpt lat="44.70279861998661" lon="9.301203934478178"><ele>634.0</ele><time>2026-04-06T14:25:44Z</time></trkpt><trkpt lat="44.70280779982247" lon="9.301383817906036"><ele>634.0</ele><time>2026-04-06T14:25:45Z</time></trkpt><trkpt lat="44.70279699172887" lon="9.301569452747536"><ele>634.0</ele><time>2026-04-06T14:25:46Z</time></trkpt><trkpt lat="44.702743531681286" lon="9.30175863914378"><ele>634.0</ele><time>2026-04-06T14:25:47Z</time></trkpt><trkpt lat="44.70265624198941" lon="9.301960096564338"><ele>636.6666666666667</ele><time>2026-04-06T14:25:48Z</time></trkpt><trkpt lat="44.70255072266073" lon="9.302189371709254"><ele>639.3333333333334</ele><time>2026-04-06T14:25:49Z</time></trkpt><trkpt lat="44.70245493589125" lon="9.30239581280394"><ele>642.0</ele><time>2026-04-06T14:25:50Z</time></trkpt><trkpt lat="44.70237827557619" lon="9.302559453116263"><ele>642.25</ele><time>2026-04-06T14:25:51Z</time></trkpt><trkpt lat="44.702334156538235" lon="9.302729385760419"><ele>642.5</ele><time>2026-04-06T14:25:52Z</time></trkpt><trkpt lat="44.702307041086776" lon="9.302918527763863"><ele>642.75</ele><time>2026-04-06T14:25:53Z</time></trkpt><trkpt lat="44.70230747151397" lon="9.303119592141353"><ele>643.0</ele><time>2026-04-06T14:25:54Z</time></trkpt><trkpt lat="44.70229615016384" lon="9.30330853583769"><ele>644.0</ele><time>2026-04-06T14:25:55Z</time></trkpt><trkpt lat="44.70231804576949" lon="9.303537845930599"><ele>645.0</ele><time>2026-04-06T14:25:56Z</time></trkpt><trkpt lat="44.702339187538904" lon="9.303801962653832"><ele>646.0</ele><time>2026-04-06T14:25:57Z</time></trkpt><trkpt lat="44.7023584043696" lon="9.30405578307271"><ele>647.25</ele><time>2026-04-06T14:25:58Z</time></trkpt><trkpt lat="44.70237373807012" lon="9.304262961392993"><ele>648.5</ele><time>2026-04-06T14:25:59Z</time></trkpt><trkpt lat="44.70239475387886" lon="9.3044337346019"><ele>649.75</ele><time>2026-04-06T14:26:00Z</time></trkpt><trkpt lat="44.70244251778072" lon="9.304584546981882"><ele>651.0</ele><time>2026-04-06T14:26:01Z</time></trkpt><trkpt lat="44.702516633141165" lon="9.30470707038981"><ele>652.0</ele><time>2026-04-06T14:26:02Z</time></trkpt><trkpt lat="44.702614646439926" lon="9.304792388814633"><ele>653.0</ele><time>2026-04-06T14:26:03Z</time></trkpt><trkpt lat="44.702726499486204" lon="9.304880038876897"><ele>654.0</ele><time>2026-04-06T14:26:04Z</time></trkpt><trkpt lat="44.70283658780569" lon="9.30498177577331"><ele>655.0</ele><time>2026-04-06T14:26:05Z</time></trkpt><trkpt lat="44.702947848035215" lon="9.305093070090841"><ele>656.3333333333334</ele><time>2026-04-06T14:26:06Z</time></trkpt><trkpt lat="44.70306443289259" lon="9.305215043885791"><ele>657.6666666666666</ele><time>2026-04-06T14:26:07Z</time></trkpt><trkpt lat="44.70319701013321" lon="9.305354577339289"><ele>659.0</ele><time>2026-04-06T14:26:08Z</time></trkpt><trkpt lat="44.70333664849927" lon="9.305499145204012"><ele>660.75</ele><time>2026-04-06T14:26:09Z</time></trkpt><trkpt lat="44.70344985848432" lon="9.305613415247642"><ele>662.5</ele><time>2026-04-06T14:26:10Z</time></trkpt><trkpt lat="44.703549818290504" lon="9.305716016298712"><ele>664.25</ele><time>2026-04-06T14:26:11Z</time></trkpt><trkpt lat="44.70360880168088" lon="9.305838789080289"><ele>666.0</ele><time>2026-04-06T14:26:12Z</time></trkpt><trkpt lat="44.70363819829065" lon="9.305972623102694"><ele>666.0</ele><time>2026-04-06T14:26:13Z</time></trkpt><trkpt lat="44.70363923583901" lon="9.306115245941099"><ele>666.0</ele><time>2026-04-06T14:26:14Z</time></trkpt><trkpt lat="44.70358350414914" lon="9.306217368867339"><ele>666.0</ele><time>2026-04-06T14:26:15Z</time></trkpt><trkpt lat="44.70351866223416" lon="9.30635383222424"><ele>666.0</ele><time>2026-04-06T14:26:16Z</time></trkpt><trkpt lat="44.70343454879468" lon="9.3065533498299"><ele>668.3333333333334</ele><time>2026-04-06T14:26:17Z</time></trkpt><trkpt lat="44.70335014744498" lon="9.306797139286084"><ele>670.6666666666667</ele><time>2026-04-06T14:26:18Z</time></trkpt><trkpt lat="44.7032383992733" lon="9.30706134581005"><ele>673.0</ele><time>2026-04-06T14:26:19Z</time></trkpt><trkpt lat="44.70312067490437" lon="9.307338198565095"><ele>677.0</ele><time>2026-04-06T14:26:20Z</time></trkpt><trkpt lat="44.703003961883795" lon="9.307620553362238"><ele>681.0</ele><time>2026-04-06T14:26:21Z</time></trkpt><trkpt lat="44.702880406985116" lon="9.307934909864938"><ele>680.0</ele><time>2026-04-06T14:26:22Z</time></trkpt><trkpt lat="44.70277521211203" lon="9.308188424117809"><ele>679.0</ele><time>2026-04-06T14:26:23Z</time></trkpt><trkpt lat="44.70267980878899" lon="9.308412975981367"><ele>678.0</ele><time>2026-04-06T14:26:24Z</time></trkpt><trkpt lat="44.702595045091634" lon="9.30861282182063"><ele>678.0</ele><time>2026-04-06T14:26:25Z</time></trkpt><trkpt lat="44.70251225392976" lon="9.308762592200356"><ele>678.0</ele><time>2026-04-06T14:26:26Z</time></trkpt><trkpt lat="44.7024291854357" lon="9.308893676621556"><ele>678.0</ele><time>2026-04-06T14:26:27Z</time></trkpt><trkpt lat="44.702331593657206" lon="9.308992471855442"><ele>678.0</ele><time>2026-04-06T14:26:28Z</time></trkpt><trkpt lat="44.70223037033127" lon="9.309045871859272"><ele>681.25</ele><time>2026-04-06T14:26:29Z</time></trkpt><trkpt lat="44.7021115034798" lon="9.309075626846843"><ele>684.5</ele><time>2026-04-06T14:26:30Z</time></trkpt><trkpt lat="44.701975576855546" lon="9.309072644553574"><ele>687.75</ele><time>2026-04-06T14:26:31Z</time></trkpt><trkpt lat="44.701825504038204" lon="9.309080754872348"><ele>691.0</ele><time>2026-04-06T14:26:32Z</time></trkpt><trkpt lat="44.70168649869235" lon="9.309041107630234"><ele>691.0</ele><time>2026-04-06T14:26:33Z</time></trkpt><trkpt lat="44.7015756095259" lon="9.309033998389287"><ele>691.0</ele><time>2026-04-06T14:26:34Z</time></trkpt><trkpt lat="44.70148877297353" lon="9.309068328974334"><ele>691.0</ele><time>2026-04-06T14:26:35Z</time></trkpt><trkpt lat="44.70141638666229" lon="9.309130863787322"><ele>691.0</ele><time>2026-04-06T14:26:36Z</time></trkpt><trkpt lat="44.70136547535899" lon="9.30922506128859"><ele>691.0</ele><time>2026-04-06T14:26:37Z</time></trkpt><trkpt lat="44.70133834997536" lon="9.309341265737014"><ele>691.0</ele><time>2026-04-06T14:26:38Z</time></trkpt><trkpt lat="44.70134371945127" lon="9.309474332364424"><ele>691.0</ele><time>2026-04-06T14:26:39Z</time></trkpt><trkpt lat="44.70139023093774" lon="9.309599659255559"><ele>691.0</ele><time>2026-04-06T14:26:40Z</time></trkpt><trkpt lat="44.70145511875976" lon="9.309702545409811"><ele>691.0</ele><time>2026-04-06T14:26:41Z</time></trkpt><trkpt lat="44.70153679610097" lon="9.309757942116738"><ele>691.0</ele><time>2026-04-06T14:26:42Z</time></trkpt><trkpt lat="44.70163443140733" lon="9.309761520097384"><ele>691.0</ele><time>2026-04-06T14:26:43Z</time></trkpt><trkpt lat="44.70174876996288" lon="9.309726335317567"><ele>691.0</ele><time>2026-04-06T14:26:44Z</time></trkpt><trkpt lat="44.70186832288482" lon="9.309675763392844"><ele>691.0</ele><time>2026-04-06T14:26:45Z</time></trkpt><trkpt lat="44.70196885088008" lon="9.3096550142498"><ele>691.0</ele><time>2026-04-06T14:26:46Z</time></trkpt><trkpt lat="44.70212205975495" lon="9.309635702629407"><ele>691.25</ele><time>2026-04-06T14:26:47Z</time></trkpt><trkpt lat="44.702295150371654" lon="9.309620069690517"><ele>691.5</ele><time>2026-04-06T14:26:48Z</time></trkpt><trkpt lat="44.702445263950054" lon="9.309615137413765"><ele>691.75</ele><time>2026-04-06T14:26:49Z</time></trkpt><trkpt lat="44.70256898265005" lon="9.309640015104627"><ele>692.0</ele><time>2026-04-06T14:26:50Z</time></trkpt><trkpt lat="44.70269104867123" lon="9.309708943930886"><ele>697.5</ele><time>2026-04-06T14:26:51Z</time></trkpt><trkpt lat="44.70284044597302" lon="9.309789775860567"><ele>703.0</ele><time>2026-04-06T14:26:52Z</time></trkpt><trkpt lat="44.70297577595586" lon="9.30984532794089"><ele>708.5</ele><time>2026-04-06T14:26:53Z</time></trkpt><trkpt lat="44.703097844975325" lon="9.309839804032563"><ele>714.0</ele><time>2026-04-06T14:26:54Z</time></trkpt><trkpt lat="44.70321016706237" lon="9.309824952820103"><ele>714.0</ele><time>2026-04-06T14:26:55Z</time></trkpt><trkpt lat="44.70333340276182" lon="9.309772659909708"><ele>714.0</ele><time>2026-04-06T14:26:56Z</time></trkpt><trkpt lat="44.70345946896766" lon="9.309632284702092"><ele>714.0</ele><time>2026-04-06T14:26:57Z</time></trkpt><trkpt lat="44.703590700470954" lon="9.309535989677407"><ele>714.0</ele><time>2026-04-06T14:26:58Z</time></trkpt><trkpt lat="44.703688553006245" lon="9.309485485082453"><ele>712.25</ele><time>2026-04-06T14:26:59Z</time></trkpt><trkpt lat="44.703780913318" lon="9.309472705146153"><ele>710.5</ele><time>2026-04-06T14:27:00Z</time></trkpt><trkpt lat="44.703888126468435" lon="9.309491693679387"><ele>708.75</ele><time>2026-04-06T14:27:01Z</time></trkpt><trkpt lat="44.704020059317806" lon="9.30954339012136"><ele>707.0</ele><time>2026-04-06T14:27:02Z</time></trkpt><trkpt lat="44.70417685255978" lon="9.309623852532562"><ele>707.0</ele><time>2026-04-06T14:27:03Z</time></trkpt><trkpt lat="44.704310822404246" lon="9.309731438944732"><ele>707.0</ele><time>2026-04-06T14:27:04Z</time></trkpt><trkpt lat="44.704424329730664" lon="9.309838079975103"><ele>707.0</ele><time>2026-04-06T14:27:05Z</time></trkpt><trkpt lat="44.70451966864694" lon="9.309876964888264"><ele>707.0</ele><time>2026-04-06T14:27:06Z</time></trkpt><trkpt lat="44.704601820011554" lon="9.309890786150183"><ele>708.75</ele><time>2026-04-06T14:27:07Z</time></trkpt><trkpt lat="44.70469506582908" lon="9.309859736833518"><ele>710.5</ele><time>2026-04-06T14:27:08Z</time></trkpt><trkpt lat="44.70481569075483" lon="9.309796408898706"><ele>712.25</ele><time>2026-04-06T14:27:09Z</time></trkpt><trkpt lat="44.704978367119864" lon="9.309742849531453"><ele>714.0</ele><time>2026-04-06T14:27:10Z</time></trkpt><trkpt lat="44.70515603181045" lon="9.309648638784115"><ele>715.75</ele><time>2026-04-06T14:27:11Z</time></trkpt><trkpt lat="44.70531045472202" lon="9.309588202209442"><ele>717.5</ele><time>2026-04-06T14:27:12Z</time></trkpt><trkpt lat="44.705440833755226" lon="9.309540087618494"><ele>719.25</ele><time>2026-04-06T14:27:13Z</time></trkpt><trkpt lat="44.70555950089943" lon="9.309509714454071"><ele>721.0</ele><time>2026-04-06T14:27:14Z</time></trkpt><trkpt lat="44.705691010987174" lon="9.309540010005332"><ele>721.0</ele><time>2026-04-06T14:27:15Z</time></trkpt><trkpt lat="44.705828562522335" lon="9.309568553007031"><ele>721.0</ele><time>2026-04-06T14:27:16Z</time></trkpt><trkpt lat="44.705982892491726" lon="9.30960977955558"><ele>721.0</ele><time>2026-04-06T14:27:17Z</time></trkpt><trkpt lat="44.7061646734808" lon="9.309632880944463"><ele>724.25</ele><time>2026-04-06T14:27:18Z</time></trkpt><trkpt lat="44.706311166411915" lon="9.30967232274587"><ele>727.5</ele><time>2026-04-06T14:27:19Z</time></trkpt><trkpt lat="44.70641916279297" lon="9.309681639757258"><ele>730.75</ele><time>2026-04-06T14:27:20Z</time></trkpt><trkpt lat="44.70651614772311" lon="9.309644217996935"><ele>734.0</ele><time>2026-04-06T14:27:21Z</time></trkpt><trkpt lat="44.70661789894553" lon="9.309564097718479"><ele>734.0</ele><time>2026-04-06T14:27:22Z</time></trkpt><trkpt lat="44.7067287916107" lon="9.309448596176663"><ele>734.0</ele><time>2026-04-06T14:27:23Z</time></trkpt><trkpt lat="44.70683698060596" lon="9.309298890820838"><ele>734.0</ele><time>2026-04-06T14:27:24Z</time></trkpt><trkpt lat="44.70695491359055" lon="9.309127952497713"><ele>736.5</ele><time>2026-04-06T14:27:25Z</time></trkpt><trkpt lat="44.707066056133925" lon="9.308980663264729"><ele>739.0</ele><time>2026-04-06T14:27:26Z</time></trkpt><trkpt lat="44.70715143183217" lon="9.308861212087939"><ele>741.5</ele><time>2026-04-06T14:27:27Z</time></trkpt><trkpt lat="44.70720751922786" lon="9.308739589993856"><ele>744.0</ele><time>2026-04-06T14:27:28Z</time></trkpt><trkpt lat="44.707239944031976" lon="9.308597952280437"><ele>744.0</ele><time>2026-04-06T14:27:29Z</time></trkpt><trkpt lat="44.70724596511452" lon="9.308427760558642"><ele>744.0</ele><time>2026-04-06T14:27:30Z</time></trkpt><trkpt lat="44.707264140677076" lon="9.308240386312674"><ele>744.0</ele><time>2026-04-06T14:27:31Z</time></trkpt><trkpt lat="44.70727498281936" lon="9.308089030010601"><ele>744.0</ele><time>2026-04-06T14:27:32Z</time></trkpt><trkpt lat="44.707295875001485" lon="9.307966446765272"><ele>742.4000000000001</ele><time>2026-04-06T14:27:33Z</time></trkpt><trkpt lat="44.70733222367681" lon="9.307865882514886"><ele>740.8</ele><time>2026-04-06T14:27:34Z</time></trkpt><trkpt lat="44.70738890762826" lon="9.307776393184847"><ele>739.2</ele><time>2026-04-06T14:27:35Z</time></trkpt><trkpt lat="44.70747052961828" lon="9.307708105739685"><ele>737.5999999999999</ele><time>2026-04-06T14:27:36Z</time></trkpt><trkpt lat="44.70756401999452" lon="9.307670711427896"><ele>736.0</ele><time>2026-04-06T14:27:37Z</time></trkpt><trkpt lat="44.70767866559704" lon="9.307629239525056"><ele>739.75</ele><time>2026-04-06T14:27:38Z</time></trkpt><trkpt lat="44.70780390699288" lon="9.307590334476384"><ele>743.5</ele><time>2026-04-06T14:27:39Z</time></trkpt><trkpt lat="44.70794030367132" lon="9.307527148384592"><ele>747.25</ele><time>2026-04-06T14:27:40Z</time></trkpt><trkpt lat="44.70807526875759" lon="9.307493672784837"><ele>751.0</ele><time>2026-04-06T14:27:41Z</time></trkpt><trkpt lat="44.708184543022696" lon="9.307453832021107"><ele>751.0</ele><time>2026-04-06T14:27:42Z</time></trkpt><trkpt lat="44.708277889592146" lon="9.30742324909885"><ele>751.0</ele><time>2026-04-06T14:27:43Z</time></trkpt><trkpt lat="44.708375767688004" lon="9.307429596870103"><ele>751.0</ele><time>2026-04-06T14:27:44Z</time></trkpt><trkpt lat="44.70849881027781" lon="9.307432386169301"><ele>751.0</ele><time>2026-04-06T14:27:45Z</time></trkpt><trkpt lat="44.70864559991298" lon="9.307443409158157"><ele>753.4</ele><time>2026-04-06T14:27:46Z</time></trkpt><trkpt lat="44.708762727184094" lon="9.307434115468714"><ele>755.8</ele><time>2026-04-06T14:27:47Z</time></trkpt><trkpt lat="44.708867218399504" lon="9.30744190539582"><ele>758.1999999999999</ele><time>2026-04-06T14:27:48Z</time></trkpt><trkpt lat="44.70895969429222" lon="9.307406002983317"><ele>760.5999999999999</ele><time>2026-04-06T14:27:49Z</time></trkpt><trkpt lat="44.70903300819018" lon="9.30731282203787"><ele>763.0</ele><time>2026-04-06T14:27:50Z</time></trkpt><trkpt lat="44.70908122331365" lon="9.307194711555828"><ele>763.75</ele><time>2026-04-06T14:27:51Z</time></trkpt><trkpt lat="44.70910129235264" lon="9.307048698061754"><ele>764.5</ele><time>2026-04-06T14:27:52Z</time></trkpt><trkpt lat="44.70909964297183" lon="9.306885940034883"><ele>765.25</ele><time>2026-04-06T14:27:53Z</time></trkpt><trkpt lat="44.70906402003699" lon="9.306742322182995"><ele>766.0</ele><time>2026-04-06T14:27:54Z</time></trkpt><trkpt lat="44.70899516133159" lon="9.306597426471596"><ele>766.0</ele><time>2026-04-06T14:27:55Z</time></trkpt><trkpt lat="44.70890716184311" lon="9.306435872323238"><ele>766.0</ele><time>2026-04-06T14:27:56Z</time></trkpt><trkpt lat="44.708816486229956" lon="9.306222926389573"><ele>766.0</ele><time>2026-04-06T14:27:57Z</time></trkpt><trkpt lat="44.70871385124698" lon="9.305999078096729"><ele>766.8</ele><time>2026-04-06T14:27:58Z</time></trkpt><trkpt lat="44.7086387211672" lon="9.305825146010859"><ele>767.5999999999999</ele><time>2026-04-06T14:27:59Z</time></trkpt><trkpt lat="44.70858972739003" lon="9.305690324661422"><ele>768.4</ele><time>2026-04-06T14:28:00Z</time></trkpt><trkpt lat="44.70856566806203" lon="9.305570897221065"><ele>769.2</ele><time>2026-04-06T14:28:01Z</time></trkpt><trkpt lat="44.70857336283866" lon="9.305462363607324"><ele>770.0</ele><time>2026-04-06T14:28:02Z</time></trkpt><trkpt lat="44.708610380854644" lon="9.305362107640557"><ele>770.0</ele><time>2026-04-06T14:28:03Z</time></trkpt><trkpt lat="44.70866676768273" lon="9.305261495864634"><ele>770.0</ele><time>2026-04-06T14:28:04Z</time></trkpt><trkpt lat="44.70873058654033" lon="9.305160025491753"><ele>770.0</ele><time>2026-04-06T14:28:05Z</time></trkpt><trkpt lat="44.70879804299258" lon="9.30504586472831"><ele>770.0</ele><time>2026-04-06T14:28:06Z</time></trkpt><trkpt lat="44.708868313309694" lon="9.304928936025645"><ele>770.0</ele><time>2026-04-06T14:28:07Z</time></trkpt><trkpt lat="44.708967163553716" lon="9.304864332452158"><ele>770.0</ele><time>2026-04-06T14:28:08Z</time></trkpt><trkpt lat="44.709080765033924" lon="9.304808919009064"><ele>770.0</ele><time>2026-04-06T14:28:09Z</time></trkpt><trkpt lat="44.70921352605126" lon="9.304773646968421"><ele>770.0</ele><time>2026-04-06T14:28:10Z</time></trkpt><trkpt lat="44.70936326582641" lon="9.30471678456951"><ele>770.0</ele><time>2026-04-06T14:28:11Z</time></trkpt><trkpt lat="44.70952811199739" lon="9.30467997221215"><ele>768.3333333333334</ele><time>2026-04-06T14:28:12Z</time></trkpt><trkpt lat="44.70969012756058" lon="9.304638982606212"><ele>766.6666666666667</ele><time>2026-04-06T14:28:13Z</time></trkpt><trkpt lat="44.709852118826795" lon="9.3046371207359"><ele>765.0</ele><time>2026-04-06T14:28:14Z</time></trkpt><trkpt lat="44.71001093398879" lon="9.304605728589106"><ele>765.0</ele><time>2026-04-06T14:28:15Z</time></trkpt><trkpt lat="44.71016637154436" lon="9.304603932292514"><ele>765.0</ele><time>2026-04-06T14:28:16Z</time></trkpt><trkpt lat="44.710304619879736" lon="9.304597766026218"><ele>765.0</ele><time>2026-04-06T14:28:17Z</time></trkpt><trkpt lat="44.710440307314755" lon="9.304571650269482"><ele>765.0</ele><time>2026-04-06T14:28:18Z</time></trkpt><trkpt lat="44.7105796884888" lon="9.304517699901846"><ele>768.3333333333333</ele><time>2026-04-06T14:28:19Z</time></trkpt><trkpt lat="44.71072112866486" lon="9.304430497410454"><ele>771.6666666666666</ele><time>2026-04-06T14:28:20Z</time></trkpt><trkpt lat="44.71085964334744" lon="9.304321369772254"><ele>775.0</ele><time>2026-04-06T14:28:21Z</time></trkpt><trkpt lat="44.710993960382275" lon="9.304212382612675"><ele>778.5</ele><time>2026-04-06T14:28:22Z</time></trkpt><trkpt lat="44.71110947570463" lon="9.304129436368523"><ele>782.0</ele><time>2026-04-06T14:28:23Z</time></trkpt><trkpt lat="44.71123872283328" lon="9.30409485113236"><ele>785.5</ele><time>2026-04-06T14:28:24Z</time></trkpt><trkpt lat="44.71137788048636" lon="9.304065261637565"><ele>789.0</ele><time>2026-04-06T14:28:25Z</time></trkpt><trkpt lat="44.71153224538972" lon="9.304037518996166"><ele>789.0</ele><time>2026-04-06T14:28:26Z</time></trkpt><trkpt lat="44.711683478934226" lon="9.303989946010116"><ele>789.0</ele><time>2026-04-06T14:28:27Z</time></trkpt><trkpt lat="44.71184137545116" lon="9.303968033402725"><ele>789.0</ele><time>2026-04-06T14:28:28Z</time></trkpt><trkpt lat="44.71198936559116" lon="9.303929273397905"><ele>789.6</ele><time>2026-04-06T14:28:29Z</time></trkpt><trkpt lat="44.712131454456234" lon="9.303925001122552"><ele>790.2</ele><time>2026-04-06T14:28:30Z</time></trkpt><trkpt lat="44.71223810976584" lon="9.303916942295823"><ele>790.8000000000001</ele><time>2026-04-06T14:28:31Z</time></trkpt><trkpt lat="44.71232019201955" lon="9.303935646542666"><ele>791.4000000000001</ele><time>2026-04-06T14:28:32Z</time></trkpt><trkpt lat="44.71239773059373" lon="9.303985378979167"><ele>792.0</ele><time>2026-04-06T14:28:33Z</time></trkpt><trkpt lat="44.71246088160073" lon="9.304082414485814"><ele>792.0</ele><time>2026-04-06T14:28:34Z</time></trkpt><trkpt lat="44.71249409556226" lon="9.304199979087635"><ele>792.0</ele><time>2026-04-06T14:28:35Z</time></trkpt><trkpt lat="44.71254581611159" lon="9.304313404038222"><ele>792.0</ele><time>2026-04-06T14:28:36Z</time></trkpt><trkpt lat="44.71257648073248" lon="9.304438833893942"><ele>792.0</ele><time>2026-04-06T14:28:37Z</time></trkpt><trkpt lat="44.71262885821941" lon="9.30454159409971"><ele>792.0</ele><time>2026-04-06T14:28:38Z</time></trkpt><trkpt lat="44.71271242109968" lon="9.304593370569577"><ele>793.0</ele><time>2026-04-06T14:28:39Z</time></trkpt><trkpt lat="44.71279883166201" lon="9.304621222314482"><ele>794.0</ele><time>2026-04-06T14:28:40Z</time></trkpt><trkpt lat="44.71288923772828" lon="9.304615838812861"><ele>795.0</ele><time>2026-04-06T14:28:41Z</time></trkpt><trkpt lat="44.7129884394636" lon="9.304571056632694"><ele>796.0</ele><time>2026-04-06T14:28:42Z</time></trkpt><trkpt lat="44.71310241938658" lon="9.304496879108122"><ele>797.0</ele><time>2026-04-06T14:28:43Z</time></trkpt><trkpt lat="44.71324403716588" lon="9.30438616422858"><ele>797.0</ele><time>2026-04-06T14:28:44Z</time></trkpt><trkpt lat="44.71340095651224" lon="9.304278795500828"><ele>797.0</ele><time>2026-04-06T14:28:45Z</time></trkpt><trkpt lat="44.71352754326976" lon="9.304194403973096"><ele>797.0</ele><time>2026-04-06T14:28:46Z</time></trkpt><trkpt lat="44.7136327179274" lon="9.30409929075598"><ele>797.0</ele><time>2026-04-06T14:28:47Z</time></trkpt><trkpt lat="44.71373060172288" lon="9.30399660313741"><ele>797.5</ele><time>2026-04-06T14:28:48Z</time></trkpt><trkpt lat="44.71380124351087" lon="9.303840191295862"><ele>798.0</ele><time>2026-04-06T14:28:49Z</time></trkpt><trkpt lat="44.713877036049176" lon="9.30368644573956"><ele>798.5</ele><time>2026-04-06T14:28:50Z</time></trkpt><trkpt lat="44.71394975304178" lon="9.30355622405935"><ele>799.0</ele><time>2026-04-06T14:28:51Z</time></trkpt><trkpt lat="44.714028673317166" lon="9.303449495261216"><ele>799.0</ele><time>2026-04-06T14:28:52Z</time></trkpt><trkpt lat="44.7141261562058" lon="9.30338836800133"><ele>799.0</ele><time>2026-04-06T14:28:53Z</time></trkpt><trkpt lat="44.71422286794603" lon="9.30338577939795"><ele>799.0</ele><time>2026-04-06T14:28:54Z</time></trkpt><trkpt lat="44.714310239057056" lon="9.30342937626348"><ele>799.0</ele><time>2026-04-06T14:28:55Z</time></trkpt><trkpt lat="44.71442623070483" lon="9.303489651559136"><ele>799.0</ele><time>2026-04-06T14:28:56Z</time></trkpt><trkpt lat="44.714536241907176" lon="9.30357174969157"><ele>798.8000000000001</ele><time>2026-04-06T14:28:57Z</time></trkpt><trkpt lat="44.71460665753588" lon="9.303669600126074"><ele>798.6</ele><time>2026-04-06T14:28:58Z</time></trkpt><trkpt lat="44.7146606802257" lon="9.303788408364325"><ele>798.4</ele><time>2026-04-06T14:28:59Z</time></trkpt><trkpt lat="44.71467475722552" lon="9.303915958603017"><ele>798.2</ele><time>2026-04-06T14:29:00Z</time></trkpt><trkpt lat="44.71469052664363" lon="9.304081278608768"><ele>798.0</ele><time>2026-04-06T14:29:01Z</time></trkpt><trkpt lat="44.71471467902036" lon="9.304281514446236"><ele>798.0</ele><time>2026-04-06T14:29:02Z</time></trkpt><trkpt lat="44.71476564429691" lon="9.304453253446527"><ele>798.0</ele><time>2026-04-06T14:29:03Z</time></trkpt><trkpt lat="44.714814787073685" lon="9.304605386008141"><ele>798.0</ele><time>2026-04-06T14:29:04Z</time></trkpt><trkpt lat="44.7148662629334" lon="9.304743935711887"><ele>798.0</ele><time>2026-04-06T14:29:05Z</time></trkpt><trkpt lat="44.71494169874188" lon="9.304879316302035"><ele>799.4</ele><time>2026-04-06T14:29:06Z</time></trkpt><trkpt lat="44.715018864567156" lon="9.304994932884808"><ele>800.8</ele><time>2026-04-06T14:29:07Z</time></trkpt><trkpt lat="44.71509424518367" lon="9.30509121895024"><ele>802.2</ele><time>2026-04-06T14:29:08Z</time></trkpt><trkpt lat="44.71517723594508" lon="9.305172408300328"><ele>803.6</ele><time>2026-04-06T14:29:09Z</time></trkpt><trkpt lat="44.715269366858756" lon="9.305228081839669"><ele>805.0</ele><time>2026-04-06T14:29:10Z</time></trkpt><trkpt lat="44.71537340732487" lon="9.305275652081384"><ele>805.0</ele><time>2026-04-06T14:29:11Z</time></trkpt><trkpt lat="44.715488123240426" lon="9.305289392280063"><ele>805.0</ele><time>2026-04-06T14:29:12Z</time></trkpt><trkpt lat="44.715626603165624" lon="9.305288292237684"><ele>805.0</ele><time>2026-04-06T14:29:13Z</time></trkpt><trkpt lat="44.71577181284455" lon="9.305277851877646"><ele>805.0</ele><time>2026-04-06T14:29:14Z</time></trkpt><trkpt lat="44.7158942951164" lon="9.30526603942371"><ele>805.0</ele><time>2026-04-06T14:29:15Z</time></trkpt><trkpt lat="44.715988608400664" lon="9.305253274211825"><ele>805.0</ele><time>2026-04-06T14:29:16Z</time></trkpt><trkpt lat="44.71607303179682" lon="9.305201596680645"><ele>805.0</ele><time>2026-04-06T14:29:17Z</time></trkpt><trkpt lat="44.71613071702767" lon="9.30508580912217"><ele>805.0</ele><time>2026-04-06T14:29:18Z</time></trkpt><trkpt lat="44.71617817487781" lon="9.30496288240892"><ele>805.0</ele><time>2026-04-06T14:29:19Z</time></trkpt><trkpt lat="44.71620483594085" lon="9.304804694279811"><ele>807.0</ele><time>2026-04-06T14:29:20Z</time></trkpt><trkpt lat="44.71623174012594" lon="9.30464172732936"><ele>809.0</ele><time>2026-04-06T14:29:21Z</time></trkpt><trkpt lat="44.716322934059974" lon="9.30450622359858"><ele>811.0</ele><time>2026-04-06T14:29:22Z</time></trkpt><trkpt lat="44.716425354116645" lon="9.304376182330124"><ele>813.0</ele><time>2026-04-06T14:29:23Z</time></trkpt><trkpt lat="44.71654622995764" lon="9.304226684607288"><ele>813.0</ele><time>2026-04-06T14:29:24Z</time></trkpt><trkpt lat="44.71663535512724" lon="9.30407309785625"><ele>813.0</ele><time>2026-04-06T14:29:25Z</time></trkpt><trkpt lat="44.71671041066947" lon="9.30390835040276"><ele>813.0</ele><time>2026-04-06T14:29:26Z</time></trkpt><trkpt lat="44.71675938336634" lon="9.303726030228024"><ele>813.0</ele><time>2026-04-06T14:29:27Z</time></trkpt><trkpt lat="44.71678454086698" lon="9.303556397964368"><ele>812.2</ele><time>2026-04-06T14:29:28Z</time></trkpt><trkpt lat="44.71684319481803" lon="9.303431547005296"><ele>811.4</ele><time>2026-04-06T14:29:29Z</time></trkpt><trkpt lat="44.716925396794664" lon="9.303349178792423"><ele>810.6</ele><time>2026-04-06T14:29:30Z</time></trkpt><trkpt lat="44.717024810255715" lon="9.303287879264408"><ele>809.8000000000001</ele><time>2026-04-06T14:29:31Z</time></trkpt><trkpt lat="44.7171322154492" lon="9.303270872217418"><ele>809.0</ele><time>2026-04-06T14:29:32Z</time></trkpt><trkpt lat="44.71725184031555" lon="9.303285214922209"><ele>809.0</ele><time>2026-04-06T14:29:33Z</time></trkpt><trkpt lat="44.717374566610864" lon="9.303340325681337"><ele>809.0</ele><time>2026-04-06T14:29:34Z</time></trkpt><trkpt lat="44.71748924060132" lon="9.303434612706093"><ele>809.0</ele><time>2026-04-06T14:29:35Z</time></trkpt><trkpt lat="44.71757414442412" lon="9.303549353889963"><ele>809.0</ele><time>2026-04-06T14:29:36Z</time></trkpt><trkpt lat="44.717668667329264" lon="9.303665821428064"><ele>809.4000000000001</ele><time>2026-04-06T14:29:37Z</time></trkpt><trkpt lat="44.71774828874523" lon="9.303765037072418"><ele>809.8</ele><time>2026-04-06T14:29:38Z</time></trkpt><trkpt lat="44.717828163067814" lon="9.303808906103306"><ele>810.2</ele><time>2026-04-06T14:29:39Z</time></trkpt><trkpt lat="44.71792807210468" lon="9.303810860155458"><ele>810.5999999999999</ele><time>2026-04-06T14:29:40Z</time></trkpt><trkpt lat="44.718051305034145" lon="9.303792777276119"><ele>811.0</ele><time>2026-04-06T14:29:41Z</time></trkpt><trkpt lat="44.718196266112805" lon="9.303757356187772"><ele>811.0</ele><time>2026-04-06T14:29:42Z</time></trkpt><trkpt lat="44.71837235982537" lon="9.303727611572043"><ele>811.0</ele><time>2026-04-06T14:29:43Z</time></trkpt><trkpt lat="44.718547570402514" lon="9.303699431407722"><ele>811.0</ele><time>2026-04-06T14:29:44Z</time></trkpt><trkpt lat="44.71869278338044" lon="9.303672610717069"><ele>811.75</ele><time>2026-04-06T14:29:45Z</time></trkpt><trkpt lat="44.718815608473264" lon="9.303673864258757"><ele>812.5</ele><time>2026-04-06T14:29:46Z</time></trkpt><trkpt lat="44.71891865136788" lon="9.303690803780825"><ele>813.25</ele><time>2026-04-06T14:29:47Z</time></trkpt><trkpt lat="44.71902027715033" lon="9.303775757757293"><ele>814.0</ele><time>2026-04-06T14:29:48Z</time></trkpt><trkpt lat="44.719144009692116" lon="9.303878757598167"><ele>811.75</ele><time>2026-04-06T14:29:49Z</time></trkpt><trkpt lat="44.71927440791887" lon="9.30398720722115"><ele>809.5</ele><time>2026-04-06T14:29:50Z</time></trkpt><trkpt lat="44.71937866942455" lon="9.304079822477789"><ele>807.25</ele><time>2026-04-06T14:29:51Z</time></trkpt><trkpt lat="44.71945870808752" lon="9.30414223445518"><ele>805.0</ele><time>2026-04-06T14:29:52Z</time></trkpt><trkpt lat="44.71952283040933" lon="9.30423024381513"><ele>805.0</ele><time>2026-04-06T14:29:53Z</time></trkpt><trkpt lat="44.71957597942581" lon="9.304358089125405"><ele>805.0</ele><time>2026-04-06T14:29:54Z</time></trkpt><trkpt lat="44.719605422963205" lon="9.304512274473357"><ele>805.0</ele><time>2026-04-06T14:29:55Z</time></trkpt><trkpt lat="44.71957808909455" lon="9.304687574150662"><ele>805.0</ele><time>2026-04-06T14:29:56Z</time></trkpt><trkpt lat="44.7195698904987" lon="9.304903371702979"><ele>807.75</ele><time>2026-04-06T14:29:57Z</time></trkpt><trkpt lat="44.719549214007365" lon="9.305147825626227"><ele>810.5</ele><time>2026-04-06T14:29:58Z</time></trkpt><trkpt lat="44.71953742626717" lon="9.305351474392756"><ele>813.25</ele><time>2026-04-06T14:29:59Z</time></trkpt><trkpt lat="44.71953456906067" lon="9.305504249070905"><ele>816.0</ele><time>2026-04-06T14:30:00Z</time></trkpt><trkpt lat="44.71955153764578" lon="9.305633388655371"><ele>819.1999999999999</ele><time>2026-04-06T14:30:01Z</time></trkpt><trkpt lat="44.71958846218954" lon="9.305747119340449"><ele>822.4</ele><time>2026-04-06T14:30:02Z</time></trkpt><trkpt lat="44.71964243957755" lon="9.305839010881975"><ele>825.6</ele><time>2026-04-06T14:30:03Z</time></trkpt><trkpt lat="44.71972011814089" lon="9.305923558334603"><ele>828.8</ele><time>2026-04-06T14:30:04Z</time></trkpt><trkpt lat="44.71983382348415" lon="9.306011140090046"><ele>832.0</ele><time>2026-04-06T14:30:05Z</time></trkpt><trkpt lat="44.71996265206" lon="9.306087289083441"><ele>832.0</ele><time>2026-04-06T14:30:06Z</time></trkpt><trkpt lat="44.72004610312329" lon="9.306190451063655"><ele>832.0</ele><time>2026-04-06T14:30:07Z</time></trkpt><trkpt lat="44.72010322005171" lon="9.306309367698182"><ele>832.0</ele><time>2026-04-06T14:30:08Z</time></trkpt><trkpt lat="44.720142354103515" lon="9.30646760182981"><ele>832.0</ele><time>2026-04-06T14:30:09Z</time></trkpt><trkpt lat="44.72016243009093" lon="9.306642072862678"><ele>834.3333333333333</ele><time>2026-04-06T14:30:10Z</time></trkpt><trkpt lat="44.72020095367376" lon="9.306770982227006"><ele>836.6666666666666</ele><time>2026-04-06T14:30:11Z</time></trkpt><trkpt lat="44.72022632636737" lon="9.30687258968533"><ele>839.0</ele><time>2026-04-06T14:30:12Z</time></trkpt><trkpt lat="44.720261830433294" lon="9.306959653232493"><ele>841.3333333333333</ele><time>2026-04-06T14:30:13Z</time></trkpt><trkpt lat="44.72033595262052" lon="9.307035334817503"><ele>843.6666666666666</ele><time>2026-04-06T14:30:14Z</time></trkpt><trkpt lat="44.720423567755276" lon="9.307058652044688"><ele>846.0</ele><time>2026-04-06T14:30:15Z</time></trkpt><trkpt lat="44.72051743511567" lon="9.307039899399447"><ele>846.0</ele><time>2026-04-06T14:30:16Z</time></trkpt><trkpt lat="44.72062112661027" lon="9.306972207960348"><ele>846.0</ele><time>2026-04-06T14:30:17Z</time></trkpt><trkpt lat="44.72075207722342" lon="9.306854209229735"><ele>846.0</ele><time>2026-04-06T14:30:18Z</time></trkpt><trkpt lat="44.720921884174025" lon="9.306707733965215"><ele>847.6666666666667</ele><time>2026-04-06T14:30:19Z</time></trkpt><trkpt lat="44.721101086290645" lon="9.306576657225103"><ele>849.3333333333334</ele><time>2026-04-06T14:30:20Z</time></trkpt><trkpt lat="44.72124589181495" lon="9.3064691367739"><ele>851.0</ele><time>2026-04-06T14:30:21Z</time></trkpt><trkpt lat="44.72135445392796" lon="9.306354186336595"><ele>851.0</ele><time>2026-04-06T14:30:22Z</time></trkpt><trkpt lat="44.7214404778987" lon="9.306209452240786"><ele>851.0</ele><time>2026-04-06T14:30:23Z</time></trkpt><trkpt lat="44.72149752888958" lon="9.30605320368531"><ele>851.0</ele><time>2026-04-06T14:30:24Z</time></trkpt><trkpt lat="44.72154224452164" lon="9.305907720429005"><ele>851.0</ele><time>2026-04-06T14:30:25Z</time></trkpt><trkpt lat="44.72160196597663" lon="9.305817538347576"><ele>851.0</ele><time>2026-04-06T14:30:26Z</time></trkpt><trkpt lat="44.721698167924224" lon="9.305822173272007"><ele>851.0</ele><time>2026-04-06T14:30:27Z</time></trkpt><trkpt lat="44.72178964209459" lon="9.305857566738482"><ele>851.0</ele><time>2026-04-06T14:30:28Z</time></trkpt><trkpt lat="44.721916362224945" lon="9.305904044408475"><ele>851.0</ele><time>2026-04-06T14:30:29Z</time></trkpt><trkpt lat="44.72207624099901" lon="9.305963208799046"><ele>850.75</ele><time>2026-04-06T14:30:30Z</time></trkpt><trkpt lat="44.72221123216504" lon="9.30599697200927"><ele>850.5</ele><time>2026-04-06T14:30:31Z</time></trkpt><trkpt lat="44.72230725999815" lon="9.306047735766724"><ele>850.25</ele><time>2026-04-06T14:30:32Z</time></trkpt><trkpt lat="44.72237237022002" lon="9.306150664734842"><ele>850.0</ele><time>2026-04-06T14:30:33Z</time></trkpt><trkpt lat="44.72244998416667" lon="9.306273522875268"><ele>853.5</ele><time>2026-04-06T14:30:34Z</time></trkpt><trkpt lat="44.72252377209109" lon="9.306434509908504"><ele>857.0</ele><time>2026-04-06T14:30:35Z</time></trkpt><trkpt lat="44.722593879296674" lon="9.306621860438112"><ele>860.5</ele><time>2026-04-06T14:30:36Z</time></trkpt><trkpt lat="44.722640357743366" lon="9.306784556828529"><ele>864.0</ele><time>2026-04-06T14:30:37Z</time></trkpt><trkpt lat="44.722637496698006" lon="9.306937388681355"><ele>864.0</ele><time>2026-04-06T14:30:38Z</time></trkpt><trkpt lat="44.7226454801694" lon="9.307122938959978"><ele>864.0</ele><time>2026-04-06T14:30:39Z</time></trkpt><trkpt lat="44.72262744214038" lon="9.307340912511702"><ele>864.0</ele><time>2026-04-06T14:30:40Z</time></trkpt><trkpt lat="44.722617563103434" lon="9.307581111865"><ele>867.6666666666667</ele><time>2026-04-06T14:30:41Z</time></trkpt><trkpt lat="44.72260939857108" lon="9.30785015683792"><ele>871.3333333333334</ele><time>2026-04-06T14:30:42Z</time></trkpt><trkpt lat="44.72259852316092" lon="9.308106498541324"><ele>875.0</ele><time>2026-04-06T14:30:43Z</time></trkpt><trkpt lat="44.722597890432425" lon="9.308306474658671"><ele>875.8</ele><time>2026-04-06T14:30:44Z</time></trkpt><trkpt lat="44.72259070017377" lon="9.308467578907006"><ele>876.6</ele><time>2026-04-06T14:30:45Z</time></trkpt><trkpt lat="44.72259407764732" lon="9.308589318212613"><ele>877.4000000000001</ele><time>2026-04-06T14:30:46Z</time></trkpt><trkpt lat="44.72261922073704" lon="9.308695700260628"><ele>878.2</ele><time>2026-04-06T14:30:47Z</time></trkpt><trkpt lat="44.72267785450794" lon="9.308775555366546"><ele>879.0</ele><time>2026-04-06T14:30:48Z</time></trkpt><trkpt lat="44.72277405796263" lon="9.308839217397255"><ele>878.0</ele><time>2026-04-06T14:30:49Z</time></trkpt><trkpt lat="44.72289656827637" lon="9.308877268049685"><ele>877.0000000000001</ele><time>2026-04-06T14:30:50Z</time></trkpt><trkpt lat="44.72298806901732" lon="9.30891762747092"><ele>876.0000000000001</ele><time>2026-04-06T14:30:51Z</time></trkpt><trkpt lat="44.723029467587395" lon="9.309038992489791"><ele>875.0</ele><time>2026-04-06T14:30:52Z</time></trkpt><trkpt lat="44.7230599570529" lon="9.309191649950945"><ele>874.0</ele><time>2026-04-06T14:30:53Z</time></trkpt><trkpt lat="44.72310355127804" lon="9.309355049166514"><ele>874.0</ele><time>2026-04-06T14:30:54Z</time></trkpt><trkpt lat="44.72311585813582" lon="9.309505608093438"><ele>874.0000000000001</ele><time>2026-04-06T14:30:55Z</time></trkpt><trkpt lat="44.72315238956883" lon="9.309622537095004"><ele>874.0000000000001</ele><time>2026-04-06T14:30:56Z</time></trkpt><trkpt lat="44.723218092999026" lon="9.30969910322719"><ele>874.0</ele><time>2026-04-06T14:30:57Z</time></trkpt><trkpt lat="44.72330345851871" lon="9.309738639111107"><ele>874.0</ele><time>2026-04-06T14:30:58Z</time></trkpt><trkpt lat="44.72340143002997" lon="9.309742526187993"><ele>874.0</ele><time>2026-04-06T14:30:59Z</time></trkpt><trkpt lat="44.723500207782195" lon="9.309700495532224"><ele>874.0</ele><time>2026-04-06T14:31:00Z</time></trkpt><trkpt lat="44.72360768632596" lon="9.309648599046753"><ele>874.0</ele><time>2026-04-06T14:31:01Z</time></trkpt><trkpt lat="44.723730978457056" lon="9.309608912284697"><ele>874.0</ele><time>2026-04-06T14:31:02Z</time></trkpt><trkpt lat="44.72385859479167" lon="9.30958730211396"><ele>875.2</ele><time>2026-04-06T14:31:03Z</time></trkpt><trkpt lat="44.72395764749155" lon="9.309603084461887"><ele>876.4000000000001</ele><time>2026-04-06T14:31:04Z</time></trkpt><trkpt lat="44.724036426360605" lon="9.309629022466329"><ele>877.6</ele><time>2026-04-06T14:31:05Z</time></trkpt><trkpt lat="44.72412129244068" lon="9.309687900756611"><ele>878.8</ele><time>2026-04-06T14:31:06Z</time></trkpt><trkpt lat="44.72421481272955" lon="9.309778363136227"><ele>880.0</ele><time>2026-04-06T14:31:07Z</time></trkpt><trkpt lat="44.72432847275378" lon="9.309891242989844"><ele>883.0</ele><time>2026-04-06T14:31:08Z</time></trkpt><trkpt lat="44.72443646562877" lon="9.309996567833947"><ele>886.0</ele><time>2026-04-06T14:31:09Z</time></trkpt><trkpt lat="44.72453336663485" lon="9.310050025508776"><ele>889.0</ele><time>2026-04-06T14:31:10Z</time></trkpt><trkpt lat="44.7246130561015" lon="9.310078851255797"><ele>892.0</ele><time>2026-04-06T14:31:11Z</time></trkpt><trkpt lat="44.72470517323636" lon="9.310065286067731"><ele>895.0</ele><time>2026-04-06T14:31:12Z</time></trkpt><trkpt lat="44.72480920827048" lon="9.310009075947558"><ele>895.0</ele><time>2026-04-06T14:31:13Z</time></trkpt><trkpt lat="44.72492222730717" lon="9.309912695384737"><ele>895.0</ele><time>2026-04-06T14:31:14Z</time></trkpt><trkpt lat="44.72505129313382" lon="9.309786370312871"><ele>895.0</ele><time>2026-04-06T14:31:15Z</time></trkpt><trkpt lat="44.725200751547256" lon="9.309640191376822"><ele>894.25</ele><time>2026-04-06T14:31:16Z</time></trkpt><trkpt lat="44.7253435680384" lon="9.309507603324468"><ele>893.5</ele><time>2026-04-06T14:31:17Z</time></trkpt><trkpt lat="44.725463997710584" lon="9.309410434858393"><ele>892.75</ele><time>2026-04-06T14:31:18Z</time></trkpt><trkpt lat="44.725577076414154" lon="9.309367972306774"><ele>892.0</ele><time>2026-04-06T14:31:19Z</time></trkpt><trkpt lat="44.72565801653363" lon="9.309253608741896"><ele>892.0</ele><time>2026-04-06T14:31:20Z</time></trkpt><trkpt lat="44.725821587191874" lon="9.309339249982058"><ele>892.0</ele><time>2026-04-06T14:31:21Z</time></trkpt><trkpt lat="44.72598625075456" lon="9.309372681460973"><ele>892.0</ele><time>2026-04-06T14:31:22Z</time></trkpt><trkpt lat="44.7261339849124" lon="9.30937748747012"><ele>894.0</ele><time>2026-04-06T14:31:23Z</time></trkpt><trkpt lat="44.72625434586926" lon="9.309358826276272"><ele>896.0</ele><time>2026-04-06T14:31:24Z</time></trkpt><trkpt lat="44.72635634455223" lon="9.30928494758673"><ele>898.0</ele><time>2026-04-06T14:31:25Z</time></trkpt><trkpt lat="44.72645423489208" lon="9.30917951991024"><ele>900.0</ele><time>2026-04-06T14:31:26Z</time></trkpt><trkpt lat="44.72653701327061" lon="9.309030006702068"><ele>898.25</ele><time>2026-04-06T14:31:27Z</time></trkpt><trkpt lat="44.72661373526284" lon="9.308892018932958"><ele>896.5</ele><time>2026-04-06T14:31:28Z</time></trkpt><trkpt lat="44.72671184021236" lon="9.30880142598905"><ele>894.75</ele><time>2026-04-06T14:31:29Z</time></trkpt><trkpt lat="44.72683413362127" lon="9.308738725470135"><ele>893.0</ele><time>2026-04-06T14:31:30Z</time></trkpt><trkpt lat="44.72696692687237" lon="9.308698674805752"><ele>893.0</ele><time>2026-04-06T14:31:31Z</time></trkpt><trkpt lat="44.72708695485209" lon="9.308703352372385"><ele>893.0</ele><time>2026-04-06T14:31:32Z</time></trkpt><trkpt lat="44.727200496525505" lon="9.308671571840332"><ele>893.0</ele><time>2026-04-06T14:31:33Z</time></trkpt><trkpt lat="44.72731298517633" lon="9.308661695144277"><ele>893.0</ele><time>2026-04-06T14:31:34Z</time></trkpt><trkpt lat="44.72742872365838" lon="9.308664532314964"><ele>893.0</ele><time>2026-04-06T14:31:35Z</time></trkpt><trkpt lat="44.727550518457406" lon="9.308687806660785"><ele>893.0</ele><time>2026-04-06T14:31:36Z</time></trkpt><trkpt lat="44.72767636384101" lon="9.308749169187383"><ele>893.0</ele><time>2026-04-06T14:31:37Z</time></trkpt><trkpt lat="44.72781114413715" lon="9.308830239518194"><ele>893.0</ele><time>2026-04-06T14:31:38Z</time></trkpt><trkpt lat="44.727962401497216" lon="9.30892446659266"><ele>895.25</ele><time>2026-04-06T14:31:39Z</time></trkpt><trkpt lat="44.728131805302006" lon="9.309026684936322"><ele>897.5</ele><time>2026-04-06T14:31:40Z</time></trkpt><trkpt lat="44.72827921510866" lon="9.309109442252137"><ele>899.75</ele><time>2026-04-06T14:31:41Z</time></trkpt><trkpt lat="44.72835872360227" lon="9.309161892575903"><ele>902.0</ele><time>2026-04-06T14:31:42Z</time></trkpt><trkpt lat="44.72847878879032" lon="9.309226862585804"><ele>902.0</ele><time>2026-04-06T14:31:44Z</time></trkpt><trkpt lat="44.728554444393446" lon="9.309264908195633"><ele>902.0</ele><time>2026-04-06T14:31:45Z</time></trkpt><trkpt lat="44.72863734755497" lon="9.309307220600749"><ele>902.0</ele><time>2026-04-06T14:31:46Z</time></trkpt><trkpt lat="44.7287333099382" lon="9.309360984192208"><ele>902.0</ele><time>2026-04-06T14:31:47Z</time></trkpt><trkpt lat="44.72884690046365" lon="9.30942410476871"><ele>902.0</ele><time>2026-04-06T14:31:48Z</time></trkpt><trkpt lat="44.72898132004752" lon="9.309488380491723"><ele>902.3333333333334</ele><time>2026-04-06T14:31:49Z</time></trkpt><trkpt lat="44.72912599768783" lon="9.30955497844189"><ele>902.6666666666667</ele><time>2026-04-06T14:31:50Z</time></trkpt><trkpt lat="44.729267278482965" lon="9.30965251718037"><ele>903.0</ele><time>2026-04-06T14:31:51Z</time></trkpt><trkpt lat="44.72938470411489" lon="9.309782575711878"><ele>905.0</ele><time>2026-04-06T14:31:52Z</time></trkpt><trkpt lat="44.729493295677315" lon="9.309905654580817"><ele>907.0</ele><time>2026-04-06T14:31:53Z</time></trkpt><trkpt lat="44.72966034065476" lon="9.309987497748184"><ele>909.0</ele><time>2026-04-06T14:31:54Z</time></trkpt><trkpt lat="44.729810956470004" lon="9.310060392003802"><ele>909.0</ele><time>2026-04-06T14:31:55Z</time></trkpt><trkpt lat="44.72997125269553" lon="9.310113542620076"><ele>909.0</ele><time>2026-04-06T14:31:56Z</time></trkpt><trkpt lat="44.73013724970964" lon="9.31016257352924"><ele>909.0</ele><time>2026-04-06T14:31:57Z</time></trkpt><trkpt lat="44.730314942307906" lon="9.310204216348632"><ele>910.6666666666667</ele><time>2026-04-06T14:31:58Z</time></trkpt><trkpt lat="44.73050101796943" lon="9.310244996208972"><ele>912.3333333333334</ele><time>2026-04-06T14:31:59Z</time></trkpt><trkpt lat="44.73069910435986" lon="9.31027405573662"><ele>914.0</ele><time>2026-04-06T14:32:00Z</time></trkpt><trkpt lat="44.73090726199957" lon="9.31030274900802"><ele>913.0</ele><time>2026-04-06T14:32:01Z</time></trkpt><trkpt lat="44.73112211131438" lon="9.310335519571796"><ele>912.0</ele><time>2026-04-06T14:32:02Z</time></trkpt><trkpt lat="44.73133740259529" lon="9.310380514212977"><ele>911.0</ele><time>2026-04-06T14:32:03Z</time></trkpt><trkpt lat="44.731538890207005" lon="9.310420554436876"><ele>911.0</ele><time>2026-04-06T14:32:04Z</time></trkpt><trkpt lat="44.73171945530121" lon="9.310458276126916"><ele>911.0</ele><time>2026-04-06T14:32:05Z</time></trkpt><trkpt lat="44.731888492194756" lon="9.310489994205227"><ele>911.0</ele><time>2026-04-06T14:32:06Z</time></trkpt><trkpt lat="44.732044751153914" lon="9.310514858163762"><ele>911.5</ele><time>2026-04-06T14:32:07Z</time></trkpt><trkpt lat="44.73219419604625" lon="9.310539285587371"><ele>912.0</ele><time>2026-04-06T14:32:08Z</time></trkpt><trkpt lat="44.73233956416565" lon="9.310566142575343"><ele>912.5</ele><time>2026-04-06T14:32:09Z</time></trkpt><trkpt lat="44.732468131748746" lon="9.310591759514466"><ele>913.0</ele><time>2026-04-06T14:32:10Z</time></trkpt><trkpt lat="44.73259574469275" lon="9.310591162223915"><ele>913.0</ele><time>2026-04-06T14:32:11Z</time></trkpt><trkpt lat="44.7327218317677" lon="9.310549784334853"><ele>913.0</ele><time>2026-04-06T14:32:12Z</time></trkpt><trkpt lat="44.732868110628786" lon="9.310476551626202"><ele>913.0</ele><time>2026-04-06T14:32:13Z</time></trkpt><trkpt lat="44.733033316801496" lon="9.310392613022264"><ele>913.0</ele><time>2026-04-06T14:32:14Z</time></trkpt><trkpt lat="44.733200022868864" lon="9.310310535077114"><ele>913.0</ele><time>2026-04-06T14:32:15Z</time></trkpt><trkpt lat="44.733338398503655" lon="9.31023823110394"><ele>913.0</ele><time>2026-04-06T14:32:16Z</time></trkpt><trkpt lat="44.73345303154312" lon="9.310202791989678"><ele>913.0</ele><time>2026-04-06T14:32:17Z</time></trkpt><trkpt lat="44.73355591252451" lon="9.310165123674638"><ele>913.0</ele><time>2026-04-06T14:32:18Z</time></trkpt><trkpt lat="44.73364777852541" lon="9.310156806365885"><ele>913.0</ele><time>2026-04-06T14:32:19Z</time></trkpt><trkpt lat="44.73373445009963" lon="9.310188562925314"><ele>913.0</ele><time>2026-04-06T14:32:20Z</time></trkpt><trkpt lat="44.73381322635962" lon="9.310275639598025"><ele>913.0</ele><time>2026-04-06T14:32:21Z</time></trkpt><trkpt lat="44.733899045647355" lon="9.310399257883105"><ele>913.0</ele><time>2026-04-06T14:32:22Z</time></trkpt><trkpt lat="44.73398893100567" lon="9.310508575083738"><ele>914.0</ele><time>2026-04-06T14:32:23Z</time></trkpt><trkpt lat="44.734051934410026" lon="9.310604013384172"><ele>915.0</ele><time>2026-04-06T14:32:24Z</time></trkpt><trkpt lat="44.73412552250486" lon="9.310674152136103"><ele>916.0</ele><time>2026-04-06T14:32:25Z</time></trkpt><trkpt lat="44.7342173834179" lon="9.310701256325016"><ele>917.0</ele><time>2026-04-06T14:32:26Z</time></trkpt><trkpt lat="44.734311798289305" lon="9.310666575303502"><ele>918.0</ele><time>2026-04-06T14:32:27Z</time></trkpt><trkpt lat="44.73442150750705" lon="9.310593194937706"><ele>918.4</ele><time>2026-04-06T14:32:28Z</time></trkpt><trkpt lat="44.734525536040806" lon="9.310501225506327"><ele>918.8</ele><time>2026-04-06T14:32:29Z</time></trkpt><trkpt lat="44.734621369910364" lon="9.310422970588789"><ele>919.2</ele><time>2026-04-06T14:32:30Z</time></trkpt><trkpt lat="44.734704943360235" lon="9.310347302231191"><ele>919.6</ele><time>2026-04-06T14:32:31Z</time></trkpt><trkpt lat="44.73476748405291" lon="9.310259517120842"><ele>920.0</ele><time>2026-04-06T14:32:32Z</time></trkpt><trkpt lat="44.73480057092119" lon="9.310141318602088"><ele>920.0</ele><time>2026-04-06T14:32:33Z</time></trkpt><trkpt lat="44.7348135137663" lon="9.309994443161958"><ele>920.0</ele><time>2026-04-06T14:32:34Z</time></trkpt><trkpt lat="44.734801619521186" lon="9.309839120288038"><ele>920.0</ele><time>2026-04-06T14:32:35Z</time></trkpt><trkpt lat="44.73477321302527" lon="9.309688640651725"><ele>920.0</ele><time>2026-04-06T14:32:36Z</time></trkpt><trkpt lat="44.73475850657237" lon="9.309544547709574"><ele>920.0</ele><time>2026-04-06T14:32:37Z</time></trkpt><trkpt lat="44.73479823866115" lon="9.30942246005022"><ele>920.2</ele><time>2026-04-06T14:32:38Z</time></trkpt><trkpt lat="44.73483306225316" lon="9.309292928741561"><ele>920.4</ele><time>2026-04-06T14:32:39Z</time></trkpt><trkpt lat="44.73489987090487" lon="9.309190169683339"><ele>920.5999999999999</ele><time>2026-04-06T14:32:40Z</time></trkpt><trkpt lat="44.734970313264085" lon="9.30908150475858"><ele>920.8</ele><time>2026-04-06T14:32:41Z</time></trkpt><trkpt lat="44.7350672078175" lon="9.309026172558521"><ele>921.0</ele><time>2026-04-06T14:32:42Z</time></trkpt><trkpt lat="44.735160166200885" lon="9.308954747202069"><ele>920.8</ele><time>2026-04-06T14:32:43Z</time></trkpt><trkpt lat="44.7352423555352" lon="9.308890411248692"><ele>920.5999999999999</ele><time>2026-04-06T14:32:44Z</time></trkpt><trkpt lat="44.7353201710804" lon="9.308825722552378"><ele>920.4</ele><time>2026-04-06T14:32:45Z</time></trkpt><trkpt lat="44.73538766288171" lon="9.308744374016044"><ele>920.2</ele><time>2026-04-06T14:32:46Z</time></trkpt><trkpt lat="44.73546765655305" lon="9.308669801833926"><ele>920.0</ele><time>2026-04-06T14:32:47Z</time></trkpt><trkpt lat="44.73554625550783" lon="9.30857800582914"><ele>920.0</ele><time>2026-04-06T14:32:48Z</time></trkpt><trkpt lat="44.73561934686796" lon="9.308459841637013"><ele>920.0</ele><time>2026-04-06T14:32:49Z</time></trkpt><trkpt lat="44.73566462491265" lon="9.308321854988135"><ele>920.0</ele><time>2026-04-06T14:32:50Z</time></trkpt><trkpt lat="44.73568471630395" lon="9.308162223712829"><ele>920.0</ele><time>2026-04-06T14:32:51Z</time></trkpt><trkpt lat="44.73568858448087" lon="9.307997452225944"><ele>919.6</ele><time>2026-04-06T14:32:52Z</time></trkpt><trkpt lat="44.73571436186775" lon="9.307846782193371"><ele>919.2</ele><time>2026-04-06T14:32:53Z</time></trkpt><trkpt lat="44.73573384745626" lon="9.307707338442063"><ele>918.8</ele><time>2026-04-06T14:32:54Z</time></trkpt><trkpt lat="44.73576772450182" lon="9.307586614922"><ele>918.4</ele><time>2026-04-06T14:32:55Z</time></trkpt><trkpt lat="44.7358284941754" lon="9.307478252616892"><ele>918.0</ele><time>2026-04-06T14:32:56Z</time></trkpt><trkpt lat="44.73590424524122" lon="9.307381844867761"><ele>918.0</ele><time>2026-04-06T14:32:57Z</time></trkpt><trkpt lat="44.73599720789089" lon="9.307311864416096"><ele>918.0</ele><time>2026-04-06T14:32:58Z</time></trkpt><trkpt lat="44.73609473656341" lon="9.307261178634343"><ele>918.0</ele><time>2026-04-06T14:32:59Z</time></trkpt><trkpt lat="44.736195648297745" lon="9.307213204387219"><ele>918.0</ele><time>2026-04-06T14:33:00Z</time></trkpt><trkpt lat="44.73630541500221" lon="9.307166846019575"><ele>918.0</ele><time>2026-04-06T14:33:01Z</time></trkpt><trkpt lat="44.736409714628806" lon="9.30712334927116"><ele>917.4</ele><time>2026-04-06T14:33:02Z</time></trkpt><trkpt lat="44.7365072832988" lon="9.307082911687228"><ele>916.8</ele><time>2026-04-06T14:33:03Z</time></trkpt><trkpt lat="44.736610249160044" lon="9.307041315564122"><ele>916.2</ele><time>2026-04-06T14:33:04Z</time></trkpt><trkpt lat="44.73672158724783" lon="9.306996337223737"><ele>915.6</ele><time>2026-04-06T14:33:05Z</time></trkpt><trkpt lat="44.73682855240783" lon="9.306932569660013"><ele>915.0</ele><time>2026-04-06T14:33:06Z</time></trkpt><trkpt lat="44.73695426137157" lon="9.306889273795148"><ele>916.75</ele><time>2026-04-06T14:33:07Z</time></trkpt><trkpt lat="44.73706696565505" lon="9.30685693340178"><ele>918.5</ele><time>2026-04-06T14:33:08Z</time></trkpt><trkpt lat="44.737188000248544" lon="9.306800374767347"><ele>920.25</ele><time>2026-04-06T14:33:09Z</time></trkpt><trkpt lat="44.73730386987644" lon="9.30676500764923"><ele>922.0</ele><time>2026-04-06T14:33:10Z</time></trkpt><trkpt lat="44.73742329211085" lon="9.306788553518764"><ele>922.0</ele><time>2026-04-06T14:33:11Z</time></trkpt><trkpt lat="44.73753571484009" lon="9.30676835892233"><ele>922.0</ele><time>2026-04-06T14:33:12Z</time></trkpt><trkpt lat="44.737635867005665" lon="9.306770104723775"><ele>922.0</ele><time>2026-04-06T14:33:13Z</time></trkpt><trkpt lat="44.73773592393892" lon="9.306747530806849"><ele>922.0</ele><time>2026-04-06T14:33:14Z</time></trkpt><trkpt lat="44.737823662418684" lon="9.306704451745123"><ele>922.0</ele><time>2026-04-06T14:33:15Z</time></trkpt><trkpt lat="44.73789192287835" lon="9.306629672316094"><ele>923.8</ele><time>2026-04-06T14:33:16Z</time></trkpt><trkpt lat="44.73796158893277" lon="9.306551037103416"><ele>925.6</ele><time>2026-04-06T14:33:17Z</time></trkpt><trkpt lat="44.73800677831626" lon="9.306423572376447"><ele>927.3999999999999</ele><time>2026-04-06T14:33:18Z</time></trkpt><trkpt lat="44.73800632878049" lon="9.306269176951936"><ele>929.1999999999999</ele><time>2026-04-06T14:33:19Z</time></trkpt><trkpt lat="44.738011052426764" lon="9.30610843701851"><ele>931.0</ele><time>2026-04-06T14:33:20Z</time></trkpt><trkpt lat="44.737995615881474" lon="9.305944543334615"><ele>931.0</ele><time>2026-04-06T14:33:21Z</time></trkpt><trkpt lat="44.73799288441095" lon="9.305780271770914"><ele>931.0</ele><time>2026-04-06T14:33:22Z</time></trkpt><trkpt lat="44.73799734632239" lon="9.305617473698575"><ele>931.0</ele><time>2026-04-06T14:33:23Z</time></trkpt><trkpt lat="44.73800530093476" lon="9.305454227169905"><ele>931.0</ele><time>2026-04-06T14:33:24Z</time></trkpt><trkpt lat="44.73802450488483" lon="9.30528016943591"><ele>930.0</ele><time>2026-04-06T14:33:25Z</time></trkpt><trkpt lat="44.73806089651363" lon="9.305079847073122"><ele>929.0</ele><time>2026-04-06T14:33:26Z</time></trkpt><trkpt lat="44.73811244261551" lon="9.30483736122915"><ele>928.0</ele><time>2026-04-06T14:33:27Z</time></trkpt><trkpt lat="44.73817522111657" lon="9.304559412176369"><ele>926.6666666666666</ele><time>2026-04-06T14:33:28Z</time></trkpt><trkpt lat="44.738238374964354" lon="9.304295883540519"><ele>925.3333333333333</ele><time>2026-04-06T14:33:29Z</time></trkpt><trkpt lat="44.7382781852755" lon="9.304066636492303"><ele>924.0</ele><time>2026-04-06T14:33:30Z</time></trkpt><trkpt lat="44.738318036449996" lon="9.303857912303775"><ele>924.0</ele><time>2026-04-06T14:33:31Z</time></trkpt><trkpt lat="44.73832616387177" lon="9.303652418665038"><ele>924.0</ele><time>2026-04-06T14:33:32Z</time></trkpt><trkpt lat="44.738317387036616" lon="9.303452335722469"><ele>924.0</ele><time>2026-04-06T14:33:33Z</time></trkpt><trkpt lat="44.73830941534266" lon="9.303259418666052"><ele>924.0</ele><time>2026-04-06T14:33:34Z</time></trkpt><trkpt lat="44.738300398692914" lon="9.303084091942956"><ele>925.75</ele><time>2026-04-06T14:33:35Z</time></trkpt><trkpt lat="44.738261124815985" lon="9.302916969370035"><ele>927.5</ele><time>2026-04-06T14:33:36Z</time></trkpt><trkpt lat="44.73818952193925" lon="9.302759190764196"><ele>929.25</ele><time>2026-04-06T14:33:37Z</time></trkpt><trkpt lat="44.73809808887439" lon="9.302574815191866"><ele>931.0</ele><time>2026-04-06T14:33:38Z</time></trkpt><trkpt lat="44.7380204277859" lon="9.302409531004184"><ele>931.0</ele><time>2026-04-06T14:33:39Z</time></trkpt><trkpt lat="44.73797437757495" lon="9.3022667996549"><ele>931.0</ele><time>2026-04-06T14:33:40Z</time></trkpt><trkpt lat="44.73798586392278" lon="9.302115127721423"><ele>931.0</ele><time>2026-04-06T14:33:41Z</time></trkpt><trkpt lat="44.738002036424064" lon="9.301940467674335"><ele>931.0</ele><time>2026-04-06T14:33:42Z</time></trkpt><trkpt lat="44.738006447792515" lon="9.301713598146717"><ele>930.75</ele><time>2026-04-06T14:33:43Z</time></trkpt><trkpt lat="44.738022784974746" lon="9.301504384782454"><ele>930.5</ele><time>2026-04-06T14:33:44Z</time></trkpt><trkpt lat="44.73803325546642" lon="9.301340299153983"><ele>930.25</ele><time>2026-04-06T14:33:45Z</time></trkpt><trkpt lat="44.738046806703316" lon="9.301200915943049"><ele>930.0</ele><time>2026-04-06T14:33:46Z</time></trkpt><trkpt lat="44.7381094835847" lon="9.301085107798102"><ele>928.75</ele><time>2026-04-06T14:33:47Z</time></trkpt><trkpt lat="44.73818974681222" lon="9.300987402993577"><ele>927.5</ele><time>2026-04-06T14:33:48Z</time></trkpt><trkpt lat="44.738303554201934" lon="9.300900451748745"><ele>926.25</ele><time>2026-04-06T14:33:49Z</time></trkpt><trkpt lat="44.73843561204257" lon="9.300796841265985"><ele>925.0</ele><time>2026-04-06T14:33:50Z</time></trkpt><trkpt lat="44.73855815845862" lon="9.300623914585744"><ele>927.6666666666666</ele><time>2026-04-06T14:33:51Z</time></trkpt><trkpt lat="44.73868256980866" lon="9.30043582007058"><ele>930.3333333333333</ele><time>2026-04-06T14:33:52Z</time></trkpt><trkpt lat="44.73881102063092" lon="9.300211633988043"><ele>933.0</ele><time>2026-04-06T14:33:53Z</time></trkpt><trkpt lat="44.73893331188565" lon="9.299988362298222"><ele>933.0</ele><time>2026-04-06T14:33:54Z</time></trkpt><trkpt lat="44.73905545991879" lon="9.299761913587364"><ele>933.0</ele><time>2026-04-06T14:33:55Z</time></trkpt><trkpt lat="44.73916694853305" lon="9.299565156767713"><ele>933.0</ele><time>2026-04-06T14:33:56Z</time></trkpt><trkpt lat="44.73926697829533" lon="9.299384967882254"><ele>933.3333333333333</ele><time>2026-04-06T14:33:57Z</time></trkpt><trkpt lat="44.73936765996896" lon="9.299205941330783"><ele>933.6666666666666</ele><time>2026-04-06T14:33:58Z</time></trkpt><trkpt lat="44.73946107735033" lon="9.299037698496797"><ele>934.0</ele><time>2026-04-06T14:33:59Z</time></trkpt><trkpt lat="44.7395440717421" lon="9.298873918187011"><ele>934.0</ele><time>2026-04-06T14:34:00Z</time></trkpt><trkpt lat="44.7396008674181" lon="9.298689872024445"><ele>934.0</ele><time>2026-04-06T14:34:00.999Z</time></trkpt><trkpt lat="44.73965126941699" lon="9.298476396466757"><ele>934.0</ele><time>2026-04-06T14:34:01.999Z</time></trkpt><trkpt lat="44.739713145542474" lon="9.2982465996253"><ele>932.0</ele><time>2026-04-06T14:34:02.999Z</time></trkpt><trkpt lat="44.73978127681276" lon="9.298008861735715"><ele>930.0</ele><time>2026-04-06T14:34:03.999Z</time></trkpt><trkpt lat="44.73987317686253" lon="9.297791996941658"><ele>928.0</ele><time>2026-04-06T14:34:04.999Z</time></trkpt><trkpt lat="44.73994400014053" lon="9.29758043564012"><ele>928.0</ele><time>2026-04-06T14:34:06Z</time></trkpt><trkpt lat="44.73999337249701" lon="9.29737461967631"><ele>928.0</ele><time>2026-04-06T14:34:07Z</time></trkpt><trkpt lat="44.740062590355166" lon="9.297171740884975"><ele>928.0</ele><time>2026-04-06T14:34:08Z</time></trkpt><trkpt lat="44.740143536104696" lon="9.296940053440283"><ele>929.6666666666666</ele><time>2026-04-06T14:34:09Z</time></trkpt><trkpt lat="44.74022028171624" lon="9.296704622582977"><ele>931.3333333333333</ele><time>2026-04-06T14:34:10Z</time></trkpt><trkpt lat="44.74028621554305" lon="9.296506226192491"><ele>933.0</ele><time>2026-04-06T14:34:11Z</time></trkpt><trkpt lat="44.74033879113209" lon="9.296347690665499"><ele>933.0</ele><time>2026-04-06T14:34:12Z</time></trkpt><trkpt lat="44.740388780299305" lon="9.296228206066285"><ele>933.0</ele><time>2026-04-06T14:34:13Z</time></trkpt><trkpt lat="44.74045681979884" lon="9.296128060556992"><ele>933.0</ele><time>2026-04-06T14:34:14Z</time></trkpt><trkpt lat="44.74056064592596" lon="9.29609276798305"><ele>933.0</ele><time>2026-04-06T14:34:15Z</time></trkpt><trkpt lat="44.740662748121274" lon="9.296078837532754"><ele>933.0</ele><time>2026-04-06T14:34:16Z</time></trkpt><trkpt lat="44.74079698285335" lon="9.296058012228674"><ele>933.0</ele><time>2026-04-06T14:34:17Z</time></trkpt><trkpt lat="44.74093153656867" lon="9.296029829479723"><ele>933.0</ele><time>2026-04-06T14:34:18Z</time></trkpt><trkpt lat="44.74103232718108" lon="9.296002657262672"><ele>933.0</ele><time>2026-04-06T14:34:19Z</time></trkpt><trkpt lat="44.741110506579886" lon="9.295966935774713"><ele>933.0</ele><time>2026-04-06T14:34:20Z</time></trkpt><trkpt lat="44.741178500361634" lon="9.29589426716283"><ele>933.0</ele><time>2026-04-06T14:34:21Z</time></trkpt><trkpt lat="44.74121664648895" lon="9.295767547598501"><ele>940.0</ele><time>2026-04-06T14:34:22Z</time></trkpt><trkpt lat="44.74123244617948" lon="9.295637700016618"><ele>947.0</ele><time>2026-04-06T14:34:23Z</time></trkpt><trkpt lat="44.7412237839198" lon="9.295480579446792"><ele>954.0</ele><time>2026-04-06T14:34:24Z</time></trkpt><trkpt lat="44.7411971755944" lon="9.29529746285118"><ele>961.0</ele><time>2026-04-06T14:34:25Z</time></trkpt><trkpt lat="44.7411782116571" lon="9.295141481033543"><ele>961.4999999999999</ele><time>2026-04-06T14:34:26Z</time></trkpt><trkpt lat="44.74120458962838" lon="9.295004375832415"><ele>962.0</ele><time>2026-04-06T14:34:27Z</time></trkpt><trkpt lat="44.741230507180006" lon="9.294886576942895"><ele>962.5</ele><time>2026-04-06T14:34:28Z</time></trkpt><trkpt lat="44.741227089019375" lon="9.294792365667254"><ele>963.0</ele><time>2026-04-06T14:34:29Z</time></trkpt><trkpt lat="44.74118979035222" lon="9.294684519252579"><ele>963.4999999999999</ele><time>2026-04-06T14:34:30Z</time></trkpt><trkpt lat="44.74112668280261" lon="9.294594278213696"><ele>964.0</ele><time>2026-04-06T14:34:31Z</time></trkpt><trkpt lat="44.74104472109711" lon="9.294553070653649"><ele>964.4000000000001</ele><time>2026-04-06T14:34:32Z</time></trkpt><trkpt lat="44.74094934157272" lon="9.294562402611614"><ele>964.8000000000001</ele><time>2026-04-06T14:34:33Z</time></trkpt><trkpt lat="44.74085972780453" lon="9.294603024319143"><ele>965.1999999999999</ele><time>2026-04-06T14:34:34Z</time></trkpt><trkpt lat="44.740761041727154" lon="9.294667980689928"><ele>965.5999999999999</ele><time>2026-04-06T14:34:35Z</time></trkpt><trkpt lat="44.74066819666284" lon="9.294717860250776"><ele>966.0</ele><time>2026-04-06T14:34:36Z</time></trkpt><trkpt lat="44.74057696481592" lon="9.294733603698273"><ele>966.0</ele><time>2026-04-06T14:34:37Z</time></trkpt><trkpt lat="44.74048153387959" lon="9.294705057299002"><ele>965.9999999999999</ele><time>2026-04-06T14:34:38Z</time></trkpt><trkpt lat="44.74039690159728" lon="9.294638102408236"><ele>965.9999999999999</ele><time>2026-04-06T14:34:39Z</time></trkpt><trkpt lat="44.74032284923245" lon="9.294556272657534"><ele>966.0</ele><time>2026-04-06T14:34:40Z</time></trkpt><trkpt lat="44.74028752982037" lon="9.294443761706004"><ele>966.0</ele><time>2026-04-06T14:34:41Z</time></trkpt><trkpt lat="44.74027192317371" lon="9.29432113599377"><ele>966.0</ele><time>2026-04-06T14:34:42Z</time></trkpt><trkpt lat="44.74029569163084" lon="9.294189369323025"><ele>965.9999999999999</ele><time>2026-04-06T14:34:43Z</time></trkpt><trkpt lat="44.74028335012636" lon="9.294047916333394"><ele>965.9999999999999</ele><time>2026-04-06T14:34:44Z</time></trkpt><trkpt lat="44.740250287280226" lon="9.29390271507163"><ele>966.0</ele><time>2026-04-06T14:34:45Z</time></trkpt><trkpt lat="44.74019963411909" lon="9.293768055653823"><ele>966.0</ele><time>2026-04-06T14:34:46Z</time></trkpt><trkpt lat="44.74014528052805" lon="9.293649620371085"><ele>963.0</ele><time>2026-04-06T14:34:47Z</time></trkpt><trkpt lat="44.74013333500591" lon="9.2935128744323"><ele>959.9999999999999</ele><time>2026-04-06T14:34:48Z</time></trkpt><trkpt lat="44.74014246956057" lon="9.29334970911792"><ele>956.9999999999999</ele><time>2026-04-06T14:34:49Z</time></trkpt><trkpt lat="44.74014719901862" lon="9.293208883854636"><ele>954.0</ele><time>2026-04-06T14:34:50Z</time></trkpt><trkpt lat="44.74012313324287" lon="9.293079216624353"><ele>951.0</ele><time>2026-04-06T14:34:51Z</time></trkpt><trkpt lat="44.74006217697352" lon="9.29295765938381"><ele>951.0</ele><time>2026-04-06T14:34:52Z</time></trkpt><trkpt lat="44.7399837434956" lon="9.292841939213632"><ele>950.9999999999999</ele><time>2026-04-06T14:34:53Z</time></trkpt><trkpt lat="44.73990565037514" lon="9.292724612101441"><ele>950.9999999999999</ele><time>2026-04-06T14:34:54Z</time></trkpt><trkpt lat="44.73984227614176" lon="9.292600958215239"><ele>951.0</ele><time>2026-04-06T14:34:55Z</time></trkpt><trkpt lat="44.739791960247835" lon="9.292460923976046"><ele>951.0</ele><time>2026-04-06T14:34:56Z</time></trkpt><trkpt lat="44.73974219304039" lon="9.292297130972033"><ele>953.25</ele><time>2026-04-06T14:34:57Z</time></trkpt><trkpt lat="44.739696648407865" lon="9.292131429388728"><ele>955.5</ele><time>2026-04-06T14:34:58Z</time></trkpt><trkpt lat="44.739651622953154" lon="9.291985530352463"><ele>957.75</ele><time>2026-04-06T14:34:59Z</time></trkpt><trkpt lat="44.7396012205622" lon="9.291847065315242"><ele>960.0</ele><time>2026-04-06T14:35:00Z</time></trkpt><trkpt lat="44.739545688777696" lon="9.291719621874881"><ele>960.0</ele><time>2026-04-06T14:35:01Z</time></trkpt><trkpt lat="44.73949377778524" lon="9.291597163264706"><ele>960.0</ele><time>2026-04-06T14:35:02Z</time></trkpt><trkpt lat="44.73945158136602" lon="9.29145902182577"><ele>960.0</ele><time>2026-04-06T14:35:03Z</time></trkpt><trkpt lat="44.739405403335894" lon="9.291302436182256"><ele>960.0</ele><time>2026-04-06T14:35:04Z</time></trkpt><trkpt lat="44.73941138661399" lon="9.291169999758722"><ele>960.0</ele><time>2026-04-06T14:35:05Z</time></trkpt><trkpt lat="44.73946894863431" lon="9.291033531671786"><ele>961.0</ele><time>2026-04-06T14:35:06Z</time></trkpt><trkpt lat="44.73951486098383" lon="9.290887103841449"><ele>962.0</ele><time>2026-04-06T14:35:07Z</time></trkpt><trkpt lat="44.739548154542724" lon="9.29076324732088"><ele>963.0</ele><time>2026-04-06T14:35:08Z</time></trkpt><trkpt lat="44.739538856508254" lon="9.290622187345335"><ele>964.0</ele><time>2026-04-06T14:35:09Z</time></trkpt><trkpt lat="44.739500555307934" lon="9.29048629242687"><ele>965.0</ele><time>2026-04-06T14:35:10Z</time></trkpt><trkpt lat="44.73944224378303" lon="9.290352816191355"><ele>958.8</ele><time>2026-04-06T14:35:11Z</time></trkpt><trkpt lat="44.73937735609823" lon="9.290199314697036"><ele>952.6</ele><time>2026-04-06T14:35:12Z</time></trkpt><trkpt lat="44.73933557538734" lon="9.290066442075283"><ele>946.4000000000001</ele><time>2026-04-06T14:35:13Z</time></trkpt><trkpt lat="44.739320276142195" lon="9.289925851905766"><ele>940.2</ele><time>2026-04-06T14:35:14Z</time></trkpt><trkpt lat="44.73933378899839" lon="9.289800680525985"><ele>934.0</ele><time>2026-04-06T14:35:15Z</time></trkpt><trkpt lat="44.739375669439205" lon="9.289660867048896"><ele>941.6</ele><time>2026-04-06T14:35:16Z</time></trkpt><trkpt lat="44.7394176735379" lon="9.289519636708205"><ele>949.2</ele><time>2026-04-06T14:35:17Z</time></trkpt><trkpt lat="44.73944724249895" lon="9.289402995590004"><ele>956.8000000000001</ele><time>2026-04-06T14:35:18Z</time></trkpt><trkpt lat="44.739466123209155" lon="9.28928600893229"><ele>964.4000000000001</ele><time>2026-04-06T14:35:19Z</time></trkpt><trkpt lat="44.73947679553564" lon="9.289143976492312"><ele>972.0</ele><time>2026-04-06T14:35:20Z</time></trkpt><trkpt lat="44.7394686593311" lon="9.289005103941415"><ele>971.4000000000001</ele><time>2026-04-06T14:35:21Z</time></trkpt><trkpt lat="44.73944012857831" lon="9.28887468497156"><ele>970.8000000000001</ele><time>2026-04-06T14:35:22Z</time></trkpt><trkpt lat="44.73939934944332" lon="9.28873636381596"><ele>970.2</ele><time>2026-04-06T14:35:23Z</time></trkpt><trkpt lat="44.73936883214685" lon="9.288607531607639"><ele>969.6</ele><time>2026-04-06T14:35:24Z</time></trkpt><trkpt lat="44.73933157981189" lon="9.288502676887205"><ele>969.0</ele><time>2026-04-06T14:35:25Z</time></trkpt><trkpt lat="44.73930173455542" lon="9.288415307070709"><ele>962.0</ele><time>2026-04-06T14:35:26Z</time></trkpt><trkpt lat="44.7392237685073" lon="9.28818203962483"><ele>955.0</ele><time>2026-04-06T14:35:27Z</time></trkpt><trkpt lat="44.739216135640916" lon="9.288045754908316"><ele>948.0</ele><time>2026-04-06T14:35:28Z</time></trkpt><trkpt lat="44.73923103576971" lon="9.28791281533513"><ele>941.0</ele><time>2026-04-06T14:35:29Z</time></trkpt><trkpt lat="44.739247214457556" lon="9.287748131131934"><ele>941.0</ele><time>2026-04-06T14:35:30Z</time></trkpt><trkpt lat="44.739265233910956" lon="9.287588851053126"><ele>940.9999999999999</ele><time>2026-04-06T14:35:31Z</time></trkpt><trkpt lat="44.73928373695222" lon="9.287438723258038"><ele>940.9999999999999</ele><time>2026-04-06T14:35:32Z</time></trkpt><trkpt lat="44.73930037166173" lon="9.287293403752379"><ele>941.0</ele><time>2026-04-06T14:35:33Z</time></trkpt><trkpt lat="44.73931464471056" lon="9.287156380241335"><ele>941.0</ele><time>2026-04-06T14:35:34Z</time></trkpt><trkpt lat="44.73930001431862" lon="9.287025738600603"><ele>942.1999999999999</ele><time>2026-04-06T14:35:35Z</time></trkpt><trkpt lat="44.73926976073637" lon="9.2868993714288"><ele>943.3999999999999</ele><time>2026-04-06T14:35:36Z</time></trkpt><trkpt lat="44.73920928424616" lon="9.286782244730013"><ele>944.6</ele><time>2026-04-06T14:35:37Z</time></trkpt><trkpt lat="44.739135856800196" lon="9.286666123919144"><ele>945.8</ele><time>2026-04-06T14:35:37.999Z</time></trkpt><trkpt lat="44.73905858967648" lon="9.286566467447244"><ele>947.0</ele><time>2026-04-06T14:35:38.999Z</time></trkpt><trkpt lat="44.738985903566046" lon="9.286480680492382"><ele>947.8</ele><time>2026-04-06T14:35:39.999Z</time></trkpt><trkpt lat="44.73892588778525" lon="9.286387151400326"><ele>948.6</ele><time>2026-04-06T14:35:40.999Z</time></trkpt><trkpt lat="44.73887509709443" lon="9.28629101113092"><ele>949.3999999999999</ele><time>2026-04-06T14:35:41.999Z</time></trkpt><trkpt lat="44.73885185274909" lon="9.286171412684862"><ele>950.1999999999999</ele><time>2026-04-06T14:35:42.999Z</time></trkpt><trkpt lat="44.738873574595566" lon="9.286037009950364"><ele>951.0</ele><time>2026-04-06T14:35:43.999Z</time></trkpt><trkpt lat="44.738901927074096" lon="9.28589860915318"><ele>951.0</ele><time>2026-04-06T14:35:44.999Z</time></trkpt><trkpt lat="44.738938520931754" lon="9.285760054182226"><ele>950.9999999999999</ele><time>2026-04-06T14:35:45.999Z</time></trkpt><trkpt lat="44.73896184552519" lon="9.28560616633529"><ele>950.9999999999999</ele><time>2026-04-06T14:35:46.999Z</time></trkpt><trkpt lat="44.73896109043455" lon="9.285458941106867"><ele>951.0</ele><time>2026-04-06T14:35:47.999Z</time></trkpt><trkpt lat="44.73895054500417" lon="9.285311833634564"><ele>951.0</ele><time>2026-04-06T14:35:48.999Z</time></trkpt><trkpt lat="44.73891655407377" lon="9.285142683613579"><ele>952.75</ele><time>2026-04-06T14:35:49.999Z</time></trkpt><trkpt lat="44.738860346789934" lon="9.284959955859044"><ele>954.5</ele><time>2026-04-06T14:35:50.999Z</time></trkpt><trkpt lat="44.738812941656924" lon="9.284784133209309"><ele>956.25</ele><time>2026-04-06T14:35:51.999Z</time></trkpt><trkpt lat="44.73877068357004" lon="9.284609256231503"><ele>958.0</ele><time>2026-04-06T14:35:52.999Z</time></trkpt><trkpt lat="44.738732155346405" lon="9.284439460262549"><ele>957.2</ele><time>2026-04-06T14:35:53.999Z</time></trkpt><trkpt lat="44.738694376204634" lon="9.284287268418616"><ele>956.4</ele><time>2026-04-06T14:35:54.999Z</time></trkpt><trkpt lat="44.73865167459263" lon="9.284146293005408"><ele>955.6000000000001</ele><time>2026-04-06T14:35:55.999Z</time></trkpt><trkpt lat="44.73859157401885" lon="9.284024319064823"><ele>954.8000000000001</ele><time>2026-04-06T14:35:56.999Z</time></trkpt><trkpt lat="44.7385171373437" lon="9.28391851668253"><ele>954.0</ele><time>2026-04-06T14:35:57.999Z</time></trkpt><trkpt lat="44.73843004831108" lon="9.2838303610835"><ele>954.0</ele><time>2026-04-06T14:35:58.999Z</time></trkpt><trkpt lat="44.73834187122363" lon="9.283748396342801"><ele>954.0000000000001</ele><time>2026-04-06T14:35:59.999Z</time></trkpt><trkpt lat="44.73827280415459" lon="9.28366551181171"><ele>954.0000000000001</ele><time>2026-04-06T14:36:00.999Z</time></trkpt><trkpt lat="44.738207082029184" lon="9.28360876691775"><ele>954.0</ele><time>2026-04-06T14:36:01.999Z</time></trkpt><trkpt lat="44.73813438614306" lon="9.283553072415145"><ele>954.0</ele><time>2026-04-06T14:36:02.999Z</time></trkpt><trkpt lat="44.73805357192925" lon="9.283435716744115"><ele>954.0</ele><time>2026-04-06T14:36:04.999Z</time></trkpt><trkpt lat="44.737984556463736" lon="9.283313135755543"><ele>954.0</ele><time>2026-04-06T14:36:06.999Z</time></trkpt><trkpt lat="44.737966653551815" lon="9.28322687878375"><ele>954.0</ele><time>2026-04-06T14:36:07.999Z</time></trkpt><trkpt lat="44.737972770949575" lon="9.28312945983491"><ele>954.0</ele><time>2026-04-06T14:36:08.999Z</time></trkpt><trkpt lat="44.73800138421354" lon="9.283036565503597"><ele>954.0</ele><time>2026-04-06T14:36:09.999Z</time></trkpt><trkpt lat="44.738043319832855" lon="9.282932313805263"><ele>954.0</ele><time>2026-04-06T14:36:10.999Z</time></trkpt><trkpt lat="44.73808913378581" lon="9.282824664024625"><ele>954.3333333333334</ele><time>2026-04-06T14:36:12Z</time></trkpt><trkpt lat="44.73814263476697" lon="9.28270257295"><ele>954.6666666666667</ele><time>2026-04-06T14:36:13Z</time></trkpt><trkpt lat="44.738185471150565" lon="9.282589366523032"><ele>955.0</ele><time>2026-04-06T14:36:14Z</time></trkpt><trkpt lat="44.738216125165884" lon="9.282475112835451"><ele>955.3333333333334</ele><time>2026-04-06T14:36:15Z</time></trkpt><trkpt lat="44.73823515799349" lon="9.282362034391912"><ele>955.6666666666667</ele><time>2026-04-06T14:36:16Z</time></trkpt><trkpt lat="44.73823567398206" lon="9.28225194279868"><ele>956.0</ele><time>2026-04-06T14:36:17Z</time></trkpt><trkpt lat="44.73821940974858" lon="9.282147702069821"><ele>956.0000000000001</ele><time>2026-04-06T14:36:18Z</time></trkpt><trkpt lat="44.73820583012439" lon="9.282035455979395"><ele>956.0</ele><time>2026-04-06T14:36:19Z</time></trkpt><trkpt lat="44.738195792228595" lon="9.281920268904091"><ele>956.0</ele><time>2026-04-06T14:36:20Z</time></trkpt><trkpt lat="44.73818951746447" lon="9.281810533067429"><ele>956.0</ele><time>2026-04-06T14:36:21Z</time></trkpt><trkpt lat="44.738175129518766" lon="9.281696756123317"><ele>956.0000000000001</ele><time>2026-04-06T14:36:22Z</time></trkpt><trkpt lat="44.73816447918802" lon="9.281586281579791"><ele>956.0</ele><time>2026-04-06T14:36:23Z</time></trkpt><trkpt lat="44.738157911185816" lon="9.281482969767707"><ele>955.3333333333334</ele><time>2026-04-06T14:36:24Z</time></trkpt><trkpt lat="44.73815873750187" lon="9.281381973208946"><ele>954.6666666666667</ele><time>2026-04-06T14:36:25Z</time></trkpt><trkpt lat="44.73816895744285" lon="9.281287210532597"><ele>954.0</ele><time>2026-04-06T14:36:26Z</time></trkpt><trkpt lat="44.73818845706009" lon="9.281201279943794"><ele>953.3333333333333</ele><time>2026-04-06T14:36:27Z</time></trkpt><trkpt lat="44.738237374229655" lon="9.281055493806319"><ele>952.6666666666666</ele><time>2026-04-06T14:36:29Z</time></trkpt><trkpt lat="44.73829391650595" lon="9.280962483338241"><ele>952.0</ele><time>2026-04-06T14:36:31Z</time></trkpt><trkpt lat="44.7383706035348" lon="9.280902067567832"><ele>952.0</ele><time>2026-04-06T14:36:33Z</time></trkpt><trkpt lat="44.7384463274212" lon="9.280870944881016"><ele>952.0</ele><time>2026-04-06T14:36:35Z</time></trkpt><trkpt lat="44.7385254554576" lon="9.280860067068161"><ele>952.0</ele><time>2026-04-06T14:36:37Z</time></trkpt><trkpt lat="44.73826344839683" lon="9.281048316562929"><ele>952.0</ele><time>2026-04-06T14:37:06Z</time></trkpt><trkpt lat="44.73837026099873" lon="9.280788815686295"><ele>952.0</ele><time>2026-04-06T14:37:35Z</time></trkpt><trkpt lat="44.73840006311056" lon="9.280891825855377"><ele>952.0</ele><time>2026-04-06T14:38:00.999Z</time></trkpt><trkpt lat="44.738339457139745" lon="9.280921575500061"><ele>952.0</ele><time>2026-04-06T14:39:03Z</time></trkpt><trkpt lat="44.7382816922941" lon="9.280798353199609"><ele>952.0</ele><time>2026-04-06T14:39:07Z</time></trkpt><trkpt lat="44.73827753850253" lon="9.28090487852343"><ele>952.0</ele><time>2026-04-06T14:40:07.999Z</time></trkpt><trkpt lat="44.738207223712436" lon="9.280926565571539"><ele>952.0</ele><time>2026-04-06T14:40:15.999Z</time></trkpt><trkpt lat="44.73814021364224" lon="9.280951903681776"><ele>952.0</ele><time>2026-04-06T14:40:41Z</time></trkpt><trkpt lat="44.73809972349589" lon="9.281031436825891"><ele>952.0</ele><time>2026-04-06T14:40:54Z</time></trkpt><trkpt lat="44.73807770417536" lon="9.281126789756973"><ele>952.0</ele><time>2026-04-06T14:41:04Z</time></trkpt><trkpt lat="44.73814219594313" lon="9.28115692497812"><ele>952.0</ele><time>2026-04-06T14:41:14Z</time></trkpt><trkpt lat="44.73814342699881" lon="9.281255466493585"><ele>951.9999999999999</ele><time>2026-04-06T14:41:36Z</time></trkpt><trkpt lat="44.73807793320223" lon="9.281443164450636"><ele>952.0</ele><time>2026-04-06T14:42:00Z</time></trkpt><trkpt lat="44.73812146965627" lon="9.281371580188479"><ele>952.0</ele><time>2026-04-06T14:42:26.999Z</time></trkpt><trkpt lat="44.738123932626955" lon="9.281256356121778"><ele>952.0</ele><time>2026-04-06T14:42:35Z</time></trkpt><trkpt lat="44.73812735175062" lon="9.281167621759092"><ele>951.9999999999999</ele><time>2026-04-06T14:42:41Z</time></trkpt><trkpt lat="44.738140859251125" lon="9.281079507341241"><ele>952.0</ele><time>2026-04-06T14:42:51Z</time></trkpt><trkpt lat="44.73815745032139" lon="9.280990474557735"><ele>952.0</ele><time>2026-04-06T14:43:01Z</time></trkpt><trkpt lat="44.738183018365724" lon="9.280897283044892"><ele>952.0</ele><time>2026-04-06T14:43:11Z</time></trkpt><trkpt lat="44.73823719972786" lon="9.280844868902252"><ele>952.0</ele><time>2026-04-06T14:43:19Z</time></trkpt><trkpt lat="44.7383017566769" lon="9.280817404045381"><ele>952.0</ele><time>2026-04-06T14:43:29Z</time></trkpt><trkpt lat="44.73836758301925" lon="9.28081786794104"><ele>952.0</ele><time>2026-04-06T14:43:33Z</time></trkpt><trkpt lat="44.738432912070635" lon="9.280884121627444"><ele>952.0</ele><time>2026-04-06T14:45:16Z</time></trkpt><trkpt lat="44.73852738426866" lon="9.280848023787033"><ele>952.0</ele><time>2026-04-06T14:45:18Z</time></trkpt><trkpt lat="44.73860852882266" lon="9.280849126023591"><ele>950.4000000000001</ele><time>2026-04-06T14:45:20Z</time></trkpt><trkpt lat="44.73868947869345" lon="9.280849718730005"><ele>948.8000000000001</ele><time>2026-04-06T14:45:23Z</time></trkpt><trkpt lat="44.7387574305992" lon="9.280863706199558"><ele>947.2</ele><time>2026-04-06T14:45:25Z</time></trkpt><trkpt lat="44.73884810689801" lon="9.28089039408976"><ele>945.6</ele><time>2026-04-06T14:45:27Z</time></trkpt><trkpt lat="44.738974256301645" lon="9.280961908877632"><ele>944.0</ele><time>2026-04-06T14:45:29Z</time></trkpt><trkpt lat="44.73904804489102" lon="9.281002330670907"><ele>944.0</ele><time>2026-04-06T14:45:30Z</time></trkpt><trkpt lat="44.739119376601735" lon="9.281061789024085"><ele>944.0000000000001</ele><time>2026-04-06T14:45:31Z</time></trkpt><trkpt lat="44.73918962282129" lon="9.281139789326739"><ele>944.0000000000001</ele><time>2026-04-06T14:45:32Z</time></trkpt><trkpt lat="44.73925432585148" lon="9.2812465561896"><ele>944.0</ele><time>2026-04-06T14:45:33Z</time></trkpt><trkpt lat="44.739310832832864" lon="9.281371394013542"><ele>944.0</ele><time>2026-04-06T14:45:34Z</time></trkpt><trkpt lat="44.73936173889633" lon="9.28149672306782"><ele>942.6</ele><time>2026-04-06T14:45:35Z</time></trkpt><trkpt lat="44.7394132489648" lon="9.28161389998538"><ele>941.2</ele><time>2026-04-06T14:45:36Z</time></trkpt><trkpt lat="44.73946782654612" lon="9.281727607761118"><ele>939.8000000000001</ele><time>2026-04-06T14:45:37Z</time></trkpt><trkpt lat="44.739523000059336" lon="9.281840467050976"><ele>938.4000000000001</ele><time>2026-04-06T14:45:38Z</time></trkpt><trkpt lat="44.739574856546795" lon="9.281948562270841"><ele>937.0</ele><time>2026-04-06T14:45:39Z</time></trkpt><trkpt lat="44.739626676166104" lon="9.28205272380671"><ele>936.9999999999999</ele><time>2026-04-06T14:45:40Z</time></trkpt><trkpt lat="44.739677778460596" lon="9.282149535085594"><ele>937.0</ele><time>2026-04-06T14:45:41Z</time></trkpt><trkpt lat="44.73974242112703" lon="9.282224673972765"><ele>937.0</ele><time>2026-04-06T14:45:42Z</time></trkpt><trkpt lat="44.7398188472222" lon="9.282268533863364"><ele>937.0</ele><time>2026-04-06T14:45:43Z</time></trkpt><trkpt lat="44.73990437913997" lon="9.282305038900875"><ele>936.9999999999999</ele><time>2026-04-06T14:45:44Z</time></trkpt><trkpt lat="44.739999201773706" lon="9.282352587337735"><ele>937.0</ele><time>2026-04-06T14:45:45Z</time></trkpt><trkpt lat="44.740099862535544" lon="9.282420007268152"><ele>935.75</ele><time>2026-04-06T14:45:46Z</time></trkpt><trkpt lat="44.7401925996448" lon="9.282503852188277"><ele>934.5</ele><time>2026-04-06T14:45:47Z</time></trkpt><trkpt lat="44.74029338485444" lon="9.282597968595837"><ele>933.25</ele><time>2026-04-06T14:45:48Z</time></trkpt><trkpt lat="44.74039925042731" lon="9.28270293800638"><ele>932.0</ele><time>2026-04-06T14:45:49Z</time></trkpt><trkpt lat="44.740495187904955" lon="9.282813637461294"><ele>932.0</ele><time>2026-04-06T14:45:50Z</time></trkpt><trkpt lat="44.740588577066724" lon="9.282924796809768"><ele>932.0</ele><time>2026-04-06T14:45:51Z</time></trkpt><trkpt lat="44.74070452529488" lon="9.283003666642136"><ele>932.0</ele><time>2026-04-06T14:45:52Z</time></trkpt><trkpt lat="44.74082335633866" lon="9.283055612012642"><ele>932.0</ele><time>2026-04-06T14:45:53Z</time></trkpt><trkpt lat="44.740931815754635" lon="9.283091673969412"><ele>933.2</ele><time>2026-04-06T14:45:54Z</time></trkpt><trkpt lat="44.74103857038998" lon="9.283119077178632"><ele>934.4000000000001</ele><time>2026-04-06T14:45:55Z</time></trkpt><trkpt lat="44.74114686221753" lon="9.283146820898367"><ele>935.5999999999999</ele><time>2026-04-06T14:45:56Z</time></trkpt><trkpt lat="44.74124757841799" lon="9.283165452436675"><ele>936.8</ele><time>2026-04-06T14:45:57Z</time></trkpt><trkpt lat="44.74135067655991" lon="9.283184331599493"><ele>938.0</ele><time>2026-04-06T14:45:58Z</time></trkpt><trkpt lat="44.7414570201118" lon="9.283197979903536"><ele>938.0</ele><time>2026-04-06T14:45:59Z</time></trkpt><trkpt lat="44.741560066984334" lon="9.283201762706604"><ele>938.0</ele><time>2026-04-06T14:46:00Z</time></trkpt><trkpt lat="44.74168286680947" lon="9.2832065603636"><ele>938.0</ele><time>2026-04-06T14:46:01Z</time></trkpt><trkpt lat="44.74177464334664" lon="9.283184773721963"><ele>938.0</ele><time>2026-04-06T14:46:02Z</time></trkpt><trkpt lat="44.7418391991348" lon="9.283150391079793"><ele>938.0</ele><time>2026-04-06T14:46:03Z</time></trkpt><trkpt lat="44.74193777667618" lon="9.283146740272729"><ele>935.3333333333334</ele><time>2026-04-06T14:46:04Z</time></trkpt><trkpt lat="44.74198879095573" lon="9.283015290403732"><ele>932.6666666666667</ele><time>2026-04-06T14:46:06Z</time></trkpt><trkpt lat="44.742018936792306" lon="9.28293599426185"><ele>930.0</ele><time>2026-04-06T14:46:07Z</time></trkpt><trkpt lat="44.742013045983924" lon="9.282845378523682"><ele>927.3333333333333</ele><time>2026-04-06T14:46:08Z</time></trkpt><trkpt lat="44.74194568430335" lon="9.282734749159047"><ele>924.6666666666666</ele><time>2026-04-06T14:46:09Z</time></trkpt><trkpt lat="44.7418865440157" lon="9.282695779025573"><ele>922.0</ele><time>2026-04-06T14:46:10Z</time></trkpt><trkpt lat="44.741799344851586" lon="9.282717448366103"><ele>922.0</ele><time>2026-04-06T14:46:11Z</time></trkpt><trkpt lat="44.741728433193245" lon="9.282808314645616"><ele>922.0</ele><time>2026-04-06T14:46:12Z</time></trkpt><trkpt lat="44.741652830115456" lon="9.282879672529686"><ele>922.0</ele><time>2026-04-06T14:46:13Z</time></trkpt><trkpt lat="44.741559455910505" lon="9.28294415477901"><ele>922.0</ele><time>2026-04-06T14:46:14Z</time></trkpt><trkpt lat="44.741454085899" lon="9.282973004289179"><ele>922.0</ele><time>2026-04-06T14:46:15Z</time></trkpt><trkpt lat="44.7413452719327" lon="9.282941950480842"><ele>922.0</ele><time>2026-04-06T14:46:16Z</time></trkpt><trkpt lat="44.74122552321513" lon="9.282886586560375"><ele>922.0</ele><time>2026-04-06T14:46:17Z</time></trkpt><trkpt lat="44.74109177131319" lon="9.282797076734042"><ele>922.0</ele><time>2026-04-06T14:46:17.999Z</time></trkpt><trkpt lat="44.74095289179759" lon="9.28270793222689"><ele>922.0</ele><time>2026-04-06T14:46:18.999Z</time></trkpt><trkpt lat="44.74083426747782" lon="9.282605724856005"><ele>921.4000000000001</ele><time>2026-04-06T14:46:19.999Z</time></trkpt><trkpt lat="44.74074582339601" lon="9.282463266399798"><ele>920.8000000000001</ele><time>2026-04-06T14:46:20.999Z</time></trkpt><trkpt lat="44.74080700682721" lon="9.282530487799125"><ele>920.2</ele><time>2026-04-06T14:46:21.999Z</time></trkpt><trkpt lat="44.74077692834988" lon="9.282406776147687"><ele>919.6</ele><time>2026-04-06T14:46:22.999Z</time></trkpt><trkpt lat="44.740728163603805" lon="9.28227063043327"><ele>919.0</ele><time>2026-04-06T14:46:23.999Z</time></trkpt><trkpt lat="44.74067683986755" lon="9.282137214366465"><ele>918.9999999999999</ele><time>2026-04-06T14:46:24.999Z</time></trkpt><trkpt lat="44.740598543337946" lon="9.282047801951954"><ele>919.0</ele><time>2026-04-06T14:46:25.999Z</time></trkpt><trkpt lat="44.74054778390615" lon="9.281963186184548"><ele>919.0</ele><time>2026-04-06T14:46:26.999Z</time></trkpt><trkpt lat="44.7405209432565" lon="9.281881932474416"><ele>919.0</ele><time>2026-04-06T14:46:27.999Z</time></trkpt><trkpt lat="44.740537624769374" lon="9.281781079948372"><ele>918.9999999999999</ele><time>2026-04-06T14:46:28.999Z</time></trkpt><trkpt lat="44.740605317961794" lon="9.281718178991564"><ele>919.0</ele><time>2026-04-06T14:46:29.999Z</time></trkpt><trkpt lat="44.74067283650913" lon="9.28170340879585"><ele>919.0</ele><time>2026-04-06T14:46:30.999Z</time></trkpt><trkpt lat="44.74074398261504" lon="9.281763728999602"><ele>919.0000000000001</ele><time>2026-04-06T14:46:31.999Z</time></trkpt><trkpt lat="44.74078726214831" lon="9.281877461714378"><ele>919.0000000000001</ele><time>2026-04-06T14:46:32.999Z</time></trkpt><trkpt lat="44.740779193339804" lon="9.282022111576858"><ele>919.0</ele><time>2026-04-06T14:46:33.999Z</time></trkpt><trkpt lat="44.74081510921038" lon="9.282159869678308"><ele>919.0</ele><time>2026-04-06T14:46:34.999Z</time></trkpt><trkpt lat="44.740863489459805" lon="9.282295806349737"><ele>919.6</ele><time>2026-04-06T14:46:35.999Z</time></trkpt><trkpt lat="44.74093726968188" lon="9.28240206476321"><ele>920.2</ele><time>2026-04-06T14:46:36.999Z</time></trkpt><trkpt lat="44.74102481347157" lon="9.282467411061326"><ele>920.8000000000001</ele><time>2026-04-06T14:46:37.999Z</time></trkpt><trkpt lat="44.74111510992885" lon="9.28249609156824"><ele>921.4000000000001</ele><time>2026-04-06T14:46:38.999Z</time></trkpt><trkpt lat="44.741213674197766" lon="9.282478145322582"><ele>922.0</ele><time>2026-04-06T14:46:39.999Z</time></trkpt><trkpt lat="44.74130961767895" lon="9.28241152178804"><ele>922.0</ele><time>2026-04-06T14:46:40.999Z</time></trkpt><trkpt lat="44.74140834614927" lon="9.282329812262583"><ele>922.0</ele><time>2026-04-06T14:46:42Z</time></trkpt><trkpt lat="44.74150669179001" lon="9.282274775176829"><ele>922.0</ele><time>2026-04-06T14:46:43Z</time></trkpt><trkpt lat="44.7416043317045" lon="9.282308503729901"><ele>922.0</ele><time>2026-04-06T14:46:44Z</time></trkpt><trkpt lat="44.74171274471516" lon="9.282333945836475"><ele>922.0</ele><time>2026-04-06T14:46:45Z</time></trkpt><trkpt lat="44.74182187955012" lon="9.282345348980758"><ele>920.2</ele><time>2026-04-06T14:46:46Z</time></trkpt><trkpt lat="44.741924646899335" lon="9.282311327904704"><ele>918.4000000000001</ele><time>2026-04-06T14:46:47Z</time></trkpt><trkpt lat="44.742012501224345" lon="9.282233881077886"><ele>916.5999999999999</ele><time>2026-04-06T14:46:48Z</time></trkpt><trkpt lat="44.74209557565985" lon="9.28213974899281"><ele>914.8</ele><time>2026-04-06T14:46:49Z</time></trkpt><trkpt lat="44.74217237960615" lon="9.28203832390113"><ele>913.0</ele><time>2026-04-06T14:46:50Z</time></trkpt><trkpt lat="44.74223885445133" lon="9.281943762902003"><ele>912.9999999999999</ele><time>2026-04-06T14:46:51Z</time></trkpt><trkpt lat="44.74230824451141" lon="9.281885941407742"><ele>913.0</ele><time>2026-04-06T14:46:52Z</time></trkpt><trkpt lat="44.742385509948726" lon="9.281893929296093"><ele>913.0</ele><time>2026-04-06T14:46:53Z</time></trkpt><trkpt lat="44.74245096526145" lon="9.281957687142949"><ele>913.0</ele><time>2026-04-06T14:46:54Z</time></trkpt><trkpt lat="44.742510020038736" lon="9.282069640747498"><ele>912.9999999999999</ele><time>2026-04-06T14:46:55Z</time></trkpt><trkpt lat="44.74253472738415" lon="9.282202266659702"><ele>913.0</ele><time>2026-04-06T14:46:56Z</time></trkpt><trkpt lat="44.74256444055991" lon="9.282332355791675"><ele>913.0</ele><time>2026-04-06T14:46:57Z</time></trkpt><trkpt lat="44.742589372821975" lon="9.282474651335917"><ele>913.0</ele><time>2026-04-06T14:46:58Z</time></trkpt><trkpt lat="44.742611813276774" lon="9.282617674483589"><ele>913.0</ele><time>2026-04-06T14:46:59Z</time></trkpt><trkpt lat="44.74263924776775" lon="9.282742867464632"><ele>913.0</ele><time>2026-04-06T14:47:00Z</time></trkpt><trkpt lat="44.74270121626986" lon="9.282843847158539"><ele>913.0</ele><time>2026-04-06T14:47:01Z</time></trkpt><trkpt lat="44.742786348135866" lon="9.282907596546202"><ele>911.75</ele><time>2026-04-06T14:47:02Z</time></trkpt><trkpt lat="44.74289191945623" lon="9.282946582799935"><ele>910.5</ele><time>2026-04-06T14:47:03Z</time></trkpt><trkpt lat="44.74303538940464" lon="9.28298814844816"><ele>909.25</ele><time>2026-04-06T14:47:04Z</time></trkpt><trkpt lat="44.74318394871075" lon="9.283044026269783"><ele>908.0</ele><time>2026-04-06T14:47:05Z</time></trkpt><trkpt lat="44.743341455696786" lon="9.283111796868479"><ele>908.0</ele><time>2026-04-06T14:47:06Z</time></trkpt><trkpt lat="44.7434841023511" lon="9.283175245847895"><ele>908.0</ele><time>2026-04-06T14:47:07Z</time></trkpt><trkpt lat="44.74360122582687" lon="9.283223723533148"><ele>908.0</ele><time>2026-04-06T14:47:08Z</time></trkpt><trkpt lat="44.743695635193745" lon="9.283253912157402"><ele>908.0</ele><time>2026-04-06T14:47:09Z</time></trkpt><trkpt lat="44.74377329542517" lon="9.283247212067415"><ele>908.0</ele><time>2026-04-06T14:47:10Z</time></trkpt><trkpt lat="44.74384345970771" lon="9.283184427895012"><ele>906.4</ele><time>2026-04-06T14:47:11Z</time></trkpt><trkpt lat="44.74391210051699" lon="9.283075633203335"><ele>904.8</ele><time>2026-04-06T14:47:12Z</time></trkpt><trkpt lat="44.74397715550879" lon="9.282944015546178"><ele>903.2</ele><time>2026-04-06T14:47:13Z</time></trkpt><trkpt lat="44.74403322967649" lon="9.282826345535673"><ele>901.6</ele><time>2026-04-06T14:47:14Z</time></trkpt><trkpt lat="44.744067780917035" lon="9.282707913781543"><ele>900.0</ele><time>2026-04-06T14:47:15Z</time></trkpt><trkpt lat="44.74407275044549" lon="9.282569794194309"><ele>900.0</ele><time>2026-04-06T14:47:16Z</time></trkpt><trkpt lat="44.744035395467435" lon="9.282423857273926"><ele>900.0</ele><time>2026-04-06T14:47:17Z</time></trkpt><trkpt lat="44.74397133786115" lon="9.282266516930354"><ele>900.0</ele><time>2026-04-06T14:47:18Z</time></trkpt><trkpt lat="44.74394666071828" lon="9.282089906441769"><ele>900.0</ele><time>2026-04-06T14:47:19Z</time></trkpt><trkpt lat="44.74394147760351" lon="9.281905335919832"><ele>901.25</ele><time>2026-04-06T14:47:20Z</time></trkpt><trkpt lat="44.74394329419343" lon="9.281727383988846"><ele>902.5</ele><time>2026-04-06T14:47:21Z</time></trkpt><trkpt lat="44.743904120944" lon="9.281535764667264"><ele>903.75</ele><time>2026-04-06T14:47:22Z</time></trkpt><trkpt lat="44.74380728474156" lon="9.281353448179976"><ele>905.0</ele><time>2026-04-06T14:47:23Z</time></trkpt><trkpt lat="44.74372754719938" lon="9.281155965454126"><ele>905.0</ele><time>2026-04-06T14:47:24Z</time></trkpt><trkpt lat="44.743659264575875" lon="9.280927964208054"><ele>905.0</ele><time>2026-04-06T14:47:25Z</time></trkpt><trkpt lat="44.74360385206406" lon="9.280711869678473"><ele>905.0</ele><time>2026-04-06T14:47:26Z</time></trkpt><trkpt lat="44.74356017090401" lon="9.28055365969627"><ele>904.2</ele><time>2026-04-06T14:47:27Z</time></trkpt><trkpt lat="44.743543408779324" lon="9.280441776239112"><ele>903.4</ele><time>2026-04-06T14:47:28Z</time></trkpt><trkpt lat="44.74356565225329" lon="9.280320939359635"><ele>902.5999999999999</ele><time>2026-04-06T14:47:29Z</time></trkpt><trkpt lat="44.74362093397912" lon="9.280213911920786"><ele>901.8</ele><time>2026-04-06T14:47:30Z</time></trkpt><trkpt lat="44.743705640733104" lon="9.280133615030199"><ele>901.0</ele><time>2026-04-06T14:47:31Z</time></trkpt><trkpt lat="44.74382826443499" lon="9.280070354466186"><ele>901.0</ele><time>2026-04-06T14:47:32Z</time></trkpt><trkpt lat="44.74395908781946" lon="9.279996133705788"><ele>900.9999999999999</ele><time>2026-04-06T14:47:33Z</time></trkpt><trkpt lat="44.7440662098224" lon="9.279910598777205"><ele>900.9999999999999</ele><time>2026-04-06T14:47:34Z</time></trkpt><trkpt lat="44.74412809028776" lon="9.279813066689698"><ele>901.0</ele><time>2026-04-06T14:47:35Z</time></trkpt><trkpt lat="44.74415579839913" lon="9.279699050402968"><ele>901.0</ele><time>2026-04-06T14:47:36Z</time></trkpt><trkpt lat="44.74415019274499" lon="9.279578832632696"><ele>900.0</ele><time>2026-04-06T14:47:37Z</time></trkpt><trkpt lat="44.74410517398906" lon="9.279465299346061"><ele>898.9999999999999</ele><time>2026-04-06T14:47:38Z</time></trkpt><trkpt lat="44.7440342761876" lon="9.279347082888606"><ele>897.9999999999999</ele><time>2026-04-06T14:47:39Z</time></trkpt><trkpt lat="44.74396543521271" lon="9.279212831930325"><ele>897.0</ele><time>2026-04-06T14:47:40Z</time></trkpt><trkpt lat="44.74391922852284" lon="9.279057257852415"><ele>896.0</ele><time>2026-04-06T14:47:41Z</time></trkpt><trkpt lat="44.74391506327934" lon="9.278889669443686"><ele>895.4</ele><time>2026-04-06T14:47:42Z</time></trkpt><trkpt lat="44.74393104022742" lon="9.27873167853581"><ele>894.8</ele><time>2026-04-06T14:47:43Z</time></trkpt><trkpt lat="44.743971089819375" lon="9.278611876479085"><ele>894.1999999999999</ele><time>2026-04-06T14:47:44Z</time></trkpt><trkpt lat="44.7440378230962" lon="9.278512651891646"><ele>893.5999999999999</ele><time>2026-04-06T14:47:45Z</time></trkpt><trkpt lat="44.74413309335313" lon="9.278429529945715"><ele>893.0</ele><time>2026-04-06T14:47:46Z</time></trkpt><trkpt lat="44.74424548475713" lon="9.278354653719287"><ele>893.0</ele><time>2026-04-06T14:47:47Z</time></trkpt><trkpt lat="44.7443495959876" lon="9.278290378868478"><ele>893.0</ele><time>2026-04-06T14:47:48Z</time></trkpt><trkpt lat="44.7444491794694" lon="9.278261438048641"><ele>893.0</ele><time>2026-04-06T14:47:49Z</time></trkpt><trkpt lat="44.744573164817815" lon="9.278253235807693"><ele>893.0</ele><time>2026-04-06T14:47:50Z</time></trkpt><trkpt lat="44.74472118117504" lon="9.278265649558257"><ele>892.6666666666667</ele><time>2026-04-06T14:47:51Z</time></trkpt><trkpt lat="44.74488343859764" lon="9.278276754497263"><ele>892.3333333333333</ele><time>2026-04-06T14:47:52Z</time></trkpt><trkpt lat="44.745043112547485" lon="9.278282891020579"><ele>892.0</ele><time>2026-04-06T14:47:53Z</time></trkpt><trkpt lat="44.745187893497786" lon="9.27828624969316"><ele>892.3333333333333</ele><time>2026-04-06T14:47:54Z</time></trkpt><trkpt lat="44.74531150532148" lon="9.278293994255062"><ele>892.6666666666666</ele><time>2026-04-06T14:47:55Z</time></trkpt><trkpt lat="44.74540822082892" lon="9.278299891314685"><ele>893.0</ele><time>2026-04-06T14:47:56Z</time></trkpt><trkpt lat="44.74548557624134" lon="9.278288091841379"><ele>893.3333333333333</ele><time>2026-04-06T14:47:57Z</time></trkpt><trkpt lat="44.74555338645823" lon="9.278243900800106"><ele>893.6666666666666</ele><time>2026-04-06T14:47:58Z</time></trkpt><trkpt lat="44.74561883008699" lon="9.27819089491643"><ele>894.0</ele><time>2026-04-06T14:47:59Z</time></trkpt><trkpt lat="44.74564285222025" lon="9.278055834946896"><ele>892.5</ele><time>2026-04-06T14:48:00Z</time></trkpt><trkpt lat="44.7456573034229" lon="9.277916546394508"><ele>891.0</ele><time>2026-04-06T14:48:01Z</time></trkpt><trkpt lat="44.74567090142936" lon="9.277749650303132"><ele>889.5</ele><time>2026-04-06T14:48:02Z</time></trkpt><trkpt lat="44.745695708860595" lon="9.277542856900304"><ele>888.0</ele><time>2026-04-06T14:48:03Z</time></trkpt><trkpt lat="44.74572229786674" lon="9.27730814445779"><ele>886.5999999999999</ele><time>2026-04-06T14:48:04Z</time></trkpt><trkpt lat="44.745751839420535" lon="9.277090596752842"><ele>885.1999999999999</ele><time>2026-04-06T14:48:05Z</time></trkpt><trkpt lat="44.74580584315548" lon="9.276976532469854"><ele>883.8</ele><time>2026-04-06T14:48:06Z</time></trkpt><trkpt lat="44.745841545292976" lon="9.2768824837508"><ele>882.4</ele><time>2026-04-06T14:48:07Z</time></trkpt><trkpt lat="44.745927084861506" lon="9.276834221660202"><ele>881.0</ele><time>2026-04-06T14:48:08Z</time></trkpt><trkpt lat="44.746036093619594" lon="9.276821975772576"><ele>882.0</ele><time>2026-04-06T14:48:09Z</time></trkpt><trkpt lat="44.74615919989385" lon="9.27687295564099"><ele>882.9999999999999</ele><time>2026-04-06T14:48:10Z</time></trkpt><trkpt lat="44.74626932885039" lon="9.276863636704164"><ele>883.9999999999999</ele><time>2026-04-06T14:48:11Z</time></trkpt><trkpt lat="44.74636243577559" lon="9.276814001092998"><ele>885.0</ele><time>2026-04-06T14:48:12Z</time></trkpt><trkpt lat="44.74642659184642" lon="9.276703536370603"><ele>886.0</ele><time>2026-04-06T14:48:13Z</time></trkpt><trkpt lat="44.74646986853957" lon="9.27655432633679"><ele>884.0</ele><time>2026-04-06T14:48:14Z</time></trkpt><trkpt lat="44.74650403859924" lon="9.276372112606944"><ele>882.0</ele><time>2026-04-06T14:48:14.999Z</time></trkpt><trkpt lat="44.746531154483804" lon="9.276175661218454"><ele>880.0</ele><time>2026-04-06T14:48:15.999Z</time></trkpt><trkpt lat="44.7465718638279" lon="9.275967824429731"><ele>878.0</ele><time>2026-04-06T14:48:16.999Z</time></trkpt><trkpt lat="44.74662702552296" lon="9.275779807358496"><ele>878.0</ele><time>2026-04-06T14:48:17.999Z</time></trkpt><trkpt lat="44.746701226875025" lon="9.275618669020707"><ele>878.0</ele><time>2026-04-06T14:48:18.999Z</time></trkpt><trkpt lat="44.746797351568446" lon="9.275485507013881"><ele>878.0</ele><time>2026-04-06T14:48:19.999Z</time></trkpt><trkpt lat="44.74690856913858" lon="9.275367813297171"><ele>878.0</ele><time>2026-04-06T14:48:20.999Z</time></trkpt><trkpt lat="44.74702510426369" lon="9.275252752435552"><ele>878.0</ele><time>2026-04-06T14:48:21.999Z</time></trkpt><trkpt lat="44.747135782118995" lon="9.275150865765832"><ele>878.0</ele><time>2026-04-06T14:48:22.999Z</time></trkpt><trkpt lat="44.747230350573076" lon="9.275061421884303"><ele>878.0</ele><time>2026-04-06T14:48:23.999Z</time></trkpt><trkpt lat="44.74730916279761" lon="9.274977543724313"><ele>878.0</ele><time>2026-04-06T14:48:24.999Z</time></trkpt><trkpt lat="44.747384738557955" lon="9.274898491666978"><ele>878.0</ele><time>2026-04-06T14:48:25.999Z</time></trkpt><trkpt lat="44.74745293301655" lon="9.274809694613692"><ele>877.4</ele><time>2026-04-06T14:48:26.999Z</time></trkpt><trkpt lat="44.74750444551885" lon="9.274696344831499"><ele>876.8</ele><time>2026-04-06T14:48:27.999Z</time></trkpt><trkpt lat="44.74753537278358" lon="9.274558079980805"><ele>876.2</ele><time>2026-04-06T14:48:28.999Z</time></trkpt><trkpt lat="44.74754575342934" lon="9.27441751688723"><ele>875.6</ele><time>2026-04-06T14:48:29.999Z</time></trkpt><trkpt lat="44.747543386370644" lon="9.274280343037796"><ele>875.0</ele><time>2026-04-06T14:48:30.999Z</time></trkpt><trkpt lat="44.74754749906847" lon="9.274139555412674"><ele>875.0</ele><time>2026-04-06T14:48:31.999Z</time></trkpt><trkpt lat="44.74755055329756" lon="9.2740011395492"><ele>875.0</ele><time>2026-04-06T14:48:32.999Z</time></trkpt><trkpt lat="44.74753711291986" lon="9.273852235340831"><ele>875.0</ele><time>2026-04-06T14:48:33.999Z</time></trkpt><trkpt lat="44.74749510213909" lon="9.273710779918936"><ele>875.0</ele><time>2026-04-06T14:48:34.999Z</time></trkpt><trkpt lat="44.74743957397819" lon="9.273589235846261"><ele>875.0</ele><time>2026-04-06T14:48:35.999Z</time></trkpt><trkpt lat="44.74738013391864" lon="9.273480466219873"><ele>875.6</ele><time>2026-04-06T14:48:36.999Z</time></trkpt><trkpt lat="44.747320221680724" lon="9.273375270278413"><ele>876.2</ele><time>2026-04-06T14:48:37.999Z</time></trkpt><trkpt lat="44.747250967344044" lon="9.273277403050304"><ele>876.8</ele><time>2026-04-06T14:48:38.999Z</time></trkpt><trkpt lat="44.747181989187865" lon="9.27319238309023"><ele>877.4</ele><time>2026-04-06T14:48:39.999Z</time></trkpt><trkpt lat="44.747099150319684" lon="9.273121858064494"><ele>878.0</ele><time>2026-04-06T14:48:40.999Z</time></trkpt><trkpt lat="44.747022273879516" lon="9.27305558133315"><ele>880.0</ele><time>2026-04-06T14:48:41.999Z</time></trkpt><trkpt lat="44.74695183976587" lon="9.272984026485043"><ele>882.0</ele><time>2026-04-06T14:48:42.999Z</time></trkpt><trkpt lat="44.74690232206075" lon="9.27289146876346"><ele>884.0</ele><time>2026-04-06T14:48:43.999Z</time></trkpt><trkpt lat="44.74688441068836" lon="9.27274965656351"><ele>886.0</ele><time>2026-04-06T14:48:44.999Z</time></trkpt><trkpt lat="44.74687635415088" lon="9.272599731765657"><ele>888.0</ele><time>2026-04-06T14:48:45.999Z</time></trkpt><trkpt lat="44.746870820827226" lon="9.272413879953133"><ele>878.3333333333333</ele><time>2026-04-06T14:48:46.999Z</time></trkpt><trkpt lat="44.74686647594011" lon="9.272203548492143"><ele>868.6666666666666</ele><time>2026-04-06T14:48:48Z</time></trkpt><trkpt lat="44.74685149842142" lon="9.271975949051619"><ele>859.0</ele><time>2026-04-06T14:48:49Z</time></trkpt><trkpt lat="44.746853663651606" lon="9.271760919986779"><ele>859.0</ele><time>2026-04-06T14:48:50Z</time></trkpt><trkpt lat="44.74685851201133" lon="9.271548458261162"><ele>859.0</ele><time>2026-04-06T14:48:51Z</time></trkpt><trkpt lat="44.74688020366006" lon="9.271328857810722"><ele>859.0</ele><time>2026-04-06T14:48:52Z</time></trkpt><trkpt lat="44.74691970492233" lon="9.271088152771398"><ele>862.3333333333333</ele><time>2026-04-06T14:48:53Z</time></trkpt><trkpt lat="44.746964621798845" lon="9.270836937331561"><ele>865.6666666666667</ele><time>2026-04-06T14:48:54Z</time></trkpt><trkpt lat="44.74700373854715" lon="9.270556534683863"><ele>869.0</ele><time>2026-04-06T14:48:55Z</time></trkpt><trkpt lat="44.74705532306142" lon="9.270220626389415"><ele>869.0</ele><time>2026-04-06T14:48:56Z</time></trkpt><trkpt lat="44.74711470871888" lon="9.269939846245242"><ele>869.0</ele><time>2026-04-06T14:48:57Z</time></trkpt><trkpt lat="44.7471647262154" lon="9.269694688790004"><ele>869.0</ele><time>2026-04-06T14:48:58Z</time></trkpt><trkpt lat="44.747210072458635" lon="9.269494887081827"><ele>866.5</ele><time>2026-04-06T14:48:59Z</time></trkpt><trkpt lat="44.747262785999155" lon="9.269310784040467"><ele>864.0</ele><time>2026-04-06T14:49:00Z</time></trkpt><trkpt lat="44.747340999848696" lon="9.26915116138933"><ele>861.5</ele><time>2026-04-06T14:49:01Z</time></trkpt><trkpt lat="44.747441126175616" lon="9.26901344445884"><ele>859.0</ele><time>2026-04-06T14:49:02Z</time></trkpt><trkpt lat="44.747552596446965" lon="9.268878768478393"><ele>856.6</ele><time>2026-04-06T14:49:03Z</time></trkpt><trkpt lat="44.747653512391295" lon="9.268763405545704"><ele>854.2</ele><time>2026-04-06T14:49:04Z</time></trkpt><trkpt lat="44.74773564956467" lon="9.268676007369507"><ele>851.8000000000001</ele><time>2026-04-06T14:49:05Z</time></trkpt><trkpt lat="44.747831503820834" lon="9.268629310317117"><ele>849.4000000000001</ele><time>2026-04-06T14:49:06Z</time></trkpt><trkpt lat="44.747928252604666" lon="9.268629258212098"><ele>847.0</ele><time>2026-04-06T14:49:07Z</time></trkpt><trkpt lat="44.74805741856037" lon="9.268633535595642"><ele>847.0</ele><time>2026-04-06T14:49:08Z</time></trkpt><trkpt lat="44.74822798617403" lon="9.26865898276848"><ele>847.0</ele><time>2026-04-06T14:49:09Z</time></trkpt><trkpt lat="44.74839378482555" lon="9.26868302003233"><ele>847.0</ele><time>2026-04-06T14:49:10Z</time></trkpt><trkpt lat="44.74858765746969" lon="9.268711950313007"><ele>846.3333333333333</ele><time>2026-04-06T14:49:11Z</time></trkpt><trkpt lat="44.74876796370702" lon="9.268741297410969"><ele>845.6666666666667</ele><time>2026-04-06T14:49:12Z</time></trkpt><trkpt lat="44.74892890644511" lon="9.268740371666757"><ele>845.0</ele><time>2026-04-06T14:49:13Z</time></trkpt><trkpt lat="44.74907308527223" lon="9.268735340633583"><ele>845.0</ele><time>2026-04-06T14:49:14Z</time></trkpt><trkpt lat="44.74922775221028" lon="9.26869710935577"><ele>845.0</ele><time>2026-04-06T14:49:15Z</time></trkpt><trkpt lat="44.74938268608561" lon="9.268628966025336"><ele>845.0</ele><time>2026-04-06T14:49:16Z</time></trkpt><trkpt lat="44.749532247503176" lon="9.268573650578993"><ele>843.3333333333334</ele><time>2026-04-06T14:49:17Z</time></trkpt><trkpt lat="44.74970293053913" lon="9.26860762512122"><ele>841.6666666666667</ele><time>2026-04-06T14:49:18Z</time></trkpt><trkpt lat="44.74989064871909" lon="9.268636985887744"><ele>840.0</ele><time>2026-04-06T14:49:19Z</time></trkpt><trkpt lat="44.750072808423724" lon="9.268638915331369"><ele>840.0</ele><time>2026-04-06T14:49:20Z</time></trkpt><trkpt lat="44.75026307168063" lon="9.26865345294353"><ele>840.0</ele><time>2026-04-06T14:49:21Z</time></trkpt><trkpt lat="44.75043057826709" lon="9.268657776268899"><ele>840.0</ele><time>2026-04-06T14:49:22Z</time></trkpt><trkpt lat="44.750582816165924" lon="9.268654414797458"><ele>840.0</ele><time>2026-04-06T14:49:23Z</time></trkpt><trkpt lat="44.750735282810396" lon="9.268704607466"><ele>840.0</ele><time>2026-04-06T14:49:24Z</time></trkpt><trkpt lat="44.75090607191997" lon="9.268733097680393"><ele>840.0</ele><time>2026-04-06T14:49:25Z</time></trkpt><trkpt lat="44.751084794479745" lon="9.268759373888697"><ele>842.0</ele><time>2026-04-06T14:49:26Z</time></trkpt><trkpt lat="44.75125220432293" lon="9.268732317593335"><ele>844.0</ele><time>2026-04-06T14:49:27Z</time></trkpt><trkpt lat="44.75138818509508" lon="9.26870470573229"><ele>846.0</ele><time>2026-04-06T14:49:28Z</time></trkpt><trkpt lat="44.75149731743578" lon="9.26867928808256"><ele>848.0</ele><time>2026-04-06T14:49:29Z</time></trkpt><trkpt lat="44.751588347932994" lon="9.268619798222524"><ele>848.0</ele><time>2026-04-06T14:49:30Z</time></trkpt><trkpt lat="44.7516717019196" lon="9.268517177951933"><ele>848.0</ele><time>2026-04-06T14:49:31Z</time></trkpt><trkpt lat="44.751736898698084" lon="9.268393560855513"><ele>848.0</ele><time>2026-04-06T14:49:32Z</time></trkpt><trkpt lat="44.75176916701182" lon="9.268251519241018"><ele>848.0</ele><time>2026-04-06T14:49:33Z</time></trkpt><trkpt lat="44.751769664374564" lon="9.268092817023328"><ele>848.0</ele><time>2026-04-06T14:49:34Z</time></trkpt><trkpt lat="44.751747750728725" lon="9.267924264317323"><ele>845.5</ele><time>2026-04-06T14:49:35Z</time></trkpt><trkpt lat="44.75172109026788" lon="9.267765126023919"><ele>843.0</ele><time>2026-04-06T14:49:36Z</time></trkpt><trkpt lat="44.751755915469495" lon="9.267612347877025"><ele>840.5</ele><time>2026-04-06T14:49:37Z</time></trkpt><trkpt lat="44.75180546301468" lon="9.267438941619389"><ele>838.0</ele><time>2026-04-06T14:49:38Z</time></trkpt><trkpt lat="44.75184634362277" lon="9.267249145895567"><ele>836.5</ele><time>2026-04-06T14:49:39Z</time></trkpt><trkpt lat="44.751878145188016" lon="9.267078620984138"><ele>835.0</ele><time>2026-04-06T14:49:40Z</time></trkpt><trkpt lat="44.751870162905625" lon="9.26690354164127"><ele>833.5</ele><time>2026-04-06T14:49:41Z</time></trkpt><trkpt lat="44.751836245406444" lon="9.266734591466593"><ele>832.0</ele><time>2026-04-06T14:49:42Z</time></trkpt><trkpt lat="44.75181626567273" lon="9.266577608191085"><ele>830.5</ele><time>2026-04-06T14:49:43Z</time></trkpt><trkpt lat="44.75186505426947" lon="9.266417785780158"><ele>829.0</ele><time>2026-04-06T14:49:44Z</time></trkpt><trkpt lat="44.751899909345745" lon="9.266206368342912"><ele>827.5</ele><time>2026-04-06T14:49:45Z</time></trkpt><trkpt lat="44.75195892027704" lon="9.265988910178724"><ele>826.0</ele><time>2026-04-06T14:49:46Z</time></trkpt><trkpt lat="44.75200263918432" lon="9.265805322285578"><ele>826.0</ele><time>2026-04-06T14:49:47Z</time></trkpt><trkpt lat="44.752044579487446" lon="9.26566354511518"><ele>826.0</ele><time>2026-04-06T14:49:48Z</time></trkpt><trkpt lat="44.75209513911098" lon="9.265548236957121"><ele>826.0</ele><time>2026-04-06T14:49:49Z</time></trkpt><trkpt lat="44.752167184290634" lon="9.26549112770318"><ele>826.0</ele><time>2026-04-06T14:49:50Z</time></trkpt><trkpt lat="44.75225881301018" lon="9.265488741464445"><ele>826.0</ele><time>2026-04-06T14:49:51Z</time></trkpt><trkpt lat="44.75235476361609" lon="9.26550756771415"><ele>826.0</ele><time>2026-04-06T14:49:52Z</time></trkpt><trkpt lat="44.75247529747825" lon="9.265557207798565"><ele>826.0</ele><time>2026-04-06T14:49:53Z</time></trkpt><trkpt lat="44.75263047583118" lon="9.265577325091742"><ele>826.0</ele><time>2026-04-06T14:49:54Z</time></trkpt><trkpt lat="44.7527919714737" lon="9.265634077263943"><ele>826.0</ele><time>2026-04-06T14:49:55Z</time></trkpt><trkpt lat="44.752960336303005" lon="9.265691627357093"><ele>828.5</ele><time>2026-04-06T14:49:56Z</time></trkpt><trkpt lat="44.7531131092419" lon="9.265716350282835"><ele>831.0</ele><time>2026-04-06T14:49:57Z</time></trkpt><trkpt lat="44.753255955573735" lon="9.265709716916172"><ele>833.5</ele><time>2026-04-06T14:49:58Z</time></trkpt><trkpt lat="44.75339228640562" lon="9.265684546353452"><ele>836.0</ele><time>2026-04-06T14:49:59Z</time></trkpt><trkpt lat="44.75352116210217" lon="9.265647667832983"><ele>836.5</ele><time>2026-04-06T14:50:00Z</time></trkpt><trkpt lat="44.75365834878891" lon="9.265619742097128"><ele>837.0</ele><time>2026-04-06T14:50:01Z</time></trkpt><trkpt lat="44.753797932455186" lon="9.26557818073701"><ele>837.5</ele><time>2026-04-06T14:50:02Z</time></trkpt><trkpt lat="44.753935763027876" lon="9.265544955928151"><ele>838.0</ele><time>2026-04-06T14:50:03Z</time></trkpt><trkpt lat="44.754076375686545" lon="9.265483730829315"><ele>837.5</ele><time>2026-04-06T14:50:04Z</time></trkpt><trkpt lat="44.75421079749785" lon="9.265429592183754"><ele>837.0</ele><time>2026-04-06T14:50:05Z</time></trkpt><trkpt lat="44.754335091998776" lon="9.26537915238192"><ele>836.5</ele><time>2026-04-06T14:50:06Z</time></trkpt><trkpt lat="44.75445345740496" lon="9.265331243027658"><ele>836.0</ele><time>2026-04-06T14:50:07Z</time></trkpt><trkpt lat="44.75455913327491" lon="9.26528433275602"><ele>836.0</ele><time>2026-04-06T14:50:08Z</time></trkpt><trkpt lat="44.75465175869328" lon="9.265215690839735"><ele>836.0</ele><time>2026-04-06T14:50:09Z</time></trkpt><trkpt lat="44.754714532629364" lon="9.265112816795652"><ele>836.0</ele><time>2026-04-06T14:50:10Z</time></trkpt><trkpt lat="44.75475159294649" lon="9.264976214817123"><ele>836.0</ele><time>2026-04-06T14:50:11Z</time></trkpt><trkpt lat="44.75476835135739" lon="9.26479567542017"><ele>836.0</ele><time>2026-04-06T14:50:12Z</time></trkpt><trkpt lat="44.754784134295484" lon="9.26458053156609"><ele>834.0</ele><time>2026-04-06T14:50:13Z</time></trkpt><trkpt lat="44.754798120003805" lon="9.26433667108301"><ele>832.0</ele><time>2026-04-06T14:50:14Z</time></trkpt><trkpt lat="44.75482288570768" lon="9.264117878656435"><ele>830.0</ele><time>2026-04-06T14:50:15Z</time></trkpt><trkpt lat="44.754850194850036" lon="9.263938099118725"><ele>830.0</ele><time>2026-04-06T14:50:16Z</time></trkpt><trkpt lat="44.7548494724141" lon="9.263761781617836"><ele>830.0</ele><time>2026-04-06T14:50:17Z</time></trkpt><trkpt lat="44.754806027221946" lon="9.263585146748142"><ele>830.0</ele><time>2026-04-06T14:50:18Z</time></trkpt><trkpt lat="44.75474711016721" lon="9.263425040773052"><ele>830.0</ele><time>2026-04-06T14:50:19Z</time></trkpt><trkpt lat="44.75472424850977" lon="9.263256959704451"><ele>829.75</ele><time>2026-04-06T14:50:20Z</time></trkpt><trkpt lat="44.75474721028116" lon="9.263093816145"><ele>829.5</ele><time>2026-04-06T14:50:21Z</time></trkpt><trkpt lat="44.75478157542473" lon="9.262907873459113"><ele>829.25</ele><time>2026-04-06T14:50:22Z</time></trkpt><trkpt lat="44.75481196775989" lon="9.262689028922921"><ele>829.0</ele><time>2026-04-06T14:50:23Z</time></trkpt><trkpt lat="44.75485796889398" lon="9.26249309638276"><ele>829.0</ele><time>2026-04-06T14:50:24Z</time></trkpt><trkpt lat="44.754883443261846" lon="9.262307379409627"><ele>829.0</ele><time>2026-04-06T14:50:25Z</time></trkpt><trkpt lat="44.75489304374658" lon="9.26212350483601"><ele>829.0</ele><time>2026-04-06T14:50:25.999Z</time></trkpt><trkpt lat="44.75487775187624" lon="9.261944110737826"><ele>829.0</ele><time>2026-04-06T14:50:26.999Z</time></trkpt><trkpt lat="44.75483768595708" lon="9.261775807660404"><ele>827.8000000000001</ele><time>2026-04-06T14:50:27.999Z</time></trkpt><trkpt lat="44.75480744335697" lon="9.261639116675665"><ele>826.6</ele><time>2026-04-06T14:50:28.999Z</time></trkpt><trkpt lat="44.75480947592564" lon="9.261507854524046"><ele>825.4</ele><time>2026-04-06T14:50:29.999Z</time></trkpt><trkpt lat="44.754883068087445" lon="9.261379864166342"><ele>824.2</ele><time>2026-04-06T14:50:30.999Z</time></trkpt><trkpt lat="44.754962362573835" lon="9.261223653558101"><ele>823.0</ele><time>2026-04-06T14:50:31.999Z</time></trkpt><trkpt lat="44.7550194273932" lon="9.261073102674814"><ele>821.75</ele><time>2026-04-06T14:50:32.999Z</time></trkpt><trkpt lat="44.75504701587792" lon="9.260921255622197"><ele>820.5</ele><time>2026-04-06T14:50:33.999Z</time></trkpt><trkpt lat="44.75504393056203" lon="9.260723283695778"><ele>819.25</ele><time>2026-04-06T14:50:34.999Z</time></trkpt><trkpt lat="44.75503561881021" lon="9.260519192537737"><ele>818.0</ele><time>2026-04-06T14:50:35.999Z</time></trkpt><trkpt lat="44.75503187996722" lon="9.260329199536894"><ele>817.5999999999999</ele><time>2026-04-06T14:50:36.999Z</time></trkpt><trkpt lat="44.755039822647824" lon="9.2601728337715"><ele>817.1999999999999</ele><time>2026-04-06T14:50:37.999Z</time></trkpt><trkpt lat="44.75506800133742" lon="9.26002981526227"><ele>816.8</ele><time>2026-04-06T14:50:38.999Z</time></trkpt><trkpt lat="44.75512194227955" lon="9.259907460928543"><ele>816.4</ele><time>2026-04-06T14:50:39.999Z</time></trkpt><trkpt lat="44.755222217593214" lon="9.259836288027302"><ele>816.0</ele><time>2026-04-06T14:50:40.999Z</time></trkpt><trkpt lat="44.75534418831685" lon="9.259753115307268"><ele>816.0</ele><time>2026-04-06T14:50:41.999Z</time></trkpt><trkpt lat="44.75546864598602" lon="9.259625763894537"><ele>816.0</ele><time>2026-04-06T14:50:42.999Z</time></trkpt><trkpt lat="44.7555844041125" lon="9.259481607311903"><ele>816.0</ele><time>2026-04-06T14:50:43.999Z</time></trkpt><trkpt lat="44.75568744761498" lon="9.259326732008528"><ele>816.0</ele><time>2026-04-06T14:50:44.999Z</time></trkpt><trkpt lat="44.75578420246107" lon="9.259179925643151"><ele>816.0</ele><time>2026-04-06T14:50:45.999Z</time></trkpt><trkpt lat="44.7558664454578" lon="9.259028697060007"><ele>816.0</ele><time>2026-04-06T14:50:46.999Z</time></trkpt><trkpt lat="44.75594212000958" lon="9.258876296269875"><ele>816.0</ele><time>2026-04-06T14:50:47.999Z</time></trkpt><trkpt lat="44.75600704707327" lon="9.258718733014408"><ele>817.0</ele><time>2026-04-06T14:50:48.999Z</time></trkpt><trkpt lat="44.75605713599357" lon="9.258552345911248"><ele>818.0</ele><time>2026-04-06T14:50:49.999Z</time></trkpt><trkpt lat="44.75611484947321" lon="9.258365221014483"><ele>819.0</ele><time>2026-04-06T14:50:50.999Z</time></trkpt><trkpt lat="44.75616446994119" lon="9.258176931445908"><ele>820.0</ele><time>2026-04-06T14:50:51.999Z</time></trkpt><trkpt lat="44.75619770113281" lon="9.257973683433043"><ele>820.0</ele><time>2026-04-06T14:50:52.999Z</time></trkpt><trkpt lat="44.756204877394495" lon="9.25774375872452"><ele>820.0</ele><time>2026-04-06T14:50:54Z</time></trkpt><trkpt lat="44.75619799822502" lon="9.25752466737833"><ele>820.0</ele><time>2026-04-06T14:50:55Z</time></trkpt><trkpt lat="44.75619477001867" lon="9.257345971550965"><ele>820.0</ele><time>2026-04-06T14:50:56Z</time></trkpt><trkpt lat="44.756236455273864" lon="9.257189883688373"><ele>814.75</ele><time>2026-04-06T14:50:57Z</time></trkpt><trkpt lat="44.75629426106063" lon="9.257052783599253"><ele>809.5</ele><time>2026-04-06T14:50:58Z</time></trkpt><trkpt lat="44.75637902686903" lon="9.256922282387285"><ele>804.25</ele><time>2026-04-06T14:50:59Z</time></trkpt><trkpt lat="44.75648100444958" lon="9.256758231129176"><ele>799.0</ele><time>2026-04-06T14:51:00Z</time></trkpt><trkpt lat="44.75661699157961" lon="9.256603950678596"><ele>799.0</ele><time>2026-04-06T14:51:01Z</time></trkpt><trkpt lat="44.75678846805343" lon="9.256491560971833"><ele>799.0</ele><time>2026-04-06T14:51:02Z</time></trkpt><trkpt lat="44.75696226845268" lon="9.256314423560648"><ele>799.0</ele><time>2026-04-06T14:51:03Z</time></trkpt><trkpt lat="44.757124877191536" lon="9.256107680421337"><ele>796.6666666666666</ele><time>2026-04-06T14:51:04Z</time></trkpt><trkpt lat="44.75728507629314" lon="9.255933149664118"><ele>794.3333333333333</ele><time>2026-04-06T14:51:05Z</time></trkpt><trkpt lat="44.757435037194284" lon="9.255782908654396"><ele>792.0</ele><time>2026-04-06T14:51:06Z</time></trkpt><trkpt lat="44.75756465873213" lon="9.25565511557762"><ele>792.25</ele><time>2026-04-06T14:51:07Z</time></trkpt><trkpt lat="44.757666355355155" lon="9.255541539302424"><ele>792.5</ele><time>2026-04-06T14:51:08Z</time></trkpt><trkpt lat="44.75773518931569" lon="9.255423831419966"><ele>792.75</ele><time>2026-04-06T14:51:09Z</time></trkpt><trkpt lat="44.7577799719327" lon="9.255287859695548"><ele>793.0</ele><time>2026-04-06T14:51:10Z</time></trkpt><trkpt lat="44.75779968412362" lon="9.255130845076303"><ele>793.0</ele><time>2026-04-06T14:51:11Z</time></trkpt><trkpt lat="44.757810148398136" lon="9.254958773310637"><ele>793.0</ele><time>2026-04-06T14:51:12Z</time></trkpt><trkpt lat="44.757812911691104" lon="9.254783269471753"><ele>793.0</ele><time>2026-04-06T14:51:13Z</time></trkpt><trkpt lat="44.757840141812174" lon="9.254625368034842"><ele>793.0</ele><time>2026-04-06T14:51:14Z</time></trkpt><trkpt lat="44.75790251308739" lon="9.25448924971276"><ele>789.75</ele><time>2026-04-06T14:51:15Z</time></trkpt><trkpt lat="44.75801351507145" lon="9.254420764732927"><ele>786.5</ele><time>2026-04-06T14:51:16Z</time></trkpt><trkpt lat="44.75812600781312" lon="9.254389548987286"><ele>783.25</ele><time>2026-04-06T14:51:17Z</time></trkpt><trkpt lat="44.75825805405091" lon="9.254329641086"><ele>780.0</ele><time>2026-04-06T14:51:18Z</time></trkpt><trkpt lat="44.75842370333049" lon="9.25428490322037"><ele>781.0</ele><time>2026-04-06T14:51:19Z</time></trkpt><trkpt lat="44.75859291693907" lon="9.254245097326264"><ele>782.0</ele><time>2026-04-06T14:51:20Z</time></trkpt><trkpt lat="44.758736488590245" lon="9.254222140305762"><ele>783.0</ele><time>2026-04-06T14:51:21Z</time></trkpt><trkpt lat="44.75887234329954" lon="9.254200355489532"><ele>783.0</ele><time>2026-04-06T14:51:22Z</time></trkpt><trkpt lat="44.75899156053697" lon="9.254146189727924"><ele>783.0</ele><time>2026-04-06T14:51:23Z</time></trkpt><trkpt lat="44.75908901317664" lon="9.254044750130497"><ele>783.0</ele><time>2026-04-06T14:51:24Z</time></trkpt><trkpt lat="44.75916917152719" lon="9.253913640404292"><ele>783.0</ele><time>2026-04-06T14:51:25Z</time></trkpt><trkpt lat="44.75924659028653" lon="9.253771616459078"><ele>783.3333333333333</ele><time>2026-04-06T14:51:26Z</time></trkpt><trkpt lat="44.759320021941285" lon="9.253583717847508"><ele>783.6666666666666</ele><time>2026-04-06T14:51:27Z</time></trkpt><trkpt lat="44.759401177547204" lon="9.253374393931074"><ele>784.0</ele><time>2026-04-06T14:51:28Z</time></trkpt><trkpt lat="44.759484732301665" lon="9.253129129031848"><ele>781.6666666666666</ele><time>2026-04-06T14:51:29Z</time></trkpt><trkpt lat="44.75957251897977" lon="9.252859091256685"><ele>779.3333333333333</ele><time>2026-04-06T14:51:30Z</time></trkpt><trkpt lat="44.75966401684937" lon="9.252574052470237"><ele>777.0</ele><time>2026-04-06T14:51:31Z</time></trkpt><trkpt lat="44.759749431973475" lon="9.252326877780543"><ele>774.6666666666667</ele><time>2026-04-06T14:51:32Z</time></trkpt><trkpt lat="44.75982379271253" lon="9.252113610938704"><ele>772.3333333333334</ele><time>2026-04-06T14:51:33Z</time></trkpt><trkpt lat="44.75989419407805" lon="9.25191393489303"><ele>770.0</ele><time>2026-04-06T14:51:34Z</time></trkpt><trkpt lat="44.75995310142127" lon="9.251744308461223"><ele>770.0</ele><time>2026-04-06T14:51:35Z</time></trkpt><trkpt lat="44.760010065989036" lon="9.251604120312997"><ele>770.0</ele><time>2026-04-06T14:51:36Z</time></trkpt><trkpt lat="44.76007536408454" lon="9.251528452609687"><ele>770.0</ele><time>2026-04-06T14:51:37Z</time></trkpt><trkpt lat="44.76016884028054" lon="9.251490847273379"><ele>770.0</ele><time>2026-04-06T14:51:38Z</time></trkpt><trkpt lat="44.760271179396746" lon="9.251494408170457"><ele>770.0</ele><time>2026-04-06T14:51:39Z</time></trkpt><trkpt lat="44.76038812842774" lon="9.251561398605745"><ele>768.5</ele><time>2026-04-06T14:51:40Z</time></trkpt><trkpt lat="44.76052563441517" lon="9.25163984187068"><ele>767.0</ele><time>2026-04-06T14:51:41Z</time></trkpt><trkpt lat="44.76065184106342" lon="9.251709380789478"><ele>765.5</ele><time>2026-04-06T14:51:42Z</time></trkpt><trkpt lat="44.760756473000015" lon="9.251764947282792"><ele>764.0</ele><time>2026-04-06T14:51:43Z</time></trkpt><trkpt lat="44.76083021997752" lon="9.251830136076784"><ele>764.0</ele><time>2026-04-06T14:51:44Z</time></trkpt><trkpt lat="44.760889765071774" lon="9.251943421063425"><ele>764.0</ele><time>2026-04-06T14:51:45Z</time></trkpt><trkpt lat="44.760920530553385" lon="9.252102041915371"><ele>764.0</ele><time>2026-04-06T14:51:46Z</time></trkpt><trkpt lat="44.76093862977308" lon="9.252280617912813"><ele>764.0</ele><time>2026-04-06T14:51:47Z</time></trkpt><trkpt lat="44.760977415039406" lon="9.252427387176015"><ele>762.5</ele><time>2026-04-06T14:51:48Z</time></trkpt><trkpt lat="44.76104847674104" lon="9.252553279563294"><ele>761.0</ele><time>2026-04-06T14:51:49Z</time></trkpt><trkpt lat="44.76114112810916" lon="9.2526613062447"><ele>759.5</ele><time>2026-04-06T14:51:50Z</time></trkpt><trkpt lat="44.76124630329304" lon="9.25276350990285"><ele>758.0</ele><time>2026-04-06T14:51:51Z</time></trkpt><trkpt lat="44.7613577427393" lon="9.252853700146636"><ele>758.0</ele><time>2026-04-06T14:51:52Z</time></trkpt><trkpt lat="44.76147179075252" lon="9.252919720184835"><ele>758.0</ele><time>2026-04-06T14:51:53Z</time></trkpt><trkpt lat="44.761596726279066" lon="9.252947696281106"><ele>758.0</ele><time>2026-04-06T14:51:54Z</time></trkpt><trkpt lat="44.761739755808165" lon="9.25294216737208"><ele>758.0</ele><time>2026-04-06T14:51:55Z</time></trkpt><trkpt lat="44.761888764110445" lon="9.252894166183493"><ele>760.0</ele><time>2026-04-06T14:51:56Z</time></trkpt><trkpt lat="44.762033006146204" lon="9.252802319630401"><ele>762.0</ele><time>2026-04-06T14:51:57Z</time></trkpt><trkpt lat="44.762169915121724" lon="9.252677765982025"><ele>764.0</ele><time>2026-04-06T14:51:58Z</time></trkpt><trkpt lat="44.76229328878839" lon="9.25252528612511"><ele>764.0</ele><time>2026-04-06T14:51:59Z</time></trkpt><trkpt lat="44.76242578681129" lon="9.25234446485108"><ele>764.0</ele><time>2026-04-06T14:52:00Z</time></trkpt><trkpt lat="44.76254466768652" lon="9.252160673497462"><ele>764.0</ele><time>2026-04-06T14:52:01Z</time></trkpt><trkpt lat="44.7626519503835" lon="9.252002479721888"><ele>762.25</ele><time>2026-04-06T14:52:02Z</time></trkpt><trkpt lat="44.76276495027161" lon="9.251874645179262"><ele>760.5</ele><time>2026-04-06T14:52:03Z</time></trkpt><trkpt lat="44.762864474469296" lon="9.251783893611254"><ele>758.75</ele><time>2026-04-06T14:52:04Z</time></trkpt><trkpt lat="44.762989631525734" lon="9.251752438885852"><ele>757.0</ele><time>2026-04-06T14:52:05Z</time></trkpt><trkpt lat="44.76309926345668" lon="9.25178283331108"><ele>757.0</ele><time>2026-04-06T14:52:06Z</time></trkpt><trkpt lat="44.76321233677696" lon="9.251846070746087"><ele>757.0</ele><time>2026-04-06T14:52:07Z</time></trkpt><trkpt lat="44.763336610787256" lon="9.251941595521192"><ele>757.0</ele><time>2026-04-06T14:52:08Z</time></trkpt><trkpt lat="44.76348015111663" lon="9.252036760187524"><ele>757.0</ele><time>2026-04-06T14:52:09Z</time></trkpt><trkpt lat="44.76362468221455" lon="9.252105709687767"><ele>757.0</ele><time>2026-04-06T14:52:10Z</time></trkpt><trkpt lat="44.76377319387345" lon="9.252146425511526"><ele>757.0</ele><time>2026-04-06T14:52:11Z</time></trkpt><trkpt lat="44.7639259142426" lon="9.252156210529948"><ele>757.0</ele><time>2026-04-06T14:52:12Z</time></trkpt><trkpt lat="44.764090488142244" lon="9.25214516851441"><ele>757.0</ele><time>2026-04-06T14:52:13Z</time></trkpt><trkpt lat="44.76425759729862" lon="9.252123706768417"><ele>757.0</ele><time>2026-04-06T14:52:14Z</time></trkpt><trkpt lat="44.76440753015007" lon="9.252106366225414"><ele>757.0</ele><time>2026-04-06T14:52:15Z</time></trkpt><trkpt lat="44.76456270358147" lon="9.252113521338662"><ele>759.0</ele><time>2026-04-06T14:52:16Z</time></trkpt><trkpt lat="44.7647199087861" lon="9.252150514970277"><ele>761.0</ele><time>2026-04-06T14:52:17Z</time></trkpt><trkpt lat="44.764871828331906" lon="9.252212812538367"><ele>763.0</ele><time>2026-04-06T14:52:18Z</time></trkpt><trkpt lat="44.765021410828254" lon="9.25229339249814"><ele>761.6666666666667</ele><time>2026-04-06T14:52:19Z</time></trkpt><trkpt lat="44.76518092220572" lon="9.252393451554045"><ele>760.3333333333334</ele><time>2026-04-06T14:52:20Z</time></trkpt><trkpt lat="44.76535635455033" lon="9.252500673869172"><ele>759.0</ele><time>2026-04-06T14:52:21Z</time></trkpt><trkpt lat="44.7655514173719" lon="9.252619889605226"><ele>759.0</ele><time>2026-04-06T14:52:22Z</time></trkpt><trkpt lat="44.765744194486864" lon="9.252740623537647"><ele>759.0</ele><time>2026-04-06T14:52:22.999Z</time></trkpt><trkpt lat="44.76590824735908" lon="9.25284849365006"><ele>759.0</ele><time>2026-04-06T14:52:23.999Z</time></trkpt><trkpt lat="44.76604023896749" lon="9.252934703648782"><ele>756.5</ele><time>2026-04-06T14:52:24.999Z</time></trkpt><trkpt lat="44.76616278415179" lon="9.253016471826442"><ele>754.0</ele><time>2026-04-06T14:52:25.999Z</time></trkpt><trkpt lat="44.766282689733984" lon="9.253119414182388"><ele>751.5</ele><time>2026-04-06T14:52:26.999Z</time></trkpt><trkpt lat="44.766388535027595" lon="9.25326220947995"><ele>749.0</ele><time>2026-04-06T14:52:27.999Z</time></trkpt><trkpt lat="44.76647139203626" lon="9.253443710343271"><ele>749.0</ele><time>2026-04-06T14:52:28.999Z</time></trkpt><trkpt lat="44.76654095543956" lon="9.253635340965136"><ele>749.0</ele><time>2026-04-06T14:52:29.999Z</time></trkpt><trkpt lat="44.7666085413962" lon="9.253845193367274"><ele>749.0</ele><time>2026-04-06T14:52:30.999Z</time></trkpt><trkpt lat="44.766681817516094" lon="9.254065810949376"><ele>753.3333333333333</ele><time>2026-04-06T14:52:31.999Z</time></trkpt><trkpt lat="44.76675392917422" lon="9.254297448002808"><ele>757.6666666666666</ele><time>2026-04-06T14:52:32.999Z</time></trkpt><trkpt lat="44.76681252305516" lon="9.254531021174897"><ele>762.0</ele><time>2026-04-06T14:52:33.999Z</time></trkpt><trkpt lat="44.76686332750636" lon="9.254775397089878"><ele>751.6666666666666</ele><time>2026-04-06T14:52:34.999Z</time></trkpt><trkpt lat="44.76689793180638" lon="9.255026232935709"><ele>741.3333333333333</ele><time>2026-04-06T14:52:35.999Z</time></trkpt><trkpt lat="44.766927747174684" lon="9.255280582066318"><ele>731.0</ele><time>2026-04-06T14:52:36.999Z</time></trkpt><trkpt lat="44.7669370083288" lon="9.255529514119765"><ele>731.6666666666666</ele><time>2026-04-06T14:52:37.999Z</time></trkpt><trkpt lat="44.767043005173086" lon="9.255823086034882"><ele>732.3333333333334</ele><time>2026-04-06T14:52:38.999Z</time></trkpt><trkpt lat="44.767072380992225" lon="9.256078010315955"><ele>733.0</ele><time>2026-04-06T14:52:39.999Z</time></trkpt><trkpt lat="44.76710831961918" lon="9.256310360813822"><ele>734.3333333333334</ele><time>2026-04-06T14:52:40.999Z</time></trkpt><trkpt lat="44.76714136997906" lon="9.256532818258721"><ele>735.6666666666666</ele><time>2026-04-06T14:52:41.999Z</time></trkpt><trkpt lat="44.76719031346102" lon="9.256729774980224"><ele>737.0</ele><time>2026-04-06T14:52:42.999Z</time></trkpt><trkpt lat="44.76726083531134" lon="9.256906491742416"><ele>737.0</ele><time>2026-04-06T14:52:43.999Z</time></trkpt><trkpt lat="44.76734881452317" lon="9.257057465419132"><ele>737.0</ele><time>2026-04-06T14:52:44.999Z</time></trkpt><trkpt lat="44.76744920167921" lon="9.25719658669242"><ele>737.0</ele><time>2026-04-06T14:52:45.999Z</time></trkpt><trkpt lat="44.767566202186366" lon="9.257312365779612"><ele>737.0</ele><time>2026-04-06T14:52:46.999Z</time></trkpt><trkpt lat="44.767691702631076" lon="9.257418140501624"><ele>732.0</ele><time>2026-04-06T14:52:47.999Z</time></trkpt><trkpt lat="44.76779000560982" lon="9.25751984732143"><ele>727.0</ele><time>2026-04-06T14:52:48.999Z</time></trkpt><trkpt lat="44.76786319848998" lon="9.25764795366102"><ele>722.0</ele><time>2026-04-06T14:52:49.999Z</time></trkpt><trkpt lat="44.767882864801386" lon="9.257804907761445"><ele>717.0</ele><time>2026-04-06T14:52:50.999Z</time></trkpt><trkpt lat="44.76787706114296" lon="9.25794422643683"><ele>717.0</ele><time>2026-04-06T14:52:51.999Z</time></trkpt><trkpt lat="44.767870909286835" lon="9.25810429807256"><ele>717.0</ele><time>2026-04-06T14:52:52.999Z</time></trkpt><trkpt lat="44.76785615199062" lon="9.258298993085736"><ele>717.0</ele><time>2026-04-06T14:52:53.999Z</time></trkpt><trkpt lat="44.76784338089507" lon="9.258503925968695"><ele>717.0</ele><time>2026-04-06T14:52:54.999Z</time></trkpt><trkpt lat="44.767847820138414" lon="9.258678922475086"><ele>717.0</ele><time>2026-04-06T14:52:55.999Z</time></trkpt><trkpt lat="44.767856665838856" lon="9.258821342826948"><ele>717.0</ele><time>2026-04-06T14:52:56.999Z</time></trkpt><trkpt lat="44.767896038982684" lon="9.25895156045598"><ele>717.0</ele><time>2026-04-06T14:52:57.999Z</time></trkpt><trkpt lat="44.767953720528695" lon="9.259074248648094"><ele>717.0</ele><time>2026-04-06T14:52:58.999Z</time></trkpt><trkpt lat="44.76802566747507" lon="9.25920322784708"><ele>717.0</ele><time>2026-04-06T14:53:00Z</time></trkpt><trkpt lat="44.768092559845456" lon="9.25930838351823"><ele>718.8</ele><time>2026-04-06T14:53:01Z</time></trkpt><trkpt lat="44.76817397669349" lon="9.2593702009422"><ele>720.6</ele><time>2026-04-06T14:53:02Z</time></trkpt><trkpt lat="44.76826470364184" lon="9.259397548488604"><ele>722.4</ele><time>2026-04-06T14:53:03Z</time></trkpt><trkpt lat="44.768371156777384" lon="9.259382594389193"><ele>724.1999999999999</ele><time>2026-04-06T14:53:04Z</time></trkpt><trkpt lat="44.76849569657528" lon="9.259316911781857"><ele>726.0</ele><time>2026-04-06T14:53:05Z</time></trkpt><trkpt lat="44.76861350203436" lon="9.25924241022206"><ele>727.25</ele><time>2026-04-06T14:53:06Z</time></trkpt><trkpt lat="44.76872090421358" lon="9.259205760878206"><ele>728.5</ele><time>2026-04-06T14:53:07Z</time></trkpt><trkpt lat="44.768831164939385" lon="9.259207326027795"><ele>729.75</ele><time>2026-04-06T14:53:08Z</time></trkpt><trkpt lat="44.768954413458566" lon="9.25923974975078"><ele>731.0</ele><time>2026-04-06T14:53:09Z</time></trkpt><trkpt lat="44.769075751392805" lon="9.25928086884158"><ele>731.0</ele><time>2026-04-06T14:53:10Z</time></trkpt><trkpt lat="44.76917698644114" lon="9.259318010277566"><ele>731.0</ele><time>2026-04-06T14:53:11Z</time></trkpt><trkpt lat="44.769261144260604" lon="9.25933165747081"><ele>731.0</ele><time>2026-04-06T14:53:12Z</time></trkpt><trkpt lat="44.76933584912675" lon="9.259320071192791"><ele>731.0</ele><time>2026-04-06T14:53:13Z</time></trkpt><trkpt lat="44.76941274466914" lon="9.259299945351552"><ele>731.0</ele><time>2026-04-06T14:53:14Z</time></trkpt><trkpt lat="44.76949643927929" lon="9.259272811370344"><ele>731.0</ele><time>2026-04-06T14:53:15Z</time></trkpt><trkpt lat="44.7695752466835" lon="9.259229241043968"><ele>732.0</ele><time>2026-04-06T14:53:16Z</time></trkpt><trkpt lat="44.76964718090315" lon="9.259162860399123"><ele>733.0</ele><time>2026-04-06T14:53:17Z</time></trkpt><trkpt lat="44.76971753307676" lon="9.259094385485522"><ele>734.0</ele><time>2026-04-06T14:53:18Z</time></trkpt><trkpt lat="44.7697877399081" lon="9.25902479282525"><ele>735.0</ele><time>2026-04-06T14:53:19Z</time></trkpt><trkpt lat="44.76985685376521" lon="9.258957713243573"><ele>736.0</ele><time>2026-04-06T14:53:20Z</time></trkpt><trkpt lat="44.76992413812165" lon="9.25889262376481"><ele>737.0</ele><time>2026-04-06T14:53:21Z</time></trkpt><trkpt lat="44.76997615130134" lon="9.25882139859647"><ele>737.0</ele><time>2026-04-06T14:53:22Z</time></trkpt><trkpt lat="44.770003251379244" lon="9.258729088739234"><ele>737.0</ele><time>2026-04-06T14:53:23Z</time></trkpt><trkpt lat="44.77001038258071" lon="9.258629826040645"><ele>737.0</ele><time>2026-04-06T14:53:24Z</time></trkpt><trkpt lat="44.77000279552622" lon="9.25852926384746"><ele>737.0</ele><time>2026-04-06T14:53:25Z</time></trkpt><trkpt lat="44.769984876928994" lon="9.258416427206981"><ele>737.0</ele><time>2026-04-06T14:53:26Z</time></trkpt><trkpt lat="44.7699604796071" lon="9.258295062039435"><ele>737.0</ele><time>2026-04-06T14:53:27Z</time></trkpt><trkpt lat="44.76993266702691" lon="9.258173353375204"><ele>735.6</ele><time>2026-04-06T14:53:28Z</time></trkpt><trkpt lat="44.76991076812313" lon="9.25804148396832"><ele>734.2</ele><time>2026-04-06T14:53:29Z</time></trkpt><trkpt lat="44.76991464543288" lon="9.257903026295692"><ele>732.8</ele><time>2026-04-06T14:53:30Z</time></trkpt><trkpt lat="44.76994497136116" lon="9.257761902615847"><ele>731.4</ele><time>2026-04-06T14:53:31Z</time></trkpt><trkpt lat="44.76999839647714" lon="9.257626875967688"><ele>730.0</ele><time>2026-04-06T14:53:32Z</time></trkpt><trkpt lat="44.770065707869946" lon="9.257501829610842"><ele>730.0</ele><time>2026-04-06T14:53:33Z</time></trkpt><trkpt lat="44.77014463271074" lon="9.257390067129556"><ele>730.0</ele><time>2026-04-06T14:53:34Z</time></trkpt><trkpt lat="44.77023358286262" lon="9.257285830749876"><ele>730.0</ele><time>2026-04-06T14:53:35Z</time></trkpt><trkpt lat="44.77032968430081" lon="9.257204681927783"><ele>730.0</ele><time>2026-04-06T14:53:36Z</time></trkpt><trkpt lat="44.77042302904214" lon="9.257128219822423"><ele>730.0</ele><time>2026-04-06T14:53:37Z</time></trkpt><trkpt lat="44.77050544315098" lon="9.2570428709166"><ele>730.0</ele><time>2026-04-06T14:53:38Z</time></trkpt><trkpt lat="44.7705906028589" lon="9.25695446585342"><ele>730.0</ele><time>2026-04-06T14:53:39Z</time></trkpt><trkpt lat="44.77067914006165" lon="9.25686203140043"><ele>730.0</ele><time>2026-04-06T14:53:40Z</time></trkpt><trkpt lat="44.77077290096715" lon="9.256775895726319"><ele>730.0</ele><time>2026-04-06T14:53:41Z</time></trkpt><trkpt lat="44.770866100329" lon="9.256718542055127"><ele>730.0</ele><time>2026-04-06T14:53:42Z</time></trkpt><trkpt lat="44.770960284329625" lon="9.256697249839371"><ele>730.0</ele><time>2026-04-06T14:53:43Z</time></trkpt><trkpt lat="44.77106790481667" lon="9.256719274655065"><ele>730.0</ele><time>2026-04-06T14:53:44Z</time></trkpt><trkpt lat="44.77116702394784" lon="9.256809759851901"><ele>730.0</ele><time>2026-04-06T14:53:45Z</time></trkpt><trkpt lat="44.771302631282424" lon="9.256898871634384"><ele>730.0</ele><time>2026-04-06T14:53:46Z</time></trkpt><trkpt lat="44.77147142841437" lon="9.257007614190757"><ele>730.0</ele><time>2026-04-06T14:53:47Z</time></trkpt><trkpt lat="44.77162990127106" lon="9.257087106094692"><ele>730.0</ele><time>2026-04-06T14:53:48Z</time></trkpt><trkpt lat="44.77178074325989" lon="9.257106456184856"><ele>730.0</ele><time>2026-04-06T14:53:49Z</time></trkpt><trkpt lat="44.77192980096764" lon="9.257096547219009"><ele>730.0</ele><time>2026-04-06T14:53:50Z</time></trkpt><trkpt lat="44.77210245027024" lon="9.25706549553141"><ele>730.0</ele><time>2026-04-06T14:53:51Z</time></trkpt><trkpt lat="44.77228634850704" lon="9.257024778853717"><ele>730.0</ele><time>2026-04-06T14:53:52Z</time></trkpt><trkpt lat="44.772448427637954" lon="9.256991822008851"><ele>730.0</ele><time>2026-04-06T14:53:53Z</time></trkpt><trkpt lat="44.7725826891436" lon="9.256972625864707"><ele>730.0</ele><time>2026-04-06T14:53:54Z</time></trkpt><trkpt lat="44.77270951549071" lon="9.256981587466395"><ele>730.0</ele><time>2026-04-06T14:53:55Z</time></trkpt><trkpt lat="44.77281316188738" lon="9.257071975352542"><ele>730.0</ele><time>2026-04-06T14:53:56Z</time></trkpt><trkpt lat="44.77293397602435" lon="9.257151930767225"><ele>728.6666666666667</ele><time>2026-04-06T14:53:57Z</time></trkpt><trkpt lat="44.773076733750855" lon="9.257210806615552"><ele>727.3333333333334</ele><time>2026-04-06T14:53:58Z</time></trkpt><trkpt lat="44.77323375746159" lon="9.257275815730601"><ele>726.0</ele><time>2026-04-06T14:53:59Z</time></trkpt><trkpt lat="44.77338000176881" lon="9.25732199467212"><ele>729.0</ele><time>2026-04-06T14:54:00Z</time></trkpt><trkpt lat="44.77351804673649" lon="9.257353537664283"><ele>732.0</ele><time>2026-04-06T14:54:01Z</time></trkpt><trkpt lat="44.77364767073794" lon="9.257373558571665"><ele>735.0</ele><time>2026-04-06T14:54:02Z</time></trkpt><trkpt lat="44.773768638327525" lon="9.257370204575457"><ele>738.0</ele><time>2026-04-06T14:54:03Z</time></trkpt><trkpt lat="44.77388505057512" lon="9.257340664525875"><ele>738.0</ele><time>2026-04-06T14:54:04Z</time></trkpt><trkpt lat="44.77398929302975" lon="9.257292470553384"><ele>738.0</ele><time>2026-04-06T14:54:05Z</time></trkpt><trkpt lat="44.774085521209074" lon="9.2572148157475"><ele>738.0</ele><time>2026-04-06T14:54:06Z</time></trkpt><trkpt lat="44.774171142876966" lon="9.257111829016681"><ele>738.0</ele><time>2026-04-06T14:54:07Z</time></trkpt><trkpt lat="44.774233556288905" lon="9.256996338524788"><ele>738.0</ele><time>2026-04-06T14:54:08Z</time></trkpt><trkpt lat="44.774275625118044" lon="9.2568628379802"><ele>737.0</ele><time>2026-04-06T14:54:09Z</time></trkpt><trkpt lat="44.774305966624915" lon="9.256707108832845"><ele>736.0</ele><time>2026-04-06T14:54:10Z</time></trkpt><trkpt lat="44.77430375400046" lon="9.256536566850063"><ele>735.0</ele><time>2026-04-06T14:54:11Z</time></trkpt><trkpt lat="44.77429241171495" lon="9.256361127673113"><ele>734.0</ele><time>2026-04-06T14:54:12Z</time></trkpt><trkpt lat="44.77427560583706" lon="9.256155249034364"><ele>732.6666666666666</ele><time>2026-04-06T14:54:13Z</time></trkpt><trkpt lat="44.77425371580249" lon="9.255943013788261"><ele>731.3333333333334</ele><time>2026-04-06T14:54:14Z</time></trkpt><trkpt lat="44.774226994817354" lon="9.255728843446812"><ele>730.0</ele><time>2026-04-06T14:54:15Z</time></trkpt><trkpt lat="44.77419519171697" lon="9.255507168567167"><ele>730.0</ele><time>2026-04-06T14:54:16Z</time></trkpt><trkpt lat="44.77415208959706" lon="9.255328244580868"><ele>730.0</ele><time>2026-04-06T14:54:17Z</time></trkpt><trkpt lat="44.77412100666642" lon="9.255181614188107"><ele>730.0</ele><time>2026-04-06T14:54:18Z</time></trkpt><trkpt lat="44.774123980752684" lon="9.255033199129482"><ele>730.0</ele><time>2026-04-06T14:54:19Z</time></trkpt><trkpt lat="44.77416188031067" lon="9.254884050759845"><ele>729.5</ele><time>2026-04-06T14:54:20Z</time></trkpt><trkpt lat="44.77422563548303" lon="9.254734579506273"><ele>729.0</ele><time>2026-04-06T14:54:21Z</time></trkpt><trkpt lat="44.774298878124725" lon="9.254571932025987"><ele>728.5</ele><time>2026-04-06T14:54:22Z</time></trkpt><trkpt lat="44.77435916657656" lon="9.254410448396102"><ele>728.0</ele><time>2026-04-06T14:54:23Z</time></trkpt><trkpt lat="44.77437823190779" lon="9.254229471565521"><ele>727.3333333333333</ele><time>2026-04-06T14:54:24Z</time></trkpt><trkpt lat="44.77436408444413" lon="9.254009193881675"><ele>726.6666666666666</ele><time>2026-04-06T14:54:25Z</time></trkpt><trkpt lat="44.774332951635884" lon="9.253757884681361"><ele>726.0</ele><time>2026-04-06T14:54:26Z</time></trkpt><trkpt lat="44.77430207570599" lon="9.25352289526291"><ele>726.0</ele><time>2026-04-06T14:54:27Z</time></trkpt><trkpt lat="44.77428898028667" lon="9.25332736997999"><ele>726.0</ele><time>2026-04-06T14:54:28Z</time></trkpt><trkpt lat="44.77430149191219" lon="9.253147846190364"><ele>726.0</ele><time>2026-04-06T14:54:29Z</time></trkpt><trkpt lat="44.774336094602084" lon="9.252970202148816"><ele>726.0</ele><time>2026-04-06T14:54:30Z</time></trkpt><trkpt lat="44.77437822209009" lon="9.252806926435774"><ele>729.25</ele><time>2026-04-06T14:54:30.999Z</time></trkpt><trkpt lat="44.77442143726065" lon="9.252661752416106"><ele>732.5</ele><time>2026-04-06T14:54:31.999Z</time></trkpt><trkpt lat="44.77448560273948" lon="9.25252404756971"><ele>735.75</ele><time>2026-04-06T14:54:32.999Z</time></trkpt><trkpt lat="44.7745723696152" lon="9.252400272993663"><ele>739.0</ele><time>2026-04-06T14:54:33.999Z</time></trkpt><trkpt lat="44.77468445553762" lon="9.252292331846773"><ele>738.0</ele><time>2026-04-06T14:54:34.999Z</time></trkpt><trkpt lat="44.77479858777937" lon="9.252182059435755"><ele>737.0</ele><time>2026-04-06T14:54:35.999Z</time></trkpt><trkpt lat="44.77490737137888" lon="9.252076946332348"><ele>736.0</ele><time>2026-04-06T14:54:36.999Z</time></trkpt><trkpt lat="44.77504443550426" lon="9.252033128364376"><ele>735.0</ele><time>2026-04-06T14:54:37.999Z</time></trkpt><trkpt lat="44.77519153879879" lon="9.25198821519017"><ele>735.0</ele><time>2026-04-06T14:54:38.999Z</time></trkpt><trkpt lat="44.77536737124021" lon="9.251914138828646"><ele>735.0</ele><time>2026-04-06T14:54:39.999Z</time></trkpt><trkpt lat="44.77554258690452" lon="9.251792107727436"><ele>735.0</ele><time>2026-04-06T14:54:40.999Z</time></trkpt><trkpt lat="44.775719076747805" lon="9.2516773927876"><ele>735.0</ele><time>2026-04-06T14:54:41.999Z</time></trkpt><trkpt lat="44.775864365971636" lon="9.251553566836359"><ele>735.0</ele><time>2026-04-06T14:54:42.999Z</time></trkpt><trkpt lat="44.77599194045732" lon="9.251434571777514"><ele>735.0</ele><time>2026-04-06T14:54:43.999Z</time></trkpt><trkpt lat="44.77611209368621" lon="9.25130330302633"><ele>734.0</ele><time>2026-04-06T14:54:44.999Z</time></trkpt><trkpt lat="44.776221953654094" lon="9.251150176576214"><ele>733.0</ele><time>2026-04-06T14:54:45.999Z</time></trkpt><trkpt lat="44.77632041473335" lon="9.250965495291197"><ele>732.0</ele><time>2026-04-06T14:54:46.999Z</time></trkpt><trkpt lat="44.776402263301655" lon="9.25079223291761"><ele>732.0</ele><time>2026-04-06T14:54:47.999Z</time></trkpt><trkpt lat="44.77647264242794" lon="9.250654312978595"><ele>732.0</ele><time>2026-04-06T14:54:48.999Z</time></trkpt><trkpt lat="44.776569449812236" lon="9.250579743811661"><ele>732.0</ele><time>2026-04-06T14:54:49.999Z</time></trkpt><trkpt lat="44.776672983616585" lon="9.250544234898172"><ele>732.0</ele><time>2026-04-06T14:54:50.999Z</time></trkpt><trkpt lat="44.77678792010909" lon="9.250605782374308"><ele>733.25</ele><time>2026-04-06T14:54:51.999Z</time></trkpt><trkpt lat="44.77693232629887" lon="9.250648819607408"><ele>734.5</ele><time>2026-04-06T14:54:52.999Z</time></trkpt><trkpt lat="44.77707814590401" lon="9.250669870284822"><ele>735.75</ele><time>2026-04-06T14:54:53.999Z</time></trkpt><trkpt lat="44.7772170399867" lon="9.250616387944712"><ele>737.0</ele><time>2026-04-06T14:54:54.999Z</time></trkpt><trkpt lat="44.777356749166955" lon="9.250524480711968"><ele>738.0</ele><time>2026-04-06T14:54:55.999Z</time></trkpt><trkpt lat="44.77749652747138" lon="9.25041466575125"><ele>739.0</ele><time>2026-04-06T14:54:56.999Z</time></trkpt><trkpt lat="44.7776201108469" lon="9.250304604786775"><ele>740.0</ele><time>2026-04-06T14:54:57.999Z</time></trkpt><trkpt lat="44.77772299928403" lon="9.25018349931853"><ele>741.0</ele><time>2026-04-06T14:54:58.999Z</time></trkpt><trkpt lat="44.77781417409372" lon="9.250027497893065"><ele>741.0</ele><time>2026-04-06T14:54:59.999Z</time></trkpt><trkpt lat="44.77790386958382" lon="9.249842762291134"><ele>741.0</ele><time>2026-04-06T14:55:00.999Z</time></trkpt><trkpt lat="44.77799643641709" lon="9.249648045682992"><ele>741.0</ele><time>2026-04-06T14:55:01.999Z</time></trkpt><trkpt lat="44.77807778089474" lon="9.249471145796438"><ele>738.5</ele><time>2026-04-06T14:55:02.999Z</time></trkpt><trkpt lat="44.778163072282595" lon="9.249301706515713"><ele>736.0</ele><time>2026-04-06T14:55:03.999Z</time></trkpt><trkpt lat="44.77819237853539" lon="9.249089145033865"><ele>733.5</ele><time>2026-04-06T14:55:04.999Z</time></trkpt><trkpt lat="44.77821877611448" lon="9.248897826951328"><ele>731.0</ele><time>2026-04-06T14:55:06Z</time></trkpt><trkpt lat="44.77823927134559" lon="9.248754499468594"><ele>729.5999999999999</ele><time>2026-04-06T14:55:07Z</time></trkpt><trkpt lat="44.77828461079818" lon="9.24863945965033"><ele>728.2</ele><time>2026-04-06T14:55:08Z</time></trkpt><trkpt lat="44.77836918793627" lon="9.248556224844538"><ele>726.8</ele><time>2026-04-06T14:55:09Z</time></trkpt><trkpt lat="44.77848955373053" lon="9.24852149835235"><ele>725.4000000000001</ele><time>2026-04-06T14:55:10Z</time></trkpt><trkpt lat="44.7786039351081" lon="9.248503516578927"><ele>724.0</ele><time>2026-04-06T14:55:11Z</time></trkpt><trkpt lat="44.77866741688314" lon="9.248438137192062"><ele>724.0</ele><time>2026-04-06T14:55:12Z</time></trkpt><trkpt lat="44.77868942716013" lon="9.24833212975993"><ele>724.0</ele><time>2026-04-06T14:55:13Z</time></trkpt><trkpt lat="44.7786968110389" lon="9.248230433625508"><ele>724.0</ele><time>2026-04-06T14:55:14Z</time></trkpt><trkpt lat="44.77862593482066" lon="9.248138801226538"><ele>724.0</ele><time>2026-04-06T14:55:15Z</time></trkpt><trkpt lat="44.778547625332536" lon="9.248093683466283"><ele>724.0</ele><time>2026-04-06T14:55:16Z</time></trkpt><trkpt lat="44.77845202690425" lon="9.248109237173288"><ele>724.0</ele><time>2026-04-06T14:55:17Z</time></trkpt><trkpt lat="44.77835581776449" lon="9.248165721518372"><ele>722.0</ele><time>2026-04-06T14:55:18Z</time></trkpt><trkpt lat="44.7782559013875" lon="9.248261752256289"><ele>720.0</ele><time>2026-04-06T14:55:19Z</time></trkpt><trkpt lat="44.77814638560588" lon="9.24839570493907"><ele>718.0</ele><time>2026-04-06T14:55:20Z</time></trkpt><trkpt lat="44.778030321232315" lon="9.248551962935386"><ele>716.0</ele><time>2026-04-06T14:55:21Z</time></trkpt><trkpt lat="44.77789838055627" lon="9.248693992223687"><ele>716.0</ele><time>2026-04-06T14:55:22Z</time></trkpt><trkpt lat="44.777755805232076" lon="9.248801861842544"><ele>716.0</ele><time>2026-04-06T14:55:23Z</time></trkpt><trkpt lat="44.777617482706425" lon="9.248869802478637"><ele>716.0</ele><time>2026-04-06T14:55:24Z</time></trkpt><trkpt lat="44.77749981015942" lon="9.248945978924194"><ele>716.0</ele><time>2026-04-06T14:55:25Z</time></trkpt><trkpt lat="44.777408725830554" lon="9.249001477210427"><ele>715.6666666666666</ele><time>2026-04-06T14:55:26Z</time></trkpt><trkpt lat="44.77733236444627" lon="9.249057495275357"><ele>715.3333333333333</ele><time>2026-04-06T14:55:27Z</time></trkpt><trkpt lat="44.777244787244285" lon="9.249051345650445"><ele>715.0</ele><time>2026-04-06T14:55:28Z</time></trkpt><trkpt lat="44.777175945671395" lon="9.24899045736016"><ele>714.6666666666666</ele><time>2026-04-06T14:55:29Z</time></trkpt><trkpt lat="44.77713701961787" lon="9.248891269443815"><ele>714.3333333333334</ele><time>2026-04-06T14:55:30Z</time></trkpt><trkpt lat="44.77714092089038" lon="9.24877925966163"><ele>714.0</ele><time>2026-04-06T14:55:31Z</time></trkpt><trkpt lat="44.7771859536253" lon="9.248691786414051"><ele>711.5</ele><time>2026-04-06T14:55:32Z</time></trkpt><trkpt lat="44.77725375294069" lon="9.24861520186593"><ele>709.0</ele><time>2026-04-06T14:55:33Z</time></trkpt><trkpt lat="44.777352376083414" lon="9.248548312028513"><ele>706.5</ele><time>2026-04-06T14:55:34Z</time></trkpt><trkpt lat="44.77746965763982" lon="9.24848486160908"><ele>704.0</ele><time>2026-04-06T14:55:35Z</time></trkpt><trkpt lat="44.77759322192852" lon="9.248416116440527"><ele>703.75</ele><time>2026-04-06T14:55:36Z</time></trkpt><trkpt lat="44.77770082425854" lon="9.248321824231509"><ele>703.5</ele><time>2026-04-06T14:55:37Z</time></trkpt><trkpt lat="44.77779649622572" lon="9.248199991402373"><ele>703.25</ele><time>2026-04-06T14:55:38Z</time></trkpt><trkpt lat="44.77788128818388" lon="9.248027947694345"><ele>703.0</ele><time>2026-04-06T14:55:39Z</time></trkpt><trkpt lat="44.7779691126811" lon="9.247843302014092"><ele>703.0</ele><time>2026-04-06T14:55:40Z</time></trkpt><trkpt lat="44.77804955685062" lon="9.247659994226284"><ele>703.0</ele><time>2026-04-06T14:55:41Z</time></trkpt><trkpt lat="44.77813132440341" lon="9.24749581091215"><ele>703.0</ele><time>2026-04-06T14:55:42Z</time></trkpt><trkpt lat="44.778207001550996" lon="9.247357793747973"><ele>703.0</ele><time>2026-04-06T14:55:43Z</time></trkpt><trkpt lat="44.77828096508026" lon="9.247211353076644"><ele>701.25</ele><time>2026-04-06T14:55:44Z</time></trkpt><trkpt lat="44.77835869646295" lon="9.247074089650777"><ele>699.5</ele><time>2026-04-06T14:55:45Z</time></trkpt><trkpt lat="44.77843014078112" lon="9.24693554656907"><ele>697.75</ele><time>2026-04-06T14:55:46Z</time></trkpt><trkpt lat="44.778503458868286" lon="9.246810946998625"><ele>696.0</ele><time>2026-04-06T14:55:47Z</time></trkpt><trkpt lat="44.778596110479576" lon="9.246712310855935"><ele>696.0</ele><time>2026-04-06T14:55:48Z</time></trkpt><trkpt lat="44.77872549602923" lon="9.24667438070355"><ele>696.0</ele><time>2026-04-06T14:55:49Z</time></trkpt><trkpt lat="44.77887568505237" lon="9.246636108479114"><ele>696.0</ele><time>2026-04-06T14:55:50Z</time></trkpt><trkpt lat="44.77903231989889" lon="9.246558298484928"><ele>692.0</ele><time>2026-04-06T14:55:51Z</time></trkpt><trkpt lat="44.77915584675326" lon="9.24644402617982"><ele>688.0</ele><time>2026-04-06T14:55:52Z</time></trkpt><trkpt lat="44.77927664264721" lon="9.246363814805086"><ele>684.0</ele><time>2026-04-06T14:55:53Z</time></trkpt><trkpt lat="44.77937818599" lon="9.246288482947193"><ele>680.0</ele><time>2026-04-06T14:55:54Z</time></trkpt><trkpt lat="44.7794860426647" lon="9.246227851172009"><ele>679.75</ele><time>2026-04-06T14:55:55Z</time></trkpt><trkpt lat="44.779600176485815" lon="9.246184953868823"><ele>679.5</ele><time>2026-04-06T14:55:56Z</time></trkpt><trkpt lat="44.779734317038525" lon="9.246118336993375"><ele>679.25</ele><time>2026-04-06T14:55:57Z</time></trkpt><trkpt lat="44.779877355818336" lon="9.246035775079749"><ele>679.0</ele><time>2026-04-06T14:55:58Z</time></trkpt><trkpt lat="44.780040054645326" lon="9.245976204969999"><ele>679.3333333333334</ele><time>2026-04-06T14:55:59Z</time></trkpt><trkpt lat="44.780216069436285" lon="9.245910883123434"><ele>679.6666666666666</ele><time>2026-04-06T14:56:00Z</time></trkpt><trkpt lat="44.78036892396529" lon="9.245844335298203"><ele>680.0</ele><time>2026-04-06T14:56:01Z</time></trkpt><trkpt lat="44.780513423466516" lon="9.245761011586842"><ele>680.0</ele><time>2026-04-06T14:56:02Z</time></trkpt><trkpt lat="44.780648829813856" lon="9.245681170092597"><ele>680.0</ele><time>2026-04-06T14:56:03Z</time></trkpt><trkpt lat="44.78077585919274" lon="9.245617853567943"><ele>680.0</ele><time>2026-04-06T14:56:04Z</time></trkpt><trkpt lat="44.780895639191705" lon="9.245588925805459"><ele>680.0</ele><time>2026-04-06T14:56:05Z</time></trkpt><trkpt lat="44.78099816021272" lon="9.24563486308239"><ele>679.4</ele><time>2026-04-06T14:56:06Z</time></trkpt><trkpt lat="44.78108675786198" lon="9.245729919533668"><ele>678.8</ele><time>2026-04-06T14:56:07Z</time></trkpt><trkpt lat="44.7811853029765" lon="9.245780251608757"><ele>678.2</ele><time>2026-04-06T14:56:08Z</time></trkpt><trkpt lat="44.78128484513195" lon="9.245865643115746"><ele>677.6</ele><time>2026-04-06T14:56:09Z</time></trkpt><trkpt lat="44.781396754620474" lon="9.245902235140747"><ele>677.0</ele><time>2026-04-06T14:56:10Z</time></trkpt><trkpt lat="44.781521768441934" lon="9.245864816016102"><ele>677.0</ele><time>2026-04-06T14:56:11Z</time></trkpt><trkpt lat="44.781650279026316" lon="9.245780583449948"><ele>677.0</ele><time>2026-04-06T14:56:12Z</time></trkpt><trkpt lat="44.781796747663996" lon="9.245657440935316"><ele>677.0</ele><time>2026-04-06T14:56:13Z</time></trkpt><trkpt lat="44.781960399870066" lon="9.24552384319389"><ele>674.75</ele><time>2026-04-06T14:56:14Z</time></trkpt><trkpt lat="44.78210272942428" lon="9.245405865267967"><ele>672.5</ele><time>2026-04-06T14:56:15Z</time></trkpt><trkpt lat="44.78222702421036" lon="9.245301340668396"><ele>670.25</ele><time>2026-04-06T14:56:16Z</time></trkpt><trkpt lat="44.78233173394578" lon="9.24519180664055"><ele>668.0</ele><time>2026-04-06T14:56:17Z</time></trkpt><trkpt lat="44.78241845562429" lon="9.245051565655464"><ele>668.0</ele><time>2026-04-06T14:56:18Z</time></trkpt><trkpt lat="44.782483572868756" lon="9.244874213378683"><ele>668.0</ele><time>2026-04-06T14:56:19Z</time></trkpt><trkpt lat="44.782540742669056" lon="9.24466804096764"><ele>668.0</ele><time>2026-04-06T14:56:20Z</time></trkpt><trkpt lat="44.782603430632356" lon="9.244432799733428"><ele>668.3333333333333</ele><time>2026-04-06T14:56:21Z</time></trkpt><trkpt lat="44.782684572589645" lon="9.244174207164454"><ele>668.6666666666666</ele><time>2026-04-06T14:56:22Z</time></trkpt><trkpt lat="44.78275905130629" lon="9.24394567232478"><ele>669.0</ele><time>2026-04-06T14:56:23Z</time></trkpt><trkpt lat="44.78282101718753" lon="9.243759201939021"><ele>665.75</ele><time>2026-04-06T14:56:24Z</time></trkpt><trkpt lat="44.78287548428419" lon="9.243601515224245"><ele>662.5</ele><time>2026-04-06T14:56:25Z</time></trkpt><trkpt lat="44.78294582829035" lon="9.243474575893002"><ele>659.25</ele><time>2026-04-06T14:56:26Z</time></trkpt><trkpt lat="44.78306087664213" lon="9.243403652892182"><ele>656.0</ele><time>2026-04-06T14:56:27Z</time></trkpt><trkpt lat="44.783166425233055" lon="9.243319609861887"><ele>656.0</ele><time>2026-04-06T14:56:28Z</time></trkpt><trkpt lat="44.78329461327195" lon="9.243271037732129"><ele>656.0</ele><time>2026-04-06T14:56:29Z</time></trkpt><trkpt lat="44.78343697226421" lon="9.243232170756382"><ele>656.0</ele><time>2026-04-06T14:56:30Z</time></trkpt><trkpt lat="44.78359932155297" lon="9.243169008490009"><ele>656.0</ele><time>2026-04-06T14:56:31Z</time></trkpt><trkpt lat="44.78373649988447" lon="9.24313131234666"><ele>654.5</ele><time>2026-04-06T14:56:32Z</time></trkpt><trkpt lat="44.78385720686585" lon="9.243069133182061"><ele>653.0</ele><time>2026-04-06T14:56:33Z</time></trkpt><trkpt lat="44.783952985755924" lon="9.242971389880891"><ele>651.5</ele><time>2026-04-06T14:56:34Z</time></trkpt><trkpt lat="44.78403037058904" lon="9.242852057013685"><ele>650.0</ele><time>2026-04-06T14:56:35Z</time></trkpt><trkpt lat="44.78409999920704" lon="9.242734150643882"><ele>650.0</ele><time>2026-04-06T14:56:36Z</time></trkpt><trkpt lat="44.78413374318797" lon="9.24260686478636"><ele>650.0</ele><time>2026-04-06T14:56:37Z</time></trkpt><trkpt lat="44.78412318184684" lon="9.242461294301252"><ele>650.0</ele><time>2026-04-06T14:56:38Z</time></trkpt><trkpt lat="44.78409977447455" lon="9.24229846525908"><ele>650.0</ele><time>2026-04-06T14:56:39Z</time></trkpt><trkpt lat="44.78409394395109" lon="9.242139518546491"><ele>650.0</ele><time>2026-04-06T14:56:40Z</time></trkpt><trkpt lat="44.78411593371556" lon="9.242006242733098"><ele>648.75</ele><time>2026-04-06T14:56:41Z</time></trkpt><trkpt lat="44.784170523495156" lon="9.24188768448844"><ele>647.5</ele><time>2026-04-06T14:56:42Z</time></trkpt><trkpt lat="44.78428340301646" lon="9.241824060661237"><ele>646.25</ele><time>2026-04-06T14:56:43Z</time></trkpt><trkpt lat="44.78440754645426" lon="9.241746980937865"><ele>645.0</ele><time>2026-04-06T14:56:44Z</time></trkpt><trkpt lat="44.78455114299099" lon="9.241631334024826"><ele>645.0</ele><time>2026-04-06T14:56:45Z</time></trkpt><trkpt lat="44.78473774009552" lon="9.241528497988059"><ele>645.0</ele><time>2026-04-06T14:56:46Z</time></trkpt><trkpt lat="44.78494114226714" lon="9.241398548999687"><ele>645.0</ele><time>2026-04-06T14:56:47Z</time></trkpt><trkpt lat="44.785130833105235" lon="9.241276322153894"><ele>641.6666666666666</ele><time>2026-04-06T14:56:48Z</time></trkpt><trkpt lat="44.785303990042415" lon="9.241164922804165"><ele>638.3333333333333</ele><time>2026-04-06T14:56:49Z</time></trkpt><trkpt lat="44.785454678670945" lon="9.241033416075568"><ele>635.0</ele><time>2026-04-06T14:56:50Z</time></trkpt><trkpt lat="44.78559574975412" lon="9.240892259579658"><ele>635.0</ele><time>2026-04-06T14:56:51Z</time></trkpt><trkpt lat="44.785716625768785" lon="9.240759953822336"><ele>635.0</ele><time>2026-04-06T14:56:52Z</time></trkpt><trkpt lat="44.78581642724306" lon="9.240647971802389"><ele>635.0</ele><time>2026-04-06T14:56:53Z</time></trkpt><trkpt lat="44.78591506458092" lon="9.240555278270339"><ele>635.0</ele><time>2026-04-06T14:56:54Z</time></trkpt><trkpt lat="44.78603691452969" lon="9.240475590312938"><ele>631.6666666666666</ele><time>2026-04-06T14:56:54.999Z</time></trkpt><trkpt lat="44.78618353368689" lon="9.240439620284985"><ele>628.3333333333334</ele><time>2026-04-06T14:56:55.999Z</time></trkpt><trkpt lat="44.78633462663727" lon="9.240384831807498"><ele>625.0</ele><time>2026-04-06T14:56:56.999Z</time></trkpt><trkpt lat="44.786498726642925" lon="9.24030567300163"><ele>625.0</ele><time>2026-04-06T14:56:57.999Z</time></trkpt><trkpt lat="44.786666885968906" lon="9.24024633081965"><ele>625.0</ele><time>2026-04-06T14:56:58.999Z</time></trkpt><trkpt lat="44.786819576676095" lon="9.240186791952699"><ele>625.0</ele><time>2026-04-06T14:56:59.999Z</time></trkpt><trkpt lat="44.78695222473521" lon="9.240129269382393"><ele>626.25</ele><time>2026-04-06T14:57:00.999Z</time></trkpt><trkpt lat="44.78707702184593" lon="9.240065473203089"><ele>627.5</ele><time>2026-04-06T14:57:01.999Z</time></trkpt><trkpt lat="44.78718286183904" lon="9.23996982669684"><ele>628.75</ele><time>2026-04-06T14:57:02.999Z</time></trkpt><trkpt lat="44.78725742625738" lon="9.239830236450898"><ele>630.0</ele><time>2026-04-06T14:57:03.999Z</time></trkpt><trkpt lat="44.78731999237436" lon="9.239657402654297"><ele>626.6666666666666</ele><time>2026-04-06T14:57:04.999Z</time></trkpt><trkpt lat="44.787387253744825" lon="9.239452615890453"><ele>623.3333333333333</ele><time>2026-04-06T14:57:05.999Z</time></trkpt><trkpt lat="44.787467448623595" lon="9.239240471794632"><ele>620.0</ele><time>2026-04-06T14:57:06.999Z</time></trkpt><trkpt lat="44.78753234502589" lon="9.239063510274887"><ele>618.4</ele><time>2026-04-06T14:57:07.999Z</time></trkpt><trkpt lat="44.78758670724862" lon="9.23892803254415"><ele>616.8</ele><time>2026-04-06T14:57:08.999Z</time></trkpt><trkpt lat="44.78763283783607" lon="9.238830160015956"><ele>615.2</ele><time>2026-04-06T14:57:09.999Z</time></trkpt><trkpt lat="44.78769368364212" lon="9.238775608645021"><ele>613.6</ele><time>2026-04-06T14:57:10.999Z</time></trkpt><trkpt lat="44.78777916933766" lon="9.23876734168015"><ele>612.0</ele><time>2026-04-06T14:57:12Z</time></trkpt><trkpt lat="44.78787418847522" lon="9.238820559039594"><ele>612.0</ele><time>2026-04-06T14:57:13Z</time></trkpt><trkpt lat="44.78799813180257" lon="9.238875249428874"><ele>612.0</ele><time>2026-04-06T14:57:14Z</time></trkpt><trkpt lat="44.78811244331939" lon="9.238920410956807"><ele>612.0</ele><time>2026-04-06T14:57:15Z</time></trkpt><trkpt lat="44.788217050267825" lon="9.238908333696767"><ele>612.0</ele><time>2026-04-06T14:57:16Z</time></trkpt><trkpt lat="44.78834163348291" lon="9.238827426648893"><ele>612.0</ele><time>2026-04-06T14:57:17Z</time></trkpt><trkpt lat="44.788492350658736" lon="9.23872344835381"><ele>612.0</ele><time>2026-04-06T14:57:18Z</time></trkpt><trkpt lat="44.788640978368186" lon="9.23861016287026"><ele>612.0</ele><time>2026-04-06T14:57:19Z</time></trkpt><trkpt lat="44.78876119088613" lon="9.238495614131871"><ele>611.0</ele><time>2026-04-06T14:57:20Z</time></trkpt><trkpt lat="44.78886636751174" lon="9.23834727817175"><ele>610.0</ele><time>2026-04-06T14:57:21Z</time></trkpt><trkpt lat="44.788971803981624" lon="9.238163846808142"><ele>609.0</ele><time>2026-04-06T14:57:22Z</time></trkpt><trkpt lat="44.78906447939184" lon="9.23797936659903"><ele>609.0</ele><time>2026-04-06T14:57:23Z</time></trkpt><trkpt lat="44.78914006451241" lon="9.237808194714777"><ele>609.0</ele><time>2026-04-06T14:57:24Z</time></trkpt><trkpt lat="44.78918793342006" lon="9.237643094622396"><ele>609.0</ele><time>2026-04-06T14:57:25Z</time></trkpt><trkpt lat="44.78921176348306" lon="9.237450269792268"><ele>609.0</ele><time>2026-04-06T14:57:26Z</time></trkpt><trkpt lat="44.789219312005834" lon="9.23725874377629"><ele>610.0</ele><time>2026-04-06T14:57:27Z</time></trkpt><trkpt lat="44.78926487294125" lon="9.237097326664903"><ele>611.0</ele><time>2026-04-06T14:57:28Z</time></trkpt><trkpt lat="44.78933114320819" lon="9.236937187533403"><ele>612.0</ele><time>2026-04-06T14:57:29Z</time></trkpt><trkpt lat="44.78941647334106" lon="9.23678479226441"><ele>613.0</ele><time>2026-04-06T14:57:30Z</time></trkpt><trkpt lat="44.78951468051425" lon="9.236658844651089"><ele>613.0</ele><time>2026-04-06T14:57:31Z</time></trkpt><trkpt lat="44.789634098938265" lon="9.23655608566491"><ele>613.0</ele><time>2026-04-06T14:57:32Z</time></trkpt><trkpt lat="44.78978129751483" lon="9.236442876709296"><ele>613.0</ele><time>2026-04-06T14:57:33Z</time></trkpt><trkpt lat="44.789915756479964" lon="9.236316994478381"><ele>613.0</ele><time>2026-04-06T14:57:34Z</time></trkpt><trkpt lat="44.79001763516871" lon="9.236184598923709"><ele>613.0</ele><time>2026-04-06T14:57:35Z</time></trkpt><trkpt lat="44.79008909867299" lon="9.236022933359756"><ele>613.0</ele><time>2026-04-06T14:57:36Z</time></trkpt><trkpt lat="44.790149398520576" lon="9.235829393017225"><ele>613.0</ele><time>2026-04-06T14:57:37Z</time></trkpt><trkpt lat="44.790198480570474" lon="9.235657690007843"><ele>609.0</ele><time>2026-04-06T14:57:38Z</time></trkpt><trkpt lat="44.79026774810055" lon="9.23553833333968"><ele>605.0</ele><time>2026-04-06T14:57:39Z</time></trkpt><trkpt lat="44.79035186676732" lon="9.235428319500269"><ele>601.0</ele><time>2026-04-06T14:57:40Z</time></trkpt><trkpt lat="44.790458553577274" lon="9.235303822891256"><ele>597.0</ele><time>2026-04-06T14:57:41Z</time></trkpt><trkpt lat="44.79058767746512" lon="9.235185286368232"><ele>597.0</ele><time>2026-04-06T14:57:42Z</time></trkpt><trkpt lat="44.79074685166135" lon="9.23509921348878"><ele>597.0</ele><time>2026-04-06T14:57:43Z</time></trkpt><trkpt lat="44.790910866893455" lon="9.23498918634296"><ele>597.0</ele><time>2026-04-06T14:57:44Z</time></trkpt><trkpt lat="44.791068190550135" lon="9.234857744393226"><ele>594.0</ele><time>2026-04-06T14:57:45Z</time></trkpt><trkpt lat="44.79120731671772" lon="9.234775424083358"><ele>591.0</ele><time>2026-04-06T14:57:46Z</time></trkpt><trkpt lat="44.79132883098356" lon="9.234695794543702"><ele>588.0</ele><time>2026-04-06T14:57:47Z</time></trkpt><trkpt lat="44.791437635449945" lon="9.234632017066927"><ele>585.0</ele><time>2026-04-06T14:57:48Z</time></trkpt><trkpt lat="44.791537457523155" lon="9.234604941659363"><ele>585.0</ele><time>2026-04-06T14:57:49Z</time></trkpt><trkpt lat="44.79163516709744" lon="9.234627908093932"><ele>585.0</ele><time>2026-04-06T14:57:50Z</time></trkpt><trkpt lat="44.79172623710456" lon="9.234715659263625"><ele>585.0</ele><time>2026-04-06T14:57:51Z</time></trkpt><trkpt lat="44.79184201850186" lon="9.234803972062304"><ele>585.0</ele><time>2026-04-06T14:57:52Z</time></trkpt><trkpt lat="44.791959815078734" lon="9.234902163063142"><ele>588.0</ele><time>2026-04-06T14:57:53Z</time></trkpt><trkpt lat="44.792073342168806" lon="9.234987525027908"><ele>591.0</ele><time>2026-04-06T14:57:54Z</time></trkpt><trkpt lat="44.79216914926888" lon="9.23504603510948"><ele>594.0</ele><time>2026-04-06T14:57:55Z</time></trkpt><trkpt lat="44.79226201873563" lon="9.235062473526096"><ele>597.0</ele><time>2026-04-06T14:57:56Z</time></trkpt><trkpt lat="44.79235399558353" lon="9.235039071613624"><ele>600.0</ele><time>2026-04-06T14:57:57Z</time></trkpt><trkpt lat="44.79243641025668" lon="9.234983259106462"><ele>600.0</ele><time>2026-04-06T14:57:58Z</time></trkpt><trkpt lat="44.79249392676229" lon="9.234894902840516"><ele>600.0</ele><time>2026-04-06T14:57:59Z</time></trkpt><trkpt lat="44.792524817558515" lon="9.234767145955093"><ele>600.0</ele><time>2026-04-06T14:58:00Z</time></trkpt><trkpt lat="44.792538612272686" lon="9.234594776373958"><ele>600.0</ele><time>2026-04-06T14:58:01Z</time></trkpt><trkpt lat="44.79254548001635" lon="9.234387227827712"><ele>597.75</ele><time>2026-04-06T14:58:02Z</time></trkpt><trkpt lat="44.79255229646684" lon="9.23415881806494"><ele>595.5</ele><time>2026-04-06T14:58:03Z</time></trkpt><trkpt lat="44.792557933045444" lon="9.233958203650536"><ele>593.25</ele><time>2026-04-06T14:58:04Z</time></trkpt><trkpt lat="44.792576739787044" lon="9.233826792270538"><ele>591.0</ele><time>2026-04-06T14:58:05Z</time></trkpt><trkpt lat="44.79261597402641" lon="9.23374164737096"><ele>589.2</ele><time>2026-04-06T14:58:06Z</time></trkpt><trkpt lat="44.79269244090004" lon="9.23369576059667"><ele>587.4000000000001</ele><time>2026-04-06T14:58:07Z</time></trkpt><trkpt lat="44.79277755947525" lon="9.233660369026403"><ele>585.6</ele><time>2026-04-06T14:58:08Z</time></trkpt><trkpt lat="44.79287537916893" lon="9.233637419811116"><ele>583.8000000000001</ele><time>2026-04-06T14:58:09Z</time></trkpt><trkpt lat="44.793021189858976" lon="9.23365298388639"><ele>582.0</ele><time>2026-04-06T14:58:10Z</time></trkpt><trkpt lat="44.79317399274195" lon="9.233656297700971"><ele>582.0</ele><time>2026-04-06T14:58:11Z</time></trkpt><trkpt lat="44.79333225783658" lon="9.233692238940145"><ele>582.0</ele><time>2026-04-06T14:58:12Z</time></trkpt><trkpt lat="44.79348529889203" lon="9.233720884240338"><ele>582.0</ele><time>2026-04-06T14:58:13Z</time></trkpt><trkpt lat="44.79362615905279" lon="9.233722706989562"><ele>581.25</ele><time>2026-04-06T14:58:14Z</time></trkpt><trkpt lat="44.793762053541016" lon="9.233694479918094"><ele>580.5</ele><time>2026-04-06T14:58:15Z</time></trkpt><trkpt lat="44.7939024676584" lon="9.233632773925692"><ele>579.75</ele><time>2026-04-06T14:58:16Z</time></trkpt><trkpt lat="44.79404484188553" lon="9.233563960554799"><ele>579.0</ele><time>2026-04-06T14:58:17Z</time></trkpt><trkpt lat="44.794180595985665" lon="9.233497825572535"><ele>579.0</ele><time>2026-04-06T14:58:18Z</time></trkpt><trkpt lat="44.79430666749195" lon="9.233441290063167"><ele>579.0</ele><time>2026-04-06T14:58:19Z</time></trkpt><trkpt lat="44.79442709677125" lon="9.233398984815123"><ele>579.0</ele><time>2026-04-06T14:58:20Z</time></trkpt><trkpt lat="44.79455521599241" lon="9.233376553801564"><ele>579.0</ele><time>2026-04-06T14:58:21Z</time></trkpt><trkpt lat="44.794680274025346" lon="9.233382911074333"><ele>578.0</ele><time>2026-04-06T14:58:22Z</time></trkpt><trkpt lat="44.79480696632866" lon="9.233413033258989"><ele>577.0</ele><time>2026-04-06T14:58:23Z</time></trkpt><trkpt lat="44.79492263342164" lon="9.233457066085968"><ele>576.0</ele><time>2026-04-06T14:58:24Z</time></trkpt><trkpt lat="44.79501502346816" lon="9.233521626448528"><ele>575.0</ele><time>2026-04-06T14:58:25Z</time></trkpt><trkpt lat="44.79508480867691" lon="9.233620806624565"><ele>575.0</ele><time>2026-04-06T14:58:26Z</time></trkpt><trkpt lat="44.79512199192694" lon="9.233750260961182"><ele>575.0</ele><time>2026-04-06T14:58:27Z</time></trkpt><trkpt lat="44.79509937036472" lon="9.233889825765697"><ele>575.0</ele><time>2026-04-06T14:58:28Z</time></trkpt><trkpt lat="44.79511892393698" lon="9.234028595003196"><ele>575.0</ele><time>2026-04-06T14:58:29Z</time></trkpt><trkpt lat="44.795136394389736" lon="9.234139857127976"><ele>575.0</ele><time>2026-04-06T14:58:30Z</time></trkpt><trkpt lat="44.795193538905934" lon="9.234225375587835"><ele>574.8</ele><time>2026-04-06T14:58:31Z</time></trkpt><trkpt lat="44.79526573172538" lon="9.234275651108337"><ele>574.6</ele><time>2026-04-06T14:58:32Z</time></trkpt><trkpt lat="44.79535556670626" lon="9.234288045201167"><ele>574.4</ele><time>2026-04-06T14:58:33Z</time></trkpt><trkpt lat="44.795445040521756" lon="9.234242551735349"><ele>574.2</ele><time>2026-04-06T14:58:34Z</time></trkpt><trkpt lat="44.795532552003884" lon="9.234163235652836"><ele>574.0</ele><time>2026-04-06T14:58:35Z</time></trkpt><trkpt lat="44.79561143555472" lon="9.234106474238533"><ele>574.0</ele><time>2026-04-06T14:58:36Z</time></trkpt><trkpt lat="44.79569483064085" lon="9.23411278211364"><ele>574.0</ele><time>2026-04-06T14:58:37Z</time></trkpt><trkpt lat="44.795784037975" lon="9.2341809265663"><ele>574.0</ele><time>2026-04-06T14:58:38Z</time></trkpt><trkpt lat="44.79586653946268" lon="9.234283070872712"><ele>574.0</ele><time>2026-04-06T14:58:39Z</time></trkpt><trkpt lat="44.795947627283624" lon="9.234350729245834"><ele>574.0</ele><time>2026-04-06T14:58:40Z</time></trkpt><trkpt lat="44.79604315029936" lon="9.234330077087344"><ele>572.0</ele><time>2026-04-06T14:58:41Z</time></trkpt><trkpt lat="44.796162241832874" lon="9.234270450483846"><ele>570.0</ele><time>2026-04-06T14:58:42Z</time></trkpt><trkpt lat="44.79628079911063" lon="9.234182567888983"><ele>568.0</ele><time>2026-04-06T14:58:43Z</time></trkpt><trkpt lat="44.796384524972694" lon="9.234103001771585"><ele>566.0</ele><time>2026-04-06T14:58:44Z</time></trkpt><trkpt lat="44.79648179918332" lon="9.234048806009493"><ele>566.0</ele><time>2026-04-06T14:58:45Z</time></trkpt><trkpt lat="44.796589645489185" lon="9.234026912623767"><ele>566.0</ele><time>2026-04-06T14:58:46Z</time></trkpt><trkpt lat="44.7967004358612" lon="9.23405374574067"><ele>566.0</ele><time>2026-04-06T14:58:47Z</time></trkpt><trkpt lat="44.79680855412656" lon="9.234154813743933"><ele>566.0</ele><time>2026-04-06T14:58:48Z</time></trkpt><trkpt lat="44.79693064464234" lon="9.234233631025589"><ele>561.8</ele><time>2026-04-06T14:58:49Z</time></trkpt><trkpt lat="44.79701473807054" lon="9.234321893608358"><ele>557.6</ele><time>2026-04-06T14:58:50Z</time></trkpt><trkpt lat="44.797081315178424" lon="9.234415114918482"><ele>553.4</ele><time>2026-04-06T14:58:51Z</time></trkpt><trkpt lat="44.7971234518899" lon="9.234523181792497"><ele>549.2</ele><time>2026-04-06T14:58:52Z</time></trkpt><trkpt lat="44.797135719804075" lon="9.234640121421247"><ele>545.0</ele><time>2026-04-06T14:58:53Z</time></trkpt><trkpt lat="44.79711940320212" lon="9.234756147051534"><ele>545.4</ele><time>2026-04-06T14:58:54Z</time></trkpt><trkpt lat="44.797069569720854" lon="9.23487048975504"><ele>545.8</ele><time>2026-04-06T14:58:55Z</time></trkpt><trkpt lat="44.797002797997344" lon="9.234993524172463"><ele>546.2</ele><time>2026-04-06T14:58:56Z</time></trkpt><trkpt lat="44.796945589132015" lon="9.23514083534733"><ele>546.6</ele><time>2026-04-06T14:58:57Z</time></trkpt><trkpt lat="44.79691770455381" lon="9.235296008642177"><ele>547.0</ele><time>2026-04-06T14:58:58Z</time></trkpt><trkpt lat="44.79690704884257" lon="9.235462635690528"><ele>547.0</ele><time>2026-04-06T14:58:59Z</time></trkpt><trkpt lat="44.796890882214136" lon="9.235635031870624"><ele>547.0</ele><time>2026-04-06T14:59:00Z</time></trkpt><trkpt lat="44.79686790960814" lon="9.235803946710865"><ele>547.0</ele><time>2026-04-06T14:59:01Z</time></trkpt><trkpt lat="44.79683716036032" lon="9.23598440519746"><ele>547.0</ele><time>2026-04-06T14:59:02Z</time></trkpt><trkpt lat="44.79680468015636" lon="9.236166365489519"><ele>547.2</ele><time>2026-04-06T14:59:03Z</time></trkpt><trkpt lat="44.79677284129672" lon="9.2363315617829"><ele>547.4000000000001</ele><time>2026-04-06T14:59:04Z</time></trkpt><trkpt lat="44.79675899644486" lon="9.236470379751886"><ele>547.5999999999999</ele><time>2026-04-06T14:59:04.999Z</time></trkpt><trkpt lat="44.796761469901185" lon="9.236591923102042"><ele>547.8</ele><time>2026-04-06T14:59:05.999Z</time></trkpt><trkpt lat="44.79679192853921" lon="9.236705875249234"><ele>548.0</ele><time>2026-04-06T14:59:06.999Z</time></trkpt><trkpt lat="44.79685633517604" lon="9.236801052388204"><ele>548.0</ele><time>2026-04-06T14:59:07.999Z</time></trkpt><trkpt lat="44.79694612954832" lon="9.23686908019309"><ele>548.0</ele><time>2026-04-06T14:59:08.999Z</time></trkpt><trkpt lat="44.797047984284475" lon="9.236919503955889"><ele>548.0</ele><time>2026-04-06T14:59:09.999Z</time></trkpt><trkpt lat="44.79716312079089" lon="9.236953942215113"><ele>548.0</ele><time>2026-04-06T14:59:10.999Z</time></trkpt><trkpt lat="44.79728291569847" lon="9.23697697059001"><ele>548.0</ele><time>2026-04-06T14:59:11.999Z</time></trkpt><trkpt lat="44.79741409634068" lon="9.236979308523127"><ele>548.0</ele><time>2026-04-06T14:59:12.999Z</time></trkpt><trkpt lat="44.797540642864064" lon="9.23696752882476"><ele>548.0</ele><time>2026-04-06T14:59:13.999Z</time></trkpt><trkpt lat="44.797655126759544" lon="9.2369797252942"><ele>548.0</ele><time>2026-04-06T14:59:14.999Z</time></trkpt><trkpt lat="44.797748847790004" lon="9.237072405133452"><ele>548.0</ele><time>2026-04-06T14:59:15.999Z</time></trkpt><trkpt lat="44.79784901692749" lon="9.237202834117825"><ele>547.5</ele><time>2026-04-06T14:59:16.999Z</time></trkpt><trkpt lat="44.79796488178106" lon="9.237340414649223"><ele>547.0</ele><time>2026-04-06T14:59:18Z</time></trkpt><trkpt lat="44.79807488909446" lon="9.237437953165015"><ele>546.5</ele><time>2026-04-06T14:59:19Z</time></trkpt><trkpt lat="44.79815609415249" lon="9.23754008918734"><ele>546.0</ele><time>2026-04-06T14:59:20Z</time></trkpt><trkpt lat="44.798216002193" lon="9.237600546980836"><ele>546.0</ele><time>2026-04-06T14:59:21Z</time></trkpt><trkpt lat="44.79835049181544" lon="9.237674789902238"><ele>546.0</ele><time>2026-04-06T14:59:23Z</time></trkpt><trkpt lat="44.798456957488945" lon="9.237717405681414"><ele>546.0</ele><time>2026-04-06T14:59:24Z</time></trkpt><trkpt lat="44.79856006020393" lon="9.237751929146615"><ele>546.0</ele><time>2026-04-06T14:59:25Z</time></trkpt><trkpt lat="44.79865944866701" lon="9.237772520322133"><ele>544.0</ele><time>2026-04-06T14:59:26Z</time></trkpt><trkpt lat="44.798754099991086" lon="9.23778242006542"><ele>542.0</ele><time>2026-04-06T14:59:27Z</time></trkpt><trkpt lat="44.79885096619578" lon="9.237773577716268"><ele>540.0</ele><time>2026-04-06T14:59:28Z</time></trkpt><trkpt lat="44.79894770143695" lon="9.237751874453728"><ele>538.0</ele><time>2026-04-06T14:59:29Z</time></trkpt><trkpt lat="44.79904286992693" lon="9.23776467011851"><ele>536.0</ele><time>2026-04-06T14:59:30Z</time></trkpt><trkpt lat="44.79912248660754" lon="9.237842822624131"><ele>536.0</ele><time>2026-04-06T14:59:31Z</time></trkpt><trkpt lat="44.799184189646354" lon="9.237913429634915"><ele>536.0</ele><time>2026-04-06T14:59:32Z</time></trkpt><trkpt lat="44.79924914072525" lon="9.237997767042586"><ele>536.0</ele><time>2026-04-06T14:59:33Z</time></trkpt><trkpt lat="44.79931544311286" lon="9.2381018260767"><ele>536.0</ele><time>2026-04-06T14:59:34Z</time></trkpt><trkpt lat="44.79938137948809" lon="9.238203391606959"><ele>536.0</ele><time>2026-04-06T14:59:35Z</time></trkpt><trkpt lat="44.799395773265594" lon="9.238345208604542"><ele>533.0</ele><time>2026-04-06T14:59:36Z</time></trkpt><trkpt lat="44.799400392458644" lon="9.238475837065879"><ele>530.0</ele><time>2026-04-06T14:59:37Z</time></trkpt><trkpt lat="44.79938663374819" lon="9.238596807965928"><ele>527.0</ele><time>2026-04-06T14:59:38Z</time></trkpt><trkpt lat="44.79937235229082" lon="9.23871702033264"><ele>524.0</ele><time>2026-04-06T14:59:39Z</time></trkpt><trkpt lat="44.79935795519492" lon="9.238839321853899"><ele>521.0</ele><time>2026-04-06T14:59:40Z</time></trkpt><trkpt lat="44.79935870400169" lon="9.238976940663951"><ele>521.0</ele><time>2026-04-06T14:59:41Z</time></trkpt><trkpt lat="44.79934276078237" lon="9.239120190136214"><ele>521.0</ele><time>2026-04-06T14:59:42Z</time></trkpt><trkpt lat="44.79933326571607" lon="9.239268852770739"><ele>521.0</ele><time>2026-04-06T14:59:43Z</time></trkpt><trkpt lat="44.79932110221312" lon="9.239463742111601"><ele>521.0</ele><time>2026-04-06T14:59:44Z</time></trkpt><trkpt lat="44.79936180012509" lon="9.239692690688969"><ele>522.3333333333333</ele><time>2026-04-06T14:59:45Z</time></trkpt><trkpt lat="44.79939074819475" lon="9.239950083927171"><ele>523.6666666666666</ele><time>2026-04-06T14:59:46Z</time></trkpt><trkpt lat="44.799421929154526" lon="9.240214288391881"><ele>525.0</ele><time>2026-04-06T14:59:47Z</time></trkpt><trkpt lat="44.799447949368194" lon="9.240457658097416"><ele>524.3333333333334</ele><time>2026-04-06T14:59:48Z</time></trkpt><trkpt lat="44.799466386919505" lon="9.240690053694912"><ele>523.6666666666667</ele><time>2026-04-06T14:59:49Z</time></trkpt><trkpt lat="44.7994816178678" lon="9.240915854433938"><ele>523.0</ele><time>2026-04-06T14:59:50Z</time></trkpt><trkpt lat="44.79950012583486" lon="9.241126451799156"><ele>523.0</ele><time>2026-04-06T14:59:51Z</time></trkpt><trkpt lat="44.7995110652886" lon="9.241299617883628"><ele>523.0</ele><time>2026-04-06T14:59:52Z</time></trkpt><trkpt lat="44.7995378103022" lon="9.24144206015294"><ele>523.0</ele><time>2026-04-06T14:59:53Z</time></trkpt><trkpt lat="44.799587939683626" lon="9.241542294077158"><ele>523.0</ele><time>2026-04-06T14:59:54Z</time></trkpt><trkpt lat="44.799664029425294" lon="9.2416453681844"><ele>523.0</ele><time>2026-04-06T14:59:55Z</time></trkpt><trkpt lat="44.79975340563006" lon="9.241718508969692"><ele>523.8</ele><time>2026-04-06T14:59:56Z</time></trkpt><trkpt lat="44.79985057915373" lon="9.241758336078883"><ele>524.5999999999999</ele><time>2026-04-06T14:59:57Z</time></trkpt><trkpt lat="44.79995801362335" lon="9.241760736709985"><ele>525.4000000000001</ele><time>2026-04-06T14:59:58Z</time></trkpt><trkpt lat="44.80006479240966" lon="9.241727187093716"><ele>526.2</ele><time>2026-04-06T14:59:59Z</time></trkpt><trkpt lat="44.800164398738445" lon="9.241649567258454"><ele>527.0</ele><time>2026-04-06T15:00:00Z</time></trkpt><trkpt lat="44.80026218073706" lon="9.241528138007226"><ele>523.6666666666666</ele><time>2026-04-06T15:00:01Z</time></trkpt><trkpt lat="44.80035620835433" lon="9.241378962949659"><ele>520.3333333333334</ele><time>2026-04-06T15:00:02Z</time></trkpt><trkpt lat="44.80046316114041" lon="9.241225486527078"><ele>517.0</ele><time>2026-04-06T15:00:03Z</time></trkpt><trkpt lat="44.80060715808729" lon="9.241117098883649"><ele>517.0</ele><time>2026-04-06T15:00:04Z</time></trkpt><trkpt lat="44.80076390096858" lon="9.241017581951533"><ele>517.0</ele><time>2026-04-06T15:00:05Z</time></trkpt><trkpt lat="44.80092475559458" lon="9.240916432529463"><ele>517.0</ele><time>2026-04-06T15:00:06Z</time></trkpt><trkpt lat="44.801092545451795" lon="9.240793320203334"><ele>517.0</ele><time>2026-04-06T15:00:07Z</time></trkpt><trkpt lat="44.80128197852611" lon="9.240674097916282"><ele>517.0</ele><time>2026-04-06T15:00:08Z</time></trkpt><trkpt lat="44.80149211380184" lon="9.240560142887292"><ele>517.0</ele><time>2026-04-06T15:00:09Z</time></trkpt><trkpt lat="44.80170290355562" lon="9.240427758442127"><ele>511.5</ele><time>2026-04-06T15:00:10Z</time></trkpt><trkpt lat="44.80191329438497" lon="9.240295010953297"><ele>506.0</ele><time>2026-04-06T15:00:11Z</time></trkpt><trkpt lat="44.80211413449522" lon="9.240148327672104"><ele>506.0</ele><time>2026-04-06T15:00:12Z</time></trkpt><trkpt lat="44.80232393705967" lon="9.24002212258364"><ele>506.0</ele><time>2026-04-06T15:00:13Z</time></trkpt><trkpt lat="44.80254325062142" lon="9.239888735924708"><ele>502.66666666666663</ele><time>2026-04-06T15:00:14Z</time></trkpt><trkpt lat="44.80274906233157" lon="9.239762480582291"><ele>499.33333333333337</ele><time>2026-04-06T15:00:15Z</time></trkpt><trkpt lat="44.80293908287502" lon="9.239641587982677"><ele>496.0</ele><time>2026-04-06T15:00:16Z</time></trkpt><trkpt lat="44.80312546076109" lon="9.239524379081658"><ele>496.0</ele><time>2026-04-06T15:00:17Z</time></trkpt><trkpt lat="44.803296637131886" lon="9.239419234782549"><ele>496.0</ele><time>2026-04-06T15:00:18Z</time></trkpt><trkpt lat="44.80345136397116" lon="9.239320235906277"><ele>496.0</ele><time>2026-04-06T15:00:19Z</time></trkpt><trkpt lat="44.80358345313335" lon="9.239231329656338"><ele>498.75</ele><time>2026-04-06T15:00:20Z</time></trkpt><trkpt lat="44.80370178038779" lon="9.239152288708599"><ele>501.5</ele><time>2026-04-06T15:00:21Z</time></trkpt><trkpt lat="44.80381338085427" lon="9.239085989132247"><ele>504.25</ele><time>2026-04-06T15:00:22Z</time></trkpt><trkpt lat="44.803916997323356" lon="9.239021135885412"><ele>507.0</ele><time>2026-04-06T15:00:23Z</time></trkpt><trkpt lat="44.804010371569305" lon="9.238943558494237"><ele>507.20000000000005</ele><time>2026-04-06T15:00:24Z</time></trkpt><trkpt lat="44.80408994393472" lon="9.238845741319844"><ele>507.40000000000003</ele><time>2026-04-06T15:00:25Z</time></trkpt><trkpt lat="44.80415730272775" lon="9.238729769260836"><ele>507.59999999999997</ele><time>2026-04-06T15:00:26Z</time></trkpt><trkpt lat="44.804218493931444" lon="9.238593594693924"><ele>507.79999999999995</ele><time>2026-04-06T15:00:27Z</time></trkpt><trkpt lat="44.804266207087494" lon="9.238437941188236"><ele>508.0</ele><time>2026-04-06T15:00:28Z</time></trkpt><trkpt lat="44.80429291930461" lon="9.238256036154674"><ele>507.33333333333337</ele><time>2026-04-06T15:00:29Z</time></trkpt><trkpt lat="44.80430279710792" lon="9.238037198846069"><ele>506.66666666666663</ele><time>2026-04-06T15:00:30Z</time></trkpt><trkpt lat="44.804327593203354" lon="9.237782896206008"><ele>506.0</ele><time>2026-04-06T15:00:31Z</time></trkpt><trkpt lat="44.80432508899615" lon="9.237500321715164"><ele>512.0</ele><time>2026-04-06T15:00:32Z</time></trkpt><trkpt lat="44.804343675368486" lon="9.237198636896013"><ele>518.0</ele><time>2026-04-06T15:00:33Z</time></trkpt><trkpt lat="44.80436015715506" lon="9.236899372432811"><ele>524.0</ele><time>2026-04-06T15:00:34Z</time></trkpt><trkpt lat="44.804373933880704" lon="9.236610892073392"><ele>522.6666666666666</ele><time>2026-04-06T15:00:35Z</time></trkpt><trkpt lat="44.8043897692432" lon="9.236332766117089"><ele>521.3333333333334</ele><time>2026-04-06T15:00:36Z</time></trkpt><trkpt lat="44.804406402085384" lon="9.236065878755186"><ele>520.0</ele><time>2026-04-06T15:00:37Z</time></trkpt><trkpt lat="44.80442699109459" lon="9.235811274768102"><ele>518.3333333333334</ele><time>2026-04-06T15:00:38Z</time></trkpt><trkpt lat="44.80446477307626" lon="9.23555329067276"><ele>516.6666666666666</ele><time>2026-04-06T15:00:39Z</time></trkpt><trkpt lat="44.80452421788297" lon="9.235287928803782"><ele>515.0</ele><time>2026-04-06T15:00:40Z</time></trkpt><trkpt lat="44.80459561775576" lon="9.235009050536815"><ele>513.3333333333333</ele><time>2026-04-06T15:00:41Z</time></trkpt><trkpt lat="44.804670840534406" lon="9.234735595302901"><ele>511.66666666666663</ele><time>2026-04-06T15:00:42Z</time></trkpt><trkpt lat="44.80473995571996" lon="9.234485611151376"><ele>510.0</ele><time>2026-04-06T15:00:43Z</time></trkpt><trkpt lat="44.80479369431788" lon="9.234250379487712"><ele>510.0</ele><time>2026-04-06T15:00:44Z</time></trkpt><trkpt lat="44.80482840350521" lon="9.234015151506187"><ele>510.0</ele><time>2026-04-06T15:00:45Z</time></trkpt><trkpt lat="44.80484129293605" lon="9.23377782892409"><ele>510.0</ele><time>2026-04-06T15:00:46Z</time></trkpt><trkpt lat="44.80483521653387" lon="9.233532801631101"><ele>509.33333333333337</ele><time>2026-04-06T15:00:47Z</time></trkpt><trkpt lat="44.80481120712358" lon="9.233273193407872"><ele>508.6666666666667</ele><time>2026-04-06T15:00:48Z</time></trkpt><trkpt lat="44.804789840060955" lon="9.233024299027129"><ele>508.0</ele><time>2026-04-06T15:00:49Z</time></trkpt><trkpt lat="44.804785418309756" lon="9.232795706186506"><ele>508.0</ele><time>2026-04-06T15:00:50Z</time></trkpt><trkpt lat="44.80480494558937" lon="9.232575496224078"><ele>508.0</ele><time>2026-04-06T15:00:51Z</time></trkpt><trkpt lat="44.80485101619485" lon="9.232334993675048"><ele>508.0</ele><time>2026-04-06T15:00:52Z</time></trkpt><trkpt lat="44.80491555067956" lon="9.232061839688638"><ele>507.0</ele><time>2026-04-06T15:00:53Z</time></trkpt><trkpt lat="44.80497595845139" lon="9.23180081476823"><ele>506.0</ele><time>2026-04-06T15:00:54Z</time></trkpt><trkpt lat="44.80502767299819" lon="9.231592832393973"><ele>505.0</ele><time>2026-04-06T15:00:55Z</time></trkpt><trkpt lat="44.80509883813125" lon="9.231411513229059"><ele>507.0</ele><time>2026-04-06T15:00:55.999Z</time></trkpt><trkpt lat="44.80521180886083" lon="9.23123727509991"><ele>509.0</ele><time>2026-04-06T15:00:56.999Z</time></trkpt><trkpt lat="44.80532558044572" lon="9.231085601804507"><ele>511.0</ele><time>2026-04-06T15:00:57.999Z</time></trkpt><trkpt lat="44.80540013435604" lon="9.230921547324561"><ele>511.0</ele><time>2026-04-06T15:00:58.999Z</time></trkpt><trkpt lat="44.80543072583817" lon="9.230721433232077"><ele>511.0</ele><time>2026-04-06T15:00:59.999Z</time></trkpt><trkpt lat="44.8054362417601" lon="9.230488382447787"><ele>511.0</ele><time>2026-04-06T15:01:00.999Z</time></trkpt><trkpt lat="44.80543039069396" lon="9.230227712494365"><ele>510.33333333333337</ele><time>2026-04-06T15:01:01.999Z</time></trkpt><trkpt lat="44.80542415451015" lon="9.229955098256594"><ele>509.66666666666663</ele><time>2026-04-06T15:01:02.999Z</time></trkpt><trkpt lat="44.805427156091696" lon="9.229697287160157"><ele>509.0</ele><time>2026-04-06T15:01:03.999Z</time></trkpt><trkpt lat="44.8054486018468" lon="9.22944851112291"><ele>507.3333333333333</ele><time>2026-04-06T15:01:04.999Z</time></trkpt><trkpt lat="44.80548880919664" lon="9.229204619268705"><ele>505.66666666666663</ele><time>2026-04-06T15:01:05.999Z</time></trkpt><trkpt lat="44.80554142444589" lon="9.228958388130248"><ele>504.0</ele><time>2026-04-06T15:01:06.999Z</time></trkpt><trkpt lat="44.805602528537314" lon="9.228712859560646"><ele>501.66666666666663</ele><time>2026-04-06T15:01:07.999Z</time></trkpt><trkpt lat="44.80566497407656" lon="9.228483796725877"><ele>499.3333333333333</ele><time>2026-04-06T15:01:08.999Z</time></trkpt><trkpt lat="44.805720769136656" lon="9.228271308296309"><ele>497.0</ele><time>2026-04-06T15:01:09.999Z</time></trkpt><trkpt lat="44.80576435537491" lon="9.22809032398823"><ele>496.25</ele><time>2026-04-06T15:01:10.999Z</time></trkpt><trkpt lat="44.805794394013446" lon="9.227929721667607"><ele>495.5</ele><time>2026-04-06T15:01:11.999Z</time></trkpt><trkpt lat="44.80580266939571" lon="9.227757990153702"><ele>494.75</ele><time>2026-04-06T15:01:12.999Z</time></trkpt><trkpt lat="44.80577818509733" lon="9.22756569350756"><ele>494.0</ele><time>2026-04-06T15:01:13.999Z</time></trkpt><trkpt lat="44.80572134859506" lon="9.22735287597624"><ele>493.3333333333333</ele><time>2026-04-06T15:01:14.999Z</time></trkpt><trkpt lat="44.8056452440407" lon="9.227105044004002"><ele>492.66666666666663</ele><time>2026-04-06T15:01:15.999Z</time></trkpt><trkpt lat="44.80555765181223" lon="9.226861875078901"><ele>492.0</ele><time>2026-04-06T15:01:16.999Z</time></trkpt><trkpt lat="44.805488042196764" lon="9.226657236114272"><ele>492.0</ele><time>2026-04-06T15:01:17.999Z</time></trkpt><trkpt lat="44.80543048808802" lon="9.226491543972049"><ele>492.00000000000006</ele><time>2026-04-06T15:01:18.999Z</time></trkpt><trkpt lat="44.80539022887486" lon="9.22635845231698"><ele>492.00000000000006</ele><time>2026-04-06T15:01:19.999Z</time></trkpt><trkpt lat="44.805380654873396" lon="9.226233541946398"><ele>492.0</ele><time>2026-04-06T15:01:20.999Z</time></trkpt><trkpt lat="44.80541444227526" lon="9.226103871739221"><ele>492.0</ele><time>2026-04-06T15:01:21.999Z</time></trkpt><trkpt lat="44.80549069444844" lon="9.225966235385794"><ele>490.75</ele><time>2026-04-06T15:01:22.999Z</time></trkpt><trkpt lat="44.805592326303206" lon="9.225813444304016"><ele>489.5</ele><time>2026-04-06T15:01:24Z</time></trkpt><trkpt lat="44.80569675251439" lon="9.225668143715723"><ele>488.25</ele><time>2026-04-06T15:01:25Z</time></trkpt><trkpt lat="44.805795689851166" lon="9.2255608262936"><ele>487.0</ele><time>2026-04-06T15:01:26Z</time></trkpt><trkpt lat="44.80592125271375" lon="9.225527771754663"><ele>485.6666666666667</ele><time>2026-04-06T15:01:27Z</time></trkpt><trkpt lat="44.80605879872508" lon="9.225458738567069"><ele>484.33333333333337</ele><time>2026-04-06T15:01:28Z</time></trkpt><trkpt lat="44.806207226468224" lon="9.225429395638947"><ele>483.0</ele><time>2026-04-06T15:01:29Z</time></trkpt><trkpt lat="44.80636108454933" lon="9.225387312067431"><ele>483.0</ele><time>2026-04-06T15:01:30Z</time></trkpt><trkpt lat="44.80648409423506" lon="9.225331209621208"><ele>483.0</ele><time>2026-04-06T15:01:31Z</time></trkpt><trkpt lat="44.80657580654829" lon="9.225251854281169"><ele>483.0</ele><time>2026-04-06T15:01:32Z</time></trkpt><trkpt lat="44.80664064251562" lon="9.225136659211374"><ele>483.0</ele><time>2026-04-06T15:01:33Z</time></trkpt><trkpt lat="44.80667980539611" lon="9.224988625014374"><ele>482.0</ele><time>2026-04-06T15:01:34Z</time></trkpt><trkpt lat="44.80669978686157" lon="9.224807242051192"><ele>481.0</ele><time>2026-04-06T15:01:35Z</time></trkpt><trkpt lat="44.80670616878569" lon="9.224602446349536"><ele>480.0</ele><time>2026-04-06T15:01:36Z</time></trkpt><trkpt lat="44.80669832481633" lon="9.224414480433737"><ele>479.0</ele><time>2026-04-06T15:01:37Z</time></trkpt><trkpt lat="44.80665939904508" lon="9.224247309444333"><ele>479.0</ele><time>2026-04-06T15:01:38Z</time></trkpt><trkpt lat="44.80659026231687" lon="9.224093826218905"><ele>479.0</ele><time>2026-04-06T15:01:39Z</time></trkpt><trkpt lat="44.80649474486863" lon="9.223940802566991"><ele>479.0</ele><time>2026-04-06T15:01:40Z</time></trkpt><trkpt lat="44.80640500005322" lon="9.223810260945875"><ele>479.0</ele><time>2026-04-06T15:01:41Z</time></trkpt><trkpt lat="44.806339406289446" lon="9.223681630215976"><ele>477.75</ele><time>2026-04-06T15:01:42Z</time></trkpt><trkpt lat="44.80630873598797" lon="9.223540695494322"><ele>476.5</ele><time>2026-04-06T15:01:43Z</time></trkpt><trkpt lat="44.806338160101035" lon="9.22339920331455"><ele>475.25</ele><time>2026-04-06T15:01:44Z</time></trkpt><trkpt lat="44.806366936788706" lon="9.22324653981373"><ele>474.0</ele><time>2026-04-06T15:01:45Z</time></trkpt><trkpt lat="44.80646874743938" lon="9.22309962324285"><ele>472.33333333333337</ele><time>2026-04-06T15:01:46Z</time></trkpt><trkpt lat="44.80658185025265" lon="9.222911997111458"><ele>470.6666666666667</ele><time>2026-04-06T15:01:47Z</time></trkpt><trkpt lat="44.80668406960119" lon="9.222718342890259"><ele>469.0</ele><time>2026-04-06T15:01:48Z</time></trkpt><trkpt lat="44.80678549740029" lon="9.222559861575679"><ele>470.0</ele><time>2026-04-06T15:01:49Z</time></trkpt><trkpt lat="44.80687957321859" lon="9.222415846739562"><ele>471.0</ele><time>2026-04-06T15:01:50Z</time></trkpt><trkpt lat="44.80698066912188" lon="9.222302319666747"><ele>472.0</ele><time>2026-04-06T15:01:51Z</time></trkpt><trkpt lat="44.80707317907789" lon="9.222206369111168"><ele>473.0</ele><time>2026-04-06T15:01:52Z</time></trkpt><trkpt lat="44.807177025242275" lon="9.2221407639955"><ele>470.75</ele><time>2026-04-06T15:01:53Z</time></trkpt><trkpt lat="44.80730283780584" lon="9.222121231719631"><ele>468.5</ele><time>2026-04-06T15:01:54Z</time></trkpt><trkpt lat="44.807438220514875" lon="9.222115928652594"><ele>466.25</ele><time>2026-04-06T15:01:55Z</time></trkpt><trkpt lat="44.80758934589286" lon="9.222109288812721"><ele>464.0</ele><time>2026-04-06T15:01:56Z</time></trkpt><trkpt lat="44.80772126150907" lon="9.22210858686029"><ele>464.0</ele><time>2026-04-06T15:01:57Z</time></trkpt><trkpt lat="44.8078427488654" lon="9.222093242763334"><ele>464.0</ele><time>2026-04-06T15:01:58Z</time></trkpt><trkpt lat="44.807956189797785" lon="9.222098696435355"><ele>464.0</ele><time>2026-04-06T15:01:59Z</time></trkpt><trkpt lat="44.808068264442845" lon="9.222073490627006"><ele>464.0</ele><time>2026-04-06T15:02:00Z</time></trkpt><trkpt lat="44.80817153383553" lon="9.222062293594286"><ele>464.0</ele><time>2026-04-06T15:02:01Z</time></trkpt><trkpt lat="44.808262152757905" lon="9.222021118040374"><ele>464.0</ele><time>2026-04-06T15:02:02Z</time></trkpt><trkpt lat="44.80832818994075" lon="9.221947159513844"><ele>464.0</ele><time>2026-04-06T15:02:03Z</time></trkpt><trkpt lat="44.80836485134886" lon="9.221832484054671"><ele>464.0</ele><time>2026-04-06T15:02:04Z</time></trkpt><trkpt lat="44.80840619616178" lon="9.221707248432748"><ele>464.0</ele><time>2026-04-06T15:02:05Z</time></trkpt><trkpt lat="44.80844773184444" lon="9.221571218840145"><ele>464.0</ele><time>2026-04-06T15:02:06Z</time></trkpt><trkpt lat="44.808494775448935" lon="9.221424651801087"><ele>464.0</ele><time>2026-04-06T15:02:07Z</time></trkpt><trkpt lat="44.80854354931872" lon="9.221277541717162"><ele>464.0</ele><time>2026-04-06T15:02:08Z</time></trkpt><trkpt lat="44.80859865903431" lon="9.221124313537132"><ele>464.0</ele><time>2026-04-06T15:02:09Z</time></trkpt><trkpt lat="44.808662127453886" lon="9.220977985762369"><ele>464.0</ele><time>2026-04-06T15:02:10Z</time></trkpt><trkpt lat="44.808740156904214" lon="9.220846990133941"><ele>464.0</ele><time>2026-04-06T15:02:11Z</time></trkpt><trkpt lat="44.80883511573962" lon="9.22074272028435"><ele>464.0</ele><time>2026-04-06T15:02:12Z</time></trkpt><trkpt lat="44.808954039255866" lon="9.220653837118146"><ele>464.0</ele><time>2026-04-06T15:02:13Z</time></trkpt><trkpt lat="44.809081856578786" lon="9.220576993597614"><ele>463.25</ele><time>2026-04-06T15:02:14Z</time></trkpt><trkpt lat="44.80921222470584" lon="9.220527851792012"><ele>462.5</ele><time>2026-04-06T15:02:15Z</time></trkpt><trkpt lat="44.80933807532741" lon="9.22048491473008"><ele>461.75</ele><time>2026-04-06T15:02:16Z</time></trkpt><trkpt lat="44.809452842657116" lon="9.220435726875317"><ele>461.0</ele><time>2026-04-06T15:02:17Z</time></trkpt><trkpt lat="44.80956066096611" lon="9.220387827016507"><ele>461.0</ele><time>2026-04-06T15:02:18Z</time></trkpt><trkpt lat="44.80965886901202" lon="9.220345347669141"><ele>461.0</ele><time>2026-04-06T15:02:19Z</time></trkpt><trkpt lat="44.80974716084201" lon="9.220302073095816"><ele>461.0</ele><time>2026-04-06T15:02:20Z</time></trkpt><trkpt lat="44.809819811760356" lon="9.220282486780418"><ele>461.0</ele><time>2026-04-06T15:02:21Z</time></trkpt><trkpt lat="44.81007655467767" lon="9.220061526465475"><ele>461.75</ele><time>2026-04-06T15:02:23Z</time></trkpt><trkpt lat="44.81016153796956" lon="9.21993932531986"><ele>462.5</ele><time>2026-04-06T15:02:24Z</time></trkpt><trkpt lat="44.81023285791035" lon="9.219778865945107"><ele>463.25</ele><time>2026-04-06T15:02:25Z</time></trkpt><trkpt lat="44.81029762672159" lon="9.219573844226854"><ele>464.0</ele><time>2026-04-06T15:02:26Z</time></trkpt><trkpt lat="44.81039086110299" lon="9.21933031554284"><ele>464.0</ele><time>2026-04-06T15:02:27Z</time></trkpt><trkpt lat="44.81048568000059" lon="9.21910014407441"><ele>464.0</ele><time>2026-04-06T15:02:28Z</time></trkpt><trkpt lat="44.8105677832338" lon="9.218896397723022"><ele>464.0</ele><time>2026-04-06T15:02:29Z</time></trkpt><trkpt lat="44.81065936693412" lon="9.218685530982631"><ele>462.0</ele><time>2026-04-06T15:02:30Z</time></trkpt><trkpt lat="44.81076494117009" lon="9.218498851007983"><ele>460.0</ele><time>2026-04-06T15:02:31Z</time></trkpt><trkpt lat="44.810867986369146" lon="9.2183333050373"><ele>458.0</ele><time>2026-04-06T15:02:32Z</time></trkpt><trkpt lat="44.81097431656195" lon="9.218193340333764"><ele>458.0</ele><time>2026-04-06T15:02:33Z</time></trkpt><trkpt lat="44.81108466109672" lon="9.218069061659278"><ele>458.0</ele><time>2026-04-06T15:02:34Z</time></trkpt><trkpt lat="44.811236711590475" lon="9.218001229679984"><ele>458.0</ele><time>2026-04-06T15:02:35Z</time></trkpt><trkpt lat="44.81139120227817" lon="9.217909422871859"><ele>458.0</ele><time>2026-04-06T15:02:36Z</time></trkpt><trkpt lat="44.81155684790118" lon="9.21781527251984"><ele>458.0</ele><time>2026-04-06T15:02:37Z</time></trkpt><trkpt lat="44.811714570812796" lon="9.217696946923917"><ele>458.0</ele><time>2026-04-06T15:02:38Z</time></trkpt><trkpt lat="44.811894036329655" lon="9.217602786568198"><ele>458.0</ele><time>2026-04-06T15:02:39Z</time></trkpt><trkpt lat="44.81207010765059" lon="9.217473082647041"><ele>458.0</ele><time>2026-04-06T15:02:40Z</time></trkpt><trkpt lat="44.8122558526138" lon="9.217320992569753"><ele>458.0</ele><time>2026-04-06T15:02:41Z</time></trkpt><trkpt lat="44.812453495680856" lon="9.217147516884742"><ele>460.5</ele><time>2026-04-06T15:02:42Z</time></trkpt><trkpt lat="44.812661204788704" lon="9.21696294521849"><ele>463.0</ele><time>2026-04-06T15:02:43Z</time></trkpt><trkpt lat="44.81285407293962" lon="9.216787180924616"><ele>463.0</ele><time>2026-04-06T15:02:44Z</time></trkpt><trkpt lat="44.81305695854895" lon="9.216604392467742"><ele>463.0</ele><time>2026-04-06T15:02:45Z</time></trkpt><trkpt lat="44.813231064471104" lon="9.216448730847898"><ele>463.0</ele><time>2026-04-06T15:02:46Z</time></trkpt><trkpt lat="44.813377454015246" lon="9.216314510723487"><ele>462.6666666666667</ele><time>2026-04-06T15:02:47Z</time></trkpt><trkpt lat="44.81350677221711" lon="9.216186583444419"><ele>462.33333333333337</ele><time>2026-04-06T15:02:48Z</time></trkpt><trkpt lat="44.81362405018663" lon="9.216054508000537"><ele>462.0</ele><time>2026-04-06T15:02:49Z</time></trkpt><trkpt lat="44.813727263712515" lon="9.215899548972457"><ele>462.0</ele><time>2026-04-06T15:02:50Z</time></trkpt><trkpt lat="44.81382840161246" lon="9.215724130394255"><ele>462.0</ele><time>2026-04-06T15:02:51Z</time></trkpt><trkpt lat="44.81390853096148" lon="9.2155002093342"><ele>462.0</ele><time>2026-04-06T15:02:52Z</time></trkpt><trkpt lat="44.81399741086745" lon="9.2152485772766"><ele>460.66666666666663</ele><time>2026-04-06T15:02:53Z</time></trkpt><trkpt lat="44.8140848666439" lon="9.215002299234955"><ele>459.3333333333333</ele><time>2026-04-06T15:02:54Z</time></trkpt><trkpt lat="44.81415015745497" lon="9.214786823601278"><ele>458.0</ele><time>2026-04-06T15:02:55Z</time></trkpt><trkpt lat="44.81422524358732" lon="9.214594903594028"><ele>457.0</ele><time>2026-04-06T15:02:56Z</time></trkpt><trkpt lat="44.814318567009984" lon="9.214435121914729"><ele>456.0</ele><time>2026-04-06T15:02:57Z</time></trkpt><trkpt lat="44.81443227552622" lon="9.214320704788092"><ele>455.0</ele><time>2026-04-06T15:02:58Z</time></trkpt><trkpt lat="44.814567243232084" lon="9.21422297589916"><ele>454.0</ele><time>2026-04-06T15:02:59Z</time></trkpt><trkpt lat="44.81471899062562" lon="9.214186392973357"><ele>454.0</ele><time>2026-04-06T15:03:00Z</time></trkpt><trkpt lat="44.81489700273396" lon="9.21416785333194"><ele>454.0</ele><time>2026-04-06T15:03:01Z</time></trkpt><trkpt lat="44.815098846329" lon="9.214138180970986"><ele>454.0</ele><time>2026-04-06T15:03:02Z</time></trkpt><trkpt lat="44.81528711501549" lon="9.214136110464667"><ele>455.33333333333337</ele><time>2026-04-06T15:03:03Z</time></trkpt><trkpt lat="44.81545277769389" lon="9.214110002809736"><ele>456.66666666666663</ele><time>2026-04-06T15:03:04Z</time></trkpt><trkpt lat="44.81561517983977" lon="9.214044942599108"><ele>458.0</ele><time>2026-04-06T15:03:05Z</time></trkpt><trkpt lat="44.81578471493841" lon="9.213947824138229"><ele>456.0</ele><time>2026-04-06T15:03:06Z</time></trkpt><trkpt lat="44.815961579199794" lon="9.213810517491481"><ele>454.0</ele><time>2026-04-06T15:03:07Z</time></trkpt><trkpt lat="44.81613182190678" lon="9.213667983165971"><ele>452.0</ele><time>2026-04-06T15:03:08Z</time></trkpt><trkpt lat="44.81630223739808" lon="9.213561803245728"><ele>452.0</ele><time>2026-04-06T15:03:09Z</time></trkpt><trkpt lat="44.81649886832932" lon="9.213479478437772"><ele>452.0</ele><time>2026-04-06T15:03:10Z</time></trkpt><trkpt lat="44.8167181664412" lon="9.21339210736452"><ele>452.0</ele><time>2026-04-06T15:03:11Z</time></trkpt><trkpt lat="44.81693054881343" lon="9.21331246065078"><ele>452.66666666666663</ele><time>2026-04-06T15:03:12Z</time></trkpt><trkpt lat="44.81711342868304" lon="9.21324697376634"><ele>453.33333333333337</ele><time>2026-04-06T15:03:13Z</time></trkpt><trkpt lat="44.81727581947814" lon="9.213198406740926"><ele>454.0</ele><time>2026-04-06T15:03:14Z</time></trkpt><trkpt lat="44.81742060440132" lon="9.213180695894064"><ele>454.0</ele><time>2026-04-06T15:03:15Z</time></trkpt><trkpt lat="44.81756178272293" lon="9.213211188627033"><ele>454.0</ele><time>2026-04-06T15:03:15.999Z</time></trkpt><trkpt lat="44.817704293286674" lon="9.213270091032433"><ele>454.0</ele><time>2026-04-06T15:03:16.999Z</time></trkpt><trkpt lat="44.817855826637484" lon="9.21335586760085"><ele>452.6666666666667</ele><time>2026-04-06T15:03:17.999Z</time></trkpt><trkpt lat="44.81801135966848" lon="9.213465757177442"><ele>451.33333333333337</ele><time>2026-04-06T15:03:18.999Z</time></trkpt><trkpt lat="44.81819042303114" lon="9.213597115706408"><ele>450.0</ele><time>2026-04-06T15:03:19.999Z</time></trkpt><trkpt lat="44.81836560718137" lon="9.213715064631566"><ele>449.0</ele><time>2026-04-06T15:03:20.999Z</time></trkpt><trkpt lat="44.81851163841611" lon="9.213810785995461"><ele>448.0</ele><time>2026-04-06T15:03:21.999Z</time></trkpt><trkpt lat="44.81862626172819" lon="9.213880109451416"><ele>447.0</ele><time>2026-04-06T15:03:22.999Z</time></trkpt><trkpt lat="44.81871302970103" lon="9.21391907992559"><ele>446.0</ele><time>2026-04-06T15:03:23.999Z</time></trkpt><trkpt lat="44.81882007604134" lon="9.213935072480608"><ele>446.0</ele><time>2026-04-06T15:03:25.999Z</time></trkpt><trkpt lat="44.81892963408658" lon="9.213799603983432"><ele>446.0</ele><time>2026-04-06T15:03:27.999Z</time></trkpt><trkpt lat="44.81902054937845" lon="9.213673900508665"><ele>446.0</ele><time>2026-04-06T15:03:28.999Z</time></trkpt><trkpt lat="44.81913917377022" lon="9.213535684931873"><ele>446.0</ele><time>2026-04-06T15:03:30Z</time></trkpt><trkpt lat="44.819268099411616" lon="9.213404953658484"><ele>446.75</ele><time>2026-04-06T15:03:31Z</time></trkpt><trkpt lat="44.81940836379885" lon="9.213283589571843"><ele>447.5</ele><time>2026-04-06T15:03:32Z</time></trkpt><trkpt lat="44.81952720068946" lon="9.21318607694679"><ele>448.25</ele><time>2026-04-06T15:03:33Z</time></trkpt><trkpt lat="44.819616803123246" lon="9.213091726828551"><ele>449.0</ele><time>2026-04-06T15:03:34Z</time></trkpt><trkpt lat="44.81969038440484" lon="9.213002242577186"><ele>451.25</ele><time>2026-04-06T15:03:35Z</time></trkpt><trkpt lat="44.81970374893591" lon="9.212847384123862"><ele>453.5</ele><time>2026-04-06T15:03:36Z</time></trkpt><trkpt lat="44.81970921148179" lon="9.212692130491533"><ele>455.75</ele><time>2026-04-06T15:03:37Z</time></trkpt><trkpt lat="44.819689134524054" lon="9.212504387171393"><ele>458.0</ele><time>2026-04-06T15:03:38Z</time></trkpt><trkpt lat="44.81964117190514" lon="9.212288321765325"><ele>460.0</ele><time>2026-04-06T15:03:39Z</time></trkpt><trkpt lat="44.81956736850834" lon="9.212029837404806"><ele>462.0</ele><time>2026-04-06T15:03:40Z</time></trkpt><trkpt lat="44.81947987613308" lon="9.211724702246794"><ele>464.0</ele><time>2026-04-06T15:03:41Z</time></trkpt><trkpt lat="44.81939539565034" lon="9.21139517974987"><ele>466.0</ele><time>2026-04-06T15:03:42Z</time></trkpt><trkpt lat="44.81932563248275" lon="9.2110786198733"><ele>468.0</ele><time>2026-04-06T15:03:43Z</time></trkpt><trkpt lat="44.81925140955943" lon="9.210757460038717"><ele>459.66666666666663</ele><time>2026-04-06T15:03:44Z</time></trkpt><trkpt lat="44.81918470508973" lon="9.210475841327664"><ele>451.3333333333333</ele><time>2026-04-06T15:03:45Z</time></trkpt><trkpt lat="44.81912542178467" lon="9.21022563967452"><ele>443.0</ele><time>2026-04-06T15:03:46Z</time></trkpt><trkpt lat="44.81907308656389" lon="9.209999192986995"><ele>442.0</ele><time>2026-04-06T15:03:47Z</time></trkpt><trkpt lat="44.81903338267817" lon="9.209792483532754"><ele>441.0</ele><time>2026-04-06T15:03:48Z</time></trkpt><trkpt lat="44.81900813747424" lon="9.209603423200972"><ele>440.0</ele><time>2026-04-06T15:03:49Z</time></trkpt><trkpt lat="44.81902427701897" lon="9.209422505854059"><ele>439.0</ele><time>2026-04-06T15:03:50Z</time></trkpt><trkpt lat="44.81905475606217" lon="9.209241967941331"><ele>439.0</ele><time>2026-04-06T15:03:51Z</time></trkpt><trkpt lat="44.819095906477585" lon="9.209050196995694"><ele>439.0</ele><time>2026-04-06T15:03:52Z</time></trkpt><trkpt lat="44.819208958800324" lon="9.20891297624382"><ele>439.0</ele><time>2026-04-06T15:03:53Z</time></trkpt><trkpt lat="44.819320292127685" lon="9.20874471632087"><ele>439.33333333333337</ele><time>2026-04-06T15:03:54Z</time></trkpt><trkpt lat="44.81943855091753" lon="9.208546212668878"><ele>439.66666666666663</ele><time>2026-04-06T15:03:55Z</time></trkpt><trkpt lat="44.81958032086262" lon="9.20834333863168"><ele>440.0</ele><time>2026-04-06T15:03:56Z</time></trkpt><trkpt lat="44.819721375789484" lon="9.208125131460312"><ele>438.3333333333333</ele><time>2026-04-06T15:03:57Z</time></trkpt><trkpt lat="44.819862130133735" lon="9.207911565430798"><ele>436.66666666666663</ele><time>2026-04-06T15:03:58Z</time></trkpt><trkpt lat="44.81999829521567" lon="9.20771170533372"><ele>435.0</ele><time>2026-04-06T15:03:59Z</time></trkpt><trkpt lat="44.820132278540854" lon="9.207520496240344"><ele>434.0</ele><time>2026-04-06T15:04:00Z</time></trkpt><trkpt lat="44.82026147005601" lon="9.207332537908835"><ele>433.0</ele><time>2026-04-06T15:04:01Z</time></trkpt><trkpt lat="44.82038339561996" lon="9.207152289179756"><ele>432.0</ele><time>2026-04-06T15:04:02Z</time></trkpt><trkpt lat="44.82049788976938" lon="9.206978325510862"><ele>432.0</ele><time>2026-04-06T15:04:03Z</time></trkpt><trkpt lat="44.82061010368918" lon="9.206814717246656"><ele>432.0</ele><time>2026-04-06T15:04:04Z</time></trkpt><trkpt lat="44.82070345079246" lon="9.206672358804367"><ele>432.0</ele><time>2026-04-06T15:04:05Z</time></trkpt><trkpt lat="44.82076933177912" lon="9.20657323745236"><ele>432.0</ele><time>2026-04-06T15:04:06Z</time></trkpt><trkpt lat="44.820819742219214" lon="9.206498526659775"><ele>432.0</ele><time>2026-04-06T15:04:07Z</time></trkpt><trkpt lat="44.82088309887377" lon="9.20640714408956"><ele>432.0</ele><time>2026-04-06T15:04:09Z</time></trkpt><trkpt lat="44.820940519458944" lon="9.206331720314978"><ele>432.0</ele><time>2026-04-06T15:04:13Z</time></trkpt><trkpt lat="44.821002636020765" lon="9.206248719618339"><ele>432.0</ele><time>2026-04-06T15:04:15Z</time></trkpt><trkpt lat="44.82105163453076" lon="9.206177716656555"><ele>432.0</ele><time>2026-04-06T15:04:16Z</time></trkpt><trkpt lat="44.821106501086035" lon="9.206092625527402"><ele>432.0</ele><time>2026-04-06T15:04:17Z</time></trkpt><trkpt lat="44.821168667525754" lon="9.206010008461929"><ele>432.0</ele><time>2026-04-06T15:04:18Z</time></trkpt><trkpt lat="44.82123161675488" lon="9.205923579901352"><ele>432.00000000000006</ele><time>2026-04-06T15:04:19Z</time></trkpt><trkpt lat="44.82130653302275" lon="9.205822827614575"><ele>432.00000000000006</ele><time>2026-04-06T15:04:20Z</time></trkpt><trkpt lat="44.82138916331787" lon="9.205714952925641"><ele>432.0</ele><time>2026-04-06T15:04:21Z</time></trkpt><trkpt lat="44.821469381094076" lon="9.205600440950366"><ele>432.0</ele><time>2026-04-06T15:04:22Z</time></trkpt><trkpt lat="44.821550855590694" lon="9.205485642018074"><ele>431.0</ele><time>2026-04-06T15:04:23Z</time></trkpt><trkpt lat="44.82161162250831" lon="9.20534893127196"><ele>430.0</ele><time>2026-04-06T15:04:24Z</time></trkpt><trkpt lat="44.82166984708566" lon="9.205209211634859"><ele>429.0</ele><time>2026-04-06T15:04:25Z</time></trkpt><trkpt lat="44.82172761469206" lon="9.205068599882912"><ele>428.0</ele><time>2026-04-06T15:04:26Z</time></trkpt><trkpt lat="44.821776655254254" lon="9.204904766973232"><ele>428.75</ele><time>2026-04-06T15:04:27Z</time></trkpt><trkpt lat="44.8218206426281" lon="9.204741606491766"><ele>429.5</ele><time>2026-04-06T15:04:28Z</time></trkpt><trkpt lat="44.8218657019136" lon="9.204573441692599"><ele>430.25</ele><time>2026-04-06T15:04:29Z</time></trkpt><trkpt lat="44.821910443300624" lon="9.204399308773151"><ele>431.0</ele><time>2026-04-06T15:04:30Z</time></trkpt><trkpt lat="44.82195573592757" lon="9.20421945340466"><ele>431.0</ele><time>2026-04-06T15:04:31Z</time></trkpt><trkpt lat="44.82200321560091" lon="9.204030868262356"><ele>431.0</ele><time>2026-04-06T15:04:32Z</time></trkpt><trkpt lat="44.822050280859486" lon="9.203842671533447"><ele>431.0</ele><time>2026-04-06T15:04:33Z</time></trkpt><trkpt lat="44.822098302969216" lon="9.203658278184623"><ele>431.0</ele><time>2026-04-06T15:04:34Z</time></trkpt><trkpt lat="44.82214410512114" lon="9.20347154275061"><ele>429.0</ele><time>2026-04-06T15:04:35Z</time></trkpt><trkpt lat="44.82219059025287" lon="9.203288379584599"><ele>427.0</ele><time>2026-04-06T15:04:36Z</time></trkpt><trkpt lat="44.8222323150098" lon="9.203108040382151"><ele>425.0</ele><time>2026-04-06T15:04:37Z</time></trkpt><trkpt lat="44.82227767899881" lon="9.20293618715901"><ele>423.0</ele><time>2026-04-06T15:04:38Z</time></trkpt><trkpt lat="44.82232236743764" lon="9.20276564065487"><ele>423.0</ele><time>2026-04-06T15:04:39Z</time></trkpt><trkpt lat="44.82236784200651" lon="9.202603797240991"><ele>423.0</ele><time>2026-04-06T15:04:40Z</time></trkpt><trkpt lat="44.822411922806616" lon="9.202440858436711"><ele>423.0</ele><time>2026-04-06T15:04:41Z</time></trkpt><trkpt lat="44.822455222625486" lon="9.202286156982199"><ele>423.0</ele><time>2026-04-06T15:04:42Z</time></trkpt><trkpt lat="44.8224937510461" lon="9.202133452484865"><ele>422.75</ele><time>2026-04-06T15:04:43Z</time></trkpt><trkpt lat="44.82253397370286" lon="9.201987835966303"><ele>422.5</ele><time>2026-04-06T15:04:44Z</time></trkpt><trkpt lat="44.82257204194961" lon="9.201830231600347"><ele>422.25</ele><time>2026-04-06T15:04:45Z</time></trkpt><trkpt lat="44.822614124024334" lon="9.201672450792993"><ele>422.0</ele><time>2026-04-06T15:04:46Z</time></trkpt><trkpt lat="44.82266560836048" lon="9.20151332576162"><ele>421.25</ele><time>2026-04-06T15:04:47Z</time></trkpt><trkpt lat="44.82270872097999" lon="9.201344898759576"><ele>420.5</ele><time>2026-04-06T15:04:48Z</time></trkpt><trkpt lat="44.82274364505532" lon="9.201182047317298"><ele>419.75</ele><time>2026-04-06T15:04:49Z</time></trkpt><trkpt lat="44.822780241595204" lon="9.201031522013494"><ele>419.0</ele><time>2026-04-06T15:04:50Z</time></trkpt><trkpt lat="44.822814585293735" lon="9.200903331218331"><ele>419.0</ele><time>2026-04-06T15:04:51Z</time></trkpt><trkpt lat="44.82285300203793" lon="9.200807228645088"><ele>419.0</ele><time>2026-04-06T15:04:52Z</time></trkpt><trkpt lat="44.822894626748216" lon="9.200661273554793"><ele>419.0</ele><time>2026-04-06T15:04:54Z</time></trkpt><trkpt lat="44.82273395818062" lon="9.20051119342627"><ele>419.0</ele><time>2026-04-06T15:04:56Z</time></trkpt><trkpt lat="44.82266301420424" lon="9.200495896796397"><ele>418.0</ele><time>2026-04-06T15:04:57Z</time></trkpt><trkpt lat="44.82259307099321" lon="9.200463151775416"><ele>417.0</ele><time>2026-04-06T15:04:58Z</time></trkpt><trkpt lat="44.8225191645836" lon="9.200412448495596"><ele>416.0</ele><time>2026-04-06T15:04:59Z</time></trkpt><trkpt lat="44.82243399784851" lon="9.20036246144462"><ele>415.0</ele><time>2026-04-06T15:05:00Z</time></trkpt><trkpt lat="44.8223432838089" lon="9.200306581434395"><ele>414.0</ele><time>2026-04-06T15:05:01Z</time></trkpt><trkpt lat="44.82224553501985" lon="9.200245513361404"><ele>414.0</ele><time>2026-04-06T15:05:02Z</time></trkpt><trkpt lat="44.82214776952407" lon="9.200188573375366"><ele>414.0</ele><time>2026-04-06T15:05:03Z</time></trkpt><trkpt lat="44.82205492650831" lon="9.200130462170412"><ele>414.0</ele><time>2026-04-06T15:05:04Z</time></trkpt><trkpt lat="44.821973109909564" lon="9.200075100822357"><ele>414.0</ele><time>2026-04-06T15:05:05Z</time></trkpt><trkpt lat="44.82189337216342" lon="9.200027996402948"><ele>414.0</ele><time>2026-04-06T15:05:06Z</time></trkpt><trkpt lat="44.82182934153788" lon="9.199978820105947"><ele>413.1666666666667</ele><time>2026-04-06T15:05:07Z</time></trkpt><trkpt lat="44.82176997948719" lon="9.199935006295904"><ele>412.33333333333337</ele><time>2026-04-06T15:05:08Z</time></trkpt><trkpt lat="44.82172284579942" lon="9.199873124877419"><ele>411.5</ele><time>2026-04-06T15:05:08.999Z</time></trkpt><trkpt lat="44.82167531415482" lon="9.199734453333216"><ele>410.6666666666667</ele><time>2026-04-06T15:05:10.999Z</time></trkpt><trkpt lat="44.8216777810129" lon="9.19963756492336"><ele>409.83333333333337</ele><time>2026-04-06T15:05:12.999Z</time></trkpt><trkpt lat="44.82172100181253" lon="9.199560442655082"><ele>409.0</ele><time>2026-04-06T15:05:17.999Z</time></trkpt><trkpt lat="44.8217240074703" lon="9.199436997268906"><ele>409.1666666666667</ele><time>2026-04-06T15:05:20.999Z</time></trkpt><trkpt lat="44.82181767245633" lon="9.199410630408156"><ele>409.33333333333337</ele><time>2026-04-06T15:05:21.999Z</time></trkpt><trkpt lat="44.82182784748432" lon="9.199288353067672"><ele>409.5</ele><time>2026-04-06T15:05:24.999Z</time></trkpt><trkpt lat="44.82183344843809" lon="9.19918334300839"><ele>409.66666666666663</ele><time>2026-04-06T15:05:27.999Z</time></trkpt><trkpt lat="44.821850498464514" lon="9.199083287007705"><ele>409.8333333333333</ele><time>2026-04-06T15:05:30.999Z</time></trkpt><trkpt lat="44.82186550218262" lon="9.198985407103025"><ele>410.0</ele><time>2026-04-06T15:05:33.999Z</time></trkpt><trkpt lat="44.82187552131341" lon="9.198886286630174"><ele>410.0</ele><time>2026-04-06T15:05:37Z</time></trkpt><trkpt lat="44.82189419203014" lon="9.198794169173414"><ele>410.0</ele><time>2026-04-06T15:05:40Z</time></trkpt><trkpt lat="44.821895378152476" lon="9.198676803105442"><ele>410.0</ele><time>2026-04-06T15:05:44Z</time></trkpt><trkpt lat="44.821907279795596" lon="9.198569090145323"><ele>410.0</ele><time>2026-04-06T15:05:47Z</time></trkpt><trkpt lat="44.821923803315975" lon="9.198442419068131"><ele>410.0</ele><time>2026-04-06T15:05:50Z</time></trkpt><trkpt lat="44.821939940003006" lon="9.198356584417992"><ele>410.0</ele><time>2026-04-06T15:05:53Z</time></trkpt><trkpt lat="44.82196721025722" lon="9.198274969485754"><ele>410.0</ele><time>2026-04-06T15:05:56Z</time></trkpt><trkpt lat="44.82197727464376" lon="9.19818394466481"><ele>410.0</ele><time>2026-04-06T15:05:59Z</time></trkpt><trkpt lat="44.821972624835674" lon="9.198087704059368"><ele>410.0</ele><time>2026-04-06T15:06:02Z</time></trkpt><trkpt lat="44.821992903282236" lon="9.198001408751892"><ele>410.0</ele><time>2026-04-06T15:06:07Z</time></trkpt><trkpt lat="44.821944009398166" lon="9.197934591384993"><ele>410.0</ele><time>2026-04-06T15:06:19Z</time></trkpt><trkpt lat="44.82199865185229" lon="9.197994575615837"><ele>410.0</ele><time>2026-04-06T15:08:41Z</time></trkpt><trkpt lat="44.82201479025084" lon="9.198083052254447"><ele>410.0</ele><time>2026-04-06T15:08:53Z</time></trkpt><trkpt lat="44.82200194967385" lon="9.1981704920182"><ele>410.0</ele><time>2026-04-06T15:09:02Z</time></trkpt><trkpt lat="44.82198694843655" lon="9.198263044857029"><ele>410.0</ele><time>2026-04-06T15:09:10Z</time></trkpt><trkpt lat="44.82204335814267" lon="9.198319533858593"><ele>410.0</ele><time>2026-04-06T15:09:22Z</time></trkpt><trkpt lat="44.82205846987234" lon="9.198410218086886"><ele>410.0</ele><time>2026-04-06T15:09:28.999Z</time></trkpt><trkpt lat="44.82205065328229" lon="9.19849982657392"><ele>410.0</ele><time>2026-04-06T15:09:34.999Z</time></trkpt><trkpt lat="44.82204944873757" lon="9.198592508794757"><ele>410.0</ele><time>2026-04-06T15:09:42.999Z</time></trkpt><trkpt lat="44.82201765918338" lon="9.198674300438013"><ele>410.0</ele><time>2026-04-06T15:09:49Z</time></trkpt><trkpt lat="44.82202059970926" lon="9.198768366489064"><ele>410.0</ele><time>2026-04-06T15:09:59Z</time></trkpt><trkpt lat="44.82200594309162" lon="9.198864573391367"><ele>410.0</ele><time>2026-04-06T15:10:05Z</time></trkpt><trkpt lat="44.82199654778215" lon="9.19895715397739"><ele>410.0</ele><time>2026-04-06T15:10:15Z</time></trkpt><trkpt lat="44.82201042309115" lon="9.199059379897458"><ele>410.0</ele><time>2026-04-06T15:10:24Z</time></trkpt><trkpt lat="44.82197470089714" lon="9.199133206501333"><ele>410.0</ele><time>2026-04-06T15:10:31Z</time></trkpt><trkpt lat="44.821959808222545" lon="9.199221940902035"><ele>410.0</ele><time>2026-04-06T15:10:38Z</time></trkpt><trkpt lat="44.82193905657119" lon="9.199317491298213"><ele>410.0</ele><time>2026-04-06T15:10:46Z</time></trkpt><trkpt lat="44.82192996831911" lon="9.199405520261507"><ele>410.0</ele><time>2026-04-06T15:10:54Z</time></trkpt><trkpt lat="44.821904840074005" lon="9.199492643743687"><ele>410.2857142857143</ele><time>2026-04-06T15:11:02Z</time></trkpt><trkpt lat="44.82185898812511" lon="9.199563715015996"><ele>410.57142857142856</ele><time>2026-04-06T15:11:10Z</time></trkpt><trkpt lat="44.82179854035196" lon="9.199600179352132"><ele>410.85714285714283</ele><time>2026-04-06T15:11:22Z</time></trkpt><trkpt lat="44.82179658654579" lon="9.199689762774181"><ele>411.1428571428571</ele><time>2026-04-06T15:11:29.999Z</time></trkpt><trkpt lat="44.821862576870004" lon="9.199736997605934"><ele>411.42857142857144</ele><time>2026-04-06T15:11:40.999Z</time></trkpt><trkpt lat="44.82192406611547" lon="9.199765111818632"><ele>411.71428571428567</ele><time>2026-04-06T15:11:49.999Z</time></trkpt><trkpt lat="44.821979849911706" lon="9.199812477294339"><ele>412.0</ele><time>2026-04-06T15:12:05Z</time></trkpt><trkpt lat="44.82204812152704" lon="9.199791246530964"><ele>411.99999999999994</ele><time>2026-04-06T15:12:15Z</time></trkpt><trkpt lat="44.82201348658582" lon="9.199709690166335"><ele>412.0</ele><time>2026-04-06T15:12:27Z</time></trkpt><trkpt lat="44.82195645089324" lon="9.199660184310305"><ele>412.0</ele><time>2026-04-06T15:12:37Z</time></trkpt><trkpt lat="44.8218963439419" lon="9.199619666955344"><ele>412.0</ele><time>2026-04-06T15:12:46Z</time></trkpt><trkpt lat="44.821896202031816" lon="9.199477670234833"><ele>412.0</ele><time>2026-04-06T15:13:14Z</time></trkpt><trkpt lat="44.82189798179378" lon="9.199383864216623"><ele>411.99999999999994</ele><time>2026-04-06T15:13:21Z</time></trkpt><trkpt lat="44.821923477921054" lon="9.199296050724929"><ele>412.0</ele><time>2026-04-06T15:13:28.999Z</time></trkpt><trkpt lat="44.82193393140399" lon="9.199208247514925"><ele>411.99999999999994</ele><time>2026-04-06T15:13:37.999Z</time></trkpt><trkpt lat="44.82194847892789" lon="9.199117998923647"><ele>412.0</ele><time>2026-04-06T15:13:45.999Z</time></trkpt><trkpt lat="44.82194869173673" lon="9.199012228503953"><ele>412.0</ele><time>2026-04-06T15:13:53.999Z</time></trkpt><trkpt lat="44.82195529621393" lon="9.198917425993564"><ele>412.0</ele><time>2026-04-06T15:14:02Z</time></trkpt><trkpt lat="44.82199641979977" lon="9.198848161559297"><ele>412.0</ele><time>2026-04-06T15:14:11Z</time></trkpt><trkpt lat="44.821998438721614" lon="9.198750111319509"><ele>411.99999999999994</ele><time>2026-04-06T15:14:19Z</time></trkpt><trkpt lat="44.82199814745993" lon="9.198647792176924"><ele>412.0</ele><time>2026-04-06T15:14:26Z</time></trkpt><trkpt lat="44.82201575805751" lon="9.198555960215167"><ele>411.71428571428567</ele><time>2026-04-06T15:14:38Z</time></trkpt><trkpt lat="44.82204618978624" lon="9.198474520725082"><ele>411.42857142857144</ele><time>2026-04-06T15:14:46Z</time></trkpt><trkpt lat="44.82204838266008" lon="9.198366380481716"><ele>411.1428571428571</ele><time>2026-04-06T15:14:53Z</time></trkpt><trkpt lat="44.82205612409499" lon="9.198270068664915"><ele>410.85714285714283</ele><time>2026-04-06T15:15:00Z</time></trkpt><trkpt lat="44.82207016561842" lon="9.198181764451569"><ele>410.57142857142856</ele><time>2026-04-06T15:15:06Z</time></trkpt><trkpt lat="44.82211314872291" lon="9.198096539483107"><ele>410.2857142857143</ele><time>2026-04-06T15:15:16Z</time></trkpt><trkpt lat="44.82215978424983" lon="9.198027505105891"><ele>410.0</ele><time>2026-04-06T15:15:25Z</time></trkpt><trkpt lat="44.82209174791406" lon="9.19805084414619"><ele>409.66666666666663</ele><time>2026-04-06T15:25:25Z</time></trkpt><trkpt lat="44.82207231995923" lon="9.197925265271754"><ele>409.3333333333333</ele><time>2026-04-06T15:33:41Z</time></trkpt><trkpt lat="44.82201409664114" lon="9.1978854305175"><ele>409.0</ele><time>2026-04-06T15:33:56Z</time></trkpt><trkpt lat="44.821970652631194" lon="9.197966181285306"><ele>408.66666666666663</ele><time>2026-04-06T15:34:04Z</time></trkpt><trkpt lat="44.82191988955196" lon="9.197812974231812"><ele>408.3333333333333</ele><time>2026-04-06T15:37:23Z</time></trkpt><trkpt lat="44.82188074252449" lon="9.197740172813722"><ele>408.0</ele><time>2026-04-06T15:37:25Z</time></trkpt><trkpt lat="44.82186324060107" lon="9.197621350586086"><ele>408.0</ele><time>2026-04-06T15:37:27Z</time></trkpt><trkpt lat="44.821897026074936" lon="9.197517228887147"><ele>408.0</ele><time>2026-04-06T15:37:29Z</time></trkpt><trkpt lat="44.82190750051195" lon="9.197417276538857"><ele>408.0</ele><time>2026-04-06T15:37:31Z</time></trkpt><trkpt lat="44.82191649446926" lon="9.197269461188464"><ele>408.0</ele><time>2026-04-06T15:37:33Z</time></trkpt><trkpt lat="44.82193346217846" lon="9.197121998190376"><ele>408.0</ele><time>2026-04-06T15:37:35Z</time></trkpt><trkpt lat="44.821945267503864" lon="9.197033643459209"><ele>408.0</ele><time>2026-04-06T15:37:36Z</time></trkpt><trkpt lat="44.82195707600599" lon="9.1969405712912"><ele>407.8333333333333</ele><time>2026-04-06T15:37:37Z</time></trkpt><trkpt lat="44.82197166802229" lon="9.196840527785199"><ele>407.66666666666663</ele><time>2026-04-06T15:37:38Z</time></trkpt><trkpt lat="44.82198363496767" lon="9.196736948254536"><ele>407.5</ele><time>2026-04-06T15:37:39Z</time></trkpt><trkpt lat="44.821994006745925" lon="9.196632576174535"><ele>407.3333333333333</ele><time>2026-04-06T15:37:40Z</time></trkpt><trkpt lat="44.82200628268216" lon="9.196520401178548"><ele>407.16666666666663</ele><time>2026-04-06T15:37:41Z</time></trkpt><trkpt lat="44.822021477433786" lon="9.19639439117907"><ele>407.0</ele><time>2026-04-06T15:37:42Z</time></trkpt><trkpt lat="44.822039356195845" lon="9.196268559792516"><ele>406.8</ele><time>2026-04-06T15:37:43Z</time></trkpt><trkpt lat="44.82205174059962" lon="9.196160500250503"><ele>406.6</ele><time>2026-04-06T15:37:44Z</time></trkpt><trkpt lat="44.82205832502838" lon="9.196056323363182"><ele>406.40000000000003</ele><time>2026-04-06T15:37:45Z</time></trkpt><trkpt lat="44.82208091451381" lon="9.195955769206092"><ele>406.20000000000005</ele><time>2026-04-06T15:37:46Z</time></trkpt><trkpt lat="44.82210028881898" lon="9.195721158672422"><ele>406.0</ele><time>2026-04-06T15:37:48Z</time></trkpt><trkpt lat="44.82211545868248" lon="9.195600699050905"><ele>405.4</ele><time>2026-04-06T15:37:49Z</time></trkpt><trkpt lat="44.82212988348374" lon="9.19547456212465"><ele>404.8</ele><time>2026-04-06T15:37:50Z</time></trkpt><trkpt lat="44.822162517420594" lon="9.195334497178584"><ele>404.2</ele><time>2026-04-06T15:37:51Z</time></trkpt><trkpt lat="44.82218098492872" lon="9.195196300969327"><ele>403.59999999999997</ele><time>2026-04-06T15:37:52Z</time></trkpt><trkpt lat="44.822198863860564" lon="9.195062509238037"><ele>403.0</ele><time>2026-04-06T15:37:53Z</time></trkpt><trkpt lat="44.82221678387584" lon="9.194928410104596"><ele>402.59999999999997</ele><time>2026-04-06T15:37:54Z</time></trkpt><trkpt lat="44.822233977378076" lon="9.19479372878829"><ele>402.2</ele><time>2026-04-06T15:37:55Z</time></trkpt><trkpt lat="44.82225077314273" lon="9.194657732264911"><ele>401.8</ele><time>2026-04-06T15:37:56Z</time></trkpt><trkpt lat="44.822258297852144" lon="9.19451322159478"><ele>401.4</ele><time>2026-04-06T15:37:57Z</time></trkpt><trkpt lat="44.822280383007005" lon="9.194365861591463"><ele>401.0</ele><time>2026-04-06T15:37:58Z</time></trkpt><trkpt lat="44.82230090575796" lon="9.194219912455534"><ele>400.99999999999994</ele><time>2026-04-06T15:37:59Z</time></trkpt><trkpt lat="44.82231698143245" lon="9.194081086746543"><ele>401.0</ele><time>2026-04-06T15:38:00Z</time></trkpt><trkpt lat="44.82233295079543" lon="9.193952030490538"><ele>401.0</ele><time>2026-04-06T15:38:01Z</time></trkpt><trkpt lat="44.82236647543903" lon="9.19385118069179"><ele>401.0</ele><time>2026-04-06T15:38:02Z</time></trkpt><trkpt lat="44.822431775342544" lon="9.193786377964441"><ele>400.99999999999994</ele><time>2026-04-06T15:38:03Z</time></trkpt><trkpt lat="44.82251785551269" lon="9.193807825234089"><ele>401.0</ele><time>2026-04-06T15:38:04Z</time></trkpt><trkpt lat="44.8226101896817" lon="9.193809276384878"><ele>402.0</ele><time>2026-04-06T15:38:05Z</time></trkpt><trkpt lat="44.82270712109625" lon="9.193809551277472"><ele>403.0</ele><time>2026-04-06T15:38:06Z</time></trkpt><trkpt lat="44.822802234844815" lon="9.193880335096276"><ele>404.0</ele><time>2026-04-06T15:38:07Z</time></trkpt><trkpt lat="44.822904043913326" lon="9.193923641109608"><ele>405.0</ele><time>2026-04-06T15:38:08Z</time></trkpt><trkpt lat="44.82298458414421" lon="9.193955363055657"><ele>406.0</ele><time>2026-04-06T15:38:09Z</time></trkpt><trkpt lat="44.82306468587576" lon="9.193967970024461"><ele>406.0</ele><time>2026-04-06T15:38:10Z</time></trkpt><trkpt lat="44.82314283977069" lon="9.194009524741494"><ele>406.0</ele><time>2026-04-06T15:38:12Z</time></trkpt><trkpt lat="44.823211337582464" lon="9.193970897737952"><ele>406.0</ele><time>2026-04-06T15:38:22Z</time></trkpt><trkpt lat="44.82324961547231" lon="9.193806221448888"><ele>406.0</ele><time>2026-04-06T15:38:24Z</time></trkpt><trkpt lat="44.82324864390338" lon="9.193685731125136"><ele>406.0</ele><time>2026-04-06T15:38:25Z</time></trkpt><trkpt lat="44.823278789448544" lon="9.193574688072529"><ele>406.0</ele><time>2026-04-06T15:38:26Z</time></trkpt><trkpt lat="44.823286697635915" lon="9.193461482197327"><ele>406.0</ele><time>2026-04-06T15:38:27Z</time></trkpt><trkpt lat="44.823309662363165" lon="9.193340569697611"><ele>406.0</ele><time>2026-04-06T15:38:28Z</time></trkpt><trkpt lat="44.82333650129529" lon="9.193208984204588"><ele>406.0</ele><time>2026-04-06T15:38:29Z</time></trkpt><trkpt lat="44.823374879422985" lon="9.193070476932578"><ele>406.0</ele><time>2026-04-06T15:38:30Z</time></trkpt><trkpt lat="44.82340762099397" lon="9.192933368845852"><ele>405.75</ele><time>2026-04-06T15:38:31Z</time></trkpt><trkpt lat="44.82344173379391" lon="9.1927726722311"><ele>405.5</ele><time>2026-04-06T15:38:32Z</time></trkpt><trkpt lat="44.82346739730591" lon="9.192610938527618"><ele>405.25</ele><time>2026-04-06T15:38:33Z</time></trkpt><trkpt lat="44.823493424506005" lon="9.19244268886754"><ele>405.0</ele><time>2026-04-06T15:38:34Z</time></trkpt><trkpt lat="44.82352423054117" lon="9.192282204836768"><ele>405.0</ele><time>2026-04-06T15:38:35Z</time></trkpt><trkpt lat="44.82355180417488" lon="9.192130839854297"><ele>405.0</ele><time>2026-04-06T15:38:36Z</time></trkpt><trkpt lat="44.82357232047169" lon="9.191986187976564"><ele>405.0</ele><time>2026-04-06T15:38:37Z</time></trkpt><trkpt lat="44.823595360710485" lon="9.191847982296364"><ele>405.0</ele><time>2026-04-06T15:38:38Z</time></trkpt><trkpt lat="44.823619477232896" lon="9.191701386389424"><ele>405.0</ele><time>2026-04-06T15:38:39Z</time></trkpt><trkpt lat="44.8236507801031" lon="9.191547470161828"><ele>404.5</ele><time>2026-04-06T15:38:40Z</time></trkpt><trkpt lat="44.823685203333405" lon="9.191389523416737"><ele>404.0</ele><time>2026-04-06T15:38:41Z</time></trkpt><trkpt lat="44.82372545214819" lon="9.191226112472085"><ele>403.5</ele><time>2026-04-06T15:38:42Z</time></trkpt><trkpt lat="44.82376391510582" lon="9.19105678415547"><ele>403.0</ele><time>2026-04-06T15:38:43Z</time></trkpt><trkpt lat="44.82380555781898" lon="9.190881549127605"><ele>403.0</ele><time>2026-04-06T15:38:44Z</time></trkpt><trkpt lat="44.82384614774598" lon="9.190707585718021"><ele>403.0</ele><time>2026-04-06T15:38:45Z</time></trkpt><trkpt lat="44.82389387414327" lon="9.190546254819811"><ele>403.0</ele><time>2026-04-06T15:38:46Z</time></trkpt><trkpt lat="44.82394989674482" lon="9.190394303777214"><ele>403.0</ele><time>2026-04-06T15:38:47Z</time></trkpt><trkpt lat="44.82401154040662" lon="9.190252868401805"><ele>402.25</ele><time>2026-04-06T15:38:48Z</time></trkpt><trkpt lat="44.824081206178995" lon="9.190123123168652"><ele>401.5</ele><time>2026-04-06T15:38:49Z</time></trkpt><trkpt lat="44.8241465279223" lon="9.189993154597193"><ele>400.75</ele><time>2026-04-06T15:38:50Z</time></trkpt><trkpt lat="44.824195042551615" lon="9.189847526395528"><ele>400.0</ele><time>2026-04-06T15:38:51Z</time></trkpt><trkpt lat="44.82424517681986" lon="9.189694997678945"><ele>400.75</ele><time>2026-04-06T15:38:52Z</time></trkpt><trkpt lat="44.82431012391524" lon="9.189548422997495"><ele>401.5</ele><time>2026-04-06T15:38:53Z</time></trkpt><trkpt lat="44.82437893836599" lon="9.189399782717874"><ele>402.25</ele><time>2026-04-06T15:38:54Z</time></trkpt><trkpt lat="44.82444171869819" lon="9.189241158083298"><ele>403.0</ele><time>2026-04-06T15:38:55Z</time></trkpt><trkpt lat="44.824496394331426" lon="9.189072468986922"><ele>402.75</ele><time>2026-04-06T15:38:56Z</time></trkpt><trkpt lat="44.82454009951572" lon="9.188892025151222"><ele>402.5</ele><time>2026-04-06T15:38:57Z</time></trkpt><trkpt lat="44.8245662049564" lon="9.18869633148223"><ele>402.25</ele><time>2026-04-06T15:38:58Z</time></trkpt><trkpt lat="44.82457527438209" lon="9.188488806883031"><ele>402.0</ele><time>2026-04-06T15:38:59Z</time></trkpt><trkpt lat="44.82457299062523" lon="9.188280970113249"><ele>400.66666666666663</ele><time>2026-04-06T15:39:00Z</time></trkpt><trkpt lat="44.82457771350702" lon="9.188076730568511"><ele>399.3333333333333</ele><time>2026-04-06T15:39:01Z</time></trkpt><trkpt lat="44.82459490379102" lon="9.18786742529864"><ele>398.0</ele><time>2026-04-06T15:39:02Z</time></trkpt><trkpt lat="44.82461646699271" lon="9.187643860121764"><ele>398.0</ele><time>2026-04-06T15:39:03Z</time></trkpt><trkpt lat="44.82463482126329" lon="9.1874160645625"><ele>398.0</ele><time>2026-04-06T15:39:04Z</time></trkpt><trkpt lat="44.824655565900514" lon="9.187177217171179"><ele>398.0</ele><time>2026-04-06T15:39:05Z</time></trkpt><trkpt lat="44.82467690142708" lon="9.186946788101196"><ele>397.3333333333333</ele><time>2026-04-06T15:39:06Z</time></trkpt><trkpt lat="44.824696889767864" lon="9.186720349244142"><ele>396.66666666666663</ele><time>2026-04-06T15:39:07Z</time></trkpt><trkpt lat="44.82471488608186" lon="9.186496100270231"><ele>396.0</ele><time>2026-04-06T15:39:08Z</time></trkpt><trkpt lat="44.8247349862814" lon="9.186273089882134"><ele>395.0</ele><time>2026-04-06T15:39:09Z</time></trkpt><trkpt lat="44.82475580227495" lon="9.186052400491299"><ele>394.0</ele><time>2026-04-06T15:39:10Z</time></trkpt><trkpt lat="44.82477801005163" lon="9.185834639729551"><ele>393.0</ele><time>2026-04-06T15:39:11Z</time></trkpt><trkpt lat="44.824799331009245" lon="9.185619519608732"><ele>393.0</ele><time>2026-04-06T15:39:11.998Z</time></trkpt><trkpt lat="44.82481504860639" lon="9.18540343917911"><ele>393.0</ele><time>2026-04-06T15:39:12.998Z</time></trkpt><trkpt lat="44.82483049508013" lon="9.185185557816057"><ele>393.0</ele><time>2026-04-06T15:39:13.998Z</time></trkpt><trkpt lat="44.824845454923405" lon="9.184967847444405"><ele>392.0</ele><time>2026-04-06T15:39:14.998Z</time></trkpt><trkpt lat="44.82485180199992" lon="9.184747577116513"><ele>391.0</ele><time>2026-04-06T15:39:15.998Z</time></trkpt><trkpt lat="44.82485262149116" lon="9.184525084008595"><ele>390.0</ele><time>2026-04-06T15:39:16.998Z</time></trkpt><trkpt lat="44.82485071010318" lon="9.18430079913279"><ele>390.0</ele><time>2026-04-06T15:39:17.998Z</time></trkpt><trkpt lat="44.824850449041534" lon="9.184076833112808"><ele>390.0</ele><time>2026-04-06T15:39:18.998Z</time></trkpt><trkpt lat="44.82485968460023" lon="9.183855524417478"><ele>390.0</ele><time>2026-04-06T15:39:19.998Z</time></trkpt><trkpt lat="44.82487654639472" lon="9.183639095204772"><ele>389.33333333333337</ele><time>2026-04-06T15:39:20.998Z</time></trkpt><trkpt lat="44.824901560809664" lon="9.183427953689648"><ele>388.6666666666667</ele><time>2026-04-06T15:39:21.998Z</time></trkpt><trkpt lat="44.82492117906111" lon="9.183217141064059"><ele>388.0</ele><time>2026-04-06T15:39:22.998Z</time></trkpt><trkpt lat="44.824939188960165" lon="9.183011098187778"><ele>388.0</ele><time>2026-04-06T15:39:23.998Z</time></trkpt><trkpt lat="44.82494645182025" lon="9.182807534735378"><ele>388.0</ele><time>2026-04-06T15:39:24.998Z</time></trkpt><trkpt lat="44.8249437079034" lon="9.18260273206601"><ele>388.0</ele><time>2026-04-06T15:39:25.998Z</time></trkpt><trkpt lat="44.82493283596468" lon="9.182399987072095"><ele>388.0</ele><time>2026-04-06T15:39:26.998Z</time></trkpt><trkpt lat="44.82491714587517" lon="9.182190809273648"><ele>388.0</ele><time>2026-04-06T15:39:27.998Z</time></trkpt><trkpt lat="44.82490286707334" lon="9.181978917385674"><ele>388.0</ele><time>2026-04-06T15:39:28.999Z</time></trkpt><trkpt lat="44.82488732815556" lon="9.181764386035304"><ele>388.0</ele><time>2026-04-06T15:39:29.999Z</time></trkpt><trkpt lat="44.824873485785666" lon="9.18154258186952"><ele>387.0</ele><time>2026-04-06T15:39:30.999Z</time></trkpt><trkpt lat="44.82486175545615" lon="9.181320580039982"><ele>386.0</ele><time>2026-04-06T15:39:31.999Z</time></trkpt><trkpt lat="44.8248505116571" lon="9.181095412913425"><ele>385.0</ele><time>2026-04-06T15:39:32.999Z</time></trkpt><trkpt lat="44.82484162628725" lon="9.18087180418493"><ele>384.33333333333337</ele><time>2026-04-06T15:39:33.999Z</time></trkpt><trkpt lat="44.82483408629429" lon="9.180642892319543"><ele>383.6666666666667</ele><time>2026-04-06T15:39:34.999Z</time></trkpt><trkpt lat="44.824828623084535" lon="9.180418563516653"><ele>383.0</ele><time>2026-04-06T15:39:35.999Z</time></trkpt><trkpt lat="44.82482410505565" lon="9.180192568597011"><ele>383.0</ele><time>2026-04-06T15:39:36.999Z</time></trkpt><trkpt lat="44.82481938330808" lon="9.17996768871899"><ele>383.0</ele><time>2026-04-06T15:39:37.999Z</time></trkpt><trkpt lat="44.82481488572354" lon="9.179741259620654"><ele>383.0</ele><time>2026-04-06T15:39:38.999Z</time></trkpt><trkpt lat="44.82480838358297" lon="9.179519123932742"><ele>382.33333333333337</ele><time>2026-04-06T15:39:39.999Z</time></trkpt><trkpt lat="44.82480256586299" lon="9.179295533531935"><ele>381.6666666666667</ele><time>2026-04-06T15:39:40.999Z</time></trkpt><trkpt lat="44.82479851007438" lon="9.179072458921345"><ele>381.0</ele><time>2026-04-06T15:39:41.999Z</time></trkpt><trkpt lat="44.824794798955004" lon="9.178850136287313"><ele>380.6666666666667</ele><time>2026-04-06T15:39:42.999Z</time></trkpt><trkpt lat="44.82479369911475" lon="9.178624649647544"><ele>380.33333333333337</ele><time>2026-04-06T15:39:43.999Z</time></trkpt><trkpt lat="44.82479537757372" lon="9.178405190753185"><ele>380.0</ele><time>2026-04-06T15:39:44.999Z</time></trkpt><trkpt lat="44.82479651743626" lon="9.17818186833298"><ele>380.0</ele><time>2026-04-06T15:39:45.999Z</time></trkpt><trkpt lat="44.82479391601912" lon="9.177962183257195"><ele>380.0</ele><time>2026-04-06T15:39:46.999Z</time></trkpt><trkpt lat="44.8247919292304" lon="9.177736760653545"><ele>380.0</ele><time>2026-04-06T15:39:47.999Z</time></trkpt><trkpt lat="44.82479079126391" lon="9.177516307448826"><ele>380.6666666666667</ele><time>2026-04-06T15:39:48.999Z</time></trkpt><trkpt lat="44.824788030593496" lon="9.177297807419118"><ele>381.3333333333333</ele><time>2026-04-06T15:39:49.999Z</time></trkpt><trkpt lat="44.82478629330523" lon="9.177079953421265"><ele>382.0</ele><time>2026-04-06T15:39:50.999Z</time></trkpt><trkpt lat="44.82478816758798" lon="9.17686608071866"><ele>382.0</ele><time>2026-04-06T15:39:51.999Z</time></trkpt><trkpt lat="44.824787978613934" lon="9.17665937129712"><ele>382.0</ele><time>2026-04-06T15:39:52.999Z</time></trkpt><trkpt lat="44.82478984770542" lon="9.17644956841442"><ele>382.0</ele><time>2026-04-06T15:39:53.999Z</time></trkpt><trkpt lat="44.824789694549644" lon="9.17623727084715"><ele>382.0</ele><time>2026-04-06T15:39:54.999Z</time></trkpt><trkpt lat="44.824785263295404" lon="9.176017093549149"><ele>382.0</ele><time>2026-04-06T15:39:55.999Z</time></trkpt><trkpt lat="44.82478340362621" lon="9.17579073245169"><ele>382.0</ele><time>2026-04-06T15:39:56.999Z</time></trkpt><trkpt lat="44.82478200792995" lon="9.175562396524207"><ele>382.0</ele><time>2026-04-06T15:39:57.999Z</time></trkpt><trkpt lat="44.82478003560208" lon="9.175333282302054"><ele>381.3333333333333</ele><time>2026-04-06T15:39:58.999Z</time></trkpt><trkpt lat="44.82477531436023" lon="9.175095355979769"><ele>380.6666666666667</ele><time>2026-04-06T15:39:59.999Z</time></trkpt><trkpt lat="44.82477280601295" lon="9.174856219556679"><ele>380.0</ele><time>2026-04-06T15:40:00.999Z</time></trkpt><trkpt lat="44.82477101704686" lon="9.174614242607582"><ele>379.6666666666667</ele><time>2026-04-06T15:40:01.999Z</time></trkpt><trkpt lat="44.82477141482659" lon="9.174368973727901"><ele>379.3333333333333</ele><time>2026-04-06T15:40:02.999Z</time></trkpt><trkpt lat="44.824771164302796" lon="9.174118318840884"><ele>379.0</ele><time>2026-04-06T15:40:03.999Z</time></trkpt><trkpt lat="44.82477138715309" lon="9.173863209292755"><ele>378.3333333333333</ele><time>2026-04-06T15:40:04.999Z</time></trkpt><trkpt lat="44.82477105354312" lon="9.173599369622073"><ele>377.6666666666667</ele><time>2026-04-06T15:40:05.999Z</time></trkpt><trkpt lat="44.824770984710234" lon="9.17333945436139"><ele>377.0</ele><time>2026-04-06T15:40:06.999Z</time></trkpt><trkpt lat="44.82476857760302" lon="9.17308545099854"><ele>376.33333333333337</ele><time>2026-04-06T15:40:07.999Z</time></trkpt><trkpt lat="44.824763259221385" lon="9.172831541466527"><ele>375.6666666666667</ele><time>2026-04-06T15:40:08.999Z</time></trkpt><trkpt lat="44.824760241843855" lon="9.172575568159909"><ele>375.0</ele><time>2026-04-06T15:40:09.999Z</time></trkpt><trkpt lat="44.824758373215865" lon="9.172317484293407"><ele>374.3333333333333</ele><time>2026-04-06T15:40:10.999Z</time></trkpt><trkpt lat="44.82475759021397" lon="9.172061007343668"><ele>373.66666666666663</ele><time>2026-04-06T15:40:11.999Z</time></trkpt><trkpt lat="44.82475486330784" lon="9.171801359130312"><ele>373.0</ele><time>2026-04-06T15:40:12.999Z</time></trkpt><trkpt lat="44.824750893380816" lon="9.171539848423366"><ele>372.3333333333333</ele><time>2026-04-06T15:40:13.999Z</time></trkpt><trkpt lat="44.82474831572914" lon="9.171281267510224"><ele>371.6666666666667</ele><time>2026-04-06T15:40:14.999Z</time></trkpt><trkpt lat="44.82474852971437" lon="9.1710240248018"><ele>371.0</ele><time>2026-04-06T15:40:15.999Z</time></trkpt><trkpt lat="44.82475055326794" lon="9.170769627864853"><ele>371.0</ele><time>2026-04-06T15:40:16.999Z</time></trkpt><trkpt lat="44.824750674325536" lon="9.170521561141726"><ele>371.0</ele><time>2026-04-06T15:40:17.999Z</time></trkpt><trkpt lat="44.82474750063874" lon="9.170271393695293"><ele>371.0</ele><time>2026-04-06T15:40:18.999Z</time></trkpt><trkpt lat="44.82474569702508" lon="9.170023068841896"><ele>371.0</ele><time>2026-04-06T15:40:19.999Z</time></trkpt><trkpt lat="44.82476118836831" lon="9.169777080353292"><ele>371.0</ele><time>2026-04-06T15:40:20.999Z</time></trkpt><trkpt lat="44.82476234884402" lon="9.16953405275911"><ele>371.0</ele><time>2026-04-06T15:40:21.999Z</time></trkpt><trkpt lat="44.82476351781087" lon="9.169289246904274"><ele>371.0</ele><time>2026-04-06T15:40:22.999Z</time></trkpt><trkpt lat="44.82476289279263" lon="9.169040404870195"><ele>371.0</ele><time>2026-04-06T15:40:23.999Z</time></trkpt><trkpt lat="44.824761245099786" lon="9.168791944003255"><ele>371.0</ele><time>2026-04-06T15:40:24.999Z</time></trkpt><trkpt lat="44.824736837934445" lon="9.168543859098687"><ele>369.33333333333337</ele><time>2026-04-06T15:40:25.999Z</time></trkpt><trkpt lat="44.82472646120198" lon="9.168286898465537"><ele>367.6666666666667</ele><time>2026-04-06T15:40:26.999Z</time></trkpt><trkpt lat="44.82470669250604" lon="9.168037491939906"><ele>366.0</ele><time>2026-04-06T15:40:27.999Z</time></trkpt><trkpt lat="44.824674804084516" lon="9.167787893530605"><ele>366.0</ele><time>2026-04-06T15:40:28.999Z</time></trkpt><trkpt lat="44.8246405368663" lon="9.167534275772171"><ele>366.0</ele><time>2026-04-06T15:40:29.999Z</time></trkpt><trkpt lat="44.82461707863431" lon="9.167287879853891"><ele>366.0</ele><time>2026-04-06T15:40:30.999Z</time></trkpt><trkpt lat="44.824619783719506" lon="9.167040354475077"><ele>365.6666666666667</ele><time>2026-04-06T15:40:31.999Z</time></trkpt><trkpt lat="44.82461944167786" lon="9.166797962477544"><ele>365.33333333333337</ele><time>2026-04-06T15:40:32.999Z</time></trkpt><trkpt lat="44.82463212912134" lon="9.166558184614209"><ele>365.0</ele><time>2026-04-06T15:40:34Z</time></trkpt><trkpt lat="44.824647429440304" lon="9.166312056619436"><ele>365.0</ele><time>2026-04-06T15:40:35Z</time></trkpt><trkpt lat="44.824652067913945" lon="9.166059767015135"><ele>365.0</ele><time>2026-04-06T15:40:36Z</time></trkpt><trkpt lat="44.82467908625559" lon="9.165812025170522"><ele>365.0</ele><time>2026-04-06T15:40:37Z</time></trkpt><trkpt lat="44.82469901584818" lon="9.165564884438092"><ele>363.6666666666667</ele><time>2026-04-06T15:40:38Z</time></trkpt><trkpt lat="44.82473815519872" lon="9.16530971106946"><ele>362.3333333333333</ele><time>2026-04-06T15:40:39Z</time></trkpt><trkpt lat="44.82478395269407" lon="9.165056895870316"><ele>361.0</ele><time>2026-04-06T15:40:40Z</time></trkpt><trkpt lat="44.82484654516314" lon="9.164813922671414"><ele>360.0</ele><time>2026-04-06T15:40:41Z</time></trkpt><trkpt lat="44.82490957493053" lon="9.164571937822114"><ele>359.0</ele><time>2026-04-06T15:40:42Z</time></trkpt><trkpt lat="44.824972471325836" lon="9.164330464604165"><ele>358.0</ele><time>2026-04-06T15:40:43Z</time></trkpt><trkpt lat="44.82502078864645" lon="9.164089376687707"><ele>358.0</ele><time>2026-04-06T15:40:44Z</time></trkpt><trkpt lat="44.825073911449174" lon="9.163852038273825"><ele>358.0</ele><time>2026-04-06T15:40:45Z</time></trkpt><trkpt lat="44.8251123736527" lon="9.163615911500466"><ele>358.0</ele><time>2026-04-06T15:40:46Z</time></trkpt><trkpt lat="44.82513565195623" lon="9.163361525395459"><ele>358.3333333333333</ele><time>2026-04-06T15:40:47Z</time></trkpt><trkpt lat="44.82514095460175" lon="9.163106206762047"><ele>358.6666666666667</ele><time>2026-04-06T15:40:48Z</time></trkpt><trkpt lat="44.825127071081106" lon="9.16284423628527"><ele>359.0</ele><time>2026-04-06T15:40:49Z</time></trkpt><trkpt lat="44.82513072644247" lon="9.162579872412397"><ele>358.6666666666667</ele><time>2026-04-06T15:40:50Z</time></trkpt><trkpt lat="44.825124277041176" lon="9.162312222206179"><ele>358.3333333333333</ele><time>2026-04-06T15:40:51Z</time></trkpt><trkpt lat="44.82510271801036" lon="9.162055871468407"><ele>358.0</ele><time>2026-04-06T15:40:52Z</time></trkpt><trkpt lat="44.825099204817725" lon="9.161790617908457"><ele>357.0</ele><time>2026-04-06T15:40:53Z</time></trkpt><trkpt lat="44.82509145420037" lon="9.16152252418714"><ele>356.0</ele><time>2026-04-06T15:40:54Z</time></trkpt><trkpt lat="44.82508944716444" lon="9.161255973353253"><ele>355.0</ele><time>2026-04-06T15:40:55Z</time></trkpt><trkpt lat="44.825083183555805" lon="9.160991619371671"><ele>355.0</ele><time>2026-04-06T15:40:56Z</time></trkpt><trkpt lat="44.82506789338643" lon="9.160728219776654"><ele>355.0</ele><time>2026-04-06T15:40:57Z</time></trkpt><trkpt lat="44.825045947928416" lon="9.160467812005212"><ele>355.0</ele><time>2026-04-06T15:40:58Z</time></trkpt><trkpt lat="44.825013346180995" lon="9.160211331848188"><ele>354.66666666666663</ele><time>2026-04-06T15:40:59Z</time></trkpt><trkpt lat="44.82497669991253" lon="9.159956444256368"><ele>354.3333333333333</ele><time>2026-04-06T15:41:00Z</time></trkpt><trkpt lat="44.82493350294114" lon="9.159717222142463"><ele>354.0</ele><time>2026-04-06T15:41:01Z</time></trkpt><trkpt lat="44.82489131896934" lon="9.159480402736099"><ele>354.0</ele><time>2026-04-06T15:41:02Z</time></trkpt><trkpt lat="44.82485314776145" lon="9.159264110340375"><ele>354.0</ele><time>2026-04-06T15:41:03Z</time></trkpt><trkpt lat="44.82481746062379" lon="9.15905210361665"><ele>354.0</ele><time>2026-04-06T15:41:04Z</time></trkpt><trkpt lat="44.82478378988669" lon="9.15884673352958"><ele>354.25</ele><time>2026-04-06T15:41:05Z</time></trkpt><trkpt lat="44.82475463253925" lon="9.158648427201637"><ele>354.5</ele><time>2026-04-06T15:41:06Z</time></trkpt><trkpt lat="44.82472314403029" lon="9.158454796543786"><ele>354.75</ele><time>2026-04-06T15:41:07Z</time></trkpt><trkpt lat="44.824685694635804" lon="9.158263870281818"><ele>355.0</ele><time>2026-04-06T15:41:08Z</time></trkpt><trkpt lat="44.824646164265104" lon="9.158078794955227"><ele>354.75</ele><time>2026-04-06T15:41:09Z</time></trkpt><trkpt lat="44.82459240564693" lon="9.157901976174507"><ele>354.5</ele><time>2026-04-06T15:41:10Z</time></trkpt><trkpt lat="44.824506343965496" lon="9.157744269773312"><ele>354.25</ele><time>2026-04-06T15:41:11Z</time></trkpt><trkpt lat="44.82439899510951" lon="9.157606317882369"><ele>354.0</ele><time>2026-04-06T15:41:12Z</time></trkpt><trkpt lat="44.82429150240734" lon="9.157506452488644"><ele>354.0</ele><time>2026-04-06T15:41:13Z</time></trkpt><trkpt lat="44.82418519190921" lon="9.157427234958337"><ele>354.0</ele><time>2026-04-06T15:41:14Z</time></trkpt><trkpt lat="44.824088011325884" lon="9.157347593891927"><ele>354.0</ele><time>2026-04-06T15:41:15Z</time></trkpt><trkpt lat="44.823993559178746" lon="9.157263161655795"><ele>354.0</ele><time>2026-04-06T15:41:16Z</time></trkpt><trkpt lat="44.82389244071337" lon="9.157170600768776"><ele>354.25</ele><time>2026-04-06T15:41:17Z</time></trkpt><trkpt lat="44.82379127291059" lon="9.15707950277176"><ele>354.5</ele><time>2026-04-06T15:41:17.998Z</time></trkpt><trkpt lat="44.823684936663355" lon="9.156982220800161"><ele>354.75</ele><time>2026-04-06T15:41:18.998Z</time></trkpt><trkpt lat="44.823587626310825" lon="9.15689091503632"><ele>355.0</ele><time>2026-04-06T15:41:19.998Z</time></trkpt><trkpt lat="44.82349696143561" lon="9.156789914415592"><ele>355.0</ele><time>2026-04-06T15:41:20.998Z</time></trkpt><trkpt lat="44.823420766517295" lon="9.156670937550938"><ele>355.0</ele><time>2026-04-06T15:41:21.998Z</time></trkpt><trkpt lat="44.82336712522789" lon="9.156520768297101"><ele>355.0</ele><time>2026-04-06T15:41:22.998Z</time></trkpt><trkpt lat="44.823363463413244" lon="9.156345994585935"><ele>355.0</ele><time>2026-04-06T15:41:23.998Z</time></trkpt><trkpt lat="44.82335913593393" lon="9.156176526916504"><ele>355.0</ele><time>2026-04-06T15:41:24.998Z</time></trkpt><trkpt lat="44.82336783401358" lon="9.156006201147097"><ele>355.0</ele><time>2026-04-06T15:41:25.998Z</time></trkpt><trkpt lat="44.823372393979724" lon="9.15584007438846"><ele>355.0</ele><time>2026-04-06T15:41:26.998Z</time></trkpt><trkpt lat="44.823376662745325" lon="9.155687112912409"><ele>355.0</ele><time>2026-04-06T15:41:27.998Z</time></trkpt><trkpt lat="44.82338139430329" lon="9.155531303160986"><ele>354.5</ele><time>2026-04-06T15:41:28.998Z</time></trkpt><trkpt lat="44.8233865397806" lon="9.155366428006827"><ele>354.0</ele><time>2026-04-06T15:41:29.999Z</time></trkpt><trkpt lat="44.82339085603269" lon="9.155184596882403"><ele>353.5</ele><time>2026-04-06T15:41:30.999Z</time></trkpt><trkpt lat="44.82339695236116" lon="9.154991319016924"><ele>353.0</ele><time>2026-04-06T15:41:31.999Z</time></trkpt><trkpt lat="44.82340230379664" lon="9.154796742778649"><ele>352.25</ele><time>2026-04-06T15:41:32.999Z</time></trkpt><trkpt lat="44.82340760590341" lon="9.154603959061753"><ele>351.5</ele><time>2026-04-06T15:41:33.999Z</time></trkpt><trkpt lat="44.823412079563965" lon="9.154422181462143"><ele>350.75</ele><time>2026-04-06T15:41:34.999Z</time></trkpt><trkpt lat="44.82341705216296" lon="9.154223684498145"><ele>350.0</ele><time>2026-04-06T15:41:35.999Z</time></trkpt><trkpt lat="44.82340502275961" lon="9.154015527584104"><ele>348.33333333333337</ele><time>2026-04-06T15:41:36.999Z</time></trkpt><trkpt lat="44.82340939298399" lon="9.153800884430503"><ele>346.6666666666667</ele><time>2026-04-06T15:41:37.999Z</time></trkpt><trkpt lat="44.82343032115412" lon="9.153584989634377"><ele>345.0</ele><time>2026-04-06T15:41:38.999Z</time></trkpt><trkpt lat="44.82343479700531" lon="9.153364167602309"><ele>345.0</ele><time>2026-04-06T15:41:39.999Z</time></trkpt><trkpt lat="44.82343956412342" lon="9.153140296393824"><ele>345.0</ele><time>2026-04-06T15:41:40.999Z</time></trkpt><trkpt lat="44.82344436176397" lon="9.152911921554619"><ele>345.0</ele><time>2026-04-06T15:41:41.999Z</time></trkpt><trkpt lat="44.82344967786575" lon="9.152682040177893"><ele>345.0</ele><time>2026-04-06T15:41:42.999Z</time></trkpt><trkpt lat="44.823455446149865" lon="9.15244748353935"><ele>345.0</ele><time>2026-04-06T15:41:43.999Z</time></trkpt><trkpt lat="44.823444632518374" lon="9.152215325861128"><ele>345.0</ele><time>2026-04-06T15:41:44.999Z</time></trkpt><trkpt lat="44.82345327589824" lon="9.151981255856555"><ele>346.0</ele><time>2026-04-06T15:41:45.999Z</time></trkpt><trkpt lat="44.82346188309397" lon="9.151744632719703"><ele>347.0</ele><time>2026-04-06T15:41:46.999Z</time></trkpt><trkpt lat="44.82347162644788" lon="9.151505719125991"><ele>348.0</ele><time>2026-04-06T15:41:47.999Z</time></trkpt><trkpt lat="44.823483287889324" lon="9.15126497717028"><ele>348.0</ele><time>2026-04-06T15:41:48.999Z</time></trkpt><trkpt lat="44.82349434388816" lon="9.151019639087872"><ele>348.0</ele><time>2026-04-06T15:41:49.999Z</time></trkpt><trkpt lat="44.82350420958335" lon="9.15077109719917"><ele>348.0</ele><time>2026-04-06T15:41:50.999Z</time></trkpt><trkpt lat="44.82351540965747" lon="9.150516113766717"><ele>347.6666666666667</ele><time>2026-04-06T15:41:51.999Z</time></trkpt><trkpt lat="44.82352572081055" lon="9.150254920466232"><ele>347.33333333333337</ele><time>2026-04-06T15:41:52.999Z</time></trkpt><trkpt lat="44.823540871896164" lon="9.149987749203314"><ele>347.0</ele><time>2026-04-06T15:41:53.999Z</time></trkpt><trkpt lat="44.82355630912921" lon="9.14971999358063"><ele>346.0</ele><time>2026-04-06T15:41:54.999Z</time></trkpt><trkpt lat="44.82357614417896" lon="9.149453639936766"><ele>345.0</ele><time>2026-04-06T15:41:56Z</time></trkpt><trkpt lat="44.82359866136916" lon="9.149197280726687"><ele>344.0</ele><time>2026-04-06T15:41:57Z</time></trkpt><trkpt lat="44.82362395208031" lon="9.148937532005938"><ele>343.6666666666667</ele><time>2026-04-06T15:41:58Z</time></trkpt><trkpt lat="44.82364923707787" lon="9.148677594954714"><ele>343.3333333333333</ele><time>2026-04-06T15:41:59Z</time></trkpt><trkpt lat="44.82367811726824" lon="9.148412808496841"><ele>343.0</ele><time>2026-04-06T15:42:00Z</time></trkpt><trkpt lat="44.82370323523124" lon="9.14815024658158"><ele>343.0</ele><time>2026-04-06T15:42:01Z</time></trkpt><trkpt lat="44.823730106524415" lon="9.147884633099055"><ele>343.0</ele><time>2026-04-06T15:42:02Z</time></trkpt><trkpt lat="44.82375803753879" lon="9.14761694359778"><ele>343.0</ele><time>2026-04-06T15:42:03Z</time></trkpt><trkpt lat="44.82378530202105" lon="9.147350866841734"><ele>343.66666666666663</ele><time>2026-04-06T15:42:04Z</time></trkpt><trkpt lat="44.823812211695554" lon="9.147080729670462"><ele>344.3333333333333</ele><time>2026-04-06T15:42:05Z</time></trkpt><trkpt lat="44.8238383255404" lon="9.146817332801328"><ele>345.0</ele><time>2026-04-06T15:42:06Z</time></trkpt><trkpt lat="44.82386305373799" lon="9.146551872271315"><ele>344.3333333333333</ele><time>2026-04-06T15:42:07Z</time></trkpt><trkpt lat="44.82389154985822" lon="9.146285350242495"><ele>343.66666666666663</ele><time>2026-04-06T15:42:08Z</time></trkpt><trkpt lat="44.82391726853861" lon="9.1460153022529"><ele>343.0</ele><time>2026-04-06T15:42:09Z</time></trkpt><trkpt lat="44.82393537316993" lon="9.145746463391358"><ele>341.0</ele><time>2026-04-06T15:42:10Z</time></trkpt><trkpt lat="44.82394589996721" lon="9.145480032580165"><ele>339.0</ele><time>2026-04-06T15:42:11Z</time></trkpt><trkpt lat="44.823951395598506" lon="9.145211606270447"><ele>337.0</ele><time>2026-04-06T15:42:12Z</time></trkpt><trkpt lat="44.82395210911071" lon="9.14494414447969"><ele>336.3333333333333</ele><time>2026-04-06T15:42:13Z</time></trkpt><trkpt lat="44.823949793539306" lon="9.144677073976228"><ele>335.6666666666667</ele><time>2026-04-06T15:42:14Z</time></trkpt><trkpt lat="44.823944000755915" lon="9.144405095883526"><ele>335.0</ele><time>2026-04-06T15:42:15Z</time></trkpt><trkpt lat="44.8239339041348" lon="9.144139684886404"><ele>335.33333333333337</ele><time>2026-04-06T15:42:16Z</time></trkpt><trkpt lat="44.82391484623343" lon="9.143864197828533"><ele>335.6666666666667</ele><time>2026-04-06T15:42:17Z</time></trkpt><trkpt lat="44.823892007794136" lon="9.143590328711062"><ele>336.0</ele><time>2026-04-06T15:42:18Z</time></trkpt><trkpt lat="44.82386532694705" lon="9.143320864292406"><ele>336.6666666666667</ele><time>2026-04-06T15:42:19Z</time></trkpt><trkpt lat="44.82383583046095" lon="9.143052539989352"><ele>337.33333333333337</ele><time>2026-04-06T15:42:20Z</time></trkpt><trkpt lat="44.823802724072664" lon="9.142785156169474"><ele>338.0</ele><time>2026-04-06T15:42:21Z</time></trkpt><trkpt lat="44.823773443334375" lon="9.142523008787357"><ele>339.0</ele><time>2026-04-06T15:42:22Z</time></trkpt><trkpt lat="44.82374252324696" lon="9.142266803568022"><ele>340.0</ele><time>2026-04-06T15:42:23Z</time></trkpt><trkpt lat="44.823712811861995" lon="9.142011000143901"><ele>341.0</ele><time>2026-04-06T15:42:24Z</time></trkpt><trkpt lat="44.8236804827735" lon="9.141755574545934"><ele>341.33333333333337</ele><time>2026-04-06T15:42:25Z</time></trkpt><trkpt lat="44.823654649581854" lon="9.141497866027239"><ele>341.6666666666667</ele><time>2026-04-06T15:42:26Z</time></trkpt><trkpt lat="44.823626339283386" lon="9.141243268801182"><ele>342.0</ele><time>2026-04-06T15:42:27Z</time></trkpt><trkpt lat="44.82359725951238" lon="9.14099192021562"><ele>342.0</ele><time>2026-04-06T15:42:28Z</time></trkpt><trkpt lat="44.823571146179106" lon="9.140738427732256"><ele>342.0</ele><time>2026-04-06T15:42:29Z</time></trkpt><trkpt lat="44.823549555740975" lon="9.140485450311"><ele>342.0</ele><time>2026-04-06T15:42:30Z</time></trkpt><trkpt lat="44.823534973585495" lon="9.140233588923358"><ele>341.6666666666667</ele><time>2026-04-06T15:42:31Z</time></trkpt><trkpt lat="44.82353149017716" lon="9.139975189222598"><ele>341.33333333333337</ele><time>2026-04-06T15:42:32Z</time></trkpt><trkpt lat="44.823544818262455" lon="9.139711633118948"><ele>341.0</ele><time>2026-04-06T15:42:33Z</time></trkpt><trkpt lat="44.82356130932734" lon="9.139441689088597"><ele>341.0</ele><time>2026-04-06T15:42:34Z</time></trkpt><trkpt lat="44.82358061709446" lon="9.139168222243425"><ele>341.0</ele><time>2026-04-06T15:42:35Z</time></trkpt><trkpt lat="44.82360100271236" lon="9.138894697060056"><ele>341.0</ele><time>2026-04-06T15:42:36Z</time></trkpt><trkpt lat="44.82361869598806" lon="9.138625003065822"><ele>339.33333333333337</ele><time>2026-04-06T15:42:37Z</time></trkpt><trkpt lat="44.823652351347725" lon="9.138368313798257"><ele>337.6666666666667</ele><time>2026-04-06T15:42:38Z</time></trkpt><trkpt lat="44.82367022550827" lon="9.138122044358687"><ele>336.0</ele><time>2026-04-06T15:42:39Z</time></trkpt><trkpt lat="44.82368966171917" lon="9.137881771390695"><ele>336.3333333333333</ele><time>2026-04-06T15:42:40Z</time></trkpt><trkpt lat="44.82370695841708" lon="9.137646373999598"><ele>336.66666666666663</ele><time>2026-04-06T15:42:41Z</time></trkpt><trkpt lat="44.823721691770075" lon="9.137415543721335"><ele>337.0</ele><time>2026-04-06T15:42:42Z</time></trkpt><trkpt lat="44.823728025674285" lon="9.137184939817475"><ele>337.0</ele><time>2026-04-06T15:42:43Z</time></trkpt><trkpt lat="44.82372210987784" lon="9.136956333339965"><ele>337.0</ele><time>2026-04-06T15:42:44Z</time></trkpt><trkpt lat="44.82370498872219" lon="9.136731084720244"><ele>337.0</ele><time>2026-04-06T15:42:45Z</time></trkpt><trkpt lat="44.82367874498445" lon="9.13650741797063"><ele>338.3333333333333</ele><time>2026-04-06T15:42:46Z</time></trkpt><trkpt lat="44.82364000323047" lon="9.136284825882528"><ele>339.6666666666667</ele><time>2026-04-06T15:42:47Z</time></trkpt><trkpt lat="44.82358931417872" lon="9.136071607851916"><ele>341.0</ele><time>2026-04-06T15:42:48Z</time></trkpt><trkpt lat="44.82351470944087" lon="9.135870266021367"><ele>336.6666666666667</ele><time>2026-04-06T15:42:49Z</time></trkpt><trkpt lat="44.82344660521982" lon="9.135674775225363"><ele>332.3333333333333</ele><time>2026-04-06T15:42:50Z</time></trkpt><trkpt lat="44.823375243349716" lon="9.135481366253098"><ele>328.0</ele><time>2026-04-06T15:42:51Z</time></trkpt><trkpt lat="44.82329991409176" lon="9.135292682533326"><ele>328.0</ele><time>2026-04-06T15:42:52Z</time></trkpt><trkpt lat="44.82322716719176" lon="9.135104121648691"><ele>328.0</ele><time>2026-04-06T15:42:53Z</time></trkpt><trkpt lat="44.823156163095646" lon="9.134911754878457"><ele>328.0</ele><time>2026-04-06T15:42:54Z</time></trkpt><trkpt lat="44.82309355950764" lon="9.134717902792824"><ele>328.0</ele><time>2026-04-06T15:42:55Z</time></trkpt><trkpt lat="44.82301796633621" lon="9.134511480675485"><ele>328.0</ele><time>2026-04-06T15:42:56Z</time></trkpt><trkpt lat="44.82295638105542" lon="9.134303148381715"><ele>328.0</ele><time>2026-04-06T15:42:57Z</time></trkpt><trkpt lat="44.82290104917259" lon="9.134086299201861"><ele>328.0</ele><time>2026-04-06T15:42:58Z</time></trkpt><trkpt lat="44.82285619378363" lon="9.133868637493942"><ele>328.0</ele><time>2026-04-06T15:42:59Z</time></trkpt><trkpt lat="44.822815146673626" lon="9.133644729333616"><ele>328.0</ele><time>2026-04-06T15:43:00Z</time></trkpt><trkpt lat="44.8227998809569" lon="9.133409169738794"><ele>328.3333333333333</ele><time>2026-04-06T15:43:01Z</time></trkpt><trkpt lat="44.822779065589714" lon="9.13317828676826"><ele>328.6666666666667</ele><time>2026-04-06T15:43:02Z</time></trkpt><trkpt lat="44.82276285941328" lon="9.132946326731163"><ele>329.0</ele><time>2026-04-06T15:43:03Z</time></trkpt><trkpt lat="44.82275307119409" lon="9.132716693624419"><ele>329.0</ele><time>2026-04-06T15:43:04Z</time></trkpt><trkpt lat="44.822743240662675" lon="9.13249320204334"><ele>329.0</ele><time>2026-04-06T15:43:05Z</time></trkpt><trkpt lat="44.82273372811322" lon="9.132276939803896"><ele>329.0</ele><time>2026-04-06T15:43:06Z</time></trkpt><trkpt lat="44.82272432078562" lon="9.132055192296704"><ele>328.6666666666667</ele><time>2026-04-06T15:43:07Z</time></trkpt><trkpt lat="44.82271413560632" lon="9.131779044685887"><ele>328.3333333333333</ele><time>2026-04-06T15:43:08Z</time></trkpt><trkpt lat="44.82270092544146" lon="9.131465853891966"><ele>328.0</ele><time>2026-04-06T15:43:09Z</time></trkpt><trkpt lat="44.82268798976484" lon="9.131137979399687"><ele>328.3333333333333</ele><time>2026-04-06T15:43:10Z</time></trkpt><trkpt lat="44.82267664794345" lon="9.130855057582718"><ele>328.6666666666667</ele><time>2026-04-06T15:43:11Z</time></trkpt><trkpt lat="44.822667525271456" lon="9.130584186204231"><ele>329.0</ele><time>2026-04-06T15:43:12Z</time></trkpt><trkpt lat="44.822666758649575" lon="9.130338489081954"><ele>329.0</ele><time>2026-04-06T15:43:13Z</time></trkpt><trkpt lat="44.822672810799986" lon="9.13010060370313"><ele>329.0</ele><time>2026-04-06T15:43:14Z</time></trkpt><trkpt lat="44.82268685985973" lon="9.129877130845276"><ele>329.0</ele><time>2026-04-06T15:43:15Z</time></trkpt><trkpt lat="44.822712856266605" lon="9.129655727204877"><ele>325.6666666666667</ele><time>2026-04-06T15:43:16.001Z</time></trkpt><trkpt lat="44.82274821543904" lon="9.129427734016668"><ele>322.3333333333333</ele><time>2026-04-06T15:43:17.001Z</time></trkpt><trkpt lat="44.822793478566844" lon="9.129208028127408"><ele>319.0</ele><time>2026-04-06T15:43:18.001Z</time></trkpt><trkpt lat="44.822846845655775" lon="9.128990292381506"><ele>317.0</ele><time>2026-04-06T15:43:19.001Z</time></trkpt><trkpt lat="44.82291362831046" lon="9.128768571660519"><ele>315.0</ele><time>2026-04-06T15:43:20.001Z</time></trkpt><trkpt lat="44.82299080362806" lon="9.12855012270283"><ele>313.0</ele><time>2026-04-06T15:43:21.001Z</time></trkpt><trkpt lat="44.82307972228012" lon="9.128337945975739"><ele>312.66666666666663</ele><time>2026-04-06T15:43:22.001Z</time></trkpt><trkpt lat="44.82318526004449" lon="9.128120392578575"><ele>312.3333333333333</ele><time>2026-04-06T15:43:23.001Z</time></trkpt><trkpt lat="44.823313584227435" lon="9.127875783805834"><ele>312.0</ele><time>2026-04-06T15:43:24Z</time></trkpt><trkpt lat="44.823461191273346" lon="9.127609474022526"><ele>311.5</ele><time>2026-04-06T15:43:25Z</time></trkpt><trkpt lat="44.82362239807941" lon="9.127320001810935"><ele>311.0</ele><time>2026-04-06T15:43:26Z</time></trkpt><trkpt lat="44.823784110200705" lon="9.127030718858713"><ele>311.0</ele><time>2026-04-06T15:43:27Z</time></trkpt><trkpt lat="44.82391420444416" lon="9.126767339749046"><ele>311.0</ele><time>2026-04-06T15:43:28Z</time></trkpt><trkpt lat="44.82404780871571" lon="9.126538189130235"><ele>311.0</ele><time>2026-04-06T15:43:29Z</time></trkpt><trkpt lat="44.8241705590058" lon="9.126314622966541"><ele>310.6666666666667</ele><time>2026-04-06T15:43:30Z</time></trkpt><trkpt lat="44.824285257884256" lon="9.126098424076705"><ele>310.3333333333333</ele><time>2026-04-06T15:43:31Z</time></trkpt><trkpt lat="44.82439519177792" lon="9.125881609578023"><ele>310.0</ele><time>2026-04-06T15:43:32Z</time></trkpt><trkpt lat="44.82451426926433" lon="9.125652689470726"><ele>310.0</ele><time>2026-04-06T15:43:33Z</time></trkpt><trkpt lat="44.824643636812105" lon="9.125413841847124"><ele>310.0</ele><time>2026-04-06T15:43:34Z</time></trkpt><trkpt lat="44.82480485744631" lon="9.125201674934713"><ele>310.0</ele><time>2026-04-06T15:43:35Z</time></trkpt><trkpt lat="44.82493197941863" lon="9.124948306971502"><ele>310.0</ele><time>2026-04-06T15:43:36Z</time></trkpt><trkpt lat="44.82507399332117" lon="9.124714228716517"><ele>310.0</ele><time>2026-04-06T15:43:37Z</time></trkpt><trkpt lat="44.8252025329027" lon="9.124482650424476"><ele>310.0</ele><time>2026-04-06T15:43:38Z</time></trkpt><trkpt lat="44.8253194751841" lon="9.124263205244732"><ele>309.3333333333333</ele><time>2026-04-06T15:43:39Z</time></trkpt><trkpt lat="44.825433997466355" lon="9.124044022616177"><ele>308.6666666666667</ele><time>2026-04-06T15:43:40Z</time></trkpt><trkpt lat="44.82554726852685" lon="9.123835534391509"><ele>308.0</ele><time>2026-04-06T15:43:41Z</time></trkpt><trkpt lat="44.82565957272266" lon="9.123632255015906"><ele>308.0</ele><time>2026-04-06T15:43:42Z</time></trkpt><trkpt lat="44.825772072224964" lon="9.123429165478994"><ele>308.0</ele><time>2026-04-06T15:43:43Z</time></trkpt><trkpt lat="44.82588057648759" lon="9.123225052341638"><ele>308.0</ele><time>2026-04-06T15:43:44Z</time></trkpt><trkpt lat="44.8259940362351" lon="9.123018188863979"><ele>310.0</ele><time>2026-04-06T15:43:45Z</time></trkpt><trkpt lat="44.82611041873338" lon="9.122816902161052"><ele>312.0</ele><time>2026-04-06T15:43:46Z</time></trkpt><trkpt lat="44.826228928772196" lon="9.12261860413562"><ele>314.0</ele><time>2026-04-06T15:43:47Z</time></trkpt><trkpt lat="44.82635191184664" lon="9.122433777631686"><ele>311.6666666666667</ele><time>2026-04-06T15:43:48Z</time></trkpt><trkpt lat="44.826488977602985" lon="9.122263194075137"><ele>309.3333333333333</ele><time>2026-04-06T15:43:49Z</time></trkpt><trkpt lat="44.82664323903753" lon="9.122118693621767"><ele>307.0</ele><time>2026-04-06T15:43:50Z</time></trkpt><trkpt lat="44.826792058013964" lon="9.121967760041207"><ele>305.3333333333333</ele><time>2026-04-06T15:43:51Z</time></trkpt><trkpt lat="44.82693936424109" lon="9.121806774616125"><ele>303.6666666666667</ele><time>2026-04-06T15:43:52Z</time></trkpt><trkpt lat="44.82709420495498" lon="9.121666348131411"><ele>302.0</ele><time>2026-04-06T15:43:53Z</time></trkpt><trkpt lat="44.82724953955048" lon="9.12151689800227"><ele>302.0</ele><time>2026-04-06T15:43:54Z</time></trkpt><trkpt lat="44.82740282628669" lon="9.12136374392373"><ele>302.0</ele><time>2026-04-06T15:43:55Z</time></trkpt><trkpt lat="44.82757911501854" lon="9.121264591672256"><ele>302.0</ele><time>2026-04-06T15:43:56Z</time></trkpt><trkpt lat="44.82774802965044" lon="9.121166958547775"><ele>304.0</ele><time>2026-04-06T15:43:57Z</time></trkpt><trkpt lat="44.82790495630002" lon="9.121107552674673"><ele>306.0</ele><time>2026-04-06T15:43:58Z</time></trkpt><trkpt lat="44.82805025263902" lon="9.121049303634045"><ele>308.0</ele><time>2026-04-06T15:43:59Z</time></trkpt><trkpt lat="44.828197153513074" lon="9.120991780736814"><ele>308.0</ele><time>2026-04-06T15:44:00Z</time></trkpt><trkpt lat="44.82834461144216" lon="9.120935184710346"><ele>308.0</ele><time>2026-04-06T15:44:01Z</time></trkpt><trkpt lat="44.82850823219185" lon="9.120872494164216"><ele>308.0</ele><time>2026-04-06T15:44:02Z</time></trkpt><trkpt lat="44.82867679698781" lon="9.120808547905385"><ele>306.33333333333337</ele><time>2026-04-06T15:44:03Z</time></trkpt><trkpt lat="44.82884704224554" lon="9.120729031177701"><ele>304.6666666666667</ele><time>2026-04-06T15:44:04Z</time></trkpt><trkpt lat="44.82902392896522" lon="9.12066938434511"><ele>303.0</ele><time>2026-04-06T15:44:05Z</time></trkpt><trkpt lat="44.82920354846424" lon="9.12059972603877"><ele>304.0</ele><time>2026-04-06T15:44:06Z</time></trkpt><trkpt lat="44.82938676378195" lon="9.120521224121719"><ele>305.0</ele><time>2026-04-06T15:44:07.001Z</time></trkpt><trkpt lat="44.829566185472636" lon="9.120444012297089"><ele>306.0</ele><time>2026-04-06T15:44:08.001Z</time></trkpt><trkpt lat="44.82973738806136" lon="9.120343296949933"><ele>306.0</ele><time>2026-04-06T15:44:09.001Z</time></trkpt><trkpt lat="44.82989679541894" lon="9.120209070417756"><ele>306.0</ele><time>2026-04-06T15:44:10.001Z</time></trkpt><trkpt lat="44.830040605221186" lon="9.12004195355375"><ele>306.0</ele><time>2026-04-06T15:44:11.001Z</time></trkpt><trkpt lat="44.830163627908156" lon="9.119835974015848"><ele>306.0</ele><time>2026-04-06T15:44:12.001Z</time></trkpt><trkpt lat="44.830260540848144" lon="9.119600869969815"><ele>306.0</ele><time>2026-04-06T15:44:13.001Z</time></trkpt><trkpt lat="44.830344375181646" lon="9.119352388774876"><ele>306.0</ele><time>2026-04-06T15:44:14.001Z</time></trkpt><trkpt lat="44.83045193593088" lon="9.119125722206281"><ele>305.0</ele><time>2026-04-06T15:44:15.001Z</time></trkpt><trkpt lat="44.8305559624826" lon="9.118900530409196"><ele>304.0</ele><time>2026-04-06T15:44:16.001Z</time></trkpt><trkpt lat="44.83067087456384" lon="9.118695971845952"><ele>303.0</ele><time>2026-04-06T15:44:17.001Z</time></trkpt><trkpt lat="44.83081253403112" lon="9.118525370319816"><ele>303.0</ele><time>2026-04-06T15:44:18.001Z</time></trkpt><trkpt lat="44.83096948691033" lon="9.118426226458237"><ele>303.0</ele><time>2026-04-06T15:44:19.001Z</time></trkpt><trkpt lat="44.83113207853507" lon="9.118357605000519"><ele>303.0</ele><time>2026-04-06T15:44:20.001Z</time></trkpt><trkpt lat="44.831310647975826" lon="9.118313551336119"><ele>303.0</ele><time>2026-04-06T15:44:21.001Z</time></trkpt><trkpt lat="44.83150248033355" lon="9.118310469132666"><ele>303.0</ele><time>2026-04-06T15:44:22.001Z</time></trkpt><trkpt lat="44.83170676480052" lon="9.118322608259087"><ele>303.0</ele><time>2026-04-06T15:44:23.001Z</time></trkpt><trkpt lat="44.831904370678586" lon="9.118302498698435"><ele>303.0</ele><time>2026-04-06T15:44:24.001Z</time></trkpt><trkpt lat="44.83209924232169" lon="9.118277564559131"><ele>303.0</ele><time>2026-04-06T15:44:25.001Z</time></trkpt><trkpt lat="44.83228653871905" lon="9.11819843360419"><ele>303.0</ele><time>2026-04-06T15:44:26.001Z</time></trkpt><trkpt lat="44.832470174755834" lon="9.118087220629585"><ele>302.6666666666667</ele><time>2026-04-06T15:44:27.001Z</time></trkpt><trkpt lat="44.83264946307485" lon="9.117958221060103"><ele>302.33333333333337</ele><time>2026-04-06T15:44:28.001Z</time></trkpt><trkpt lat="44.83282913967302" lon="9.117827478155558"><ele>302.0</ele><time>2026-04-06T15:44:29.001Z</time></trkpt><trkpt lat="44.833013940632384" lon="9.11770610800776"><ele>302.0</ele><time>2026-04-06T15:44:30.001Z</time></trkpt><trkpt lat="44.833200781812316" lon="9.11758582243974"><ele>302.0</ele><time>2026-04-06T15:44:31.001Z</time></trkpt><trkpt lat="44.83338677283174" lon="9.117460611586845"><ele>302.0</ele><time>2026-04-06T15:44:32.001Z</time></trkpt><trkpt lat="44.83357927333986" lon="9.11736018871115"><ele>300.33333333333337</ele><time>2026-04-06T15:44:33.001Z</time></trkpt><trkpt lat="44.83375860057692" lon="9.117221940070099"><ele>298.6666666666667</ele><time>2026-04-06T15:44:34.001Z</time></trkpt><trkpt lat="44.83393993169702" lon="9.11711100342343"><ele>297.0</ele><time>2026-04-06T15:44:35.001Z</time></trkpt><trkpt lat="44.834113000856604" lon="9.116997636555748"><ele>297.0</ele><time>2026-04-06T15:44:36.001Z</time></trkpt><trkpt lat="44.83427225612817" lon="9.116871309756469"><ele>297.0</ele><time>2026-04-06T15:44:37.001Z</time></trkpt><trkpt lat="44.834414063079066" lon="9.116718375208496"><ele>297.0</ele><time>2026-04-06T15:44:38.001Z</time></trkpt><trkpt lat="44.83453310042557" lon="9.116540043290644"><ele>297.6666666666667</ele><time>2026-04-06T15:44:39.001Z</time></trkpt><trkpt lat="44.834643057848524" lon="9.11634375501435"><ele>298.33333333333337</ele><time>2026-04-06T15:44:40.001Z</time></trkpt><trkpt lat="44.834775778857754" lon="9.116159841707717"><ele>299.0</ele><time>2026-04-06T15:44:41.001Z</time></trkpt><trkpt lat="44.83489960425781" lon="9.115961592544117"><ele>299.0</ele><time>2026-04-06T15:44:42.001Z</time></trkpt><trkpt lat="44.83501498021257" lon="9.11574275292615"><ele>299.0</ele><time>2026-04-06T15:44:43.001Z</time></trkpt><trkpt lat="44.83514763459228" lon="9.115539708617693"><ele>299.0</ele><time>2026-04-06T15:44:44.001Z</time></trkpt><trkpt lat="44.83527998772625" lon="9.115334564168624"><ele>296.6666666666667</ele><time>2026-04-06T15:44:45.001Z</time></trkpt><trkpt lat="44.835403826769074" lon="9.115129195600822"><ele>294.3333333333333</ele><time>2026-04-06T15:44:46.001Z</time></trkpt><trkpt lat="44.83551555618275" lon="9.114915360286338"><ele>292.0</ele><time>2026-04-06T15:44:47.001Z</time></trkpt><trkpt lat="44.835602236315246" lon="9.114694216858533"><ele>291.66666666666663</ele><time>2026-04-06T15:44:48.001Z</time></trkpt><trkpt lat="44.83568225011158" lon="9.114476986682066"><ele>291.3333333333333</ele><time>2026-04-06T15:44:49.001Z</time></trkpt><trkpt lat="44.83574862090653" lon="9.114272802590705"><ele>291.0</ele><time>2026-04-06T15:44:50.001Z</time></trkpt><trkpt lat="44.835813065465764" lon="9.114078480954912"><ele>291.0</ele><time>2026-04-06T15:44:51.001Z</time></trkpt><trkpt lat="44.835877526511275" lon="9.113891964552042"><ele>291.0</ele><time>2026-04-06T15:44:52.001Z</time></trkpt><trkpt lat="44.83594778264197" lon="9.113697481505964"><ele>291.0</ele><time>2026-04-06T15:44:53.001Z</time></trkpt><trkpt lat="44.83601599491589" lon="9.113505612304976"><ele>291.6666666666667</ele><time>2026-04-06T15:44:54.001Z</time></trkpt><trkpt lat="44.83609086135276" lon="9.113303641371619"><ele>292.33333333333337</ele><time>2026-04-06T15:44:55.001Z</time></trkpt><trkpt lat="44.83616936873185" lon="9.113076422978883"><ele>293.0</ele><time>2026-04-06T15:44:56.001Z</time></trkpt><trkpt lat="44.8362485500721" lon="9.112856934107207"><ele>293.0</ele><time>2026-04-06T15:44:57.001Z</time></trkpt><trkpt lat="44.83632514324977" lon="9.112649807355188"><ele>293.0</ele><time>2026-04-06T15:44:58.001Z</time></trkpt><trkpt lat="44.836432355009634" lon="9.112476728659873"><ele>293.0</ele><time>2026-04-06T15:44:59.001Z</time></trkpt><trkpt lat="44.836546055781874" lon="9.112318211302497"><ele>292.33333333333337</ele><time>2026-04-06T15:45:00.001Z</time></trkpt><trkpt lat="44.8366698823198" lon="9.112179991004828"><ele>291.6666666666667</ele><time>2026-04-06T15:45:01.001Z</time></trkpt><trkpt lat="44.836810558808416" lon="9.112080546578708"><ele>291.0</ele><time>2026-04-06T15:45:02.001Z</time></trkpt><trkpt lat="44.83696620877111" lon="9.111980466429976"><ele>291.0</ele><time>2026-04-06T15:45:03.001Z</time></trkpt><trkpt lat="44.837145918709574" lon="9.111874386139755"><ele>291.0</ele><time>2026-04-06T15:45:04.001Z</time></trkpt><trkpt lat="44.83734996609248" lon="9.111754090288374"><ele>291.0</ele><time>2026-04-06T15:45:05.001Z</time></trkpt><trkpt lat="44.83757859638959" lon="9.111615664987713"><ele>289.0</ele><time>2026-04-06T15:45:06.001Z</time></trkpt><trkpt lat="44.837823308158974" lon="9.111468338657698"><ele>287.0</ele><time>2026-04-06T15:45:07.001Z</time></trkpt><trkpt lat="44.83808105636902" lon="9.111314265473347"><ele>287.0</ele><time>2026-04-06T15:45:08.001Z</time></trkpt><trkpt lat="44.838343034507496" lon="9.111155880484084"><ele>287.0</ele><time>2026-04-06T15:45:09.001Z</time></trkpt><trkpt lat="44.83860293980182" lon="9.110999207220528"><ele>287.0</ele><time>2026-04-06T15:45:10.001Z</time></trkpt><trkpt lat="44.83886146533222" lon="9.110842762833702"><ele>287.0</ele><time>2026-04-06T15:45:11.001Z</time></trkpt><trkpt lat="44.83910674454662" lon="9.110694334241726"><ele>287.0</ele><time>2026-04-06T15:45:12.001Z</time></trkpt><trkpt lat="44.839365120162995" lon="9.110537980640531"><ele>287.0</ele><time>2026-04-06T15:45:13.001Z</time></trkpt><trkpt lat="44.83962515132424" lon="9.110358672264141"><ele>287.0</ele><time>2026-04-06T15:45:14.001Z</time></trkpt><trkpt lat="44.83988257402235" lon="9.110202450016043"><ele>287.0</ele><time>2026-04-06T15:45:15.001Z</time></trkpt><trkpt lat="44.84011415377954" lon="9.110059307092023"><ele>287.0</ele><time>2026-04-06T15:45:16.001Z</time></trkpt><trkpt lat="44.84033140790345" lon="9.109928934436288"><ele>287.0</ele><time>2026-04-06T15:45:17.001Z</time></trkpt><trkpt lat="44.8405328795294" lon="9.109804834312412"><ele>287.0</ele><time>2026-04-06T15:45:18.001Z</time></trkpt><trkpt lat="44.840736057503534" lon="9.109706060027369"><ele>287.0</ele><time>2026-04-06T15:45:19.001Z</time></trkpt><trkpt lat="44.84093223104589" lon="9.109587420362324"><ele>287.0</ele><time>2026-04-06T15:45:20.001Z</time></trkpt><trkpt lat="44.84111916292579" lon="9.109456764636402"><ele>287.6666666666667</ele><time>2026-04-06T15:45:21.001Z</time></trkpt><trkpt lat="44.84129992357249" lon="9.10934283555616"><ele>288.3333333333333</ele><time>2026-04-06T15:45:22.001Z</time></trkpt><trkpt lat="44.84147060952283" lon="9.109213105453641"><ele>289.0</ele><time>2026-04-06T15:45:23.001Z</time></trkpt><trkpt lat="44.84163116858816" lon="9.109050416626564"><ele>289.0</ele><time>2026-04-06T15:45:24.001Z</time></trkpt><trkpt lat="44.84178512379824" lon="9.108855071077656"><ele>289.0</ele><time>2026-04-06T15:45:25.001Z</time></trkpt><trkpt lat="44.84194350048881" lon="9.108630185852322"><ele>289.0</ele><time>2026-04-06T15:45:26.001Z</time></trkpt><trkpt lat="44.84210112424823" lon="9.108403393523016"><ele>287.0</ele><time>2026-04-06T15:45:27.001Z</time></trkpt><trkpt lat="44.842250921810184" lon="9.108211067504888"><ele>285.0</ele><time>2026-04-06T15:45:28.001Z</time></trkpt><trkpt lat="44.84238372482781" lon="9.108037185685916"><ele>283.0</ele><time>2026-04-06T15:45:29.001Z</time></trkpt><trkpt lat="44.842512414335815" lon="9.107857172786437"><ele>283.3333333333333</ele><time>2026-04-06T15:45:30.002Z</time></trkpt><trkpt lat="44.84263888561688" lon="9.107683122911961"><ele>283.6666666666667</ele><time>2026-04-06T15:45:31.002Z</time></trkpt><trkpt lat="44.842759982531945" lon="9.10752681609107"><ele>284.0</ele><time>2026-04-06T15:45:32.002Z</time></trkpt><trkpt lat="44.84290015866396" lon="9.107387030404773"><ele>284.0</ele><time>2026-04-06T15:45:33.002Z</time></trkpt><trkpt lat="44.84302374146459" lon="9.107224785226371"><ele>284.0</ele><time>2026-04-06T15:45:34.002Z</time></trkpt><trkpt lat="44.843150983466984" lon="9.107056927906871"><ele>284.0</ele><time>2026-04-06T15:45:35.002Z</time></trkpt><trkpt lat="44.843280787010876" lon="9.106885491444705"><ele>284.0</ele><time>2026-04-06T15:45:36.002Z</time></trkpt><trkpt lat="44.84339903244974" lon="9.106697490289388"><ele>284.0</ele><time>2026-04-06T15:45:37.001Z</time></trkpt><trkpt lat="44.84354294936209" lon="9.10653882831538"><ele>284.0</ele><time>2026-04-06T15:45:38.001Z</time></trkpt><trkpt lat="44.84367460886354" lon="9.106363709247454"><ele>283.6666666666667</ele><time>2026-04-06T15:45:39.001Z</time></trkpt><trkpt lat="44.84380625250449" lon="9.106188615694364"><ele>283.3333333333333</ele><time>2026-04-06T15:45:40.001Z</time></trkpt><trkpt lat="44.84393917817563" lon="9.10601407560952"><ele>283.0</ele><time>2026-04-06T15:45:41.001Z</time></trkpt><trkpt lat="44.84407859149905" lon="9.105830466898714"><ele>283.3333333333333</ele><time>2026-04-06T15:45:42.001Z</time></trkpt><trkpt lat="44.84421635226604" lon="9.105647279089883"><ele>283.6666666666667</ele><time>2026-04-06T15:45:43.001Z</time></trkpt><trkpt lat="44.84435382772869" lon="9.105464420714561"><ele>284.0</ele><time>2026-04-06T15:45:44.001Z</time></trkpt><trkpt lat="44.844501844207734" lon="9.105267541562533"><ele>284.0</ele><time>2026-04-06T15:45:45.001Z</time></trkpt><trkpt lat="44.844665093483584" lon="9.105050400988127"><ele>284.0</ele><time>2026-04-06T15:45:46.001Z</time></trkpt><trkpt lat="44.84484180991051" lon="9.104817672963557"><ele>282.5</ele><time>2026-04-06T15:45:47.001Z</time></trkpt><trkpt lat="44.8450139726447" lon="9.104589727061768"><ele>281.0</ele><time>2026-04-06T15:45:48.001Z</time></trkpt><trkpt lat="44.84517754994048" lon="9.104370676722292"><ele>281.0</ele><time>2026-04-06T15:45:49.001Z</time></trkpt><trkpt lat="44.84532216717649" lon="9.104148068957326"><ele>281.0</ele><time>2026-04-06T15:45:50.001Z</time></trkpt><trkpt lat="44.845471882259176" lon="9.103945947641696"><ele>281.0</ele><time>2026-04-06T15:45:51.001Z</time></trkpt><trkpt lat="44.845617938818705" lon="9.103753899417498"><ele>280.0</ele><time>2026-04-06T15:45:52.001Z</time></trkpt><trkpt lat="44.845768499706686" lon="9.103554551367106"><ele>279.0</ele><time>2026-04-06T15:45:53.001Z</time></trkpt><trkpt lat="44.84591640089074" lon="9.10335581185422"><ele>278.0</ele><time>2026-04-06T15:45:54.001Z</time></trkpt><trkpt lat="44.84606672428756" lon="9.103153062256252"><ele>278.0</ele><time>2026-04-06T15:45:55.001Z</time></trkpt><trkpt lat="44.84622655640427" lon="9.102923227023009"><ele>278.0</ele><time>2026-04-06T15:45:56.001Z</time></trkpt><trkpt lat="44.84639976230672" lon="9.102679938288711"><ele>278.0</ele><time>2026-04-06T15:45:57.001Z</time></trkpt><trkpt lat="44.84658722673822" lon="9.102434865664836"><ele>278.0</ele><time>2026-04-06T15:45:58.001Z</time></trkpt><trkpt lat="44.84677799534203" lon="9.102203211454738"><ele>277.5</ele><time>2026-04-06T15:45:59.001Z</time></trkpt><trkpt lat="44.84696285146595" lon="9.10197393316837"><ele>277.0</ele><time>2026-04-06T15:46:00.001Z</time></trkpt><trkpt lat="44.84713358779305" lon="9.101745481750005"><ele>274.0</ele><time>2026-04-06T15:46:01.001Z</time></trkpt><trkpt lat="44.84730103587516" lon="9.101519752854134"><ele>271.0</ele><time>2026-04-06T15:46:02.001Z</time></trkpt><trkpt lat="44.8474670448486" lon="9.10130165025381"><ele>273.5</ele><time>2026-04-06T15:46:03.001Z</time></trkpt><trkpt lat="44.84763506748409" lon="9.101080152812763"><ele>276.0</ele><time>2026-04-06T15:46:04.001Z</time></trkpt><trkpt lat="44.847805162711765" lon="9.100858146119823"><ele>273.0</ele><time>2026-04-06T15:46:05.001Z</time></trkpt><trkpt lat="44.847986537858276" lon="9.100653911156861"><ele>270.0</ele><time>2026-04-06T15:46:06.001Z</time></trkpt><trkpt lat="44.84814131390922" lon="9.100416113488624"><ele>270.0</ele><time>2026-04-06T15:46:07.001Z</time></trkpt><trkpt lat="44.848301502955934" lon="9.100207515954741"><ele>270.0</ele><time>2026-04-06T15:46:08.001Z</time></trkpt><trkpt lat="44.84845453749072" lon="9.100004102528144"><ele>270.0</ele><time>2026-04-06T15:46:09.001Z</time></trkpt><trkpt lat="44.84861300636823" lon="9.099822138864832"><ele>270.6666666666667</ele><time>2026-04-06T15:46:10.001Z</time></trkpt><trkpt lat="44.8487565117921" lon="9.099633123691403"><ele>271.33333333333337</ele><time>2026-04-06T15:46:11.001Z</time></trkpt><trkpt lat="44.84889565939021" lon="9.099450127851544"><ele>272.0</ele><time>2026-04-06T15:46:12.001Z</time></trkpt><trkpt lat="44.849022302341396" lon="9.099261834584022"><ele>272.0</ele><time>2026-04-06T15:46:13.001Z</time></trkpt><trkpt lat="44.84915574196298" lon="9.099098292818931"><ele>272.0</ele><time>2026-04-06T15:46:14.001Z</time></trkpt><trkpt lat="44.84928705590664" lon="9.098946214585963"><ele>272.0</ele><time>2026-04-06T15:46:15.001Z</time></trkpt><trkpt lat="44.84943438050579" lon="9.098823470783945"><ele>270.6666666666667</ele><time>2026-04-06T15:46:16.001Z</time></trkpt><trkpt lat="44.8495858479865" lon="9.098702153015202"><ele>269.3333333333333</ele><time>2026-04-06T15:46:17.001Z</time></trkpt><trkpt lat="44.84974097724183" lon="9.09858757723468"><ele>268.0</ele><time>2026-04-06T15:46:18.001Z</time></trkpt><trkpt lat="44.84988952278056" lon="9.098478099661024"><ele>268.0</ele><time>2026-04-06T15:46:19.001Z</time></trkpt><trkpt lat="44.85002407807254" lon="9.09835682562746"><ele>268.0</ele><time>2026-04-06T15:46:20.001Z</time></trkpt><trkpt lat="44.850156171191855" lon="9.098262098749986"><ele>268.0</ele><time>2026-04-06T15:46:21.001Z</time></trkpt><trkpt lat="44.85027775480713" lon="9.098169556360217"><ele>268.0</ele><time>2026-04-06T15:46:22.001Z</time></trkpt><trkpt lat="44.85038738518758" lon="9.098089407697609"><ele>267.6</ele><time>2026-04-06T15:46:23.001Z</time></trkpt><trkpt lat="44.85049317561527" lon="9.09800745995301"><ele>267.20000000000005</ele><time>2026-04-06T15:46:24.001Z</time></trkpt><trkpt lat="44.85059053727281" lon="9.097935144158773"><ele>266.8</ele><time>2026-04-06T15:46:25.001Z</time></trkpt><trkpt lat="44.85068662822183" lon="9.097867740999938"><ele>266.40000000000003</ele><time>2026-04-06T15:46:26.001Z</time></trkpt><trkpt lat="44.85077540583083" lon="9.097799815810198"><ele>266.0</ele><time>2026-04-06T15:46:27.001Z</time></trkpt><trkpt lat="44.85086292049639" lon="9.097738566339649"><ele>266.0</ele><time>2026-04-06T15:46:28.001Z</time></trkpt><trkpt lat="44.8509492431786" lon="9.097681898306723"><ele>266.0</ele><time>2026-04-06T15:46:29.001Z</time></trkpt><trkpt lat="44.85102658142602" lon="9.097614954268254"><ele>266.0</ele><time>2026-04-06T15:46:30.001Z</time></trkpt><trkpt lat="44.85110706682408" lon="9.097559547321646"><ele>266.0</ele><time>2026-04-06T15:46:31.001Z</time></trkpt><trkpt lat="44.85118917319101" lon="9.097498687677337"><ele>266.0</ele><time>2026-04-06T15:46:32.001Z</time></trkpt><trkpt lat="44.851268424035666" lon="9.097441045053207"><ele>265.8</ele><time>2026-04-06T15:46:33.001Z</time></trkpt><trkpt lat="44.85134331101943" lon="9.097380961756409"><ele>265.6</ele><time>2026-04-06T15:46:34.001Z</time></trkpt><trkpt lat="44.851422144014315" lon="9.097326091085016"><ele>265.4</ele><time>2026-04-06T15:46:35.001Z</time></trkpt><trkpt lat="44.85149957472196" lon="9.097271898057448"><ele>265.2</ele><time>2026-04-06T15:46:36.001Z</time></trkpt><trkpt lat="44.85158191438813" lon="9.09721322962236"><ele>265.0</ele><time>2026-04-06T15:46:37.001Z</time></trkpt><trkpt lat="44.85167243011533" lon="9.097145259872267"><ele>265.0</ele><time>2026-04-06T15:46:38.001Z</time></trkpt><trkpt lat="44.85176670173015" lon="9.097075145478767"><ele>265.0</ele><time>2026-04-06T15:46:39.001Z</time></trkpt><trkpt lat="44.8518639867206" lon="9.096998354041922"><ele>265.0</ele><time>2026-04-06T15:46:40.001Z</time></trkpt><trkpt lat="44.85196810322922" lon="9.096921852959754"><ele>265.0</ele><time>2026-04-06T15:46:41.001Z</time></trkpt><trkpt lat="44.85207749352014" lon="9.096842459186798"><ele>265.0</ele><time>2026-04-06T15:46:42.001Z</time></trkpt><trkpt lat="44.85219054357249" lon="9.096764063832515"><ele>265.0</ele><time>2026-04-06T15:46:43.001Z</time></trkpt><trkpt lat="44.85230568645068" lon="9.096678886836369"><ele>265.0</ele><time>2026-04-06T15:46:44.001Z</time></trkpt><trkpt lat="44.85241590269997" lon="9.096593839543289"><ele>265.0</ele><time>2026-04-06T15:46:45.001Z</time></trkpt><trkpt lat="44.852522055992765" lon="9.09651464977415"><ele>265.25</ele><time>2026-04-06T15:46:46.001Z</time></trkpt><trkpt lat="44.8526265039139" lon="9.096434340660004"><ele>265.5</ele><time>2026-04-06T15:46:47.001Z</time></trkpt><trkpt lat="44.85274186926582" lon="9.096346880666772"><ele>265.75</ele><time>2026-04-06T15:46:48.001Z</time></trkpt><trkpt lat="44.85286830805574" lon="9.096275927374895"><ele>266.0</ele><time>2026-04-06T15:46:49.001Z</time></trkpt><trkpt lat="44.8529958683556" lon="9.096181833975495"><ele>266.0</ele><time>2026-04-06T15:46:50.001Z</time></trkpt><trkpt lat="44.85312959110353" lon="9.096082954074582"><ele>266.0</ele><time>2026-04-06T15:46:51.001Z</time></trkpt><trkpt lat="44.853267300616196" lon="9.09598016881294"><ele>266.0</ele><time>2026-04-06T15:46:52.001Z</time></trkpt><trkpt lat="44.853399718697936" lon="9.095854725085724"><ele>266.6666666666667</ele><time>2026-04-06T15:46:53.001Z</time></trkpt><trkpt lat="44.85355181826453" lon="9.09577009940592"><ele>267.3333333333333</ele><time>2026-04-06T15:46:54.001Z</time></trkpt><trkpt lat="44.8536971769474" lon="9.09566466758678"><ele>268.0</ele><time>2026-04-06T15:46:55.001Z</time></trkpt><trkpt lat="44.853843406429284" lon="9.09555733575024"><ele>266.3333333333333</ele><time>2026-04-06T15:46:56.001Z</time></trkpt><trkpt lat="44.85398718996578" lon="9.095451164327425"><ele>264.6666666666667</ele><time>2026-04-06T15:46:57.001Z</time></trkpt><trkpt lat="44.85412523681154" lon="9.095319709588738"><ele>263.0</ele><time>2026-04-06T15:46:58.001Z</time></trkpt><trkpt lat="44.854267877878286" lon="9.095213994281847"><ele>263.6666666666667</ele><time>2026-04-06T15:46:59.001Z</time></trkpt><trkpt lat="44.85440872676641" lon="9.095109343245202"><ele>264.3333333333333</ele><time>2026-04-06T15:47:00.001Z</time></trkpt><trkpt lat="44.85453942027003" lon="9.09499516065747"><ele>265.0</ele><time>2026-04-06T15:47:01.001Z</time></trkpt><trkpt lat="44.854667965565774" lon="9.09488426931771"><ele>265.0</ele><time>2026-04-06T15:47:02.001Z</time></trkpt><trkpt lat="44.854756082366755" lon="9.094705241630166"><ele>265.0</ele><time>2026-04-06T15:47:03.001Z</time></trkpt><trkpt lat="44.85484320153702" lon="9.09452367510203"><ele>265.0</ele><time>2026-04-06T15:47:04.001Z</time></trkpt><trkpt lat="44.85489287539701" lon="9.094307179823822"><ele>265.0</ele><time>2026-04-06T15:47:05.001Z</time></trkpt><trkpt lat="44.854918153994525" lon="9.094071531236155"><ele>265.0</ele><time>2026-04-06T15:47:06.001Z</time></trkpt><trkpt lat="44.854924121940876" lon="9.093823901191929"><ele>265.0</ele><time>2026-04-06T15:47:07.001Z</time></trkpt><trkpt lat="44.85492123375442" lon="9.093604642377082"><ele>265.0</ele><time>2026-04-06T15:47:08.001Z</time></trkpt><trkpt lat="44.85493985101646" lon="9.093395155458982"><ele>265.0</ele><time>2026-04-06T15:47:09.001Z</time></trkpt><trkpt lat="44.85494507762607" lon="9.093184865441769"><ele>265.0</ele><time>2026-04-06T15:47:10.001Z</time></trkpt><trkpt lat="44.854950210542164" lon="9.092956585692312"><ele>264.66666666666663</ele><time>2026-04-06T15:47:11.001Z</time></trkpt><trkpt lat="44.85495507512658" lon="9.09271494832401"><ele>264.3333333333333</ele><time>2026-04-06T15:47:12.001Z</time></trkpt><trkpt lat="44.85496059516588" lon="9.092458475814428"><ele>264.0</ele><time>2026-04-06T15:47:13.001Z</time></trkpt><trkpt lat="44.8549661066773" lon="9.09221034210893"><ele>263.3333333333333</ele><time>2026-04-06T15:47:14.001Z</time></trkpt><trkpt lat="44.85497215132109" lon="9.091973496694882"><ele>262.66666666666663</ele><time>2026-04-06T15:47:15.001Z</time></trkpt><trkpt lat="44.8549808624454" lon="9.091734169996144"><ele>262.0</ele><time>2026-04-06T15:47:16.001Z</time></trkpt><trkpt lat="44.85499938892596" lon="9.091501783698984"><ele>262.66666666666663</ele><time>2026-04-06T15:47:17.001Z</time></trkpt><trkpt lat="44.85504266831876" lon="9.091281543346346"><ele>263.3333333333333</ele><time>2026-04-06T15:47:18.001Z</time></trkpt><trkpt lat="44.855118023212825" lon="9.091090393062439"><ele>264.0</ele><time>2026-04-06T15:47:19.001Z</time></trkpt><trkpt lat="44.85521616678475" lon="9.090913140334417"><ele>264.0</ele><time>2026-04-06T15:47:20.001Z</time></trkpt><trkpt lat="44.855322811116956" lon="9.09076217269641"><ele>264.0</ele><time>2026-04-06T15:47:21.001Z</time></trkpt><trkpt lat="44.85543691096214" lon="9.090600937790548"><ele>264.0</ele><time>2026-04-06T15:47:22.001Z</time></trkpt><trkpt lat="44.855555378776984" lon="9.09042418410197"><ele>264.0</ele><time>2026-04-06T15:47:23.001Z</time></trkpt><trkpt lat="44.85566781137211" lon="9.090251132337837"><ele>264.0</ele><time>2026-04-06T15:47:24.001Z</time></trkpt><trkpt lat="44.85577908012967" lon="9.090084937453225"><ele>264.0</ele><time>2026-04-06T15:47:25.001Z</time></trkpt><trkpt lat="44.85586422888083" lon="9.089904497742625"><ele>263.6666666666667</ele><time>2026-04-06T15:47:26.001Z</time></trkpt><trkpt lat="44.85594932316598" lon="9.089713882965698"><ele>263.33333333333337</ele><time>2026-04-06T15:47:27.001Z</time></trkpt><trkpt lat="44.85601791446259" lon="9.089520741508746"><ele>263.0</ele><time>2026-04-06T15:47:28.001Z</time></trkpt><trkpt lat="44.856071397055395" lon="9.089317306547592"><ele>264.0</ele><time>2026-04-06T15:47:29.001Z</time></trkpt><trkpt lat="44.85611828375874" lon="9.089099545671946"><ele>265.0</ele><time>2026-04-06T15:47:30.001Z</time></trkpt><trkpt lat="44.85613583765277" lon="9.088859430669237"><ele>266.0</ele><time>2026-04-06T15:47:31.001Z</time></trkpt><trkpt lat="44.8561491433228" lon="9.088589599673025"><ele>266.0</ele><time>2026-04-06T15:47:32.001Z</time></trkpt><trkpt lat="44.856186750050696" lon="9.088302052341241"><ele>266.0</ele><time>2026-04-06T15:47:33.001Z</time></trkpt><trkpt lat="44.856213622406464" lon="9.0880065910227"><ele>266.0</ele><time>2026-04-06T15:47:34.001Z</time></trkpt><trkpt lat="44.85622284383955" lon="9.087721353609961"><ele>266.6666666666667</ele><time>2026-04-06T15:47:35.001Z</time></trkpt><trkpt lat="44.85624905575625" lon="9.087464036850818"><ele>267.3333333333333</ele><time>2026-04-06T15:47:36.002Z</time></trkpt><trkpt lat="44.856270035825005" lon="9.087224536963737"><ele>268.0</ele><time>2026-04-06T15:47:37.002Z</time></trkpt><trkpt lat="44.856287825858445" lon="9.086987233002096"><ele>266.66666666666663</ele><time>2026-04-06T15:47:38.002Z</time></trkpt><trkpt lat="44.85632625351151" lon="9.086739175739087"><ele>265.3333333333333</ele><time>2026-04-06T15:47:39.002Z</time></trkpt><trkpt lat="44.856326798049984" lon="9.086479736437578"><ele>264.0</ele><time>2026-04-06T15:47:40.002Z</time></trkpt><trkpt lat="44.85634754062421" lon="9.08624488334723"><ele>263.25</ele><time>2026-04-06T15:47:41.002Z</time></trkpt><trkpt lat="44.85636722971776" lon="9.086024591656603"><ele>262.5</ele><time>2026-04-06T15:47:42.002Z</time></trkpt><trkpt lat="44.85638810041499" lon="9.08581255870624"><ele>261.75</ele><time>2026-04-06T15:47:43.002Z</time></trkpt><trkpt lat="44.85640084128051" lon="9.08561619848718"><ele>261.0</ele><time>2026-04-06T15:47:44.002Z</time></trkpt><trkpt lat="44.85641881406618" lon="9.085415275540935"><ele>260.0</ele><time>2026-04-06T15:47:45.001Z</time></trkpt><trkpt lat="44.856439602764176" lon="9.085197693924968"><ele>259.0</ele><time>2026-04-06T15:47:46.001Z</time></trkpt><trkpt lat="44.856471255260196" lon="9.084978131776852"><ele>258.0</ele><time>2026-04-06T15:47:47.001Z</time></trkpt><trkpt lat="44.85652456003717" lon="9.084755681450192"><ele>258.6666666666667</ele><time>2026-04-06T15:47:48.001Z</time></trkpt><trkpt lat="44.85659598319969" lon="9.084546350118382"><ele>259.33333333333337</ele><time>2026-04-06T15:47:49.001Z</time></trkpt><trkpt lat="44.85669194692011" lon="9.084350866113736"><ele>260.0</ele><time>2026-04-06T15:47:50.001Z</time></trkpt><trkpt lat="44.85681888675935" lon="9.08418359968754"><ele>259.6666666666667</ele><time>2026-04-06T15:47:51.001Z</time></trkpt><trkpt lat="44.85695688300184" lon="9.08403379739195"><ele>259.3333333333333</ele><time>2026-04-06T15:47:52.001Z</time></trkpt><trkpt lat="44.85711428372921" lon="9.083878593690939"><ele>259.0</ele><time>2026-04-06T15:47:53.001Z</time></trkpt><trkpt lat="44.85728213146531" lon="9.083691186442252"><ele>259.0</ele><time>2026-04-06T15:47:54.001Z</time></trkpt><trkpt lat="44.857461213597254" lon="9.083521999012634"><ele>259.0</ele><time>2026-04-06T15:47:55.001Z</time></trkpt><trkpt lat="44.85763995759389" lon="9.083344525159564"><ele>259.0</ele><time>2026-04-06T15:47:56.001Z</time></trkpt><trkpt lat="44.85782492246443" lon="9.083151144387228"><ele>257.3333333333333</ele><time>2026-04-06T15:47:57.001Z</time></trkpt><trkpt lat="44.85802439267587" lon="9.083001457644896"><ele>255.66666666666669</ele><time>2026-04-06T15:47:58.001Z</time></trkpt><trkpt lat="44.85818750062614" lon="9.08283916139068"><ele>254.0</ele><time>2026-04-06T15:47:59.001Z</time></trkpt><trkpt lat="44.858332492977254" lon="9.082694890526172"><ele>255.0</ele><time>2026-04-06T15:48:00.001Z</time></trkpt><trkpt lat="44.85847313353473" lon="9.082554486045334"><ele>256.0</ele><time>2026-04-06T15:48:01.001Z</time></trkpt><trkpt lat="44.858612963771414" lon="9.08241465583235"><ele>257.0</ele><time>2026-04-06T15:48:02.001Z</time></trkpt><trkpt lat="44.85874752371451" lon="9.08228009609916"><ele>254.66666666666669</ele><time>2026-04-06T15:48:03.001Z</time></trkpt><trkpt lat="44.85888502417762" lon="9.082142596974137"><ele>252.33333333333331</ele><time>2026-04-06T15:48:04.001Z</time></trkpt><trkpt lat="44.85901809872566" lon="9.081984389938015"><ele>250.0</ele><time>2026-04-06T15:48:05.001Z</time></trkpt><trkpt lat="44.8591743888306" lon="9.081859063414395"><ele>251.33333333333331</ele><time>2026-04-06T15:48:06.001Z</time></trkpt><trkpt lat="44.85931687256675" lon="9.081717379794071"><ele>252.66666666666669</ele><time>2026-04-06T15:48:07.001Z</time></trkpt><trkpt lat="44.859451103025044" lon="9.08157579384741"><ele>254.0</ele><time>2026-04-06T15:48:08.001Z</time></trkpt><trkpt lat="44.859577714016304" lon="9.081423398437815"><ele>254.0</ele><time>2026-04-06T15:48:09.001Z</time></trkpt><trkpt lat="44.85968722713894" lon="9.081252277741077"><ele>254.0</ele><time>2026-04-06T15:48:10.001Z</time></trkpt><trkpt lat="44.859764493215394" lon="9.081043164905411"><ele>254.0</ele><time>2026-04-06T15:48:11.001Z</time></trkpt><trkpt lat="44.859839981964164" lon="9.08082773422448"><ele>252.33333333333334</ele><time>2026-04-06T15:48:12.001Z</time></trkpt><trkpt lat="44.85989684614073" lon="9.080601228432055"><ele>250.66666666666669</ele><time>2026-04-06T15:48:13.001Z</time></trkpt><trkpt lat="44.859937207433646" lon="9.080363473500324"><ele>249.0</ele><time>2026-04-06T15:48:14.001Z</time></trkpt><trkpt lat="44.859979018101896" lon="9.080130721242716"><ele>248.0</ele><time>2026-04-06T15:48:15.001Z</time></trkpt><trkpt lat="44.86006342593431" lon="9.079915466985849"><ele>247.0</ele><time>2026-04-06T15:48:16.001Z</time></trkpt><trkpt lat="44.860140020455646" lon="9.079679451625783"><ele>246.0</ele><time>2026-04-06T15:48:17.001Z</time></trkpt><trkpt lat="44.860261551068575" lon="9.079480916387533"><ele>245.0</ele><time>2026-04-06T15:48:18.001Z</time></trkpt><trkpt lat="44.86038445210495" lon="9.07927316047433"><ele>244.0</ele><time>2026-04-06T15:48:19.001Z</time></trkpt><trkpt lat="44.86052227280107" lon="9.079066411031256"><ele>243.0</ele><time>2026-04-06T15:48:20.001Z</time></trkpt><trkpt lat="44.86066221562472" lon="9.078867279577388"><ele>243.0</ele><time>2026-04-06T15:48:21.001Z</time></trkpt><trkpt lat="44.86080220738254" lon="9.078677657793664"><ele>243.0</ele><time>2026-04-06T15:48:22.001Z</time></trkpt><trkpt lat="44.860939117912906" lon="9.078495819633845"><ele>243.0</ele><time>2026-04-06T15:48:23.001Z</time></trkpt><trkpt lat="44.8610718275855" lon="9.07831762447786"><ele>244.0</ele><time>2026-04-06T15:48:24.001Z</time></trkpt><trkpt lat="44.86120010720155" lon="9.078142438887289"><ele>245.0</ele><time>2026-04-06T15:48:25.001Z</time></trkpt><trkpt lat="44.861323578513236" lon="9.077966277925794"><ele>246.0</ele><time>2026-04-06T15:48:26.001Z</time></trkpt><trkpt lat="44.861443339898635" lon="9.07777300420695"><ele>246.0</ele><time>2026-04-06T15:48:27.001Z</time></trkpt><trkpt lat="44.8615380100098" lon="9.077543004758454"><ele>246.0</ele><time>2026-04-06T15:48:28.001Z</time></trkpt><trkpt lat="44.861653783264465" lon="9.077321141854181"><ele>246.0</ele><time>2026-04-06T15:48:29.001Z</time></trkpt><trkpt lat="44.86174654596117" lon="9.077068367712169"><ele>251.33333333333331</ele><time>2026-04-06T15:48:30.001Z</time></trkpt><trkpt lat="44.86183129059268" lon="9.076804213679965"><ele>256.66666666666663</ele><time>2026-04-06T15:48:31.001Z</time></trkpt><trkpt lat="44.86190319569725" lon="9.0765114541382"><ele>262.0</ele><time>2026-04-06T15:48:32.001Z</time></trkpt><trkpt lat="44.86195455336401" lon="9.076205819740354"><ele>262.0</ele><time>2026-04-06T15:48:33.001Z</time></trkpt><trkpt lat="44.86200832017365" lon="9.075936356612237"><ele>262.0</ele><time>2026-04-06T15:48:34.001Z</time></trkpt><trkpt lat="44.86204928932472" lon="9.075622665333302"><ele>262.0</ele><time>2026-04-06T15:48:35.001Z</time></trkpt><trkpt lat="44.862088056470306" lon="9.075301102755683"><ele>259.5</ele><time>2026-04-06T15:48:36.001Z</time></trkpt><trkpt lat="44.862125524609795" lon="9.074974688764902"><ele>257.0</ele><time>2026-04-06T15:48:37.001Z</time></trkpt><trkpt lat="44.8621624275782" lon="9.074640847311805"><ele>254.0</ele><time>2026-04-06T15:48:38.001Z</time></trkpt><trkpt lat="44.862207555405455" lon="9.074316623772"><ele>251.0</ele><time>2026-04-06T15:48:39.001Z</time></trkpt><trkpt lat="44.86226066914006" lon="9.074000203025538"><ele>246.5</ele><time>2026-04-06T15:48:40.001Z</time></trkpt><trkpt lat="44.8623286545399" lon="9.073682609234716"><ele>242.0</ele><time>2026-04-06T15:48:41.001Z</time></trkpt><trkpt lat="44.8624205467532" lon="9.07337748775653"><ele>240.33333333333334</ele><time>2026-04-06T15:48:42.001Z</time></trkpt><trkpt lat="44.86251968597905" lon="9.073090363637057"><ele>238.66666666666669</ele><time>2026-04-06T15:48:43.001Z</time></trkpt><trkpt lat="44.86263351436236" lon="9.07283437375261"><ele>237.0</ele><time>2026-04-06T15:48:44.001Z</time></trkpt><trkpt lat="44.862759083898005" lon="9.072596719242128"><ele>235.0</ele><time>2026-04-06T15:48:45.001Z</time></trkpt><trkpt lat="44.86289993820341" lon="9.072403046068109"><ele>233.0</ele><time>2026-04-06T15:48:46.001Z</time></trkpt><trkpt lat="44.86305277420559" lon="9.072237797139827"><ele>231.0</ele><time>2026-04-06T15:48:47.001Z</time></trkpt><trkpt lat="44.863222688925205" lon="9.072092790808687"><ele>231.0</ele><time>2026-04-06T15:48:48.001Z</time></trkpt><trkpt lat="44.86341372415844" lon="9.071967517839742"><ele>231.0</ele><time>2026-04-06T15:48:49.001Z</time></trkpt><trkpt lat="44.863619682022076" lon="9.071875005662237"><ele>231.0</ele><time>2026-04-06T15:48:50.001Z</time></trkpt><trkpt lat="44.86383313293696" lon="9.071822405327243"><ele>231.0</ele><time>2026-04-06T15:48:51.001Z</time></trkpt><trkpt lat="44.86405981199189" lon="9.071780896494868"><ele>231.0</ele><time>2026-04-06T15:48:52.001Z</time></trkpt><trkpt lat="44.86428705919532" lon="9.071743974250573"><ele>231.33333333333331</ele><time>2026-04-06T15:48:53.001Z</time></trkpt><trkpt lat="44.86450669381435" lon="9.071708288800064"><ele>231.66666666666666</ele><time>2026-04-06T15:48:54.001Z</time></trkpt><trkpt lat="44.864718544672364" lon="9.071673868053182"><ele>232.0</ele><time>2026-04-06T15:48:55.001Z</time></trkpt><trkpt lat="44.864918505320155" lon="9.071641379175647"><ele>232.0</ele><time>2026-04-06T15:48:56.001Z</time></trkpt><trkpt lat="44.865112110590324" lon="9.071609922909973"><ele>232.0</ele><time>2026-04-06T15:48:57.001Z</time></trkpt><trkpt lat="44.86530320937446" lon="9.0715788738581"><ele>232.0</ele><time>2026-04-06T15:48:58.001Z</time></trkpt><trkpt lat="44.86549794997414" lon="9.071547188131474"><ele>232.0</ele><time>2026-04-06T15:48:59.001Z</time></trkpt><trkpt lat="44.86569795576594" lon="9.071514594598904"><ele>232.0</ele><time>2026-04-06T15:49:00.001Z</time></trkpt><trkpt lat="44.865902976841994" lon="9.071479980290103"><ele>232.0</ele><time>2026-04-06T15:49:01.001Z</time></trkpt><trkpt lat="44.86610791482258" lon="9.071445040718105"><ele>232.0</ele><time>2026-04-06T15:49:02.001Z</time></trkpt><trkpt lat="44.8663055298694" lon="9.071411108924949"><ele>232.0</ele><time>2026-04-06T15:49:03.001Z</time></trkpt><trkpt lat="44.86649358291229" lon="9.071378767286028"><ele>232.0</ele><time>2026-04-06T15:49:04.001Z</time></trkpt><trkpt lat="44.866674574933874" lon="9.071346852119696"><ele>231.0</ele><time>2026-04-06T15:49:05.001Z</time></trkpt><trkpt lat="44.866854489597706" lon="9.071315205705718"><ele>230.0</ele><time>2026-04-06T15:49:06.001Z</time></trkpt><trkpt lat="44.86703602361463" lon="9.07128619734981"><ele>229.0</ele><time>2026-04-06T15:49:07.001Z</time></trkpt><trkpt lat="44.86722161897209" lon="9.071256540014238"><ele>229.0</ele><time>2026-04-06T15:49:08.001Z</time></trkpt><trkpt lat="44.86740923225119" lon="9.071226560217298"><ele>229.0</ele><time>2026-04-06T15:49:09.001Z</time></trkpt><trkpt lat="44.86759714966555" lon="9.071196531825635"><ele>229.0</ele><time>2026-04-06T15:49:10.001Z</time></trkpt><trkpt lat="44.867784419927446" lon="9.071166193184808"><ele>229.66666666666666</ele><time>2026-04-06T15:49:11.001Z</time></trkpt><trkpt lat="44.86797101490331" lon="9.071135718193569"><ele>230.33333333333331</ele><time>2026-04-06T15:49:12.001Z</time></trkpt><trkpt lat="44.86816114471196" lon="9.071104665892483"><ele>231.0</ele><time>2026-04-06T15:49:13.001Z</time></trkpt><trkpt lat="44.86835001487534" lon="9.071073821217738"><ele>232.33333333333331</ele><time>2026-04-06T15:49:14.001Z</time></trkpt><trkpt lat="44.868536577426546" lon="9.07104335153219"><ele>233.66666666666666</ele><time>2026-04-06T15:49:15.001Z</time></trkpt><trkpt lat="44.86872193376965" lon="9.071013080256165"><ele>235.0</ele><time>2026-04-06T15:49:16.001Z</time></trkpt><trkpt lat="44.86889905362365" lon="9.07096227814613"><ele>235.0</ele><time>2026-04-06T15:49:17.001Z</time></trkpt><trkpt lat="44.86907445996833" lon="9.070937075531527"><ele>235.0</ele><time>2026-04-06T15:49:18.001Z</time></trkpt><trkpt lat="44.869247344764425" lon="9.070905134140196"><ele>235.0</ele><time>2026-04-06T15:49:19.001Z</time></trkpt><trkpt lat="44.86941360841345" lon="9.070858864024869"><ele>235.66666666666666</ele><time>2026-04-06T15:49:20.001Z</time></trkpt><trkpt lat="44.86958325929471" lon="9.070786545420424"><ele>236.33333333333331</ele><time>2026-04-06T15:49:21.001Z</time></trkpt><trkpt lat="44.86973330665497" lon="9.07066907619976"><ele>237.0</ele><time>2026-04-06T15:49:22.001Z</time></trkpt><trkpt lat="44.86985932612722" lon="9.070509365042176"><ele>237.0</ele><time>2026-04-06T15:49:23.001Z</time></trkpt><trkpt lat="44.8699672940209" lon="9.070321253021397"><ele>237.0</ele><time>2026-04-06T15:49:24.001Z</time></trkpt><trkpt lat="44.87005223434625" lon="9.070108866840112"><ele>237.0</ele><time>2026-04-06T15:49:25.001Z</time></trkpt><trkpt lat="44.870114900242896" lon="9.06987694897602"><ele>240.0</ele><time>2026-04-06T15:49:26.001Z</time></trkpt><trkpt lat="44.8701556681012" lon="9.06963691794465"><ele>243.0</ele><time>2026-04-06T15:49:27.001Z</time></trkpt><trkpt lat="44.87018901857643" lon="9.069405337482944"><ele>246.0</ele><time>2026-04-06T15:49:28.001Z</time></trkpt><trkpt lat="44.8702267175307" lon="9.069181562380205"><ele>243.0</ele><time>2026-04-06T15:49:29.001Z</time></trkpt><trkpt lat="44.870318171313926" lon="9.068989869180081"><ele>240.0</ele><time>2026-04-06T15:49:30.001Z</time></trkpt><trkpt lat="44.87042057770408" lon="9.068793772004057"><ele>237.0</ele><time>2026-04-06T15:49:31.001Z</time></trkpt><trkpt lat="44.870529620580534" lon="9.068601549229248"><ele>237.0</ele><time>2026-04-06T15:49:32.001Z</time></trkpt><trkpt lat="44.87062747182289" lon="9.068414064864102"><ele>237.0</ele><time>2026-04-06T15:49:33.001Z</time></trkpt><trkpt lat="44.870753968138054" lon="9.068267501131038"><ele>237.0</ele><time>2026-04-06T15:49:34.001Z</time></trkpt><trkpt lat="44.87087818889795" lon="9.068117914840297"><ele>234.0</ele><time>2026-04-06T15:49:35.001Z</time></trkpt><trkpt lat="44.871016882444955" lon="9.067990014402985"><ele>231.0</ele><time>2026-04-06T15:49:36.001Z</time></trkpt><trkpt lat="44.87117260350932" lon="9.067910521646825"><ele>228.0</ele><time>2026-04-06T15:49:37.001Z</time></trkpt><trkpt lat="44.87133451384474" lon="9.067850607389435"><ele>228.0</ele><time>2026-04-06T15:49:38.001Z</time></trkpt><trkpt lat="44.871496763525535" lon="9.06781291553942"><ele>228.0</ele><time>2026-04-06T15:49:39.001Z</time></trkpt><trkpt lat="44.87166825628972" lon="9.0677794954243"><ele>228.0</ele><time>2026-04-06T15:49:40.001Z</time></trkpt><trkpt lat="44.87184193871873" lon="9.067752278212266"><ele>228.33333333333331</ele><time>2026-04-06T15:49:41.001Z</time></trkpt><trkpt lat="44.87202365678078" lon="9.0677253168258"><ele>228.66666666666666</ele><time>2026-04-06T15:49:42.001Z</time></trkpt><trkpt lat="44.872200170817194" lon="9.067695714452352"><ele>229.0</ele><time>2026-04-06T15:49:43.001Z</time></trkpt><trkpt lat="44.872367794082464" lon="9.06764309777678"><ele>229.0</ele><time>2026-04-06T15:49:44.001Z</time></trkpt><trkpt lat="44.87253509727086" lon="9.067598269539673"><ele>229.0</ele><time>2026-04-06T15:49:45.001Z</time></trkpt><trkpt lat="44.872692207842896" lon="9.067510553559284"><ele>229.0</ele><time>2026-04-06T15:49:46.001Z</time></trkpt><trkpt lat="44.872837668611425" lon="9.06738022743057"><ele>228.66666666666666</ele><time>2026-04-06T15:49:47.001Z</time></trkpt><trkpt lat="44.872987948027294" lon="9.067227620883587"><ele>228.33333333333331</ele><time>2026-04-06T15:49:48.001Z</time></trkpt><trkpt lat="44.87313664761228" lon="9.067078110727879"><ele>228.0</ele><time>2026-04-06T15:49:49.001Z</time></trkpt><trkpt lat="44.87328067026354" lon="9.066930257458083"><ele>228.0</ele><time>2026-04-06T15:49:50.001Z</time></trkpt><trkpt lat="44.8734067105764" lon="9.066777586417103"><ele>228.0</ele><time>2026-04-06T15:49:51.001Z</time></trkpt><trkpt lat="44.87353011069206" lon="9.06661465438533"><ele>228.0</ele><time>2026-04-06T15:49:52.001Z</time></trkpt><trkpt lat="44.873654225561104" lon="9.066440900162451"><ele>228.0</ele><time>2026-04-06T15:49:53.001Z</time></trkpt><trkpt lat="44.87378710703487" lon="9.066287738926896"><ele>228.0</ele><time>2026-04-06T15:49:54.001Z</time></trkpt><trkpt lat="44.8739082941468" lon="9.066126308606144"><ele>228.0</ele><time>2026-04-06T15:49:55.001Z</time></trkpt><trkpt lat="44.87402875632603" lon="9.065963404549297"><ele>228.0</ele><time>2026-04-06T15:49:56.001Z</time></trkpt><trkpt lat="44.87414588975144" lon="9.065801292265268"><ele>228.0</ele><time>2026-04-06T15:49:57.001Z</time></trkpt><trkpt lat="44.87426614891659" lon="9.065640787785293"><ele>228.0</ele><time>2026-04-06T15:49:58.001Z</time></trkpt><trkpt lat="44.87439239868402" lon="9.065487126253428"><ele>226.33333333333331</ele><time>2026-04-06T15:49:59.001Z</time></trkpt><trkpt lat="44.874521894067755" lon="9.065346094864006"><ele>224.66666666666666</ele><time>2026-04-06T15:50:00.001Z</time></trkpt><trkpt lat="44.87465869833005" lon="9.065220908719034"><ele>223.0</ele><time>2026-04-06T15:50:01.001Z</time></trkpt><trkpt lat="44.87480667960056" lon="9.065122620576503"><ele>223.0</ele><time>2026-04-06T15:50:02.001Z</time></trkpt><trkpt lat="44.87497429448575" lon="9.065038081103607"><ele>223.0</ele><time>2026-04-06T15:50:03.001Z</time></trkpt><trkpt lat="44.875157595400026" lon="9.064967125159296"><ele>223.0</ele><time>2026-04-06T15:50:04.001Z</time></trkpt><trkpt lat="44.87535806198111" lon="9.064896585944888"><ele>221.33333333333331</ele><time>2026-04-06T15:50:05.001Z</time></trkpt><trkpt lat="44.875570902615145" lon="9.064821811859495"><ele>219.66666666666669</ele><time>2026-04-06T15:50:06.001Z</time></trkpt><trkpt lat="44.87577295171435" lon="9.064750828973681"><ele>218.0</ele><time>2026-04-06T15:50:07.001Z</time></trkpt><trkpt lat="44.87595838911334" lon="9.064685681992188"><ele>218.0</ele><time>2026-04-06T15:50:08.001Z</time></trkpt><trkpt lat="44.876133742962075" lon="9.06462407821795"><ele>218.0</ele><time>2026-04-06T15:50:09.001Z</time></trkpt><trkpt lat="44.87630019153412" lon="9.064565108816147"><ele>218.0</ele><time>2026-04-06T15:50:10.001Z</time></trkpt><trkpt lat="44.876473959126955" lon="9.06450370561394"><ele>218.0</ele><time>2026-04-06T15:50:11.001Z</time></trkpt><trkpt lat="44.8766529648015" lon="9.064441322490767"><ele>218.0</ele><time>2026-04-06T15:50:12.001Z</time></trkpt><trkpt lat="44.87683801370955" lon="9.064375697902703"><ele>218.0</ele><time>2026-04-06T15:50:13.001Z</time></trkpt><trkpt lat="44.87704124485395" lon="9.064303352335044"><ele>220.5</ele><time>2026-04-06T15:50:14.001Z</time></trkpt><trkpt lat="44.877265245034344" lon="9.064223613454143"><ele>223.0</ele><time>2026-04-06T15:50:15.001Z</time></trkpt><trkpt lat="44.8775059272838" lon="9.064137936144997"><ele>218.5</ele><time>2026-04-06T15:50:16.001Z</time></trkpt><trkpt lat="44.87777076828583" lon="9.064042540434235"><ele>214.0</ele><time>2026-04-06T15:50:17.001Z</time></trkpt><trkpt lat="44.87802393134295" lon="9.063950497779816"><ele>214.0</ele><time>2026-04-06T15:50:18.001Z</time></trkpt><trkpt lat="44.87825280579336" lon="9.063868509513751"><ele>214.0</ele><time>2026-04-06T15:50:19.001Z</time></trkpt><trkpt lat="44.87846186080266" lon="9.063796519353511"><ele>215.33333333333331</ele><time>2026-04-06T15:50:20.001Z</time></trkpt><trkpt lat="44.87866317955504" lon="9.063726848727162"><ele>216.66666666666669</ele><time>2026-04-06T15:50:21.001Z</time></trkpt><trkpt lat="44.87884773165277" lon="9.063662947735208"><ele>218.0</ele><time>2026-04-06T15:50:22.001Z</time></trkpt><trkpt lat="44.87901860634176" lon="9.063605193494098"><ele>218.0</ele><time>2026-04-06T15:50:23.001Z</time></trkpt><trkpt lat="44.87918121242908" lon="9.063551815289008"><ele>218.0</ele><time>2026-04-06T15:50:24.001Z</time></trkpt><trkpt lat="44.87933098417931" lon="9.063501581709815"><ele>218.0</ele><time>2026-04-06T15:50:25Z</time></trkpt><trkpt lat="44.879466038680626" lon="9.063448762172047"><ele>218.75</ele><time>2026-04-06T15:50:26Z</time></trkpt><trkpt lat="44.879592034429606" lon="9.06338868447312"><ele>219.5</ele><time>2026-04-06T15:50:27Z</time></trkpt><trkpt lat="44.87971415436819" lon="9.063308067059799"><ele>220.25</ele><time>2026-04-06T15:50:28Z</time></trkpt><trkpt lat="44.87982625531741" lon="9.063178899117299"><ele>221.0</ele><time>2026-04-06T15:50:29Z</time></trkpt><trkpt lat="44.87994118821085" lon="9.063034140914251"><ele>219.66666666666669</ele><time>2026-04-06T15:50:30Z</time></trkpt><trkpt lat="44.88004786468833" lon="9.062850881725055"><ele>218.33333333333331</ele><time>2026-04-06T15:50:31Z</time></trkpt><trkpt lat="44.88017398828667" lon="9.062683967693056"><ele>217.0</ele><time>2026-04-06T15:50:32Z</time></trkpt><trkpt lat="44.88029037317062" lon="9.062501101059066"><ele>216.66666666666666</ele><time>2026-04-06T15:50:33Z</time></trkpt><trkpt lat="44.880410551840896" lon="9.062312273564375"><ele>216.33333333333331</ele><time>2026-04-06T15:50:34Z</time></trkpt><trkpt lat="44.880536062523205" lon="9.062114987697427"><ele>216.0</ele><time>2026-04-06T15:50:35Z</time></trkpt><trkpt lat="44.88066014498564" lon="9.061919285055763"><ele>216.0</ele><time>2026-04-06T15:50:36Z</time></trkpt><trkpt lat="44.880768614717454" lon="9.061748206649582"><ele>216.0</ele><time>2026-04-06T15:50:37Z</time></trkpt><trkpt lat="44.8808678653775" lon="9.061591783713585"><ele>216.0</ele><time>2026-04-06T15:50:38Z</time></trkpt><trkpt lat="44.88096218652485" lon="9.06144330389137"><ele>216.75</ele><time>2026-04-06T15:50:39Z</time></trkpt><trkpt lat="44.8810514344485" lon="9.061302810424003"><ele>217.5</ele><time>2026-04-06T15:50:40Z</time></trkpt><trkpt lat="44.88113730089032" lon="9.06116763998775"><ele>218.25</ele><time>2026-04-06T15:50:41Z</time></trkpt><trkpt lat="44.881219538718454" lon="9.061038181718644"><ele>219.0</ele><time>2026-04-06T15:50:42Z</time></trkpt><trkpt lat="44.88130009553532" lon="9.06091310340288"><ele>219.0</ele><time>2026-04-06T15:50:43Z</time></trkpt><trkpt lat="44.881382297955994" lon="9.060793196178633"><ele>219.0</ele><time>2026-04-06T15:50:44Z</time></trkpt><trkpt lat="44.881474445830115" lon="9.060672930034283"><ele>219.0</ele><time>2026-04-06T15:50:45Z</time></trkpt><trkpt lat="44.88157829982826" lon="9.060571109175724"><ele>219.0</ele><time>2026-04-06T15:50:46Z</time></trkpt><trkpt lat="44.88169549958786" lon="9.060477915551726"><ele>217.33333333333331</ele><time>2026-04-06T15:50:47Z</time></trkpt><trkpt lat="44.8818247060816" lon="9.06039053213974"><ele>215.66666666666666</ele><time>2026-04-06T15:50:48Z</time></trkpt><trkpt lat="44.88196105448655" lon="9.060281717175737"><ele>214.0</ele><time>2026-04-06T15:50:49Z</time></trkpt><trkpt lat="44.88211893145103" lon="9.060208499903158"><ele>214.0</ele><time>2026-04-06T15:50:50Z</time></trkpt><trkpt lat="44.88228040685579" lon="9.060085911932086"><ele>214.0</ele><time>2026-04-06T15:50:51Z</time></trkpt><trkpt lat="44.88245833336313" lon="9.0599697613206"><ele>214.0</ele><time>2026-04-06T15:50:52Z</time></trkpt><trkpt lat="44.88264347834095" lon="9.059858741847146"><ele>212.33333333333331</ele><time>2026-04-06T15:50:53Z</time></trkpt><trkpt lat="44.882823458722086" lon="9.059754024747292"><ele>210.66666666666669</ele><time>2026-04-06T15:50:54Z</time></trkpt><trkpt lat="44.882986750124914" lon="9.059652379594642"><ele>209.0</ele><time>2026-04-06T15:50:55Z</time></trkpt><trkpt lat="44.88313818110253" lon="9.059554058242858"><ele>209.0</ele><time>2026-04-06T15:50:56Z</time></trkpt><trkpt lat="44.88328168366633" lon="9.059457742508929"><ele>209.0</ele><time>2026-04-06T15:50:57Z</time></trkpt><trkpt lat="44.883425171371066" lon="9.05936228397791"><ele>209.0</ele><time>2026-04-06T15:50:58Z</time></trkpt><trkpt lat="44.88357807120885" lon="9.059289200521537"><ele>209.66666666666669</ele><time>2026-04-06T15:50:59Z</time></trkpt><trkpt lat="44.883724130090236" lon="9.0591965124328"><ele>210.33333333333331</ele><time>2026-04-06T15:51:00Z</time></trkpt><trkpt lat="44.88386607251472" lon="9.059106436478345"><ele>211.0</ele><time>2026-04-06T15:51:01Z</time></trkpt><trkpt lat="44.884009047575354" lon="9.059017876791373"><ele>211.0</ele><time>2026-04-06T15:51:02Z</time></trkpt><trkpt lat="44.88413633293673" lon="9.058917805023437"><ele>211.0</ele><time>2026-04-06T15:51:03Z</time></trkpt><trkpt lat="44.884274198440636" lon="9.058854306465875"><ele>211.0</ele><time>2026-04-06T15:51:04Z</time></trkpt><trkpt lat="44.884423181833796" lon="9.058819230539056"><ele>211.0</ele><time>2026-04-06T15:51:05Z</time></trkpt><trkpt lat="44.884583930709354" lon="9.058854123208024"><ele>210.33333333333331</ele><time>2026-04-06T15:51:06Z</time></trkpt><trkpt lat="44.88474944592679" lon="9.058885271638529"><ele>209.66666666666669</ele><time>2026-04-06T15:51:07Z</time></trkpt><trkpt lat="44.88491048215683" lon="9.058950881254383"><ele>209.0</ele><time>2026-04-06T15:51:08Z</time></trkpt><trkpt lat="44.88506633311763" lon="9.059020435496786"><ele>209.33333333333334</ele><time>2026-04-06T15:51:09Z</time></trkpt><trkpt lat="44.8852119173128" lon="9.05908300837899"><ele>209.66666666666669</ele><time>2026-04-06T15:51:10Z</time></trkpt><trkpt lat="44.88536223826052" lon="9.059147914120173"><ele>210.0</ele><time>2026-04-06T15:51:11Z</time></trkpt><trkpt lat="44.885529149796774" lon="9.05923562498444"><ele>210.0</ele><time>2026-04-06T15:51:12Z</time></trkpt><trkpt lat="44.88572082423218" lon="9.059316718647226"><ele>210.0</ele><time>2026-04-06T15:51:13Z</time></trkpt><trkpt lat="44.885927616446445" lon="9.05940384459244"><ele>210.0</ele><time>2026-04-06T15:51:14Z</time></trkpt><trkpt lat="44.88614627002561" lon="9.059495594273804"><ele>207.0</ele><time>2026-04-06T15:51:15Z</time></trkpt><trkpt lat="44.88637342853662" lon="9.059590912804046"><ele>204.0</ele><time>2026-04-06T15:51:16Z</time></trkpt><trkpt lat="44.88659797762555" lon="9.059684811597633"><ele>202.33333333333331</ele><time>2026-04-06T15:51:17Z</time></trkpt><trkpt lat="44.88681787853685" lon="9.059775846758928"><ele>200.66666666666666</ele><time>2026-04-06T15:51:18Z</time></trkpt><trkpt lat="44.887029051786605" lon="9.059861120606248"><ele>199.0</ele><time>2026-04-06T15:51:19Z</time></trkpt><trkpt lat="44.88723296315055" lon="9.059946158526088"><ele>199.66666666666666</ele><time>2026-04-06T15:51:20Z</time></trkpt><trkpt lat="44.88743476607649" lon="9.0600074642361"><ele>200.33333333333331</ele><time>2026-04-06T15:51:21Z</time></trkpt><trkpt lat="44.88761047852587" lon="9.060082109737573"><ele>201.0</ele><time>2026-04-06T15:51:22Z</time></trkpt><trkpt lat="44.88775266970232" lon="9.060150555574435"><ele>201.0</ele><time>2026-04-06T15:51:23Z</time></trkpt><trkpt lat="44.88789688629674" lon="9.060214553556795"><ele>201.0</ele><time>2026-04-06T15:51:24Z</time></trkpt><trkpt lat="44.888036147078516" lon="9.060275395471644"><ele>201.0</ele><time>2026-04-06T15:51:25Z</time></trkpt><trkpt lat="44.88818173088309" lon="9.060336406567867"><ele>201.0</ele><time>2026-04-06T15:51:26Z</time></trkpt><trkpt lat="44.88833593430066" lon="9.060395051064596"><ele>201.33333333333331</ele><time>2026-04-06T15:51:27Z</time></trkpt><trkpt lat="44.888499275359315" lon="9.060440820604105"><ele>201.66666666666666</ele><time>2026-04-06T15:51:28Z</time></trkpt><trkpt lat="44.88867487433551" lon="9.06047551410908"><ele>202.0</ele><time>2026-04-06T15:51:29Z</time></trkpt><trkpt lat="44.888856882809456" lon="9.060491851276407"><ele>202.0</ele><time>2026-04-06T15:51:30Z</time></trkpt><trkpt lat="44.88904080437239" lon="9.06047951971391"><ele>202.0</ele><time>2026-04-06T15:51:31Z</time></trkpt><trkpt lat="44.8892238029897" lon="9.060454660690452"><ele>202.0</ele><time>2026-04-06T15:51:32Z</time></trkpt><trkpt lat="44.88940077488437" lon="9.060442078724126"><ele>200.66666666666666</ele><time>2026-04-06T15:51:33Z</time></trkpt><trkpt lat="44.88957976732543" lon="9.060468397725753"><ele>199.33333333333331</ele><time>2026-04-06T15:51:34Z</time></trkpt><trkpt lat="44.88976655076046" lon="9.060483389492573"><ele>198.0</ele><time>2026-04-06T15:51:35Z</time></trkpt><trkpt lat="44.8899679279592" lon="9.060504842519348"><ele>198.0</ele><time>2026-04-06T15:51:36Z</time></trkpt><trkpt lat="44.89018687400223" lon="9.060532168316298"><ele>198.0</ele><time>2026-04-06T15:51:37Z</time></trkpt><trkpt lat="44.89041847735168" lon="9.060562940288696"><ele>198.0</ele><time>2026-04-06T15:51:38Z</time></trkpt><trkpt lat="44.89064096687345" lon="9.060592501339036"><ele>198.0</ele><time>2026-04-06T15:51:39Z</time></trkpt><trkpt lat="44.89084743325214" lon="9.060624382752396"><ele>198.0</ele><time>2026-04-06T15:51:40Z</time></trkpt><trkpt lat="44.89103174244972" lon="9.060649878385956"><ele>197.0</ele><time>2026-04-06T15:51:41Z</time></trkpt><trkpt lat="44.89117975848104" lon="9.060661788539852"><ele>196.0</ele><time>2026-04-06T15:51:42Z</time></trkpt><trkpt lat="44.89132296438795" lon="9.060667766747347"><ele>195.0</ele><time>2026-04-06T15:51:43Z</time></trkpt><trkpt lat="44.89146388911748" lon="9.060664776008338"><ele>194.0</ele><time>2026-04-06T15:51:44Z</time></trkpt><trkpt lat="44.89160689889588" lon="9.060642930441048"><ele>193.33333333333334</ele><time>2026-04-06T15:51:45Z</time></trkpt><trkpt lat="44.891803710575715" lon="9.060598360663697"><ele>192.66666666666669</ele><time>2026-04-06T15:51:46Z</time></trkpt><trkpt lat="44.89194476950496" lon="9.060564224675922"><ele>192.0</ele><time>2026-04-06T15:51:47Z</time></trkpt><trkpt lat="44.892052253519644" lon="9.060538084115954"><ele>192.0</ele><time>2026-04-06T15:51:48.001Z</time></trkpt><trkpt lat="44.892133758714856" lon="9.060518261744129"><ele>192.0</ele><time>2026-04-06T15:51:49.001Z</time></trkpt><trkpt lat="44.892194675581145" lon="9.060480706881657"><ele>192.0</ele><time>2026-04-06T15:51:50.001Z</time></trkpt><trkpt lat="44.89227683542607" lon="9.060468607311385"><ele>192.0</ele><time>2026-04-06T15:51:53.001Z</time></trkpt><trkpt lat="44.892364783644744" lon="9.060461806907243"><ele>192.0</ele><time>2026-04-06T15:52:01Z</time></trkpt><trkpt lat="44.89249204385783" lon="9.060430671014316"><ele>192.0</ele><time>2026-04-06T15:52:03Z</time></trkpt><trkpt lat="44.892587120790424" lon="9.06040661915074"><ele>192.8</ele><time>2026-04-06T15:52:04Z</time></trkpt><trkpt lat="44.89268480270798" lon="9.060382138486514"><ele>193.6</ele><time>2026-04-06T15:52:05Z</time></trkpt><trkpt lat="44.89277899524446" lon="9.060358439038051"><ele>194.4</ele><time>2026-04-06T15:52:06Z</time></trkpt><trkpt lat="44.8928899516572" lon="9.060330923909646"><ele>195.20000000000002</ele><time>2026-04-06T15:52:07Z</time></trkpt><trkpt lat="44.893010017329026" lon="9.060301481225533"><ele>196.0</ele><time>2026-04-06T15:52:08Z</time></trkpt><trkpt lat="44.89315198747891" lon="9.06026457682445"><ele>196.0</ele><time>2026-04-06T15:52:09Z</time></trkpt><trkpt lat="44.89327690263336" lon="9.060232823721943"><ele>196.0</ele><time>2026-04-06T15:52:10Z</time></trkpt><trkpt lat="44.89339332182537" lon="9.060203230228346"><ele>196.0</ele><time>2026-04-06T15:52:11Z</time></trkpt><trkpt lat="44.893515351364094" lon="9.06017221057375"><ele>196.0</ele><time>2026-04-06T15:52:12Z</time></trkpt><trkpt lat="44.89363430838364" lon="9.060141971966665"><ele>196.4</ele><time>2026-04-06T15:52:13Z</time></trkpt><trkpt lat="44.89373729997863" lon="9.060115918351045"><ele>196.8</ele><time>2026-04-06T15:52:14Z</time></trkpt><trkpt lat="44.89383457106675" lon="9.060091428442366"><ele>197.20000000000002</ele><time>2026-04-06T15:52:15Z</time></trkpt><trkpt lat="44.89392484370902" lon="9.060068700520983"><ele>197.60000000000002</ele><time>2026-04-06T15:52:16Z</time></trkpt><trkpt lat="44.8940065506401" lon="9.060048129148091"><ele>198.0</ele><time>2026-04-06T15:52:17Z</time></trkpt><trkpt lat="44.89409298567495" lon="9.06002677863973"><ele>198.0</ele><time>2026-04-06T15:52:18Z</time></trkpt><trkpt lat="44.89419394366571" lon="9.060001860746413"><ele>198.0</ele><time>2026-04-06T15:52:19Z</time></trkpt><trkpt lat="44.89428845756627" lon="9.059978069675132"><ele>198.0</ele><time>2026-04-06T15:52:20Z</time></trkpt><trkpt lat="44.894368773458694" lon="9.059957686887381"><ele>198.0</ele><time>2026-04-06T15:52:21Z</time></trkpt><trkpt lat="44.89443774935186" lon="9.059940181977403"><ele>198.0</ele><time>2026-04-06T15:52:22Z</time></trkpt><trkpt lat="44.89449984058302" lon="9.059924424312289"><ele>198.0</ele><time>2026-04-06T15:52:23Z</time></trkpt><trkpt lat="44.89458856982102" lon="9.059897897262223"><ele>198.4</ele><time>2026-04-06T15:52:25Z</time></trkpt><trkpt lat="44.89467252644201" lon="9.059863012698159"><ele>198.8</ele><time>2026-04-06T15:52:27Z</time></trkpt><trkpt lat="44.89479410489672" lon="9.059762248226699"><ele>199.2</ele><time>2026-04-06T15:52:29Z</time></trkpt><trkpt lat="44.89485981702992" lon="9.059670810623768"><ele>199.6</ele><time>2026-04-06T15:52:30Z</time></trkpt><trkpt lat="44.894914163914116" lon="9.059556519976384"><ele>200.0</ele><time>2026-04-06T15:52:31Z</time></trkpt><trkpt lat="44.89495373951858" lon="9.059417151656966"><ele>200.0</ele><time>2026-04-06T15:52:32Z</time></trkpt><trkpt lat="44.89499563542928" lon="9.059291937748643"><ele>200.0</ele><time>2026-04-06T15:52:33Z</time></trkpt><trkpt lat="44.89503929796344" lon="9.059161443433467"><ele>200.0</ele><time>2026-04-06T15:52:34Z</time></trkpt><trkpt lat="44.89508055085521" lon="9.059035101605215"><ele>200.0</ele><time>2026-04-06T15:52:35Z</time></trkpt><trkpt lat="44.895121880463954" lon="9.058907350222343"><ele>200.0</ele><time>2026-04-06T15:52:36Z</time></trkpt><trkpt lat="44.895162929739506" lon="9.058779694392227"><ele>200.0</ele><time>2026-04-06T15:52:37Z</time></trkpt><trkpt lat="44.895206694504374" lon="9.058642494442754"><ele>200.0</ele><time>2026-04-06T15:52:38Z</time></trkpt><trkpt lat="44.89525280555718" lon="9.05849793904246"><ele>200.0</ele><time>2026-04-06T15:52:39Z</time></trkpt><trkpt lat="44.895301066272594" lon="9.058345807113046"><ele>200.0</ele><time>2026-04-06T15:52:40Z</time></trkpt><trkpt lat="44.8953433740934" lon="9.058212037630447"><ele>200.0</ele><time>2026-04-06T15:52:41Z</time></trkpt><trkpt lat="44.89539056402338" lon="9.058062831767911"><ele>200.0</ele><time>2026-04-06T15:52:42Z</time></trkpt><trkpt lat="44.89543762413404" lon="9.05791403651832"><ele>200.0</ele><time>2026-04-06T15:52:43Z</time></trkpt><trkpt lat="44.89548447767811" lon="9.057763535385803"><ele>200.0</ele><time>2026-04-06T15:52:44Z</time></trkpt><trkpt lat="44.8955328135941" lon="9.05760753396577"><ele>200.0</ele><time>2026-04-06T15:52:45Z</time></trkpt><trkpt lat="44.895569983445725" lon="9.057427900577586"><ele>199.8</ele><time>2026-04-06T15:52:46Z</time></trkpt><trkpt lat="44.89563651565552" lon="9.057257879494344"><ele>199.6</ele><time>2026-04-06T15:52:47Z</time></trkpt><trkpt lat="44.89568574023098" lon="9.057093941284736"><ele>199.39999999999998</ele><time>2026-04-06T15:52:48Z</time></trkpt><trkpt lat="44.89572073379723" lon="9.056968052953316"><ele>199.2</ele><time>2026-04-06T15:52:49Z</time></trkpt><trkpt lat="44.89574749022628" lon="9.056866680309973"><ele>199.0</ele><time>2026-04-06T15:52:51Z</time></trkpt><trkpt lat="44.89578145948419" lon="9.056771365408771"><ele>198.79999999999998</ele><time>2026-04-06T15:52:55Z</time></trkpt><trkpt lat="44.895841200735596" lon="9.056618485194566"><ele>198.6</ele><time>2026-04-06T15:52:58Z</time></trkpt><trkpt lat="44.89588231490633" lon="9.056533307491472"><ele>198.4</ele><time>2026-04-06T15:52:59Z</time></trkpt><trkpt lat="44.8959324641912" lon="9.056437364632545"><ele>198.2</ele><time>2026-04-06T15:53:00Z</time></trkpt><trkpt lat="44.89598511582038" lon="9.056344725476588"><ele>198.0</ele><time>2026-04-06T15:53:01Z</time></trkpt><trkpt lat="44.896051969095666" lon="9.056246738055172"><ele>198.0</ele><time>2026-04-06T15:53:02Z</time></trkpt><trkpt lat="44.89612376129174" lon="9.05613970876566"><ele>198.0</ele><time>2026-04-06T15:53:03Z</time></trkpt><trkpt lat="44.89619617953162" lon="9.056035073324495"><ele>198.0</ele><time>2026-04-06T15:53:04Z</time></trkpt><trkpt lat="44.89626744391665" lon="9.055933336689614"><ele>198.0</ele><time>2026-04-06T15:53:05Z</time></trkpt><trkpt lat="44.89634590731764" lon="9.055823328326335"><ele>198.0</ele><time>2026-04-06T15:53:06Z</time></trkpt><trkpt lat="44.89643111018691" lon="9.05570445730442"><ele>197.5</ele><time>2026-04-06T15:53:07Z</time></trkpt><trkpt lat="44.896526507083564" lon="9.05557440229699"><ele>197.0</ele><time>2026-04-06T15:53:08Z</time></trkpt><trkpt lat="44.89662371559515" lon="9.055446279267613"><ele>196.5</ele><time>2026-04-06T15:53:09Z</time></trkpt><trkpt lat="44.89672175416551" lon="9.05531888011279"><ele>196.0</ele><time>2026-04-06T15:53:10Z</time></trkpt><trkpt lat="44.89682252339709" lon="9.055187847097507"><ele>195.5</ele><time>2026-04-06T15:53:11Z</time></trkpt><trkpt lat="44.89692298812294" lon="9.055058163824718"><ele>195.0</ele><time>2026-04-06T15:53:12Z</time></trkpt><trkpt lat="44.89702631448235" lon="9.054927677679757"><ele>194.5</ele><time>2026-04-06T15:53:13Z</time></trkpt><trkpt lat="44.897125212137915" lon="9.054785250734849"><ele>194.0</ele><time>2026-04-06T15:53:14Z</time></trkpt><trkpt lat="44.89724272962315" lon="9.054673881965336"><ele>193.75</ele><time>2026-04-06T15:53:15Z</time></trkpt><trkpt lat="44.89737902004282" lon="9.054615313893605"><ele>193.5</ele><time>2026-04-06T15:53:16Z</time></trkpt><trkpt lat="44.897516524287575" lon="9.054533390965567"><ele>193.25</ele><time>2026-04-06T15:53:17Z</time></trkpt><trkpt lat="44.89764638849026" lon="9.054430687324516"><ele>193.0</ele><time>2026-04-06T15:53:18Z</time></trkpt><trkpt lat="44.897787868555206" lon="9.054343575499203"><ele>193.0</ele><time>2026-04-06T15:53:19Z</time></trkpt><trkpt lat="44.89793316388048" lon="9.05425592477158"><ele>193.0</ele><time>2026-04-06T15:53:20Z</time></trkpt><trkpt lat="44.89808253273024" lon="9.054166156101873"><ele>193.0</ele><time>2026-04-06T15:53:21Z</time></trkpt><trkpt lat="44.898220666567816" lon="9.054084204352167"><ele>192.0</ele><time>2026-04-06T15:53:22Z</time></trkpt><trkpt lat="44.89834753445847" lon="9.054007353271269"><ele>191.0</ele><time>2026-04-06T15:53:23Z</time></trkpt><trkpt lat="44.89847783323358" lon="9.053954850633815"><ele>190.0</ele><time>2026-04-06T15:53:24Z</time></trkpt><trkpt lat="44.898594381517704" lon="9.053884164444932"><ele>189.0</ele><time>2026-04-06T15:53:25Z</time></trkpt><trkpt lat="44.89870245673318" lon="9.053795092571088"><ele>189.0</ele><time>2026-04-06T15:53:26Z</time></trkpt><trkpt lat="44.89880984740842" lon="9.053732171683256"><ele>189.0</ele><time>2026-04-06T15:53:27Z</time></trkpt><trkpt lat="44.898915654359776" lon="9.053674121640888"><ele>189.0</ele><time>2026-04-06T15:53:28Z</time></trkpt><trkpt lat="44.899019034141915" lon="9.053605936273991"><ele>189.0</ele><time>2026-04-06T15:53:29Z</time></trkpt><trkpt lat="44.89911966628379" lon="9.053536973474387"><ele>189.0</ele><time>2026-04-06T15:53:30Z</time></trkpt><trkpt lat="44.899207376851564" lon="9.053453064900772"><ele>189.0</ele><time>2026-04-06T15:53:31Z</time></trkpt><trkpt lat="44.89928409523693" lon="9.053365916949584"><ele>189.0</ele><time>2026-04-06T15:53:32Z</time></trkpt><trkpt lat="44.89937277675828" lon="9.053285913041211"><ele>189.0</ele><time>2026-04-06T15:53:33Z</time></trkpt><trkpt lat="44.89949537673132" lon="9.053281912399468"><ele>189.0</ele><time>2026-04-06T15:53:34Z</time></trkpt><trkpt lat="44.89960558975462" lon="9.053213752687595"><ele>188.5</ele><time>2026-04-06T15:53:35Z</time></trkpt><trkpt lat="44.899718819319745" lon="9.05314257277168"><ele>188.0</ele><time>2026-04-06T15:53:36Z</time></trkpt><trkpt lat="44.899837370122576" lon="9.053081271049258"><ele>187.5</ele><time>2026-04-06T15:53:37Z</time></trkpt><trkpt lat="44.899956726656015" lon="9.053016380959141"><ele>187.0</ele><time>2026-04-06T15:53:38Z</time></trkpt><trkpt lat="44.90008743295137" lon="9.05298048893705"><ele>187.0</ele><time>2026-04-06T15:53:39Z</time></trkpt><trkpt lat="44.90022460909688" lon="9.052906740275244"><ele>187.0</ele><time>2026-04-06T15:53:40Z</time></trkpt><trkpt lat="44.90036767990075" lon="9.052796519325508"><ele>187.0</ele><time>2026-04-06T15:53:41Z</time></trkpt><trkpt lat="44.90053089255085" lon="9.052695401784517"><ele>187.0</ele><time>2026-04-06T15:53:42Z</time></trkpt><trkpt lat="44.90072978008202" lon="9.05256280271183"><ele>187.0</ele><time>2026-04-06T15:53:43Z</time></trkpt><trkpt lat="44.900959317218906" lon="9.052421034734563"><ele>187.5</ele><time>2026-04-06T15:53:44Z</time></trkpt><trkpt lat="44.90118080849361" lon="9.052333973052782"><ele>188.0</ele><time>2026-04-06T15:53:45Z</time></trkpt><trkpt lat="44.90140999074075" lon="9.052196197556686"><ele>188.0</ele><time>2026-04-06T15:53:46Z</time></trkpt><trkpt lat="44.90167345625649" lon="9.052037842723104"><ele>188.0</ele><time>2026-04-06T15:53:47Z</time></trkpt><trkpt lat="44.90191456395625" lon="9.051891166603424"><ele>187.0</ele><time>2026-04-06T15:53:48Z</time></trkpt><trkpt lat="44.902125312133386" lon="9.05173966300443"><ele>186.0</ele><time>2026-04-06T15:53:49Z</time></trkpt><trkpt lat="44.90233693354978" lon="9.051614185006123"><ele>186.0</ele><time>2026-04-06T15:53:50Z</time></trkpt><trkpt lat="44.90255811601866" lon="9.051472857451886"><ele>186.0</ele><time>2026-04-06T15:53:51Z</time></trkpt><trkpt lat="44.90280577583484" lon="9.051315607798953"><ele>187.5</ele><time>2026-04-06T15:53:52Z</time></trkpt><trkpt lat="44.90305258356084" lon="9.051166412483065"><ele>189.0</ele><time>2026-04-06T15:53:53Z</time></trkpt><trkpt lat="44.90327506641584" lon="9.051029430408791"><ele>188.33333333333334</ele><time>2026-04-06T15:53:54Z</time></trkpt><trkpt lat="44.90349052593094" lon="9.050947403684916"><ele>187.66666666666669</ele><time>2026-04-06T15:53:55Z</time></trkpt><trkpt lat="44.90367702942478" lon="9.050836198173847"><ele>187.0</ele><time>2026-04-06T15:53:56Z</time></trkpt><trkpt lat="44.90386905592762" lon="9.050721699458562"><ele>187.0</ele><time>2026-04-06T15:53:57Z</time></trkpt><trkpt lat="44.904068362461096" lon="9.05060260704753"><ele>187.0</ele><time>2026-04-06T15:53:58Z</time></trkpt><trkpt lat="44.90427120852849" lon="9.050481372816659"><ele>187.0</ele><time>2026-04-06T15:53:59Z</time></trkpt><trkpt lat="44.90448380950839" lon="9.050353403886405"><ele>188.5</ele><time>2026-04-06T15:54:00Z</time></trkpt><trkpt lat="44.904700364148" lon="9.050223851238856"><ele>190.0</ele><time>2026-04-06T15:54:01Z</time></trkpt><trkpt lat="44.904913935060684" lon="9.050097075427566"><ele>191.0</ele><time>2026-04-06T15:54:02Z</time></trkpt><trkpt lat="44.905121595064635" lon="9.049973808364546"><ele>192.0</ele><time>2026-04-06T15:54:03Z</time></trkpt><trkpt lat="44.90534682787636" lon="9.049840109997964"><ele>189.0</ele><time>2026-04-06T15:54:04Z</time></trkpt><trkpt lat="44.905591352099165" lon="9.049694960325828"><ele>186.0</ele><time>2026-04-06T15:54:05Z</time></trkpt><trkpt lat="44.90582480300361" lon="9.049539643344513"><ele>187.0</ele><time>2026-04-06T15:54:06Z</time></trkpt><trkpt lat="44.90602944384831" lon="9.04936556732355"><ele>188.0</ele><time>2026-04-06T15:54:07Z</time></trkpt><trkpt lat="44.906223523761355" lon="9.049189659805434"><ele>187.0</ele><time>2026-04-06T15:54:08Z</time></trkpt><trkpt lat="44.90641212124484" lon="9.048994678757962"><ele>186.0</ele><time>2026-04-06T15:54:09Z</time></trkpt><trkpt lat="44.906596629862115" lon="9.048799246568684"><ele>187.66666666666666</ele><time>2026-04-06T15:54:10Z</time></trkpt><trkpt lat="44.906770846430966" lon="9.048622762070483"><ele>189.33333333333331</ele><time>2026-04-06T15:54:11Z</time></trkpt><trkpt lat="44.906936176304434" lon="9.048457482083448"><ele>191.0</ele><time>2026-04-06T15:54:12Z</time></trkpt><trkpt lat="44.90709984566375" lon="9.048297547513613"><ele>191.33333333333331</ele><time>2026-04-06T15:54:13Z</time></trkpt><trkpt lat="44.90726559286877" lon="9.048136307863548"><ele>191.66666666666666</ele><time>2026-04-06T15:54:14Z</time></trkpt><trkpt lat="44.907431693239204" lon="9.04797607414814"><ele>192.0</ele><time>2026-04-06T15:54:15Z</time></trkpt><trkpt lat="44.90759436729499" lon="9.04781899930482"><ele>192.0</ele><time>2026-04-06T15:54:16Z</time></trkpt><trkpt lat="44.90774729699192" lon="9.047669375144787"><ele>192.0</ele><time>2026-04-06T15:54:17Z</time></trkpt><trkpt lat="44.90789320348992" lon="9.047521099875103"><ele>192.0</ele><time>2026-04-06T15:54:18Z</time></trkpt><trkpt lat="44.9080351315454" lon="9.047405079261821"><ele>191.33333333333334</ele><time>2026-04-06T15:54:19Z</time></trkpt><trkpt lat="44.90817690234535" lon="9.04726587157571"><ele>190.66666666666669</ele><time>2026-04-06T15:54:20Z</time></trkpt><trkpt lat="44.90831921139621" lon="9.047126135368512"><ele>190.0</ele><time>2026-04-06T15:54:21Z</time></trkpt><trkpt lat="44.908470797937426" lon="9.046977705838014"><ele>190.0</ele><time>2026-04-06T15:54:22Z</time></trkpt><trkpt lat="44.90862746665734" lon="9.046824893997645"><ele>190.0</ele><time>2026-04-06T15:54:23Z</time></trkpt><trkpt lat="44.908790601229825" lon="9.0466653421306"><ele>190.0</ele><time>2026-04-06T15:54:24Z</time></trkpt><trkpt lat="44.90895758708459" lon="9.046500060742563"><ele>190.0</ele><time>2026-04-06T15:54:25Z</time></trkpt><trkpt lat="44.90912532407776" lon="9.046334527991506"><ele>190.0</ele><time>2026-04-06T15:54:26Z</time></trkpt><trkpt lat="44.909288159447" lon="9.046177010783623"><ele>190.0</ele><time>2026-04-06T15:54:27Z</time></trkpt><trkpt lat="44.90944582312741" lon="9.046024496362943"><ele>190.0</ele><time>2026-04-06T15:54:28Z</time></trkpt><trkpt lat="44.90959650398784" lon="9.045877609040396"><ele>190.0</ele><time>2026-04-06T15:54:29Z</time></trkpt><trkpt lat="44.909741632224545" lon="9.045734796774596"><ele>190.0</ele><time>2026-04-06T15:54:30Z</time></trkpt><trkpt lat="44.909886107226235" lon="9.045592627327972"><ele>189.66666666666669</ele><time>2026-04-06T15:54:31Z</time></trkpt><trkpt lat="44.91002897462243" lon="9.045452039817832"><ele>189.33333333333334</ele><time>2026-04-06T15:54:32Z</time></trkpt><trkpt lat="44.91016982720401" lon="9.045313434972378"><ele>189.0</ele><time>2026-04-06T15:54:33Z</time></trkpt><trkpt lat="44.91030203014056" lon="9.045183341706213"><ele>190.0</ele><time>2026-04-06T15:54:34Z</time></trkpt><trkpt lat="44.910435101806705" lon="9.045052392795215"><ele>191.0</ele><time>2026-04-06T15:54:35Z</time></trkpt><trkpt lat="44.910575374871776" lon="9.04491435646115"><ele>192.0</ele><time>2026-04-06T15:54:36Z</time></trkpt><trkpt lat="44.910737514202914" lon="9.04475480253197"><ele>192.0</ele><time>2026-04-06T15:54:37Z</time></trkpt><trkpt lat="44.91090435070043" lon="9.044539346262049"><ele>192.0</ele><time>2026-04-06T15:54:38Z</time></trkpt><trkpt lat="44.91111078030772" lon="9.04434401229478"><ele>192.0</ele><time>2026-04-06T15:54:39Z</time></trkpt><trkpt lat="44.9113144314573" lon="9.044150308607911"><ele>192.0</ele><time>2026-04-06T15:54:40Z</time></trkpt><trkpt lat="44.91151721238266" lon="9.043949408240104"><ele>190.5</ele><time>2026-04-06T15:54:41Z</time></trkpt><trkpt lat="44.91171238820724" lon="9.043756976555173"><ele>189.0</ele><time>2026-04-06T15:54:42Z</time></trkpt><trkpt lat="44.9119136202488" lon="9.043558073225467"><ele>189.0</ele><time>2026-04-06T15:54:43Z</time></trkpt><trkpt lat="44.912118616809806" lon="9.043360140320463"><ele>189.0</ele><time>2026-04-06T15:54:44Z</time></trkpt><trkpt lat="44.91232069327938" lon="9.04316600221828"><ele>187.5</ele><time>2026-04-06T15:54:45Z</time></trkpt><trkpt lat="44.91252006684028" lon="9.042974715791924"><ele>186.0</ele><time>2026-04-06T15:54:46Z</time></trkpt><trkpt lat="44.91272092762429" lon="9.042777876399335"><ele>186.0</ele><time>2026-04-06T15:54:47Z</time></trkpt><trkpt lat="44.91294208311483" lon="9.04255925902592"><ele>186.0</ele><time>2026-04-06T15:54:48Z</time></trkpt><trkpt lat="44.91317582948833" lon="9.042328750449633"><ele>186.5</ele><time>2026-04-06T15:54:49Z</time></trkpt><trkpt lat="44.91340849529608" lon="9.042110119139183"><ele>187.0</ele><time>2026-04-06T15:54:50Z</time></trkpt><trkpt lat="44.91362530487295" lon="9.04190183564231"><ele>187.0</ele><time>2026-04-06T15:54:51Z</time></trkpt><trkpt lat="44.91382731619963" lon="9.041703409341732"><ele>187.0</ele><time>2026-04-06T15:54:52Z</time></trkpt><trkpt lat="44.914018783906094" lon="9.041515584559445"><ele>186.0</ele><time>2026-04-06T15:54:53Z</time></trkpt><trkpt lat="44.91420523001229" lon="9.041332921872696"><ele>185.0</ele><time>2026-04-06T15:54:54Z</time></trkpt><trkpt lat="44.91439600670221" lon="9.041143757876881"><ele>183.5</ele><time>2026-04-06T15:54:55Z</time></trkpt><trkpt lat="44.914583664595575" lon="9.040957717212006"><ele>182.0</ele><time>2026-04-06T15:54:56Z</time></trkpt><trkpt lat="44.914775005698296" lon="9.040764329343482"><ele>182.0</ele><time>2026-04-06T15:54:57Z</time></trkpt><trkpt lat="44.91499462445291" lon="9.04054276650773"><ele>182.0</ele><time>2026-04-06T15:54:58Z</time></trkpt><trkpt lat="44.91522406656804" lon="9.04032459746108"><ele>182.0</ele><time>2026-04-06T15:54:59Z</time></trkpt><trkpt lat="44.91543352310617" lon="9.040133338771168"><ele>182.0</ele><time>2026-04-06T15:55:00Z</time></trkpt><trkpt lat="44.91563675960994" lon="9.039972692371679"><ele>181.66666666666666</ele><time>2026-04-06T15:55:01Z</time></trkpt><trkpt lat="44.91581826929067" lon="9.039795629665734"><ele>181.33333333333334</ele><time>2026-04-06T15:55:02Z</time></trkpt><trkpt lat="44.91598964081535" lon="9.03962827034809"><ele>181.0</ele><time>2026-04-06T15:55:03Z</time></trkpt><trkpt lat="44.916154251462565" lon="9.039466054185617"><ele>181.0</ele><time>2026-04-06T15:55:04Z</time></trkpt><trkpt lat="44.916312305327324" lon="9.039310299430232"><ele>181.0</ele><time>2026-04-06T15:55:05Z</time></trkpt><trkpt lat="44.91648883332244" lon="9.039136779606967"><ele>181.0</ele><time>2026-04-06T15:55:06Z</time></trkpt><trkpt lat="44.91665337260486" lon="9.03897527895142"><ele>182.33333333333334</ele><time>2026-04-06T15:55:07Z</time></trkpt><trkpt lat="44.91681880436685" lon="9.038812902297645"><ele>183.66666666666666</ele><time>2026-04-06T15:55:08Z</time></trkpt><trkpt lat="44.91698142512723" lon="9.038653284733295"><ele>185.0</ele><time>2026-04-06T15:55:09Z</time></trkpt><trkpt lat="44.91713565567474" lon="9.0385007605566"><ele>185.0</ele><time>2026-04-06T15:55:10Z</time></trkpt><trkpt lat="44.917278925572795" lon="9.038353549392353"><ele>185.0</ele><time>2026-04-06T15:55:11Z</time></trkpt><trkpt lat="44.91739331087563" lon="9.038204937086137"><ele>185.0</ele><time>2026-04-06T15:55:12Z</time></trkpt><trkpt lat="44.91750334392203" lon="9.038091656195698"><ele>184.66666666666666</ele><time>2026-04-06T15:55:13Z</time></trkpt><trkpt lat="44.91756582513917" lon="9.037964381516987"><ele>184.33333333333331</ele><time>2026-04-06T15:55:14Z</time></trkpt><trkpt lat="44.91760791451947" lon="9.03788623753439"><ele>184.0</ele><time>2026-04-06T15:55:15Z</time></trkpt><trkpt lat="44.9176525000706" lon="9.037809487345546"><ele>183.66666666666666</ele><time>2026-04-06T15:55:17Z</time></trkpt><trkpt lat="44.917696995975106" lon="9.037709440758551"><ele>183.33333333333334</ele><time>2026-04-06T15:55:20Z</time></trkpt><trkpt lat="44.917737263177884" lon="9.037623548043216"><ele>183.0</ele><time>2026-04-06T15:55:23Z</time></trkpt><trkpt lat="44.917819316295216" lon="9.037444932991377"><ele>183.0</ele><time>2026-04-06T15:55:25Z</time></trkpt><trkpt lat="44.917873200526934" lon="9.037322936954212"><ele>183.0</ele><time>2026-04-06T15:55:26Z</time></trkpt><trkpt lat="44.917934416932" lon="9.037191915567323"><ele>183.0</ele><time>2026-04-06T15:55:27Z</time></trkpt><trkpt lat="44.9180098801052" lon="9.037022351913725"><ele>183.0</ele><time>2026-04-06T15:55:28Z</time></trkpt><trkpt lat="44.91810541744049" lon="9.036830587123411"><ele>183.0</ele><time>2026-04-06T15:55:29Z</time></trkpt><trkpt lat="44.918191138536486" lon="9.036640624852392"><ele>183.0</ele><time>2026-04-06T15:55:30Z</time></trkpt><trkpt lat="44.91829301661101" lon="9.036413241080394"><ele>183.0</ele><time>2026-04-06T15:55:31Z</time></trkpt><trkpt lat="44.918400020380204" lon="9.03617061236771"><ele>184.33333333333334</ele><time>2026-04-06T15:55:32Z</time></trkpt><trkpt lat="44.91851117149989" lon="9.035918268118056"><ele>185.66666666666669</ele><time>2026-04-06T15:55:33Z</time></trkpt><trkpt lat="44.91862795822204" lon="9.03565663737589"><ele>187.0</ele><time>2026-04-06T15:55:34Z</time></trkpt><trkpt lat="44.91873612699045" lon="9.03541648814305"><ele>184.33333333333334</ele><time>2026-04-06T15:55:35Z</time></trkpt><trkpt lat="44.91883458463966" lon="9.035197898905107"><ele>181.66666666666666</ele><time>2026-04-06T15:55:36Z</time></trkpt><trkpt lat="44.91893108032205" lon="9.034981412082802"><ele>179.0</ele><time>2026-04-06T15:55:37Z</time></trkpt><trkpt lat="44.91902942001172" lon="9.034758051871869"><ele>179.0</ele><time>2026-04-06T15:55:38Z</time></trkpt><trkpt lat="44.919131307965365" lon="9.034525360628102"><ele>179.0</ele><time>2026-04-06T15:55:39Z</time></trkpt><trkpt lat="44.91923770147795" lon="9.034285669439916"><ele>179.0</ele><time>2026-04-06T15:55:40Z</time></trkpt><trkpt lat="44.91934862936055" lon="9.034040571648545"><ele>177.0</ele><time>2026-04-06T15:55:41Z</time></trkpt><trkpt lat="44.91945787731602" lon="9.033798625595344"><ele>175.0</ele><time>2026-04-06T15:55:42Z</time></trkpt><trkpt lat="44.919536170721265" lon="9.033625061166703"><ele>173.0</ele><time>2026-04-06T15:55:43Z</time></trkpt><trkpt lat="44.919591020629156" lon="9.033499420014554"><ele>173.0</ele><time>2026-04-06T15:55:44Z</time></trkpt><trkpt lat="44.919629841287936" lon="9.033366434668354"><ele>173.0</ele><time>2026-04-06T15:55:45Z</time></trkpt><trkpt lat="44.91968404897586" lon="9.033265138117217"><ele>173.0</ele><time>2026-04-06T15:55:46Z</time></trkpt><trkpt lat="44.919730377463026" lon="9.03315707375959"><ele>173.0</ele><time>2026-04-06T15:55:47Z</time></trkpt><trkpt lat="44.91977764408363" lon="9.033043933080531"><ele>173.0</ele><time>2026-04-06T15:55:48Z</time></trkpt><trkpt lat="44.91983876697088" lon="9.03289506676838"><ele>172.25</ele><time>2026-04-06T15:55:49Z</time></trkpt><trkpt lat="44.9199277243595" lon="9.032742467855769"><ele>171.5</ele><time>2026-04-06T15:55:50Z</time></trkpt><trkpt lat="44.9200086006134" lon="9.032576174251494"><ele>170.75</ele><time>2026-04-06T15:55:51Z</time></trkpt><trkpt lat="44.9200880229308" lon="9.032418124271933"><ele>170.0</ele><time>2026-04-06T15:55:52Z</time></trkpt><trkpt lat="44.92015762359624" lon="9.032284709482632"><ele>169.8</ele><time>2026-04-06T15:55:53Z</time></trkpt><trkpt lat="44.92020317222615" lon="9.032164007297533"><ele>169.6</ele><time>2026-04-06T15:55:54Z</time></trkpt><trkpt lat="44.92025710579972" lon="9.032080202267888"><ele>169.39999999999998</ele><time>2026-04-06T15:55:55Z</time></trkpt><trkpt lat="44.92033900997648" lon="9.031963561064389"><ele>169.2</ele><time>2026-04-06T15:55:57Z</time></trkpt><trkpt lat="44.92041223264351" lon="9.031852891730747"><ele>169.0</ele><time>2026-04-06T15:55:59Z</time></trkpt><trkpt lat="44.920475035360035" lon="9.031749864650276"><ele>169.0</ele><time>2026-04-06T15:56:01Z</time></trkpt><trkpt lat="44.92051024159424" lon="9.031674224575422"><ele>169.0</ele><time>2026-04-06T15:56:04Z</time></trkpt><trkpt lat="44.92057228982403" lon="9.031589190487779"><ele>169.0</ele><time>2026-04-06T15:56:14Z</time></trkpt><trkpt lat="44.92065354329247" lon="9.031500726224875"><ele>169.0</ele><time>2026-04-06T15:56:16Z</time></trkpt><trkpt lat="44.92074231247082" lon="9.031427838348495"><ele>169.0</ele><time>2026-04-06T15:56:18Z</time></trkpt><trkpt lat="44.92080436726099" lon="9.031287592069907"><ele>168.5</ele><time>2026-04-06T15:56:20Z</time></trkpt><trkpt lat="44.92087193281079" lon="9.031190887053675"><ele>168.0</ele><time>2026-04-06T15:56:21Z</time></trkpt><trkpt lat="44.92098052484217" lon="9.03108363299209"><ele>167.5</ele><time>2026-04-06T15:56:22Z</time></trkpt><trkpt lat="44.92108919394392" lon="9.030977384142926"><ele>167.0</ele><time>2026-04-06T15:56:23Z</time></trkpt><trkpt lat="44.92121146752" lon="9.030850959370921"><ele>165.66666666666666</ele><time>2026-04-06T15:56:24Z</time></trkpt><trkpt lat="44.921341998133435" lon="9.030693659812297"><ele>164.33333333333334</ele><time>2026-04-06T15:56:25Z</time></trkpt><trkpt lat="44.92149382985478" lon="9.030565548038926"><ele>163.0</ele><time>2026-04-06T15:56:26Z</time></trkpt><trkpt lat="44.92164028064506" lon="9.03039784388832"><ele>163.0</ele><time>2026-04-06T15:56:27Z</time></trkpt><trkpt lat="44.92179090888972" lon="9.030214250091655"><ele>163.0</ele><time>2026-04-06T15:56:28Z</time></trkpt><trkpt lat="44.92194710854128" lon="9.030021765975853"><ele>163.0</ele><time>2026-04-06T15:56:29Z</time></trkpt><trkpt lat="44.92210522349845" lon="9.02982687259046"><ele>163.0</ele><time>2026-04-06T15:56:30Z</time></trkpt><trkpt lat="44.92226158132016" lon="9.029634081880973"><ele>163.0</ele><time>2026-04-06T15:56:31Z</time></trkpt><trkpt lat="44.92240861332212" lon="9.029452659833748"><ele>163.0</ele><time>2026-04-06T15:56:32Z</time></trkpt><trkpt lat="44.922542281771335" lon="9.029287435359198"><ele>162.66666666666669</ele><time>2026-04-06T15:56:33Z</time></trkpt><trkpt lat="44.92266901350385" lon="9.029130785187478"><ele>162.33333333333334</ele><time>2026-04-06T15:56:34Z</time></trkpt><trkpt lat="44.92280234749617" lon="9.028965974128802"><ele>162.0</ele><time>2026-04-06T15:56:35Z</time></trkpt><trkpt lat="44.92294382059544" lon="9.028791102503552"><ele>162.0</ele><time>2026-04-06T15:56:36Z</time></trkpt><trkpt lat="44.92307097960285" lon="9.02863461855101"><ele>162.0</ele><time>2026-04-06T15:56:37Z</time></trkpt><trkpt lat="44.92316704317192" lon="9.02851657058938"><ele>162.0</ele><time>2026-04-06T15:56:38Z</time></trkpt><trkpt lat="44.923232581712334" lon="9.028436033387923"><ele>162.0</ele><time>2026-04-06T15:56:39Z</time></trkpt><trkpt lat="44.92329824030791" lon="9.028355348653765"><ele>161.4</ele><time>2026-04-06T15:56:41Z</time></trkpt><trkpt lat="44.9233687627924" lon="9.028268686916826"><ele>160.79999999999998</ele><time>2026-04-06T15:56:44Z</time></trkpt><trkpt lat="44.92346563345366" lon="9.028149647160003"><ele>160.2</ele><time>2026-04-06T15:56:46Z</time></trkpt><trkpt lat="44.92353992038632" lon="9.028058359472837"><ele>159.6</ele><time>2026-04-06T15:56:47Z</time></trkpt><trkpt lat="44.92363029622248" lon="9.027947300899989"><ele>159.0</ele><time>2026-04-06T15:56:48Z</time></trkpt><trkpt lat="44.923725081361184" lon="9.027830823939102"><ele>159.0</ele><time>2026-04-06T15:56:49Z</time></trkpt><trkpt lat="44.92381860226335" lon="9.027715677147924"><ele>159.0</ele><time>2026-04-06T15:56:50Z</time></trkpt><trkpt lat="44.923905157956106" lon="9.027608996727468"><ele>159.0</ele><time>2026-04-06T15:56:51Z</time></trkpt><trkpt lat="44.92397071718371" lon="9.027528194572918"><ele>159.0</ele><time>2026-04-06T15:56:52Z</time></trkpt><trkpt lat="44.924021334142" lon="9.027465808860821"><ele>159.0</ele><time>2026-04-06T15:56:53Z</time></trkpt><trkpt lat="44.92411415431745" lon="9.02735140742253"><ele>158.8</ele><time>2026-04-06T15:56:55Z</time></trkpt><trkpt lat="44.924167291861494" lon="9.027285915077313"><ele>158.60000000000002</ele><time>2026-04-06T15:56:56Z</time></trkpt><trkpt lat="44.92422529958092" lon="9.0272144202482"><ele>158.4</ele><time>2026-04-06T15:56:57Z</time></trkpt><trkpt lat="44.92430369448985" lon="9.027117273342014"><ele>158.20000000000002</ele><time>2026-04-06T15:56:58Z</time></trkpt><trkpt lat="44.92439767611027" lon="9.027000941916905"><ele>158.0</ele><time>2026-04-06T15:56:59Z</time></trkpt><trkpt lat="44.92449124339052" lon="9.026885123373658"><ele>158.0</ele><time>2026-04-06T15:57:00Z</time></trkpt><trkpt lat="44.9245970137434" lon="9.026754199731938"><ele>158.0</ele><time>2026-04-06T15:57:01Z</time></trkpt><trkpt lat="44.924711770454785" lon="9.026612152687601"><ele>158.0</ele><time>2026-04-06T15:57:02Z</time></trkpt><trkpt lat="44.924834369695226" lon="9.02646039986634"><ele>158.0</ele><time>2026-04-06T15:57:03Z</time></trkpt><trkpt lat="44.92495435967863" lon="9.02631387413439"><ele>158.0</ele><time>2026-04-06T15:57:04Z</time></trkpt><trkpt lat="44.92507918345468" lon="9.026159824543724"><ele>158.0</ele><time>2026-04-06T15:57:05Z</time></trkpt><trkpt lat="44.92519376644306" lon="9.025962947151939"><ele>157.66666666666666</ele><time>2026-04-06T15:57:06Z</time></trkpt><trkpt lat="44.92533879501127" lon="9.02578528716734"><ele>157.33333333333334</ele><time>2026-04-06T15:57:07Z</time></trkpt><trkpt lat="44.9254834122517" lon="9.025604434342561"><ele>157.0</ele><time>2026-04-06T15:57:08Z</time></trkpt><trkpt lat="44.925624770310776" lon="9.025431631513124"><ele>157.0</ele><time>2026-04-06T15:57:09Z</time></trkpt><trkpt lat="44.925770673001836" lon="9.025306738329995"><ele>157.0</ele><time>2026-04-06T15:57:10Z</time></trkpt><trkpt lat="44.92588942752846" lon="9.02515942112335"><ele>157.0</ele><time>2026-04-06T15:57:11Z</time></trkpt><trkpt lat="44.926011535257395" lon="9.025008802010438"><ele>157.0</ele><time>2026-04-06T15:57:12Z</time></trkpt><trkpt lat="44.92613441534031" lon="9.024857720413841"><ele>157.0</ele><time>2026-04-06T15:57:13Z</time></trkpt><trkpt lat="44.92624515063882" lon="9.024721570888333"><ele>157.0</ele><time>2026-04-06T15:57:14Z</time></trkpt><trkpt lat="44.92632963291042" lon="9.024617699549008"><ele>157.0</ele><time>2026-04-06T15:57:15Z</time></trkpt><trkpt lat="44.926408598591095" lon="9.024520610908727"><ele>157.0</ele><time>2026-04-06T15:57:16Z</time></trkpt><trkpt lat="44.92648670211094" lon="9.02442458228855"><ele>157.0</ele><time>2026-04-06T15:57:17Z</time></trkpt><trkpt lat="44.92657049813338" lon="9.024321554708088"><ele>157.0</ele><time>2026-04-06T15:57:18Z</time></trkpt><trkpt lat="44.92666033962641" lon="9.024211094212783"><ele>157.0</ele><time>2026-04-06T15:57:19Z</time></trkpt><trkpt lat="44.92673714368465" lon="9.024116663305232"><ele>157.0</ele><time>2026-04-06T15:57:20Z</time></trkpt><trkpt lat="44.92678781966818" lon="9.02405435651604"><ele>156.83333333333334</ele><time>2026-04-06T15:57:21Z</time></trkpt><trkpt lat="44.92686204566435" lon="9.023963063593907"><ele>156.66666666666669</ele><time>2026-04-06T15:57:23Z</time></trkpt><trkpt lat="44.926936460614044" lon="9.023871538262707"><ele>156.5</ele><time>2026-04-06T15:57:25Z</time></trkpt><trkpt lat="44.92698967666156" lon="9.02380608617424"><ele>156.33333333333334</ele><time>2026-04-06T15:57:27Z</time></trkpt><trkpt lat="44.927050791649044" lon="9.023730918869006"><ele>156.16666666666666</ele><time>2026-04-06T15:57:29Z</time></trkpt><trkpt lat="44.927109481482745" lon="9.023658734391647"><ele>156.0</ele><time>2026-04-06T15:57:30Z</time></trkpt><trkpt lat="44.92718232861858" lon="9.023569025755046"><ele>156.0</ele><time>2026-04-06T15:57:31Z</time></trkpt><trkpt lat="44.92726099321047" lon="9.023471959713175"><ele>156.0</ele><time>2026-04-06T15:57:32Z</time></trkpt><trkpt lat="44.92735520647553" lon="9.023355707846674"><ele>156.0</ele><time>2026-04-06T15:57:33Z</time></trkpt><trkpt lat="44.927461396023595" lon="9.023224678137158"><ele>156.0</ele><time>2026-04-06T15:57:34Z</time></trkpt><trkpt lat="44.92756864746257" lon="9.023092338155527"><ele>155.66666666666666</ele><time>2026-04-06T15:57:35Z</time></trkpt><trkpt lat="44.927687308797445" lon="9.022945919224535"><ele>155.33333333333331</ele><time>2026-04-06T15:57:36Z</time></trkpt><trkpt lat="44.927818533103306" lon="9.02278408377101"><ele>155.0</ele><time>2026-04-06T15:57:37Z</time></trkpt><trkpt lat="44.92794759118566" lon="9.022625274490169"><ele>155.0</ele><time>2026-04-06T15:57:38Z</time></trkpt><trkpt lat="44.928087283421334" lon="9.022453379589694"><ele>155.0</ele><time>2026-04-06T15:57:39Z</time></trkpt><trkpt lat="44.92822211488974" lon="9.022287466014788"><ele>155.0</ele><time>2026-04-06T15:57:40Z</time></trkpt><trkpt lat="44.92834759152736" lon="9.022133063797554"><ele>155.25</ele><time>2026-04-06T15:57:41Z</time></trkpt><trkpt lat="44.92845816133566" lon="9.021997004814295"><ele>155.5</ele><time>2026-04-06T15:57:42Z</time></trkpt><trkpt lat="44.92856069115484" lon="9.02187083925532"><ele>155.75</ele><time>2026-04-06T15:57:43Z</time></trkpt><trkpt lat="44.92865833467783" lon="9.021750686392764"><ele>156.0</ele><time>2026-04-06T15:57:44Z</time></trkpt><trkpt lat="44.92874224249438" lon="9.021647435658776"><ele>155.6</ele><time>2026-04-06T15:57:45Z</time></trkpt><trkpt lat="44.928812098431365" lon="9.021561476143335"><ele>155.2</ele><time>2026-04-06T15:57:46Z</time></trkpt><trkpt lat="44.92886865344564" lon="9.021491883781458"><ele>154.8</ele><time>2026-04-06T15:57:47Z</time></trkpt><trkpt lat="44.928919122522565" lon="9.021429780435492"><ele>154.4</ele><time>2026-04-06T15:57:48Z</time></trkpt><trkpt lat="44.928993063364494" lon="9.021339123374007"><ele>154.0</ele><time>2026-04-06T15:57:50Z</time></trkpt><trkpt lat="44.92909109943836" lon="9.021218829672666"><ele>154.0</ele><time>2026-04-06T15:57:52Z</time></trkpt><trkpt lat="44.92915331617687" lon="9.021142487539846"><ele>154.0</ele><time>2026-04-06T15:57:53Z</time></trkpt><trkpt lat="44.92923323638775" lon="9.021044938802172"><ele>154.0</ele><time>2026-04-06T15:57:54Z</time></trkpt><trkpt lat="44.9293256805712" lon="9.020932100209535"><ele>154.0</ele><time>2026-04-06T15:57:55Z</time></trkpt><trkpt lat="44.9294236844528" lon="9.020811042285045"><ele>154.0</ele><time>2026-04-06T15:57:56Z</time></trkpt><trkpt lat="44.92950607692519" lon="9.020707264690632"><ele>153.66666666666669</ele><time>2026-04-06T15:57:57Z</time></trkpt><trkpt lat="44.929581054800266" lon="9.020614084042133"><ele>153.33333333333334</ele><time>2026-04-06T15:57:58Z</time></trkpt><trkpt lat="44.929639126998346" lon="9.020544091458678"><ele>153.0</ele><time>2026-04-06T15:57:59Z</time></trkpt><trkpt lat="44.92971388280785" lon="9.020436547709282"><ele>152.66666666666666</ele><time>2026-04-06T15:58:01Z</time></trkpt><trkpt lat="44.92978093744088" lon="9.02036572643415"><ele>152.33333333333331</ele><time>2026-04-06T15:58:03Z</time></trkpt><trkpt lat="44.929834621042204" lon="9.02031223044483"><ele>152.0</ele><time>2026-04-06T15:58:05Z</time></trkpt><trkpt lat="44.92990257945148" lon="9.020293347405243"><ele>152.0</ele><time>2026-04-06T15:58:12Z</time></trkpt><trkpt lat="44.93003058882701" lon="9.02029129130687"><ele>152.0</ele><time>2026-04-06T15:58:14Z</time></trkpt><trkpt lat="44.93009553592992" lon="9.020285605668583"><ele>152.0</ele><time>2026-04-06T15:58:15Z</time></trkpt><trkpt lat="44.93016918572117" lon="9.02028740661858"><ele>152.0</ele><time>2026-04-06T15:58:16Z</time></trkpt><trkpt lat="44.9302470366596" lon="9.020304817509897"><ele>152.0</ele><time>2026-04-06T15:58:17Z</time></trkpt><trkpt lat="44.930324173739116" lon="9.020362085530842"><ele>152.0</ele><time>2026-04-06T15:58:18Z</time></trkpt><trkpt lat="44.930409754654114" lon="9.020431513604903"><ele>151.6</ele><time>2026-04-06T15:58:19Z</time></trkpt><trkpt lat="44.930489928028855" lon="9.020491295777232"><ele>151.2</ele><time>2026-04-06T15:58:20Z</time></trkpt><trkpt lat="44.930591787091416" lon="9.02054185951866"><ele>150.8</ele><time>2026-04-06T15:58:21Z</time></trkpt><trkpt lat="44.93071089739922" lon="9.020600851502328"><ele>150.4</ele><time>2026-04-06T15:58:22Z</time></trkpt><trkpt lat="44.93082007317976" lon="9.020645073451062"><ele>150.0</ele><time>2026-04-06T15:58:23Z</time></trkpt><trkpt lat="44.93094062676201" lon="9.020682589340824"><ele>149.5</ele><time>2026-04-06T15:58:24Z</time></trkpt><trkpt lat="44.931058396917344" lon="9.020750669389507"><ele>149.0</ele><time>2026-04-06T15:58:25Z</time></trkpt><trkpt lat="44.93117529885715" lon="9.02079102023127"><ele>148.5</ele><time>2026-04-06T15:58:26Z</time></trkpt><trkpt lat="44.931291951209104" lon="9.020832899307216"><ele>148.0</ele><time>2026-04-06T15:58:27Z</time></trkpt><trkpt lat="44.93140883955173" lon="9.02087373251805"><ele>148.0</ele><time>2026-04-06T15:58:28Z</time></trkpt><trkpt lat="44.93153067374084" lon="9.020918265590925"><ele>148.0</ele><time>2026-04-06T15:58:29Z</time></trkpt><trkpt lat="44.931653447304264" lon="9.020971455872532"><ele>148.0</ele><time>2026-04-06T15:58:30Z</time></trkpt><trkpt lat="44.93177917029263" lon="9.021022083226896"><ele>148.0</ele><time>2026-04-06T15:58:31Z</time></trkpt><trkpt lat="44.93191702001366" lon="9.021073467462795"><ele>148.25</ele><time>2026-04-06T15:58:32Z</time></trkpt><trkpt lat="44.93205528292804" lon="9.021125429059664"><ele>148.5</ele><time>2026-04-06T15:58:33Z</time></trkpt><trkpt lat="44.932192741811065" lon="9.021175071442013"><ele>148.75</ele><time>2026-04-06T15:58:34Z</time></trkpt><trkpt lat="44.93233345439998" lon="9.02123024172479"><ele>149.0</ele><time>2026-04-06T15:58:35Z</time></trkpt><trkpt lat="44.932479506270745" lon="9.021291117499558"><ele>148.25</ele><time>2026-04-06T15:58:36Z</time></trkpt><trkpt lat="44.93262561888859" lon="9.021346104372766"><ele>147.5</ele><time>2026-04-06T15:58:37Z</time></trkpt><trkpt lat="44.932767749196316" lon="9.021402068275236"><ele>146.75</ele><time>2026-04-06T15:58:38Z</time></trkpt><trkpt lat="44.93290738976031" lon="9.021458880039194"><ele>146.0</ele><time>2026-04-06T15:58:39Z</time></trkpt><trkpt lat="44.933056017577066" lon="9.021514569892242"><ele>146.0</ele><time>2026-04-06T15:58:40Z</time></trkpt><trkpt lat="44.933211000673836" lon="9.021575865026625"><ele>146.0</ele><time>2026-04-06T15:58:41Z</time></trkpt><trkpt lat="44.93337248787023" lon="9.021634613197248"><ele>146.0</ele><time>2026-04-06T15:58:42Z</time></trkpt><trkpt lat="44.93353124518953" lon="9.02169820190499"><ele>147.0</ele><time>2026-04-06T15:58:43Z</time></trkpt><trkpt lat="44.933676738286515" lon="9.021754255310572"><ele>148.0</ele><time>2026-04-06T15:58:44Z</time></trkpt><trkpt lat="44.933813768684715" lon="9.021800992144044"><ele>149.0</ele><time>2026-04-06T15:58:45Z</time></trkpt><trkpt lat="44.933939286649846" lon="9.021844945319602"><ele>150.0</ele><time>2026-04-06T15:58:46Z</time></trkpt><trkpt lat="44.93406660596338" lon="9.021892197961094"><ele>150.0</ele><time>2026-04-06T15:58:47Z</time></trkpt><trkpt lat="44.93419875172856" lon="9.021960869077153"><ele>150.0</ele><time>2026-04-06T15:58:48Z</time></trkpt><trkpt lat="44.93436704581956" lon="9.022007702895518"><ele>150.0</ele><time>2026-04-06T15:58:49Z</time></trkpt><trkpt lat="44.93456410229372" lon="9.02205545059857"><ele>148.5</ele><time>2026-04-06T15:58:50Z</time></trkpt><trkpt lat="44.9347921886639" lon="9.022105155828108"><ele>147.0</ele><time>2026-04-06T15:58:51Z</time></trkpt><trkpt lat="44.93504463794813" lon="9.022158621117558"><ele>146.0</ele><time>2026-04-06T15:58:52Z</time></trkpt><trkpt lat="44.9352941326007" lon="9.022211871387265"><ele>145.0</ele><time>2026-04-06T15:58:53Z</time></trkpt><trkpt lat="44.9355397864732" lon="9.022264197637668"><ele>145.0</ele><time>2026-04-06T15:58:54Z</time></trkpt><trkpt lat="44.9357694420857" lon="9.022313116164575"><ele>145.0</ele><time>2026-04-06T15:58:55Z</time></trkpt><trkpt lat="44.93598813964092" lon="9.022359931174456"><ele>143.0</ele><time>2026-04-06T15:58:56Z</time></trkpt><trkpt lat="44.93618835942272" lon="9.022383379756329"><ele>141.0</ele><time>2026-04-06T15:58:57Z</time></trkpt><trkpt lat="44.93637160549128" lon="9.022421458949866"><ele>139.0</ele><time>2026-04-06T15:58:58Z</time></trkpt><trkpt lat="44.93654280444336" lon="9.022456113100898"><ele>140.33333333333334</ele><time>2026-04-06T15:58:59Z</time></trkpt><trkpt lat="44.93670652749512" lon="9.022494432535552"><ele>141.66666666666666</ele><time>2026-04-06T15:59:00Z</time></trkpt><trkpt lat="44.936862429609036" lon="9.022529054144583"><ele>143.0</ele><time>2026-04-06T15:59:01Z</time></trkpt><trkpt lat="44.93701200120641" lon="9.022569325027503"><ele>143.0</ele><time>2026-04-06T15:59:02Z</time></trkpt><trkpt lat="44.937160961116085" lon="9.022615079582474"><ele>143.0</ele><time>2026-04-06T15:59:03Z</time></trkpt><trkpt lat="44.93730344749367" lon="9.022713527099803"><ele>143.0</ele><time>2026-04-06T15:59:04Z</time></trkpt><trkpt lat="44.9374460340255" lon="9.022809919777602"><ele>142.0</ele><time>2026-04-06T15:59:05Z</time></trkpt><trkpt lat="44.937587780473315" lon="9.022921596248555"><ele>141.0</ele><time>2026-04-06T15:59:06Z</time></trkpt><trkpt lat="44.937732933176285" lon="9.02303401610935"><ele>140.0</ele><time>2026-04-06T15:59:07Z</time></trkpt><trkpt lat="44.937868577966526" lon="9.023140436864734"><ele>140.0</ele><time>2026-04-06T15:59:08Z</time></trkpt><trkpt lat="44.93799799328201" lon="9.023241970216425"><ele>140.0</ele><time>2026-04-06T15:59:09Z</time></trkpt><trkpt lat="44.93812353280543" lon="9.023340462826413"><ele>140.0</ele><time>2026-04-06T15:59:10Z</time></trkpt><trkpt lat="44.93824952052182" lon="9.02344309449535"><ele>140.0</ele><time>2026-04-06T15:59:11Z</time></trkpt><trkpt lat="44.93837276114712" lon="9.023559229854738"><ele>140.0</ele><time>2026-04-06T15:59:12Z</time></trkpt><trkpt lat="44.93849299022805" lon="9.023684197220712"><ele>140.0</ele><time>2026-04-06T15:59:13Z</time></trkpt><trkpt lat="44.93861357670867" lon="9.023820257122484"><ele>140.0</ele><time>2026-04-06T15:59:14Z</time></trkpt><trkpt lat="44.938749839685144" lon="9.023980562081444"><ele>139.66666666666666</ele><time>2026-04-06T15:59:15Z</time></trkpt><trkpt lat="44.938909960417895" lon="9.024170152454872"><ele>139.33333333333334</ele><time>2026-04-06T15:59:16Z</time></trkpt><trkpt lat="44.93908053030775" lon="9.024375493648524"><ele>139.0</ele><time>2026-04-06T15:59:17Z</time></trkpt><trkpt lat="44.93923473987453" lon="9.024560409510624"><ele>139.0</ele><time>2026-04-06T15:59:18Z</time></trkpt><trkpt lat="44.93938288052669" lon="9.02470919030841"><ele>139.0</ele><time>2026-04-06T15:59:19Z</time></trkpt><trkpt lat="44.9395098026663" lon="9.024859080341663"><ele>139.0</ele><time>2026-04-06T15:59:20Z</time></trkpt><trkpt lat="44.9396370804329" lon="9.024991032009252"><ele>140.0</ele><time>2026-04-06T15:59:21Z</time></trkpt><trkpt lat="44.93976385771315" lon="9.025111020100818"><ele>141.0</ele><time>2026-04-06T15:59:22Z</time></trkpt><trkpt lat="44.939898166907476" lon="9.025219793238485"><ele>142.0</ele><time>2026-04-06T15:59:23Z</time></trkpt><trkpt lat="44.94004443049038" lon="9.025323806720671"><ele>141.33333333333334</ele><time>2026-04-06T15:59:24Z</time></trkpt><trkpt lat="44.940193138532216" lon="9.025422526514832"><ele>140.66666666666666</ele><time>2026-04-06T15:59:25Z</time></trkpt><trkpt lat="44.940322170369235" lon="9.025535437924342"><ele>140.0</ele><time>2026-04-06T15:59:26Z</time></trkpt><trkpt lat="44.94044674337124" lon="9.025623799002124"><ele>140.0</ele><time>2026-04-06T15:59:27Z</time></trkpt><trkpt lat="44.9405718965335" lon="9.025712225329935"><ele>140.0</ele><time>2026-04-06T15:59:28Z</time></trkpt><trkpt lat="44.94070065348129" lon="9.025803197882356"><ele>140.0</ele><time>2026-04-06T15:59:29Z</time></trkpt><trkpt lat="44.94083534990423" lon="9.025872718867054"><ele>140.0</ele><time>2026-04-06T15:59:30Z</time></trkpt><trkpt lat="44.94096486783855" lon="9.025963754006519"><ele>140.66666666666666</ele><time>2026-04-06T15:59:31Z</time></trkpt><trkpt lat="44.94109506291778" lon="9.026063147498382"><ele>141.33333333333334</ele><time>2026-04-06T15:59:32Z</time></trkpt><trkpt lat="44.94122583340899" lon="9.026158220822527"><ele>142.0</ele><time>2026-04-06T15:59:33Z</time></trkpt><trkpt lat="44.94137037901261" lon="9.026236732748787"><ele>142.0</ele><time>2026-04-06T15:59:34Z</time></trkpt><trkpt lat="44.94152834811683" lon="9.026299466828457"><ele>142.0</ele><time>2026-04-06T15:59:35Z</time></trkpt><trkpt lat="44.941702519861224" lon="9.026329599238407"><ele>142.0</ele><time>2026-04-06T15:59:36Z</time></trkpt><trkpt lat="44.941884400131855" lon="9.026397906356072"><ele>141.33333333333334</ele><time>2026-04-06T15:59:37Z</time></trkpt><trkpt lat="44.94208619485974" lon="9.026449583118982"><ele>140.66666666666666</ele><time>2026-04-06T15:59:38Z</time></trkpt><trkpt lat="44.94229964070758" lon="9.026504243580403"><ele>140.0</ele><time>2026-04-06T15:59:39Z</time></trkpt><trkpt lat="44.942525225146724" lon="9.026562012578882"><ele>140.5</ele><time>2026-04-06T15:59:40Z</time></trkpt><trkpt lat="44.94275153676597" lon="9.026619967796675"><ele>141.0</ele><time>2026-04-06T15:59:41Z</time></trkpt><trkpt lat="44.94297398678846" lon="9.026676934106396"><ele>142.0</ele><time>2026-04-06T15:59:42Z</time></trkpt><trkpt lat="44.943190630901796" lon="9.0267318946052"><ele>143.0</ele><time>2026-04-06T15:59:43Z</time></trkpt><trkpt lat="44.94340458429035" lon="9.026764051481349"><ele>144.0</ele><time>2026-04-06T15:59:44Z</time></trkpt><trkpt lat="44.94360849434136" lon="9.026819871047735"><ele>144.0</ele><time>2026-04-06T15:59:45Z</time></trkpt><trkpt lat="44.94381042787724" lon="9.026873887372577"><ele>144.0</ele><time>2026-04-06T15:59:46Z</time></trkpt><trkpt lat="44.94400931553028" lon="9.02692977361569"><ele>144.0</ele><time>2026-04-06T15:59:47Z</time></trkpt><trkpt lat="44.94420963063625" lon="9.026983279642728"><ele>143.0</ele><time>2026-04-06T15:59:48Z</time></trkpt><trkpt lat="44.944417260948" lon="9.027034710512066"><ele>142.0</ele><time>2026-04-06T15:59:49Z</time></trkpt><trkpt lat="44.944624895511026" lon="9.027088078968477"><ele>141.0</ele><time>2026-04-06T15:59:50Z</time></trkpt><trkpt lat="44.94483177170593" lon="9.027152031591584"><ele>141.0</ele><time>2026-04-06T15:59:51Z</time></trkpt><trkpt lat="44.945039584724434" lon="9.027229824004431"><ele>141.0</ele><time>2026-04-06T15:59:52Z</time></trkpt><trkpt lat="44.94524455610164" lon="9.027319451144187"><ele>141.0</ele><time>2026-04-06T15:59:53Z</time></trkpt><trkpt lat="44.945450519371285" lon="9.02741003236667"><ele>141.66666666666666</ele><time>2026-04-06T15:59:54Z</time></trkpt><trkpt lat="44.945656706709855" lon="9.027502190303087"><ele>142.33333333333331</ele><time>2026-04-06T15:59:55Z</time></trkpt><trkpt lat="44.94586239273521" lon="9.027596326153299"><ele>143.0</ele><time>2026-04-06T15:59:56Z</time></trkpt><trkpt lat="44.946070516768835" lon="9.027689871574825"><ele>143.0</ele><time>2026-04-06T15:59:57Z</time></trkpt><trkpt lat="44.94628088448099" lon="9.027781353506478"><ele>143.0</ele><time>2026-04-06T15:59:58Z</time></trkpt><trkpt lat="44.94649162471016" lon="9.027874099477039"><ele>143.0</ele><time>2026-04-06T15:59:59Z</time></trkpt><trkpt lat="44.946703181176744" lon="9.027966566055866"><ele>142.33333333333331</ele><time>2026-04-06T16:00:00Z</time></trkpt><trkpt lat="44.94691500103751" lon="9.028057174599905"><ele>141.66666666666666</ele><time>2026-04-06T16:00:01Z</time></trkpt><trkpt lat="44.94712841475595" lon="9.028146648902425"><ele>141.0</ele><time>2026-04-06T16:00:02Z</time></trkpt><trkpt lat="44.94734079779406" lon="9.028233283439436"><ele>142.0</ele><time>2026-04-06T16:00:03Z</time></trkpt><trkpt lat="44.94754192110455" lon="9.02831840420683"><ele>143.0</ele><time>2026-04-06T16:00:04Z</time></trkpt><trkpt lat="44.94773415845337" lon="9.02839949593552"><ele>144.0</ele><time>2026-04-06T16:00:05Z</time></trkpt><trkpt lat="44.94792137347168" lon="9.028482827310066"><ele>144.0</ele><time>2026-04-06T16:00:06Z</time></trkpt><trkpt lat="44.94810333805696" lon="9.028565242383246"><ele>144.0</ele><time>2026-04-06T16:00:07Z</time></trkpt><trkpt lat="44.9482837968754" lon="9.028646477757727"><ele>144.0</ele><time>2026-04-06T16:00:08Z</time></trkpt><trkpt lat="44.9484630822859" lon="9.028720177969364"><ele>144.0</ele><time>2026-04-06T16:00:09Z</time></trkpt><trkpt lat="44.948642998142425" lon="9.028795588163057"><ele>144.0</ele><time>2026-04-06T16:00:10Z</time></trkpt><trkpt lat="44.94882734828575" lon="9.028874191015376"><ele>144.0</ele><time>2026-04-06T16:00:11Z</time></trkpt><trkpt lat="44.94901304705121" lon="9.028955039458278"><ele>144.0</ele><time>2026-04-06T16:00:12Z</time></trkpt><trkpt lat="44.949199638954894" lon="9.029036004376346"><ele>144.0</ele><time>2026-04-06T16:00:13Z</time></trkpt><trkpt lat="44.949383003951176" lon="9.02911654304806"><ele>144.0</ele><time>2026-04-06T16:00:14Z</time></trkpt><trkpt lat="44.94956101231671" lon="9.029196082491884"><ele>143.66666666666666</ele><time>2026-04-06T16:00:15Z</time></trkpt><trkpt lat="44.94973869321072" lon="9.029279697632699"><ele>143.33333333333331</ele><time>2026-04-06T16:00:16Z</time></trkpt><trkpt lat="44.949902636187986" lon="9.029400325105296"><ele>143.0</ele><time>2026-04-06T16:00:17Z</time></trkpt><trkpt lat="44.95006124756129" lon="9.029535949412615"><ele>142.66666666666666</ele><time>2026-04-06T16:00:18Z</time></trkpt><trkpt lat="44.95021605296328" lon="9.029691938297994"><ele>142.33333333333334</ele><time>2026-04-06T16:00:19Z</time></trkpt><trkpt lat="44.950363950690885" lon="9.02986736470647"><ele>142.0</ele><time>2026-04-06T16:00:20Z</time></trkpt><trkpt lat="44.95051114388813" lon="9.030027972700266"><ele>143.0</ele><time>2026-04-06T16:00:21Z</time></trkpt><trkpt lat="44.95063421850613" lon="9.03019675789159"><ele>144.0</ele><time>2026-04-06T16:00:22Z</time></trkpt><trkpt lat="44.95075130516752" lon="9.030350036069132"><ele>145.0</ele><time>2026-04-06T16:00:23Z</time></trkpt><trkpt lat="44.950866339165586" lon="9.030490487109473"><ele>145.0</ele><time>2026-04-06T16:00:24Z</time></trkpt><trkpt lat="44.950970387351326" lon="9.030623113979532"><ele>145.0</ele><time>2026-04-06T16:00:25Z</time></trkpt><trkpt lat="44.95106746456057" lon="9.030748471149066"><ele>145.0</ele><time>2026-04-06T16:00:26Z</time></trkpt><trkpt lat="44.951179060316065" lon="9.030894302001611"><ele>145.0</ele><time>2026-04-06T16:00:27Z</time></trkpt><trkpt lat="44.95129321594019" lon="9.031041426089079"><ele>145.0</ele><time>2026-04-06T16:00:28Z</time></trkpt><trkpt lat="44.951413001002" lon="9.031189648256515"><ele>145.0</ele><time>2026-04-06T16:00:29Z</time></trkpt><trkpt lat="44.95153511617012" lon="9.031342811187454"><ele>145.0</ele><time>2026-04-06T16:00:30Z</time></trkpt><trkpt lat="44.95165166885332" lon="9.031487154781892"><ele>145.0</ele><time>2026-04-06T16:00:31Z</time></trkpt><trkpt lat="44.95176669765882" lon="9.031625538735147"><ele>145.0</ele><time>2026-04-06T16:00:32Z</time></trkpt><trkpt lat="44.951874169914696" lon="9.031778566685741"><ele>145.0</ele><time>2026-04-06T16:00:33Z</time></trkpt><trkpt lat="44.95197662001773" lon="9.031919206504815"><ele>145.0</ele><time>2026-04-06T16:00:34Z</time></trkpt><trkpt lat="44.952078536541194" lon="9.032051393502547"><ele>145.0</ele><time>2026-04-06T16:00:35Z</time></trkpt><trkpt lat="44.95217055159194" lon="9.03216580208058"><ele>145.0</ele><time>2026-04-06T16:00:36Z</time></trkpt><trkpt lat="44.95226152140273" lon="9.032275031629881"><ele>145.0</ele><time>2026-04-06T16:00:37Z</time></trkpt><trkpt lat="44.952351200423145" lon="9.032375404976179"><ele>145.0</ele><time>2026-04-06T16:00:38Z</time></trkpt><trkpt lat="44.95242942339226" lon="9.032492677027347"><ele>144.5</ele><time>2026-04-06T16:00:39Z</time></trkpt><trkpt lat="44.952526831177124" lon="9.032614993930967"><ele>144.0</ele><time>2026-04-06T16:00:40Z</time></trkpt><trkpt lat="44.952624820970215" lon="9.032737791540315"><ele>143.5</ele><time>2026-04-06T16:00:41Z</time></trkpt><trkpt lat="44.952720296734064" lon="9.032857438579741"><ele>143.0</ele><time>2026-04-06T16:00:42Z</time></trkpt><trkpt lat="44.95282094597148" lon="9.03296289945134"><ele>143.20000000000002</ele><time>2026-04-06T16:00:43Z</time></trkpt><trkpt lat="44.95290877271311" lon="9.03308173457289"><ele>143.4</ele><time>2026-04-06T16:00:44Z</time></trkpt><trkpt lat="44.9530076652368" lon="9.033200674144116"><ele>143.60000000000002</ele><time>2026-04-06T16:00:45Z</time></trkpt><trkpt lat="44.953080826673805" lon="9.03328776803582"><ele>143.8</ele><time>2026-04-06T16:00:46Z</time></trkpt><trkpt lat="44.9531395133844" lon="9.033363475690553"><ele>144.0</ele><time>2026-04-06T16:00:47Z</time></trkpt><trkpt lat="44.95320172929815" lon="9.03344162229213"><ele>144.0</ele><time>2026-04-06T16:00:48Z</time></trkpt><trkpt lat="44.9532580038886" lon="9.033511183203128"><ele>144.0</ele><time>2026-04-06T16:00:49Z</time></trkpt><trkpt lat="44.95330456870747" lon="9.033586493353631"><ele>144.0</ele><time>2026-04-06T16:00:50Z</time></trkpt><trkpt lat="44.95334225730731" lon="9.033658388131693"><ele>144.0</ele><time>2026-04-06T16:00:51Z</time></trkpt><trkpt lat="44.95340605969193" lon="9.033807987016761"><ele>144.0</ele><time>2026-04-06T16:00:53Z</time></trkpt><trkpt lat="44.95343337666117" lon="9.03389603161824"><ele>144.0</ele><time>2026-04-06T16:00:54Z</time></trkpt><trkpt lat="44.953488179243294" lon="9.034044145948366"><ele>144.25</ele><time>2026-04-06T16:00:56Z</time></trkpt><trkpt lat="44.953550148290375" lon="9.03410240933305"><ele>144.5</ele><time>2026-04-06T16:00:57Z</time></trkpt><trkpt lat="44.953651008027656" lon="9.034145246475301"><ele>144.75</ele><time>2026-04-06T16:00:58Z</time></trkpt><trkpt lat="44.95376901057091" lon="9.034212562291088"><ele>145.0</ele><time>2026-04-06T16:00:59Z</time></trkpt><trkpt lat="44.953888122630396" lon="9.034330391510967"><ele>145.33333333333334</ele><time>2026-04-06T16:01:00Z</time></trkpt><trkpt lat="44.95399573979212" lon="9.03446775326949"><ele>145.66666666666666</ele><time>2026-04-06T16:01:01Z</time></trkpt><trkpt lat="44.95411539930938" lon="9.03462549857715"><ele>146.0</ele><time>2026-04-06T16:01:02Z</time></trkpt><trkpt lat="44.9542536949038" lon="9.034801675330739"><ele>145.66666666666666</ele><time>2026-04-06T16:01:03Z</time></trkpt><trkpt lat="44.954400053797926" lon="9.034988362874284"><ele>145.33333333333334</ele><time>2026-04-06T16:01:04Z</time></trkpt><trkpt lat="44.95454110926582" lon="9.035165814080374"><ele>145.0</ele><time>2026-04-06T16:01:05Z</time></trkpt><trkpt lat="44.95468724762622" lon="9.035347277870704"><ele>145.0</ele><time>2026-04-06T16:01:06Z</time></trkpt><trkpt lat="44.95483892283993" lon="9.035538538313569"><ele>145.0</ele><time>2026-04-06T16:01:07Z</time></trkpt><trkpt lat="44.95499224631165" lon="9.03573558014515"><ele>145.0</ele><time>2026-04-06T16:01:08Z</time></trkpt><trkpt lat="44.95514505607667" lon="9.03593226509267"><ele>144.66666666666669</ele><time>2026-04-06T16:01:09Z</time></trkpt><trkpt lat="44.9552979566987" lon="9.036126795822987"><ele>144.33333333333334</ele><time>2026-04-06T16:01:10Z</time></trkpt><trkpt lat="44.95545181973789" lon="9.036321090372148"><ele>144.0</ele><time>2026-04-06T16:01:11Z</time></trkpt><trkpt lat="44.95560268076497" lon="9.036513098733165"><ele>144.0</ele><time>2026-04-06T16:01:12Z</time></trkpt><trkpt lat="44.955752546466655" lon="9.036706225987409"><ele>144.0</ele><time>2026-04-06T16:01:13Z</time></trkpt><trkpt lat="44.95591066719165" lon="9.036902553205028"><ele>144.0</ele><time>2026-04-06T16:01:14Z</time></trkpt><trkpt lat="44.956073149291214" lon="9.037105378420891"><ele>143.33333333333334</ele><time>2026-04-06T16:01:15Z</time></trkpt><trkpt lat="44.95623782790191" lon="9.03731293824113"><ele>142.66666666666669</ele><time>2026-04-06T16:01:16Z</time></trkpt><trkpt lat="44.956403594927124" lon="9.037524878127606"><ele>142.0</ele><time>2026-04-06T16:01:17Z</time></trkpt><trkpt lat="44.9565639756124" lon="9.037752542288123"><ele>141.66666666666669</ele><time>2026-04-06T16:01:18Z</time></trkpt><trkpt lat="44.95668124747557" lon="9.038011195513336"><ele>141.33333333333334</ele><time>2026-04-06T16:01:19Z</time></trkpt><trkpt lat="44.95681453691451" lon="9.038276775572106"><ele>141.0</ele><time>2026-04-06T16:01:20Z</time></trkpt><trkpt lat="44.95693064084321" lon="9.038569526570509"><ele>140.0</ele><time>2026-04-06T16:01:21Z</time></trkpt><trkpt lat="44.95704948115655" lon="9.03885337440485"><ele>139.0</ele><time>2026-04-06T16:01:22Z</time></trkpt><trkpt lat="44.95716364333197" lon="9.039118242347058"><ele>138.33333333333334</ele><time>2026-04-06T16:01:23Z</time></trkpt><trkpt lat="44.95727832132396" lon="9.03937219305252"><ele>137.66666666666666</ele><time>2026-04-06T16:01:24Z</time></trkpt><trkpt lat="44.957394335706624" lon="9.03961151004813"><ele>137.0</ele><time>2026-04-06T16:01:25Z</time></trkpt><trkpt lat="44.95751846779052" lon="9.039828636046424"><ele>137.0</ele><time>2026-04-06T16:01:26Z</time></trkpt><trkpt lat="44.95765464108546" lon="9.04003025798316"><ele>137.0</ele><time>2026-04-06T16:01:27Z</time></trkpt><trkpt lat="44.95779679786229" lon="9.040203089225798"><ele>137.0</ele><time>2026-04-06T16:01:28Z</time></trkpt><trkpt lat="44.95794538144153" lon="9.040351366036283"><ele>137.0</ele><time>2026-04-06T16:01:29Z</time></trkpt><trkpt lat="44.958097295492486" lon="9.040489545734921"><ele>137.0</ele><time>2026-04-06T16:01:30Z</time></trkpt><trkpt lat="44.958254296111804" lon="9.04062716378436"><ele>137.0</ele><time>2026-04-06T16:01:31Z</time></trkpt><trkpt lat="44.9584184289772" lon="9.040771921845998"><ele>136.33333333333331</ele><time>2026-04-06T16:01:32Z</time></trkpt><trkpt lat="44.95858372927756" lon="9.040947345809414"><ele>135.66666666666666</ele><time>2026-04-06T16:01:33Z</time></trkpt><trkpt lat="44.958767770759984" lon="9.041114572191114"><ele>135.0</ele><time>2026-04-06T16:01:34Z</time></trkpt><trkpt lat="44.95895406698222" lon="9.041283846752307"><ele>135.0</ele><time>2026-04-06T16:01:35Z</time></trkpt><trkpt lat="44.95915258533007" lon="9.041464226716453"><ele>135.0</ele><time>2026-04-06T16:01:36Z</time></trkpt><trkpt lat="44.95936950355245" lon="9.041661325376426"><ele>134.0</ele><time>2026-04-06T16:01:37Z</time></trkpt><trkpt lat="44.95960282882026" lon="9.041873504532955"><ele>133.0</ele><time>2026-04-06T16:01:38Z</time></trkpt><trkpt lat="44.95985401910848" lon="9.042102116601956"><ele>132.5</ele><time>2026-04-06T16:01:39Z</time></trkpt><trkpt lat="44.96012489844956" lon="9.04234864799512"><ele>132.0</ele><time>2026-04-06T16:01:40Z</time></trkpt><trkpt lat="44.96039485446697" lon="9.042593897580808"><ele>131.0</ele><time>2026-04-06T16:01:41Z</time></trkpt><trkpt lat="44.9606512121978" lon="9.04282608259841"><ele>130.0</ele><time>2026-04-06T16:01:42Z</time></trkpt><trkpt lat="44.960911782028475" lon="9.0430440616629"><ele>130.0</ele><time>2026-04-06T16:01:43Z</time></trkpt><trkpt lat="44.961162514244556" lon="9.043277039214473"><ele>130.0</ele><time>2026-04-06T16:01:44Z</time></trkpt><trkpt lat="44.96141007899992" lon="9.043501707825287"><ele>130.0</ele><time>2026-04-06T16:01:45Z</time></trkpt><trkpt lat="44.961645733665726" lon="9.043714112389857"><ele>130.0</ele><time>2026-04-06T16:01:46Z</time></trkpt><trkpt lat="44.96186699567617" lon="9.043914411043406"><ele>129.5</ele><time>2026-04-06T16:01:47Z</time></trkpt><trkpt lat="44.962073817557155" lon="9.044105333254658"><ele>129.0</ele><time>2026-04-06T16:01:48Z</time></trkpt><trkpt lat="44.96227304751514" lon="9.044291022654185"><ele>129.0</ele><time>2026-04-06T16:01:49Z</time></trkpt><trkpt lat="44.962457466055284" lon="9.04446912165847"><ele>129.0</ele><time>2026-04-06T16:01:50Z</time></trkpt><trkpt lat="44.96263096856243" lon="9.044663168531503"><ele>129.0</ele><time>2026-04-06T16:01:51Z</time></trkpt><trkpt lat="44.96278637621024" lon="9.044896581378447"><ele>128.5</ele><time>2026-04-06T16:01:52Z</time></trkpt><trkpt lat="44.962920182725995" lon="9.045161004950387"><ele>128.0</ele><time>2026-04-06T16:01:53Z</time></trkpt><trkpt lat="44.96305965198729" lon="9.04541853867671"><ele>128.0</ele><time>2026-04-06T16:01:54Z</time></trkpt><trkpt lat="44.96320622868706" lon="9.045672579308802"><ele>128.0</ele><time>2026-04-06T16:01:55Z</time></trkpt><trkpt lat="44.963342240572274" lon="9.045950060186778"><ele>128.0</ele><time>2026-04-06T16:01:56Z</time></trkpt><trkpt lat="44.96348982399636" lon="9.046241161276406"><ele>128.0</ele><time>2026-04-06T16:01:57Z</time></trkpt><trkpt lat="44.96365449517555" lon="9.046550265425415"><ele>127.5</ele><time>2026-04-06T16:01:58Z</time></trkpt><trkpt lat="44.96381868037143" lon="9.046860890020268"><ele>127.0</ele><time>2026-04-06T16:01:59Z</time></trkpt><trkpt lat="44.963982414101" lon="9.047166332812674"><ele>127.5</ele><time>2026-04-06T16:02:00Z</time></trkpt><trkpt lat="44.96414450919265" lon="9.047468676496084"><ele>128.0</ele><time>2026-04-06T16:02:01Z</time></trkpt><trkpt lat="44.96430477143882" lon="9.047771910489558"><ele>128.0</ele><time>2026-04-06T16:02:02Z</time></trkpt><trkpt lat="44.964464401425104" lon="9.048074000753962"><ele>128.0</ele><time>2026-04-06T16:02:03Z</time></trkpt><trkpt lat="44.96462166171133" lon="9.048371673910141"><ele>129.0</ele><time>2026-04-06T16:02:04Z</time></trkpt><trkpt lat="44.964773600966105" lon="9.048655266245314"><ele>130.0</ele><time>2026-04-06T16:02:05Z</time></trkpt><trkpt lat="44.96491975844225" lon="9.04892607722709"><ele>129.66666666666669</ele><time>2026-04-06T16:02:06Z</time></trkpt><trkpt lat="44.96505977046949" lon="9.049185551307378"><ele>129.33333333333334</ele><time>2026-04-06T16:02:07Z</time></trkpt><trkpt lat="44.96519159886204" lon="9.049429558188505"><ele>129.0</ele><time>2026-04-06T16:02:08Z</time></trkpt><trkpt lat="44.96531636863346" lon="9.049662846781002"><ele>129.0</ele><time>2026-04-06T16:02:09Z</time></trkpt><trkpt lat="44.965439592084735" lon="9.049888348771377"><ele>129.0</ele><time>2026-04-06T16:02:10Z</time></trkpt><trkpt lat="44.96555765759834" lon="9.050107134455832"><ele>129.0</ele><time>2026-04-06T16:02:10.999Z</time></trkpt><trkpt lat="44.96567128220542" lon="9.050326087711406"><ele>129.0</ele><time>2026-04-06T16:02:11.999Z</time></trkpt><trkpt lat="44.965786104105455" lon="9.050549401460861"><ele>129.0</ele><time>2026-04-06T16:02:12.999Z</time></trkpt><trkpt lat="44.96589976949324" lon="9.05078207453316"><ele>129.0</ele><time>2026-04-06T16:02:13.999Z</time></trkpt><trkpt lat="44.96600711954752" lon="9.051029973746136"><ele>128.33333333333334</ele><time>2026-04-06T16:02:14.999Z</time></trkpt><trkpt lat="44.96610405982051" lon="9.051294428336067"><ele>127.66666666666667</ele><time>2026-04-06T16:02:15.999Z</time></trkpt><trkpt lat="44.966196597735504" lon="9.051572273400607"><ele>127.0</ele><time>2026-04-06T16:02:16.999Z</time></trkpt><trkpt lat="44.96627803846778" lon="9.051863296488268"><ele>127.0</ele><time>2026-04-06T16:02:18Z</time></trkpt><trkpt lat="44.966357587007735" lon="9.052162205029797"><ele>127.0</ele><time>2026-04-06T16:02:19Z</time></trkpt><trkpt lat="44.96643527734207" lon="9.052470113567182"><ele>127.0</ele><time>2026-04-06T16:02:20Z</time></trkpt><trkpt lat="44.966517012372364" lon="9.052783904943698"><ele>127.0</ele><time>2026-04-06T16:02:21Z</time></trkpt><trkpt lat="44.96660251020768" lon="9.0531012813673"><ele>127.5</ele><time>2026-04-06T16:02:22Z</time></trkpt><trkpt lat="44.966691962602866" lon="9.05342406961999"><ele>128.0</ele><time>2026-04-06T16:02:23Z</time></trkpt><trkpt lat="44.966780429525414" lon="9.05373794461543"><ele>128.0</ele><time>2026-04-06T16:02:24Z</time></trkpt><trkpt lat="44.96687021207184" lon="9.054051344909361"><ele>128.0</ele><time>2026-04-06T16:02:25Z</time></trkpt><trkpt lat="44.96696808041574" lon="9.054389392252194"><ele>128.5</ele><time>2026-04-06T16:02:26Z</time></trkpt><trkpt lat="44.967047398189784" lon="9.05474357726332"><ele>129.0</ele><time>2026-04-06T16:02:27Z</time></trkpt><trkpt lat="44.96714840166742" lon="9.055056142941496"><ele>129.33333333333334</ele><time>2026-04-06T16:02:28Z</time></trkpt><trkpt lat="44.96722908962987" lon="9.055359347421001"><ele>129.66666666666669</ele><time>2026-04-06T16:02:29Z</time></trkpt><trkpt lat="44.96730442665885" lon="9.05563932606879"><ele>130.0</ele><time>2026-04-06T16:02:30Z</time></trkpt><trkpt lat="44.967377137960554" lon="9.055910024576939"><ele>130.33333333333334</ele><time>2026-04-06T16:02:31Z</time></trkpt><trkpt lat="44.967450022742774" lon="9.056182750968407"><ele>130.66666666666666</ele><time>2026-04-06T16:02:32Z</time></trkpt><trkpt lat="44.96752131178022" lon="9.056460657963068"><ele>131.0</ele><time>2026-04-06T16:02:33Z</time></trkpt><trkpt lat="44.96759802769599" lon="9.056753690165214"><ele>129.0</ele><time>2026-04-06T16:02:34Z</time></trkpt><trkpt lat="44.96767665078911" lon="9.057052851943196"><ele>127.0</ele><time>2026-04-06T16:02:35Z</time></trkpt><trkpt lat="44.96776123083004" lon="9.057359314397166"><ele>127.0</ele><time>2026-04-06T16:02:36Z</time></trkpt><trkpt lat="44.96784818677618" lon="9.0576694992432"><ele>127.0</ele><time>2026-04-06T16:02:37Z</time></trkpt><trkpt lat="44.967931050706646" lon="9.057969645306837"><ele>127.0</ele><time>2026-04-06T16:02:38Z</time></trkpt><trkpt lat="44.96800711721412" lon="9.058254168413418"><ele>127.0</ele><time>2026-04-06T16:02:39Z</time></trkpt><trkpt lat="44.96807877578917" lon="9.05852312940637"><ele>127.0</ele><time>2026-04-06T16:02:40Z</time></trkpt><trkpt lat="44.968147158826994" lon="9.058780211920121"><ele>127.0</ele><time>2026-04-06T16:02:41Z</time></trkpt><trkpt lat="44.96821006207904" lon="9.059017158591605"><ele>127.0</ele><time>2026-04-06T16:02:42Z</time></trkpt><trkpt lat="44.96826763942804" lon="9.059234927655389"><ele>127.0</ele><time>2026-04-06T16:02:43Z</time></trkpt><trkpt lat="44.96832270650585" lon="9.059441130748338"><ele>126.5</ele><time>2026-04-06T16:02:44Z</time></trkpt><trkpt lat="44.96837125474816" lon="9.059631514582597"><ele>126.0</ele><time>2026-04-06T16:02:45Z</time></trkpt><trkpt lat="44.96841118124529" lon="9.059786684040233"><ele>125.5</ele><time>2026-04-06T16:02:46Z</time></trkpt><trkpt lat="44.96845537218268" lon="9.05993343260109"><ele>125.0</ele><time>2026-04-06T16:02:47Z</time></trkpt><trkpt lat="44.96850037596643" lon="9.060075296682456"><ele>124.4</ele><time>2026-04-06T16:02:48Z</time></trkpt><trkpt lat="44.9685280780168" lon="9.060219776920414"><ele>123.8</ele><time>2026-04-06T16:02:49Z</time></trkpt><trkpt lat="44.96855271411678" lon="9.060333627046912"><ele>123.19999999999999</ele><time>2026-04-06T16:02:50Z</time></trkpt><trkpt lat="44.968596961708414" lon="9.060430889148638"><ele>122.6</ele><time>2026-04-06T16:02:51Z</time></trkpt><trkpt lat="44.9686695587655" lon="9.060488511413174"><ele>122.0</ele><time>2026-04-06T16:02:52Z</time></trkpt><trkpt lat="44.96876365409573" lon="9.060507408305474"><ele>122.0</ele><time>2026-04-06T16:02:53Z</time></trkpt><trkpt lat="44.96885968230769" lon="9.060523399558203"><ele>122.0</ele><time>2026-04-06T16:02:54Z</time></trkpt><trkpt lat="44.96897588194961" lon="9.060557334360267"><ele>122.0</ele><time>2026-04-06T16:02:55Z</time></trkpt><trkpt lat="44.96910507162778" lon="9.060619345042474"><ele>122.0</ele><time>2026-04-06T16:02:56Z</time></trkpt><trkpt lat="44.96925160053233" lon="9.060676865841945"><ele>123.0</ele><time>2026-04-06T16:02:57Z</time></trkpt><trkpt lat="44.96940390189997" lon="9.060714024451036"><ele>124.0</ele><time>2026-04-06T16:02:58Z</time></trkpt><trkpt lat="44.969567922989185" lon="9.060741355291391"><ele>125.0</ele><time>2026-04-06T16:02:59Z</time></trkpt><trkpt lat="44.96974382285333" lon="9.060769357644677"><ele>125.66666666666666</ele><time>2026-04-06T16:03:00Z</time></trkpt><trkpt lat="44.96992961365082" lon="9.060800720259904"><ele>126.33333333333334</ele><time>2026-04-06T16:03:01Z</time></trkpt><trkpt lat="44.970128000828765" lon="9.060829197018032"><ele>127.0</ele><time>2026-04-06T16:03:02Z</time></trkpt><trkpt lat="44.97032731047567" lon="9.060858975228786"><ele>125.33333333333334</ele><time>2026-04-06T16:03:03Z</time></trkpt><trkpt lat="44.97050793670686" lon="9.06088816300598"><ele>123.66666666666666</ele><time>2026-04-06T16:03:04Z</time></trkpt><trkpt lat="44.97067938353379" lon="9.060915620867739"><ele>122.0</ele><time>2026-04-06T16:03:05Z</time></trkpt><trkpt lat="44.970861977502636" lon="9.060943882355145"><ele>121.0</ele><time>2026-04-06T16:03:06Z</time></trkpt><trkpt lat="44.97105741133898" lon="9.060978069843411"><ele>120.0</ele><time>2026-04-06T16:03:07Z</time></trkpt><trkpt lat="44.97125560304632" lon="9.061012038286629"><ele>119.0</ele><time>2026-04-06T16:03:08Z</time></trkpt><trkpt lat="44.971459984578956" lon="9.061045112994522"><ele>119.0</ele><time>2026-04-06T16:03:09Z</time></trkpt><trkpt lat="44.97167132124534" lon="9.061078329229293"><ele>119.0</ele><time>2026-04-06T16:03:10Z</time></trkpt><trkpt lat="44.97188879460459" lon="9.061113610012402"><ele>119.0</ele><time>2026-04-06T16:03:11Z</time></trkpt><trkpt lat="44.972099311342575" lon="9.061169747075944"><ele>118.66666666666666</ele><time>2026-04-06T16:03:12Z</time></trkpt><trkpt lat="44.97228996547784" lon="9.061201040639382"><ele>118.33333333333334</ele><time>2026-04-06T16:03:13Z</time></trkpt><trkpt lat="44.97246130692461" lon="9.061229034883851"><ele>118.0</ele><time>2026-04-06T16:03:14Z</time></trkpt><trkpt lat="44.97261760075061" lon="9.061241274516401"><ele>118.0</ele><time>2026-04-06T16:03:15Z</time></trkpt><trkpt lat="44.972809031767426" lon="9.061285181138858"><ele>118.0</ele><time>2026-04-06T16:03:16Z</time></trkpt><trkpt lat="44.97296106380284" lon="9.061283993996323"><ele>118.0</ele><time>2026-04-06T16:03:17Z</time></trkpt><trkpt lat="44.973109022468755" lon="9.061312152240788"><ele>118.0</ele><time>2026-04-06T16:03:18Z</time></trkpt><trkpt lat="44.973262164373" lon="9.061343108775322"><ele>118.0</ele><time>2026-04-06T16:03:19Z</time></trkpt><trkpt lat="44.97342248827077" lon="9.0613674128899"><ele>118.0</ele><time>2026-04-06T16:03:20Z</time></trkpt><trkpt lat="44.97358619101609" lon="9.06141867132869"><ele>117.0</ele><time>2026-04-06T16:03:21Z</time></trkpt><trkpt lat="44.973751859316636" lon="9.06144810361734"><ele>116.0</ele><time>2026-04-06T16:03:22Z</time></trkpt><trkpt lat="44.973916292263155" lon="9.06147731630118"><ele>115.0</ele><time>2026-04-06T16:03:23Z</time></trkpt><trkpt lat="44.97408108746207" lon="9.061504739192973"><ele>115.0</ele><time>2026-04-06T16:03:24Z</time></trkpt><trkpt lat="44.97424757177469" lon="9.06153285062567"><ele>115.0</ele><time>2026-04-06T16:03:25Z</time></trkpt><trkpt lat="44.97442351277648" lon="9.061542839556568"><ele>115.0</ele><time>2026-04-06T16:03:26Z</time></trkpt><trkpt lat="44.974598232162776" lon="9.061572013236306"><ele>115.0</ele><time>2026-04-06T16:03:27Z</time></trkpt><trkpt lat="44.97477868246848" lon="9.061601862972001"><ele>115.0</ele><time>2026-04-06T16:03:28Z</time></trkpt><trkpt lat="44.974963007293795" lon="9.061630905402199"><ele>115.0</ele><time>2026-04-06T16:03:29Z</time></trkpt><trkpt lat="44.9751377111033" lon="9.061682976364787"><ele>115.0</ele><time>2026-04-06T16:03:30Z</time></trkpt><trkpt lat="44.97531198285476" lon="9.061712307998484"><ele>115.0</ele><time>2026-04-06T16:03:31Z</time></trkpt><trkpt lat="44.9754862017165" lon="9.061742990590087"><ele>115.0</ele><time>2026-04-06T16:03:32Z</time></trkpt><trkpt lat="44.97565872226755" lon="9.061773976973173"><ele>115.0</ele><time>2026-04-06T16:03:33Z</time></trkpt><trkpt lat="44.97583375656007" lon="9.06180541485743"><ele>115.0</ele><time>2026-04-06T16:03:34Z</time></trkpt><trkpt lat="44.97600997120801" lon="9.061835467966311"><ele>115.0</ele><time>2026-04-06T16:03:35Z</time></trkpt><trkpt lat="44.97618439276702" lon="9.061846690637191"><ele>114.0</ele><time>2026-04-06T16:03:36Z</time></trkpt><trkpt lat="44.97636406861526" lon="9.061882544608375"><ele>113.0</ele><time>2026-04-06T16:03:37Z</time></trkpt><trkpt lat="44.976574655132744" lon="9.061920901802726"><ele>112.0</ele><time>2026-04-06T16:03:38Z</time></trkpt><trkpt lat="44.976778078575805" lon="9.061949424681263"><ele>112.0</ele><time>2026-04-06T16:03:39Z</time></trkpt><trkpt lat="44.97698494089992" lon="9.062002946404853"><ele>112.0</ele><time>2026-04-06T16:03:40Z</time></trkpt><trkpt lat="44.977167931690666" lon="9.062046850895136"><ele>112.0</ele><time>2026-04-06T16:03:41Z</time></trkpt><trkpt lat="44.977339975347896" lon="9.06209387521504"><ele>112.0</ele><time>2026-04-06T16:03:42Z</time></trkpt><trkpt lat="44.977503679246794" lon="9.062139667181288"><ele>112.0</ele><time>2026-04-06T16:03:43Z</time></trkpt><trkpt lat="44.97765743846037" lon="9.062183078026418"><ele>112.0</ele><time>2026-04-06T16:03:44Z</time></trkpt><trkpt lat="44.97780978205833" lon="9.062217522962554"><ele>112.33333333333334</ele><time>2026-04-06T16:03:45Z</time></trkpt><trkpt lat="44.97795512853978" lon="9.062243025281767"><ele>112.66666666666666</ele><time>2026-04-06T16:03:46Z</time></trkpt><trkpt lat="44.978107263460394" lon="9.062276868060252"><ele>113.0</ele><time>2026-04-06T16:03:47Z</time></trkpt><trkpt lat="44.97826609593015" lon="9.062322057866949"><ele>112.33333333333333</ele><time>2026-04-06T16:03:48Z</time></trkpt><trkpt lat="44.97842648744319" lon="9.062362094813663"><ele>111.66666666666666</ele><time>2026-04-06T16:03:49Z</time></trkpt><trkpt lat="44.97859407315576" lon="9.062400438981348"><ele>111.0</ele><time>2026-04-06T16:03:50Z</time></trkpt><trkpt lat="44.9787642564861" lon="9.062440974805835"><ele>111.0</ele><time>2026-04-06T16:03:51Z</time></trkpt><trkpt lat="44.9789319322535" lon="9.062484700073568"><ele>111.0</ele><time>2026-04-06T16:03:52Z</time></trkpt><trkpt lat="44.979099778572355" lon="9.062525921962584"><ele>111.0</ele><time>2026-04-06T16:03:53Z</time></trkpt><trkpt lat="44.97925934477025" lon="9.062566402193415"><ele>110.5</ele><time>2026-04-06T16:03:54Z</time></trkpt><trkpt lat="44.97940546432376" lon="9.06261159835437"><ele>110.0</ele><time>2026-04-06T16:03:55Z</time></trkpt><trkpt lat="44.979542007633896" lon="9.062662125079212"><ele>109.5</ele><time>2026-04-06T16:03:56Z</time></trkpt><trkpt lat="44.979673640987144" lon="9.062708572534863"><ele>109.0</ele><time>2026-04-06T16:03:57Z</time></trkpt><trkpt lat="44.979809278665094" lon="9.062751303570723"><ele>109.0</ele><time>2026-04-06T16:03:58Z</time></trkpt><trkpt lat="44.97993984350476" lon="9.062787414819145"><ele>109.0</ele><time>2026-04-06T16:03:59Z</time></trkpt><trkpt lat="44.98006176803131" lon="9.062815487586855"><ele>109.0</ele><time>2026-04-06T16:04:00Z</time></trkpt><trkpt lat="44.98017591853366" lon="9.062835735652511"><ele>109.0</ele><time>2026-04-06T16:04:01Z</time></trkpt><trkpt lat="44.98027469441773" lon="9.062853874276236"><ele>108.83333333333334</ele><time>2026-04-06T16:04:02Z</time></trkpt><trkpt lat="44.98035901372947" lon="9.062866992246157"><ele>108.66666666666667</ele><time>2026-04-06T16:04:03Z</time></trkpt><trkpt lat="44.98042999286682" lon="9.062891718900596"><ele>108.5</ele><time>2026-04-06T16:04:04Z</time></trkpt><trkpt lat="44.980493587142874" lon="9.06293620951624"><ele>108.33333333333334</ele><time>2026-04-06T16:04:05Z</time></trkpt><trkpt lat="44.98054247431527" lon="9.06300625012739"><ele>108.16666666666667</ele><time>2026-04-06T16:04:06Z</time></trkpt><trkpt lat="44.98058584988929" lon="9.063099660114581"><ele>108.0</ele><time>2026-04-06T16:04:07Z</time></trkpt><trkpt lat="44.98061409037962" lon="9.06323055140013"><ele>108.25</ele><time>2026-04-06T16:04:08Z</time></trkpt><trkpt lat="44.98061810090168" lon="9.063390762746614"><ele>108.5</ele><time>2026-04-06T16:04:09Z</time></trkpt><trkpt lat="44.98058780276034" lon="9.063593395528123"><ele>108.75</ele><time>2026-04-06T16:04:10Z</time></trkpt><trkpt lat="44.98054716314843" lon="9.063825162601631"><ele>109.0</ele><time>2026-04-06T16:04:11Z</time></trkpt><trkpt lat="44.98050275425786" lon="9.064068892173438"><ele>109.0</ele><time>2026-04-06T16:04:12Z</time></trkpt><trkpt lat="44.98046709558978" lon="9.064334934882273"><ele>109.0</ele><time>2026-04-06T16:04:13Z</time></trkpt><trkpt lat="44.980424659075254" lon="9.06463832252974"><ele>109.0</ele><time>2026-04-06T16:04:14Z</time></trkpt><trkpt lat="44.98038260514515" lon="9.0649650693856"><ele>109.5</ele><time>2026-04-06T16:04:15Z</time></trkpt><trkpt lat="44.98034284202879" lon="9.065283609021794"><ele>110.0</ele><time>2026-04-06T16:04:16Z</time></trkpt><trkpt lat="44.98029794407079" lon="9.065616450321908"><ele>110.0</ele><time>2026-04-06T16:04:17Z</time></trkpt><trkpt lat="44.980257097865284" lon="9.065917741252532"><ele>110.0</ele><time>2026-04-06T16:04:18Z</time></trkpt><trkpt lat="44.98022006296271" lon="9.066186962688771"><ele>110.0</ele><time>2026-04-06T16:04:19Z</time></trkpt><trkpt lat="44.98018620724457" lon="9.066442018123107"><ele>110.0</ele><time>2026-04-06T16:04:20Z</time></trkpt><trkpt lat="44.98015223307836" lon="9.066684218881797"><ele>110.0</ele><time>2026-04-06T16:04:21Z</time></trkpt><trkpt lat="44.98011090609153" lon="9.066935860829261"><ele>110.0</ele><time>2026-04-06T16:04:22Z</time></trkpt><trkpt lat="44.98005502135387" lon="9.067192206561398"><ele>110.66666666666666</ele><time>2026-04-06T16:04:23Z</time></trkpt><trkpt lat="44.979980637009675" lon="9.067441494054924"><ele>111.33333333333334</ele><time>2026-04-06T16:04:24Z</time></trkpt><trkpt lat="44.979896343267775" lon="9.06769037540967"><ele>112.0</ele><time>2026-04-06T16:04:25Z</time></trkpt><trkpt lat="44.97980896025228" lon="9.067952793539874"><ele>112.0</ele><time>2026-04-06T16:04:26Z</time></trkpt><trkpt lat="44.979720932445716" lon="9.068220351718818"><ele>112.0</ele><time>2026-04-06T16:04:27Z</time></trkpt><trkpt lat="44.979640790941055" lon="9.068489406742497"><ele>112.0</ele><time>2026-04-06T16:04:28Z</time></trkpt><trkpt lat="44.979561826924666" lon="9.06873403564814"><ele>112.0</ele><time>2026-04-06T16:04:29Z</time></trkpt><trkpt lat="44.97948861889385" lon="9.068965593371141"><ele>112.0</ele><time>2026-04-06T16:04:30Z</time></trkpt><trkpt lat="44.97942108884174" lon="9.069189883987887"><ele>112.0</ele><time>2026-04-06T16:04:31Z</time></trkpt><trkpt lat="44.979343914445316" lon="9.069396975182233"><ele>111.66666666666667</ele><time>2026-04-06T16:04:32Z</time></trkpt><trkpt lat="44.979237978084115" lon="9.069594428810412"><ele>111.33333333333334</ele><time>2026-04-06T16:04:33Z</time></trkpt><trkpt lat="44.97911358747208" lon="9.069764649199591"><ele>111.0</ele><time>2026-04-06T16:04:34Z</time></trkpt><trkpt lat="44.97899411586854" lon="9.069930295829346"><ele>112.0</ele><time>2026-04-06T16:04:35Z</time></trkpt><trkpt lat="44.978898121981274" lon="9.070116010327135"><ele>113.0</ele><time>2026-04-06T16:04:36Z</time></trkpt><trkpt lat="44.97881906620176" lon="9.070323285963038"><ele>114.0</ele><time>2026-04-06T16:04:37Z</time></trkpt><trkpt lat="44.97875234237917" lon="9.070544119862937"><ele>114.0</ele><time>2026-04-06T16:04:38Z</time></trkpt><trkpt lat="44.97868774967941" lon="9.070779649805088"><ele>114.0</ele><time>2026-04-06T16:04:39Z</time></trkpt><trkpt lat="44.978610455292376" lon="9.071028586259736"><ele>114.0</ele><time>2026-04-06T16:04:40Z</time></trkpt><trkpt lat="44.978521384286076" lon="9.071294239313724"><ele>114.0</ele><time>2026-04-06T16:04:41Z</time></trkpt><trkpt lat="44.978420982204646" lon="9.071591366888834"><ele>114.0</ele><time>2026-04-06T16:04:42Z</time></trkpt><trkpt lat="44.97831839572478" lon="9.07189400963452"><ele>115.0</ele><time>2026-04-06T16:04:43Z</time></trkpt><trkpt lat="44.9782370123776" lon="9.07215297062141"><ele>116.0</ele><time>2026-04-06T16:04:44Z</time></trkpt><trkpt lat="44.978170551486535" lon="9.07238891454501"><ele>117.0</ele><time>2026-04-06T16:04:45Z</time></trkpt><trkpt lat="44.978104195035435" lon="9.072616246217153"><ele>117.33333333333334</ele><time>2026-04-06T16:04:46Z</time></trkpt><trkpt lat="44.9780580731742" lon="9.072825500048317"><ele>117.66666666666667</ele><time>2026-04-06T16:04:47Z</time></trkpt><trkpt lat="44.97803139607747" lon="9.073036286039002"><ele>118.0</ele><time>2026-04-06T16:04:48Z</time></trkpt><trkpt lat="44.97802282863141" lon="9.073275575178414"><ele>118.0</ele><time>2026-04-06T16:04:49Z</time></trkpt><trkpt lat="44.97802373964729" lon="9.07354753632472"><ele>118.0</ele><time>2026-04-06T16:04:50Z</time></trkpt><trkpt lat="44.978024698807864" lon="9.073834844643043"><ele>118.0</ele><time>2026-04-06T16:04:51Z</time></trkpt><trkpt lat="44.97802829724564" lon="9.074078696991556"><ele>118.0</ele><time>2026-04-06T16:04:52Z</time></trkpt><trkpt lat="44.978003803463814" lon="9.074283562315637"><ele>118.0</ele><time>2026-04-06T16:04:53Z</time></trkpt><trkpt lat="44.97799446986274" lon="9.0744734222561"><ele>118.0</ele><time>2026-04-06T16:04:54Z</time></trkpt><trkpt lat="44.97793076679543" lon="9.07464189557457"><ele>118.0</ele><time>2026-04-06T16:04:55Z</time></trkpt><trkpt lat="44.977887954528086" lon="9.074822425535451"><ele>118.0</ele><time>2026-04-06T16:04:56Z</time></trkpt><trkpt lat="44.97784750888642" lon="9.074988249735435"><ele>118.0</ele><time>2026-04-06T16:04:57Z</time></trkpt><trkpt lat="44.97785127398127" lon="9.075159243091415"><ele>118.0</ele><time>2026-04-06T16:04:58Z</time></trkpt><trkpt lat="44.97789325147092" lon="9.075349415445105"><ele>118.0</ele><time>2026-04-06T16:04:59Z</time></trkpt><trkpt lat="44.97795843765181" lon="9.07554819410504"><ele>118.66666666666667</ele><time>2026-04-06T16:05:00Z</time></trkpt><trkpt lat="44.97803445320208" lon="9.075771298151274"><ele>119.33333333333334</ele><time>2026-04-06T16:05:01Z</time></trkpt><trkpt lat="44.978114106855905" lon="9.0759942044969"><ele>120.0</ele><time>2026-04-06T16:05:02Z</time></trkpt><trkpt lat="44.97821042294911" lon="9.076206840080125"><ele>120.0</ele><time>2026-04-06T16:05:03Z</time></trkpt><trkpt lat="44.97832180477944" lon="9.076432811195849"><ele>120.0</ele><time>2026-04-06T16:05:04Z</time></trkpt><trkpt lat="44.97841909767157" lon="9.076630772006265"><ele>120.0</ele><time>2026-04-06T16:05:05Z</time></trkpt><trkpt lat="44.97850692729215" lon="9.076799011075448"><ele>120.6</ele><time>2026-04-06T16:05:06Z</time></trkpt><trkpt lat="44.97858513759728" lon="9.076950965804208"><ele>121.2</ele><time>2026-04-06T16:05:07Z</time></trkpt><trkpt lat="44.97864907343452" lon="9.077078555321851"><ele>121.80000000000001</ele><time>2026-04-06T16:05:08Z</time></trkpt><trkpt lat="44.97869414310002" lon="9.077172963615231"><ele>122.4</ele><time>2026-04-06T16:05:09Z</time></trkpt><trkpt lat="44.978704866807526" lon="9.077331195534295"><ele>123.0</ele><time>2026-04-06T16:05:11Z</time></trkpt><trkpt lat="44.97878725793134" lon="9.077387372778475"><ele>123.0</ele><time>2026-04-06T16:05:13Z</time></trkpt><trkpt lat="44.9788499621324" lon="9.077320563525362"><ele>123.00000000000001</ele><time>2026-04-06T16:05:14Z</time></trkpt><trkpt lat="44.97890538188692" lon="9.077223895551558"><ele>123.00000000000001</ele><time>2026-04-06T16:05:15Z</time></trkpt><trkpt lat="44.97897735082668" lon="9.077097539391849"><ele>123.0</ele><time>2026-04-06T16:05:16Z</time></trkpt><trkpt lat="44.979058432837974" lon="9.076964115574938"><ele>123.0</ele><time>2026-04-06T16:05:17Z</time></trkpt><trkpt lat="44.97911790603373" lon="9.076847160926201"><ele>123.0</ele><time>2026-04-06T16:05:18Z</time></trkpt><trkpt lat="44.97917629772629" lon="9.076744375215466"><ele>123.0</ele><time>2026-04-06T16:05:19Z</time></trkpt><trkpt lat="44.97922874314412" lon="9.076644204122834"><ele>123.0</ele><time>2026-04-06T16:05:20Z</time></trkpt><trkpt lat="44.97929164650505" lon="9.076565313322364"><ele>123.0</ele><time>2026-04-06T16:05:21Z</time></trkpt><trkpt lat="44.97932794565363" lon="9.076466853982234"><ele>123.0</ele><time>2026-04-06T16:05:22Z</time></trkpt><trkpt lat="44.97938798652875" lon="9.076399028295649"><ele>123.0</ele><time>2026-04-06T16:05:23Z</time></trkpt><trkpt lat="44.97941608396654" lon="9.076317927887159"><ele>122.4</ele><time>2026-04-06T16:05:24Z</time></trkpt><trkpt lat="44.97946850065182" lon="9.076208344474553"><ele>121.80000000000001</ele><time>2026-04-06T16:05:26Z</time></trkpt><trkpt lat="44.97956100589551" lon="9.076096009040645"><ele>121.2</ele><time>2026-04-06T16:05:28Z</time></trkpt><trkpt lat="44.97960536625244" lon="9.076001027508307"><ele>120.6</ele><time>2026-04-06T16:05:29Z</time></trkpt><trkpt lat="44.97966597720106" lon="9.075892113634605"><ele>120.0</ele><time>2026-04-06T16:05:30Z</time></trkpt><trkpt lat="44.979734101195106" lon="9.075770949650478"><ele>120.0</ele><time>2026-04-06T16:05:31Z</time></trkpt><trkpt lat="44.97980328119038" lon="9.075633842122823"><ele>120.0</ele><time>2026-04-06T16:05:32Z</time></trkpt><trkpt lat="44.97988813465833" lon="9.075514292245586"><ele>120.0</ele><time>2026-04-06T16:05:33Z</time></trkpt><trkpt lat="44.97996805640171" lon="9.075370232144252"><ele>120.0</ele><time>2026-04-06T16:05:34Z</time></trkpt><trkpt lat="44.98005203402071" lon="9.07521724475507"><ele>119.0</ele><time>2026-04-06T16:05:35Z</time></trkpt><trkpt lat="44.980142308047206" lon="9.075052786557112"><ele>118.0</ele><time>2026-04-06T16:05:36Z</time></trkpt><trkpt lat="44.98023699857027" lon="9.074882395076424"><ele>117.0</ele><time>2026-04-06T16:05:37Z</time></trkpt><trkpt lat="44.98033214412899" lon="9.074719171845004"><ele>117.0</ele><time>2026-04-06T16:05:38Z</time></trkpt><trkpt lat="44.98041591642825" lon="9.074544903790736"><ele>117.0</ele><time>2026-04-06T16:05:39Z</time></trkpt><trkpt lat="44.98051517614418" lon="9.074393897987976"><ele>117.0</ele><time>2026-04-06T16:05:40Z</time></trkpt><trkpt lat="44.98061413977524" lon="9.074241114903609"><ele>117.0</ele><time>2026-04-06T16:05:41Z</time></trkpt><trkpt lat="44.98071830508607" lon="9.074083744478838"><ele>117.33333333333334</ele><time>2026-04-06T16:05:42Z</time></trkpt><trkpt lat="44.98083961789652" lon="9.073943234491216"><ele>117.66666666666667</ele><time>2026-04-06T16:05:43Z</time></trkpt><trkpt lat="44.98094471001122" lon="9.073778614102796"><ele>118.0</ele><time>2026-04-06T16:05:44Z</time></trkpt><trkpt lat="44.98106024331783" lon="9.073664795323626"><ele>116.75</ele><time>2026-04-06T16:05:45Z</time></trkpt><trkpt lat="44.98119018247958" lon="9.073609656502736"><ele>115.5</ele><time>2026-04-06T16:05:46Z</time></trkpt><trkpt lat="44.98132202815294" lon="9.07354975023786"><ele>114.25</ele><time>2026-04-06T16:05:47Z</time></trkpt><trkpt lat="44.981466475230484" lon="9.073606805151535"><ele>113.0</ele><time>2026-04-06T16:05:48Z</time></trkpt><trkpt lat="44.981623303339475" lon="9.073679875280304"><ele>113.33333333333333</ele><time>2026-04-06T16:05:49Z</time></trkpt><trkpt lat="44.98180244557331" lon="9.073776830835083"><ele>113.66666666666666</ele><time>2026-04-06T16:05:50Z</time></trkpt><trkpt lat="44.98200430268577" lon="9.07388236411069"><ele>114.0</ele><time>2026-04-06T16:05:51Z</time></trkpt><trkpt lat="44.98223593374293" lon="9.074003602982305"><ele>112.0</ele><time>2026-04-06T16:05:52Z</time></trkpt><trkpt lat="44.98249779687456" lon="9.074140665610845"><ele>110.0</ele><time>2026-04-06T16:05:53Z</time></trkpt><trkpt lat="44.982786996290805" lon="9.074292036515558"><ele>109.0</ele><time>2026-04-06T16:05:54Z</time></trkpt><trkpt lat="44.98309787020931" lon="9.074456454717623"><ele>108.0</ele><time>2026-04-06T16:05:55Z</time></trkpt><trkpt lat="44.983426701996024" lon="9.074633954570482"><ele>107.5</ele><time>2026-04-06T16:05:56Z</time></trkpt><trkpt lat="44.98375119709909" lon="9.074806732294991"><ele>107.0</ele><time>2026-04-06T16:05:57Z</time></trkpt><trkpt lat="44.98410436232771" lon="9.074994415877999"><ele>107.0</ele><time>2026-04-06T16:05:58Z</time></trkpt><trkpt lat="44.984475567790234" lon="9.075190182791715"><ele>107.0</ele><time>2026-04-06T16:05:59Z</time></trkpt><trkpt lat="44.984826700602156" lon="9.07535454878011"><ele>106.0</ele><time>2026-04-06T16:06:00Z</time></trkpt><trkpt lat="44.985123508146124" lon="9.075530993258358"><ele>105.0</ele><time>2026-04-06T16:06:01Z</time></trkpt><trkpt lat="44.985409518731" lon="9.07566093655863"><ele>105.5</ele><time>2026-04-06T16:06:02Z</time></trkpt><trkpt lat="44.985674411794385" lon="9.075800258709913"><ele>106.0</ele><time>2026-04-06T16:06:03Z</time></trkpt><trkpt lat="44.98592271324858" lon="9.075936716204382"><ele>106.0</ele><time>2026-04-06T16:06:04Z</time></trkpt><trkpt lat="44.986163051170784" lon="9.076066545704066"><ele>106.0</ele><time>2026-04-06T16:06:05Z</time></trkpt><trkpt lat="44.986385397478735" lon="9.076184882683506"><ele>106.0</ele><time>2026-04-06T16:06:06Z</time></trkpt><trkpt lat="44.98653054149119" lon="9.076281780458135"><ele>106.0</ele><time>2026-04-06T16:06:07Z</time></trkpt><trkpt lat="44.98669994385643" lon="9.076363892381327"><ele>106.0</ele><time>2026-04-06T16:06:08Z</time></trkpt><trkpt lat="44.98687105896154" lon="9.076415098820194"><ele>104.66666666666667</ele><time>2026-04-06T16:06:09Z</time></trkpt><trkpt lat="44.98704962043166" lon="9.076429856593915"><ele>103.33333333333334</ele><time>2026-04-06T16:06:10Z</time></trkpt><trkpt lat="44.987229729391046" lon="9.076400475559817"><ele>102.0</ele><time>2026-04-06T16:06:11Z</time></trkpt><trkpt lat="44.9874121937205" lon="9.076343682099042"><ele>102.0</ele><time>2026-04-06T16:06:12Z</time></trkpt><trkpt lat="44.987599908735874" lon="9.076256260938685"><ele>102.0</ele><time>2026-04-06T16:06:13Z</time></trkpt><trkpt lat="44.987806693970086" lon="9.07618732781732"><ele>102.0</ele><time>2026-04-06T16:06:14Z</time></trkpt><trkpt lat="44.98803346970995" lon="9.07609828669543"><ele>102.0</ele><time>2026-04-06T16:06:15Z</time></trkpt><trkpt lat="44.98827754256257" lon="9.076003044160313"><ele>102.0</ele><time>2026-04-06T16:06:16Z</time></trkpt><trkpt lat="44.98852795716655" lon="9.07590534755681"><ele>101.5</ele><time>2026-04-06T16:06:17Z</time></trkpt><trkpt lat="44.98877815885517" lon="9.075808658577065"><ele>101.0</ele><time>2026-04-06T16:06:18Z</time></trkpt><trkpt lat="44.98902876331235" lon="9.075688871017551"><ele>100.0</ele><time>2026-04-06T16:06:19Z</time></trkpt><trkpt lat="44.989287300231176" lon="9.075588771268247"><ele>99.0</ele><time>2026-04-06T16:06:20Z</time></trkpt><trkpt lat="44.989545784668124" lon="9.075488634278567"><ele>99.0</ele><time>2026-04-06T16:06:21Z</time></trkpt><trkpt lat="44.98980425809197" lon="9.075387550612925"><ele>99.0</ele><time>2026-04-06T16:06:22Z</time></trkpt><trkpt lat="44.9900687381119" lon="9.075308959099443"><ele>98.5</ele><time>2026-04-06T16:06:23Z</time></trkpt><trkpt lat="44.990323563111104" lon="9.075209755478932"><ele>98.0</ele><time>2026-04-06T16:06:24Z</time></trkpt><trkpt lat="44.99056394133296" lon="9.075116175939801"><ele>98.0</ele><time>2026-04-06T16:06:25Z</time></trkpt><trkpt lat="44.99080243218972" lon="9.074999962753976"><ele>98.0</ele><time>2026-04-06T16:06:26Z</time></trkpt><trkpt lat="44.9910708271026" lon="9.074897882450005"><ele>96.0</ele><time>2026-04-06T16:06:27Z</time></trkpt><trkpt lat="44.99131092246398" lon="9.074808942599322"><ele>94.0</ele><time>2026-04-06T16:06:28Z</time></trkpt><trkpt lat="44.991528758869585" lon="9.074727201714166"><ele>94.33333333333333</ele><time>2026-04-06T16:06:29Z</time></trkpt><trkpt lat="44.99172786987477" lon="9.074645579864816"><ele>94.66666666666667</ele><time>2026-04-06T16:06:30Z</time></trkpt><trkpt lat="44.99191734521743" lon="9.074566240347183"><ele>95.0</ele><time>2026-04-06T16:06:31Z</time></trkpt><trkpt lat="44.992098090295215" lon="9.074497640524678"><ele>95.0</ele><time>2026-04-06T16:06:32Z</time></trkpt><trkpt lat="44.99227631873084" lon="9.074482441904427"><ele>95.0</ele><time>2026-04-06T16:06:33Z</time></trkpt><trkpt lat="44.992455628714296" lon="9.074482865685562"><ele>95.0</ele><time>2026-04-06T16:06:34Z</time></trkpt><trkpt lat="44.99263677791773" lon="9.07451671394824"><ele>94.5</ele><time>2026-04-06T16:06:35Z</time></trkpt><trkpt lat="44.99284922937952" lon="9.074566694654543"><ele>94.0</ele><time>2026-04-06T16:06:36Z</time></trkpt><trkpt lat="44.99309140056869" lon="9.074625203259282"><ele>93.5</ele><time>2026-04-06T16:06:37Z</time></trkpt><trkpt lat="44.99336317332561" lon="9.074687997524913"><ele>93.0</ele><time>2026-04-06T16:06:38Z</time></trkpt><trkpt lat="44.99366265561041" lon="9.074757078935953"><ele>93.0</ele><time>2026-04-06T16:06:39Z</time></trkpt><trkpt lat="44.993989969726826" lon="9.074812908576646"><ele>93.0</ele><time>2026-04-06T16:06:40Z</time></trkpt><trkpt lat="44.99433682615922" lon="9.074889586828515"><ele>93.0</ele><time>2026-04-06T16:06:41Z</time></trkpt><trkpt lat="44.99464626452717" lon="9.07498356543596"><ele>93.0</ele><time>2026-04-06T16:06:42Z</time></trkpt><trkpt lat="44.99492876624116" lon="9.075048618022267"><ele>92.0</ele><time>2026-04-06T16:06:43Z</time></trkpt><trkpt lat="44.995192740850996" lon="9.075108822160125"><ele>91.0</ele><time>2026-04-06T16:06:44Z</time></trkpt><trkpt lat="44.99543901150913" lon="9.075163741232194"><ele>91.0</ele><time>2026-04-06T16:06:45Z</time></trkpt><trkpt lat="44.995670391774674" lon="9.075215514351582"><ele>91.0</ele><time>2026-04-06T16:06:46Z</time></trkpt><trkpt lat="44.99588986357618" lon="9.07526481885384"><ele>90.66666666666666</ele><time>2026-04-06T16:06:47Z</time></trkpt><trkpt lat="44.996092047499474" lon="9.075309877401926"><ele>90.33333333333333</ele><time>2026-04-06T16:06:48Z</time></trkpt><trkpt lat="44.99628330429485" lon="9.075353597048661"><ele>90.0</ele><time>2026-04-06T16:06:49Z</time></trkpt><trkpt lat="44.99646876649256" lon="9.07539728206788"><ele>90.0</ele><time>2026-04-06T16:06:50Z</time></trkpt><trkpt lat="44.996645022064236" lon="9.075438688276057"><ele>90.0</ele><time>2026-04-06T16:06:51Z</time></trkpt><trkpt lat="44.99681122548173" lon="9.07547762116022"><ele>90.0</ele><time>2026-04-06T16:06:52Z</time></trkpt><trkpt lat="44.99695974324619" lon="9.075512410676433"><ele>89.8</ele><time>2026-04-06T16:06:53Z</time></trkpt><trkpt lat="44.99708770432331" lon="9.075546497284721"><ele>89.6</ele><time>2026-04-06T16:06:54Z</time></trkpt><trkpt lat="44.997185713887525" lon="9.075607438523678"><ele>89.4</ele><time>2026-04-06T16:06:55Z</time></trkpt><trkpt lat="44.99725500857282" lon="9.075676091805565"><ele>89.2</ele><time>2026-04-06T16:06:56Z</time></trkpt><trkpt lat="44.99728987807751" lon="9.075782768202304"><ele>89.0</ele><time>2026-04-06T16:06:57Z</time></trkpt><trkpt lat="44.99731217644611" lon="9.07590069293494"><ele>88.75</ele><time>2026-04-06T16:06:58Z</time></trkpt><trkpt lat="44.99734915731903" lon="9.076029313288329"><ele>88.5</ele><time>2026-04-06T16:06:59Z</time></trkpt><trkpt lat="44.997346740761664" lon="9.076213859740932"><ele>88.25</ele><time>2026-04-06T16:07:00Z</time></trkpt><trkpt lat="44.997345679316744" lon="9.076444150426497"><ele>88.0</ele><time>2026-04-06T16:07:01Z</time></trkpt><trkpt lat="44.997350417652406" lon="9.076727828021962"><ele>87.5</ele><time>2026-04-06T16:07:02Z</time></trkpt><trkpt lat="44.99735867089598" lon="9.077063365117736"><ele>87.0</ele><time>2026-04-06T16:07:03Z</time></trkpt><trkpt lat="44.99737001523584" lon="9.077433227042588"><ele>87.5</ele><time>2026-04-06T16:07:04Z</time></trkpt><trkpt lat="44.99738009770658" lon="9.077806078010983"><ele>88.0</ele><time>2026-04-06T16:07:05Z</time></trkpt><trkpt lat="44.99739458831047" lon="9.078189618883522"><ele>88.0</ele><time>2026-04-06T16:07:06Z</time></trkpt><trkpt lat="44.9974105708243" lon="9.07863201342185"><ele>88.0</ele><time>2026-04-06T16:07:07Z</time></trkpt><trkpt lat="44.99742696916248" lon="9.079120393734911"><ele>88.0</ele><time>2026-04-06T16:07:08Z</time></trkpt><trkpt lat="44.99744626442507" lon="9.079641143138538"><ele>88.0</ele><time>2026-04-06T16:07:09Z</time></trkpt><trkpt lat="44.99746533258449" lon="9.080150076931632"><ele>88.0</ele><time>2026-04-06T16:07:10Z</time></trkpt><trkpt lat="44.997482854910416" lon="9.080620256793003"><ele>88.0</ele><time>2026-04-06T16:07:11Z</time></trkpt><trkpt lat="44.99749387471598" lon="9.081035940344808"><ele>87.0</ele><time>2026-04-06T16:07:12Z</time></trkpt><trkpt lat="44.99750475319907" lon="9.081407539236064"><ele>86.0</ele><time>2026-04-06T16:07:13Z</time></trkpt><trkpt lat="44.997502534914844" lon="9.081759321241144"><ele>85.5</ele><time>2026-04-06T16:07:14Z</time></trkpt><trkpt lat="44.997511794280776" lon="9.082098098416504"><ele>85.0</ele><time>2026-04-06T16:07:15Z</time></trkpt><trkpt lat="44.99753606895131" lon="9.08241409238634"><ele>85.0</ele><time>2026-04-06T16:07:16Z</time></trkpt><trkpt lat="44.99753369172104" lon="9.082711027358245"><ele>85.0</ele><time>2026-04-06T16:07:17Z</time></trkpt><trkpt lat="44.99753431384984" lon="9.083015684858216"><ele>85.0</ele><time>2026-04-06T16:07:18Z</time></trkpt><trkpt lat="44.99753941040622" lon="9.083337382972772"><ele>85.5</ele><time>2026-04-06T16:07:19Z</time></trkpt><trkpt lat="44.99754700204876" lon="9.083667304638935"><ele>86.0</ele><time>2026-04-06T16:07:20Z</time></trkpt><trkpt lat="44.99755714589787" lon="9.084003074959396"><ele>85.5</ele><time>2026-04-06T16:07:21Z</time></trkpt><trkpt lat="44.99756879496473" lon="9.084345324670409"><ele>85.0</ele><time>2026-04-06T16:07:22Z</time></trkpt><trkpt lat="44.99758015817171" lon="9.084692086724397"><ele>84.5</ele><time>2026-04-06T16:07:23Z</time></trkpt><trkpt lat="44.99759125740411" lon="9.085041463440447"><ele>84.0</ele><time>2026-04-06T16:07:24Z</time></trkpt><trkpt lat="44.99760563634714" lon="9.085395729220176"><ele>84.0</ele><time>2026-04-06T16:07:25Z</time></trkpt><trkpt lat="44.997634315510695" lon="9.085759619321431"><ele>84.0</ele><time>2026-04-06T16:07:26Z</time></trkpt><trkpt lat="44.99765693498547" lon="9.086130225117191"><ele>84.5</ele><time>2026-04-06T16:07:27Z</time></trkpt><trkpt lat="44.99768476763456" lon="9.086503491392971"><ele>85.0</ele><time>2026-04-06T16:07:28Z</time></trkpt><trkpt lat="44.997719002750145" lon="9.086876962175563"><ele>85.0</ele><time>2026-04-06T16:07:29Z</time></trkpt><trkpt lat="44.99794735229184" lon="9.087231366144035"><ele>85.0</ele><time>2026-04-06T16:07:30Z</time></trkpt><trkpt lat="44.99806857200445" lon="9.087620088974735"><ele>85.5</ele><time>2026-04-06T16:07:31Z</time></trkpt><trkpt lat="44.998202408903374" lon="9.088041137414738"><ele>86.0</ele><time>2026-04-06T16:07:32Z</time></trkpt><trkpt lat="44.99833778465345" lon="9.088480640616723"><ele>85.0</ele><time>2026-04-06T16:07:33Z</time></trkpt><trkpt lat="44.998480688017885" lon="9.088944835652812"><ele>84.0</ele><time>2026-04-06T16:07:34Z</time></trkpt><trkpt lat="44.99862909711912" lon="9.089439472580976"><ele>84.5</ele><time>2026-04-06T16:07:35Z</time></trkpt><trkpt lat="44.99878701387469" lon="9.089962527291556"><ele>85.0</ele><time>2026-04-06T16:07:36Z</time></trkpt><trkpt lat="44.99893733102462" lon="9.090467670292457"><ele>85.5</ele><time>2026-04-06T16:07:37Z</time></trkpt><trkpt lat="44.99907524300251" lon="9.090934555592984"><ele>86.0</ele><time>2026-04-06T16:07:38Z</time></trkpt><trkpt lat="44.99920948273599" lon="9.09138318762906"><ele>85.5</ele><time>2026-04-06T16:07:39Z</time></trkpt><trkpt lat="44.999341559534884" lon="9.091820366668179"><ele>85.0</ele><time>2026-04-06T16:07:40Z</time></trkpt><trkpt lat="44.9994732823338" lon="9.09225400911042"><ele>85.0</ele><time>2026-04-06T16:07:41Z</time></trkpt><trkpt lat="44.999608683417286" lon="9.092697010762123"><ele>85.0</ele><time>2026-04-06T16:07:42Z</time></trkpt><trkpt lat="44.99975482570012" lon="9.093177268271042"><ele>86.0</ele><time>2026-04-06T16:07:43Z</time></trkpt><trkpt lat="44.999915053355735" lon="9.09369310052651"><ele>87.0</ele><time>2026-04-06T16:07:44Z</time></trkpt><trkpt lat="45.00007408190644" lon="9.094211268600308"><ele>87.0</ele><time>2026-04-06T16:07:45Z</time></trkpt><trkpt lat="45.00023537992543" lon="9.094742167713786"><ele>87.0</ele><time>2026-04-06T16:07:46Z</time></trkpt><trkpt lat="45.000401712947" lon="9.0952900662074"><ele>86.0</ele><time>2026-04-06T16:07:47Z</time></trkpt><trkpt lat="45.00055403100355" lon="9.095792453299714"><ele>85.0</ele><time>2026-04-06T16:07:48Z</time></trkpt><trkpt lat="45.00069483440795" lon="9.096243048927803"><ele>86.0</ele><time>2026-04-06T16:07:49Z</time></trkpt><trkpt lat="45.000829732926526" lon="9.096676026212153"><ele>87.0</ele><time>2026-04-06T16:07:50Z</time></trkpt><trkpt lat="45.00096676310163" lon="9.097080141487858"><ele>87.5</ele><time>2026-04-06T16:07:51Z</time></trkpt><trkpt lat="45.00111640647197" lon="9.097466679015536"><ele>88.0</ele><time>2026-04-06T16:07:52Z</time></trkpt><trkpt lat="45.001276963522415" lon="9.097845341368714"><ele>88.0</ele><time>2026-04-06T16:07:53Z</time></trkpt><trkpt lat="45.0014597599903" lon="9.098213179744784"><ele>88.0</ele><time>2026-04-06T16:07:54Z</time></trkpt><trkpt lat="45.00165732879089" lon="9.09859455904901"><ele>88.0</ele><time>2026-04-06T16:07:55Z</time></trkpt><trkpt lat="45.00187484718775" lon="9.098981168790461"><ele>88.0</ele><time>2026-04-06T16:07:56Z</time></trkpt><trkpt lat="45.00209553762224" lon="9.099341827060409"><ele>88.0</ele><time>2026-04-06T16:07:57Z</time></trkpt><trkpt lat="45.002312460976036" lon="9.099667804589957"><ele>88.0</ele><time>2026-04-06T16:07:58Z</time></trkpt><trkpt lat="45.002518702918714" lon="9.09995404101332"><ele>87.5</ele><time>2026-04-06T16:07:59Z</time></trkpt><trkpt lat="45.002715570958586" lon="9.100218056348469"><ele>87.0</ele><time>2026-04-06T16:08:00Z</time></trkpt><trkpt lat="45.00289001725573" lon="9.10045247382495"><ele>87.0</ele><time>2026-04-06T16:08:01Z</time></trkpt><trkpt lat="45.00303512870265" lon="9.10065330370354"><ele>87.0</ele><time>2026-04-06T16:08:02Z</time></trkpt><trkpt lat="45.00315724876516" lon="9.100826637163978"><ele>87.0</ele><time>2026-04-06T16:08:03Z</time></trkpt><trkpt lat="45.003265098931216" lon="9.100977329065438"><ele>87.6</ele><time>2026-04-06T16:08:04Z</time></trkpt><trkpt lat="45.00335421613987" lon="9.101095955655067"><ele>88.19999999999999</ele><time>2026-04-06T16:08:05Z</time></trkpt><trkpt lat="45.0034363592708" lon="9.101210363266928"><ele>88.8</ele><time>2026-04-06T16:08:06Z</time></trkpt><trkpt lat="45.00350791096765" lon="9.101305524965037"><ele>89.4</ele><time>2026-04-06T16:08:07Z</time></trkpt><trkpt lat="45.00357789667736" lon="9.101398784731245"><ele>90.0</ele><time>2026-04-06T16:08:08Z</time></trkpt><trkpt lat="45.0036448726925" lon="9.101488767840204"><ele>90.0</ele><time>2026-04-06T16:08:09Z</time></trkpt><trkpt lat="45.00370532524233" lon="9.101570117455406"><ele>90.0</ele><time>2026-04-06T16:08:10Z</time></trkpt><trkpt lat="45.00376240722069" lon="9.101647425744737"><ele>90.0</ele><time>2026-04-06T16:08:11Z</time></trkpt><trkpt lat="45.003809049789176" lon="9.101715755371854"><ele>90.0</ele><time>2026-04-06T16:08:12Z</time></trkpt><trkpt lat="45.00386716336753" lon="9.101796499755329"><ele>90.0</ele><time>2026-04-06T16:08:13Z</time></trkpt><trkpt lat="45.00395797293214" lon="9.10192274740645"><ele>90.0</ele><time>2026-04-06T16:08:14Z</time></trkpt><trkpt lat="45.00406412547507" lon="9.102087302922735"><ele>90.0</ele><time>2026-04-06T16:08:15Z</time></trkpt><trkpt lat="45.0041737717601" lon="9.10224881514356"><ele>90.0</ele><time>2026-04-06T16:08:16Z</time></trkpt><trkpt lat="45.00428277068375" lon="9.10240457069169"><ele>90.0</ele><time>2026-04-06T16:08:17Z</time></trkpt><trkpt lat="45.004400674604604" lon="9.1025781448482"><ele>90.33333333333333</ele><time>2026-04-06T16:08:18Z</time></trkpt><trkpt lat="45.004529164930815" lon="9.102765078363703"><ele>90.66666666666666</ele><time>2026-04-06T16:08:19Z</time></trkpt><trkpt lat="45.00466672946109" lon="9.10296090613236"><ele>91.0</ele><time>2026-04-06T16:08:20Z</time></trkpt><trkpt lat="45.004811625047694" lon="9.10315637479313"><ele>91.0</ele><time>2026-04-06T16:08:21Z</time></trkpt><trkpt lat="45.00494972641492" lon="9.103342836041461"><ele>91.0</ele><time>2026-04-06T16:08:22Z</time></trkpt><trkpt lat="45.005091659442385" lon="9.103534752066578"><ele>91.0</ele><time>2026-04-06T16:08:23Z</time></trkpt><trkpt lat="45.005239269027264" lon="9.103741089661336"><ele>91.0</ele><time>2026-04-06T16:08:24Z</time></trkpt><trkpt lat="45.00538874471058" lon="9.103955808362828"><ele>91.0</ele><time>2026-04-06T16:08:25Z</time></trkpt><trkpt lat="45.00555966584887" lon="9.104198086483773"><ele>91.5</ele><time>2026-04-06T16:08:26Z</time></trkpt><trkpt lat="45.005743556506744" lon="9.104452716254572"><ele>92.0</ele><time>2026-04-06T16:08:27Z</time></trkpt><trkpt lat="45.005903975687325" lon="9.104681647325092"><ele>92.0</ele><time>2026-04-06T16:08:28Z</time></trkpt><trkpt lat="45.00605367938948" lon="9.104887122501488"><ele>92.0</ele><time>2026-04-06T16:08:29Z</time></trkpt><trkpt lat="45.006192400034855" lon="9.105073682048657"><ele>92.0</ele><time>2026-04-06T16:08:30Z</time></trkpt><trkpt lat="45.00631875463473" lon="9.105252750354982"><ele>92.33333333333334</ele><time>2026-04-06T16:08:31Z</time></trkpt><trkpt lat="45.00644048504982" lon="9.105419482925983"><ele>92.66666666666667</ele><time>2026-04-06T16:08:32Z</time></trkpt><trkpt lat="45.00656105258003" lon="9.105590228531971"><ele>93.0</ele><time>2026-04-06T16:08:33Z</time></trkpt><trkpt lat="45.00667380287566" lon="9.105762074038253"><ele>93.0</ele><time>2026-04-06T16:08:34Z</time></trkpt><trkpt lat="45.00677269046464" lon="9.10593391654084"><ele>93.0</ele><time>2026-04-06T16:08:35Z</time></trkpt><trkpt lat="45.00685607711965" lon="9.106101791401649"><ele>93.0</ele><time>2026-04-06T16:08:36Z</time></trkpt><trkpt lat="45.00693264652458" lon="9.106252220601805"><ele>93.0</ele><time>2026-04-06T16:08:37Z</time></trkpt><trkpt lat="45.00699481197626" lon="9.106387863730834"><ele>93.0</ele><time>2026-04-06T16:08:38Z</time></trkpt><trkpt lat="45.00703616916528" lon="9.10651787279052"><ele>93.0</ele><time>2026-04-06T16:08:39Z</time></trkpt><trkpt lat="45.007069601787975" lon="9.106625373330193"><ele>93.0</ele><time>2026-04-06T16:08:40Z</time></trkpt><trkpt lat="45.007126898335024" lon="9.106681611823499"><ele>93.0</ele><time>2026-04-06T16:08:41Z</time></trkpt><trkpt lat="45.007203115696136" lon="9.10667571072002"><ele>93.0</ele><time>2026-04-06T16:08:42Z</time></trkpt><trkpt lat="45.00728371195678" lon="9.106618756699385"><ele>93.0</ele><time>2026-04-06T16:08:43Z</time></trkpt><trkpt lat="45.00736645813504" lon="9.106520144720522"><ele>93.0</ele><time>2026-04-06T16:08:44Z</time></trkpt><trkpt lat="45.007476440696784" lon="9.106376884489153"><ele>93.0</ele><time>2026-04-06T16:08:45Z</time></trkpt><trkpt lat="45.00761597972709" lon="9.106244443039104"><ele>93.0</ele><time>2026-04-06T16:08:46Z</time></trkpt><trkpt lat="45.00777535466957" lon="9.1061073968091"><ele>92.33333333333333</ele><time>2026-04-06T16:08:47Z</time></trkpt><trkpt lat="45.0079379652367" lon="9.105967545957727"><ele>91.66666666666666</ele><time>2026-04-06T16:08:48Z</time></trkpt><trkpt lat="45.00809327601651" lon="9.10583244259029"><ele>91.0</ele><time>2026-04-06T16:08:49Z</time></trkpt><trkpt lat="45.00823593536926" lon="9.105714010428263"><ele>91.0</ele><time>2026-04-06T16:08:50Z</time></trkpt><trkpt lat="45.008367880677405" lon="9.10561436538034"><ele>91.0</ele><time>2026-04-06T16:08:51Z</time></trkpt><trkpt lat="45.00850216098035" lon="9.10552999165376"><ele>91.0</ele><time>2026-04-06T16:08:52Z</time></trkpt><trkpt lat="45.008635123654855" lon="9.105489832189921"><ele>91.0</ele><time>2026-04-06T16:08:53Z</time></trkpt><trkpt lat="45.00876887570167" lon="9.10550429840801"><ele>91.0</ele><time>2026-04-06T16:08:54Z</time></trkpt><trkpt lat="45.00890514777884" lon="9.105570770310996"><ele>91.0</ele><time>2026-04-06T16:08:55Z</time></trkpt><trkpt lat="45.009051380018114" lon="9.105632203103209"><ele>91.0</ele><time>2026-04-06T16:08:56Z</time></trkpt><trkpt lat="45.009194051867325" lon="9.105713303265972"><ele>91.25</ele><time>2026-04-06T16:08:57Z</time></trkpt><trkpt lat="45.00932550142355" lon="9.105775503454336"><ele>91.5</ele><time>2026-04-06T16:08:58Z</time></trkpt><trkpt lat="45.00945327221734" lon="9.10581603877176"><ele>91.75</ele><time>2026-04-06T16:08:59Z</time></trkpt><trkpt lat="45.00957590000516" lon="9.105822521391131"><ele>92.0</ele><time>2026-04-06T16:09:00Z</time></trkpt><trkpt lat="45.009689187105835" lon="9.105787192748942"><ele>91.75</ele><time>2026-04-06T16:09:01Z</time></trkpt><trkpt lat="45.00978860232943" lon="9.105717117548807"><ele>91.5</ele><time>2026-04-06T16:09:02Z</time></trkpt><trkpt lat="45.00987681821971" lon="9.10560772447627"><ele>91.25</ele><time>2026-04-06T16:09:03Z</time></trkpt><trkpt lat="45.00995728366105" lon="9.105484806634058"><ele>91.0</ele><time>2026-04-06T16:09:04Z</time></trkpt><trkpt lat="45.01002085009093" lon="9.10536646368053"><ele>90.0</ele><time>2026-04-06T16:09:05Z</time></trkpt><trkpt lat="45.01007278931748" lon="9.10528226455791"><ele>89.0</ele><time>2026-04-06T16:09:06Z</time></trkpt><trkpt lat="45.01022780221212" lon="9.105268425826505"><ele>88.0</ele><time>2026-04-06T16:09:08Z</time></trkpt><trkpt lat="45.01031444629268" lon="9.105333175193135"><ele>87.0</ele><time>2026-04-06T16:09:09Z</time></trkpt><trkpt lat="45.01040341326004" lon="9.105409986444538"><ele>86.0</ele><time>2026-04-06T16:09:10Z</time></trkpt><trkpt lat="45.01043091818181" lon="9.105642928229171"><ele>86.0</ele><time>2026-04-06T16:09:11Z</time></trkpt><trkpt lat="45.010528438566766" lon="9.105838701239044"><ele>86.0</ele><time>2026-04-06T16:09:12Z</time></trkpt><trkpt lat="45.010621886807115" lon="9.106067761268838"><ele>86.0</ele><time>2026-04-06T16:09:13Z</time></trkpt><trkpt lat="45.01072600812931" lon="9.106292579084938"><ele>85.66666666666667</ele><time>2026-04-06T16:09:14Z</time></trkpt><trkpt lat="45.01086782618171" lon="9.10653176260908"><ele>85.33333333333333</ele><time>2026-04-06T16:09:15Z</time></trkpt><trkpt lat="45.01102186143993" lon="9.106748021439426"><ele>85.0</ele><time>2026-04-06T16:09:16Z</time></trkpt><trkpt lat="45.01119617327888" lon="9.106961137524134"><ele>85.0</ele><time>2026-04-06T16:09:17Z</time></trkpt><trkpt lat="45.01138800482752" lon="9.107150709565119"><ele>85.0</ele><time>2026-04-06T16:09:18Z</time></trkpt><trkpt lat="45.011586343663474" lon="9.107330119111397"><ele>85.33333333333333</ele><time>2026-04-06T16:09:19Z</time></trkpt><trkpt lat="45.011774373406865" lon="9.107488821762285"><ele>85.66666666666667</ele><time>2026-04-06T16:09:20Z</time></trkpt><trkpt lat="45.011963021271356" lon="9.107621866748207"><ele>86.0</ele><time>2026-04-06T16:09:21Z</time></trkpt><trkpt lat="45.01215020550395" lon="9.107716348921262"><ele>86.0</ele><time>2026-04-06T16:09:22Z</time></trkpt><trkpt lat="45.01242048039968" lon="9.107784968395302"><ele>86.0</ele><time>2026-04-06T16:09:23Z</time></trkpt><trkpt lat="45.01264287124164" lon="9.107839046911316"><ele>85.66666666666667</ele><time>2026-04-06T16:09:24Z</time></trkpt><trkpt lat="45.01286154108527" lon="9.107881014541812"><ele>85.33333333333333</ele><time>2026-04-06T16:09:25Z</time></trkpt><trkpt lat="45.01307554793635" lon="9.107909461248946"><ele>85.0</ele><time>2026-04-06T16:09:26Z</time></trkpt><trkpt lat="45.01328700105391" lon="9.107931905752105"><ele>85.0</ele><time>2026-04-06T16:09:27Z</time></trkpt><trkpt lat="45.013495206757156" lon="9.107953696064659"><ele>85.0</ele><time>2026-04-06T16:09:28Z</time></trkpt><trkpt lat="45.01371411917307" lon="9.107982342513354"><ele>85.0</ele><time>2026-04-06T16:09:29Z</time></trkpt><trkpt lat="45.01396086712771" lon="9.108032335150881"><ele>84.5</ele><time>2026-04-06T16:09:30Z</time></trkpt><trkpt lat="45.01423653285753" lon="9.10808153654385"><ele>84.0</ele><time>2026-04-06T16:09:31Z</time></trkpt><trkpt lat="45.014485420560376" lon="9.108112275451736"><ele>84.0</ele><time>2026-04-06T16:09:33Z</time></trkpt><trkpt lat="45.01466712375356" lon="9.10813786569622"><ele>84.0</ele><time>2026-04-06T16:09:34Z</time></trkpt><trkpt lat="45.01484382679542" lon="9.108162751749653"><ele>84.0</ele><time>2026-04-06T16:09:35Z</time></trkpt><trkpt lat="45.01504577382432" lon="9.10819119304462"><ele>83.5</ele><time>2026-04-06T16:09:36Z</time></trkpt><trkpt lat="45.01527331219656" lon="9.108223601773732"><ele>83.0</ele><time>2026-04-06T16:09:37Z</time></trkpt><trkpt lat="45.01551829607212" lon="9.108258820807603"><ele>83.0</ele><time>2026-04-06T16:09:38Z</time></trkpt><trkpt lat="45.015779567269014" lon="9.108296381358617"><ele>83.0</ele><time>2026-04-06T16:09:39Z</time></trkpt><trkpt lat="45.01603950189799" lon="9.108333749656662"><ele>82.0</ele><time>2026-04-06T16:09:40Z</time></trkpt><trkpt lat="45.01628515330838" lon="9.108369066682545"><ele>81.0</ele><time>2026-04-06T16:09:41Z</time></trkpt><trkpt lat="45.01652524120744" lon="9.108403581876594"><ele>81.5</ele><time>2026-04-06T16:09:42Z</time></trkpt><trkpt lat="45.01677812908957" lon="9.1084399372032"><ele>82.0</ele><time>2026-04-06T16:09:43Z</time></trkpt><trkpt lat="45.01705419808866" lon="9.108479625062943"><ele>82.0</ele><time>2026-04-06T16:09:44Z</time></trkpt><trkpt lat="45.017342143993694" lon="9.108521020355356"><ele>82.0</ele><time>2026-04-06T16:09:45Z</time></trkpt><trkpt lat="45.01763619372732" lon="9.108563293137891"><ele>82.0</ele><time>2026-04-06T16:09:46Z</time></trkpt><trkpt lat="45.01794085050186" lon="9.108607224866565"><ele>82.0</ele><time>2026-04-06T16:09:47Z</time></trkpt><trkpt lat="45.018274160584376" lon="9.108655437205579"><ele>82.0</ele><time>2026-04-06T16:09:48Z</time></trkpt><trkpt lat="45.018638601153924" lon="9.10870713028134"><ele>82.0</ele><time>2026-04-06T16:09:49Z</time></trkpt><trkpt lat="45.01901079636065" lon="9.108759225802215"><ele>81.5</ele><time>2026-04-06T16:09:50Z</time></trkpt><trkpt lat="45.01937403938505" lon="9.108812414782514"><ele>81.0</ele><time>2026-04-06T16:09:51Z</time></trkpt><trkpt lat="45.01971660009904" lon="9.108862168070246"><ele>81.0</ele><time>2026-04-06T16:09:52Z</time></trkpt><trkpt lat="45.02007447869391" lon="9.108913326613344"><ele>81.0</ele><time>2026-04-06T16:09:53Z</time></trkpt><trkpt lat="45.02045572308396" lon="9.108942659069545"><ele>80.5</ele><time>2026-04-06T16:09:54Z</time></trkpt><trkpt lat="45.02085765778101" lon="9.109006128568673"><ele>80.0</ele><time>2026-04-06T16:09:55Z</time></trkpt><trkpt lat="45.021258482122334" lon="9.109063649671251"><ele>80.5</ele><time>2026-04-06T16:09:56Z</time></trkpt><trkpt lat="45.0216672759985" lon="9.10912226385811"><ele>81.0</ele><time>2026-04-06T16:09:57Z</time></trkpt><trkpt lat="45.02208310499564" lon="9.109176396511602"><ele>80.0</ele><time>2026-04-06T16:09:58Z</time></trkpt><trkpt lat="45.022507825518794" lon="9.109231453134242"><ele>79.0</ele><time>2026-04-06T16:09:59Z</time></trkpt><trkpt lat="45.022942979620886" lon="9.109291370478667"><ele>77.0</ele><time>2026-04-06T16:10:00Z</time></trkpt><trkpt lat="45.02336837574201" lon="9.109355617705543"><ele>75.0</ele><time>2026-04-06T16:10:01Z</time></trkpt><trkpt lat="45.02375809028943" lon="9.109410975140758"><ele>75.0</ele><time>2026-04-06T16:10:02Z</time></trkpt><trkpt lat="45.024118928192344" lon="9.109468460144127"><ele>75.0</ele><time>2026-04-06T16:10:03Z</time></trkpt><trkpt lat="45.02445283864404" lon="9.109517536597233"><ele>74.5</ele><time>2026-04-06T16:10:04Z</time></trkpt><trkpt lat="45.02477329329264" lon="9.109569507933404"><ele>74.0</ele><time>2026-04-06T16:10:05Z</time></trkpt><trkpt lat="45.02506871886096" lon="9.109621627916177"><ele>73.5</ele><time>2026-04-06T16:10:06Z</time></trkpt><trkpt lat="45.02534786864828" lon="9.109664647958896"><ele>73.0</ele><time>2026-04-06T16:10:07Z</time></trkpt><trkpt lat="45.025615015063416" lon="9.109705886543548"><ele>74.5</ele><time>2026-04-06T16:10:08Z</time></trkpt><trkpt lat="45.02587079167884" lon="9.10976162235183"><ele>76.0</ele><time>2026-04-06T16:10:09Z</time></trkpt><trkpt lat="45.0261255728625" lon="9.109841895237807"><ele>75.0</ele><time>2026-04-06T16:10:10Z</time></trkpt><trkpt lat="45.02637717390687" lon="9.109954413039786"><ele>74.0</ele><time>2026-04-06T16:10:11Z</time></trkpt><trkpt lat="45.0266268924427" lon="9.110091153442303"><ele>74.5</ele><time>2026-04-06T16:10:12Z</time></trkpt><trkpt lat="45.02687644105753" lon="9.110241196249115"><ele>75.0</ele><time>2026-04-06T16:10:13Z</time></trkpt><trkpt lat="45.027121671756376" lon="9.11041119664277"><ele>75.0</ele><time>2026-04-06T16:10:14Z</time></trkpt><trkpt lat="45.0273629884178" lon="9.110595274722206"><ele>75.0</ele><time>2026-04-06T16:10:15Z</time></trkpt><trkpt lat="45.02759776308752" lon="9.110797023246848"><ele>76.5</ele><time>2026-04-06T16:10:16Z</time></trkpt><trkpt lat="45.02781252550283" lon="9.111041852047608"><ele>78.0</ele><time>2026-04-06T16:10:17Z</time></trkpt><trkpt lat="45.02803574711416" lon="9.11127372538852"><ele>78.0</ele><time>2026-04-06T16:10:18Z</time></trkpt><trkpt lat="45.02823997781881" lon="9.11154356146344"><ele>78.0</ele><time>2026-04-06T16:10:19Z</time></trkpt><trkpt lat="45.028436313866344" lon="9.11182579769052"><ele>78.0</ele><time>2026-04-06T16:10:20Z</time></trkpt><trkpt lat="45.02862652529412" lon="9.112120503124851"><ele>78.0</ele><time>2026-04-06T16:10:21Z</time></trkpt><trkpt lat="45.02880692706102" lon="9.11243105859772"><ele>78.5</ele><time>2026-04-06T16:10:22Z</time></trkpt><trkpt lat="45.028972247631586" lon="9.112757909803825"><ele>79.0</ele><time>2026-04-06T16:10:23Z</time></trkpt><trkpt lat="45.02912066206405" lon="9.113096471233796"><ele>79.0</ele><time>2026-04-06T16:10:24Z</time></trkpt><trkpt lat="45.02925304307723" lon="9.113456524850669"><ele>79.0</ele><time>2026-04-06T16:10:25Z</time></trkpt><trkpt lat="45.0293730006679" lon="9.113825574232884"><ele>79.5</ele><time>2026-04-06T16:10:26Z</time></trkpt><trkpt lat="45.029481395421286" lon="9.11420960500583"><ele>80.0</ele><time>2026-04-06T16:10:27Z</time></trkpt><trkpt lat="45.02957058917697" lon="9.11460989155717"><ele>79.5</ele><time>2026-04-06T16:10:28Z</time></trkpt><trkpt lat="45.029648861930255" lon="9.115026046809534"><ele>79.0</ele><time>2026-04-06T16:10:29Z</time></trkpt><trkpt lat="45.02970760038262" lon="9.115459940292766"><ele>79.0</ele><time>2026-04-06T16:10:30Z</time></trkpt><trkpt lat="45.02975408482933" lon="9.115903288388562"><ele>79.0</ele><time>2026-04-06T16:10:31Z</time></trkpt><trkpt lat="45.02978031470274" lon="9.116368050821679"><ele>79.0</ele><time>2026-04-06T16:10:32Z</time></trkpt><trkpt lat="45.029802601968704" lon="9.116832173016567"><ele>79.0</ele><time>2026-04-06T16:10:33Z</time></trkpt><trkpt lat="45.02981828841687" lon="9.117293266161134"><ele>80.0</ele><time>2026-04-06T16:10:34Z</time></trkpt><trkpt lat="45.029831900327636" lon="9.117749783745563"><ele>81.0</ele><time>2026-04-06T16:10:35Z</time></trkpt><trkpt lat="45.02984784791732" lon="9.118194831379723"><ele>80.0</ele><time>2026-04-06T16:10:36Z</time></trkpt><trkpt lat="45.029868340926654" lon="9.118630225287376"><ele>79.0</ele><time>2026-04-06T16:10:37Z</time></trkpt><trkpt lat="45.02989111223933" lon="9.119060748586968"><ele>79.5</ele><time>2026-04-06T16:10:38Z</time></trkpt><trkpt lat="45.029917155919286" lon="9.119487975129902"><ele>80.0</ele><time>2026-04-06T16:10:39Z</time></trkpt><trkpt lat="45.029948749393974" lon="9.119912968283817"><ele>80.0</ele><time>2026-04-06T16:10:40Z</time></trkpt><trkpt lat="45.02998431569402" lon="9.120338899345926"><ele>80.0</ele><time>2026-04-06T16:10:41Z</time></trkpt><trkpt lat="45.03002523526251" lon="9.120757483275504"><ele>80.0</ele><time>2026-04-06T16:10:42Z</time></trkpt><trkpt lat="45.0300746706719" lon="9.12117626172822"><ele>80.0</ele><time>2026-04-06T16:10:43Z</time></trkpt><trkpt lat="45.03012947415205" lon="9.121596324698583"><ele>80.0</ele><time>2026-04-06T16:10:44Z</time></trkpt><trkpt lat="45.03019109324464" lon="9.122023358933879"><ele>80.0</ele><time>2026-04-06T16:10:45Z</time></trkpt><trkpt lat="45.03025961161005" lon="9.122454168014308"><ele>79.5</ele><time>2026-04-06T16:10:46Z</time></trkpt><trkpt lat="45.03033837692844" lon="9.122889675708514"><ele>79.0</ele><time>2026-04-06T16:10:47Z</time></trkpt><trkpt lat="45.03042921572607" lon="9.123330493127224"><ele>79.0</ele><time>2026-04-06T16:10:48Z</time></trkpt><trkpt lat="45.03053180405498" lon="9.123785990180714"><ele>79.0</ele><time>2026-04-06T16:10:49Z</time></trkpt><trkpt lat="45.03065027488058" lon="9.124269541050912"><ele>79.0</ele><time>2026-04-06T16:10:50Z</time></trkpt><trkpt lat="45.030773439149904" lon="9.124775987047409"><ele>79.0</ele><time>2026-04-06T16:10:51Z</time></trkpt><trkpt lat="45.030901758694924" lon="9.125312583430777"><ele>77.5</ele><time>2026-04-06T16:10:52Z</time></trkpt><trkpt lat="45.03101688749848" lon="9.12588416857386"><ele>76.0</ele><time>2026-04-06T16:10:53Z</time></trkpt><trkpt lat="45.031160096849376" lon="9.12642571638918"><ele>77.0</ele><time>2026-04-06T16:10:54Z</time></trkpt><trkpt lat="45.031274737660794" lon="9.126921059245245"><ele>78.0</ele><time>2026-04-06T16:10:55Z</time></trkpt><trkpt lat="45.031377877748575" lon="9.127374202056892"><ele>78.5</ele><time>2026-04-06T16:10:56Z</time></trkpt><trkpt lat="45.031474764678016" lon="9.127796851325611"><ele>79.0</ele><time>2026-04-06T16:10:57Z</time></trkpt><trkpt lat="45.03156178774305" lon="9.128178763662495"><ele>79.0</ele><time>2026-04-06T16:10:58Z</time></trkpt><trkpt lat="45.03164914093833" lon="9.128524717610816"><ele>79.0</ele><time>2026-04-06T16:10:59Z</time></trkpt><trkpt lat="45.03174651875398" lon="9.128848129294063"><ele>79.0</ele><time>2026-04-06T16:11:00Z</time></trkpt><trkpt lat="45.031852807642885" lon="9.129146505422675"><ele>79.0</ele><time>2026-04-06T16:11:01Z</time></trkpt><trkpt lat="45.03198032031769" lon="9.129406558079731"><ele>79.0</ele><time>2026-04-06T16:11:02Z</time></trkpt><trkpt lat="45.03213245817929" lon="9.129648138535405"><ele>79.0</ele><time>2026-04-06T16:11:03Z</time></trkpt><trkpt lat="45.03229118793626" lon="9.12988110037714"><ele>79.0</ele><time>2026-04-06T16:11:04Z</time></trkpt><trkpt lat="45.03244312561471" lon="9.130117656755429"><ele>79.0</ele><time>2026-04-06T16:11:05Z</time></trkpt><trkpt lat="45.032601332504896" lon="9.13034978272578"><ele>79.5</ele><time>2026-04-06T16:11:06Z</time></trkpt><trkpt lat="45.032919519656616" lon="9.130377213179186"><ele>80.0</ele><time>2026-04-06T16:11:07Z</time></trkpt><trkpt lat="45.03315006892332" lon="9.130500417550747"><ele>80.0</ele><time>2026-04-06T16:11:08Z</time></trkpt><trkpt lat="45.03338956527516" lon="9.130585855887677"><ele>80.0</ele><time>2026-04-06T16:11:09Z</time></trkpt><trkpt lat="45.03364338868304" lon="9.13064734299389"><ele>80.0</ele><time>2026-04-06T16:11:10Z</time></trkpt><trkpt lat="45.03390381708767" lon="9.130709323472715"><ele>80.0</ele><time>2026-04-06T16:11:11Z</time></trkpt><trkpt lat="45.03417661698977" lon="9.130780922549127"><ele>79.0</ele><time>2026-04-06T16:11:12Z</time></trkpt><trkpt lat="45.03445013041763" lon="9.130861812405017"><ele>78.0</ele><time>2026-04-06T16:11:13Z</time></trkpt><trkpt lat="45.03473137783452" lon="9.130943056101916"><ele>77.5</ele><time>2026-04-06T16:11:14Z</time></trkpt><trkpt lat="45.03501997790968" lon="9.131023096558762"><ele>77.0</ele><time>2026-04-06T16:11:15Z</time></trkpt><trkpt lat="45.03531197269427" lon="9.131102677046101"><ele>77.0</ele><time>2026-04-06T16:11:16Z</time></trkpt><trkpt lat="45.03560869135212" lon="9.131178847463175"><ele>77.0</ele><time>2026-04-06T16:11:17Z</time></trkpt><trkpt lat="45.03590215677141" lon="9.13125074989547"><ele>77.0</ele><time>2026-04-06T16:11:18Z</time></trkpt><trkpt lat="45.03619238950789" lon="9.131314210683696"><ele>77.0</ele><time>2026-04-06T16:11:19Z</time></trkpt><trkpt lat="45.03647558648005" lon="9.131371750551343"><ele>77.0</ele><time>2026-04-06T16:11:20Z</time></trkpt><trkpt lat="45.03675475582603" lon="9.131428285252795"><ele>77.0</ele><time>2026-04-06T16:11:21Z</time></trkpt><trkpt lat="45.03701798482026" lon="9.131481458202897"><ele>77.0</ele><time>2026-04-06T16:11:22Z</time></trkpt><trkpt lat="45.03727311702472" lon="9.131529479530679"><ele>77.0</ele><time>2026-04-06T16:11:23Z</time></trkpt><trkpt lat="45.037516280974025" lon="9.131574661913554"><ele>78.0</ele><time>2026-04-06T16:11:24Z</time></trkpt><trkpt lat="45.03775042859349" lon="9.131622838011857"><ele>79.0</ele><time>2026-04-06T16:11:25Z</time></trkpt><trkpt lat="45.03797361499274" lon="9.131671965217194"><ele>79.0</ele><time>2026-04-06T16:11:26Z</time></trkpt><trkpt lat="45.03820214299736" lon="9.13172005894185"><ele>79.0</ele><time>2026-04-06T16:11:27Z</time></trkpt><trkpt lat="45.03843525978288" lon="9.131766537162214"><ele>79.0</ele><time>2026-04-06T16:11:28Z</time></trkpt><trkpt lat="45.0386757826124" lon="9.131808977120341"><ele>79.0</ele><time>2026-04-06T16:11:29Z</time></trkpt><trkpt lat="45.03893267463068" lon="9.131858955803892"><ele>78.0</ele><time>2026-04-06T16:11:30Z</time></trkpt><trkpt lat="45.039198362464255" lon="9.131913341263738"><ele>77.0</ele><time>2026-04-06T16:11:31Z</time></trkpt><trkpt lat="45.03944241029717" lon="9.131973195991627"><ele>77.0</ele><time>2026-04-06T16:11:32Z</time></trkpt><trkpt lat="45.0396815610266" lon="9.132029351523004"><ele>77.0</ele><time>2026-04-06T16:11:33Z</time></trkpt><trkpt lat="45.0399251527953" lon="9.13206809400669"><ele>76.33333333333334</ele><time>2026-04-06T16:11:34Z</time></trkpt><trkpt lat="45.040150646179704" lon="9.132096085388012"><ele>75.66666666666667</ele><time>2026-04-06T16:11:35Z</time></trkpt><trkpt lat="45.04036432022055" lon="9.132111367706102"><ele>75.0</ele><time>2026-04-06T16:11:36Z</time></trkpt><trkpt lat="45.040572959700484" lon="9.132121623240984"><ele>75.0</ele><time>2026-04-06T16:11:37Z</time></trkpt><trkpt lat="45.04078378083937" lon="9.132128424547242"><ele>75.0</ele><time>2026-04-06T16:11:38Z</time></trkpt><trkpt lat="45.04099878670321" lon="9.13214246822923"><ele>75.0</ele><time>2026-04-06T16:11:39Z</time></trkpt><trkpt lat="45.041212316594915" lon="9.132163224475585"><ele>75.0</ele><time>2026-04-06T16:11:40Z</time></trkpt><trkpt lat="45.041420037905894" lon="9.132189416494544"><ele>75.0</ele><time>2026-04-06T16:11:41Z</time></trkpt><trkpt lat="45.04162760355671" lon="9.132221050210795"><ele>75.0</ele><time>2026-04-06T16:11:42Z</time></trkpt><trkpt lat="45.04183795654606" lon="9.13225899967005"><ele>75.0</ele><time>2026-04-06T16:11:43Z</time></trkpt><trkpt lat="45.04205083237181" lon="9.13230459965739"><ele>75.0</ele><time>2026-04-06T16:11:44Z</time></trkpt><trkpt lat="45.04226763278484" lon="9.132343994396537"><ele>75.0</ele><time>2026-04-06T16:11:45Z</time></trkpt><trkpt lat="45.04248899269386" lon="9.132382982847643"><ele>74.5</ele><time>2026-04-06T16:11:46Z</time></trkpt><trkpt lat="45.04271038940016" lon="9.132424128089571"><ele>74.0</ele><time>2026-04-06T16:11:47Z</time></trkpt><trkpt lat="45.04293453262173" lon="9.132467795315044"><ele>74.0</ele><time>2026-04-06T16:11:48Z</time></trkpt><trkpt lat="45.04315675692149" lon="9.132535466988973"><ele>74.0</ele><time>2026-04-06T16:11:49Z</time></trkpt><trkpt lat="45.043380644673825" lon="9.132581528209121"><ele>74.5</ele><time>2026-04-06T16:11:50Z</time></trkpt><trkpt lat="45.0436034909902" lon="9.132626667929292"><ele>75.0</ele><time>2026-04-06T16:11:51Z</time></trkpt><trkpt lat="45.04382755877966" lon="9.132669880294"><ele>75.0</ele><time>2026-04-06T16:11:52Z</time></trkpt><trkpt lat="45.04405178254365" lon="9.132706168092529"><ele>75.0</ele><time>2026-04-06T16:11:53Z</time></trkpt><trkpt lat="45.04427097110209" lon="9.132733856878154"><ele>75.0</ele><time>2026-04-06T16:11:54Z</time></trkpt><trkpt lat="45.044488377696204" lon="9.132770106873947"><ele>74.66666666666667</ele><time>2026-04-06T16:11:55Z</time></trkpt><trkpt lat="45.04470526352907" lon="9.132811179923879"><ele>74.33333333333334</ele><time>2026-04-06T16:11:56Z</time></trkpt><trkpt lat="45.04491937003505" lon="9.132853973872972"><ele>74.0</ele><time>2026-04-06T16:11:57Z</time></trkpt><trkpt lat="45.04513300740835" lon="9.132897388708033"><ele>74.66666666666667</ele><time>2026-04-06T16:11:58Z</time></trkpt><trkpt lat="45.04534536005548" lon="9.132942857306508"><ele>75.33333333333333</ele><time>2026-04-06T16:11:59Z</time></trkpt><trkpt lat="45.04555445736273" lon="9.132989140093892"><ele>76.0</ele><time>2026-04-06T16:12:00Z</time></trkpt><trkpt lat="45.04574689593321" lon="9.133034125326015"><ele>75.66666666666666</ele><time>2026-04-06T16:12:01Z</time></trkpt><trkpt lat="45.04593655510579" lon="9.133060422496108"><ele>75.33333333333333</ele><time>2026-04-06T16:12:02Z</time></trkpt><trkpt lat="45.04610565023992" lon="9.133127752232399"><ele>75.0</ele><time>2026-04-06T16:12:03Z</time></trkpt><trkpt lat="45.04627474073461" lon="9.13317318290823"><ele>75.0</ele><time>2026-04-06T16:12:04Z</time></trkpt><trkpt lat="45.046387673039035" lon="9.133203884163665"><ele>75.0</ele><time>2026-04-06T16:12:05Z</time></trkpt><trkpt lat="45.046507245413444" lon="9.133235726935764"><ele>75.0</ele><time>2026-04-06T16:12:06Z</time></trkpt><trkpt lat="45.046625291162734" lon="9.133247022727545"><ele>75.0</ele><time>2026-04-06T16:12:07Z</time></trkpt><trkpt lat="45.046732612461696" lon="9.133272285134645"><ele>74.4</ele><time>2026-04-06T16:12:08Z</time></trkpt><trkpt lat="45.04683267476319" lon="9.133319071096123"><ele>73.8</ele><time>2026-04-06T16:12:09Z</time></trkpt><trkpt lat="45.04692943161976" lon="9.133340733881566"><ele>73.2</ele><time>2026-04-06T16:12:10Z</time></trkpt><trkpt lat="45.04702181792332" lon="9.133361418130118"><ele>72.6</ele><time>2026-04-06T16:12:11Z</time></trkpt><trkpt lat="45.04710934223063" lon="9.133379309606603"><ele>72.0</ele><time>2026-04-06T16:12:12Z</time></trkpt><trkpt lat="45.04719378198033" lon="9.133396866786223"><ele>72.0</ele><time>2026-04-06T16:12:13Z</time></trkpt><trkpt lat="45.04726899488773" lon="9.133412505469034"><ele>72.0</ele><time>2026-04-06T16:12:14Z</time></trkpt><trkpt lat="45.047339566621666" lon="9.133427179134095"><ele>72.0</ele><time>2026-04-06T16:12:15Z</time></trkpt><trkpt lat="45.04740508904044" lon="9.13344080291689"><ele>72.0</ele><time>2026-04-06T16:12:16Z</time></trkpt><trkpt lat="45.04747250591544" lon="9.133455154372072"><ele>72.0</ele><time>2026-04-06T16:12:17Z</time></trkpt><trkpt lat="45.04754179267282" lon="9.13344777710942"><ele>72.0</ele><time>2026-04-06T16:12:18Z</time></trkpt><trkpt lat="45.0476568521316" lon="9.133473515829882"><ele>71.8</ele><time>2026-04-06T16:12:20Z</time></trkpt><trkpt lat="45.04776687300181" lon="9.133498757486535"><ele>71.6</ele><time>2026-04-06T16:12:22Z</time></trkpt><trkpt lat="45.0478586993057" lon="9.133518482898552"><ele>71.39999999999999</ele><time>2026-04-06T16:12:24Z</time></trkpt><trkpt lat="45.0479646762304" lon="9.133545900719461"><ele>71.2</ele><time>2026-04-06T16:12:26Z</time></trkpt><trkpt lat="45.04809429601422" lon="9.133567026095498"><ele>71.0</ele><time>2026-04-06T16:12:28Z</time></trkpt><trkpt lat="45.048175330951345" lon="9.133586845738161"><ele>71.0</ele><time>2026-04-06T16:12:29Z</time></trkpt><trkpt lat="45.04827614669317" lon="9.133613409876594"><ele>71.0</ele><time>2026-04-06T16:12:30Z</time></trkpt><trkpt lat="45.04838419246894" lon="9.133640751371555"><ele>71.0</ele><time>2026-04-06T16:12:31Z</time></trkpt><trkpt lat="45.048499184110455" lon="9.133670445397827"><ele>71.0</ele><time>2026-04-06T16:12:32Z</time></trkpt><trkpt lat="45.04862045744029" lon="9.133694508003078"><ele>71.0</ele><time>2026-04-06T16:12:33Z</time></trkpt><trkpt lat="45.04874342530102" lon="9.1337175595643"><ele>71.0</ele><time>2026-04-06T16:12:34Z</time></trkpt><trkpt lat="45.048876220951655" lon="9.13374540983963"><ele>71.0</ele><time>2026-04-06T16:12:35Z</time></trkpt><trkpt lat="45.049010220722124" lon="9.133777416550029"><ele>71.0</ele><time>2026-04-06T16:12:36Z</time></trkpt><trkpt lat="45.04915204134085" lon="9.133805113092592"><ele>71.33333333333334</ele><time>2026-04-06T16:12:37Z</time></trkpt><trkpt lat="45.04930000069074" lon="9.133833408907053"><ele>71.66666666666667</ele><time>2026-04-06T16:12:38Z</time></trkpt><trkpt lat="45.04946768136538" lon="9.133867277813692"><ele>72.0</ele><time>2026-04-06T16:12:39Z</time></trkpt><trkpt lat="45.04966308306675" lon="9.133908568409693"><ele>72.0</ele><time>2026-04-06T16:12:40Z</time></trkpt><trkpt lat="45.0498393362457" lon="9.133952527580105"><ele>72.0</ele><time>2026-04-06T16:12:41Z</time></trkpt><trkpt lat="45.05000260621951" lon="9.133989845387157"><ele>72.0</ele><time>2026-04-06T16:12:42Z</time></trkpt><trkpt lat="45.05016152776825" lon="9.134024305051437"><ele>72.0</ele><time>2026-04-06T16:12:43Z</time></trkpt><trkpt lat="45.050322082565735" lon="9.134058419064624"><ele>72.0</ele><time>2026-04-06T16:12:44Z</time></trkpt><trkpt lat="45.050483152701574" lon="9.134092186804871"><ele>72.0</ele><time>2026-04-06T16:12:45Z</time></trkpt><trkpt lat="45.05064123166594" lon="9.1341277214912"><ele>72.0</ele><time>2026-04-06T16:12:46Z</time></trkpt><trkpt lat="45.050790039153334" lon="9.134159270496792"><ele>72.0</ele><time>2026-04-06T16:12:47Z</time></trkpt><trkpt lat="45.0509309155652" lon="9.134190821669886"><ele>72.0</ele><time>2026-04-06T16:12:48Z</time></trkpt><trkpt lat="45.05106300594054" lon="9.134219846477"><ele>72.0</ele><time>2026-04-06T16:12:49Z</time></trkpt><trkpt lat="45.05118497364102" lon="9.134247023480242"><ele>71.8</ele><time>2026-04-06T16:12:50Z</time></trkpt><trkpt lat="45.051288820201805" lon="9.134272351181968"><ele>71.6</ele><time>2026-04-06T16:12:51Z</time></trkpt><trkpt lat="45.05136489317851" lon="9.134293295526847"><ele>71.39999999999999</ele><time>2026-04-06T16:12:52Z</time></trkpt><trkpt lat="45.051465699550214" lon="9.134379559750174"><ele>71.2</ele><time>2026-04-06T16:12:54Z</time></trkpt><trkpt lat="45.05154479860937" lon="9.134452998163475"><ele>71.0</ele><time>2026-04-06T16:12:56Z</time></trkpt><trkpt lat="45.051559178760506" lon="9.134546601501892"><ele>71.0</ele><time>2026-04-06T16:12:57Z</time></trkpt><trkpt lat="45.05161823959232" lon="9.134605345838661"><ele>71.0</ele><time>2026-04-06T16:13:00Z</time></trkpt><trkpt lat="45.05175967262448" lon="9.134579117246595"><ele>71.0</ele><time>2026-04-06T16:15:46Z</time></trkpt><trkpt lat="45.05180662466357" lon="9.134472772128591"><ele>71.0</ele><time>2026-04-06T16:15:50Z</time></trkpt><trkpt lat="45.051626861113135" lon="9.134288808750048"><ele>71.0</ele><time>2026-04-06T16:16:14Z</time></trkpt><trkpt lat="45.05148527818022" lon="9.134255802807187"><ele>71.0</ele><time>2026-04-06T16:16:15Z</time></trkpt><trkpt lat="45.051361300492204" lon="9.13422338636198"><ele>71.0</ele><time>2026-04-06T16:16:16Z</time></trkpt><trkpt lat="45.05119501236539" lon="9.134177926524684"><ele>71.0</ele><time>2026-04-06T16:16:17Z</time></trkpt><trkpt lat="45.051012561245855" lon="9.134140875576248"><ele>71.0</ele><time>2026-04-06T16:16:18Z</time></trkpt><trkpt lat="45.05082861649427" lon="9.13409969930014"><ele>71.0</ele><time>2026-04-06T16:16:19Z</time></trkpt><trkpt lat="45.05062995400289" lon="9.134052368722388"><ele>71.0</ele><time>2026-04-06T16:16:20Z</time></trkpt><trkpt lat="45.050408849852374" lon="9.133998962643432"><ele>71.33333333333334</ele><time>2026-04-06T16:16:21Z</time></trkpt><trkpt lat="45.05020526240039" lon="9.133961436449342"><ele>71.66666666666667</ele><time>2026-04-06T16:16:22Z</time></trkpt><trkpt lat="45.05001461018033" lon="9.133919410589241"><ele>72.0</ele><time>2026-04-06T16:16:23Z</time></trkpt><trkpt lat="45.04983935445429" lon="9.133875078971128"><ele>72.0</ele><time>2026-04-06T16:16:24Z</time></trkpt><trkpt lat="45.049687614125226" lon="9.133850823691558"><ele>72.0</ele><time>2026-04-06T16:16:25Z</time></trkpt><trkpt lat="45.04954082815731" lon="9.13382748225538"><ele>72.0</ele><time>2026-04-06T16:16:26Z</time></trkpt><trkpt lat="45.04939729686275" lon="9.13379550044103"><ele>72.0</ele><time>2026-04-06T16:16:27Z</time></trkpt><trkpt lat="45.04927259395463" lon="9.133761368911825"><ele>72.0</ele><time>2026-04-06T16:16:28Z</time></trkpt><trkpt lat="45.04917502221878" lon="9.133738079227651"><ele>72.0</ele><time>2026-04-06T16:16:29Z</time></trkpt><trkpt lat="45.04909424205009" lon="9.13371689015656"><ele>72.0</ele><time>2026-04-06T16:16:30Z</time></trkpt><trkpt lat="45.04899295160172" lon="9.133645044461273"><ele>72.0</ele><time>2026-04-06T16:16:32Z</time></trkpt><trkpt lat="45.04899213341969" lon="9.133478012646988"><ele>72.0</ele><time>2026-04-06T16:16:34Z</time></trkpt><trkpt lat="45.04900546069764" lon="9.133363350255673"><ele>72.0</ele><time>2026-04-06T16:16:35Z</time></trkpt><trkpt lat="45.049025369921026" lon="9.133196777625065"><ele>72.0</ele><time>2026-04-06T16:16:36Z</time></trkpt><trkpt lat="45.04904883853372" lon="9.133002369808747"><ele>72.0</ele><time>2026-04-06T16:16:37Z</time></trkpt><trkpt lat="45.04907352229221" lon="9.132797896202812"><ele>72.0</ele><time>2026-04-06T16:16:38Z</time></trkpt><trkpt lat="45.049102080522815" lon="9.132566678508399"><ele>72.33333333333333</ele><time>2026-04-06T16:16:39Z</time></trkpt><trkpt lat="45.049130489864574" lon="9.132331878865637"><ele>72.66666666666666</ele><time>2026-04-06T16:16:40Z</time></trkpt><trkpt lat="45.04916138083669" lon="9.132070936347375"><ele>73.0</ele><time>2026-04-06T16:16:41Z</time></trkpt><trkpt lat="45.049191952053064" lon="9.131812779417672"><ele>73.0</ele><time>2026-04-06T16:16:42Z</time></trkpt><trkpt lat="45.0492189707626" lon="9.131584621460748"><ele>73.0</ele><time>2026-04-06T16:16:43Z</time></trkpt><trkpt lat="45.0492425005236" lon="9.131387712361065"><ele>73.0</ele><time>2026-04-06T16:16:44Z</time></trkpt><trkpt lat="45.04926522951176" lon="9.131197515428584"><ele>73.0</ele><time>2026-04-06T16:16:44.999Z</time></trkpt><trkpt lat="45.049285998219204" lon="9.131023722160728"><ele>73.0</ele><time>2026-04-06T16:16:45.999Z</time></trkpt><trkpt lat="45.04930619926809" lon="9.130854679060546"><ele>73.0</ele><time>2026-04-06T16:16:46.999Z</time></trkpt><trkpt lat="45.04932538282384" lon="9.130694150397483"><ele>73.0</ele><time>2026-04-06T16:16:47.999Z</time></trkpt><trkpt lat="45.049342814220466" lon="9.130548283906792"><ele>73.0</ele><time>2026-04-06T16:16:48.999Z</time></trkpt><trkpt lat="45.04935941923208" lon="9.13040820824105"><ele>73.0</ele><time>2026-04-06T16:16:49.999Z</time></trkpt><trkpt lat="45.04937490066071" lon="9.130274192250692"><ele>73.16666666666666</ele><time>2026-04-06T16:16:50.999Z</time></trkpt><trkpt lat="45.049380420676364" lon="9.1301420956147"><ele>73.33333333333333</ele><time>2026-04-06T16:16:51.999Z</time></trkpt><trkpt lat="45.04939518430199" lon="9.1300245268478"><ele>73.5</ele><time>2026-04-06T16:16:52.999Z</time></trkpt><trkpt lat="45.049410206365906" lon="9.129901649370074"><ele>73.66666666666667</ele><time>2026-04-06T16:16:53.999Z</time></trkpt><trkpt lat="45.04942150346284" lon="9.12978703891091"><ele>73.83333333333334</ele><time>2026-04-06T16:16:54.999Z</time></trkpt><trkpt lat="45.0494383805259" lon="9.129676718257146"><ele>74.0</ele><time>2026-04-06T16:16:55.999Z</time></trkpt><trkpt lat="45.04944828554085" lon="9.129585442224245"><ele>74.0</ele><time>2026-04-06T16:16:56.999Z</time></trkpt><trkpt lat="45.04945978302048" lon="9.129474291030288"><ele>74.0</ele><time>2026-04-06T16:16:59Z</time></trkpt><trkpt lat="45.04950103987576" lon="9.12940502920981"><ele>74.0</ele><time>2026-04-06T16:17:02Z</time></trkpt><trkpt lat="45.049568897185765" lon="9.129449916967555"><ele>74.0</ele><time>2026-04-06T16:17:03Z</time></trkpt><trkpt lat="45.04969313945214" lon="9.129483144368898"><ele>74.0</ele><time>2026-04-06T16:17:05Z</time></trkpt><trkpt lat="45.04976261206833" lon="9.129510603314223"><ele>74.0</ele><time>2026-04-06T16:17:06Z</time></trkpt><trkpt lat="45.04983386870506" lon="9.129540126547807"><ele>74.0</ele><time>2026-04-06T16:17:07Z</time></trkpt><trkpt lat="45.04990627830323" lon="9.12957228811723"><ele>74.0</ele><time>2026-04-06T16:17:08Z</time></trkpt><trkpt lat="45.049995876459846" lon="9.129590459136478"><ele>74.0</ele><time>2026-04-06T16:17:09Z</time></trkpt><trkpt lat="45.05007171235813" lon="9.12960835526215"><ele>74.0</ele><time>2026-04-06T16:17:10Z</time></trkpt><trkpt lat="45.05015073499064" lon="9.129623902582038"><ele>74.0</ele><time>2026-04-06T16:17:11Z</time></trkpt><trkpt lat="45.050255709208685" lon="9.129648535774733"><ele>74.0</ele><time>2026-04-06T16:17:13Z</time></trkpt><trkpt lat="45.0503319971249" lon="9.129699835346786"><ele>74.0</ele><time>2026-04-06T16:17:16Z</time></trkpt><trkpt lat="45.050330670861015" lon="9.129825268491848"><ele>74.0</ele><time>2026-04-06T16:17:19Z</time></trkpt><trkpt lat="45.050307097575775" lon="9.129945135489931"><ele>74.0</ele><time>2026-04-06T16:17:22Z</time></trkpt><trkpt lat="45.05028818150847" lon="9.130070848521191"><ele>74.0</ele><time>2026-04-06T16:17:25Z</time></trkpt><trkpt lat="45.05027340536231" lon="9.130176491909364"><ele>74.0</ele><time>2026-04-06T16:17:27Z</time></trkpt><trkpt lat="45.05026220143379" lon="9.130280813565017"><ele>74.0</ele><time>2026-04-06T16:17:29Z</time></trkpt><trkpt lat="45.050248498700135" lon="9.130395019860623"><ele>74.0</ele><time>2026-04-06T16:17:31Z</time></trkpt><trkpt lat="45.05023094366798" lon="9.130518194563718"><ele>74.0</ele><time>2026-04-06T16:17:34Z</time></trkpt><trkpt lat="45.0502211979766" lon="9.130621697464115"><ele>74.0</ele><time>2026-04-06T16:17:37Z</time></trkpt><trkpt lat="45.050357190398636" lon="9.130680610901695"><ele>74.0</ele><time>2026-04-06T16:17:43Z</time></trkpt><trkpt lat="45.0504259187801" lon="9.130678527186898"><ele>74.0</ele><time>2026-04-06T16:17:47Z</time></trkpt><trkpt lat="45.050369071766596" lon="9.130633895997558"><ele>74.0</ele><time>2026-04-06T16:18:46Z</time></trkpt><trkpt lat="45.05055892751116" lon="9.130481807523529"><ele>74.0</ele><time>2026-04-06T16:19:39Z</time></trkpt><trkpt lat="45.05036783369111" lon="9.130588532370313"><ele>74.0</ele><time>2026-04-06T16:19:44Z</time></trkpt></trkseg></trk></gpx>